<?xml version="1.0" encoding="UTF-8" standalone="no" ?>
<gpx xmlns="http://www.topografix.com/GPX/1/1" xmlns:xsi="http://www.w3.org/2001/XMLSchema-instance" xsi:schemaLocation="http://www.topografix.com/GPX/1/1 http://www.topografix.com/GPX/1/1/gpx.xsd" version="1.1" creator="VisuGPX - https://www.visugpx.com">
  <metadata>
    <name>Salagou : 2 presqu'îles (trace incomplète)</name>
    <desc><![CDATA[Il manque le début du tracé, le tour de la presqu'île depuis le parking d'arrivée.

#enregistré ]]></desc>
  </metadata>
  <trk>
    <name><![CDATA[Trace 1779012421999]]></name>
    <trkseg>
      <trkpt lat="43.65395" lon="3.35526">
        <ele>184</ele>
        <time>2026-05-17T10:07:01.999Z</time>
      </trkpt>
      <trkpt lat="43.65395" lon="3.35526">
        <ele>184.2</ele>
        <time>2026-05-17T10:07:02.999Z</time>
      </trkpt>
      <trkpt lat="43.65395" lon="3.35526">
        <ele>184.3</ele>
        <time>2026-05-17T10:07:03.999Z</time>
      </trkpt>
      <trkpt lat="43.65395" lon="3.35526">
        <ele>184.5</ele>
        <time>2026-05-17T10:07:04.999Z</time>
      </trkpt>
      <trkpt lat="43.65394" lon="3.35525">
        <ele>184.6</ele>
        <time>2026-05-17T10:07:05.999Z</time>
      </trkpt>
      <trkpt lat="43.65393" lon="3.35523">
        <ele>184.7</ele>
        <time>2026-05-17T10:07:06.999Z</time>
      </trkpt>
      <trkpt lat="43.65392" lon="3.35522">
        <ele>184.6</ele>
        <time>2026-05-17T10:07:07.999Z</time>
      </trkpt>
      <trkpt lat="43.65391" lon="3.35521">
        <ele>184.7</ele>
        <time>2026-05-17T10:07:08.999Z</time>
      </trkpt>
      <trkpt lat="43.6539" lon="3.35521">
        <ele>184.9</ele>
        <time>2026-05-17T10:07:09.999Z</time>
      </trkpt>
      <trkpt lat="43.65389" lon="3.35521">
        <ele>184.8</ele>
        <time>2026-05-17T10:07:10.999Z</time>
      </trkpt>
      <trkpt lat="43.65389" lon="3.35522">
        <ele>184.6</ele>
        <time>2026-05-17T10:07:11.999Z</time>
      </trkpt>
      <trkpt lat="43.65388" lon="3.35523">
        <ele>184.2</ele>
        <time>2026-05-17T10:07:12.999Z</time>
      </trkpt>
      <trkpt lat="43.65387" lon="3.35526">
        <ele>184.3</ele>
        <time>2026-05-17T10:07:13.999Z</time>
      </trkpt>
      <trkpt lat="43.65387" lon="3.35528">
        <ele>184.2</ele>
        <time>2026-05-17T10:07:14.999Z</time>
      </trkpt>
      <trkpt lat="43.65385" lon="3.35529">
        <ele>184.3</ele>
        <time>2026-05-17T10:07:15.999Z</time>
      </trkpt>
      <trkpt lat="43.65384" lon="3.3553">
        <ele>184.2</ele>
        <time>2026-05-17T10:07:16.999Z</time>
      </trkpt>
      <trkpt lat="43.65382" lon="3.3553">
        <ele>184.4</ele>
        <time>2026-05-17T10:07:17.999Z</time>
      </trkpt>
      <trkpt lat="43.6538" lon="3.3553">
        <ele>184.4</ele>
        <time>2026-05-17T10:07:18.999Z</time>
      </trkpt>
      <trkpt lat="43.65379" lon="3.3553">
        <ele>184.5</ele>
        <time>2026-05-17T10:07:19.999Z</time>
      </trkpt>
      <trkpt lat="43.65378" lon="3.3553">
        <ele>184.3</ele>
        <time>2026-05-17T10:07:20.999Z</time>
      </trkpt>
      <trkpt lat="43.65376" lon="3.35529">
        <ele>184.3</ele>
        <time>2026-05-17T10:07:21.999Z</time>
      </trkpt>
      <trkpt lat="43.65375" lon="3.35529">
        <ele>184.4</ele>
        <time>2026-05-17T10:07:22.999Z</time>
      </trkpt>
      <trkpt lat="43.65374" lon="3.35529">
        <ele>184.4</ele>
        <time>2026-05-17T10:07:23.999Z</time>
      </trkpt>
      <trkpt lat="43.65373" lon="3.35529">
        <ele>184.4</ele>
        <time>2026-05-17T10:07:24.999Z</time>
      </trkpt>
      <trkpt lat="43.65372" lon="3.35529">
        <ele>184.4</ele>
        <time>2026-05-17T10:07:25.999Z</time>
      </trkpt>
      <trkpt lat="43.65371" lon="3.35529">
        <ele>184.3</ele>
        <time>2026-05-17T10:07:26.999Z</time>
      </trkpt>
      <trkpt lat="43.6537" lon="3.35529">
        <ele>184.1</ele>
        <time>2026-05-17T10:07:27.999Z</time>
      </trkpt>
      <trkpt lat="43.65369" lon="3.35529">
        <ele>184.1</ele>
        <time>2026-05-17T10:07:28.999Z</time>
      </trkpt>
      <trkpt lat="43.65368" lon="3.35529">
        <ele>184.1</ele>
        <time>2026-05-17T10:07:29.999Z</time>
      </trkpt>
      <trkpt lat="43.65367" lon="3.35529">
        <ele>184.2</ele>
        <time>2026-05-17T10:07:30.999Z</time>
      </trkpt>
      <trkpt lat="43.65366" lon="3.3553">
        <ele>184</ele>
        <time>2026-05-17T10:07:31.999Z</time>
      </trkpt>
      <trkpt lat="43.65365" lon="3.3553">
        <ele>184</ele>
        <time>2026-05-17T10:07:32.999Z</time>
      </trkpt>
      <trkpt lat="43.65364" lon="3.3553">
        <ele>183.9</ele>
        <time>2026-05-17T10:07:33.999Z</time>
      </trkpt>
      <trkpt lat="43.65363" lon="3.35531">
        <ele>184</ele>
        <time>2026-05-17T10:07:34.999Z</time>
      </trkpt>
      <trkpt lat="43.65362" lon="3.35531">
        <ele>184</ele>
        <time>2026-05-17T10:07:35.999Z</time>
      </trkpt>
      <trkpt lat="43.65361" lon="3.35531">
        <ele>183.9</ele>
        <time>2026-05-17T10:07:36.999Z</time>
      </trkpt>
      <trkpt lat="43.65361" lon="3.35531">
        <ele>183.8</ele>
        <time>2026-05-17T10:07:37.999Z</time>
      </trkpt>
      <trkpt lat="43.6536" lon="3.35532">
        <ele>183.8</ele>
        <time>2026-05-17T10:07:38.999Z</time>
      </trkpt>
      <trkpt lat="43.65359" lon="3.35531">
        <ele>183.8</ele>
        <time>2026-05-17T10:07:39.999Z</time>
      </trkpt>
      <trkpt lat="43.65359" lon="3.35531">
        <ele>184</ele>
        <time>2026-05-17T10:07:40.999Z</time>
      </trkpt>
      <trkpt lat="43.65358" lon="3.35531">
        <ele>184.1</ele>
        <time>2026-05-17T10:07:41.999Z</time>
      </trkpt>
      <trkpt lat="43.65357" lon="3.35531">
        <ele>184.2</ele>
        <time>2026-05-17T10:07:42.999Z</time>
      </trkpt>
      <trkpt lat="43.65356" lon="3.3553">
        <ele>184.2</ele>
        <time>2026-05-17T10:07:43.999Z</time>
      </trkpt>
      <trkpt lat="43.65354" lon="3.35529">
        <ele>184.2</ele>
        <time>2026-05-17T10:07:44.999Z</time>
      </trkpt>
      <trkpt lat="43.65353" lon="3.35528">
        <ele>184.5</ele>
        <time>2026-05-17T10:07:45.999Z</time>
      </trkpt>
      <trkpt lat="43.65353" lon="3.35528">
        <ele>184.9</ele>
        <time>2026-05-17T10:07:46.999Z</time>
      </trkpt>
      <trkpt lat="43.65352" lon="3.35528">
        <ele>185.4</ele>
        <time>2026-05-17T10:07:47.999Z</time>
      </trkpt>
      <trkpt lat="43.65351" lon="3.35529">
        <ele>185.4</ele>
        <time>2026-05-17T10:07:48.999Z</time>
      </trkpt>
      <trkpt lat="43.65351" lon="3.35529">
        <ele>185.4</ele>
        <time>2026-05-17T10:07:49.999Z</time>
      </trkpt>
      <trkpt lat="43.65351" lon="3.3553">
        <ele>184.9</ele>
        <time>2026-05-17T10:07:50.999Z</time>
      </trkpt>
      <trkpt lat="43.65351" lon="3.35532">
        <ele>184.8</ele>
        <time>2026-05-17T10:07:51.999Z</time>
      </trkpt>
      <trkpt lat="43.65351" lon="3.35534">
        <ele>184.8</ele>
        <time>2026-05-17T10:07:52.999Z</time>
      </trkpt>
      <trkpt lat="43.65351" lon="3.35537">
        <ele>185.1</ele>
        <time>2026-05-17T10:07:53.999Z</time>
      </trkpt>
      <trkpt lat="43.6535" lon="3.35538">
        <ele>185.1</ele>
        <time>2026-05-17T10:07:54.999Z</time>
      </trkpt>
      <trkpt lat="43.65349" lon="3.35539">
        <ele>185.4</ele>
        <time>2026-05-17T10:07:55.999Z</time>
      </trkpt>
      <trkpt lat="43.65348" lon="3.35539">
        <ele>185.6</ele>
        <time>2026-05-17T10:07:56.999Z</time>
      </trkpt>
      <trkpt lat="43.65347" lon="3.3554">
        <ele>185.7</ele>
        <time>2026-05-17T10:07:57.999Z</time>
      </trkpt>
      <trkpt lat="43.65346" lon="3.3554">
        <ele>185.9</ele>
        <time>2026-05-17T10:07:58.999Z</time>
      </trkpt>
      <trkpt lat="43.65345" lon="3.35541">
        <ele>185.9</ele>
        <time>2026-05-17T10:07:59.999Z</time>
      </trkpt>
      <trkpt lat="43.65344" lon="3.35542">
        <ele>185.8</ele>
        <time>2026-05-17T10:08:00.999Z</time>
      </trkpt>
      <trkpt lat="43.65344" lon="3.35544">
        <ele>185.9</ele>
        <time>2026-05-17T10:08:01.999Z</time>
      </trkpt>
      <trkpt lat="43.65344" lon="3.35545">
        <ele>185.8</ele>
        <time>2026-05-17T10:08:02.999Z</time>
      </trkpt>
      <trkpt lat="43.65344" lon="3.35547">
        <ele>186.1</ele>
        <time>2026-05-17T10:08:03.999Z</time>
      </trkpt>
      <trkpt lat="43.65344" lon="3.35548">
        <ele>186.6</ele>
        <time>2026-05-17T10:08:04.999Z</time>
      </trkpt>
      <trkpt lat="43.65344" lon="3.3555">
        <ele>186.8</ele>
        <time>2026-05-17T10:08:05.999Z</time>
      </trkpt>
      <trkpt lat="43.65344" lon="3.35552">
        <ele>187</ele>
        <time>2026-05-17T10:08:06.999Z</time>
      </trkpt>
      <trkpt lat="43.65344" lon="3.35553">
        <ele>187.2</ele>
        <time>2026-05-17T10:08:07.999Z</time>
      </trkpt>
      <trkpt lat="43.65344" lon="3.35554">
        <ele>187.4</ele>
        <time>2026-05-17T10:08:08.999Z</time>
      </trkpt>
      <trkpt lat="43.65344" lon="3.35556">
        <ele>187.6</ele>
        <time>2026-05-17T10:08:09.999Z</time>
      </trkpt>
      <trkpt lat="43.65344" lon="3.35557">
        <ele>188.1</ele>
        <time>2026-05-17T10:08:10.999Z</time>
      </trkpt>
      <trkpt lat="43.65344" lon="3.35559">
        <ele>188.4</ele>
        <time>2026-05-17T10:08:11.999Z</time>
      </trkpt>
      <trkpt lat="43.65344" lon="3.35561">
        <ele>188.9</ele>
        <time>2026-05-17T10:08:12.999Z</time>
      </trkpt>
      <trkpt lat="43.65344" lon="3.35562">
        <ele>189.4</ele>
        <time>2026-05-17T10:08:13.999Z</time>
      </trkpt>
      <trkpt lat="43.65344" lon="3.35563">
        <ele>189.8</ele>
        <time>2026-05-17T10:08:14.999Z</time>
      </trkpt>
      <trkpt lat="43.65344" lon="3.35564">
        <ele>190.1</ele>
        <time>2026-05-17T10:08:15.999Z</time>
      </trkpt>
      <trkpt lat="43.65345" lon="3.35565">
        <ele>190.3</ele>
        <time>2026-05-17T10:08:16.999Z</time>
      </trkpt>
      <trkpt lat="43.65344" lon="3.35566">
        <ele>190.5</ele>
        <time>2026-05-17T10:08:17.999Z</time>
      </trkpt>
      <trkpt lat="43.65343" lon="3.35566">
        <ele>190.8</ele>
        <time>2026-05-17T10:08:18.999Z</time>
      </trkpt>
      <trkpt lat="43.65342" lon="3.35567">
        <ele>190.9</ele>
        <time>2026-05-17T10:08:19.999Z</time>
      </trkpt>
      <trkpt lat="43.65341" lon="3.35567">
        <ele>190.8</ele>
        <time>2026-05-17T10:08:20.999Z</time>
      </trkpt>
      <trkpt lat="43.6534" lon="3.35567">
        <ele>190.6</ele>
        <time>2026-05-17T10:08:21.999Z</time>
      </trkpt>
      <trkpt lat="43.65339" lon="3.35568">
        <ele>190.5</ele>
        <time>2026-05-17T10:08:22.999Z</time>
      </trkpt>
      <trkpt lat="43.65339" lon="3.35569">
        <ele>190.3</ele>
        <time>2026-05-17T10:08:23.999Z</time>
      </trkpt>
      <trkpt lat="43.65338" lon="3.35571">
        <ele>190.6</ele>
        <time>2026-05-17T10:08:24.999Z</time>
      </trkpt>
      <trkpt lat="43.65338" lon="3.35572">
        <ele>190.7</ele>
        <time>2026-05-17T10:08:25.999Z</time>
      </trkpt>
      <trkpt lat="43.65337" lon="3.35573">
        <ele>191</ele>
        <time>2026-05-17T10:08:26.999Z</time>
      </trkpt>
      <trkpt lat="43.65337" lon="3.35575">
        <ele>191.1</ele>
        <time>2026-05-17T10:08:27.999Z</time>
      </trkpt>
      <trkpt lat="43.65337" lon="3.35576">
        <ele>191.4</ele>
        <time>2026-05-17T10:08:28.999Z</time>
      </trkpt>
      <trkpt lat="43.65337" lon="3.35577">
        <ele>191.8</ele>
        <time>2026-05-17T10:08:29.999Z</time>
      </trkpt>
      <trkpt lat="43.65337" lon="3.35578">
        <ele>191.8</ele>
        <time>2026-05-17T10:08:30.999Z</time>
      </trkpt>
      <trkpt lat="43.65337" lon="3.35579">
        <ele>191.9</ele>
        <time>2026-05-17T10:08:31.999Z</time>
      </trkpt>
      <trkpt lat="43.65337" lon="3.3558">
        <ele>191.9</ele>
        <time>2026-05-17T10:08:32.999Z</time>
      </trkpt>
      <trkpt lat="43.65337" lon="3.35581">
        <ele>192.1</ele>
        <time>2026-05-17T10:08:33.999Z</time>
      </trkpt>
      <trkpt lat="43.65336" lon="3.35582">
        <ele>192.3</ele>
        <time>2026-05-17T10:08:34.999Z</time>
      </trkpt>
      <trkpt lat="43.65335" lon="3.35582">
        <ele>193.6</ele>
        <time>2026-05-17T10:08:35.999Z</time>
      </trkpt>
      <trkpt lat="43.65334" lon="3.35583">
        <ele>194.2</ele>
        <time>2026-05-17T10:08:36.999Z</time>
      </trkpt>
      <trkpt lat="43.65334" lon="3.35583">
        <ele>194.7</ele>
        <time>2026-05-17T10:08:37.999Z</time>
      </trkpt>
      <trkpt lat="43.65334" lon="3.35582">
        <ele>195.2</ele>
        <time>2026-05-17T10:08:38.999Z</time>
      </trkpt>
      <trkpt lat="43.65334" lon="3.35582">
        <ele>195.3</ele>
        <time>2026-05-17T10:08:39.999Z</time>
      </trkpt>
      <trkpt lat="43.65334" lon="3.35581">
        <ele>195.7</ele>
        <time>2026-05-17T10:08:40.999Z</time>
      </trkpt>
      <trkpt lat="43.65334" lon="3.35582">
        <ele>196</ele>
        <time>2026-05-17T10:08:41.999Z</time>
      </trkpt>
      <trkpt lat="43.65334" lon="3.35582">
        <ele>195.9</ele>
        <time>2026-05-17T10:08:42.999Z</time>
      </trkpt>
      <trkpt lat="43.65334" lon="3.35582">
        <ele>196</ele>
        <time>2026-05-17T10:08:43.999Z</time>
      </trkpt>
      <trkpt lat="43.65334" lon="3.35582">
        <ele>196.2</ele>
        <time>2026-05-17T10:08:44.999Z</time>
      </trkpt>
      <trkpt lat="43.65334" lon="3.35582">
        <ele>196.4</ele>
        <time>2026-05-17T10:08:45.999Z</time>
      </trkpt>
      <trkpt lat="43.65334" lon="3.35582">
        <ele>196.5</ele>
        <time>2026-05-17T10:08:46.999Z</time>
      </trkpt>
      <trkpt lat="43.65334" lon="3.35582">
        <ele>196.4</ele>
        <time>2026-05-17T10:08:47.999Z</time>
      </trkpt>
      <trkpt lat="43.65335" lon="3.35584">
        <ele>196.4</ele>
        <time>2026-05-17T10:08:48.999Z</time>
      </trkpt>
      <trkpt lat="43.65334" lon="3.35586">
        <ele>196.2</ele>
        <time>2026-05-17T10:08:49.999Z</time>
      </trkpt>
      <trkpt lat="43.65334" lon="3.35587">
        <ele>196.2</ele>
        <time>2026-05-17T10:08:50.999Z</time>
      </trkpt>
      <trkpt lat="43.65334" lon="3.35588">
        <ele>196.4</ele>
        <time>2026-05-17T10:08:51.999Z</time>
      </trkpt>
      <trkpt lat="43.65334" lon="3.35588">
        <ele>196.6</ele>
        <time>2026-05-17T10:08:52.999Z</time>
      </trkpt>
      <trkpt lat="43.65334" lon="3.35587">
        <ele>196.5</ele>
        <time>2026-05-17T10:08:53.999Z</time>
      </trkpt>
      <trkpt lat="43.65334" lon="3.35587">
        <ele>196.4</ele>
        <time>2026-05-17T10:08:54.999Z</time>
      </trkpt>
      <trkpt lat="43.65334" lon="3.35587">
        <ele>196.5</ele>
        <time>2026-05-17T10:08:55.999Z</time>
      </trkpt>
      <trkpt lat="43.65334" lon="3.35588">
        <ele>196.5</ele>
        <time>2026-05-17T10:08:56.999Z</time>
      </trkpt>
      <trkpt lat="43.65334" lon="3.35588">
        <ele>196.5</ele>
        <time>2026-05-17T10:08:57.999Z</time>
      </trkpt>
      <trkpt lat="43.65335" lon="3.3559">
        <ele>196.7</ele>
        <time>2026-05-17T10:08:58.999Z</time>
      </trkpt>
      <trkpt lat="43.65334" lon="3.35592">
        <ele>197</ele>
        <time>2026-05-17T10:08:59.999Z</time>
      </trkpt>
      <trkpt lat="43.65334" lon="3.35594">
        <ele>197.4</ele>
        <time>2026-05-17T10:09:00.999Z</time>
      </trkpt>
      <trkpt lat="43.65333" lon="3.35596">
        <ele>198</ele>
        <time>2026-05-17T10:09:01.999Z</time>
      </trkpt>
      <trkpt lat="43.65332" lon="3.35597">
        <ele>198.3</ele>
        <time>2026-05-17T10:09:02.999Z</time>
      </trkpt>
      <trkpt lat="43.65332" lon="3.356">
        <ele>198.8</ele>
        <time>2026-05-17T10:09:03.999Z</time>
      </trkpt>
      <trkpt lat="43.65332" lon="3.35602">
        <ele>199.3</ele>
        <time>2026-05-17T10:09:04.999Z</time>
      </trkpt>
      <trkpt lat="43.65333" lon="3.35604">
        <ele>199.9</ele>
        <time>2026-05-17T10:09:05.999Z</time>
      </trkpt>
      <trkpt lat="43.65333" lon="3.35606">
        <ele>200.3</ele>
        <time>2026-05-17T10:09:06.999Z</time>
      </trkpt>
      <trkpt lat="43.65333" lon="3.35607">
        <ele>201.2</ele>
        <time>2026-05-17T10:09:07.999Z</time>
      </trkpt>
      <trkpt lat="43.65333" lon="3.35607">
        <ele>201.9</ele>
        <time>2026-05-17T10:09:08.999Z</time>
      </trkpt>
      <trkpt lat="43.65334" lon="3.35608">
        <ele>202.8</ele>
        <time>2026-05-17T10:09:09.999Z</time>
      </trkpt>
      <trkpt lat="43.65334" lon="3.35608">
        <ele>203.5</ele>
        <time>2026-05-17T10:09:10.999Z</time>
      </trkpt>
      <trkpt lat="43.65335" lon="3.3561">
        <ele>203.8</ele>
        <time>2026-05-17T10:09:11.999Z</time>
      </trkpt>
      <trkpt lat="43.65335" lon="3.35611">
        <ele>204</ele>
        <time>2026-05-17T10:09:12.999Z</time>
      </trkpt>
      <trkpt lat="43.65336" lon="3.35613">
        <ele>204.5</ele>
        <time>2026-05-17T10:09:13.999Z</time>
      </trkpt>
      <trkpt lat="43.65337" lon="3.35614">
        <ele>204.5</ele>
        <time>2026-05-17T10:09:14.999Z</time>
      </trkpt>
      <trkpt lat="43.65338" lon="3.35615">
        <ele>204.2</ele>
        <time>2026-05-17T10:09:15.999Z</time>
      </trkpt>
      <trkpt lat="43.65339" lon="3.35616">
        <ele>203.8</ele>
        <time>2026-05-17T10:09:16.999Z</time>
      </trkpt>
      <trkpt lat="43.6534" lon="3.35618">
        <ele>203.1</ele>
        <time>2026-05-17T10:09:17.999Z</time>
      </trkpt>
      <trkpt lat="43.6534" lon="3.35619">
        <ele>202.8</ele>
        <time>2026-05-17T10:09:18.999Z</time>
      </trkpt>
      <trkpt lat="43.6534" lon="3.35621">
        <ele>202.5</ele>
        <time>2026-05-17T10:09:19.999Z</time>
      </trkpt>
      <trkpt lat="43.6534" lon="3.35621">
        <ele>202</ele>
        <time>2026-05-17T10:09:20.999Z</time>
      </trkpt>
      <trkpt lat="43.6534" lon="3.35622">
        <ele>201.6</ele>
        <time>2026-05-17T10:09:21.999Z</time>
      </trkpt>
      <trkpt lat="43.6534" lon="3.35622">
        <ele>201.8</ele>
        <time>2026-05-17T10:09:22.999Z</time>
      </trkpt>
      <trkpt lat="43.6534" lon="3.35623">
        <ele>201.9</ele>
        <time>2026-05-17T10:09:23.999Z</time>
      </trkpt>
      <trkpt lat="43.65341" lon="3.35625">
        <ele>202.7</ele>
        <time>2026-05-17T10:09:24.999Z</time>
      </trkpt>
      <trkpt lat="43.65341" lon="3.35627">
        <ele>202.6</ele>
        <time>2026-05-17T10:09:25.999Z</time>
      </trkpt>
      <trkpt lat="43.65341" lon="3.35629">
        <ele>202.2</ele>
        <time>2026-05-17T10:09:26.999Z</time>
      </trkpt>
      <trkpt lat="43.65342" lon="3.35631">
        <ele>202</ele>
        <time>2026-05-17T10:09:27.999Z</time>
      </trkpt>
      <trkpt lat="43.65343" lon="3.35634">
        <ele>201.8</ele>
        <time>2026-05-17T10:09:28.999Z</time>
      </trkpt>
      <trkpt lat="43.65343" lon="3.35637">
        <ele>201.4</ele>
        <time>2026-05-17T10:09:29.999Z</time>
      </trkpt>
      <trkpt lat="43.65344" lon="3.35639">
        <ele>201.2</ele>
        <time>2026-05-17T10:09:30.999Z</time>
      </trkpt>
      <trkpt lat="43.65341" lon="3.35639">
        <ele>200.9</ele>
        <time>2026-05-17T10:09:31.999Z</time>
      </trkpt>
      <trkpt lat="43.65339" lon="3.35638">
        <ele>201.1</ele>
        <time>2026-05-17T10:09:32.999Z</time>
      </trkpt>
      <trkpt lat="43.65336" lon="3.35634">
        <ele>201.6</ele>
        <time>2026-05-17T10:09:33.999Z</time>
      </trkpt>
      <trkpt lat="43.65334" lon="3.35633">
        <ele>202.7</ele>
        <time>2026-05-17T10:09:34.999Z</time>
      </trkpt>
      <trkpt lat="43.65333" lon="3.35633">
        <ele>203.1</ele>
        <time>2026-05-17T10:09:35.999Z</time>
      </trkpt>
      <trkpt lat="43.65332" lon="3.35633">
        <ele>202.6</ele>
        <time>2026-05-17T10:09:36.999Z</time>
      </trkpt>
      <trkpt lat="43.65331" lon="3.35634">
        <ele>202.9</ele>
        <time>2026-05-17T10:09:37.999Z</time>
      </trkpt>
      <trkpt lat="43.6533" lon="3.35635">
        <ele>202.8</ele>
        <time>2026-05-17T10:09:38.999Z</time>
      </trkpt>
      <trkpt lat="43.6533" lon="3.35635">
        <ele>202.4</ele>
        <time>2026-05-17T10:09:39.999Z</time>
      </trkpt>
      <trkpt lat="43.6533" lon="3.35636">
        <ele>202.1</ele>
        <time>2026-05-17T10:09:40.999Z</time>
      </trkpt>
      <trkpt lat="43.6533" lon="3.35637">
        <ele>202.3</ele>
        <time>2026-05-17T10:09:41.999Z</time>
      </trkpt>
      <trkpt lat="43.6533" lon="3.35638">
        <ele>202.1</ele>
        <time>2026-05-17T10:09:42.999Z</time>
      </trkpt>
      <trkpt lat="43.65331" lon="3.35638">
        <ele>202.1</ele>
        <time>2026-05-17T10:09:43.999Z</time>
      </trkpt>
      <trkpt lat="43.65331" lon="3.35639">
        <ele>202.2</ele>
        <time>2026-05-17T10:09:44.999Z</time>
      </trkpt>
      <trkpt lat="43.6533" lon="3.3564">
        <ele>202.1</ele>
        <time>2026-05-17T10:09:45.999Z</time>
      </trkpt>
      <trkpt lat="43.6533" lon="3.35641">
        <ele>201.9</ele>
        <time>2026-05-17T10:09:46.999Z</time>
      </trkpt>
      <trkpt lat="43.65329" lon="3.35642">
        <ele>201.7</ele>
        <time>2026-05-17T10:09:47.999Z</time>
      </trkpt>
      <trkpt lat="43.65328" lon="3.35643">
        <ele>201.4</ele>
        <time>2026-05-17T10:09:48.999Z</time>
      </trkpt>
      <trkpt lat="43.65328" lon="3.35643">
        <ele>201.2</ele>
        <time>2026-05-17T10:09:49.999Z</time>
      </trkpt>
      <trkpt lat="43.65327" lon="3.35644">
        <ele>201.1</ele>
        <time>2026-05-17T10:09:50.999Z</time>
      </trkpt>
      <trkpt lat="43.65327" lon="3.35644">
        <ele>201.3</ele>
        <time>2026-05-17T10:09:51.999Z</time>
      </trkpt>
      <trkpt lat="43.65326" lon="3.35644">
        <ele>201.4</ele>
        <time>2026-05-17T10:09:52.999Z</time>
      </trkpt>
      <trkpt lat="43.65325" lon="3.35645">
        <ele>201.3</ele>
        <time>2026-05-17T10:09:53.999Z</time>
      </trkpt>
      <trkpt lat="43.65325" lon="3.35645">
        <ele>201.1</ele>
        <time>2026-05-17T10:09:54.999Z</time>
      </trkpt>
      <trkpt lat="43.65324" lon="3.35646">
        <ele>200.8</ele>
        <time>2026-05-17T10:09:55.999Z</time>
      </trkpt>
      <trkpt lat="43.65323" lon="3.35646">
        <ele>200.5</ele>
        <time>2026-05-17T10:09:56.999Z</time>
      </trkpt>
      <trkpt lat="43.65322" lon="3.35647">
        <ele>200.4</ele>
        <time>2026-05-17T10:09:57.999Z</time>
      </trkpt>
      <trkpt lat="43.65322" lon="3.35648">
        <ele>200.3</ele>
        <time>2026-05-17T10:09:58.999Z</time>
      </trkpt>
      <trkpt lat="43.65321" lon="3.35648">
        <ele>200.1</ele>
        <time>2026-05-17T10:09:59.999Z</time>
      </trkpt>
      <trkpt lat="43.6532" lon="3.35649">
        <ele>200</ele>
        <time>2026-05-17T10:10:00.999Z</time>
      </trkpt>
      <trkpt lat="43.6532" lon="3.35649">
        <ele>199.6</ele>
        <time>2026-05-17T10:10:01.999Z</time>
      </trkpt>
      <trkpt lat="43.65319" lon="3.3565">
        <ele>199.2</ele>
        <time>2026-05-17T10:10:02.999Z</time>
      </trkpt>
      <trkpt lat="43.65318" lon="3.3565">
        <ele>199.1</ele>
        <time>2026-05-17T10:10:03.999Z</time>
      </trkpt>
      <trkpt lat="43.65317" lon="3.35651">
        <ele>199</ele>
        <time>2026-05-17T10:10:04.999Z</time>
      </trkpt>
      <trkpt lat="43.65315" lon="3.35652">
        <ele>198.6</ele>
        <time>2026-05-17T10:10:05.999Z</time>
      </trkpt>
      <trkpt lat="43.65315" lon="3.35653">
        <ele>198.4</ele>
        <time>2026-05-17T10:10:06.999Z</time>
      </trkpt>
      <trkpt lat="43.65314" lon="3.35653">
        <ele>198.1</ele>
        <time>2026-05-17T10:10:07.999Z</time>
      </trkpt>
      <trkpt lat="43.65314" lon="3.35654">
        <ele>198</ele>
        <time>2026-05-17T10:10:08.999Z</time>
      </trkpt>
      <trkpt lat="43.65313" lon="3.35654">
        <ele>197.9</ele>
        <time>2026-05-17T10:10:09.999Z</time>
      </trkpt>
      <trkpt lat="43.65313" lon="3.35655">
        <ele>197.4</ele>
        <time>2026-05-17T10:10:10.999Z</time>
      </trkpt>
      <trkpt lat="43.65312" lon="3.35655">
        <ele>196.9</ele>
        <time>2026-05-17T10:10:11.999Z</time>
      </trkpt>
      <trkpt lat="43.65311" lon="3.35655">
        <ele>196.7</ele>
        <time>2026-05-17T10:10:12.999Z</time>
      </trkpt>
      <trkpt lat="43.65311" lon="3.35656">
        <ele>196.5</ele>
        <time>2026-05-17T10:10:13.999Z</time>
      </trkpt>
      <trkpt lat="43.6531" lon="3.35656">
        <ele>196.3</ele>
        <time>2026-05-17T10:10:14.999Z</time>
      </trkpt>
      <trkpt lat="43.6531" lon="3.35655">
        <ele>196.3</ele>
        <time>2026-05-17T10:10:15.999Z</time>
      </trkpt>
      <trkpt lat="43.65309" lon="3.35655">
        <ele>196.6</ele>
        <time>2026-05-17T10:10:16.999Z</time>
      </trkpt>
      <trkpt lat="43.65309" lon="3.35655">
        <ele>196.8</ele>
        <time>2026-05-17T10:10:17.999Z</time>
      </trkpt>
      <trkpt lat="43.65308" lon="3.35656">
        <ele>196.8</ele>
        <time>2026-05-17T10:10:18.999Z</time>
      </trkpt>
      <trkpt lat="43.65308" lon="3.35656">
        <ele>196.5</ele>
        <time>2026-05-17T10:10:19.999Z</time>
      </trkpt>
      <trkpt lat="43.65308" lon="3.35656">
        <ele>196.7</ele>
        <time>2026-05-17T10:10:20.999Z</time>
      </trkpt>
      <trkpt lat="43.65308" lon="3.35656">
        <ele>196.5</ele>
        <time>2026-05-17T10:10:21.999Z</time>
      </trkpt>
      <trkpt lat="43.65308" lon="3.35656">
        <ele>196.7</ele>
        <time>2026-05-17T10:10:22.999Z</time>
      </trkpt>
      <trkpt lat="43.65308" lon="3.35656">
        <ele>196.4</ele>
        <time>2026-05-17T10:10:23.999Z</time>
      </trkpt>
      <trkpt lat="43.65308" lon="3.35656">
        <ele>196.6</ele>
        <time>2026-05-17T10:10:24.999Z</time>
      </trkpt>
      <trkpt lat="43.65308" lon="3.35656">
        <ele>196.6</ele>
        <time>2026-05-17T10:10:25.999Z</time>
      </trkpt>
      <trkpt lat="43.65308" lon="3.35656">
        <ele>196.6</ele>
        <time>2026-05-17T10:10:26.999Z</time>
      </trkpt>
      <trkpt lat="43.65308" lon="3.35656">
        <ele>196.5</ele>
        <time>2026-05-17T10:10:27.999Z</time>
      </trkpt>
      <trkpt lat="43.65308" lon="3.35656">
        <ele>196.5</ele>
        <time>2026-05-17T10:10:28.999Z</time>
      </trkpt>
      <trkpt lat="43.65308" lon="3.35656">
        <ele>196.5</ele>
        <time>2026-05-17T10:10:29.999Z</time>
      </trkpt>
      <trkpt lat="43.65308" lon="3.35656">
        <ele>196.4</ele>
        <time>2026-05-17T10:10:30.999Z</time>
      </trkpt>
      <trkpt lat="43.65308" lon="3.35656">
        <ele>196.5</ele>
        <time>2026-05-17T10:10:31.999Z</time>
      </trkpt>
      <trkpt lat="43.65307" lon="3.35656">
        <ele>196.6</ele>
        <time>2026-05-17T10:10:32.999Z</time>
      </trkpt>
      <trkpt lat="43.65307" lon="3.35656">
        <ele>196.5</ele>
        <time>2026-05-17T10:10:33.999Z</time>
      </trkpt>
      <trkpt lat="43.65304" lon="3.35657">
        <ele>196.7</ele>
        <time>2026-05-17T10:10:34.999Z</time>
      </trkpt>
      <trkpt lat="43.65302" lon="3.35657">
        <ele>196.5</ele>
        <time>2026-05-17T10:10:35.999Z</time>
      </trkpt>
      <trkpt lat="43.653" lon="3.35657">
        <ele>196.7</ele>
        <time>2026-05-17T10:10:36.999Z</time>
      </trkpt>
      <trkpt lat="43.65299" lon="3.35658">
        <ele>196.3</ele>
        <time>2026-05-17T10:10:37.999Z</time>
      </trkpt>
      <trkpt lat="43.65297" lon="3.35658">
        <ele>195.5</ele>
        <time>2026-05-17T10:10:38.999Z</time>
      </trkpt>
      <trkpt lat="43.65296" lon="3.35658">
        <ele>195.4</ele>
        <time>2026-05-17T10:10:39.999Z</time>
      </trkpt>
      <trkpt lat="43.65295" lon="3.35659">
        <ele>195.6</ele>
        <time>2026-05-17T10:10:40.999Z</time>
      </trkpt>
      <trkpt lat="43.65294" lon="3.35659">
        <ele>195.8</ele>
        <time>2026-05-17T10:10:41.999Z</time>
      </trkpt>
      <trkpt lat="43.65293" lon="3.3566">
        <ele>195.3</ele>
        <time>2026-05-17T10:10:42.999Z</time>
      </trkpt>
      <trkpt lat="43.65292" lon="3.3566">
        <ele>195.3</ele>
        <time>2026-05-17T10:10:43.999Z</time>
      </trkpt>
      <trkpt lat="43.65292" lon="3.3566">
        <ele>195.1</ele>
        <time>2026-05-17T10:10:44.999Z</time>
      </trkpt>
      <trkpt lat="43.65291" lon="3.3566">
        <ele>195.3</ele>
        <time>2026-05-17T10:10:45.999Z</time>
      </trkpt>
      <trkpt lat="43.65289" lon="3.35659">
        <ele>195.3</ele>
        <time>2026-05-17T10:10:46.999Z</time>
      </trkpt>
      <trkpt lat="43.65288" lon="3.35659">
        <ele>195.7</ele>
        <time>2026-05-17T10:10:47.999Z</time>
      </trkpt>
      <trkpt lat="43.65286" lon="3.35659">
        <ele>195.5</ele>
        <time>2026-05-17T10:10:48.999Z</time>
      </trkpt>
      <trkpt lat="43.65285" lon="3.35659">
        <ele>195.2</ele>
        <time>2026-05-17T10:10:49.999Z</time>
      </trkpt>
      <trkpt lat="43.65285" lon="3.35659">
        <ele>195</ele>
        <time>2026-05-17T10:10:50.999Z</time>
      </trkpt>
      <trkpt lat="43.65284" lon="3.35659">
        <ele>194.8</ele>
        <time>2026-05-17T10:10:51.999Z</time>
      </trkpt>
      <trkpt lat="43.65284" lon="3.35659">
        <ele>194.6</ele>
        <time>2026-05-17T10:10:52.999Z</time>
      </trkpt>
      <trkpt lat="43.65284" lon="3.3566">
        <ele>194.4</ele>
        <time>2026-05-17T10:10:53.999Z</time>
      </trkpt>
      <trkpt lat="43.65283" lon="3.35659">
        <ele>194.1</ele>
        <time>2026-05-17T10:10:54.999Z</time>
      </trkpt>
      <trkpt lat="43.65282" lon="3.35659">
        <ele>193.9</ele>
        <time>2026-05-17T10:10:55.999Z</time>
      </trkpt>
      <trkpt lat="43.65282" lon="3.35658">
        <ele>193.8</ele>
        <time>2026-05-17T10:10:56.999Z</time>
      </trkpt>
      <trkpt lat="43.65281" lon="3.35658">
        <ele>193.7</ele>
        <time>2026-05-17T10:10:57.999Z</time>
      </trkpt>
      <trkpt lat="43.6528" lon="3.35658">
        <ele>193.4</ele>
        <time>2026-05-17T10:10:58.999Z</time>
      </trkpt>
      <trkpt lat="43.6528" lon="3.35658">
        <ele>193.7</ele>
        <time>2026-05-17T10:10:59.999Z</time>
      </trkpt>
      <trkpt lat="43.65279" lon="3.35658">
        <ele>193.4</ele>
        <time>2026-05-17T10:11:00.999Z</time>
      </trkpt>
      <trkpt lat="43.65278" lon="3.35658">
        <ele>193.1</ele>
        <time>2026-05-17T10:11:01.999Z</time>
      </trkpt>
      <trkpt lat="43.65277" lon="3.35658">
        <ele>192.7</ele>
        <time>2026-05-17T10:11:02.999Z</time>
      </trkpt>
      <trkpt lat="43.65276" lon="3.35658">
        <ele>192.2</ele>
        <time>2026-05-17T10:11:03.999Z</time>
      </trkpt>
      <trkpt lat="43.65276" lon="3.35657">
        <ele>191.8</ele>
        <time>2026-05-17T10:11:04.999Z</time>
      </trkpt>
      <trkpt lat="43.65276" lon="3.35657">
        <ele>191.5</ele>
        <time>2026-05-17T10:11:05.999Z</time>
      </trkpt>
      <trkpt lat="43.65276" lon="3.35657">
        <ele>191.7</ele>
        <time>2026-05-17T10:11:06.999Z</time>
      </trkpt>
      <trkpt lat="43.65275" lon="3.35655">
        <ele>192.1</ele>
        <time>2026-05-17T10:11:07.999Z</time>
      </trkpt>
      <trkpt lat="43.65274" lon="3.35655">
        <ele>192.1</ele>
        <time>2026-05-17T10:11:08.999Z</time>
      </trkpt>
      <trkpt lat="43.65273" lon="3.35654">
        <ele>192</ele>
        <time>2026-05-17T10:11:09.999Z</time>
      </trkpt>
      <trkpt lat="43.65272" lon="3.35654">
        <ele>191.9</ele>
        <time>2026-05-17T10:11:10.999Z</time>
      </trkpt>
      <trkpt lat="43.65271" lon="3.35654">
        <ele>191.8</ele>
        <time>2026-05-17T10:11:11.999Z</time>
      </trkpt>
      <trkpt lat="43.6527" lon="3.35653">
        <ele>191.9</ele>
        <time>2026-05-17T10:11:12.999Z</time>
      </trkpt>
      <trkpt lat="43.65269" lon="3.35653">
        <ele>191.5</ele>
        <time>2026-05-17T10:11:13.999Z</time>
      </trkpt>
      <trkpt lat="43.65268" lon="3.35652">
        <ele>191.3</ele>
        <time>2026-05-17T10:11:14.999Z</time>
      </trkpt>
      <trkpt lat="43.65267" lon="3.35651">
        <ele>191.2</ele>
        <time>2026-05-17T10:11:15.999Z</time>
      </trkpt>
      <trkpt lat="43.65266" lon="3.3565">
        <ele>191.4</ele>
        <time>2026-05-17T10:11:16.999Z</time>
      </trkpt>
      <trkpt lat="43.65265" lon="3.35649">
        <ele>191.5</ele>
        <time>2026-05-17T10:11:17.999Z</time>
      </trkpt>
      <trkpt lat="43.65264" lon="3.35648">
        <ele>191.4</ele>
        <time>2026-05-17T10:11:18.999Z</time>
      </trkpt>
      <trkpt lat="43.65263" lon="3.35648">
        <ele>191.3</ele>
        <time>2026-05-17T10:11:19.999Z</time>
      </trkpt>
      <trkpt lat="43.65262" lon="3.35646">
        <ele>191.2</ele>
        <time>2026-05-17T10:11:20.999Z</time>
      </trkpt>
      <trkpt lat="43.65262" lon="3.35644">
        <ele>191.5</ele>
        <time>2026-05-17T10:11:21.999Z</time>
      </trkpt>
      <trkpt lat="43.65261" lon="3.35643">
        <ele>191.4</ele>
        <time>2026-05-17T10:11:22.999Z</time>
      </trkpt>
      <trkpt lat="43.6526" lon="3.35642">
        <ele>191.8</ele>
        <time>2026-05-17T10:11:23.999Z</time>
      </trkpt>
      <trkpt lat="43.65259" lon="3.3564">
        <ele>192</ele>
        <time>2026-05-17T10:11:24.999Z</time>
      </trkpt>
      <trkpt lat="43.65258" lon="3.35639">
        <ele>192.4</ele>
        <time>2026-05-17T10:11:25.999Z</time>
      </trkpt>
      <trkpt lat="43.65258" lon="3.35637">
        <ele>193.3</ele>
        <time>2026-05-17T10:11:26.999Z</time>
      </trkpt>
      <trkpt lat="43.65257" lon="3.35635">
        <ele>193.5</ele>
        <time>2026-05-17T10:11:27.999Z</time>
      </trkpt>
      <trkpt lat="43.65258" lon="3.35633">
        <ele>193.8</ele>
        <time>2026-05-17T10:11:28.999Z</time>
      </trkpt>
      <trkpt lat="43.65258" lon="3.35632">
        <ele>194.1</ele>
        <time>2026-05-17T10:11:29.999Z</time>
      </trkpt>
      <trkpt lat="43.65258" lon="3.35631">
        <ele>194.1</ele>
        <time>2026-05-17T10:11:30.999Z</time>
      </trkpt>
      <trkpt lat="43.65258" lon="3.35629">
        <ele>194</ele>
        <time>2026-05-17T10:11:31.999Z</time>
      </trkpt>
      <trkpt lat="43.65257" lon="3.35627">
        <ele>193.7</ele>
        <time>2026-05-17T10:11:32.999Z</time>
      </trkpt>
      <trkpt lat="43.65257" lon="3.35626">
        <ele>193.5</ele>
        <time>2026-05-17T10:11:33.999Z</time>
      </trkpt>
      <trkpt lat="43.65257" lon="3.35624">
        <ele>193.6</ele>
        <time>2026-05-17T10:11:34.999Z</time>
      </trkpt>
      <trkpt lat="43.65256" lon="3.35623">
        <ele>193.6</ele>
        <time>2026-05-17T10:11:35.999Z</time>
      </trkpt>
      <trkpt lat="43.65256" lon="3.35623">
        <ele>193.5</ele>
        <time>2026-05-17T10:11:36.999Z</time>
      </trkpt>
      <trkpt lat="43.65256" lon="3.35622">
        <ele>193.3</ele>
        <time>2026-05-17T10:11:37.999Z</time>
      </trkpt>
      <trkpt lat="43.65256" lon="3.35622">
        <ele>193.2</ele>
        <time>2026-05-17T10:11:38.999Z</time>
      </trkpt>
      <trkpt lat="43.65256" lon="3.35621">
        <ele>193.1</ele>
        <time>2026-05-17T10:11:39.999Z</time>
      </trkpt>
      <trkpt lat="43.65255" lon="3.35622">
        <ele>193</ele>
        <time>2026-05-17T10:11:40.999Z</time>
      </trkpt>
      <trkpt lat="43.65255" lon="3.35622">
        <ele>192.6</ele>
        <time>2026-05-17T10:11:41.999Z</time>
      </trkpt>
      <trkpt lat="43.65255" lon="3.35623">
        <ele>192.3</ele>
        <time>2026-05-17T10:11:42.999Z</time>
      </trkpt>
      <trkpt lat="43.65254" lon="3.35623">
        <ele>191.9</ele>
        <time>2026-05-17T10:11:43.999Z</time>
      </trkpt>
      <trkpt lat="43.65253" lon="3.35624">
        <ele>191.5</ele>
        <time>2026-05-17T10:11:44.999Z</time>
      </trkpt>
      <trkpt lat="43.65252" lon="3.35624">
        <ele>191.4</ele>
        <time>2026-05-17T10:11:45.999Z</time>
      </trkpt>
      <trkpt lat="43.65251" lon="3.35624">
        <ele>191.4</ele>
        <time>2026-05-17T10:11:46.999Z</time>
      </trkpt>
      <trkpt lat="43.6525" lon="3.35623">
        <ele>191.7</ele>
        <time>2026-05-17T10:11:47.999Z</time>
      </trkpt>
      <trkpt lat="43.65249" lon="3.35623">
        <ele>191.5</ele>
        <time>2026-05-17T10:11:48.999Z</time>
      </trkpt>
      <trkpt lat="43.65248" lon="3.35622">
        <ele>191.8</ele>
        <time>2026-05-17T10:11:49.999Z</time>
      </trkpt>
      <trkpt lat="43.65248" lon="3.35623">
        <ele>191.8</ele>
        <time>2026-05-17T10:11:50.999Z</time>
      </trkpt>
      <trkpt lat="43.65247" lon="3.35623">
        <ele>191.4</ele>
        <time>2026-05-17T10:11:51.999Z</time>
      </trkpt>
      <trkpt lat="43.65246" lon="3.35624">
        <ele>191.2</ele>
        <time>2026-05-17T10:11:52.999Z</time>
      </trkpt>
      <trkpt lat="43.65245" lon="3.35625">
        <ele>191</ele>
        <time>2026-05-17T10:11:53.999Z</time>
      </trkpt>
      <trkpt lat="43.65244" lon="3.35625">
        <ele>190.8</ele>
        <time>2026-05-17T10:11:54.999Z</time>
      </trkpt>
      <trkpt lat="43.65242" lon="3.35626">
        <ele>190.7</ele>
        <time>2026-05-17T10:11:55.999Z</time>
      </trkpt>
      <trkpt lat="43.65241" lon="3.35627">
        <ele>190.7</ele>
        <time>2026-05-17T10:11:56.999Z</time>
      </trkpt>
      <trkpt lat="43.6524" lon="3.35628">
        <ele>190.7</ele>
        <time>2026-05-17T10:11:57.999Z</time>
      </trkpt>
      <trkpt lat="43.6524" lon="3.35629">
        <ele>190.5</ele>
        <time>2026-05-17T10:11:58.999Z</time>
      </trkpt>
      <trkpt lat="43.65239" lon="3.3563">
        <ele>190.6</ele>
        <time>2026-05-17T10:11:59.999Z</time>
      </trkpt>
      <trkpt lat="43.65239" lon="3.35631">
        <ele>190.4</ele>
        <time>2026-05-17T10:12:00.999Z</time>
      </trkpt>
      <trkpt lat="43.65238" lon="3.35631">
        <ele>190.1</ele>
        <time>2026-05-17T10:12:01.999Z</time>
      </trkpt>
      <trkpt lat="43.65237" lon="3.35631">
        <ele>189.8</ele>
        <time>2026-05-17T10:12:02.999Z</time>
      </trkpt>
      <trkpt lat="43.65237" lon="3.35631">
        <ele>189.7</ele>
        <time>2026-05-17T10:12:03.999Z</time>
      </trkpt>
      <trkpt lat="43.65237" lon="3.35631">
        <ele>189.6</ele>
        <time>2026-05-17T10:12:04.999Z</time>
      </trkpt>
      <trkpt lat="43.65236" lon="3.3563">
        <ele>189.1</ele>
        <time>2026-05-17T10:12:05.999Z</time>
      </trkpt>
      <trkpt lat="43.65236" lon="3.3563">
        <ele>189</ele>
        <time>2026-05-17T10:12:06.999Z</time>
      </trkpt>
      <trkpt lat="43.65236" lon="3.3563">
        <ele>188.6</ele>
        <time>2026-05-17T10:12:07.999Z</time>
      </trkpt>
      <trkpt lat="43.65236" lon="3.3563">
        <ele>188.4</ele>
        <time>2026-05-17T10:12:08.999Z</time>
      </trkpt>
      <trkpt lat="43.65235" lon="3.35631">
        <ele>188.5</ele>
        <time>2026-05-17T10:12:09.999Z</time>
      </trkpt>
      <trkpt lat="43.65234" lon="3.35631">
        <ele>188.6</ele>
        <time>2026-05-17T10:12:10.999Z</time>
      </trkpt>
      <trkpt lat="43.65233" lon="3.35631">
        <ele>188.9</ele>
        <time>2026-05-17T10:12:11.999Z</time>
      </trkpt>
      <trkpt lat="43.65232" lon="3.35631">
        <ele>189</ele>
        <time>2026-05-17T10:12:12.999Z</time>
      </trkpt>
      <trkpt lat="43.65231" lon="3.35632">
        <ele>189.2</ele>
        <time>2026-05-17T10:12:13.999Z</time>
      </trkpt>
      <trkpt lat="43.6523" lon="3.35633">
        <ele>189.4</ele>
        <time>2026-05-17T10:12:14.999Z</time>
      </trkpt>
      <trkpt lat="43.65229" lon="3.35633">
        <ele>189.5</ele>
        <time>2026-05-17T10:12:15.999Z</time>
      </trkpt>
      <trkpt lat="43.65228" lon="3.35634">
        <ele>189.6</ele>
        <time>2026-05-17T10:12:16.999Z</time>
      </trkpt>
      <trkpt lat="43.65227" lon="3.35634">
        <ele>189.6</ele>
        <time>2026-05-17T10:12:17.999Z</time>
      </trkpt>
      <trkpt lat="43.65227" lon="3.35635">
        <ele>189.5</ele>
        <time>2026-05-17T10:12:18.999Z</time>
      </trkpt>
      <trkpt lat="43.65226" lon="3.35636">
        <ele>189.4</ele>
        <time>2026-05-17T10:12:19.999Z</time>
      </trkpt>
      <trkpt lat="43.65226" lon="3.35636">
        <ele>189.5</ele>
        <time>2026-05-17T10:12:20.999Z</time>
      </trkpt>
      <trkpt lat="43.65225" lon="3.35637">
        <ele>189.4</ele>
        <time>2026-05-17T10:12:21.999Z</time>
      </trkpt>
      <trkpt lat="43.65224" lon="3.35637">
        <ele>189.9</ele>
        <time>2026-05-17T10:12:22.999Z</time>
      </trkpt>
      <trkpt lat="43.65224" lon="3.35637">
        <ele>189.8</ele>
        <time>2026-05-17T10:12:23.999Z</time>
      </trkpt>
      <trkpt lat="43.65223" lon="3.35637">
        <ele>189.8</ele>
        <time>2026-05-17T10:12:24.999Z</time>
      </trkpt>
      <trkpt lat="43.65223" lon="3.35637">
        <ele>189.6</ele>
        <time>2026-05-17T10:12:25.999Z</time>
      </trkpt>
      <trkpt lat="43.65222" lon="3.35638">
        <ele>189.7</ele>
        <time>2026-05-17T10:12:26.999Z</time>
      </trkpt>
      <trkpt lat="43.6522" lon="3.35638">
        <ele>189.7</ele>
        <time>2026-05-17T10:12:27.999Z</time>
      </trkpt>
      <trkpt lat="43.65219" lon="3.35639">
        <ele>189.6</ele>
        <time>2026-05-17T10:12:28.999Z</time>
      </trkpt>
      <trkpt lat="43.65218" lon="3.3564">
        <ele>189.7</ele>
        <time>2026-05-17T10:12:29.999Z</time>
      </trkpt>
      <trkpt lat="43.65217" lon="3.3564">
        <ele>189.7</ele>
        <time>2026-05-17T10:12:30.999Z</time>
      </trkpt>
      <trkpt lat="43.65217" lon="3.35641">
        <ele>189.7</ele>
        <time>2026-05-17T10:12:31.999Z</time>
      </trkpt>
      <trkpt lat="43.65216" lon="3.35642">
        <ele>189.8</ele>
        <time>2026-05-17T10:12:32.999Z</time>
      </trkpt>
      <trkpt lat="43.65215" lon="3.35642">
        <ele>190.1</ele>
        <time>2026-05-17T10:12:33.999Z</time>
      </trkpt>
      <trkpt lat="43.65215" lon="3.35642">
        <ele>190.3</ele>
        <time>2026-05-17T10:12:34.999Z</time>
      </trkpt>
      <trkpt lat="43.65214" lon="3.35643">
        <ele>190.3</ele>
        <time>2026-05-17T10:12:35.999Z</time>
      </trkpt>
      <trkpt lat="43.65214" lon="3.35644">
        <ele>190.2</ele>
        <time>2026-05-17T10:12:36.999Z</time>
      </trkpt>
      <trkpt lat="43.65213" lon="3.35645">
        <ele>190.2</ele>
        <time>2026-05-17T10:12:37.999Z</time>
      </trkpt>
      <trkpt lat="43.65212" lon="3.35644">
        <ele>191.2</ele>
        <time>2026-05-17T10:12:38.999Z</time>
      </trkpt>
      <trkpt lat="43.65212" lon="3.35644">
        <ele>190.9</ele>
        <time>2026-05-17T10:12:39.999Z</time>
      </trkpt>
      <trkpt lat="43.65212" lon="3.35644">
        <ele>190.8</ele>
        <time>2026-05-17T10:12:40.999Z</time>
      </trkpt>
      <trkpt lat="43.65212" lon="3.35645">
        <ele>191.3</ele>
        <time>2026-05-17T10:12:41.999Z</time>
      </trkpt>
      <trkpt lat="43.65211" lon="3.35645">
        <ele>191.4</ele>
        <time>2026-05-17T10:12:42.999Z</time>
      </trkpt>
      <trkpt lat="43.65211" lon="3.35646">
        <ele>191.3</ele>
        <time>2026-05-17T10:12:43.999Z</time>
      </trkpt>
      <trkpt lat="43.65211" lon="3.35646">
        <ele>191.4</ele>
        <time>2026-05-17T10:12:44.999Z</time>
      </trkpt>
      <trkpt lat="43.6521" lon="3.35647">
        <ele>192</ele>
        <time>2026-05-17T10:12:45.999Z</time>
      </trkpt>
      <trkpt lat="43.65209" lon="3.35648">
        <ele>192.6</ele>
        <time>2026-05-17T10:12:46.999Z</time>
      </trkpt>
      <trkpt lat="43.65209" lon="3.35648">
        <ele>193</ele>
        <time>2026-05-17T10:12:47.999Z</time>
      </trkpt>
      <trkpt lat="43.65208" lon="3.35648">
        <ele>193.5</ele>
        <time>2026-05-17T10:12:48.999Z</time>
      </trkpt>
      <trkpt lat="43.65207" lon="3.35648">
        <ele>194.3</ele>
        <time>2026-05-17T10:12:49.999Z</time>
      </trkpt>
      <trkpt lat="43.65207" lon="3.35649">
        <ele>194.5</ele>
        <time>2026-05-17T10:12:50.999Z</time>
      </trkpt>
      <trkpt lat="43.65205" lon="3.35649">
        <ele>195</ele>
        <time>2026-05-17T10:12:51.999Z</time>
      </trkpt>
      <trkpt lat="43.65204" lon="3.35649">
        <ele>195.6</ele>
        <time>2026-05-17T10:12:52.999Z</time>
      </trkpt>
      <trkpt lat="43.65203" lon="3.3565">
        <ele>195.3</ele>
        <time>2026-05-17T10:12:53.999Z</time>
      </trkpt>
      <trkpt lat="43.65203" lon="3.3565">
        <ele>195.6</ele>
        <time>2026-05-17T10:12:54.999Z</time>
      </trkpt>
      <trkpt lat="43.65202" lon="3.35651">
        <ele>195.6</ele>
        <time>2026-05-17T10:12:55.999Z</time>
      </trkpt>
      <trkpt lat="43.65201" lon="3.35652">
        <ele>196</ele>
        <time>2026-05-17T10:12:56.999Z</time>
      </trkpt>
      <trkpt lat="43.65201" lon="3.35653">
        <ele>196.1</ele>
        <time>2026-05-17T10:12:57.999Z</time>
      </trkpt>
      <trkpt lat="43.652" lon="3.35653">
        <ele>195.9</ele>
        <time>2026-05-17T10:12:58.999Z</time>
      </trkpt>
      <trkpt lat="43.652" lon="3.35654">
        <ele>195.6</ele>
        <time>2026-05-17T10:12:59.999Z</time>
      </trkpt>
      <trkpt lat="43.652" lon="3.35654">
        <ele>195.6</ele>
        <time>2026-05-17T10:13:00.999Z</time>
      </trkpt>
      <trkpt lat="43.652" lon="3.35654">
        <ele>195.6</ele>
        <time>2026-05-17T10:13:01.999Z</time>
      </trkpt>
      <trkpt lat="43.652" lon="3.35654">
        <ele>195.5</ele>
        <time>2026-05-17T10:13:02.999Z</time>
      </trkpt>
      <trkpt lat="43.652" lon="3.35654">
        <ele>195.4</ele>
        <time>2026-05-17T10:13:03.999Z</time>
      </trkpt>
      <trkpt lat="43.652" lon="3.35654">
        <ele>195</ele>
        <time>2026-05-17T10:13:04.999Z</time>
      </trkpt>
      <trkpt lat="43.652" lon="3.35655">
        <ele>195.1</ele>
        <time>2026-05-17T10:13:05.999Z</time>
      </trkpt>
      <trkpt lat="43.652" lon="3.35656">
        <ele>195.3</ele>
        <time>2026-05-17T10:13:06.999Z</time>
      </trkpt>
      <trkpt lat="43.652" lon="3.35658">
        <ele>195.5</ele>
        <time>2026-05-17T10:13:07.999Z</time>
      </trkpt>
      <trkpt lat="43.65201" lon="3.3566">
        <ele>195.6</ele>
        <time>2026-05-17T10:13:08.999Z</time>
      </trkpt>
      <trkpt lat="43.65202" lon="3.35662">
        <ele>195.7</ele>
        <time>2026-05-17T10:13:09.999Z</time>
      </trkpt>
      <trkpt lat="43.65202" lon="3.35663">
        <ele>196</ele>
        <time>2026-05-17T10:13:10.999Z</time>
      </trkpt>
      <trkpt lat="43.65203" lon="3.35665">
        <ele>196.3</ele>
        <time>2026-05-17T10:13:11.999Z</time>
      </trkpt>
      <trkpt lat="43.65203" lon="3.35667">
        <ele>196.4</ele>
        <time>2026-05-17T10:13:12.999Z</time>
      </trkpt>
      <trkpt lat="43.65203" lon="3.35669">
        <ele>197</ele>
        <time>2026-05-17T10:13:13.999Z</time>
      </trkpt>
      <trkpt lat="43.65204" lon="3.35672">
        <ele>197.4</ele>
        <time>2026-05-17T10:13:14.999Z</time>
      </trkpt>
      <trkpt lat="43.65204" lon="3.35674">
        <ele>197</ele>
        <time>2026-05-17T10:13:15.999Z</time>
      </trkpt>
      <trkpt lat="43.65204" lon="3.35675">
        <ele>197.2</ele>
        <time>2026-05-17T10:13:16.999Z</time>
      </trkpt>
      <trkpt lat="43.65205" lon="3.35676">
        <ele>197</ele>
        <time>2026-05-17T10:13:17.999Z</time>
      </trkpt>
      <trkpt lat="43.65205" lon="3.35676">
        <ele>196.6</ele>
        <time>2026-05-17T10:13:18.999Z</time>
      </trkpt>
      <trkpt lat="43.65205" lon="3.35677">
        <ele>196.6</ele>
        <time>2026-05-17T10:13:19.999Z</time>
      </trkpt>
      <trkpt lat="43.65206" lon="3.35678">
        <ele>196.5</ele>
        <time>2026-05-17T10:13:20.999Z</time>
      </trkpt>
      <trkpt lat="43.65206" lon="3.35679">
        <ele>196.9</ele>
        <time>2026-05-17T10:13:21.999Z</time>
      </trkpt>
      <trkpt lat="43.65207" lon="3.3568">
        <ele>197.2</ele>
        <time>2026-05-17T10:13:22.999Z</time>
      </trkpt>
      <trkpt lat="43.65207" lon="3.35682">
        <ele>197.5</ele>
        <time>2026-05-17T10:13:23.999Z</time>
      </trkpt>
      <trkpt lat="43.65208" lon="3.35683">
        <ele>197.5</ele>
        <time>2026-05-17T10:13:24.999Z</time>
      </trkpt>
      <trkpt lat="43.65209" lon="3.35684">
        <ele>197.9</ele>
        <time>2026-05-17T10:13:25.999Z</time>
      </trkpt>
      <trkpt lat="43.6521" lon="3.35685">
        <ele>198.6</ele>
        <time>2026-05-17T10:13:26.999Z</time>
      </trkpt>
      <trkpt lat="43.65211" lon="3.35686">
        <ele>198.9</ele>
        <time>2026-05-17T10:13:27.999Z</time>
      </trkpt>
      <trkpt lat="43.65212" lon="3.35687">
        <ele>198.9</ele>
        <time>2026-05-17T10:13:28.999Z</time>
      </trkpt>
      <trkpt lat="43.65212" lon="3.35687">
        <ele>199.2</ele>
        <time>2026-05-17T10:13:29.999Z</time>
      </trkpt>
      <trkpt lat="43.65213" lon="3.35687">
        <ele>199.4</ele>
        <time>2026-05-17T10:13:30.999Z</time>
      </trkpt>
      <trkpt lat="43.65213" lon="3.35688">
        <ele>199.5</ele>
        <time>2026-05-17T10:13:31.999Z</time>
      </trkpt>
      <trkpt lat="43.65213" lon="3.35688">
        <ele>199.6</ele>
        <time>2026-05-17T10:13:32.999Z</time>
      </trkpt>
      <trkpt lat="43.65214" lon="3.35689">
        <ele>199.5</ele>
        <time>2026-05-17T10:13:33.999Z</time>
      </trkpt>
      <trkpt lat="43.65214" lon="3.35691">
        <ele>199.6</ele>
        <time>2026-05-17T10:13:34.999Z</time>
      </trkpt>
      <trkpt lat="43.65214" lon="3.35692">
        <ele>199.4</ele>
        <time>2026-05-17T10:13:35.999Z</time>
      </trkpt>
      <trkpt lat="43.65214" lon="3.35692">
        <ele>199.9</ele>
        <time>2026-05-17T10:13:36.999Z</time>
      </trkpt>
      <trkpt lat="43.65215" lon="3.35693">
        <ele>200</ele>
        <time>2026-05-17T10:13:37.999Z</time>
      </trkpt>
      <trkpt lat="43.65215" lon="3.35694">
        <ele>199.3</ele>
        <time>2026-05-17T10:13:38.999Z</time>
      </trkpt>
      <trkpt lat="43.65215" lon="3.35695">
        <ele>198.9</ele>
        <time>2026-05-17T10:13:39.999Z</time>
      </trkpt>
      <trkpt lat="43.65215" lon="3.35697">
        <ele>198.6</ele>
        <time>2026-05-17T10:13:40.999Z</time>
      </trkpt>
      <trkpt lat="43.65214" lon="3.35698">
        <ele>198.5</ele>
        <time>2026-05-17T10:13:41.999Z</time>
      </trkpt>
      <trkpt lat="43.65214" lon="3.357">
        <ele>198.5</ele>
        <time>2026-05-17T10:13:42.999Z</time>
      </trkpt>
      <trkpt lat="43.65215" lon="3.35701">
        <ele>198.4</ele>
        <time>2026-05-17T10:13:43.999Z</time>
      </trkpt>
      <trkpt lat="43.65215" lon="3.35702">
        <ele>198.3</ele>
        <time>2026-05-17T10:13:44.999Z</time>
      </trkpt>
      <trkpt lat="43.65215" lon="3.35703">
        <ele>198.4</ele>
        <time>2026-05-17T10:13:45.999Z</time>
      </trkpt>
      <trkpt lat="43.65216" lon="3.35705">
        <ele>198.6</ele>
        <time>2026-05-17T10:13:46.999Z</time>
      </trkpt>
      <trkpt lat="43.65216" lon="3.35706">
        <ele>198.5</ele>
        <time>2026-05-17T10:13:47.999Z</time>
      </trkpt>
      <trkpt lat="43.65216" lon="3.35707">
        <ele>198.7</ele>
        <time>2026-05-17T10:13:48.999Z</time>
      </trkpt>
      <trkpt lat="43.65216" lon="3.35709">
        <ele>198.8</ele>
        <time>2026-05-17T10:13:49.999Z</time>
      </trkpt>
      <trkpt lat="43.65217" lon="3.3571">
        <ele>198.9</ele>
        <time>2026-05-17T10:13:50.999Z</time>
      </trkpt>
      <trkpt lat="43.65217" lon="3.3571">
        <ele>199.3</ele>
        <time>2026-05-17T10:13:51.999Z</time>
      </trkpt>
      <trkpt lat="43.65217" lon="3.35711">
        <ele>199.9</ele>
        <time>2026-05-17T10:13:52.999Z</time>
      </trkpt>
      <trkpt lat="43.65217" lon="3.35711">
        <ele>199.8</ele>
        <time>2026-05-17T10:13:53.999Z</time>
      </trkpt>
      <trkpt lat="43.65217" lon="3.35712">
        <ele>199.7</ele>
        <time>2026-05-17T10:13:54.999Z</time>
      </trkpt>
      <trkpt lat="43.65217" lon="3.35713">
        <ele>199.7</ele>
        <time>2026-05-17T10:13:55.999Z</time>
      </trkpt>
      <trkpt lat="43.65217" lon="3.35714">
        <ele>199.7</ele>
        <time>2026-05-17T10:13:56.999Z</time>
      </trkpt>
      <trkpt lat="43.65217" lon="3.35715">
        <ele>199.6</ele>
        <time>2026-05-17T10:13:57.999Z</time>
      </trkpt>
      <trkpt lat="43.65217" lon="3.35715">
        <ele>200.1</ele>
        <time>2026-05-17T10:13:58.999Z</time>
      </trkpt>
      <trkpt lat="43.65218" lon="3.35716">
        <ele>200.3</ele>
        <time>2026-05-17T10:13:59.999Z</time>
      </trkpt>
      <trkpt lat="43.65218" lon="3.35718">
        <ele>200.4</ele>
        <time>2026-05-17T10:14:00.999Z</time>
      </trkpt>
      <trkpt lat="43.65219" lon="3.35719">
        <ele>200.3</ele>
        <time>2026-05-17T10:14:01.999Z</time>
      </trkpt>
      <trkpt lat="43.65219" lon="3.3572">
        <ele>200.3</ele>
        <time>2026-05-17T10:14:02.999Z</time>
      </trkpt>
      <trkpt lat="43.65219" lon="3.35721">
        <ele>200.4</ele>
        <time>2026-05-17T10:14:03.999Z</time>
      </trkpt>
      <trkpt lat="43.65219" lon="3.35722">
        <ele>200.2</ele>
        <time>2026-05-17T10:14:04.999Z</time>
      </trkpt>
      <trkpt lat="43.6522" lon="3.35722">
        <ele>200.3</ele>
        <time>2026-05-17T10:14:05.999Z</time>
      </trkpt>
      <trkpt lat="43.6522" lon="3.35723">
        <ele>200.5</ele>
        <time>2026-05-17T10:14:06.999Z</time>
      </trkpt>
      <trkpt lat="43.65221" lon="3.35724">
        <ele>200.8</ele>
        <time>2026-05-17T10:14:07.999Z</time>
      </trkpt>
      <trkpt lat="43.65221" lon="3.35724">
        <ele>201.2</ele>
        <time>2026-05-17T10:14:08.999Z</time>
      </trkpt>
      <trkpt lat="43.65221" lon="3.35724">
        <ele>201.2</ele>
        <time>2026-05-17T10:14:09.999Z</time>
      </trkpt>
      <trkpt lat="43.65221" lon="3.35724">
        <ele>201.2</ele>
        <time>2026-05-17T10:14:10.999Z</time>
      </trkpt>
      <trkpt lat="43.65221" lon="3.35724">
        <ele>201.3</ele>
        <time>2026-05-17T10:14:11.999Z</time>
      </trkpt>
      <trkpt lat="43.65221" lon="3.35724">
        <ele>201.4</ele>
        <time>2026-05-17T10:14:12.999Z</time>
      </trkpt>
      <trkpt lat="43.65221" lon="3.35724">
        <ele>201.5</ele>
        <time>2026-05-17T10:14:13.999Z</time>
      </trkpt>
      <trkpt lat="43.65221" lon="3.35724">
        <ele>201.8</ele>
        <time>2026-05-17T10:14:14.999Z</time>
      </trkpt>
      <trkpt lat="43.65221" lon="3.35724">
        <ele>201.7</ele>
        <time>2026-05-17T10:14:15.999Z</time>
      </trkpt>
      <trkpt lat="43.65221" lon="3.35724">
        <ele>201.8</ele>
        <time>2026-05-17T10:14:16.999Z</time>
      </trkpt>
      <trkpt lat="43.65221" lon="3.35724">
        <ele>201.9</ele>
        <time>2026-05-17T10:14:17.999Z</time>
      </trkpt>
      <trkpt lat="43.65221" lon="3.35724">
        <ele>202.1</ele>
        <time>2026-05-17T10:14:18.999Z</time>
      </trkpt>
      <trkpt lat="43.65221" lon="3.35724">
        <ele>201.8</ele>
        <time>2026-05-17T10:14:19.999Z</time>
      </trkpt>
      <trkpt lat="43.65221" lon="3.35724">
        <ele>201.8</ele>
        <time>2026-05-17T10:14:20.999Z</time>
      </trkpt>
      <trkpt lat="43.65221" lon="3.35724">
        <ele>201.7</ele>
        <time>2026-05-17T10:14:21.999Z</time>
      </trkpt>
      <trkpt lat="43.65221" lon="3.35724">
        <ele>201.6</ele>
        <time>2026-05-17T10:14:22.999Z</time>
      </trkpt>
      <trkpt lat="43.65221" lon="3.35723">
        <ele>201.4</ele>
        <time>2026-05-17T10:14:23.999Z</time>
      </trkpt>
      <trkpt lat="43.65221" lon="3.35723">
        <ele>201.5</ele>
        <time>2026-05-17T10:14:24.999Z</time>
      </trkpt>
      <trkpt lat="43.6522" lon="3.35723">
        <ele>201.5</ele>
        <time>2026-05-17T10:14:25.999Z</time>
      </trkpt>
      <trkpt lat="43.6522" lon="3.35723">
        <ele>201.4</ele>
        <time>2026-05-17T10:14:26.999Z</time>
      </trkpt>
      <trkpt lat="43.6522" lon="3.35723">
        <ele>201.6</ele>
        <time>2026-05-17T10:14:27.999Z</time>
      </trkpt>
      <trkpt lat="43.6522" lon="3.35723">
        <ele>201.8</ele>
        <time>2026-05-17T10:14:28.999Z</time>
      </trkpt>
      <trkpt lat="43.6522" lon="3.35723">
        <ele>201.9</ele>
        <time>2026-05-17T10:14:29.999Z</time>
      </trkpt>
      <trkpt lat="43.6522" lon="3.35723">
        <ele>202</ele>
        <time>2026-05-17T10:14:30.999Z</time>
      </trkpt>
      <trkpt lat="43.6522" lon="3.35723">
        <ele>202.1</ele>
        <time>2026-05-17T10:14:31.999Z</time>
      </trkpt>
      <trkpt lat="43.6522" lon="3.35723">
        <ele>202.3</ele>
        <time>2026-05-17T10:14:32.999Z</time>
      </trkpt>
      <trkpt lat="43.6522" lon="3.35723">
        <ele>202.3</ele>
        <time>2026-05-17T10:14:33.999Z</time>
      </trkpt>
      <trkpt lat="43.6522" lon="3.35723">
        <ele>202.2</ele>
        <time>2026-05-17T10:14:34.999Z</time>
      </trkpt>
      <trkpt lat="43.6522" lon="3.35723">
        <ele>202</ele>
        <time>2026-05-17T10:14:35.999Z</time>
      </trkpt>
      <trkpt lat="43.6522" lon="3.35723">
        <ele>201.9</ele>
        <time>2026-05-17T10:14:36.999Z</time>
      </trkpt>
      <trkpt lat="43.6522" lon="3.35723">
        <ele>201.9</ele>
        <time>2026-05-17T10:14:37.999Z</time>
      </trkpt>
      <trkpt lat="43.6522" lon="3.35723">
        <ele>202</ele>
        <time>2026-05-17T10:14:38.999Z</time>
      </trkpt>
      <trkpt lat="43.6522" lon="3.35723">
        <ele>202</ele>
        <time>2026-05-17T10:14:39.999Z</time>
      </trkpt>
      <trkpt lat="43.6522" lon="3.35723">
        <ele>202.1</ele>
        <time>2026-05-17T10:14:40.999Z</time>
      </trkpt>
      <trkpt lat="43.6522" lon="3.35724">
        <ele>202.3</ele>
        <time>2026-05-17T10:14:41.999Z</time>
      </trkpt>
      <trkpt lat="43.6522" lon="3.35724">
        <ele>202.4</ele>
        <time>2026-05-17T10:14:42.999Z</time>
      </trkpt>
      <trkpt lat="43.6522" lon="3.35724">
        <ele>202.5</ele>
        <time>2026-05-17T10:14:43.999Z</time>
      </trkpt>
      <trkpt lat="43.6522" lon="3.35724">
        <ele>202.6</ele>
        <time>2026-05-17T10:14:44.999Z</time>
      </trkpt>
      <trkpt lat="43.6522" lon="3.35724">
        <ele>202.9</ele>
        <time>2026-05-17T10:14:45.999Z</time>
      </trkpt>
      <trkpt lat="43.6522" lon="3.35724">
        <ele>203.1</ele>
        <time>2026-05-17T10:14:46.999Z</time>
      </trkpt>
      <trkpt lat="43.6522" lon="3.35724">
        <ele>203.2</ele>
        <time>2026-05-17T10:14:47.999Z</time>
      </trkpt>
      <trkpt lat="43.6522" lon="3.35724">
        <ele>203.4</ele>
        <time>2026-05-17T10:14:48.999Z</time>
      </trkpt>
      <trkpt lat="43.6522" lon="3.35724">
        <ele>203.4</ele>
        <time>2026-05-17T10:14:49.999Z</time>
      </trkpt>
      <trkpt lat="43.6522" lon="3.35724">
        <ele>203.5</ele>
        <time>2026-05-17T10:14:50.999Z</time>
      </trkpt>
      <trkpt lat="43.6522" lon="3.35724">
        <ele>203.7</ele>
        <time>2026-05-17T10:14:51.999Z</time>
      </trkpt>
      <trkpt lat="43.6522" lon="3.35724">
        <ele>203.9</ele>
        <time>2026-05-17T10:14:52.999Z</time>
      </trkpt>
      <trkpt lat="43.6522" lon="3.35724">
        <ele>204</ele>
        <time>2026-05-17T10:14:53.999Z</time>
      </trkpt>
      <trkpt lat="43.6522" lon="3.35724">
        <ele>203.9</ele>
        <time>2026-05-17T10:14:55.000Z</time>
      </trkpt>
      <trkpt lat="43.6522" lon="3.35724">
        <ele>203.9</ele>
        <time>2026-05-17T10:14:56.000Z</time>
      </trkpt>
      <trkpt lat="43.6522" lon="3.35724">
        <ele>203.9</ele>
        <time>2026-05-17T10:14:57.000Z</time>
      </trkpt>
      <trkpt lat="43.6522" lon="3.35724">
        <ele>203.9</ele>
        <time>2026-05-17T10:14:58.000Z</time>
      </trkpt>
      <trkpt lat="43.6522" lon="3.35724">
        <ele>203.8</ele>
        <time>2026-05-17T10:14:59.000Z</time>
      </trkpt>
      <trkpt lat="43.6522" lon="3.35724">
        <ele>203.9</ele>
        <time>2026-05-17T10:15:00.000Z</time>
      </trkpt>
      <trkpt lat="43.6522" lon="3.35724">
        <ele>203.8</ele>
        <time>2026-05-17T10:15:01.000Z</time>
      </trkpt>
      <trkpt lat="43.6522" lon="3.35724">
        <ele>203.8</ele>
        <time>2026-05-17T10:15:02.000Z</time>
      </trkpt>
      <trkpt lat="43.6522" lon="3.35724">
        <ele>203.8</ele>
        <time>2026-05-17T10:15:03.000Z</time>
      </trkpt>
      <trkpt lat="43.6522" lon="3.35724">
        <ele>204.1</ele>
        <time>2026-05-17T10:15:04.000Z</time>
      </trkpt>
      <trkpt lat="43.6522" lon="3.35724">
        <ele>204.3</ele>
        <time>2026-05-17T10:15:05.000Z</time>
      </trkpt>
      <trkpt lat="43.6522" lon="3.35724">
        <ele>204.4</ele>
        <time>2026-05-17T10:15:06.000Z</time>
      </trkpt>
      <trkpt lat="43.6522" lon="3.35724">
        <ele>204.5</ele>
        <time>2026-05-17T10:15:07.000Z</time>
      </trkpt>
      <trkpt lat="43.6522" lon="3.35724">
        <ele>204.6</ele>
        <time>2026-05-17T10:15:08.000Z</time>
      </trkpt>
      <trkpt lat="43.6522" lon="3.35724">
        <ele>204.6</ele>
        <time>2026-05-17T10:15:09.000Z</time>
      </trkpt>
      <trkpt lat="43.6522" lon="3.35724">
        <ele>204.6</ele>
        <time>2026-05-17T10:15:10.000Z</time>
      </trkpt>
      <trkpt lat="43.6522" lon="3.35724">
        <ele>204.8</ele>
        <time>2026-05-17T10:15:11.000Z</time>
      </trkpt>
      <trkpt lat="43.6522" lon="3.35724">
        <ele>205</ele>
        <time>2026-05-17T10:15:12.000Z</time>
      </trkpt>
      <trkpt lat="43.6522" lon="3.35724">
        <ele>205</ele>
        <time>2026-05-17T10:15:13.000Z</time>
      </trkpt>
      <trkpt lat="43.6522" lon="3.35724">
        <ele>204.9</ele>
        <time>2026-05-17T10:15:14.000Z</time>
      </trkpt>
      <trkpt lat="43.6522" lon="3.35724">
        <ele>205</ele>
        <time>2026-05-17T10:15:15.000Z</time>
      </trkpt>
      <trkpt lat="43.6522" lon="3.35724">
        <ele>205.1</ele>
        <time>2026-05-17T10:15:16.000Z</time>
      </trkpt>
      <trkpt lat="43.6522" lon="3.35724">
        <ele>205.2</ele>
        <time>2026-05-17T10:15:17.000Z</time>
      </trkpt>
      <trkpt lat="43.6522" lon="3.35724">
        <ele>205.2</ele>
        <time>2026-05-17T10:15:18.000Z</time>
      </trkpt>
      <trkpt lat="43.6522" lon="3.35724">
        <ele>205.3</ele>
        <time>2026-05-17T10:15:19.000Z</time>
      </trkpt>
      <trkpt lat="43.6522" lon="3.35724">
        <ele>205.4</ele>
        <time>2026-05-17T10:15:20.000Z</time>
      </trkpt>
      <trkpt lat="43.6522" lon="3.35724">
        <ele>205.5</ele>
        <time>2026-05-17T10:15:21.000Z</time>
      </trkpt>
      <trkpt lat="43.6522" lon="3.35724">
        <ele>205.5</ele>
        <time>2026-05-17T10:15:22.000Z</time>
      </trkpt>
      <trkpt lat="43.6522" lon="3.35724">
        <ele>205.4</ele>
        <time>2026-05-17T10:15:23.000Z</time>
      </trkpt>
      <trkpt lat="43.6522" lon="3.35724">
        <ele>205.3</ele>
        <time>2026-05-17T10:15:24.000Z</time>
      </trkpt>
      <trkpt lat="43.6522" lon="3.35723">
        <ele>205.3</ele>
        <time>2026-05-17T10:15:25.000Z</time>
      </trkpt>
      <trkpt lat="43.6522" lon="3.35722">
        <ele>205.3</ele>
        <time>2026-05-17T10:15:26.000Z</time>
      </trkpt>
      <trkpt lat="43.65219" lon="3.35721">
        <ele>205.3</ele>
        <time>2026-05-17T10:15:27.000Z</time>
      </trkpt>
      <trkpt lat="43.65219" lon="3.3572">
        <ele>205.2</ele>
        <time>2026-05-17T10:15:28.000Z</time>
      </trkpt>
      <trkpt lat="43.65219" lon="3.3572">
        <ele>205</ele>
        <time>2026-05-17T10:15:29.000Z</time>
      </trkpt>
      <trkpt lat="43.65219" lon="3.3572">
        <ele>204.8</ele>
        <time>2026-05-17T10:15:30.000Z</time>
      </trkpt>
      <trkpt lat="43.65219" lon="3.3572">
        <ele>204.8</ele>
        <time>2026-05-17T10:15:31.000Z</time>
      </trkpt>
      <trkpt lat="43.65219" lon="3.3572">
        <ele>204.8</ele>
        <time>2026-05-17T10:15:32.000Z</time>
      </trkpt>
      <trkpt lat="43.65219" lon="3.3572">
        <ele>205</ele>
        <time>2026-05-17T10:15:33.000Z</time>
      </trkpt>
      <trkpt lat="43.65219" lon="3.3572">
        <ele>205.1</ele>
        <time>2026-05-17T10:15:34.000Z</time>
      </trkpt>
      <trkpt lat="43.65219" lon="3.3572">
        <ele>205.3</ele>
        <time>2026-05-17T10:15:35.000Z</time>
      </trkpt>
      <trkpt lat="43.65219" lon="3.3572">
        <ele>205.3</ele>
        <time>2026-05-17T10:15:36.000Z</time>
      </trkpt>
      <trkpt lat="43.65219" lon="3.3572">
        <ele>205.3</ele>
        <time>2026-05-17T10:15:37.000Z</time>
      </trkpt>
      <trkpt lat="43.65219" lon="3.3572">
        <ele>205.4</ele>
        <time>2026-05-17T10:15:38.000Z</time>
      </trkpt>
      <trkpt lat="43.65219" lon="3.3572">
        <ele>205.3</ele>
        <time>2026-05-17T10:15:39.000Z</time>
      </trkpt>
      <trkpt lat="43.65219" lon="3.3572">
        <ele>205.3</ele>
        <time>2026-05-17T10:15:40.000Z</time>
      </trkpt>
      <trkpt lat="43.65219" lon="3.3572">
        <ele>205.3</ele>
        <time>2026-05-17T10:15:41.000Z</time>
      </trkpt>
      <trkpt lat="43.65219" lon="3.3572">
        <ele>205.3</ele>
        <time>2026-05-17T10:15:42.000Z</time>
      </trkpt>
      <trkpt lat="43.65219" lon="3.3572">
        <ele>205.5</ele>
        <time>2026-05-17T10:15:43.000Z</time>
      </trkpt>
      <trkpt lat="43.65219" lon="3.3572">
        <ele>205.4</ele>
        <time>2026-05-17T10:15:44.000Z</time>
      </trkpt>
      <trkpt lat="43.65219" lon="3.3572">
        <ele>205.3</ele>
        <time>2026-05-17T10:15:45.000Z</time>
      </trkpt>
      <trkpt lat="43.65219" lon="3.3572">
        <ele>205.3</ele>
        <time>2026-05-17T10:15:46.000Z</time>
      </trkpt>
      <trkpt lat="43.65219" lon="3.3572">
        <ele>205.2</ele>
        <time>2026-05-17T10:15:47.000Z</time>
      </trkpt>
      <trkpt lat="43.65219" lon="3.3572">
        <ele>204.9</ele>
        <time>2026-05-17T10:15:48.000Z</time>
      </trkpt>
      <trkpt lat="43.65219" lon="3.3572">
        <ele>204.9</ele>
        <time>2026-05-17T10:15:49.000Z</time>
      </trkpt>
      <trkpt lat="43.65219" lon="3.3572">
        <ele>204.7</ele>
        <time>2026-05-17T10:15:50.000Z</time>
      </trkpt>
      <trkpt lat="43.65219" lon="3.3572">
        <ele>204.7</ele>
        <time>2026-05-17T10:15:51.000Z</time>
      </trkpt>
      <trkpt lat="43.65219" lon="3.3572">
        <ele>204.8</ele>
        <time>2026-05-17T10:15:52.000Z</time>
      </trkpt>
      <trkpt lat="43.65219" lon="3.3572">
        <ele>204.9</ele>
        <time>2026-05-17T10:15:53.000Z</time>
      </trkpt>
      <trkpt lat="43.65219" lon="3.3572">
        <ele>204.8</ele>
        <time>2026-05-17T10:15:54.000Z</time>
      </trkpt>
      <trkpt lat="43.65219" lon="3.3572">
        <ele>204.6</ele>
        <time>2026-05-17T10:15:55.000Z</time>
      </trkpt>
      <trkpt lat="43.65219" lon="3.3572">
        <ele>204.4</ele>
        <time>2026-05-17T10:15:56.000Z</time>
      </trkpt>
      <trkpt lat="43.65219" lon="3.3572">
        <ele>204.3</ele>
        <time>2026-05-17T10:15:57.000Z</time>
      </trkpt>
      <trkpt lat="43.65219" lon="3.3572">
        <ele>204.1</ele>
        <time>2026-05-17T10:15:58.000Z</time>
      </trkpt>
      <trkpt lat="43.65219" lon="3.3572">
        <ele>204.1</ele>
        <time>2026-05-17T10:15:59.000Z</time>
      </trkpt>
      <trkpt lat="43.65219" lon="3.3572">
        <ele>204.1</ele>
        <time>2026-05-17T10:16:00.000Z</time>
      </trkpt>
      <trkpt lat="43.65219" lon="3.3572">
        <ele>204.1</ele>
        <time>2026-05-17T10:16:01.000Z</time>
      </trkpt>
      <trkpt lat="43.65219" lon="3.3572">
        <ele>204</ele>
        <time>2026-05-17T10:16:02.000Z</time>
      </trkpt>
      <trkpt lat="43.65219" lon="3.3572">
        <ele>204</ele>
        <time>2026-05-17T10:16:03.000Z</time>
      </trkpt>
      <trkpt lat="43.65219" lon="3.3572">
        <ele>204</ele>
        <time>2026-05-17T10:16:04.000Z</time>
      </trkpt>
      <trkpt lat="43.65219" lon="3.3572">
        <ele>203.9</ele>
        <time>2026-05-17T10:16:05.000Z</time>
      </trkpt>
      <trkpt lat="43.65219" lon="3.3572">
        <ele>203.9</ele>
        <time>2026-05-17T10:16:06.000Z</time>
      </trkpt>
      <trkpt lat="43.65219" lon="3.3572">
        <ele>203.9</ele>
        <time>2026-05-17T10:16:07.000Z</time>
      </trkpt>
      <trkpt lat="43.65219" lon="3.3572">
        <ele>203.9</ele>
        <time>2026-05-17T10:16:08.000Z</time>
      </trkpt>
      <trkpt lat="43.65219" lon="3.3572">
        <ele>204.1</ele>
        <time>2026-05-17T10:16:09.000Z</time>
      </trkpt>
      <trkpt lat="43.65219" lon="3.3572">
        <ele>204.3</ele>
        <time>2026-05-17T10:16:10.000Z</time>
      </trkpt>
      <trkpt lat="43.65219" lon="3.3572">
        <ele>204.5</ele>
        <time>2026-05-17T10:16:11.000Z</time>
      </trkpt>
      <trkpt lat="43.65219" lon="3.3572">
        <ele>204.7</ele>
        <time>2026-05-17T10:16:12.000Z</time>
      </trkpt>
      <trkpt lat="43.65219" lon="3.3572">
        <ele>204.8</ele>
        <time>2026-05-17T10:16:13.000Z</time>
      </trkpt>
      <trkpt lat="43.65219" lon="3.3572">
        <ele>205.1</ele>
        <time>2026-05-17T10:16:14.000Z</time>
      </trkpt>
      <trkpt lat="43.65219" lon="3.3572">
        <ele>205.3</ele>
        <time>2026-05-17T10:16:15.000Z</time>
      </trkpt>
      <trkpt lat="43.65219" lon="3.3572">
        <ele>205.4</ele>
        <time>2026-05-17T10:16:16.000Z</time>
      </trkpt>
      <trkpt lat="43.65219" lon="3.3572">
        <ele>205.6</ele>
        <time>2026-05-17T10:16:17.000Z</time>
      </trkpt>
      <trkpt lat="43.65219" lon="3.3572">
        <ele>205.7</ele>
        <time>2026-05-17T10:16:18.000Z</time>
      </trkpt>
      <trkpt lat="43.65219" lon="3.3572">
        <ele>205.9</ele>
        <time>2026-05-17T10:16:19.000Z</time>
      </trkpt>
      <trkpt lat="43.65219" lon="3.3572">
        <ele>206</ele>
        <time>2026-05-17T10:16:20.000Z</time>
      </trkpt>
      <trkpt lat="43.65219" lon="3.3572">
        <ele>206.1</ele>
        <time>2026-05-17T10:16:21.000Z</time>
      </trkpt>
      <trkpt lat="43.65219" lon="3.3572">
        <ele>206</ele>
        <time>2026-05-17T10:16:22.000Z</time>
      </trkpt>
      <trkpt lat="43.65219" lon="3.3572">
        <ele>206.1</ele>
        <time>2026-05-17T10:16:23.000Z</time>
      </trkpt>
      <trkpt lat="43.65219" lon="3.3572">
        <ele>206.2</ele>
        <time>2026-05-17T10:16:24.000Z</time>
      </trkpt>
      <trkpt lat="43.65219" lon="3.3572">
        <ele>206.4</ele>
        <time>2026-05-17T10:16:25.000Z</time>
      </trkpt>
      <trkpt lat="43.65219" lon="3.3572">
        <ele>206.4</ele>
        <time>2026-05-17T10:16:26.000Z</time>
      </trkpt>
      <trkpt lat="43.65219" lon="3.3572">
        <ele>206.4</ele>
        <time>2026-05-17T10:16:27.000Z</time>
      </trkpt>
      <trkpt lat="43.65219" lon="3.3572">
        <ele>206.3</ele>
        <time>2026-05-17T10:16:28.000Z</time>
      </trkpt>
      <trkpt lat="43.65219" lon="3.3572">
        <ele>206</ele>
        <time>2026-05-17T10:16:29.000Z</time>
      </trkpt>
      <trkpt lat="43.65219" lon="3.3572">
        <ele>205.9</ele>
        <time>2026-05-17T10:16:30.000Z</time>
      </trkpt>
      <trkpt lat="43.65219" lon="3.3572">
        <ele>206</ele>
        <time>2026-05-17T10:16:31.000Z</time>
      </trkpt>
      <trkpt lat="43.65219" lon="3.3572">
        <ele>206</ele>
        <time>2026-05-17T10:16:32.000Z</time>
      </trkpt>
      <trkpt lat="43.65219" lon="3.3572">
        <ele>206</ele>
        <time>2026-05-17T10:16:33.000Z</time>
      </trkpt>
      <trkpt lat="43.65219" lon="3.3572">
        <ele>206</ele>
        <time>2026-05-17T10:16:34.000Z</time>
      </trkpt>
      <trkpt lat="43.65219" lon="3.3572">
        <ele>206</ele>
        <time>2026-05-17T10:16:35.000Z</time>
      </trkpt>
      <trkpt lat="43.65219" lon="3.3572">
        <ele>206</ele>
        <time>2026-05-17T10:16:36.000Z</time>
      </trkpt>
      <trkpt lat="43.65219" lon="3.3572">
        <ele>206.1</ele>
        <time>2026-05-17T10:16:37.000Z</time>
      </trkpt>
      <trkpt lat="43.65219" lon="3.3572">
        <ele>206.3</ele>
        <time>2026-05-17T10:16:38.000Z</time>
      </trkpt>
      <trkpt lat="43.65219" lon="3.3572">
        <ele>206.4</ele>
        <time>2026-05-17T10:16:39.000Z</time>
      </trkpt>
      <trkpt lat="43.65219" lon="3.3572">
        <ele>206.6</ele>
        <time>2026-05-17T10:16:40.000Z</time>
      </trkpt>
      <trkpt lat="43.65219" lon="3.3572">
        <ele>206.9</ele>
        <time>2026-05-17T10:16:41.000Z</time>
      </trkpt>
      <trkpt lat="43.65219" lon="3.3572">
        <ele>207.4</ele>
        <time>2026-05-17T10:16:42.000Z</time>
      </trkpt>
      <trkpt lat="43.65219" lon="3.3572">
        <ele>207.9</ele>
        <time>2026-05-17T10:16:43.000Z</time>
      </trkpt>
      <trkpt lat="43.65219" lon="3.3572">
        <ele>208.3</ele>
        <time>2026-05-17T10:16:44.000Z</time>
      </trkpt>
      <trkpt lat="43.65219" lon="3.35719">
        <ele>208.6</ele>
        <time>2026-05-17T10:16:45.000Z</time>
      </trkpt>
      <trkpt lat="43.65219" lon="3.35719">
        <ele>209</ele>
        <time>2026-05-17T10:16:46.000Z</time>
      </trkpt>
      <trkpt lat="43.65219" lon="3.35719">
        <ele>209</ele>
        <time>2026-05-17T10:16:47.000Z</time>
      </trkpt>
      <trkpt lat="43.65219" lon="3.35719">
        <ele>208.9</ele>
        <time>2026-05-17T10:16:48.000Z</time>
      </trkpt>
      <trkpt lat="43.65219" lon="3.35719">
        <ele>208.7</ele>
        <time>2026-05-17T10:16:49.000Z</time>
      </trkpt>
      <trkpt lat="43.65219" lon="3.35719">
        <ele>208.6</ele>
        <time>2026-05-17T10:16:50.000Z</time>
      </trkpt>
      <trkpt lat="43.65219" lon="3.35719">
        <ele>208.7</ele>
        <time>2026-05-17T10:16:51.000Z</time>
      </trkpt>
      <trkpt lat="43.65219" lon="3.35719">
        <ele>208.5</ele>
        <time>2026-05-17T10:16:52.000Z</time>
      </trkpt>
      <trkpt lat="43.65219" lon="3.35719">
        <ele>208.3</ele>
        <time>2026-05-17T10:16:53.000Z</time>
      </trkpt>
      <trkpt lat="43.65219" lon="3.35719">
        <ele>208.1</ele>
        <time>2026-05-17T10:16:54.000Z</time>
      </trkpt>
      <trkpt lat="43.65219" lon="3.35719">
        <ele>207.7</ele>
        <time>2026-05-17T10:16:55.000Z</time>
      </trkpt>
      <trkpt lat="43.65219" lon="3.35719">
        <ele>207.4</ele>
        <time>2026-05-17T10:16:56.000Z</time>
      </trkpt>
      <trkpt lat="43.65219" lon="3.35719">
        <ele>207.1</ele>
        <time>2026-05-17T10:16:57.000Z</time>
      </trkpt>
      <trkpt lat="43.65219" lon="3.35719">
        <ele>206.9</ele>
        <time>2026-05-17T10:16:58.000Z</time>
      </trkpt>
      <trkpt lat="43.65219" lon="3.35719">
        <ele>207</ele>
        <time>2026-05-17T10:16:59.000Z</time>
      </trkpt>
      <trkpt lat="43.65219" lon="3.35719">
        <ele>206.9</ele>
        <time>2026-05-17T10:17:00.000Z</time>
      </trkpt>
      <trkpt lat="43.65219" lon="3.35719">
        <ele>206.7</ele>
        <time>2026-05-17T10:17:01.000Z</time>
      </trkpt>
      <trkpt lat="43.65219" lon="3.35719">
        <ele>206.6</ele>
        <time>2026-05-17T10:17:02.000Z</time>
      </trkpt>
      <trkpt lat="43.65219" lon="3.35719">
        <ele>206.5</ele>
        <time>2026-05-17T10:17:03.000Z</time>
      </trkpt>
      <trkpt lat="43.65219" lon="3.35719">
        <ele>206.3</ele>
        <time>2026-05-17T10:17:04.000Z</time>
      </trkpt>
      <trkpt lat="43.65219" lon="3.35719">
        <ele>206.2</ele>
        <time>2026-05-17T10:17:05.000Z</time>
      </trkpt>
      <trkpt lat="43.65219" lon="3.35719">
        <ele>206.1</ele>
        <time>2026-05-17T10:17:06.000Z</time>
      </trkpt>
      <trkpt lat="43.65219" lon="3.35719">
        <ele>205.9</ele>
        <time>2026-05-17T10:17:07.000Z</time>
      </trkpt>
      <trkpt lat="43.65219" lon="3.3572">
        <ele>205.8</ele>
        <time>2026-05-17T10:17:08.000Z</time>
      </trkpt>
      <trkpt lat="43.65219" lon="3.3572">
        <ele>205.7</ele>
        <time>2026-05-17T10:17:09.000Z</time>
      </trkpt>
      <trkpt lat="43.65219" lon="3.3572">
        <ele>205.7</ele>
        <time>2026-05-17T10:17:10.000Z</time>
      </trkpt>
      <trkpt lat="43.65219" lon="3.3572">
        <ele>205.7</ele>
        <time>2026-05-17T10:17:11.000Z</time>
      </trkpt>
      <trkpt lat="43.65219" lon="3.3572">
        <ele>205.8</ele>
        <time>2026-05-17T10:17:12.000Z</time>
      </trkpt>
      <trkpt lat="43.65219" lon="3.3572">
        <ele>205.7</ele>
        <time>2026-05-17T10:17:13.000Z</time>
      </trkpt>
      <trkpt lat="43.65219" lon="3.3572">
        <ele>205.7</ele>
        <time>2026-05-17T10:17:14.000Z</time>
      </trkpt>
      <trkpt lat="43.65219" lon="3.3572">
        <ele>205.7</ele>
        <time>2026-05-17T10:17:15.000Z</time>
      </trkpt>
      <trkpt lat="43.65219" lon="3.3572">
        <ele>205.7</ele>
        <time>2026-05-17T10:17:16.000Z</time>
      </trkpt>
      <trkpt lat="43.65219" lon="3.3572">
        <ele>205.6</ele>
        <time>2026-05-17T10:17:17.000Z</time>
      </trkpt>
      <trkpt lat="43.65219" lon="3.3572">
        <ele>205.3</ele>
        <time>2026-05-17T10:17:18.000Z</time>
      </trkpt>
      <trkpt lat="43.65219" lon="3.3572">
        <ele>205.1</ele>
        <time>2026-05-17T10:17:19.000Z</time>
      </trkpt>
      <trkpt lat="43.65219" lon="3.3572">
        <ele>204.8</ele>
        <time>2026-05-17T10:17:20.000Z</time>
      </trkpt>
      <trkpt lat="43.65219" lon="3.3572">
        <ele>204.6</ele>
        <time>2026-05-17T10:17:21.000Z</time>
      </trkpt>
      <trkpt lat="43.65219" lon="3.3572">
        <ele>204.4</ele>
        <time>2026-05-17T10:17:22.000Z</time>
      </trkpt>
      <trkpt lat="43.65219" lon="3.3572">
        <ele>204.3</ele>
        <time>2026-05-17T10:17:23.000Z</time>
      </trkpt>
      <trkpt lat="43.65219" lon="3.3572">
        <ele>204.1</ele>
        <time>2026-05-17T10:17:24.000Z</time>
      </trkpt>
      <trkpt lat="43.65219" lon="3.3572">
        <ele>203.9</ele>
        <time>2026-05-17T10:17:25.000Z</time>
      </trkpt>
      <trkpt lat="43.65219" lon="3.3572">
        <ele>203.7</ele>
        <time>2026-05-17T10:17:26.000Z</time>
      </trkpt>
      <trkpt lat="43.65219" lon="3.3572">
        <ele>203.4</ele>
        <time>2026-05-17T10:17:27.000Z</time>
      </trkpt>
      <trkpt lat="43.65219" lon="3.3572">
        <ele>203.1</ele>
        <time>2026-05-17T10:17:28.000Z</time>
      </trkpt>
      <trkpt lat="43.65219" lon="3.3572">
        <ele>202.8</ele>
        <time>2026-05-17T10:17:29.000Z</time>
      </trkpt>
      <trkpt lat="43.65219" lon="3.3572">
        <ele>202.6</ele>
        <time>2026-05-17T10:17:30.000Z</time>
      </trkpt>
      <trkpt lat="43.65219" lon="3.3572">
        <ele>202.4</ele>
        <time>2026-05-17T10:17:31.000Z</time>
      </trkpt>
      <trkpt lat="43.65219" lon="3.3572">
        <ele>202.3</ele>
        <time>2026-05-17T10:17:32.000Z</time>
      </trkpt>
      <trkpt lat="43.65219" lon="3.3572">
        <ele>202.3</ele>
        <time>2026-05-17T10:17:33.000Z</time>
      </trkpt>
      <trkpt lat="43.65219" lon="3.3572">
        <ele>202.2</ele>
        <time>2026-05-17T10:17:34.000Z</time>
      </trkpt>
      <trkpt lat="43.65219" lon="3.3572">
        <ele>202.3</ele>
        <time>2026-05-17T10:17:35.000Z</time>
      </trkpt>
      <trkpt lat="43.65219" lon="3.3572">
        <ele>202.2</ele>
        <time>2026-05-17T10:17:36.000Z</time>
      </trkpt>
      <trkpt lat="43.65219" lon="3.3572">
        <ele>202.2</ele>
        <time>2026-05-17T10:17:37.000Z</time>
      </trkpt>
      <trkpt lat="43.65219" lon="3.3572">
        <ele>202.2</ele>
        <time>2026-05-17T10:17:38.000Z</time>
      </trkpt>
      <trkpt lat="43.65219" lon="3.3572">
        <ele>202.1</ele>
        <time>2026-05-17T10:17:39.000Z</time>
      </trkpt>
      <trkpt lat="43.65219" lon="3.3572">
        <ele>202.1</ele>
        <time>2026-05-17T10:17:40.000Z</time>
      </trkpt>
      <trkpt lat="43.65219" lon="3.3572">
        <ele>202</ele>
        <time>2026-05-17T10:17:41.000Z</time>
      </trkpt>
      <trkpt lat="43.65219" lon="3.3572">
        <ele>202.1</ele>
        <time>2026-05-17T10:17:42.000Z</time>
      </trkpt>
      <trkpt lat="43.65219" lon="3.3572">
        <ele>202.2</ele>
        <time>2026-05-17T10:17:43.000Z</time>
      </trkpt>
      <trkpt lat="43.65219" lon="3.3572">
        <ele>202.1</ele>
        <time>2026-05-17T10:17:44.000Z</time>
      </trkpt>
      <trkpt lat="43.65219" lon="3.3572">
        <ele>202.3</ele>
        <time>2026-05-17T10:17:45.000Z</time>
      </trkpt>
      <trkpt lat="43.65219" lon="3.3572">
        <ele>202.6</ele>
        <time>2026-05-17T10:17:46.000Z</time>
      </trkpt>
      <trkpt lat="43.65219" lon="3.3572">
        <ele>202.8</ele>
        <time>2026-05-17T10:17:47.000Z</time>
      </trkpt>
      <trkpt lat="43.65219" lon="3.3572">
        <ele>202.9</ele>
        <time>2026-05-17T10:17:48.000Z</time>
      </trkpt>
      <trkpt lat="43.65219" lon="3.3572">
        <ele>203</ele>
        <time>2026-05-17T10:17:49.000Z</time>
      </trkpt>
      <trkpt lat="43.65219" lon="3.3572">
        <ele>203.1</ele>
        <time>2026-05-17T10:17:50.000Z</time>
      </trkpt>
      <trkpt lat="43.65219" lon="3.3572">
        <ele>203.2</ele>
        <time>2026-05-17T10:17:51.000Z</time>
      </trkpt>
      <trkpt lat="43.65219" lon="3.3572">
        <ele>203.3</ele>
        <time>2026-05-17T10:17:52.000Z</time>
      </trkpt>
      <trkpt lat="43.65219" lon="3.3572">
        <ele>203.3</ele>
        <time>2026-05-17T10:17:53.000Z</time>
      </trkpt>
      <trkpt lat="43.65219" lon="3.3572">
        <ele>203.2</ele>
        <time>2026-05-17T10:17:54.000Z</time>
      </trkpt>
      <trkpt lat="43.65219" lon="3.3572">
        <ele>203.1</ele>
        <time>2026-05-17T10:17:55.000Z</time>
      </trkpt>
      <trkpt lat="43.65219" lon="3.3572">
        <ele>202.9</ele>
        <time>2026-05-17T10:17:56.000Z</time>
      </trkpt>
      <trkpt lat="43.65219" lon="3.3572">
        <ele>202.8</ele>
        <time>2026-05-17T10:17:57.000Z</time>
      </trkpt>
      <trkpt lat="43.65219" lon="3.3572">
        <ele>202.7</ele>
        <time>2026-05-17T10:17:58.000Z</time>
      </trkpt>
      <trkpt lat="43.65219" lon="3.3572">
        <ele>202.6</ele>
        <time>2026-05-17T10:17:59.000Z</time>
      </trkpt>
      <trkpt lat="43.65219" lon="3.3572">
        <ele>202.4</ele>
        <time>2026-05-17T10:18:00.000Z</time>
      </trkpt>
      <trkpt lat="43.65219" lon="3.3572">
        <ele>202.2</ele>
        <time>2026-05-17T10:18:01.000Z</time>
      </trkpt>
      <trkpt lat="43.65219" lon="3.3572">
        <ele>202.1</ele>
        <time>2026-05-17T10:18:02.000Z</time>
      </trkpt>
      <trkpt lat="43.65219" lon="3.3572">
        <ele>202</ele>
        <time>2026-05-17T10:18:03.000Z</time>
      </trkpt>
      <trkpt lat="43.65219" lon="3.3572">
        <ele>201.8</ele>
        <time>2026-05-17T10:18:04.000Z</time>
      </trkpt>
      <trkpt lat="43.65219" lon="3.3572">
        <ele>201.7</ele>
        <time>2026-05-17T10:18:05.000Z</time>
      </trkpt>
      <trkpt lat="43.65219" lon="3.3572">
        <ele>201.8</ele>
        <time>2026-05-17T10:18:06.000Z</time>
      </trkpt>
      <trkpt lat="43.65219" lon="3.3572">
        <ele>202</ele>
        <time>2026-05-17T10:18:07.000Z</time>
      </trkpt>
      <trkpt lat="43.65219" lon="3.3572">
        <ele>202.2</ele>
        <time>2026-05-17T10:18:08.000Z</time>
      </trkpt>
      <trkpt lat="43.65219" lon="3.3572">
        <ele>202.2</ele>
        <time>2026-05-17T10:18:09.000Z</time>
      </trkpt>
      <trkpt lat="43.65219" lon="3.3572">
        <ele>202.3</ele>
        <time>2026-05-17T10:18:10.000Z</time>
      </trkpt>
      <trkpt lat="43.65219" lon="3.3572">
        <ele>202.3</ele>
        <time>2026-05-17T10:18:11.000Z</time>
      </trkpt>
      <trkpt lat="43.65219" lon="3.3572">
        <ele>202.1</ele>
        <time>2026-05-17T10:18:12.000Z</time>
      </trkpt>
      <trkpt lat="43.65219" lon="3.3572">
        <ele>201.9</ele>
        <time>2026-05-17T10:18:13.000Z</time>
      </trkpt>
      <trkpt lat="43.65219" lon="3.3572">
        <ele>201.8</ele>
        <time>2026-05-17T10:18:14.000Z</time>
      </trkpt>
      <trkpt lat="43.65219" lon="3.3572">
        <ele>201.6</ele>
        <time>2026-05-17T10:18:15.000Z</time>
      </trkpt>
      <trkpt lat="43.65219" lon="3.3572">
        <ele>201.6</ele>
        <time>2026-05-17T10:18:16.000Z</time>
      </trkpt>
      <trkpt lat="43.65219" lon="3.3572">
        <ele>201.6</ele>
        <time>2026-05-17T10:18:17.000Z</time>
      </trkpt>
      <trkpt lat="43.65219" lon="3.3572">
        <ele>201.8</ele>
        <time>2026-05-17T10:18:18.000Z</time>
      </trkpt>
      <trkpt lat="43.65219" lon="3.3572">
        <ele>201.9</ele>
        <time>2026-05-17T10:18:19.000Z</time>
      </trkpt>
      <trkpt lat="43.65219" lon="3.3572">
        <ele>202.2</ele>
        <time>2026-05-17T10:18:20.000Z</time>
      </trkpt>
      <trkpt lat="43.65219" lon="3.3572">
        <ele>202.2</ele>
        <time>2026-05-17T10:18:21.000Z</time>
      </trkpt>
      <trkpt lat="43.65219" lon="3.3572">
        <ele>202.1</ele>
        <time>2026-05-17T10:18:22.000Z</time>
      </trkpt>
      <trkpt lat="43.65219" lon="3.3572">
        <ele>202.1</ele>
        <time>2026-05-17T10:18:23.000Z</time>
      </trkpt>
      <trkpt lat="43.65219" lon="3.3572">
        <ele>202.2</ele>
        <time>2026-05-17T10:18:24.000Z</time>
      </trkpt>
      <trkpt lat="43.65219" lon="3.3572">
        <ele>202.4</ele>
        <time>2026-05-17T10:18:25.000Z</time>
      </trkpt>
      <trkpt lat="43.65219" lon="3.3572">
        <ele>202.5</ele>
        <time>2026-05-17T10:18:26.000Z</time>
      </trkpt>
      <trkpt lat="43.65219" lon="3.3572">
        <ele>202.7</ele>
        <time>2026-05-17T10:18:27.000Z</time>
      </trkpt>
      <trkpt lat="43.65219" lon="3.3572">
        <ele>202.7</ele>
        <time>2026-05-17T10:18:28.000Z</time>
      </trkpt>
      <trkpt lat="43.65219" lon="3.3572">
        <ele>202.5</ele>
        <time>2026-05-17T10:18:29.000Z</time>
      </trkpt>
      <trkpt lat="43.65219" lon="3.3572">
        <ele>202.5</ele>
        <time>2026-05-17T10:18:30.000Z</time>
      </trkpt>
      <trkpt lat="43.65219" lon="3.3572">
        <ele>202.5</ele>
        <time>2026-05-17T10:18:31.000Z</time>
      </trkpt>
      <trkpt lat="43.65219" lon="3.3572">
        <ele>202.4</ele>
        <time>2026-05-17T10:18:32.000Z</time>
      </trkpt>
      <trkpt lat="43.65219" lon="3.35721">
        <ele>202.6</ele>
        <time>2026-05-17T10:18:33.000Z</time>
      </trkpt>
      <trkpt lat="43.65219" lon="3.35721">
        <ele>202.8</ele>
        <time>2026-05-17T10:18:34.000Z</time>
      </trkpt>
      <trkpt lat="43.65219" lon="3.35721">
        <ele>203.2</ele>
        <time>2026-05-17T10:18:35.000Z</time>
      </trkpt>
      <trkpt lat="43.65219" lon="3.35721">
        <ele>203.5</ele>
        <time>2026-05-17T10:18:36.000Z</time>
      </trkpt>
      <trkpt lat="43.65219" lon="3.35721">
        <ele>203.9</ele>
        <time>2026-05-17T10:18:37.000Z</time>
      </trkpt>
      <trkpt lat="43.65219" lon="3.35721">
        <ele>203.9</ele>
        <time>2026-05-17T10:18:38.000Z</time>
      </trkpt>
      <trkpt lat="43.65219" lon="3.35721">
        <ele>204.2</ele>
        <time>2026-05-17T10:18:39.000Z</time>
      </trkpt>
      <trkpt lat="43.65219" lon="3.35721">
        <ele>204.2</ele>
        <time>2026-05-17T10:18:40.000Z</time>
      </trkpt>
      <trkpt lat="43.65219" lon="3.35721">
        <ele>204.2</ele>
        <time>2026-05-17T10:18:41.000Z</time>
      </trkpt>
      <trkpt lat="43.65219" lon="3.35721">
        <ele>204.4</ele>
        <time>2026-05-17T10:18:42.000Z</time>
      </trkpt>
      <trkpt lat="43.65219" lon="3.35721">
        <ele>204.4</ele>
        <time>2026-05-17T10:18:43.000Z</time>
      </trkpt>
      <trkpt lat="43.65219" lon="3.35721">
        <ele>204.6</ele>
        <time>2026-05-17T10:18:44.000Z</time>
      </trkpt>
      <trkpt lat="43.65219" lon="3.35721">
        <ele>204.7</ele>
        <time>2026-05-17T10:18:45.000Z</time>
      </trkpt>
      <trkpt lat="43.65219" lon="3.35721">
        <ele>204.7</ele>
        <time>2026-05-17T10:18:46.000Z</time>
      </trkpt>
      <trkpt lat="43.65219" lon="3.35721">
        <ele>204.6</ele>
        <time>2026-05-17T10:18:47.000Z</time>
      </trkpt>
      <trkpt lat="43.65219" lon="3.35721">
        <ele>204.5</ele>
        <time>2026-05-17T10:18:48.000Z</time>
      </trkpt>
      <trkpt lat="43.65219" lon="3.35721">
        <ele>204.6</ele>
        <time>2026-05-17T10:18:49.000Z</time>
      </trkpt>
      <trkpt lat="43.65219" lon="3.35721">
        <ele>204.7</ele>
        <time>2026-05-17T10:18:50.000Z</time>
      </trkpt>
      <trkpt lat="43.65219" lon="3.35721">
        <ele>204.8</ele>
        <time>2026-05-17T10:18:51.000Z</time>
      </trkpt>
      <trkpt lat="43.65219" lon="3.35721">
        <ele>204.9</ele>
        <time>2026-05-17T10:18:52.000Z</time>
      </trkpt>
      <trkpt lat="43.65219" lon="3.3572">
        <ele>205</ele>
        <time>2026-05-17T10:18:53.000Z</time>
      </trkpt>
      <trkpt lat="43.65219" lon="3.3572">
        <ele>205.2</ele>
        <time>2026-05-17T10:18:54.000Z</time>
      </trkpt>
      <trkpt lat="43.65219" lon="3.3572">
        <ele>205.3</ele>
        <time>2026-05-17T10:18:55.000Z</time>
      </trkpt>
      <trkpt lat="43.65219" lon="3.3572">
        <ele>205.1</ele>
        <time>2026-05-17T10:18:56.000Z</time>
      </trkpt>
      <trkpt lat="43.65219" lon="3.3572">
        <ele>204.8</ele>
        <time>2026-05-17T10:18:57.000Z</time>
      </trkpt>
      <trkpt lat="43.65219" lon="3.3572">
        <ele>204.5</ele>
        <time>2026-05-17T10:18:58.000Z</time>
      </trkpt>
      <trkpt lat="43.65219" lon="3.3572">
        <ele>204.4</ele>
        <time>2026-05-17T10:18:59.000Z</time>
      </trkpt>
      <trkpt lat="43.65219" lon="3.3572">
        <ele>204.4</ele>
        <time>2026-05-17T10:19:00.000Z</time>
      </trkpt>
      <trkpt lat="43.65219" lon="3.3572">
        <ele>204.6</ele>
        <time>2026-05-17T10:19:01.000Z</time>
      </trkpt>
      <trkpt lat="43.65219" lon="3.3572">
        <ele>204.6</ele>
        <time>2026-05-17T10:19:02.000Z</time>
      </trkpt>
      <trkpt lat="43.65219" lon="3.3572">
        <ele>204.6</ele>
        <time>2026-05-17T10:19:03.000Z</time>
      </trkpt>
      <trkpt lat="43.65219" lon="3.3572">
        <ele>204.4</ele>
        <time>2026-05-17T10:19:04.000Z</time>
      </trkpt>
      <trkpt lat="43.65219" lon="3.3572">
        <ele>204.4</ele>
        <time>2026-05-17T10:19:05.000Z</time>
      </trkpt>
      <trkpt lat="43.65219" lon="3.3572">
        <ele>204.5</ele>
        <time>2026-05-17T10:19:06.000Z</time>
      </trkpt>
      <trkpt lat="43.65219" lon="3.3572">
        <ele>204.5</ele>
        <time>2026-05-17T10:19:07.000Z</time>
      </trkpt>
      <trkpt lat="43.65219" lon="3.3572">
        <ele>204.6</ele>
        <time>2026-05-17T10:19:08.000Z</time>
      </trkpt>
      <trkpt lat="43.65219" lon="3.3572">
        <ele>204.8</ele>
        <time>2026-05-17T10:19:09.000Z</time>
      </trkpt>
      <trkpt lat="43.65219" lon="3.3572">
        <ele>204.9</ele>
        <time>2026-05-17T10:19:10.000Z</time>
      </trkpt>
      <trkpt lat="43.65219" lon="3.3572">
        <ele>204.9</ele>
        <time>2026-05-17T10:19:11.000Z</time>
      </trkpt>
      <trkpt lat="43.65219" lon="3.3572">
        <ele>204.9</ele>
        <time>2026-05-17T10:19:12.000Z</time>
      </trkpt>
      <trkpt lat="43.65219" lon="3.35721">
        <ele>205</ele>
        <time>2026-05-17T10:19:13.000Z</time>
      </trkpt>
      <trkpt lat="43.65219" lon="3.35721">
        <ele>205.3</ele>
        <time>2026-05-17T10:19:14.000Z</time>
      </trkpt>
      <trkpt lat="43.65219" lon="3.35721">
        <ele>205.4</ele>
        <time>2026-05-17T10:19:15.000Z</time>
      </trkpt>
      <trkpt lat="43.65219" lon="3.35721">
        <ele>205.7</ele>
        <time>2026-05-17T10:19:16.000Z</time>
      </trkpt>
      <trkpt lat="43.65219" lon="3.35721">
        <ele>205.8</ele>
        <time>2026-05-17T10:19:17.000Z</time>
      </trkpt>
      <trkpt lat="43.65219" lon="3.35721">
        <ele>205.8</ele>
        <time>2026-05-17T10:19:18.000Z</time>
      </trkpt>
      <trkpt lat="43.65219" lon="3.35721">
        <ele>205.8</ele>
        <time>2026-05-17T10:19:19.000Z</time>
      </trkpt>
      <trkpt lat="43.65219" lon="3.35721">
        <ele>205.9</ele>
        <time>2026-05-17T10:19:20.000Z</time>
      </trkpt>
      <trkpt lat="43.65219" lon="3.35721">
        <ele>206.1</ele>
        <time>2026-05-17T10:19:21.000Z</time>
      </trkpt>
      <trkpt lat="43.65219" lon="3.35721">
        <ele>206.2</ele>
        <time>2026-05-17T10:19:22.000Z</time>
      </trkpt>
      <trkpt lat="43.65219" lon="3.35721">
        <ele>206.2</ele>
        <time>2026-05-17T10:19:23.000Z</time>
      </trkpt>
      <trkpt lat="43.65219" lon="3.35721">
        <ele>206</ele>
        <time>2026-05-17T10:19:24.000Z</time>
      </trkpt>
      <trkpt lat="43.65219" lon="3.35721">
        <ele>206</ele>
        <time>2026-05-17T10:19:25.000Z</time>
      </trkpt>
      <trkpt lat="43.65219" lon="3.35721">
        <ele>205.9</ele>
        <time>2026-05-17T10:19:26.000Z</time>
      </trkpt>
      <trkpt lat="43.65219" lon="3.35721">
        <ele>205.9</ele>
        <time>2026-05-17T10:19:27.000Z</time>
      </trkpt>
      <trkpt lat="43.65219" lon="3.35721">
        <ele>205.7</ele>
        <time>2026-05-17T10:19:28.000Z</time>
      </trkpt>
      <trkpt lat="43.65219" lon="3.35722">
        <ele>205.9</ele>
        <time>2026-05-17T10:19:29.000Z</time>
      </trkpt>
      <trkpt lat="43.65219" lon="3.35722">
        <ele>206</ele>
        <time>2026-05-17T10:19:30.000Z</time>
      </trkpt>
      <trkpt lat="43.65219" lon="3.35721">
        <ele>206.4</ele>
        <time>2026-05-17T10:19:31.000Z</time>
      </trkpt>
      <trkpt lat="43.65219" lon="3.35721">
        <ele>206.7</ele>
        <time>2026-05-17T10:19:32.000Z</time>
      </trkpt>
      <trkpt lat="43.65218" lon="3.3572">
        <ele>206.7</ele>
        <time>2026-05-17T10:19:33.000Z</time>
      </trkpt>
      <trkpt lat="43.65218" lon="3.35719">
        <ele>206.9</ele>
        <time>2026-05-17T10:19:34.000Z</time>
      </trkpt>
      <trkpt lat="43.65219" lon="3.35718">
        <ele>207.2</ele>
        <time>2026-05-17T10:19:35.000Z</time>
      </trkpt>
      <trkpt lat="43.65219" lon="3.35718">
        <ele>207.4</ele>
        <time>2026-05-17T10:19:36.000Z</time>
      </trkpt>
      <trkpt lat="43.65219" lon="3.35717">
        <ele>207.4</ele>
        <time>2026-05-17T10:19:37.000Z</time>
      </trkpt>
      <trkpt lat="43.65219" lon="3.35718">
        <ele>207.3</ele>
        <time>2026-05-17T10:19:38.000Z</time>
      </trkpt>
      <trkpt lat="43.65219" lon="3.35718">
        <ele>207.2</ele>
        <time>2026-05-17T10:19:39.000Z</time>
      </trkpt>
      <trkpt lat="43.65219" lon="3.35718">
        <ele>207.3</ele>
        <time>2026-05-17T10:19:40.000Z</time>
      </trkpt>
      <trkpt lat="43.65219" lon="3.35719">
        <ele>207.4</ele>
        <time>2026-05-17T10:19:41.000Z</time>
      </trkpt>
      <trkpt lat="43.65218" lon="3.35719">
        <ele>206.8</ele>
        <time>2026-05-17T10:19:42.000Z</time>
      </trkpt>
      <trkpt lat="43.65218" lon="3.35719">
        <ele>206.6</ele>
        <time>2026-05-17T10:19:43.000Z</time>
      </trkpt>
      <trkpt lat="43.65218" lon="3.35719">
        <ele>206.4</ele>
        <time>2026-05-17T10:19:44.000Z</time>
      </trkpt>
      <trkpt lat="43.65218" lon="3.35719">
        <ele>206.4</ele>
        <time>2026-05-17T10:19:45.000Z</time>
      </trkpt>
      <trkpt lat="43.65219" lon="3.35719">
        <ele>206.4</ele>
        <time>2026-05-17T10:19:46.000Z</time>
      </trkpt>
      <trkpt lat="43.65219" lon="3.35719">
        <ele>206.4</ele>
        <time>2026-05-17T10:19:47.000Z</time>
      </trkpt>
      <trkpt lat="43.65219" lon="3.35719">
        <ele>206.3</ele>
        <time>2026-05-17T10:19:48.000Z</time>
      </trkpt>
      <trkpt lat="43.65219" lon="3.35719">
        <ele>206.2</ele>
        <time>2026-05-17T10:19:49.000Z</time>
      </trkpt>
      <trkpt lat="43.65219" lon="3.35719">
        <ele>206.1</ele>
        <time>2026-05-17T10:19:50.000Z</time>
      </trkpt>
      <trkpt lat="43.65219" lon="3.35719">
        <ele>206</ele>
        <time>2026-05-17T10:19:51.000Z</time>
      </trkpt>
      <trkpt lat="43.65219" lon="3.35719">
        <ele>206</ele>
        <time>2026-05-17T10:19:52.000Z</time>
      </trkpt>
      <trkpt lat="43.65219" lon="3.35719">
        <ele>205.9</ele>
        <time>2026-05-17T10:19:53.000Z</time>
      </trkpt>
      <trkpt lat="43.65219" lon="3.35719">
        <ele>205.8</ele>
        <time>2026-05-17T10:19:54.000Z</time>
      </trkpt>
      <trkpt lat="43.65219" lon="3.35719">
        <ele>205.8</ele>
        <time>2026-05-17T10:19:55.000Z</time>
      </trkpt>
      <trkpt lat="43.65219" lon="3.35719">
        <ele>205.8</ele>
        <time>2026-05-17T10:19:56.000Z</time>
      </trkpt>
      <trkpt lat="43.65219" lon="3.35719">
        <ele>205.9</ele>
        <time>2026-05-17T10:19:57.000Z</time>
      </trkpt>
      <trkpt lat="43.65219" lon="3.35719">
        <ele>205.9</ele>
        <time>2026-05-17T10:19:58.000Z</time>
      </trkpt>
      <trkpt lat="43.65219" lon="3.35719">
        <ele>205.8</ele>
        <time>2026-05-17T10:19:59.000Z</time>
      </trkpt>
      <trkpt lat="43.65219" lon="3.35719">
        <ele>205.4</ele>
        <time>2026-05-17T10:20:00.000Z</time>
      </trkpt>
      <trkpt lat="43.65219" lon="3.35719">
        <ele>205</ele>
        <time>2026-05-17T10:20:01.000Z</time>
      </trkpt>
      <trkpt lat="43.65219" lon="3.35719">
        <ele>204.5</ele>
        <time>2026-05-17T10:20:02.000Z</time>
      </trkpt>
      <trkpt lat="43.65219" lon="3.35719">
        <ele>204.1</ele>
        <time>2026-05-17T10:20:03.000Z</time>
      </trkpt>
      <trkpt lat="43.65219" lon="3.35719">
        <ele>203.8</ele>
        <time>2026-05-17T10:20:04.000Z</time>
      </trkpt>
      <trkpt lat="43.65219" lon="3.35719">
        <ele>203.7</ele>
        <time>2026-05-17T10:20:05.000Z</time>
      </trkpt>
      <trkpt lat="43.65219" lon="3.35719">
        <ele>203.6</ele>
        <time>2026-05-17T10:20:06.000Z</time>
      </trkpt>
      <trkpt lat="43.65219" lon="3.35719">
        <ele>203.7</ele>
        <time>2026-05-17T10:20:07.000Z</time>
      </trkpt>
      <trkpt lat="43.65219" lon="3.35719">
        <ele>203.5</ele>
        <time>2026-05-17T10:20:08.000Z</time>
      </trkpt>
      <trkpt lat="43.65219" lon="3.3572">
        <ele>203.5</ele>
        <time>2026-05-17T10:20:09.000Z</time>
      </trkpt>
      <trkpt lat="43.65219" lon="3.3572">
        <ele>203.5</ele>
        <time>2026-05-17T10:20:10.000Z</time>
      </trkpt>
      <trkpt lat="43.65219" lon="3.3572">
        <ele>203.5</ele>
        <time>2026-05-17T10:20:11.000Z</time>
      </trkpt>
      <trkpt lat="43.65219" lon="3.35719">
        <ele>203.5</ele>
        <time>2026-05-17T10:20:12.000Z</time>
      </trkpt>
      <trkpt lat="43.65219" lon="3.35719">
        <ele>203.6</ele>
        <time>2026-05-17T10:20:13.000Z</time>
      </trkpt>
      <trkpt lat="43.65219" lon="3.35719">
        <ele>203.7</ele>
        <time>2026-05-17T10:20:14.000Z</time>
      </trkpt>
      <trkpt lat="43.65219" lon="3.3572">
        <ele>203.9</ele>
        <time>2026-05-17T10:20:15.000Z</time>
      </trkpt>
      <trkpt lat="43.65219" lon="3.3572">
        <ele>204</ele>
        <time>2026-05-17T10:20:16.000Z</time>
      </trkpt>
      <trkpt lat="43.65219" lon="3.3572">
        <ele>204.1</ele>
        <time>2026-05-17T10:20:17.000Z</time>
      </trkpt>
      <trkpt lat="43.65219" lon="3.3572">
        <ele>204.2</ele>
        <time>2026-05-17T10:20:18.000Z</time>
      </trkpt>
      <trkpt lat="43.65219" lon="3.3572">
        <ele>204.2</ele>
        <time>2026-05-17T10:20:19.000Z</time>
      </trkpt>
      <trkpt lat="43.65219" lon="3.3572">
        <ele>204.2</ele>
        <time>2026-05-17T10:20:20.000Z</time>
      </trkpt>
      <trkpt lat="43.65219" lon="3.3572">
        <ele>204.2</ele>
        <time>2026-05-17T10:20:21.000Z</time>
      </trkpt>
      <trkpt lat="43.65219" lon="3.3572">
        <ele>204</ele>
        <time>2026-05-17T10:20:22.000Z</time>
      </trkpt>
      <trkpt lat="43.65219" lon="3.3572">
        <ele>203.9</ele>
        <time>2026-05-17T10:20:23.000Z</time>
      </trkpt>
      <trkpt lat="43.65219" lon="3.3572">
        <ele>203.8</ele>
        <time>2026-05-17T10:20:24.000Z</time>
      </trkpt>
      <trkpt lat="43.65219" lon="3.3572">
        <ele>203.6</ele>
        <time>2026-05-17T10:20:25.000Z</time>
      </trkpt>
      <trkpt lat="43.65219" lon="3.3572">
        <ele>203.4</ele>
        <time>2026-05-17T10:20:26.000Z</time>
      </trkpt>
      <trkpt lat="43.65219" lon="3.3572">
        <ele>203.3</ele>
        <time>2026-05-17T10:20:27.000Z</time>
      </trkpt>
      <trkpt lat="43.65219" lon="3.3572">
        <ele>203.1</ele>
        <time>2026-05-17T10:20:28.000Z</time>
      </trkpt>
      <trkpt lat="43.65219" lon="3.3572">
        <ele>203</ele>
        <time>2026-05-17T10:20:29.000Z</time>
      </trkpt>
      <trkpt lat="43.65219" lon="3.3572">
        <ele>202.8</ele>
        <time>2026-05-17T10:20:30.000Z</time>
      </trkpt>
      <trkpt lat="43.65219" lon="3.3572">
        <ele>202.6</ele>
        <time>2026-05-17T10:20:31.000Z</time>
      </trkpt>
      <trkpt lat="43.65219" lon="3.3572">
        <ele>202.3</ele>
        <time>2026-05-17T10:20:32.000Z</time>
      </trkpt>
      <trkpt lat="43.65219" lon="3.3572">
        <ele>202.2</ele>
        <time>2026-05-17T10:20:33.000Z</time>
      </trkpt>
      <trkpt lat="43.65219" lon="3.3572">
        <ele>202</ele>
        <time>2026-05-17T10:20:34.000Z</time>
      </trkpt>
      <trkpt lat="43.65219" lon="3.3572">
        <ele>201.9</ele>
        <time>2026-05-17T10:20:35.000Z</time>
      </trkpt>
      <trkpt lat="43.65219" lon="3.3572">
        <ele>201.8</ele>
        <time>2026-05-17T10:20:36.000Z</time>
      </trkpt>
      <trkpt lat="43.65219" lon="3.3572">
        <ele>201.7</ele>
        <time>2026-05-17T10:20:37.000Z</time>
      </trkpt>
      <trkpt lat="43.65219" lon="3.3572">
        <ele>201.6</ele>
        <time>2026-05-17T10:20:38.000Z</time>
      </trkpt>
      <trkpt lat="43.65219" lon="3.3572">
        <ele>201.5</ele>
        <time>2026-05-17T10:20:39.000Z</time>
      </trkpt>
      <trkpt lat="43.65219" lon="3.3572">
        <ele>201.5</ele>
        <time>2026-05-17T10:20:40.000Z</time>
      </trkpt>
      <trkpt lat="43.65219" lon="3.3572">
        <ele>201.7</ele>
        <time>2026-05-17T10:20:41.000Z</time>
      </trkpt>
      <trkpt lat="43.65219" lon="3.3572">
        <ele>201.7</ele>
        <time>2026-05-17T10:20:42.000Z</time>
      </trkpt>
      <trkpt lat="43.65219" lon="3.3572">
        <ele>202</ele>
        <time>2026-05-17T10:20:43.000Z</time>
      </trkpt>
      <trkpt lat="43.65219" lon="3.3572">
        <ele>202.1</ele>
        <time>2026-05-17T10:20:44.000Z</time>
      </trkpt>
      <trkpt lat="43.65219" lon="3.3572">
        <ele>202.2</ele>
        <time>2026-05-17T10:20:45.000Z</time>
      </trkpt>
      <trkpt lat="43.65219" lon="3.3572">
        <ele>202.3</ele>
        <time>2026-05-17T10:20:46.000Z</time>
      </trkpt>
      <trkpt lat="43.65219" lon="3.3572">
        <ele>202.3</ele>
        <time>2026-05-17T10:20:47.000Z</time>
      </trkpt>
      <trkpt lat="43.65219" lon="3.3572">
        <ele>202.4</ele>
        <time>2026-05-17T10:20:48.000Z</time>
      </trkpt>
      <trkpt lat="43.65219" lon="3.3572">
        <ele>202.4</ele>
        <time>2026-05-17T10:20:49.000Z</time>
      </trkpt>
      <trkpt lat="43.65219" lon="3.3572">
        <ele>202.3</ele>
        <time>2026-05-17T10:20:50.000Z</time>
      </trkpt>
      <trkpt lat="43.65219" lon="3.3572">
        <ele>202.4</ele>
        <time>2026-05-17T10:20:51.000Z</time>
      </trkpt>
      <trkpt lat="43.65219" lon="3.3572">
        <ele>202.3</ele>
        <time>2026-05-17T10:20:52.000Z</time>
      </trkpt>
      <trkpt lat="43.65219" lon="3.3572">
        <ele>202.2</ele>
        <time>2026-05-17T10:20:53.000Z</time>
      </trkpt>
      <trkpt lat="43.65219" lon="3.3572">
        <ele>202.3</ele>
        <time>2026-05-17T10:20:54.000Z</time>
      </trkpt>
      <trkpt lat="43.65219" lon="3.3572">
        <ele>202.5</ele>
        <time>2026-05-17T10:20:55.000Z</time>
      </trkpt>
      <trkpt lat="43.65219" lon="3.3572">
        <ele>202.8</ele>
        <time>2026-05-17T10:20:56.000Z</time>
      </trkpt>
      <trkpt lat="43.65219" lon="3.3572">
        <ele>203.3</ele>
        <time>2026-05-17T10:20:57.000Z</time>
      </trkpt>
      <trkpt lat="43.65219" lon="3.3572">
        <ele>203.7</ele>
        <time>2026-05-17T10:20:58.000Z</time>
      </trkpt>
      <trkpt lat="43.65219" lon="3.3572">
        <ele>203.9</ele>
        <time>2026-05-17T10:20:59.000Z</time>
      </trkpt>
      <trkpt lat="43.65219" lon="3.3572">
        <ele>203.9</ele>
        <time>2026-05-17T10:21:00.000Z</time>
      </trkpt>
      <trkpt lat="43.65219" lon="3.3572">
        <ele>203.8</ele>
        <time>2026-05-17T10:21:01.000Z</time>
      </trkpt>
      <trkpt lat="43.65219" lon="3.3572">
        <ele>203.8</ele>
        <time>2026-05-17T10:21:02.000Z</time>
      </trkpt>
      <trkpt lat="43.65219" lon="3.3572">
        <ele>203.5</ele>
        <time>2026-05-17T10:21:03.000Z</time>
      </trkpt>
      <trkpt lat="43.65219" lon="3.3572">
        <ele>203.4</ele>
        <time>2026-05-17T10:21:04.000Z</time>
      </trkpt>
      <trkpt lat="43.65219" lon="3.3572">
        <ele>203.1</ele>
        <time>2026-05-17T10:21:05.000Z</time>
      </trkpt>
      <trkpt lat="43.65219" lon="3.3572">
        <ele>203</ele>
        <time>2026-05-17T10:21:06.000Z</time>
      </trkpt>
      <trkpt lat="43.65219" lon="3.3572">
        <ele>203</ele>
        <time>2026-05-17T10:21:07.000Z</time>
      </trkpt>
      <trkpt lat="43.65219" lon="3.3572">
        <ele>202.9</ele>
        <time>2026-05-17T10:21:08.000Z</time>
      </trkpt>
      <trkpt lat="43.65219" lon="3.3572">
        <ele>202.8</ele>
        <time>2026-05-17T10:21:09.000Z</time>
      </trkpt>
      <trkpt lat="43.65219" lon="3.3572">
        <ele>202.5</ele>
        <time>2026-05-17T10:21:10.000Z</time>
      </trkpt>
      <trkpt lat="43.65219" lon="3.3572">
        <ele>202.2</ele>
        <time>2026-05-17T10:21:11.000Z</time>
      </trkpt>
      <trkpt lat="43.65219" lon="3.3572">
        <ele>202</ele>
        <time>2026-05-17T10:21:12.000Z</time>
      </trkpt>
      <trkpt lat="43.65219" lon="3.3572">
        <ele>201.8</ele>
        <time>2026-05-17T10:21:13.000Z</time>
      </trkpt>
      <trkpt lat="43.65219" lon="3.3572">
        <ele>201.5</ele>
        <time>2026-05-17T10:21:14.000Z</time>
      </trkpt>
      <trkpt lat="43.65219" lon="3.3572">
        <ele>201.2</ele>
        <time>2026-05-17T10:21:15.000Z</time>
      </trkpt>
      <trkpt lat="43.65219" lon="3.3572">
        <ele>201.2</ele>
        <time>2026-05-17T10:21:16.000Z</time>
      </trkpt>
      <trkpt lat="43.65219" lon="3.3572">
        <ele>201.4</ele>
        <time>2026-05-17T10:21:17.000Z</time>
      </trkpt>
      <trkpt lat="43.65219" lon="3.3572">
        <ele>201.5</ele>
        <time>2026-05-17T10:21:18.000Z</time>
      </trkpt>
      <trkpt lat="43.65218" lon="3.3572">
        <ele>201.6</ele>
        <time>2026-05-17T10:21:19.000Z</time>
      </trkpt>
      <trkpt lat="43.65218" lon="3.35721">
        <ele>201.6</ele>
        <time>2026-05-17T10:21:20.000Z</time>
      </trkpt>
      <trkpt lat="43.65218" lon="3.35721">
        <ele>201.7</ele>
        <time>2026-05-17T10:21:21.000Z</time>
      </trkpt>
      <trkpt lat="43.65219" lon="3.35721">
        <ele>202</ele>
        <time>2026-05-17T10:21:22.000Z</time>
      </trkpt>
      <trkpt lat="43.65219" lon="3.3572">
        <ele>202.2</ele>
        <time>2026-05-17T10:21:23.000Z</time>
      </trkpt>
      <trkpt lat="43.65219" lon="3.3572">
        <ele>202.5</ele>
        <time>2026-05-17T10:21:24.000Z</time>
      </trkpt>
      <trkpt lat="43.65219" lon="3.3572">
        <ele>202.6</ele>
        <time>2026-05-17T10:21:25.000Z</time>
      </trkpt>
      <trkpt lat="43.65219" lon="3.3572">
        <ele>202.7</ele>
        <time>2026-05-17T10:21:26.000Z</time>
      </trkpt>
      <trkpt lat="43.65219" lon="3.3572">
        <ele>202.8</ele>
        <time>2026-05-17T10:21:27.000Z</time>
      </trkpt>
      <trkpt lat="43.65219" lon="3.3572">
        <ele>202.9</ele>
        <time>2026-05-17T10:21:28.000Z</time>
      </trkpt>
      <trkpt lat="43.65219" lon="3.3572">
        <ele>202.9</ele>
        <time>2026-05-17T10:21:29.000Z</time>
      </trkpt>
      <trkpt lat="43.65219" lon="3.3572">
        <ele>202.9</ele>
        <time>2026-05-17T10:21:30.000Z</time>
      </trkpt>
      <trkpt lat="43.65219" lon="3.3572">
        <ele>202.8</ele>
        <time>2026-05-17T10:21:31.000Z</time>
      </trkpt>
      <trkpt lat="43.65219" lon="3.3572">
        <ele>202.7</ele>
        <time>2026-05-17T10:21:32.000Z</time>
      </trkpt>
      <trkpt lat="43.65219" lon="3.3572">
        <ele>202.6</ele>
        <time>2026-05-17T10:21:33.000Z</time>
      </trkpt>
      <trkpt lat="43.65219" lon="3.3572">
        <ele>202.5</ele>
        <time>2026-05-17T10:21:34.000Z</time>
      </trkpt>
      <trkpt lat="43.65219" lon="3.3572">
        <ele>202.5</ele>
        <time>2026-05-17T10:21:35.000Z</time>
      </trkpt>
      <trkpt lat="43.65219" lon="3.3572">
        <ele>202.6</ele>
        <time>2026-05-17T10:21:36.000Z</time>
      </trkpt>
      <trkpt lat="43.65219" lon="3.3572">
        <ele>202.7</ele>
        <time>2026-05-17T10:21:37.000Z</time>
      </trkpt>
      <trkpt lat="43.65219" lon="3.3572">
        <ele>202.7</ele>
        <time>2026-05-17T10:21:38.000Z</time>
      </trkpt>
      <trkpt lat="43.65219" lon="3.3572">
        <ele>202.8</ele>
        <time>2026-05-17T10:21:39.000Z</time>
      </trkpt>
      <trkpt lat="43.65219" lon="3.3572">
        <ele>202.8</ele>
        <time>2026-05-17T10:21:40.000Z</time>
      </trkpt>
      <trkpt lat="43.65219" lon="3.3572">
        <ele>203</ele>
        <time>2026-05-17T10:21:41.000Z</time>
      </trkpt>
      <trkpt lat="43.65219" lon="3.3572">
        <ele>203</ele>
        <time>2026-05-17T10:21:42.000Z</time>
      </trkpt>
      <trkpt lat="43.65219" lon="3.3572">
        <ele>203</ele>
        <time>2026-05-17T10:21:43.000Z</time>
      </trkpt>
      <trkpt lat="43.65219" lon="3.3572">
        <ele>203</ele>
        <time>2026-05-17T10:21:44.000Z</time>
      </trkpt>
      <trkpt lat="43.65218" lon="3.3572">
        <ele>203.2</ele>
        <time>2026-05-17T10:21:45.000Z</time>
      </trkpt>
      <trkpt lat="43.65218" lon="3.3572">
        <ele>203.4</ele>
        <time>2026-05-17T10:21:46.000Z</time>
      </trkpt>
      <trkpt lat="43.65218" lon="3.3572">
        <ele>203.6</ele>
        <time>2026-05-17T10:21:47.000Z</time>
      </trkpt>
      <trkpt lat="43.65218" lon="3.3572">
        <ele>203.6</ele>
        <time>2026-05-17T10:21:48.000Z</time>
      </trkpt>
      <trkpt lat="43.65218" lon="3.3572">
        <ele>203.6</ele>
        <time>2026-05-17T10:21:49.000Z</time>
      </trkpt>
      <trkpt lat="43.65218" lon="3.3572">
        <ele>204</ele>
        <time>2026-05-17T10:21:50.000Z</time>
      </trkpt>
      <trkpt lat="43.65218" lon="3.3572">
        <ele>203.9</ele>
        <time>2026-05-17T10:21:51.000Z</time>
      </trkpt>
      <trkpt lat="43.65218" lon="3.35721">
        <ele>204</ele>
        <time>2026-05-17T10:21:52.000Z</time>
      </trkpt>
      <trkpt lat="43.65218" lon="3.35721">
        <ele>204.1</ele>
        <time>2026-05-17T10:21:53.000Z</time>
      </trkpt>
      <trkpt lat="43.65218" lon="3.35721">
        <ele>203.9</ele>
        <time>2026-05-17T10:21:54.000Z</time>
      </trkpt>
      <trkpt lat="43.65219" lon="3.35721">
        <ele>203.9</ele>
        <time>2026-05-17T10:21:55.000Z</time>
      </trkpt>
      <trkpt lat="43.65218" lon="3.35722">
        <ele>203.9</ele>
        <time>2026-05-17T10:21:56.000Z</time>
      </trkpt>
      <trkpt lat="43.65218" lon="3.35723">
        <ele>204</ele>
        <time>2026-05-17T10:21:57.000Z</time>
      </trkpt>
      <trkpt lat="43.65218" lon="3.35725">
        <ele>204.3</ele>
        <time>2026-05-17T10:21:58.000Z</time>
      </trkpt>
      <trkpt lat="43.65218" lon="3.35726">
        <ele>204.5</ele>
        <time>2026-05-17T10:21:59.000Z</time>
      </trkpt>
      <trkpt lat="43.65218" lon="3.35728">
        <ele>204.5</ele>
        <time>2026-05-17T10:22:00.000Z</time>
      </trkpt>
      <trkpt lat="43.65219" lon="3.35729">
        <ele>204.4</ele>
        <time>2026-05-17T10:22:01.000Z</time>
      </trkpt>
      <trkpt lat="43.65219" lon="3.35731">
        <ele>204.3</ele>
        <time>2026-05-17T10:22:02.000Z</time>
      </trkpt>
      <trkpt lat="43.65219" lon="3.35733">
        <ele>204.3</ele>
        <time>2026-05-17T10:22:03.000Z</time>
      </trkpt>
      <trkpt lat="43.65219" lon="3.35734">
        <ele>204</ele>
        <time>2026-05-17T10:22:04.000Z</time>
      </trkpt>
      <trkpt lat="43.65219" lon="3.35736">
        <ele>203.8</ele>
        <time>2026-05-17T10:22:05.000Z</time>
      </trkpt>
      <trkpt lat="43.65219" lon="3.35737">
        <ele>203.8</ele>
        <time>2026-05-17T10:22:06.000Z</time>
      </trkpt>
      <trkpt lat="43.65219" lon="3.35738">
        <ele>203.7</ele>
        <time>2026-05-17T10:22:07.000Z</time>
      </trkpt>
      <trkpt lat="43.65219" lon="3.35739">
        <ele>203.8</ele>
        <time>2026-05-17T10:22:08.000Z</time>
      </trkpt>
      <trkpt lat="43.65219" lon="3.35739">
        <ele>203.8</ele>
        <time>2026-05-17T10:22:09.000Z</time>
      </trkpt>
      <trkpt lat="43.6522" lon="3.3574">
        <ele>204</ele>
        <time>2026-05-17T10:22:10.000Z</time>
      </trkpt>
      <trkpt lat="43.6522" lon="3.35741">
        <ele>204.1</ele>
        <time>2026-05-17T10:22:11.000Z</time>
      </trkpt>
      <trkpt lat="43.6522" lon="3.35741">
        <ele>204.1</ele>
        <time>2026-05-17T10:22:12.000Z</time>
      </trkpt>
      <trkpt lat="43.6522" lon="3.35742">
        <ele>204</ele>
        <time>2026-05-17T10:22:13.000Z</time>
      </trkpt>
      <trkpt lat="43.6522" lon="3.35743">
        <ele>203.9</ele>
        <time>2026-05-17T10:22:14.000Z</time>
      </trkpt>
      <trkpt lat="43.6522" lon="3.35743">
        <ele>204.1</ele>
        <time>2026-05-17T10:22:15.000Z</time>
      </trkpt>
      <trkpt lat="43.6522" lon="3.35744">
        <ele>204</ele>
        <time>2026-05-17T10:22:16.000Z</time>
      </trkpt>
      <trkpt lat="43.6522" lon="3.35745">
        <ele>204.1</ele>
        <time>2026-05-17T10:22:17.000Z</time>
      </trkpt>
      <trkpt lat="43.65219" lon="3.35745">
        <ele>204</ele>
        <time>2026-05-17T10:22:18.000Z</time>
      </trkpt>
      <trkpt lat="43.65219" lon="3.35746">
        <ele>204</ele>
        <time>2026-05-17T10:22:19.000Z</time>
      </trkpt>
      <trkpt lat="43.65219" lon="3.35747">
        <ele>204</ele>
        <time>2026-05-17T10:22:20.000Z</time>
      </trkpt>
      <trkpt lat="43.65219" lon="3.35749">
        <ele>204</ele>
        <time>2026-05-17T10:22:21.000Z</time>
      </trkpt>
      <trkpt lat="43.65218" lon="3.3575">
        <ele>204</ele>
        <time>2026-05-17T10:22:22.000Z</time>
      </trkpt>
      <trkpt lat="43.65218" lon="3.35751">
        <ele>203.9</ele>
        <time>2026-05-17T10:22:23.000Z</time>
      </trkpt>
      <trkpt lat="43.65218" lon="3.35751">
        <ele>204</ele>
        <time>2026-05-17T10:22:24.000Z</time>
      </trkpt>
      <trkpt lat="43.65218" lon="3.35752">
        <ele>204</ele>
        <time>2026-05-17T10:22:25.000Z</time>
      </trkpt>
      <trkpt lat="43.65218" lon="3.35753">
        <ele>204.1</ele>
        <time>2026-05-17T10:22:26.000Z</time>
      </trkpt>
      <trkpt lat="43.65218" lon="3.35753">
        <ele>203.9</ele>
        <time>2026-05-17T10:22:27.000Z</time>
      </trkpt>
      <trkpt lat="43.65218" lon="3.35754">
        <ele>203.9</ele>
        <time>2026-05-17T10:22:28.000Z</time>
      </trkpt>
      <trkpt lat="43.65218" lon="3.35754">
        <ele>203.8</ele>
        <time>2026-05-17T10:22:29.000Z</time>
      </trkpt>
      <trkpt lat="43.65218" lon="3.35754">
        <ele>203.9</ele>
        <time>2026-05-17T10:22:30.000Z</time>
      </trkpt>
      <trkpt lat="43.65218" lon="3.35755">
        <ele>204.1</ele>
        <time>2026-05-17T10:22:31.000Z</time>
      </trkpt>
      <trkpt lat="43.65218" lon="3.35756">
        <ele>204.4</ele>
        <time>2026-05-17T10:22:32.000Z</time>
      </trkpt>
      <trkpt lat="43.65218" lon="3.35757">
        <ele>204.6</ele>
        <time>2026-05-17T10:22:33.000Z</time>
      </trkpt>
      <trkpt lat="43.65218" lon="3.35758">
        <ele>205.1</ele>
        <time>2026-05-17T10:22:34.000Z</time>
      </trkpt>
      <trkpt lat="43.65218" lon="3.35758">
        <ele>205.3</ele>
        <time>2026-05-17T10:22:35.000Z</time>
      </trkpt>
      <trkpt lat="43.65218" lon="3.35759">
        <ele>205.7</ele>
        <time>2026-05-17T10:22:36.000Z</time>
      </trkpt>
      <trkpt lat="43.65219" lon="3.35759">
        <ele>205.8</ele>
        <time>2026-05-17T10:22:37.000Z</time>
      </trkpt>
      <trkpt lat="43.65219" lon="3.3576">
        <ele>205.7</ele>
        <time>2026-05-17T10:22:38.000Z</time>
      </trkpt>
      <trkpt lat="43.65219" lon="3.35761">
        <ele>205.9</ele>
        <time>2026-05-17T10:22:39.000Z</time>
      </trkpt>
      <trkpt lat="43.65219" lon="3.35762">
        <ele>206</ele>
        <time>2026-05-17T10:22:40.000Z</time>
      </trkpt>
      <trkpt lat="43.65218" lon="3.35762">
        <ele>206.1</ele>
        <time>2026-05-17T10:22:41.000Z</time>
      </trkpt>
      <trkpt lat="43.65219" lon="3.35763">
        <ele>206.2</ele>
        <time>2026-05-17T10:22:42.000Z</time>
      </trkpt>
      <trkpt lat="43.65219" lon="3.35763">
        <ele>206</ele>
        <time>2026-05-17T10:22:43.000Z</time>
      </trkpt>
      <trkpt lat="43.65219" lon="3.35765">
        <ele>206.4</ele>
        <time>2026-05-17T10:22:44.000Z</time>
      </trkpt>
      <trkpt lat="43.6522" lon="3.35766">
        <ele>206.9</ele>
        <time>2026-05-17T10:22:45.000Z</time>
      </trkpt>
      <trkpt lat="43.6522" lon="3.35768">
        <ele>207.1</ele>
        <time>2026-05-17T10:22:46.000Z</time>
      </trkpt>
      <trkpt lat="43.6522" lon="3.35768">
        <ele>207.3</ele>
        <time>2026-05-17T10:22:47.000Z</time>
      </trkpt>
      <trkpt lat="43.6522" lon="3.35769">
        <ele>207.6</ele>
        <time>2026-05-17T10:22:48.000Z</time>
      </trkpt>
      <trkpt lat="43.6522" lon="3.35769">
        <ele>207.9</ele>
        <time>2026-05-17T10:22:49.000Z</time>
      </trkpt>
      <trkpt lat="43.6522" lon="3.35769">
        <ele>208</ele>
        <time>2026-05-17T10:22:50.000Z</time>
      </trkpt>
      <trkpt lat="43.6522" lon="3.3577">
        <ele>208.3</ele>
        <time>2026-05-17T10:22:51.000Z</time>
      </trkpt>
      <trkpt lat="43.6522" lon="3.35771">
        <ele>208.5</ele>
        <time>2026-05-17T10:22:52.000Z</time>
      </trkpt>
      <trkpt lat="43.65221" lon="3.35771">
        <ele>208.5</ele>
        <time>2026-05-17T10:22:53.000Z</time>
      </trkpt>
      <trkpt lat="43.65221" lon="3.35771">
        <ele>208.7</ele>
        <time>2026-05-17T10:22:54.000Z</time>
      </trkpt>
      <trkpt lat="43.65221" lon="3.35771">
        <ele>209.2</ele>
        <time>2026-05-17T10:22:55.000Z</time>
      </trkpt>
      <trkpt lat="43.65221" lon="3.3577">
        <ele>209.5</ele>
        <time>2026-05-17T10:22:56.000Z</time>
      </trkpt>
      <trkpt lat="43.65222" lon="3.35768">
        <ele>210</ele>
        <time>2026-05-17T10:22:57.000Z</time>
      </trkpt>
      <trkpt lat="43.65222" lon="3.35768">
        <ele>210.6</ele>
        <time>2026-05-17T10:22:58.000Z</time>
      </trkpt>
      <trkpt lat="43.65223" lon="3.3577">
        <ele>210.4</ele>
        <time>2026-05-17T10:22:59.000Z</time>
      </trkpt>
      <trkpt lat="43.65223" lon="3.35772">
        <ele>209.4</ele>
        <time>2026-05-17T10:23:00.000Z</time>
      </trkpt>
      <trkpt lat="43.65223" lon="3.35774">
        <ele>209.6</ele>
        <time>2026-05-17T10:23:01.000Z</time>
      </trkpt>
      <trkpt lat="43.65223" lon="3.35777">
        <ele>209.5</ele>
        <time>2026-05-17T10:23:02.000Z</time>
      </trkpt>
      <trkpt lat="43.65222" lon="3.35779">
        <ele>209.1</ele>
        <time>2026-05-17T10:23:03.000Z</time>
      </trkpt>
      <trkpt lat="43.65222" lon="3.35779">
        <ele>209.6</ele>
        <time>2026-05-17T10:23:04.000Z</time>
      </trkpt>
      <trkpt lat="43.65222" lon="3.3578">
        <ele>209.8</ele>
        <time>2026-05-17T10:23:05.000Z</time>
      </trkpt>
      <trkpt lat="43.65221" lon="3.3578">
        <ele>209.6</ele>
        <time>2026-05-17T10:23:06.000Z</time>
      </trkpt>
      <trkpt lat="43.6522" lon="3.35782">
        <ele>210</ele>
        <time>2026-05-17T10:23:07.000Z</time>
      </trkpt>
      <trkpt lat="43.6522" lon="3.35783">
        <ele>210.8</ele>
        <time>2026-05-17T10:23:08.000Z</time>
      </trkpt>
      <trkpt lat="43.6522" lon="3.35785">
        <ele>211.3</ele>
        <time>2026-05-17T10:23:09.000Z</time>
      </trkpt>
      <trkpt lat="43.6522" lon="3.35786">
        <ele>211</ele>
        <time>2026-05-17T10:23:10.000Z</time>
      </trkpt>
      <trkpt lat="43.6522" lon="3.35787">
        <ele>210.9</ele>
        <time>2026-05-17T10:23:11.000Z</time>
      </trkpt>
      <trkpt lat="43.65219" lon="3.35788">
        <ele>211.2</ele>
        <time>2026-05-17T10:23:12.000Z</time>
      </trkpt>
      <trkpt lat="43.65219" lon="3.3579">
        <ele>211.6</ele>
        <time>2026-05-17T10:23:13.000Z</time>
      </trkpt>
      <trkpt lat="43.65218" lon="3.35791">
        <ele>212.1</ele>
        <time>2026-05-17T10:23:14.000Z</time>
      </trkpt>
      <trkpt lat="43.65218" lon="3.35791">
        <ele>212.6</ele>
        <time>2026-05-17T10:23:15.000Z</time>
      </trkpt>
      <trkpt lat="43.65219" lon="3.3579">
        <ele>211.9</ele>
        <time>2026-05-17T10:23:16.000Z</time>
      </trkpt>
      <trkpt lat="43.65218" lon="3.3579">
        <ele>211.8</ele>
        <time>2026-05-17T10:23:17.000Z</time>
      </trkpt>
      <trkpt lat="43.65218" lon="3.35789">
        <ele>211.8</ele>
        <time>2026-05-17T10:23:18.000Z</time>
      </trkpt>
      <trkpt lat="43.65219" lon="3.35789">
        <ele>210.1</ele>
        <time>2026-05-17T10:23:19.000Z</time>
      </trkpt>
      <trkpt lat="43.65219" lon="3.35789">
        <ele>210.5</ele>
        <time>2026-05-17T10:23:20.000Z</time>
      </trkpt>
      <trkpt lat="43.65218" lon="3.35789">
        <ele>211.1</ele>
        <time>2026-05-17T10:23:21.000Z</time>
      </trkpt>
      <trkpt lat="43.65219" lon="3.3579">
        <ele>211.5</ele>
        <time>2026-05-17T10:23:22.000Z</time>
      </trkpt>
      <trkpt lat="43.65218" lon="3.3579">
        <ele>211.8</ele>
        <time>2026-05-17T10:23:23.000Z</time>
      </trkpt>
      <trkpt lat="43.65218" lon="3.35791">
        <ele>211.9</ele>
        <time>2026-05-17T10:23:24.000Z</time>
      </trkpt>
      <trkpt lat="43.65218" lon="3.35791">
        <ele>212</ele>
        <time>2026-05-17T10:23:25.000Z</time>
      </trkpt>
      <trkpt lat="43.65218" lon="3.3579">
        <ele>212.1</ele>
        <time>2026-05-17T10:23:26.000Z</time>
      </trkpt>
      <trkpt lat="43.65218" lon="3.3579">
        <ele>212.4</ele>
        <time>2026-05-17T10:23:27.000Z</time>
      </trkpt>
      <trkpt lat="43.65218" lon="3.3579">
        <ele>212.8</ele>
        <time>2026-05-17T10:23:28.000Z</time>
      </trkpt>
      <trkpt lat="43.65218" lon="3.3579">
        <ele>212.9</ele>
        <time>2026-05-17T10:23:29.000Z</time>
      </trkpt>
      <trkpt lat="43.65218" lon="3.35791">
        <ele>213.2</ele>
        <time>2026-05-17T10:23:30.000Z</time>
      </trkpt>
      <trkpt lat="43.65218" lon="3.35791">
        <ele>213.4</ele>
        <time>2026-05-17T10:23:31.000Z</time>
      </trkpt>
      <trkpt lat="43.65218" lon="3.35791">
        <ele>213.5</ele>
        <time>2026-05-17T10:23:32.000Z</time>
      </trkpt>
      <trkpt lat="43.65218" lon="3.35791">
        <ele>213.9</ele>
        <time>2026-05-17T10:23:33.000Z</time>
      </trkpt>
      <trkpt lat="43.65218" lon="3.35791">
        <ele>213.8</ele>
        <time>2026-05-17T10:23:34.000Z</time>
      </trkpt>
      <trkpt lat="43.65218" lon="3.35791">
        <ele>213.9</ele>
        <time>2026-05-17T10:23:35.000Z</time>
      </trkpt>
      <trkpt lat="43.65218" lon="3.35791">
        <ele>214.1</ele>
        <time>2026-05-17T10:23:36.000Z</time>
      </trkpt>
      <trkpt lat="43.65218" lon="3.35791">
        <ele>214.4</ele>
        <time>2026-05-17T10:23:37.000Z</time>
      </trkpt>
      <trkpt lat="43.65218" lon="3.35791">
        <ele>215</ele>
        <time>2026-05-17T10:23:38.000Z</time>
      </trkpt>
      <trkpt lat="43.65218" lon="3.35791">
        <ele>215.3</ele>
        <time>2026-05-17T10:23:39.000Z</time>
      </trkpt>
      <trkpt lat="43.65218" lon="3.35791">
        <ele>213.8</ele>
        <time>2026-05-17T10:23:40.000Z</time>
      </trkpt>
      <trkpt lat="43.65219" lon="3.35791">
        <ele>214</ele>
        <time>2026-05-17T10:23:41.000Z</time>
      </trkpt>
      <trkpt lat="43.65219" lon="3.35792">
        <ele>214.1</ele>
        <time>2026-05-17T10:23:42.000Z</time>
      </trkpt>
      <trkpt lat="43.65219" lon="3.35792">
        <ele>214.4</ele>
        <time>2026-05-17T10:23:43.000Z</time>
      </trkpt>
      <trkpt lat="43.6522" lon="3.35792">
        <ele>214.6</ele>
        <time>2026-05-17T10:23:44.000Z</time>
      </trkpt>
      <trkpt lat="43.6522" lon="3.35792">
        <ele>214.5</ele>
        <time>2026-05-17T10:23:45.000Z</time>
      </trkpt>
      <trkpt lat="43.65221" lon="3.35793">
        <ele>214.5</ele>
        <time>2026-05-17T10:23:46.000Z</time>
      </trkpt>
      <trkpt lat="43.65221" lon="3.35793">
        <ele>214.6</ele>
        <time>2026-05-17T10:23:47.000Z</time>
      </trkpt>
      <trkpt lat="43.65221" lon="3.35794">
        <ele>215</ele>
        <time>2026-05-17T10:23:48.000Z</time>
      </trkpt>
      <trkpt lat="43.65221" lon="3.35794">
        <ele>214.9</ele>
        <time>2026-05-17T10:23:49.000Z</time>
      </trkpt>
      <trkpt lat="43.65221" lon="3.35795">
        <ele>214.7</ele>
        <time>2026-05-17T10:23:50.000Z</time>
      </trkpt>
      <trkpt lat="43.65221" lon="3.35796">
        <ele>214.4</ele>
        <time>2026-05-17T10:23:51.000Z</time>
      </trkpt>
      <trkpt lat="43.6522" lon="3.35798">
        <ele>214.1</ele>
        <time>2026-05-17T10:23:52.000Z</time>
      </trkpt>
      <trkpt lat="43.65219" lon="3.358">
        <ele>214.1</ele>
        <time>2026-05-17T10:23:53.000Z</time>
      </trkpt>
      <trkpt lat="43.65219" lon="3.35803">
        <ele>214.1</ele>
        <time>2026-05-17T10:23:54.000Z</time>
      </trkpt>
      <trkpt lat="43.65218" lon="3.35804">
        <ele>214.4</ele>
        <time>2026-05-17T10:23:55.000Z</time>
      </trkpt>
      <trkpt lat="43.65218" lon="3.35805">
        <ele>214.6</ele>
        <time>2026-05-17T10:23:56.000Z</time>
      </trkpt>
      <trkpt lat="43.65218" lon="3.35806">
        <ele>214.8</ele>
        <time>2026-05-17T10:23:57.000Z</time>
      </trkpt>
      <trkpt lat="43.65218" lon="3.35806">
        <ele>214.8</ele>
        <time>2026-05-17T10:23:58.000Z</time>
      </trkpt>
      <trkpt lat="43.65218" lon="3.35807">
        <ele>214.8</ele>
        <time>2026-05-17T10:23:59.000Z</time>
      </trkpt>
      <trkpt lat="43.65216" lon="3.35808">
        <ele>214.8</ele>
        <time>2026-05-17T10:24:00.000Z</time>
      </trkpt>
      <trkpt lat="43.65218" lon="3.3581">
        <ele>215</ele>
        <time>2026-05-17T10:24:01.000Z</time>
      </trkpt>
      <trkpt lat="43.65218" lon="3.35812">
        <ele>215.1</ele>
        <time>2026-05-17T10:24:02.000Z</time>
      </trkpt>
      <trkpt lat="43.65219" lon="3.35812">
        <ele>215.1</ele>
        <time>2026-05-17T10:24:03.000Z</time>
      </trkpt>
      <trkpt lat="43.65218" lon="3.35812">
        <ele>215</ele>
        <time>2026-05-17T10:24:04.000Z</time>
      </trkpt>
      <trkpt lat="43.65218" lon="3.35814">
        <ele>215.4</ele>
        <time>2026-05-17T10:24:05.000Z</time>
      </trkpt>
      <trkpt lat="43.65219" lon="3.35814">
        <ele>215.5</ele>
        <time>2026-05-17T10:24:06.000Z</time>
      </trkpt>
      <trkpt lat="43.65219" lon="3.35815">
        <ele>215.5</ele>
        <time>2026-05-17T10:24:07.000Z</time>
      </trkpt>
      <trkpt lat="43.65219" lon="3.35815">
        <ele>216.3</ele>
        <time>2026-05-17T10:24:08.000Z</time>
      </trkpt>
      <trkpt lat="43.65219" lon="3.35816">
        <ele>216.5</ele>
        <time>2026-05-17T10:24:09.000Z</time>
      </trkpt>
      <trkpt lat="43.65219" lon="3.35816">
        <ele>216.6</ele>
        <time>2026-05-17T10:24:10.000Z</time>
      </trkpt>
      <trkpt lat="43.6522" lon="3.35816">
        <ele>216.7</ele>
        <time>2026-05-17T10:24:11.000Z</time>
      </trkpt>
      <trkpt lat="43.6522" lon="3.35815">
        <ele>216.6</ele>
        <time>2026-05-17T10:24:12.000Z</time>
      </trkpt>
      <trkpt lat="43.6522" lon="3.35815">
        <ele>216.6</ele>
        <time>2026-05-17T10:24:13.000Z</time>
      </trkpt>
      <trkpt lat="43.65221" lon="3.35815">
        <ele>216.6</ele>
        <time>2026-05-17T10:24:14.000Z</time>
      </trkpt>
      <trkpt lat="43.65221" lon="3.35815">
        <ele>216.7</ele>
        <time>2026-05-17T10:24:15.000Z</time>
      </trkpt>
      <trkpt lat="43.65221" lon="3.35815">
        <ele>217</ele>
        <time>2026-05-17T10:24:16.000Z</time>
      </trkpt>
      <trkpt lat="43.65222" lon="3.35816">
        <ele>217</ele>
        <time>2026-05-17T10:24:17.000Z</time>
      </trkpt>
      <trkpt lat="43.65223" lon="3.35812">
        <ele>218.5</ele>
        <time>2026-05-17T10:24:18.000Z</time>
      </trkpt>
      <trkpt lat="43.65223" lon="3.35812">
        <ele>218.9</ele>
        <time>2026-05-17T10:24:19.000Z</time>
      </trkpt>
      <trkpt lat="43.65223" lon="3.35812">
        <ele>219.8</ele>
        <time>2026-05-17T10:24:20.000Z</time>
      </trkpt>
      <trkpt lat="43.65224" lon="3.35811">
        <ele>220.7</ele>
        <time>2026-05-17T10:24:21.000Z</time>
      </trkpt>
      <trkpt lat="43.65224" lon="3.3581">
        <ele>221.6</ele>
        <time>2026-05-17T10:24:22.000Z</time>
      </trkpt>
      <trkpt lat="43.65224" lon="3.3581">
        <ele>221.6</ele>
        <time>2026-05-17T10:24:23.000Z</time>
      </trkpt>
      <trkpt lat="43.65225" lon="3.35811">
        <ele>221.5</ele>
        <time>2026-05-17T10:24:24.000Z</time>
      </trkpt>
      <trkpt lat="43.65225" lon="3.3581">
        <ele>221.8</ele>
        <time>2026-05-17T10:24:25.000Z</time>
      </trkpt>
      <trkpt lat="43.65225" lon="3.3581">
        <ele>222.9</ele>
        <time>2026-05-17T10:24:26.000Z</time>
      </trkpt>
      <trkpt lat="43.65225" lon="3.35809">
        <ele>222.9</ele>
        <time>2026-05-17T10:24:27.000Z</time>
      </trkpt>
      <trkpt lat="43.65226" lon="3.35808">
        <ele>223</ele>
        <time>2026-05-17T10:24:28.000Z</time>
      </trkpt>
      <trkpt lat="43.65226" lon="3.35807">
        <ele>222.7</ele>
        <time>2026-05-17T10:24:29.000Z</time>
      </trkpt>
      <trkpt lat="43.65226" lon="3.35806">
        <ele>222.8</ele>
        <time>2026-05-17T10:24:30.000Z</time>
      </trkpt>
      <trkpt lat="43.65227" lon="3.35805">
        <ele>222.8</ele>
        <time>2026-05-17T10:24:31.000Z</time>
      </trkpt>
      <trkpt lat="43.65227" lon="3.35805">
        <ele>222.9</ele>
        <time>2026-05-17T10:24:32.000Z</time>
      </trkpt>
      <trkpt lat="43.65227" lon="3.35805">
        <ele>223.4</ele>
        <time>2026-05-17T10:24:33.000Z</time>
      </trkpt>
      <trkpt lat="43.65227" lon="3.35806">
        <ele>223.7</ele>
        <time>2026-05-17T10:24:34.000Z</time>
      </trkpt>
      <trkpt lat="43.65227" lon="3.35806">
        <ele>223.9</ele>
        <time>2026-05-17T10:24:35.000Z</time>
      </trkpt>
      <trkpt lat="43.65227" lon="3.35806">
        <ele>223.9</ele>
        <time>2026-05-17T10:24:36.000Z</time>
      </trkpt>
      <trkpt lat="43.65228" lon="3.35806">
        <ele>223.9</ele>
        <time>2026-05-17T10:24:37.000Z</time>
      </trkpt>
      <trkpt lat="43.65228" lon="3.35807">
        <ele>223.8</ele>
        <time>2026-05-17T10:24:38.000Z</time>
      </trkpt>
      <trkpt lat="43.65228" lon="3.35807">
        <ele>223.6</ele>
        <time>2026-05-17T10:24:39.000Z</time>
      </trkpt>
      <trkpt lat="43.65229" lon="3.35808">
        <ele>223.6</ele>
        <time>2026-05-17T10:24:40.000Z</time>
      </trkpt>
      <trkpt lat="43.65229" lon="3.35809">
        <ele>223.7</ele>
        <time>2026-05-17T10:24:41.000Z</time>
      </trkpt>
      <trkpt lat="43.65229" lon="3.35809">
        <ele>223.6</ele>
        <time>2026-05-17T10:24:42.000Z</time>
      </trkpt>
      <trkpt lat="43.6523" lon="3.3581">
        <ele>223.5</ele>
        <time>2026-05-17T10:24:43.000Z</time>
      </trkpt>
      <trkpt lat="43.6523" lon="3.3581">
        <ele>223.6</ele>
        <time>2026-05-17T10:24:44.000Z</time>
      </trkpt>
      <trkpt lat="43.65231" lon="3.3581">
        <ele>223.8</ele>
        <time>2026-05-17T10:24:45.000Z</time>
      </trkpt>
      <trkpt lat="43.65231" lon="3.35811">
        <ele>223.8</ele>
        <time>2026-05-17T10:24:46.000Z</time>
      </trkpt>
      <trkpt lat="43.65231" lon="3.35811">
        <ele>223.7</ele>
        <time>2026-05-17T10:24:47.000Z</time>
      </trkpt>
      <trkpt lat="43.65231" lon="3.35811">
        <ele>223.9</ele>
        <time>2026-05-17T10:24:48.000Z</time>
      </trkpt>
      <trkpt lat="43.65231" lon="3.35811">
        <ele>224</ele>
        <time>2026-05-17T10:24:49.000Z</time>
      </trkpt>
      <trkpt lat="43.65231" lon="3.35811">
        <ele>224.2</ele>
        <time>2026-05-17T10:24:50.000Z</time>
      </trkpt>
      <trkpt lat="43.65231" lon="3.3581">
        <ele>224.2</ele>
        <time>2026-05-17T10:24:51.000Z</time>
      </trkpt>
      <trkpt lat="43.65232" lon="3.3581">
        <ele>224.2</ele>
        <time>2026-05-17T10:24:52.000Z</time>
      </trkpt>
      <trkpt lat="43.65233" lon="3.3581">
        <ele>224.3</ele>
        <time>2026-05-17T10:24:53.000Z</time>
      </trkpt>
      <trkpt lat="43.65234" lon="3.35809">
        <ele>224.3</ele>
        <time>2026-05-17T10:24:54.000Z</time>
      </trkpt>
      <trkpt lat="43.65236" lon="3.35809">
        <ele>224.4</ele>
        <time>2026-05-17T10:24:55.000Z</time>
      </trkpt>
      <trkpt lat="43.65236" lon="3.35809">
        <ele>224.4</ele>
        <time>2026-05-17T10:24:56.000Z</time>
      </trkpt>
      <trkpt lat="43.65237" lon="3.35809">
        <ele>224.5</ele>
        <time>2026-05-17T10:24:57.000Z</time>
      </trkpt>
      <trkpt lat="43.65237" lon="3.35809">
        <ele>224.6</ele>
        <time>2026-05-17T10:24:58.000Z</time>
      </trkpt>
      <trkpt lat="43.65237" lon="3.35809">
        <ele>224.6</ele>
        <time>2026-05-17T10:24:59.000Z</time>
      </trkpt>
      <trkpt lat="43.65238" lon="3.3581">
        <ele>224.9</ele>
        <time>2026-05-17T10:25:00.000Z</time>
      </trkpt>
      <trkpt lat="43.65238" lon="3.35809">
        <ele>225.1</ele>
        <time>2026-05-17T10:25:01.000Z</time>
      </trkpt>
      <trkpt lat="43.65239" lon="3.35809">
        <ele>225.3</ele>
        <time>2026-05-17T10:25:02.000Z</time>
      </trkpt>
      <trkpt lat="43.65239" lon="3.35809">
        <ele>225.5</ele>
        <time>2026-05-17T10:25:03.000Z</time>
      </trkpt>
      <trkpt lat="43.65239" lon="3.35809">
        <ele>225.7</ele>
        <time>2026-05-17T10:25:04.000Z</time>
      </trkpt>
      <trkpt lat="43.65239" lon="3.35809">
        <ele>225.9</ele>
        <time>2026-05-17T10:25:05.000Z</time>
      </trkpt>
      <trkpt lat="43.65239" lon="3.35809">
        <ele>226</ele>
        <time>2026-05-17T10:25:06.000Z</time>
      </trkpt>
      <trkpt lat="43.65239" lon="3.35809">
        <ele>226</ele>
        <time>2026-05-17T10:25:07.000Z</time>
      </trkpt>
      <trkpt lat="43.65239" lon="3.35809">
        <ele>226.3</ele>
        <time>2026-05-17T10:25:08.000Z</time>
      </trkpt>
      <trkpt lat="43.65239" lon="3.35809">
        <ele>226.4</ele>
        <time>2026-05-17T10:25:09.000Z</time>
      </trkpt>
      <trkpt lat="43.6524" lon="3.35809">
        <ele>226.7</ele>
        <time>2026-05-17T10:25:10.000Z</time>
      </trkpt>
      <trkpt lat="43.65241" lon="3.35809">
        <ele>226.6</ele>
        <time>2026-05-17T10:25:11.000Z</time>
      </trkpt>
      <trkpt lat="43.65241" lon="3.3581">
        <ele>226.5</ele>
        <time>2026-05-17T10:25:12.000Z</time>
      </trkpt>
      <trkpt lat="43.65242" lon="3.3581">
        <ele>226.3</ele>
        <time>2026-05-17T10:25:13.000Z</time>
      </trkpt>
      <trkpt lat="43.65243" lon="3.3581">
        <ele>226.2</ele>
        <time>2026-05-17T10:25:14.000Z</time>
      </trkpt>
      <trkpt lat="43.65244" lon="3.35811">
        <ele>226.3</ele>
        <time>2026-05-17T10:25:15.000Z</time>
      </trkpt>
      <trkpt lat="43.65245" lon="3.35811">
        <ele>226.1</ele>
        <time>2026-05-17T10:25:16.000Z</time>
      </trkpt>
      <trkpt lat="43.65246" lon="3.3581">
        <ele>226</ele>
        <time>2026-05-17T10:25:17.000Z</time>
      </trkpt>
      <trkpt lat="43.65248" lon="3.3581">
        <ele>226.2</ele>
        <time>2026-05-17T10:25:18.000Z</time>
      </trkpt>
      <trkpt lat="43.65249" lon="3.3581">
        <ele>226.4</ele>
        <time>2026-05-17T10:25:19.000Z</time>
      </trkpt>
      <trkpt lat="43.65249" lon="3.35811">
        <ele>226.6</ele>
        <time>2026-05-17T10:25:20.000Z</time>
      </trkpt>
      <trkpt lat="43.6525" lon="3.35812">
        <ele>226.7</ele>
        <time>2026-05-17T10:25:21.000Z</time>
      </trkpt>
      <trkpt lat="43.6525" lon="3.35812">
        <ele>226.9</ele>
        <time>2026-05-17T10:25:22.000Z</time>
      </trkpt>
      <trkpt lat="43.6525" lon="3.35812">
        <ele>227</ele>
        <time>2026-05-17T10:25:23.000Z</time>
      </trkpt>
      <trkpt lat="43.6525" lon="3.35812">
        <ele>226.8</ele>
        <time>2026-05-17T10:25:24.000Z</time>
      </trkpt>
      <trkpt lat="43.6525" lon="3.35812">
        <ele>226.5</ele>
        <time>2026-05-17T10:25:25.000Z</time>
      </trkpt>
      <trkpt lat="43.6525" lon="3.35812">
        <ele>226.6</ele>
        <time>2026-05-17T10:25:26.000Z</time>
      </trkpt>
      <trkpt lat="43.6525" lon="3.35812">
        <ele>227</ele>
        <time>2026-05-17T10:25:27.000Z</time>
      </trkpt>
      <trkpt lat="43.65251" lon="3.35812">
        <ele>227.3</ele>
        <time>2026-05-17T10:25:28.000Z</time>
      </trkpt>
      <trkpt lat="43.65251" lon="3.35812">
        <ele>227.5</ele>
        <time>2026-05-17T10:25:29.000Z</time>
      </trkpt>
      <trkpt lat="43.65251" lon="3.35812">
        <ele>227.6</ele>
        <time>2026-05-17T10:25:30.000Z</time>
      </trkpt>
      <trkpt lat="43.65251" lon="3.35812">
        <ele>227.7</ele>
        <time>2026-05-17T10:25:31.000Z</time>
      </trkpt>
      <trkpt lat="43.6525" lon="3.35811">
        <ele>228.2</ele>
        <time>2026-05-17T10:25:33.000Z</time>
      </trkpt>
      <trkpt lat="43.6525" lon="3.3581">
        <ele>228.8</ele>
        <time>2026-05-17T10:25:34.000Z</time>
      </trkpt>
      <trkpt lat="43.65249" lon="3.35809">
        <ele>229.3</ele>
        <time>2026-05-17T10:25:35.000Z</time>
      </trkpt>
      <trkpt lat="43.65249" lon="3.35808">
        <ele>229.6</ele>
        <time>2026-05-17T10:25:36.000Z</time>
      </trkpt>
      <trkpt lat="43.65248" lon="3.35807">
        <ele>229.7</ele>
        <time>2026-05-17T10:25:37.000Z</time>
      </trkpt>
      <trkpt lat="43.65248" lon="3.35809">
        <ele>228.9</ele>
        <time>2026-05-17T10:25:38.000Z</time>
      </trkpt>
      <trkpt lat="43.65248" lon="3.35809">
        <ele>228.9</ele>
        <time>2026-05-17T10:25:39.000Z</time>
      </trkpt>
      <trkpt lat="43.65248" lon="3.35809">
        <ele>228.8</ele>
        <time>2026-05-17T10:25:40.000Z</time>
      </trkpt>
      <trkpt lat="43.65248" lon="3.35808">
        <ele>219.2</ele>
        <time>2026-05-17T10:25:41.000Z</time>
      </trkpt>
      <trkpt lat="43.65248" lon="3.35809">
        <ele>219.8</ele>
        <time>2026-05-17T10:25:42.000Z</time>
      </trkpt>
      <trkpt lat="43.65249" lon="3.3581">
        <ele>220.2</ele>
        <time>2026-05-17T10:25:43.000Z</time>
      </trkpt>
      <trkpt lat="43.65249" lon="3.35812">
        <ele>220.6</ele>
        <time>2026-05-17T10:25:44.000Z</time>
      </trkpt>
      <trkpt lat="43.6525" lon="3.35813">
        <ele>221.2</ele>
        <time>2026-05-17T10:25:45.000Z</time>
      </trkpt>
      <trkpt lat="43.6525" lon="3.35813">
        <ele>221.7</ele>
        <time>2026-05-17T10:25:46.000Z</time>
      </trkpt>
      <trkpt lat="43.65251" lon="3.35814">
        <ele>222.2</ele>
        <time>2026-05-17T10:25:47.000Z</time>
      </trkpt>
      <trkpt lat="43.65251" lon="3.35815">
        <ele>222.3</ele>
        <time>2026-05-17T10:25:48.000Z</time>
      </trkpt>
      <trkpt lat="43.65251" lon="3.35815">
        <ele>223.1</ele>
        <time>2026-05-17T10:25:49.000Z</time>
      </trkpt>
      <trkpt lat="43.65252" lon="3.35817">
        <ele>223.7</ele>
        <time>2026-05-17T10:25:50.000Z</time>
      </trkpt>
      <trkpt lat="43.65252" lon="3.35817">
        <ele>224</ele>
        <time>2026-05-17T10:25:51.000Z</time>
      </trkpt>
      <trkpt lat="43.65253" lon="3.35818">
        <ele>224.4</ele>
        <time>2026-05-17T10:25:52.000Z</time>
      </trkpt>
      <trkpt lat="43.65253" lon="3.35819">
        <ele>224.3</ele>
        <time>2026-05-17T10:25:53.000Z</time>
      </trkpt>
      <trkpt lat="43.65253" lon="3.35819">
        <ele>224.5</ele>
        <time>2026-05-17T10:25:54.000Z</time>
      </trkpt>
      <trkpt lat="43.65253" lon="3.3582">
        <ele>224.9</ele>
        <time>2026-05-17T10:25:55.000Z</time>
      </trkpt>
      <trkpt lat="43.65254" lon="3.3582">
        <ele>225</ele>
        <time>2026-05-17T10:25:56.000Z</time>
      </trkpt>
      <trkpt lat="43.65254" lon="3.3582">
        <ele>225.3</ele>
        <time>2026-05-17T10:25:57.000Z</time>
      </trkpt>
      <trkpt lat="43.65254" lon="3.35819">
        <ele>225.7</ele>
        <time>2026-05-17T10:25:58.000Z</time>
      </trkpt>
      <trkpt lat="43.65255" lon="3.35819">
        <ele>226.4</ele>
        <time>2026-05-17T10:25:59.000Z</time>
      </trkpt>
      <trkpt lat="43.65255" lon="3.3582">
        <ele>227</ele>
        <time>2026-05-17T10:26:00.000Z</time>
      </trkpt>
      <trkpt lat="43.65255" lon="3.3582">
        <ele>227.2</ele>
        <time>2026-05-17T10:26:01.000Z</time>
      </trkpt>
      <trkpt lat="43.65255" lon="3.3582">
        <ele>227.4</ele>
        <time>2026-05-17T10:26:02.000Z</time>
      </trkpt>
      <trkpt lat="43.65255" lon="3.35821">
        <ele>227.6</ele>
        <time>2026-05-17T10:26:03.000Z</time>
      </trkpt>
      <trkpt lat="43.65255" lon="3.35822">
        <ele>227.9</ele>
        <time>2026-05-17T10:26:04.000Z</time>
      </trkpt>
      <trkpt lat="43.65255" lon="3.35823">
        <ele>228.3</ele>
        <time>2026-05-17T10:26:05.000Z</time>
      </trkpt>
      <trkpt lat="43.65256" lon="3.35825">
        <ele>228.6</ele>
        <time>2026-05-17T10:26:06.000Z</time>
      </trkpt>
      <trkpt lat="43.65256" lon="3.35826">
        <ele>229</ele>
        <time>2026-05-17T10:26:07.000Z</time>
      </trkpt>
      <trkpt lat="43.65256" lon="3.35827">
        <ele>229.3</ele>
        <time>2026-05-17T10:26:08.000Z</time>
      </trkpt>
      <trkpt lat="43.65256" lon="3.35827">
        <ele>229.6</ele>
        <time>2026-05-17T10:26:09.000Z</time>
      </trkpt>
      <trkpt lat="43.65257" lon="3.35827">
        <ele>230</ele>
        <time>2026-05-17T10:26:10.000Z</time>
      </trkpt>
      <trkpt lat="43.65257" lon="3.35826">
        <ele>230.4</ele>
        <time>2026-05-17T10:26:11.000Z</time>
      </trkpt>
      <trkpt lat="43.65258" lon="3.35825">
        <ele>230.7</ele>
        <time>2026-05-17T10:26:12.000Z</time>
      </trkpt>
      <trkpt lat="43.65258" lon="3.35825">
        <ele>230.7</ele>
        <time>2026-05-17T10:26:13.000Z</time>
      </trkpt>
      <trkpt lat="43.65258" lon="3.35825">
        <ele>230.9</ele>
        <time>2026-05-17T10:26:14.000Z</time>
      </trkpt>
      <trkpt lat="43.65258" lon="3.35825">
        <ele>230.9</ele>
        <time>2026-05-17T10:26:15.000Z</time>
      </trkpt>
      <trkpt lat="43.65258" lon="3.35825">
        <ele>231.1</ele>
        <time>2026-05-17T10:26:16.000Z</time>
      </trkpt>
      <trkpt lat="43.65258" lon="3.35825">
        <ele>231.3</ele>
        <time>2026-05-17T10:26:17.000Z</time>
      </trkpt>
      <trkpt lat="43.65259" lon="3.35825">
        <ele>231.4</ele>
        <time>2026-05-17T10:26:18.000Z</time>
      </trkpt>
      <trkpt lat="43.65258" lon="3.35825">
        <ele>231.6</ele>
        <time>2026-05-17T10:26:19.000Z</time>
      </trkpt>
      <trkpt lat="43.65258" lon="3.35825">
        <ele>231.7</ele>
        <time>2026-05-17T10:26:20.000Z</time>
      </trkpt>
      <trkpt lat="43.65259" lon="3.35825">
        <ele>231.7</ele>
        <time>2026-05-17T10:26:21.000Z</time>
      </trkpt>
      <trkpt lat="43.6526" lon="3.35825">
        <ele>231.9</ele>
        <time>2026-05-17T10:26:22.000Z</time>
      </trkpt>
      <trkpt lat="43.6526" lon="3.35825">
        <ele>232.3</ele>
        <time>2026-05-17T10:26:23.000Z</time>
      </trkpt>
      <trkpt lat="43.6526" lon="3.35825">
        <ele>232.6</ele>
        <time>2026-05-17T10:26:24.000Z</time>
      </trkpt>
      <trkpt lat="43.6526" lon="3.35825">
        <ele>232.9</ele>
        <time>2026-05-17T10:26:25.000Z</time>
      </trkpt>
      <trkpt lat="43.65261" lon="3.35825">
        <ele>233.1</ele>
        <time>2026-05-17T10:26:26.000Z</time>
      </trkpt>
      <trkpt lat="43.65261" lon="3.35825">
        <ele>233.1</ele>
        <time>2026-05-17T10:26:27.000Z</time>
      </trkpt>
      <trkpt lat="43.65262" lon="3.35825">
        <ele>233.3</ele>
        <time>2026-05-17T10:26:28.000Z</time>
      </trkpt>
      <trkpt lat="43.65262" lon="3.35826">
        <ele>233.3</ele>
        <time>2026-05-17T10:26:29.000Z</time>
      </trkpt>
      <trkpt lat="43.65263" lon="3.35827">
        <ele>233.4</ele>
        <time>2026-05-17T10:26:30.000Z</time>
      </trkpt>
      <trkpt lat="43.65263" lon="3.35827">
        <ele>233.6</ele>
        <time>2026-05-17T10:26:31.000Z</time>
      </trkpt>
      <trkpt lat="43.65263" lon="3.35826">
        <ele>234</ele>
        <time>2026-05-17T10:26:32.000Z</time>
      </trkpt>
      <trkpt lat="43.65263" lon="3.35826">
        <ele>234.2</ele>
        <time>2026-05-17T10:26:33.000Z</time>
      </trkpt>
      <trkpt lat="43.65263" lon="3.35826">
        <ele>234.3</ele>
        <time>2026-05-17T10:26:34.000Z</time>
      </trkpt>
      <trkpt lat="43.65263" lon="3.35826">
        <ele>234.4</ele>
        <time>2026-05-17T10:26:35.000Z</time>
      </trkpt>
      <trkpt lat="43.65263" lon="3.35826">
        <ele>234.5</ele>
        <time>2026-05-17T10:26:36.000Z</time>
      </trkpt>
      <trkpt lat="43.65264" lon="3.35826">
        <ele>234.7</ele>
        <time>2026-05-17T10:26:37.000Z</time>
      </trkpt>
      <trkpt lat="43.65264" lon="3.35826">
        <ele>234.8</ele>
        <time>2026-05-17T10:26:38.000Z</time>
      </trkpt>
      <trkpt lat="43.65265" lon="3.35826">
        <ele>235</ele>
        <time>2026-05-17T10:26:39.000Z</time>
      </trkpt>
      <trkpt lat="43.65265" lon="3.35826">
        <ele>235</ele>
        <time>2026-05-17T10:26:40.000Z</time>
      </trkpt>
      <trkpt lat="43.65265" lon="3.35825">
        <ele>235.3</ele>
        <time>2026-05-17T10:26:41.000Z</time>
      </trkpt>
      <trkpt lat="43.65266" lon="3.35824">
        <ele>235.4</ele>
        <time>2026-05-17T10:26:42.000Z</time>
      </trkpt>
      <trkpt lat="43.65267" lon="3.35824">
        <ele>235.7</ele>
        <time>2026-05-17T10:26:43.000Z</time>
      </trkpt>
      <trkpt lat="43.65268" lon="3.35823">
        <ele>236.1</ele>
        <time>2026-05-17T10:26:44.000Z</time>
      </trkpt>
      <trkpt lat="43.65268" lon="3.35823">
        <ele>236.1</ele>
        <time>2026-05-17T10:26:45.000Z</time>
      </trkpt>
      <trkpt lat="43.65268" lon="3.35823">
        <ele>236.6</ele>
        <time>2026-05-17T10:26:46.000Z</time>
      </trkpt>
      <trkpt lat="43.65268" lon="3.35823">
        <ele>236.6</ele>
        <time>2026-05-17T10:26:47.000Z</time>
      </trkpt>
      <trkpt lat="43.65268" lon="3.35823">
        <ele>236.8</ele>
        <time>2026-05-17T10:26:48.000Z</time>
      </trkpt>
      <trkpt lat="43.65269" lon="3.35823">
        <ele>237</ele>
        <time>2026-05-17T10:26:49.000Z</time>
      </trkpt>
      <trkpt lat="43.65269" lon="3.35824">
        <ele>236.8</ele>
        <time>2026-05-17T10:26:50.000Z</time>
      </trkpt>
      <trkpt lat="43.65269" lon="3.35824">
        <ele>236.6</ele>
        <time>2026-05-17T10:26:51.000Z</time>
      </trkpt>
      <trkpt lat="43.65269" lon="3.35823">
        <ele>236.9</ele>
        <time>2026-05-17T10:26:52.000Z</time>
      </trkpt>
      <trkpt lat="43.65269" lon="3.35822">
        <ele>237.1</ele>
        <time>2026-05-17T10:26:53.000Z</time>
      </trkpt>
      <trkpt lat="43.6527" lon="3.35822">
        <ele>237.2</ele>
        <time>2026-05-17T10:26:54.000Z</time>
      </trkpt>
      <trkpt lat="43.6527" lon="3.35822">
        <ele>237.2</ele>
        <time>2026-05-17T10:26:55.000Z</time>
      </trkpt>
      <trkpt lat="43.6527" lon="3.35822">
        <ele>237.2</ele>
        <time>2026-05-17T10:26:56.000Z</time>
      </trkpt>
      <trkpt lat="43.6527" lon="3.35821">
        <ele>237.1</ele>
        <time>2026-05-17T10:26:57.000Z</time>
      </trkpt>
      <trkpt lat="43.6527" lon="3.35821">
        <ele>237.2</ele>
        <time>2026-05-17T10:26:58.000Z</time>
      </trkpt>
      <trkpt lat="43.65271" lon="3.35821">
        <ele>237.3</ele>
        <time>2026-05-17T10:26:59.000Z</time>
      </trkpt>
      <trkpt lat="43.65271" lon="3.35821">
        <ele>237.5</ele>
        <time>2026-05-17T10:27:00.000Z</time>
      </trkpt>
      <trkpt lat="43.65272" lon="3.35821">
        <ele>237.6</ele>
        <time>2026-05-17T10:27:01.000Z</time>
      </trkpt>
      <trkpt lat="43.65272" lon="3.3582">
        <ele>237.8</ele>
        <time>2026-05-17T10:27:02.000Z</time>
      </trkpt>
      <trkpt lat="43.65272" lon="3.3582">
        <ele>237.8</ele>
        <time>2026-05-17T10:27:03.000Z</time>
      </trkpt>
      <trkpt lat="43.65272" lon="3.3582">
        <ele>237.9</ele>
        <time>2026-05-17T10:27:04.000Z</time>
      </trkpt>
      <trkpt lat="43.65272" lon="3.35819">
        <ele>237.8</ele>
        <time>2026-05-17T10:27:05.000Z</time>
      </trkpt>
      <trkpt lat="43.65271" lon="3.35818">
        <ele>237.7</ele>
        <time>2026-05-17T10:27:06.000Z</time>
      </trkpt>
      <trkpt lat="43.65271" lon="3.35818">
        <ele>237.8</ele>
        <time>2026-05-17T10:27:07.000Z</time>
      </trkpt>
      <trkpt lat="43.65271" lon="3.35818">
        <ele>237.9</ele>
        <time>2026-05-17T10:27:08.000Z</time>
      </trkpt>
      <trkpt lat="43.65271" lon="3.35818">
        <ele>237.8</ele>
        <time>2026-05-17T10:27:09.000Z</time>
      </trkpt>
      <trkpt lat="43.65271" lon="3.35818">
        <ele>237.9</ele>
        <time>2026-05-17T10:27:10.000Z</time>
      </trkpt>
      <trkpt lat="43.65271" lon="3.35818">
        <ele>238</ele>
        <time>2026-05-17T10:27:11.000Z</time>
      </trkpt>
      <trkpt lat="43.65271" lon="3.35818">
        <ele>238.1</ele>
        <time>2026-05-17T10:27:12.000Z</time>
      </trkpt>
      <trkpt lat="43.65271" lon="3.35818">
        <ele>238.2</ele>
        <time>2026-05-17T10:27:13.000Z</time>
      </trkpt>
      <trkpt lat="43.65273" lon="3.35819">
        <ele>238.2</ele>
        <time>2026-05-17T10:27:14.000Z</time>
      </trkpt>
      <trkpt lat="43.65274" lon="3.3582">
        <ele>238.5</ele>
        <time>2026-05-17T10:27:15.000Z</time>
      </trkpt>
      <trkpt lat="43.65274" lon="3.35821">
        <ele>238.8</ele>
        <time>2026-05-17T10:27:16.000Z</time>
      </trkpt>
      <trkpt lat="43.65274" lon="3.35822">
        <ele>238.9</ele>
        <time>2026-05-17T10:27:17.000Z</time>
      </trkpt>
      <trkpt lat="43.65274" lon="3.35822">
        <ele>238.8</ele>
        <time>2026-05-17T10:27:18.000Z</time>
      </trkpt>
      <trkpt lat="43.65274" lon="3.35821">
        <ele>238.7</ele>
        <time>2026-05-17T10:27:19.000Z</time>
      </trkpt>
      <trkpt lat="43.65274" lon="3.35822">
        <ele>239.2</ele>
        <time>2026-05-17T10:27:20.000Z</time>
      </trkpt>
      <trkpt lat="43.65274" lon="3.35822">
        <ele>239.3</ele>
        <time>2026-05-17T10:27:21.000Z</time>
      </trkpt>
      <trkpt lat="43.65275" lon="3.35822">
        <ele>239.5</ele>
        <time>2026-05-17T10:27:22.000Z</time>
      </trkpt>
      <trkpt lat="43.65275" lon="3.35821">
        <ele>239.7</ele>
        <time>2026-05-17T10:27:23.000Z</time>
      </trkpt>
      <trkpt lat="43.65276" lon="3.35821">
        <ele>239.8</ele>
        <time>2026-05-17T10:27:24.000Z</time>
      </trkpt>
      <trkpt lat="43.65277" lon="3.3582">
        <ele>239.7</ele>
        <time>2026-05-17T10:27:25.000Z</time>
      </trkpt>
      <trkpt lat="43.65278" lon="3.3582">
        <ele>239.9</ele>
        <time>2026-05-17T10:27:26.000Z</time>
      </trkpt>
      <trkpt lat="43.65278" lon="3.35819">
        <ele>240.1</ele>
        <time>2026-05-17T10:27:27.000Z</time>
      </trkpt>
      <trkpt lat="43.65278" lon="3.35819">
        <ele>240.1</ele>
        <time>2026-05-17T10:27:28.000Z</time>
      </trkpt>
      <trkpt lat="43.65278" lon="3.35819">
        <ele>240.2</ele>
        <time>2026-05-17T10:27:29.000Z</time>
      </trkpt>
      <trkpt lat="43.65278" lon="3.35819">
        <ele>240.4</ele>
        <time>2026-05-17T10:27:30.000Z</time>
      </trkpt>
      <trkpt lat="43.65278" lon="3.35819">
        <ele>240.5</ele>
        <time>2026-05-17T10:27:31.000Z</time>
      </trkpt>
      <trkpt lat="43.65278" lon="3.35819">
        <ele>240.5</ele>
        <time>2026-05-17T10:27:32.000Z</time>
      </trkpt>
      <trkpt lat="43.65278" lon="3.35819">
        <ele>240.6</ele>
        <time>2026-05-17T10:27:33.000Z</time>
      </trkpt>
      <trkpt lat="43.65278" lon="3.35819">
        <ele>240.7</ele>
        <time>2026-05-17T10:27:34.000Z</time>
      </trkpt>
      <trkpt lat="43.65278" lon="3.35819">
        <ele>240.8</ele>
        <time>2026-05-17T10:27:35.000Z</time>
      </trkpt>
      <trkpt lat="43.65278" lon="3.35819">
        <ele>240.9</ele>
        <time>2026-05-17T10:27:36.000Z</time>
      </trkpt>
      <trkpt lat="43.65278" lon="3.35819">
        <ele>241</ele>
        <time>2026-05-17T10:27:37.000Z</time>
      </trkpt>
      <trkpt lat="43.65278" lon="3.35819">
        <ele>241.1</ele>
        <time>2026-05-17T10:27:38.000Z</time>
      </trkpt>
      <trkpt lat="43.65278" lon="3.35819">
        <ele>241.2</ele>
        <time>2026-05-17T10:27:39.000Z</time>
      </trkpt>
      <trkpt lat="43.65279" lon="3.35819">
        <ele>241.6</ele>
        <time>2026-05-17T10:27:40.000Z</time>
      </trkpt>
      <trkpt lat="43.65279" lon="3.35819">
        <ele>241.7</ele>
        <time>2026-05-17T10:27:41.000Z</time>
      </trkpt>
      <trkpt lat="43.65279" lon="3.35819">
        <ele>241.9</ele>
        <time>2026-05-17T10:27:42.000Z</time>
      </trkpt>
      <trkpt lat="43.65279" lon="3.35819">
        <ele>241.8</ele>
        <time>2026-05-17T10:27:43.000Z</time>
      </trkpt>
      <trkpt lat="43.65279" lon="3.35819">
        <ele>241.9</ele>
        <time>2026-05-17T10:27:44.000Z</time>
      </trkpt>
      <trkpt lat="43.65279" lon="3.35819">
        <ele>242</ele>
        <time>2026-05-17T10:27:45.000Z</time>
      </trkpt>
      <trkpt lat="43.6528" lon="3.35819">
        <ele>242.1</ele>
        <time>2026-05-17T10:27:46.000Z</time>
      </trkpt>
      <trkpt lat="43.6528" lon="3.35819">
        <ele>242.4</ele>
        <time>2026-05-17T10:27:47.000Z</time>
      </trkpt>
      <trkpt lat="43.6528" lon="3.35819">
        <ele>242.6</ele>
        <time>2026-05-17T10:27:48.000Z</time>
      </trkpt>
      <trkpt lat="43.6528" lon="3.35819">
        <ele>242.7</ele>
        <time>2026-05-17T10:27:49.000Z</time>
      </trkpt>
      <trkpt lat="43.6528" lon="3.35819">
        <ele>242.8</ele>
        <time>2026-05-17T10:27:50.000Z</time>
      </trkpt>
      <trkpt lat="43.6528" lon="3.35819">
        <ele>242.7</ele>
        <time>2026-05-17T10:27:51.000Z</time>
      </trkpt>
      <trkpt lat="43.6528" lon="3.35819">
        <ele>242.8</ele>
        <time>2026-05-17T10:27:52.000Z</time>
      </trkpt>
      <trkpt lat="43.6528" lon="3.35819">
        <ele>242.7</ele>
        <time>2026-05-17T10:27:53.000Z</time>
      </trkpt>
      <trkpt lat="43.65281" lon="3.35819">
        <ele>242.6</ele>
        <time>2026-05-17T10:27:54.000Z</time>
      </trkpt>
      <trkpt lat="43.65281" lon="3.35819">
        <ele>242.7</ele>
        <time>2026-05-17T10:27:55.000Z</time>
      </trkpt>
      <trkpt lat="43.65281" lon="3.35819">
        <ele>242.6</ele>
        <time>2026-05-17T10:27:56.000Z</time>
      </trkpt>
      <trkpt lat="43.65281" lon="3.35819">
        <ele>242.6</ele>
        <time>2026-05-17T10:27:57.000Z</time>
      </trkpt>
      <trkpt lat="43.65281" lon="3.35819">
        <ele>242.7</ele>
        <time>2026-05-17T10:27:58.000Z</time>
      </trkpt>
      <trkpt lat="43.65281" lon="3.35819">
        <ele>242.9</ele>
        <time>2026-05-17T10:27:59.000Z</time>
      </trkpt>
      <trkpt lat="43.65281" lon="3.35819">
        <ele>243.5</ele>
        <time>2026-05-17T10:28:00.000Z</time>
      </trkpt>
      <trkpt lat="43.65281" lon="3.35819">
        <ele>243.9</ele>
        <time>2026-05-17T10:28:01.000Z</time>
      </trkpt>
      <trkpt lat="43.65281" lon="3.3582">
        <ele>244.4</ele>
        <time>2026-05-17T10:28:02.000Z</time>
      </trkpt>
      <trkpt lat="43.65281" lon="3.3582">
        <ele>244.8</ele>
        <time>2026-05-17T10:28:03.000Z</time>
      </trkpt>
      <trkpt lat="43.65281" lon="3.3582">
        <ele>245</ele>
        <time>2026-05-17T10:28:04.000Z</time>
      </trkpt>
      <trkpt lat="43.65281" lon="3.3582">
        <ele>245.4</ele>
        <time>2026-05-17T10:28:05.000Z</time>
      </trkpt>
      <trkpt lat="43.65282" lon="3.3582">
        <ele>245.6</ele>
        <time>2026-05-17T10:28:06.000Z</time>
      </trkpt>
      <trkpt lat="43.65282" lon="3.3582">
        <ele>245.8</ele>
        <time>2026-05-17T10:28:07.000Z</time>
      </trkpt>
      <trkpt lat="43.65282" lon="3.3582">
        <ele>246</ele>
        <time>2026-05-17T10:28:08.000Z</time>
      </trkpt>
      <trkpt lat="43.65282" lon="3.3582">
        <ele>246</ele>
        <time>2026-05-17T10:28:09.000Z</time>
      </trkpt>
      <trkpt lat="43.65282" lon="3.3582">
        <ele>245.9</ele>
        <time>2026-05-17T10:28:10.000Z</time>
      </trkpt>
      <trkpt lat="43.65282" lon="3.3582">
        <ele>245.9</ele>
        <time>2026-05-17T10:28:11.000Z</time>
      </trkpt>
      <trkpt lat="43.65282" lon="3.3582">
        <ele>246</ele>
        <time>2026-05-17T10:28:12.000Z</time>
      </trkpt>
      <trkpt lat="43.65282" lon="3.3582">
        <ele>245.9</ele>
        <time>2026-05-17T10:28:13.000Z</time>
      </trkpt>
      <trkpt lat="43.65282" lon="3.3582">
        <ele>245.8</ele>
        <time>2026-05-17T10:28:14.000Z</time>
      </trkpt>
      <trkpt lat="43.65282" lon="3.3582">
        <ele>245.8</ele>
        <time>2026-05-17T10:28:15.000Z</time>
      </trkpt>
      <trkpt lat="43.65282" lon="3.3582">
        <ele>245.7</ele>
        <time>2026-05-17T10:28:16.000Z</time>
      </trkpt>
      <trkpt lat="43.65282" lon="3.3582">
        <ele>245.7</ele>
        <time>2026-05-17T10:28:17.000Z</time>
      </trkpt>
      <trkpt lat="43.65282" lon="3.3582">
        <ele>245.8</ele>
        <time>2026-05-17T10:28:18.000Z</time>
      </trkpt>
      <trkpt lat="43.65282" lon="3.3582">
        <ele>246</ele>
        <time>2026-05-17T10:28:19.000Z</time>
      </trkpt>
      <trkpt lat="43.65282" lon="3.3582">
        <ele>246</ele>
        <time>2026-05-17T10:28:20.000Z</time>
      </trkpt>
      <trkpt lat="43.65282" lon="3.3582">
        <ele>246.2</ele>
        <time>2026-05-17T10:28:21.000Z</time>
      </trkpt>
      <trkpt lat="43.65282" lon="3.3582">
        <ele>246.2</ele>
        <time>2026-05-17T10:28:22.000Z</time>
      </trkpt>
      <trkpt lat="43.65282" lon="3.3582">
        <ele>246.2</ele>
        <time>2026-05-17T10:28:23.000Z</time>
      </trkpt>
      <trkpt lat="43.65282" lon="3.3582">
        <ele>246.2</ele>
        <time>2026-05-17T10:28:24.000Z</time>
      </trkpt>
      <trkpt lat="43.65282" lon="3.3582">
        <ele>246.4</ele>
        <time>2026-05-17T10:28:25.000Z</time>
      </trkpt>
      <trkpt lat="43.65282" lon="3.3582">
        <ele>246.7</ele>
        <time>2026-05-17T10:28:26.000Z</time>
      </trkpt>
      <trkpt lat="43.65282" lon="3.3582">
        <ele>246.8</ele>
        <time>2026-05-17T10:28:27.000Z</time>
      </trkpt>
      <trkpt lat="43.65282" lon="3.3582">
        <ele>247</ele>
        <time>2026-05-17T10:28:28.000Z</time>
      </trkpt>
      <trkpt lat="43.65282" lon="3.3582">
        <ele>247.2</ele>
        <time>2026-05-17T10:28:29.000Z</time>
      </trkpt>
      <trkpt lat="43.65282" lon="3.3582">
        <ele>247.3</ele>
        <time>2026-05-17T10:28:30.000Z</time>
      </trkpt>
      <trkpt lat="43.65283" lon="3.3582">
        <ele>247.3</ele>
        <time>2026-05-17T10:28:31.000Z</time>
      </trkpt>
      <trkpt lat="43.65283" lon="3.3582">
        <ele>247.2</ele>
        <time>2026-05-17T10:28:32.000Z</time>
      </trkpt>
      <trkpt lat="43.65283" lon="3.3582">
        <ele>247.2</ele>
        <time>2026-05-17T10:28:33.000Z</time>
      </trkpt>
      <trkpt lat="43.65283" lon="3.3582">
        <ele>247.3</ele>
        <time>2026-05-17T10:28:34.000Z</time>
      </trkpt>
      <trkpt lat="43.65283" lon="3.3582">
        <ele>247.1</ele>
        <time>2026-05-17T10:28:35.000Z</time>
      </trkpt>
      <trkpt lat="43.65283" lon="3.3582">
        <ele>247.1</ele>
        <time>2026-05-17T10:28:36.000Z</time>
      </trkpt>
      <trkpt lat="43.65283" lon="3.3582">
        <ele>247</ele>
        <time>2026-05-17T10:28:37.000Z</time>
      </trkpt>
      <trkpt lat="43.65283" lon="3.3582">
        <ele>246.8</ele>
        <time>2026-05-17T10:28:38.000Z</time>
      </trkpt>
      <trkpt lat="43.65283" lon="3.3582">
        <ele>246.8</ele>
        <time>2026-05-17T10:28:39.000Z</time>
      </trkpt>
      <trkpt lat="43.65283" lon="3.3582">
        <ele>246.8</ele>
        <time>2026-05-17T10:28:40.000Z</time>
      </trkpt>
      <trkpt lat="43.65283" lon="3.3582">
        <ele>246.8</ele>
        <time>2026-05-17T10:28:41.000Z</time>
      </trkpt>
      <trkpt lat="43.65283" lon="3.3582">
        <ele>247</ele>
        <time>2026-05-17T10:28:42.000Z</time>
      </trkpt>
      <trkpt lat="43.65283" lon="3.35819">
        <ele>247.2</ele>
        <time>2026-05-17T10:28:43.000Z</time>
      </trkpt>
      <trkpt lat="43.65283" lon="3.35819">
        <ele>247.2</ele>
        <time>2026-05-17T10:28:44.000Z</time>
      </trkpt>
      <trkpt lat="43.65283" lon="3.35819">
        <ele>247.3</ele>
        <time>2026-05-17T10:28:45.000Z</time>
      </trkpt>
      <trkpt lat="43.65283" lon="3.35819">
        <ele>247.3</ele>
        <time>2026-05-17T10:28:46.000Z</time>
      </trkpt>
      <trkpt lat="43.65283" lon="3.35819">
        <ele>247.3</ele>
        <time>2026-05-17T10:28:47.000Z</time>
      </trkpt>
      <trkpt lat="43.65283" lon="3.35819">
        <ele>247.3</ele>
        <time>2026-05-17T10:28:48.000Z</time>
      </trkpt>
      <trkpt lat="43.65283" lon="3.35819">
        <ele>247.5</ele>
        <time>2026-05-17T10:28:49.000Z</time>
      </trkpt>
      <trkpt lat="43.65283" lon="3.35819">
        <ele>247.7</ele>
        <time>2026-05-17T10:28:50.000Z</time>
      </trkpt>
      <trkpt lat="43.65283" lon="3.35819">
        <ele>247.7</ele>
        <time>2026-05-17T10:28:51.000Z</time>
      </trkpt>
      <trkpt lat="43.65283" lon="3.35819">
        <ele>247.9</ele>
        <time>2026-05-17T10:28:52.000Z</time>
      </trkpt>
      <trkpt lat="43.65283" lon="3.35819">
        <ele>248.1</ele>
        <time>2026-05-17T10:28:53.000Z</time>
      </trkpt>
      <trkpt lat="43.65283" lon="3.35819">
        <ele>248</ele>
        <time>2026-05-17T10:28:54.000Z</time>
      </trkpt>
      <trkpt lat="43.65284" lon="3.35819">
        <ele>248</ele>
        <time>2026-05-17T10:28:55.000Z</time>
      </trkpt>
      <trkpt lat="43.65284" lon="3.35819">
        <ele>247.9</ele>
        <time>2026-05-17T10:28:56.000Z</time>
      </trkpt>
      <trkpt lat="43.65284" lon="3.35819">
        <ele>247.8</ele>
        <time>2026-05-17T10:28:57.000Z</time>
      </trkpt>
      <trkpt lat="43.65285" lon="3.35819">
        <ele>247.7</ele>
        <time>2026-05-17T10:28:58.000Z</time>
      </trkpt>
      <trkpt lat="43.65285" lon="3.35819">
        <ele>247.7</ele>
        <time>2026-05-17T10:28:59.000Z</time>
      </trkpt>
      <trkpt lat="43.65285" lon="3.35819">
        <ele>247.7</ele>
        <time>2026-05-17T10:29:00.000Z</time>
      </trkpt>
      <trkpt lat="43.65285" lon="3.35819">
        <ele>247.7</ele>
        <time>2026-05-17T10:29:01.000Z</time>
      </trkpt>
      <trkpt lat="43.65285" lon="3.3582">
        <ele>247.7</ele>
        <time>2026-05-17T10:29:02.000Z</time>
      </trkpt>
      <trkpt lat="43.65286" lon="3.3582">
        <ele>247.7</ele>
        <time>2026-05-17T10:29:03.000Z</time>
      </trkpt>
      <trkpt lat="43.65286" lon="3.35821">
        <ele>247.7</ele>
        <time>2026-05-17T10:29:04.000Z</time>
      </trkpt>
      <trkpt lat="43.65286" lon="3.35821">
        <ele>247.5</ele>
        <time>2026-05-17T10:29:05.000Z</time>
      </trkpt>
      <trkpt lat="43.65286" lon="3.35821">
        <ele>247.4</ele>
        <time>2026-05-17T10:29:06.000Z</time>
      </trkpt>
      <trkpt lat="43.65286" lon="3.35821">
        <ele>247.4</ele>
        <time>2026-05-17T10:29:07.000Z</time>
      </trkpt>
      <trkpt lat="43.65286" lon="3.35821">
        <ele>247.3</ele>
        <time>2026-05-17T10:29:08.000Z</time>
      </trkpt>
      <trkpt lat="43.65286" lon="3.35821">
        <ele>247.3</ele>
        <time>2026-05-17T10:29:09.000Z</time>
      </trkpt>
      <trkpt lat="43.65286" lon="3.35821">
        <ele>247.3</ele>
        <time>2026-05-17T10:29:10.000Z</time>
      </trkpt>
      <trkpt lat="43.65286" lon="3.35821">
        <ele>247.5</ele>
        <time>2026-05-17T10:29:11.000Z</time>
      </trkpt>
      <trkpt lat="43.65286" lon="3.35822">
        <ele>247.9</ele>
        <time>2026-05-17T10:29:12.000Z</time>
      </trkpt>
      <trkpt lat="43.65285" lon="3.35821">
        <ele>248</ele>
        <time>2026-05-17T10:29:13.000Z</time>
      </trkpt>
      <trkpt lat="43.65285" lon="3.35821">
        <ele>248.2</ele>
        <time>2026-05-17T10:29:14.000Z</time>
      </trkpt>
      <trkpt lat="43.65284" lon="3.35821">
        <ele>248.2</ele>
        <time>2026-05-17T10:29:15.000Z</time>
      </trkpt>
      <trkpt lat="43.65284" lon="3.35821">
        <ele>248.2</ele>
        <time>2026-05-17T10:29:16.000Z</time>
      </trkpt>
      <trkpt lat="43.65284" lon="3.35821">
        <ele>248.3</ele>
        <time>2026-05-17T10:29:17.000Z</time>
      </trkpt>
      <trkpt lat="43.65284" lon="3.35821">
        <ele>248.3</ele>
        <time>2026-05-17T10:29:18.000Z</time>
      </trkpt>
      <trkpt lat="43.65284" lon="3.35821">
        <ele>248.2</ele>
        <time>2026-05-17T10:29:19.000Z</time>
      </trkpt>
      <trkpt lat="43.65284" lon="3.35821">
        <ele>248.3</ele>
        <time>2026-05-17T10:29:20.000Z</time>
      </trkpt>
      <trkpt lat="43.65284" lon="3.35822">
        <ele>248.6</ele>
        <time>2026-05-17T10:29:21.000Z</time>
      </trkpt>
      <trkpt lat="43.65284" lon="3.35822">
        <ele>248.8</ele>
        <time>2026-05-17T10:29:22.000Z</time>
      </trkpt>
      <trkpt lat="43.65284" lon="3.35822">
        <ele>248.9</ele>
        <time>2026-05-17T10:29:23.999Z</time>
      </trkpt>
      <trkpt lat="43.65284" lon="3.35822">
        <ele>248.9</ele>
        <time>2026-05-17T10:29:24.999Z</time>
      </trkpt>
      <trkpt lat="43.65284" lon="3.35822">
        <ele>248.9</ele>
        <time>2026-05-17T10:29:25.999Z</time>
      </trkpt>
      <trkpt lat="43.65284" lon="3.35822">
        <ele>248.8</ele>
        <time>2026-05-17T10:29:26.999Z</time>
      </trkpt>
      <trkpt lat="43.65284" lon="3.35822">
        <ele>248.8</ele>
        <time>2026-05-17T10:29:27.999Z</time>
      </trkpt>
      <trkpt lat="43.65284" lon="3.35822">
        <ele>248.8</ele>
        <time>2026-05-17T10:29:28.999Z</time>
      </trkpt>
      <trkpt lat="43.65284" lon="3.35821">
        <ele>248.9</ele>
        <time>2026-05-17T10:29:29.999Z</time>
      </trkpt>
      <trkpt lat="43.65284" lon="3.35822">
        <ele>248.9</ele>
        <time>2026-05-17T10:29:30.999Z</time>
      </trkpt>
      <trkpt lat="43.65284" lon="3.35821">
        <ele>248.8</ele>
        <time>2026-05-17T10:29:31.999Z</time>
      </trkpt>
      <trkpt lat="43.65284" lon="3.35821">
        <ele>249.3</ele>
        <time>2026-05-17T10:29:32.999Z</time>
      </trkpt>
      <trkpt lat="43.65284" lon="3.35821">
        <ele>249.6</ele>
        <time>2026-05-17T10:29:33.999Z</time>
      </trkpt>
      <trkpt lat="43.65284" lon="3.35821">
        <ele>249.9</ele>
        <time>2026-05-17T10:29:34.999Z</time>
      </trkpt>
      <trkpt lat="43.65284" lon="3.35821">
        <ele>250</ele>
        <time>2026-05-17T10:29:35.999Z</time>
      </trkpt>
      <trkpt lat="43.65284" lon="3.35821">
        <ele>250</ele>
        <time>2026-05-17T10:29:36.999Z</time>
      </trkpt>
      <trkpt lat="43.65284" lon="3.35821">
        <ele>250.1</ele>
        <time>2026-05-17T10:29:37.999Z</time>
      </trkpt>
      <trkpt lat="43.65284" lon="3.35821">
        <ele>250.3</ele>
        <time>2026-05-17T10:29:38.999Z</time>
      </trkpt>
      <trkpt lat="43.65284" lon="3.35821">
        <ele>250.4</ele>
        <time>2026-05-17T10:29:39.999Z</time>
      </trkpt>
      <trkpt lat="43.65284" lon="3.35821">
        <ele>250.4</ele>
        <time>2026-05-17T10:29:40.999Z</time>
      </trkpt>
      <trkpt lat="43.65284" lon="3.35821">
        <ele>250.5</ele>
        <time>2026-05-17T10:29:41.999Z</time>
      </trkpt>
      <trkpt lat="43.65285" lon="3.35821">
        <ele>250.5</ele>
        <time>2026-05-17T10:29:42.999Z</time>
      </trkpt>
      <trkpt lat="43.65285" lon="3.35821">
        <ele>250.5</ele>
        <time>2026-05-17T10:29:43.999Z</time>
      </trkpt>
      <trkpt lat="43.65285" lon="3.35821">
        <ele>250.6</ele>
        <time>2026-05-17T10:29:44.999Z</time>
      </trkpt>
      <trkpt lat="43.65285" lon="3.35821">
        <ele>250.6</ele>
        <time>2026-05-17T10:29:45.999Z</time>
      </trkpt>
      <trkpt lat="43.65285" lon="3.3582">
        <ele>250.7</ele>
        <time>2026-05-17T10:29:46.999Z</time>
      </trkpt>
      <trkpt lat="43.65285" lon="3.3582">
        <ele>250.8</ele>
        <time>2026-05-17T10:29:47.999Z</time>
      </trkpt>
      <trkpt lat="43.65285" lon="3.3582">
        <ele>250.9</ele>
        <time>2026-05-17T10:29:48.999Z</time>
      </trkpt>
      <trkpt lat="43.65285" lon="3.3582">
        <ele>251.1</ele>
        <time>2026-05-17T10:29:49.999Z</time>
      </trkpt>
      <trkpt lat="43.65285" lon="3.3582">
        <ele>251.1</ele>
        <time>2026-05-17T10:29:50.999Z</time>
      </trkpt>
      <trkpt lat="43.65285" lon="3.3582">
        <ele>251.2</ele>
        <time>2026-05-17T10:29:51.999Z</time>
      </trkpt>
      <trkpt lat="43.65285" lon="3.3582">
        <ele>251.3</ele>
        <time>2026-05-17T10:29:52.999Z</time>
      </trkpt>
      <trkpt lat="43.65285" lon="3.3582">
        <ele>251.5</ele>
        <time>2026-05-17T10:29:53.999Z</time>
      </trkpt>
      <trkpt lat="43.65285" lon="3.3582">
        <ele>251.5</ele>
        <time>2026-05-17T10:29:54.999Z</time>
      </trkpt>
      <trkpt lat="43.65285" lon="3.3582">
        <ele>251.5</ele>
        <time>2026-05-17T10:29:55.999Z</time>
      </trkpt>
      <trkpt lat="43.65285" lon="3.35821">
        <ele>251.4</ele>
        <time>2026-05-17T10:29:56.999Z</time>
      </trkpt>
      <trkpt lat="43.65285" lon="3.35821">
        <ele>251.1</ele>
        <time>2026-05-17T10:29:57.999Z</time>
      </trkpt>
      <trkpt lat="43.65285" lon="3.35821">
        <ele>250.9</ele>
        <time>2026-05-17T10:29:58.999Z</time>
      </trkpt>
      <trkpt lat="43.65286" lon="3.35821">
        <ele>252.1</ele>
        <time>2026-05-17T10:30:00.999Z</time>
      </trkpt>
      <trkpt lat="43.65286" lon="3.35821">
        <ele>252.3</ele>
        <time>2026-05-17T10:30:01.999Z</time>
      </trkpt>
      <trkpt lat="43.65286" lon="3.35821">
        <ele>252.4</ele>
        <time>2026-05-17T10:30:02.999Z</time>
      </trkpt>
      <trkpt lat="43.65286" lon="3.35821">
        <ele>252.4</ele>
        <time>2026-05-17T10:30:03.999Z</time>
      </trkpt>
      <trkpt lat="43.65286" lon="3.35821">
        <ele>252.4</ele>
        <time>2026-05-17T10:30:04.999Z</time>
      </trkpt>
      <trkpt lat="43.65286" lon="3.35821">
        <ele>252.3</ele>
        <time>2026-05-17T10:30:05.999Z</time>
      </trkpt>
      <trkpt lat="43.65286" lon="3.35821">
        <ele>252.3</ele>
        <time>2026-05-17T10:30:06.999Z</time>
      </trkpt>
      <trkpt lat="43.65286" lon="3.35821">
        <ele>252.1</ele>
        <time>2026-05-17T10:30:07.999Z</time>
      </trkpt>
      <trkpt lat="43.65286" lon="3.35821">
        <ele>251.8</ele>
        <time>2026-05-17T10:30:08.999Z</time>
      </trkpt>
      <trkpt lat="43.65286" lon="3.35821">
        <ele>251.8</ele>
        <time>2026-05-17T10:30:09.999Z</time>
      </trkpt>
      <trkpt lat="43.65285" lon="3.35821">
        <ele>251.8</ele>
        <time>2026-05-17T10:30:10.999Z</time>
      </trkpt>
      <trkpt lat="43.65285" lon="3.35821">
        <ele>251.8</ele>
        <time>2026-05-17T10:30:11.999Z</time>
      </trkpt>
      <trkpt lat="43.65285" lon="3.35821">
        <ele>251.7</ele>
        <time>2026-05-17T10:30:12.999Z</time>
      </trkpt>
      <trkpt lat="43.65285" lon="3.35821">
        <ele>251.6</ele>
        <time>2026-05-17T10:30:13.999Z</time>
      </trkpt>
      <trkpt lat="43.65285" lon="3.35821">
        <ele>251.4</ele>
        <time>2026-05-17T10:30:14.999Z</time>
      </trkpt>
      <trkpt lat="43.65285" lon="3.35821">
        <ele>251.3</ele>
        <time>2026-05-17T10:30:15.999Z</time>
      </trkpt>
      <trkpt lat="43.65285" lon="3.35821">
        <ele>251.2</ele>
        <time>2026-05-17T10:30:16.999Z</time>
      </trkpt>
      <trkpt lat="43.65285" lon="3.35821">
        <ele>251</ele>
        <time>2026-05-17T10:30:17.999Z</time>
      </trkpt>
      <trkpt lat="43.65285" lon="3.35821">
        <ele>250.8</ele>
        <time>2026-05-17T10:30:18.999Z</time>
      </trkpt>
      <trkpt lat="43.65285" lon="3.35821">
        <ele>250.8</ele>
        <time>2026-05-17T10:30:19.999Z</time>
      </trkpt>
      <trkpt lat="43.65285" lon="3.35821">
        <ele>250.7</ele>
        <time>2026-05-17T10:30:20.999Z</time>
      </trkpt>
      <trkpt lat="43.65285" lon="3.35821">
        <ele>250.9</ele>
        <time>2026-05-17T10:30:21.999Z</time>
      </trkpt>
      <trkpt lat="43.65285" lon="3.35821">
        <ele>250.7</ele>
        <time>2026-05-17T10:30:22.999Z</time>
      </trkpt>
      <trkpt lat="43.65286" lon="3.35821">
        <ele>250.6</ele>
        <time>2026-05-17T10:30:23.999Z</time>
      </trkpt>
      <trkpt lat="43.65286" lon="3.35822">
        <ele>250.6</ele>
        <time>2026-05-17T10:30:24.999Z</time>
      </trkpt>
      <trkpt lat="43.65286" lon="3.35821">
        <ele>250.3</ele>
        <time>2026-05-17T10:30:25.999Z</time>
      </trkpt>
      <trkpt lat="43.65285" lon="3.35821">
        <ele>250.2</ele>
        <time>2026-05-17T10:30:26.999Z</time>
      </trkpt>
      <trkpt lat="43.65285" lon="3.35821">
        <ele>250.2</ele>
        <time>2026-05-17T10:30:27.999Z</time>
      </trkpt>
      <trkpt lat="43.65285" lon="3.3582">
        <ele>250.1</ele>
        <time>2026-05-17T10:30:28.999Z</time>
      </trkpt>
      <trkpt lat="43.65285" lon="3.3582">
        <ele>250.2</ele>
        <time>2026-05-17T10:30:29.999Z</time>
      </trkpt>
      <trkpt lat="43.65285" lon="3.3582">
        <ele>250.2</ele>
        <time>2026-05-17T10:30:30.999Z</time>
      </trkpt>
      <trkpt lat="43.65285" lon="3.3582">
        <ele>250</ele>
        <time>2026-05-17T10:30:31.999Z</time>
      </trkpt>
      <trkpt lat="43.65285" lon="3.3582">
        <ele>249.7</ele>
        <time>2026-05-17T10:30:32.999Z</time>
      </trkpt>
      <trkpt lat="43.65285" lon="3.3582">
        <ele>249.5</ele>
        <time>2026-05-17T10:30:33.999Z</time>
      </trkpt>
      <trkpt lat="43.65285" lon="3.3582">
        <ele>249.3</ele>
        <time>2026-05-17T10:30:34.999Z</time>
      </trkpt>
      <trkpt lat="43.65285" lon="3.35821">
        <ele>249.2</ele>
        <time>2026-05-17T10:30:35.999Z</time>
      </trkpt>
      <trkpt lat="43.65285" lon="3.35821">
        <ele>249.1</ele>
        <time>2026-05-17T10:30:36.999Z</time>
      </trkpt>
      <trkpt lat="43.65285" lon="3.35821">
        <ele>249</ele>
        <time>2026-05-17T10:30:37.999Z</time>
      </trkpt>
      <trkpt lat="43.65285" lon="3.35821">
        <ele>249.1</ele>
        <time>2026-05-17T10:30:38.999Z</time>
      </trkpt>
      <trkpt lat="43.65285" lon="3.35821">
        <ele>249</ele>
        <time>2026-05-17T10:30:39.999Z</time>
      </trkpt>
      <trkpt lat="43.65285" lon="3.35821">
        <ele>249</ele>
        <time>2026-05-17T10:30:40.999Z</time>
      </trkpt>
      <trkpt lat="43.65286" lon="3.35822">
        <ele>248.9</ele>
        <time>2026-05-17T10:30:41.999Z</time>
      </trkpt>
      <trkpt lat="43.65286" lon="3.35822">
        <ele>248.9</ele>
        <time>2026-05-17T10:30:42.999Z</time>
      </trkpt>
      <trkpt lat="43.65286" lon="3.35822">
        <ele>249</ele>
        <time>2026-05-17T10:30:43.999Z</time>
      </trkpt>
      <trkpt lat="43.65286" lon="3.35822">
        <ele>249</ele>
        <time>2026-05-17T10:30:44.999Z</time>
      </trkpt>
      <trkpt lat="43.65286" lon="3.35822">
        <ele>249</ele>
        <time>2026-05-17T10:30:45.999Z</time>
      </trkpt>
      <trkpt lat="43.65286" lon="3.35822">
        <ele>248.8</ele>
        <time>2026-05-17T10:30:46.999Z</time>
      </trkpt>
      <trkpt lat="43.65286" lon="3.35822">
        <ele>248.6</ele>
        <time>2026-05-17T10:30:47.999Z</time>
      </trkpt>
      <trkpt lat="43.65286" lon="3.35822">
        <ele>248.5</ele>
        <time>2026-05-17T10:30:48.999Z</time>
      </trkpt>
      <trkpt lat="43.65286" lon="3.35822">
        <ele>248.4</ele>
        <time>2026-05-17T10:30:49.999Z</time>
      </trkpt>
      <trkpt lat="43.65286" lon="3.35822">
        <ele>248.2</ele>
        <time>2026-05-17T10:30:50.999Z</time>
      </trkpt>
      <trkpt lat="43.65286" lon="3.35822">
        <ele>248.1</ele>
        <time>2026-05-17T10:30:51.999Z</time>
      </trkpt>
      <trkpt lat="43.65286" lon="3.35822">
        <ele>248.1</ele>
        <time>2026-05-17T10:30:52.999Z</time>
      </trkpt>
      <trkpt lat="43.65286" lon="3.35822">
        <ele>248</ele>
        <time>2026-05-17T10:30:53.999Z</time>
      </trkpt>
      <trkpt lat="43.65286" lon="3.35822">
        <ele>248</ele>
        <time>2026-05-17T10:30:54.999Z</time>
      </trkpt>
      <trkpt lat="43.65286" lon="3.35822">
        <ele>248</ele>
        <time>2026-05-17T10:30:55.999Z</time>
      </trkpt>
      <trkpt lat="43.65286" lon="3.35822">
        <ele>247.8</ele>
        <time>2026-05-17T10:30:56.999Z</time>
      </trkpt>
      <trkpt lat="43.65286" lon="3.35822">
        <ele>247.8</ele>
        <time>2026-05-17T10:30:57.999Z</time>
      </trkpt>
      <trkpt lat="43.65286" lon="3.35822">
        <ele>247.9</ele>
        <time>2026-05-17T10:30:58.999Z</time>
      </trkpt>
      <trkpt lat="43.65287" lon="3.35822">
        <ele>247.9</ele>
        <time>2026-05-17T10:30:59.999Z</time>
      </trkpt>
      <trkpt lat="43.65287" lon="3.35822">
        <ele>248</ele>
        <time>2026-05-17T10:31:00.999Z</time>
      </trkpt>
      <trkpt lat="43.65287" lon="3.35821">
        <ele>248.1</ele>
        <time>2026-05-17T10:31:01.999Z</time>
      </trkpt>
      <trkpt lat="43.65287" lon="3.35821">
        <ele>248</ele>
        <time>2026-05-17T10:31:02.999Z</time>
      </trkpt>
      <trkpt lat="43.65287" lon="3.35821">
        <ele>248.1</ele>
        <time>2026-05-17T10:31:03.999Z</time>
      </trkpt>
      <trkpt lat="43.65287" lon="3.35821">
        <ele>248.3</ele>
        <time>2026-05-17T10:31:04.999Z</time>
      </trkpt>
      <trkpt lat="43.65287" lon="3.35822">
        <ele>248.4</ele>
        <time>2026-05-17T10:31:05.999Z</time>
      </trkpt>
      <trkpt lat="43.65288" lon="3.35822">
        <ele>248.3</ele>
        <time>2026-05-17T10:31:06.999Z</time>
      </trkpt>
      <trkpt lat="43.65288" lon="3.35822">
        <ele>248.4</ele>
        <time>2026-05-17T10:31:07.999Z</time>
      </trkpt>
      <trkpt lat="43.65288" lon="3.35822">
        <ele>248.4</ele>
        <time>2026-05-17T10:31:08.999Z</time>
      </trkpt>
      <trkpt lat="43.65288" lon="3.35822">
        <ele>248.4</ele>
        <time>2026-05-17T10:31:09.999Z</time>
      </trkpt>
      <trkpt lat="43.65288" lon="3.35822">
        <ele>248.4</ele>
        <time>2026-05-17T10:31:10.999Z</time>
      </trkpt>
      <trkpt lat="43.65288" lon="3.35822">
        <ele>248.2</ele>
        <time>2026-05-17T10:31:11.999Z</time>
      </trkpt>
      <trkpt lat="43.65288" lon="3.35822">
        <ele>248.3</ele>
        <time>2026-05-17T10:31:12.999Z</time>
      </trkpt>
      <trkpt lat="43.65288" lon="3.35822">
        <ele>248.3</ele>
        <time>2026-05-17T10:31:13.999Z</time>
      </trkpt>
      <trkpt lat="43.65288" lon="3.35822">
        <ele>248.4</ele>
        <time>2026-05-17T10:31:14.999Z</time>
      </trkpt>
      <trkpt lat="43.65288" lon="3.35822">
        <ele>248.5</ele>
        <time>2026-05-17T10:31:15.999Z</time>
      </trkpt>
      <trkpt lat="43.65288" lon="3.35822">
        <ele>249</ele>
        <time>2026-05-17T10:31:16.999Z</time>
      </trkpt>
      <trkpt lat="43.65288" lon="3.35822">
        <ele>249</ele>
        <time>2026-05-17T10:31:17.999Z</time>
      </trkpt>
      <trkpt lat="43.65288" lon="3.35822">
        <ele>249.1</ele>
        <time>2026-05-17T10:31:18.999Z</time>
      </trkpt>
      <trkpt lat="43.65288" lon="3.35822">
        <ele>249.1</ele>
        <time>2026-05-17T10:31:19.999Z</time>
      </trkpt>
      <trkpt lat="43.65288" lon="3.35822">
        <ele>249.2</ele>
        <time>2026-05-17T10:31:20.999Z</time>
      </trkpt>
      <trkpt lat="43.65288" lon="3.35822">
        <ele>249.3</ele>
        <time>2026-05-17T10:31:21.999Z</time>
      </trkpt>
      <trkpt lat="43.65289" lon="3.35822">
        <ele>249.4</ele>
        <time>2026-05-17T10:31:22.999Z</time>
      </trkpt>
      <trkpt lat="43.65289" lon="3.35822">
        <ele>249.6</ele>
        <time>2026-05-17T10:31:23.999Z</time>
      </trkpt>
      <trkpt lat="43.65289" lon="3.35822">
        <ele>249.7</ele>
        <time>2026-05-17T10:31:24.999Z</time>
      </trkpt>
      <trkpt lat="43.65289" lon="3.35822">
        <ele>249.8</ele>
        <time>2026-05-17T10:31:25.999Z</time>
      </trkpt>
      <trkpt lat="43.65289" lon="3.35822">
        <ele>249.6</ele>
        <time>2026-05-17T10:31:26.999Z</time>
      </trkpt>
      <trkpt lat="43.65289" lon="3.35822">
        <ele>249.6</ele>
        <time>2026-05-17T10:31:27.999Z</time>
      </trkpt>
      <trkpt lat="43.65289" lon="3.35822">
        <ele>249.7</ele>
        <time>2026-05-17T10:31:28.999Z</time>
      </trkpt>
      <trkpt lat="43.65289" lon="3.35822">
        <ele>249.9</ele>
        <time>2026-05-17T10:31:29.999Z</time>
      </trkpt>
      <trkpt lat="43.65289" lon="3.35822">
        <ele>250.1</ele>
        <time>2026-05-17T10:31:30.999Z</time>
      </trkpt>
      <trkpt lat="43.6529" lon="3.35823">
        <ele>250.3</ele>
        <time>2026-05-17T10:31:31.999Z</time>
      </trkpt>
      <trkpt lat="43.65291" lon="3.35823">
        <ele>250.6</ele>
        <time>2026-05-17T10:31:32.999Z</time>
      </trkpt>
      <trkpt lat="43.65292" lon="3.35823">
        <ele>250.6</ele>
        <time>2026-05-17T10:31:33.999Z</time>
      </trkpt>
      <trkpt lat="43.65293" lon="3.35823">
        <ele>250.7</ele>
        <time>2026-05-17T10:31:34.999Z</time>
      </trkpt>
      <trkpt lat="43.65293" lon="3.35823">
        <ele>250.6</ele>
        <time>2026-05-17T10:31:35.999Z</time>
      </trkpt>
      <trkpt lat="43.65294" lon="3.35822">
        <ele>250.6</ele>
        <time>2026-05-17T10:31:36.999Z</time>
      </trkpt>
      <trkpt lat="43.65294" lon="3.35822">
        <ele>250.6</ele>
        <time>2026-05-17T10:31:37.999Z</time>
      </trkpt>
      <trkpt lat="43.65295" lon="3.35822">
        <ele>250.5</ele>
        <time>2026-05-17T10:31:38.999Z</time>
      </trkpt>
      <trkpt lat="43.65296" lon="3.35822">
        <ele>250.4</ele>
        <time>2026-05-17T10:31:39.999Z</time>
      </trkpt>
      <trkpt lat="43.65297" lon="3.35822">
        <ele>250.4</ele>
        <time>2026-05-17T10:31:40.999Z</time>
      </trkpt>
      <trkpt lat="43.65297" lon="3.35823">
        <ele>250.5</ele>
        <time>2026-05-17T10:31:41.999Z</time>
      </trkpt>
      <trkpt lat="43.65298" lon="3.35823">
        <ele>250.6</ele>
        <time>2026-05-17T10:31:42.999Z</time>
      </trkpt>
      <trkpt lat="43.65299" lon="3.35823">
        <ele>250.6</ele>
        <time>2026-05-17T10:31:43.999Z</time>
      </trkpt>
      <trkpt lat="43.653" lon="3.35823">
        <ele>250.7</ele>
        <time>2026-05-17T10:31:44.999Z</time>
      </trkpt>
      <trkpt lat="43.65301" lon="3.35823">
        <ele>250.8</ele>
        <time>2026-05-17T10:31:45.999Z</time>
      </trkpt>
      <trkpt lat="43.65301" lon="3.35823">
        <ele>250.9</ele>
        <time>2026-05-17T10:31:46.999Z</time>
      </trkpt>
      <trkpt lat="43.65302" lon="3.35823">
        <ele>250.6</ele>
        <time>2026-05-17T10:31:47.999Z</time>
      </trkpt>
      <trkpt lat="43.65303" lon="3.35823">
        <ele>250.5</ele>
        <time>2026-05-17T10:31:48.999Z</time>
      </trkpt>
      <trkpt lat="43.65303" lon="3.35823">
        <ele>250.4</ele>
        <time>2026-05-17T10:31:49.999Z</time>
      </trkpt>
      <trkpt lat="43.65303" lon="3.35823">
        <ele>250.4</ele>
        <time>2026-05-17T10:31:50.999Z</time>
      </trkpt>
      <trkpt lat="43.65304" lon="3.35823">
        <ele>250.2</ele>
        <time>2026-05-17T10:31:51.999Z</time>
      </trkpt>
      <trkpt lat="43.65304" lon="3.35823">
        <ele>250.2</ele>
        <time>2026-05-17T10:31:52.999Z</time>
      </trkpt>
      <trkpt lat="43.65305" lon="3.35823">
        <ele>250.3</ele>
        <time>2026-05-17T10:31:53.999Z</time>
      </trkpt>
      <trkpt lat="43.65306" lon="3.35823">
        <ele>250.5</ele>
        <time>2026-05-17T10:31:54.999Z</time>
      </trkpt>
      <trkpt lat="43.65307" lon="3.35823">
        <ele>250.6</ele>
        <time>2026-05-17T10:31:55.999Z</time>
      </trkpt>
      <trkpt lat="43.65307" lon="3.35824">
        <ele>250.7</ele>
        <time>2026-05-17T10:31:56.999Z</time>
      </trkpt>
      <trkpt lat="43.65308" lon="3.35824">
        <ele>250.9</ele>
        <time>2026-05-17T10:31:57.999Z</time>
      </trkpt>
      <trkpt lat="43.65309" lon="3.35825">
        <ele>250.8</ele>
        <time>2026-05-17T10:31:58.999Z</time>
      </trkpt>
      <trkpt lat="43.6531" lon="3.35825">
        <ele>250.7</ele>
        <time>2026-05-17T10:31:59.999Z</time>
      </trkpt>
      <trkpt lat="43.6531" lon="3.35825">
        <ele>250.7</ele>
        <time>2026-05-17T10:32:00.999Z</time>
      </trkpt>
      <trkpt lat="43.6531" lon="3.35826">
        <ele>250.7</ele>
        <time>2026-05-17T10:32:01.999Z</time>
      </trkpt>
      <trkpt lat="43.65311" lon="3.35826">
        <ele>250.7</ele>
        <time>2026-05-17T10:32:02.999Z</time>
      </trkpt>
      <trkpt lat="43.65312" lon="3.35825">
        <ele>250.3</ele>
        <time>2026-05-17T10:32:03.999Z</time>
      </trkpt>
      <trkpt lat="43.65313" lon="3.35825">
        <ele>250.3</ele>
        <time>2026-05-17T10:32:04.999Z</time>
      </trkpt>
      <trkpt lat="43.65314" lon="3.35825">
        <ele>250.4</ele>
        <time>2026-05-17T10:32:05.999Z</time>
      </trkpt>
      <trkpt lat="43.65315" lon="3.35825">
        <ele>250.4</ele>
        <time>2026-05-17T10:32:06.999Z</time>
      </trkpt>
      <trkpt lat="43.65315" lon="3.35825">
        <ele>250.4</ele>
        <time>2026-05-17T10:32:07.999Z</time>
      </trkpt>
      <trkpt lat="43.65316" lon="3.35825">
        <ele>250.7</ele>
        <time>2026-05-17T10:32:08.999Z</time>
      </trkpt>
      <trkpt lat="43.65316" lon="3.35825">
        <ele>250.8</ele>
        <time>2026-05-17T10:32:09.999Z</time>
      </trkpt>
      <trkpt lat="43.65316" lon="3.35825">
        <ele>251.1</ele>
        <time>2026-05-17T10:32:10.999Z</time>
      </trkpt>
      <trkpt lat="43.65316" lon="3.35825">
        <ele>251.1</ele>
        <time>2026-05-17T10:32:11.999Z</time>
      </trkpt>
      <trkpt lat="43.65316" lon="3.35825">
        <ele>251</ele>
        <time>2026-05-17T10:32:12.999Z</time>
      </trkpt>
      <trkpt lat="43.65316" lon="3.35825">
        <ele>251</ele>
        <time>2026-05-17T10:32:13.999Z</time>
      </trkpt>
      <trkpt lat="43.65316" lon="3.35825">
        <ele>251.1</ele>
        <time>2026-05-17T10:32:14.999Z</time>
      </trkpt>
      <trkpt lat="43.65316" lon="3.35825">
        <ele>251.3</ele>
        <time>2026-05-17T10:32:15.999Z</time>
      </trkpt>
      <trkpt lat="43.65317" lon="3.35826">
        <ele>251.4</ele>
        <time>2026-05-17T10:32:16.999Z</time>
      </trkpt>
      <trkpt lat="43.65317" lon="3.35826">
        <ele>251.7</ele>
        <time>2026-05-17T10:32:17.999Z</time>
      </trkpt>
      <trkpt lat="43.65318" lon="3.35826">
        <ele>251.8</ele>
        <time>2026-05-17T10:32:18.999Z</time>
      </trkpt>
      <trkpt lat="43.65318" lon="3.35826">
        <ele>251.9</ele>
        <time>2026-05-17T10:32:19.999Z</time>
      </trkpt>
      <trkpt lat="43.65318" lon="3.35826">
        <ele>251.9</ele>
        <time>2026-05-17T10:32:20.999Z</time>
      </trkpt>
      <trkpt lat="43.65318" lon="3.35827">
        <ele>251.9</ele>
        <time>2026-05-17T10:32:21.999Z</time>
      </trkpt>
      <trkpt lat="43.65319" lon="3.35827">
        <ele>251.9</ele>
        <time>2026-05-17T10:32:22.999Z</time>
      </trkpt>
      <trkpt lat="43.65319" lon="3.35827">
        <ele>252</ele>
        <time>2026-05-17T10:32:23.999Z</time>
      </trkpt>
      <trkpt lat="43.65319" lon="3.35828">
        <ele>251.9</ele>
        <time>2026-05-17T10:32:24.999Z</time>
      </trkpt>
      <trkpt lat="43.6532" lon="3.35828">
        <ele>251.8</ele>
        <time>2026-05-17T10:32:25.999Z</time>
      </trkpt>
      <trkpt lat="43.65321" lon="3.35828">
        <ele>251.8</ele>
        <time>2026-05-17T10:32:26.999Z</time>
      </trkpt>
      <trkpt lat="43.65321" lon="3.35828">
        <ele>252</ele>
        <time>2026-05-17T10:32:27.999Z</time>
      </trkpt>
      <trkpt lat="43.65322" lon="3.35828">
        <ele>252.1</ele>
        <time>2026-05-17T10:32:28.999Z</time>
      </trkpt>
      <trkpt lat="43.65322" lon="3.35828">
        <ele>252.1</ele>
        <time>2026-05-17T10:32:29.999Z</time>
      </trkpt>
      <trkpt lat="43.65322" lon="3.35828">
        <ele>252.1</ele>
        <time>2026-05-17T10:32:30.999Z</time>
      </trkpt>
      <trkpt lat="43.65323" lon="3.35828">
        <ele>252.3</ele>
        <time>2026-05-17T10:32:31.999Z</time>
      </trkpt>
      <trkpt lat="43.65323" lon="3.35828">
        <ele>252.7</ele>
        <time>2026-05-17T10:32:32.999Z</time>
      </trkpt>
      <trkpt lat="43.65323" lon="3.35828">
        <ele>252.7</ele>
        <time>2026-05-17T10:32:33.999Z</time>
      </trkpt>
      <trkpt lat="43.65324" lon="3.35829">
        <ele>252.9</ele>
        <time>2026-05-17T10:32:34.999Z</time>
      </trkpt>
      <trkpt lat="43.65324" lon="3.35829">
        <ele>253.1</ele>
        <time>2026-05-17T10:32:35.999Z</time>
      </trkpt>
      <trkpt lat="43.65325" lon="3.3583">
        <ele>253.2</ele>
        <time>2026-05-17T10:32:36.999Z</time>
      </trkpt>
      <trkpt lat="43.65326" lon="3.3583">
        <ele>253.4</ele>
        <time>2026-05-17T10:32:37.999Z</time>
      </trkpt>
      <trkpt lat="43.65327" lon="3.3583">
        <ele>253.4</ele>
        <time>2026-05-17T10:32:38.999Z</time>
      </trkpt>
      <trkpt lat="43.65327" lon="3.35831">
        <ele>253.5</ele>
        <time>2026-05-17T10:32:39.999Z</time>
      </trkpt>
      <trkpt lat="43.65328" lon="3.35831">
        <ele>253.6</ele>
        <time>2026-05-17T10:32:40.999Z</time>
      </trkpt>
      <trkpt lat="43.65329" lon="3.35832">
        <ele>253.7</ele>
        <time>2026-05-17T10:32:41.999Z</time>
      </trkpt>
      <trkpt lat="43.6533" lon="3.35832">
        <ele>253.9</ele>
        <time>2026-05-17T10:32:42.999Z</time>
      </trkpt>
      <trkpt lat="43.6533" lon="3.35833">
        <ele>254.3</ele>
        <time>2026-05-17T10:32:43.999Z</time>
      </trkpt>
      <trkpt lat="43.6533" lon="3.35833">
        <ele>254.6</ele>
        <time>2026-05-17T10:32:44.999Z</time>
      </trkpt>
      <trkpt lat="43.6533" lon="3.35833">
        <ele>254.8</ele>
        <time>2026-05-17T10:32:45.999Z</time>
      </trkpt>
      <trkpt lat="43.65331" lon="3.35833">
        <ele>255.1</ele>
        <time>2026-05-17T10:32:46.999Z</time>
      </trkpt>
      <trkpt lat="43.65331" lon="3.35833">
        <ele>255.3</ele>
        <time>2026-05-17T10:32:47.999Z</time>
      </trkpt>
      <trkpt lat="43.65332" lon="3.35833">
        <ele>255.5</ele>
        <time>2026-05-17T10:32:48.999Z</time>
      </trkpt>
      <trkpt lat="43.65333" lon="3.35833">
        <ele>255.7</ele>
        <time>2026-05-17T10:32:49.999Z</time>
      </trkpt>
      <trkpt lat="43.65333" lon="3.35833">
        <ele>255.9</ele>
        <time>2026-05-17T10:32:50.999Z</time>
      </trkpt>
      <trkpt lat="43.65334" lon="3.35834">
        <ele>256.2</ele>
        <time>2026-05-17T10:32:51.999Z</time>
      </trkpt>
      <trkpt lat="43.65335" lon="3.35834">
        <ele>256.5</ele>
        <time>2026-05-17T10:32:52.999Z</time>
      </trkpt>
      <trkpt lat="43.65336" lon="3.35835">
        <ele>256.8</ele>
        <time>2026-05-17T10:32:53.999Z</time>
      </trkpt>
      <trkpt lat="43.65337" lon="3.35835">
        <ele>257</ele>
        <time>2026-05-17T10:32:54.999Z</time>
      </trkpt>
      <trkpt lat="43.65337" lon="3.35835">
        <ele>257</ele>
        <time>2026-05-17T10:32:55.999Z</time>
      </trkpt>
      <trkpt lat="43.65338" lon="3.35835">
        <ele>257</ele>
        <time>2026-05-17T10:32:56.999Z</time>
      </trkpt>
      <trkpt lat="43.65338" lon="3.35835">
        <ele>256.9</ele>
        <time>2026-05-17T10:32:57.999Z</time>
      </trkpt>
      <trkpt lat="43.65339" lon="3.35835">
        <ele>256.9</ele>
        <time>2026-05-17T10:32:58.999Z</time>
      </trkpt>
      <trkpt lat="43.6534" lon="3.35836">
        <ele>256.9</ele>
        <time>2026-05-17T10:32:59.999Z</time>
      </trkpt>
      <trkpt lat="43.6534" lon="3.35836">
        <ele>257.1</ele>
        <time>2026-05-17T10:33:00.999Z</time>
      </trkpt>
      <trkpt lat="43.6534" lon="3.35837">
        <ele>257.4</ele>
        <time>2026-05-17T10:33:01.999Z</time>
      </trkpt>
      <trkpt lat="43.65341" lon="3.35837">
        <ele>257.6</ele>
        <time>2026-05-17T10:33:02.999Z</time>
      </trkpt>
      <trkpt lat="43.65341" lon="3.35838">
        <ele>257.9</ele>
        <time>2026-05-17T10:33:03.999Z</time>
      </trkpt>
      <trkpt lat="43.65341" lon="3.35838">
        <ele>258.1</ele>
        <time>2026-05-17T10:33:04.999Z</time>
      </trkpt>
      <trkpt lat="43.65342" lon="3.35838">
        <ele>258.1</ele>
        <time>2026-05-17T10:33:05.999Z</time>
      </trkpt>
      <trkpt lat="43.65342" lon="3.35838">
        <ele>258.1</ele>
        <time>2026-05-17T10:33:06.999Z</time>
      </trkpt>
      <trkpt lat="43.65343" lon="3.35838">
        <ele>257.9</ele>
        <time>2026-05-17T10:33:07.999Z</time>
      </trkpt>
      <trkpt lat="43.65343" lon="3.35839">
        <ele>257.9</ele>
        <time>2026-05-17T10:33:08.999Z</time>
      </trkpt>
      <trkpt lat="43.65342" lon="3.3584">
        <ele>257.9</ele>
        <time>2026-05-17T10:33:09.999Z</time>
      </trkpt>
      <trkpt lat="43.65342" lon="3.35841">
        <ele>257.9</ele>
        <time>2026-05-17T10:33:10.999Z</time>
      </trkpt>
      <trkpt lat="43.65343" lon="3.35842">
        <ele>257.6</ele>
        <time>2026-05-17T10:33:11.999Z</time>
      </trkpt>
      <trkpt lat="43.65342" lon="3.35843">
        <ele>257.8</ele>
        <time>2026-05-17T10:33:12.999Z</time>
      </trkpt>
      <trkpt lat="43.65343" lon="3.35843">
        <ele>257.9</ele>
        <time>2026-05-17T10:33:13.999Z</time>
      </trkpt>
      <trkpt lat="43.65343" lon="3.35843">
        <ele>258</ele>
        <time>2026-05-17T10:33:14.999Z</time>
      </trkpt>
      <trkpt lat="43.65343" lon="3.35843">
        <ele>258.2</ele>
        <time>2026-05-17T10:33:15.999Z</time>
      </trkpt>
      <trkpt lat="43.65343" lon="3.35843">
        <ele>258.3</ele>
        <time>2026-05-17T10:33:16.999Z</time>
      </trkpt>
      <trkpt lat="43.65343" lon="3.35843">
        <ele>258.3</ele>
        <time>2026-05-17T10:33:17.999Z</time>
      </trkpt>
      <trkpt lat="43.65343" lon="3.35843">
        <ele>258.4</ele>
        <time>2026-05-17T10:33:18.999Z</time>
      </trkpt>
      <trkpt lat="43.65343" lon="3.35843">
        <ele>258.5</ele>
        <time>2026-05-17T10:33:19.999Z</time>
      </trkpt>
      <trkpt lat="43.65344" lon="3.35844">
        <ele>258.7</ele>
        <time>2026-05-17T10:33:20.999Z</time>
      </trkpt>
      <trkpt lat="43.65344" lon="3.35844">
        <ele>258.8</ele>
        <time>2026-05-17T10:33:21.999Z</time>
      </trkpt>
      <trkpt lat="43.65344" lon="3.35844">
        <ele>258.9</ele>
        <time>2026-05-17T10:33:22.999Z</time>
      </trkpt>
      <trkpt lat="43.65344" lon="3.35844">
        <ele>259</ele>
        <time>2026-05-17T10:33:23.999Z</time>
      </trkpt>
      <trkpt lat="43.65345" lon="3.35844">
        <ele>259.2</ele>
        <time>2026-05-17T10:33:24.999Z</time>
      </trkpt>
      <trkpt lat="43.65346" lon="3.35844">
        <ele>259.4</ele>
        <time>2026-05-17T10:33:25.999Z</time>
      </trkpt>
      <trkpt lat="43.65347" lon="3.35844">
        <ele>259.6</ele>
        <time>2026-05-17T10:33:26.999Z</time>
      </trkpt>
      <trkpt lat="43.65347" lon="3.35845">
        <ele>259.8</ele>
        <time>2026-05-17T10:33:27.999Z</time>
      </trkpt>
      <trkpt lat="43.65347" lon="3.35845">
        <ele>260</ele>
        <time>2026-05-17T10:33:28.999Z</time>
      </trkpt>
      <trkpt lat="43.65348" lon="3.35845">
        <ele>259.9</ele>
        <time>2026-05-17T10:33:29.999Z</time>
      </trkpt>
      <trkpt lat="43.65348" lon="3.35845">
        <ele>260.1</ele>
        <time>2026-05-17T10:33:30.999Z</time>
      </trkpt>
      <trkpt lat="43.65348" lon="3.35845">
        <ele>260.2</ele>
        <time>2026-05-17T10:33:31.999Z</time>
      </trkpt>
      <trkpt lat="43.65349" lon="3.35846">
        <ele>260.3</ele>
        <time>2026-05-17T10:33:32.999Z</time>
      </trkpt>
      <trkpt lat="43.6535" lon="3.35846">
        <ele>260.2</ele>
        <time>2026-05-17T10:33:33.999Z</time>
      </trkpt>
      <trkpt lat="43.65351" lon="3.35847">
        <ele>260.3</ele>
        <time>2026-05-17T10:33:34.999Z</time>
      </trkpt>
      <trkpt lat="43.65351" lon="3.35848">
        <ele>260.2</ele>
        <time>2026-05-17T10:33:35.999Z</time>
      </trkpt>
      <trkpt lat="43.65352" lon="3.35848">
        <ele>260.3</ele>
        <time>2026-05-17T10:33:36.999Z</time>
      </trkpt>
      <trkpt lat="43.65352" lon="3.35849">
        <ele>260.4</ele>
        <time>2026-05-17T10:33:37.999Z</time>
      </trkpt>
      <trkpt lat="43.65352" lon="3.3585">
        <ele>260.6</ele>
        <time>2026-05-17T10:33:38.999Z</time>
      </trkpt>
      <trkpt lat="43.65353" lon="3.3585">
        <ele>260.8</ele>
        <time>2026-05-17T10:33:39.999Z</time>
      </trkpt>
      <trkpt lat="43.65354" lon="3.35851">
        <ele>261</ele>
        <time>2026-05-17T10:33:40.999Z</time>
      </trkpt>
      <trkpt lat="43.65354" lon="3.35851">
        <ele>261.2</ele>
        <time>2026-05-17T10:33:41.999Z</time>
      </trkpt>
      <trkpt lat="43.65354" lon="3.35851">
        <ele>261.4</ele>
        <time>2026-05-17T10:33:42.999Z</time>
      </trkpt>
      <trkpt lat="43.65354" lon="3.35851">
        <ele>261.6</ele>
        <time>2026-05-17T10:33:43.999Z</time>
      </trkpt>
      <trkpt lat="43.65354" lon="3.35851">
        <ele>261.7</ele>
        <time>2026-05-17T10:33:44.999Z</time>
      </trkpt>
      <trkpt lat="43.65354" lon="3.3585">
        <ele>261.9</ele>
        <time>2026-05-17T10:33:45.999Z</time>
      </trkpt>
      <trkpt lat="43.65355" lon="3.35851">
        <ele>262</ele>
        <time>2026-05-17T10:33:46.999Z</time>
      </trkpt>
      <trkpt lat="43.65355" lon="3.35851">
        <ele>262.1</ele>
        <time>2026-05-17T10:33:47.999Z</time>
      </trkpt>
      <trkpt lat="43.65355" lon="3.35851">
        <ele>262.3</ele>
        <time>2026-05-17T10:33:48.999Z</time>
      </trkpt>
      <trkpt lat="43.65355" lon="3.35851">
        <ele>262.2</ele>
        <time>2026-05-17T10:33:49.999Z</time>
      </trkpt>
      <trkpt lat="43.65355" lon="3.35851">
        <ele>262.4</ele>
        <time>2026-05-17T10:33:50.999Z</time>
      </trkpt>
      <trkpt lat="43.65355" lon="3.35851">
        <ele>262.6</ele>
        <time>2026-05-17T10:33:51.999Z</time>
      </trkpt>
      <trkpt lat="43.65355" lon="3.35851">
        <ele>262.7</ele>
        <time>2026-05-17T10:33:52.999Z</time>
      </trkpt>
      <trkpt lat="43.65355" lon="3.35851">
        <ele>262.7</ele>
        <time>2026-05-17T10:33:53.999Z</time>
      </trkpt>
      <trkpt lat="43.65355" lon="3.35852">
        <ele>262.8</ele>
        <time>2026-05-17T10:33:54.999Z</time>
      </trkpt>
      <trkpt lat="43.65356" lon="3.35852">
        <ele>263</ele>
        <time>2026-05-17T10:33:55.999Z</time>
      </trkpt>
      <trkpt lat="43.65356" lon="3.35852">
        <ele>263.1</ele>
        <time>2026-05-17T10:33:56.999Z</time>
      </trkpt>
      <trkpt lat="43.65356" lon="3.35852">
        <ele>263.5</ele>
        <time>2026-05-17T10:33:57.999Z</time>
      </trkpt>
      <trkpt lat="43.65356" lon="3.35852">
        <ele>263.9</ele>
        <time>2026-05-17T10:33:58.999Z</time>
      </trkpt>
      <trkpt lat="43.65357" lon="3.35852">
        <ele>264.2</ele>
        <time>2026-05-17T10:33:59.999Z</time>
      </trkpt>
      <trkpt lat="43.65357" lon="3.35851">
        <ele>264.4</ele>
        <time>2026-05-17T10:34:00.999Z</time>
      </trkpt>
      <trkpt lat="43.65357" lon="3.35851">
        <ele>264.6</ele>
        <time>2026-05-17T10:34:01.999Z</time>
      </trkpt>
      <trkpt lat="43.65357" lon="3.35851">
        <ele>264.8</ele>
        <time>2026-05-17T10:34:02.999Z</time>
      </trkpt>
      <trkpt lat="43.65358" lon="3.35851">
        <ele>265</ele>
        <time>2026-05-17T10:34:03.999Z</time>
      </trkpt>
      <trkpt lat="43.65358" lon="3.35851">
        <ele>265.1</ele>
        <time>2026-05-17T10:34:04.999Z</time>
      </trkpt>
      <trkpt lat="43.65359" lon="3.3585">
        <ele>265.3</ele>
        <time>2026-05-17T10:34:05.999Z</time>
      </trkpt>
      <trkpt lat="43.65359" lon="3.3585">
        <ele>265.4</ele>
        <time>2026-05-17T10:34:06.999Z</time>
      </trkpt>
      <trkpt lat="43.6536" lon="3.35849">
        <ele>265.4</ele>
        <time>2026-05-17T10:34:07.999Z</time>
      </trkpt>
      <trkpt lat="43.65361" lon="3.35849">
        <ele>265.4</ele>
        <time>2026-05-17T10:34:08.999Z</time>
      </trkpt>
      <trkpt lat="43.65361" lon="3.35849">
        <ele>265.4</ele>
        <time>2026-05-17T10:34:09.999Z</time>
      </trkpt>
      <trkpt lat="43.65361" lon="3.35848">
        <ele>265.4</ele>
        <time>2026-05-17T10:34:10.999Z</time>
      </trkpt>
      <trkpt lat="43.65361" lon="3.35848">
        <ele>265.5</ele>
        <time>2026-05-17T10:34:11.999Z</time>
      </trkpt>
      <trkpt lat="43.65361" lon="3.35847">
        <ele>265.7</ele>
        <time>2026-05-17T10:34:12.999Z</time>
      </trkpt>
      <trkpt lat="43.65362" lon="3.35846">
        <ele>265.8</ele>
        <time>2026-05-17T10:34:13.999Z</time>
      </trkpt>
      <trkpt lat="43.65363" lon="3.35845">
        <ele>266</ele>
        <time>2026-05-17T10:34:14.999Z</time>
      </trkpt>
      <trkpt lat="43.65363" lon="3.35844">
        <ele>266.3</ele>
        <time>2026-05-17T10:34:15.999Z</time>
      </trkpt>
      <trkpt lat="43.65364" lon="3.35844">
        <ele>266.5</ele>
        <time>2026-05-17T10:34:16.999Z</time>
      </trkpt>
      <trkpt lat="43.65365" lon="3.35845">
        <ele>266.7</ele>
        <time>2026-05-17T10:34:17.999Z</time>
      </trkpt>
      <trkpt lat="43.65365" lon="3.35845">
        <ele>267.1</ele>
        <time>2026-05-17T10:34:18.999Z</time>
      </trkpt>
      <trkpt lat="43.65366" lon="3.35846">
        <ele>267.1</ele>
        <time>2026-05-17T10:34:19.999Z</time>
      </trkpt>
      <trkpt lat="43.65366" lon="3.35846">
        <ele>267.4</ele>
        <time>2026-05-17T10:34:20.999Z</time>
      </trkpt>
      <trkpt lat="43.65366" lon="3.35847">
        <ele>267.5</ele>
        <time>2026-05-17T10:34:21.999Z</time>
      </trkpt>
      <trkpt lat="43.65367" lon="3.35846">
        <ele>267.6</ele>
        <time>2026-05-17T10:34:22.999Z</time>
      </trkpt>
      <trkpt lat="43.65368" lon="3.35846">
        <ele>267.7</ele>
        <time>2026-05-17T10:34:23.999Z</time>
      </trkpt>
      <trkpt lat="43.65369" lon="3.35846">
        <ele>268.2</ele>
        <time>2026-05-17T10:34:24.999Z</time>
      </trkpt>
      <trkpt lat="43.65369" lon="3.35846">
        <ele>268.7</ele>
        <time>2026-05-17T10:34:25.999Z</time>
      </trkpt>
      <trkpt lat="43.65369" lon="3.35846">
        <ele>268.9</ele>
        <time>2026-05-17T10:34:26.999Z</time>
      </trkpt>
      <trkpt lat="43.65369" lon="3.35846">
        <ele>269.2</ele>
        <time>2026-05-17T10:34:27.999Z</time>
      </trkpt>
      <trkpt lat="43.65369" lon="3.35846">
        <ele>269.3</ele>
        <time>2026-05-17T10:34:28.999Z</time>
      </trkpt>
      <trkpt lat="43.6537" lon="3.35846">
        <ele>269.5</ele>
        <time>2026-05-17T10:34:29.999Z</time>
      </trkpt>
      <trkpt lat="43.65372" lon="3.35846">
        <ele>269.8</ele>
        <time>2026-05-17T10:34:30.999Z</time>
      </trkpt>
      <trkpt lat="43.65373" lon="3.35845">
        <ele>270.1</ele>
        <time>2026-05-17T10:34:31.999Z</time>
      </trkpt>
      <trkpt lat="43.65374" lon="3.35846">
        <ele>270.4</ele>
        <time>2026-05-17T10:34:32.999Z</time>
      </trkpt>
      <trkpt lat="43.65376" lon="3.35846">
        <ele>270.6</ele>
        <time>2026-05-17T10:34:33.999Z</time>
      </trkpt>
      <trkpt lat="43.65377" lon="3.35846">
        <ele>270.7</ele>
        <time>2026-05-17T10:34:34.999Z</time>
      </trkpt>
      <trkpt lat="43.65379" lon="3.35846">
        <ele>270.9</ele>
        <time>2026-05-17T10:34:35.999Z</time>
      </trkpt>
      <trkpt lat="43.6538" lon="3.35846">
        <ele>271</ele>
        <time>2026-05-17T10:34:36.999Z</time>
      </trkpt>
      <trkpt lat="43.65381" lon="3.35846">
        <ele>271.2</ele>
        <time>2026-05-17T10:34:37.999Z</time>
      </trkpt>
      <trkpt lat="43.65381" lon="3.35846">
        <ele>271.1</ele>
        <time>2026-05-17T10:34:38.999Z</time>
      </trkpt>
      <trkpt lat="43.65381" lon="3.35846">
        <ele>271.1</ele>
        <time>2026-05-17T10:34:39.999Z</time>
      </trkpt>
      <trkpt lat="43.65381" lon="3.35846">
        <ele>271.5</ele>
        <time>2026-05-17T10:34:40.999Z</time>
      </trkpt>
      <trkpt lat="43.65381" lon="3.35846">
        <ele>271.7</ele>
        <time>2026-05-17T10:34:41.999Z</time>
      </trkpt>
      <trkpt lat="43.65381" lon="3.35846">
        <ele>271.8</ele>
        <time>2026-05-17T10:34:42.999Z</time>
      </trkpt>
      <trkpt lat="43.65381" lon="3.35846">
        <ele>271.9</ele>
        <time>2026-05-17T10:34:43.999Z</time>
      </trkpt>
      <trkpt lat="43.65381" lon="3.35846">
        <ele>272</ele>
        <time>2026-05-17T10:34:44.999Z</time>
      </trkpt>
      <trkpt lat="43.65381" lon="3.35846">
        <ele>272.2</ele>
        <time>2026-05-17T10:34:45.999Z</time>
      </trkpt>
      <trkpt lat="43.65381" lon="3.35846">
        <ele>272.1</ele>
        <time>2026-05-17T10:34:46.999Z</time>
      </trkpt>
      <trkpt lat="43.65382" lon="3.35845">
        <ele>272.2</ele>
        <time>2026-05-17T10:34:47.999Z</time>
      </trkpt>
      <trkpt lat="43.65382" lon="3.35845">
        <ele>272.3</ele>
        <time>2026-05-17T10:34:48.999Z</time>
      </trkpt>
      <trkpt lat="43.65383" lon="3.35845">
        <ele>272.4</ele>
        <time>2026-05-17T10:34:49.999Z</time>
      </trkpt>
      <trkpt lat="43.65383" lon="3.35845">
        <ele>272.5</ele>
        <time>2026-05-17T10:34:50.999Z</time>
      </trkpt>
      <trkpt lat="43.65384" lon="3.35845">
        <ele>272.6</ele>
        <time>2026-05-17T10:34:51.999Z</time>
      </trkpt>
      <trkpt lat="43.65384" lon="3.35844">
        <ele>272.8</ele>
        <time>2026-05-17T10:34:52.999Z</time>
      </trkpt>
      <trkpt lat="43.65384" lon="3.35844">
        <ele>272.8</ele>
        <time>2026-05-17T10:34:53.999Z</time>
      </trkpt>
      <trkpt lat="43.65384" lon="3.35845">
        <ele>272.8</ele>
        <time>2026-05-17T10:34:54.999Z</time>
      </trkpt>
      <trkpt lat="43.65384" lon="3.35845">
        <ele>273.1</ele>
        <time>2026-05-17T10:34:55.999Z</time>
      </trkpt>
      <trkpt lat="43.65384" lon="3.35845">
        <ele>273</ele>
        <time>2026-05-17T10:34:56.999Z</time>
      </trkpt>
      <trkpt lat="43.65384" lon="3.35844">
        <ele>273</ele>
        <time>2026-05-17T10:34:57.999Z</time>
      </trkpt>
      <trkpt lat="43.65385" lon="3.35843">
        <ele>273</ele>
        <time>2026-05-17T10:34:58.999Z</time>
      </trkpt>
      <trkpt lat="43.65386" lon="3.35843">
        <ele>273.1</ele>
        <time>2026-05-17T10:34:59.999Z</time>
      </trkpt>
      <trkpt lat="43.65385" lon="3.35842">
        <ele>273.2</ele>
        <time>2026-05-17T10:35:00.999Z</time>
      </trkpt>
      <trkpt lat="43.65385" lon="3.35842">
        <ele>273.3</ele>
        <time>2026-05-17T10:35:01.999Z</time>
      </trkpt>
      <trkpt lat="43.65385" lon="3.35842">
        <ele>273.4</ele>
        <time>2026-05-17T10:35:02.999Z</time>
      </trkpt>
      <trkpt lat="43.65385" lon="3.35842">
        <ele>273.6</ele>
        <time>2026-05-17T10:35:03.999Z</time>
      </trkpt>
      <trkpt lat="43.65385" lon="3.35842">
        <ele>273.9</ele>
        <time>2026-05-17T10:35:04.999Z</time>
      </trkpt>
      <trkpt lat="43.65385" lon="3.35842">
        <ele>274.1</ele>
        <time>2026-05-17T10:35:05.999Z</time>
      </trkpt>
      <trkpt lat="43.65385" lon="3.35842">
        <ele>274.1</ele>
        <time>2026-05-17T10:35:06.999Z</time>
      </trkpt>
      <trkpt lat="43.65385" lon="3.35842">
        <ele>274.2</ele>
        <time>2026-05-17T10:35:07.999Z</time>
      </trkpt>
      <trkpt lat="43.65385" lon="3.35842">
        <ele>274.3</ele>
        <time>2026-05-17T10:35:08.999Z</time>
      </trkpt>
      <trkpt lat="43.65385" lon="3.35842">
        <ele>274.3</ele>
        <time>2026-05-17T10:35:09.999Z</time>
      </trkpt>
      <trkpt lat="43.65385" lon="3.35842">
        <ele>274.3</ele>
        <time>2026-05-17T10:35:10.999Z</time>
      </trkpt>
      <trkpt lat="43.65385" lon="3.35842">
        <ele>274.3</ele>
        <time>2026-05-17T10:35:11.999Z</time>
      </trkpt>
      <trkpt lat="43.65385" lon="3.35842">
        <ele>274.4</ele>
        <time>2026-05-17T10:35:12.999Z</time>
      </trkpt>
      <trkpt lat="43.65385" lon="3.35842">
        <ele>274.4</ele>
        <time>2026-05-17T10:35:13.999Z</time>
      </trkpt>
      <trkpt lat="43.65385" lon="3.35842">
        <ele>274.5</ele>
        <time>2026-05-17T10:35:14.999Z</time>
      </trkpt>
      <trkpt lat="43.65386" lon="3.35842">
        <ele>274.7</ele>
        <time>2026-05-17T10:35:15.999Z</time>
      </trkpt>
      <trkpt lat="43.65386" lon="3.35842">
        <ele>274.8</ele>
        <time>2026-05-17T10:35:16.999Z</time>
      </trkpt>
      <trkpt lat="43.65386" lon="3.35841">
        <ele>274.9</ele>
        <time>2026-05-17T10:35:17.999Z</time>
      </trkpt>
      <trkpt lat="43.65386" lon="3.35841">
        <ele>275.1</ele>
        <time>2026-05-17T10:35:18.999Z</time>
      </trkpt>
      <trkpt lat="43.65386" lon="3.3584">
        <ele>275.3</ele>
        <time>2026-05-17T10:35:19.999Z</time>
      </trkpt>
      <trkpt lat="43.65386" lon="3.3584">
        <ele>275.5</ele>
        <time>2026-05-17T10:35:20.999Z</time>
      </trkpt>
      <trkpt lat="43.65386" lon="3.3584">
        <ele>275.3</ele>
        <time>2026-05-17T10:35:21.999Z</time>
      </trkpt>
      <trkpt lat="43.65386" lon="3.3584">
        <ele>275.3</ele>
        <time>2026-05-17T10:35:22.999Z</time>
      </trkpt>
      <trkpt lat="43.65386" lon="3.3584">
        <ele>275.3</ele>
        <time>2026-05-17T10:35:23.999Z</time>
      </trkpt>
      <trkpt lat="43.65386" lon="3.3584">
        <ele>275.3</ele>
        <time>2026-05-17T10:35:24.999Z</time>
      </trkpt>
      <trkpt lat="43.65386" lon="3.3584">
        <ele>275.3</ele>
        <time>2026-05-17T10:35:25.999Z</time>
      </trkpt>
      <trkpt lat="43.65386" lon="3.3584">
        <ele>275.2</ele>
        <time>2026-05-17T10:35:26.999Z</time>
      </trkpt>
      <trkpt lat="43.65386" lon="3.3584">
        <ele>275.2</ele>
        <time>2026-05-17T10:35:27.999Z</time>
      </trkpt>
      <trkpt lat="43.65386" lon="3.35839">
        <ele>275.4</ele>
        <time>2026-05-17T10:35:28.999Z</time>
      </trkpt>
      <trkpt lat="43.65386" lon="3.35839">
        <ele>275.5</ele>
        <time>2026-05-17T10:35:29.999Z</time>
      </trkpt>
      <trkpt lat="43.65386" lon="3.35839">
        <ele>275.9</ele>
        <time>2026-05-17T10:35:30.999Z</time>
      </trkpt>
      <trkpt lat="43.65386" lon="3.35839">
        <ele>276.1</ele>
        <time>2026-05-17T10:35:31.999Z</time>
      </trkpt>
      <trkpt lat="43.65386" lon="3.3584">
        <ele>276.2</ele>
        <time>2026-05-17T10:35:32.999Z</time>
      </trkpt>
      <trkpt lat="43.65386" lon="3.3584">
        <ele>276.4</ele>
        <time>2026-05-17T10:35:33.999Z</time>
      </trkpt>
      <trkpt lat="43.65387" lon="3.3584">
        <ele>276.4</ele>
        <time>2026-05-17T10:35:34.999Z</time>
      </trkpt>
      <trkpt lat="43.65387" lon="3.3584">
        <ele>276.5</ele>
        <time>2026-05-17T10:35:35.999Z</time>
      </trkpt>
      <trkpt lat="43.65387" lon="3.35839">
        <ele>276.5</ele>
        <time>2026-05-17T10:35:36.999Z</time>
      </trkpt>
      <trkpt lat="43.65387" lon="3.35839">
        <ele>276.5</ele>
        <time>2026-05-17T10:35:37.999Z</time>
      </trkpt>
      <trkpt lat="43.65387" lon="3.35839">
        <ele>276.5</ele>
        <time>2026-05-17T10:35:38.999Z</time>
      </trkpt>
      <trkpt lat="43.65387" lon="3.35839">
        <ele>276.6</ele>
        <time>2026-05-17T10:35:39.999Z</time>
      </trkpt>
      <trkpt lat="43.65387" lon="3.35839">
        <ele>276.5</ele>
        <time>2026-05-17T10:35:40.999Z</time>
      </trkpt>
      <trkpt lat="43.65387" lon="3.35839">
        <ele>276.5</ele>
        <time>2026-05-17T10:35:41.999Z</time>
      </trkpt>
      <trkpt lat="43.65387" lon="3.35839">
        <ele>276.6</ele>
        <time>2026-05-17T10:35:42.999Z</time>
      </trkpt>
      <trkpt lat="43.65387" lon="3.35839">
        <ele>276.6</ele>
        <time>2026-05-17T10:35:43.999Z</time>
      </trkpt>
      <trkpt lat="43.65388" lon="3.35838">
        <ele>276.7</ele>
        <time>2026-05-17T10:35:44.999Z</time>
      </trkpt>
      <trkpt lat="43.65388" lon="3.35837">
        <ele>276.9</ele>
        <time>2026-05-17T10:35:45.999Z</time>
      </trkpt>
      <trkpt lat="43.65389" lon="3.35837">
        <ele>276.9</ele>
        <time>2026-05-17T10:35:46.999Z</time>
      </trkpt>
      <trkpt lat="43.6539" lon="3.35837">
        <ele>277</ele>
        <time>2026-05-17T10:35:47.999Z</time>
      </trkpt>
      <trkpt lat="43.65391" lon="3.35836">
        <ele>277.1</ele>
        <time>2026-05-17T10:35:48.999Z</time>
      </trkpt>
      <trkpt lat="43.65392" lon="3.35837">
        <ele>277.1</ele>
        <time>2026-05-17T10:35:49.999Z</time>
      </trkpt>
      <trkpt lat="43.65393" lon="3.35837">
        <ele>277</ele>
        <time>2026-05-17T10:35:50.999Z</time>
      </trkpt>
      <trkpt lat="43.65394" lon="3.35837">
        <ele>277.1</ele>
        <time>2026-05-17T10:35:51.999Z</time>
      </trkpt>
      <trkpt lat="43.65395" lon="3.35837">
        <ele>277.3</ele>
        <time>2026-05-17T10:35:52.999Z</time>
      </trkpt>
      <trkpt lat="43.65396" lon="3.35836">
        <ele>277.5</ele>
        <time>2026-05-17T10:35:53.999Z</time>
      </trkpt>
      <trkpt lat="43.65397" lon="3.35836">
        <ele>277.6</ele>
        <time>2026-05-17T10:35:54.999Z</time>
      </trkpt>
      <trkpt lat="43.65398" lon="3.35836">
        <ele>277.7</ele>
        <time>2026-05-17T10:35:55.999Z</time>
      </trkpt>
      <trkpt lat="43.65398" lon="3.35836">
        <ele>277.7</ele>
        <time>2026-05-17T10:35:56.999Z</time>
      </trkpt>
      <trkpt lat="43.65399" lon="3.35836">
        <ele>277.8</ele>
        <time>2026-05-17T10:35:57.999Z</time>
      </trkpt>
      <trkpt lat="43.654" lon="3.35836">
        <ele>277.9</ele>
        <time>2026-05-17T10:35:58.999Z</time>
      </trkpt>
      <trkpt lat="43.65401" lon="3.35836">
        <ele>277.8</ele>
        <time>2026-05-17T10:35:59.999Z</time>
      </trkpt>
      <trkpt lat="43.65401" lon="3.35837">
        <ele>277.9</ele>
        <time>2026-05-17T10:36:00.999Z</time>
      </trkpt>
      <trkpt lat="43.65402" lon="3.35837">
        <ele>278</ele>
        <time>2026-05-17T10:36:01.999Z</time>
      </trkpt>
      <trkpt lat="43.65403" lon="3.35837">
        <ele>278.2</ele>
        <time>2026-05-17T10:36:02.999Z</time>
      </trkpt>
      <trkpt lat="43.65403" lon="3.35837">
        <ele>278</ele>
        <time>2026-05-17T10:36:03.999Z</time>
      </trkpt>
      <trkpt lat="43.65403" lon="3.35837">
        <ele>278.1</ele>
        <time>2026-05-17T10:36:04.999Z</time>
      </trkpt>
      <trkpt lat="43.65404" lon="3.35837">
        <ele>278.2</ele>
        <time>2026-05-17T10:36:05.999Z</time>
      </trkpt>
      <trkpt lat="43.65405" lon="3.35837">
        <ele>278.4</ele>
        <time>2026-05-17T10:36:06.999Z</time>
      </trkpt>
      <trkpt lat="43.65406" lon="3.35837">
        <ele>278.5</ele>
        <time>2026-05-17T10:36:07.999Z</time>
      </trkpt>
      <trkpt lat="43.65407" lon="3.35837">
        <ele>278.6</ele>
        <time>2026-05-17T10:36:08.999Z</time>
      </trkpt>
      <trkpt lat="43.65408" lon="3.35838">
        <ele>278.7</ele>
        <time>2026-05-17T10:36:09.999Z</time>
      </trkpt>
      <trkpt lat="43.65408" lon="3.35838">
        <ele>278.8</ele>
        <time>2026-05-17T10:36:10.999Z</time>
      </trkpt>
      <trkpt lat="43.65409" lon="3.35838">
        <ele>278.9</ele>
        <time>2026-05-17T10:36:11.999Z</time>
      </trkpt>
      <trkpt lat="43.65409" lon="3.35838">
        <ele>278.8</ele>
        <time>2026-05-17T10:36:12.999Z</time>
      </trkpt>
      <trkpt lat="43.65409" lon="3.35838">
        <ele>279.3</ele>
        <time>2026-05-17T10:36:13.999Z</time>
      </trkpt>
      <trkpt lat="43.65409" lon="3.35838">
        <ele>279.4</ele>
        <time>2026-05-17T10:36:14.999Z</time>
      </trkpt>
      <trkpt lat="43.6541" lon="3.35838">
        <ele>279.4</ele>
        <time>2026-05-17T10:36:15.999Z</time>
      </trkpt>
      <trkpt lat="43.6541" lon="3.35838">
        <ele>279.5</ele>
        <time>2026-05-17T10:36:16.999Z</time>
      </trkpt>
      <trkpt lat="43.6541" lon="3.35838">
        <ele>279.7</ele>
        <time>2026-05-17T10:36:17.999Z</time>
      </trkpt>
      <trkpt lat="43.6541" lon="3.35838">
        <ele>279.8</ele>
        <time>2026-05-17T10:36:18.999Z</time>
      </trkpt>
      <trkpt lat="43.6541" lon="3.35838">
        <ele>279.8</ele>
        <time>2026-05-17T10:36:19.999Z</time>
      </trkpt>
      <trkpt lat="43.6541" lon="3.35838">
        <ele>280</ele>
        <time>2026-05-17T10:36:20.999Z</time>
      </trkpt>
      <trkpt lat="43.6541" lon="3.35838">
        <ele>280.2</ele>
        <time>2026-05-17T10:36:21.999Z</time>
      </trkpt>
      <trkpt lat="43.6541" lon="3.35839">
        <ele>280.5</ele>
        <time>2026-05-17T10:36:22.999Z</time>
      </trkpt>
      <trkpt lat="43.6541" lon="3.35839">
        <ele>280.6</ele>
        <time>2026-05-17T10:36:23.999Z</time>
      </trkpt>
      <trkpt lat="43.6541" lon="3.35839">
        <ele>280.6</ele>
        <time>2026-05-17T10:36:24.999Z</time>
      </trkpt>
      <trkpt lat="43.6541" lon="3.35839">
        <ele>280.6</ele>
        <time>2026-05-17T10:36:25.999Z</time>
      </trkpt>
      <trkpt lat="43.6541" lon="3.35839">
        <ele>280.6</ele>
        <time>2026-05-17T10:36:26.999Z</time>
      </trkpt>
      <trkpt lat="43.6541" lon="3.35839">
        <ele>280.5</ele>
        <time>2026-05-17T10:36:27.999Z</time>
      </trkpt>
      <trkpt lat="43.6541" lon="3.35839">
        <ele>280.7</ele>
        <time>2026-05-17T10:36:28.999Z</time>
      </trkpt>
      <trkpt lat="43.6541" lon="3.35839">
        <ele>280.9</ele>
        <time>2026-05-17T10:36:29.999Z</time>
      </trkpt>
      <trkpt lat="43.6541" lon="3.35839">
        <ele>281.1</ele>
        <time>2026-05-17T10:36:30.999Z</time>
      </trkpt>
      <trkpt lat="43.6541" lon="3.3584">
        <ele>281.4</ele>
        <time>2026-05-17T10:36:31.999Z</time>
      </trkpt>
      <trkpt lat="43.6541" lon="3.35841">
        <ele>281.5</ele>
        <time>2026-05-17T10:36:32.999Z</time>
      </trkpt>
      <trkpt lat="43.6541" lon="3.35842">
        <ele>281.7</ele>
        <time>2026-05-17T10:36:33.999Z</time>
      </trkpt>
      <trkpt lat="43.6541" lon="3.35843">
        <ele>282</ele>
        <time>2026-05-17T10:36:34.999Z</time>
      </trkpt>
      <trkpt lat="43.65409" lon="3.35843">
        <ele>282.3</ele>
        <time>2026-05-17T10:36:35.999Z</time>
      </trkpt>
      <trkpt lat="43.65408" lon="3.35844">
        <ele>282.4</ele>
        <time>2026-05-17T10:36:36.999Z</time>
      </trkpt>
      <trkpt lat="43.65408" lon="3.35844">
        <ele>282.2</ele>
        <time>2026-05-17T10:36:37.999Z</time>
      </trkpt>
      <trkpt lat="43.65408" lon="3.35844">
        <ele>282.1</ele>
        <time>2026-05-17T10:36:38.999Z</time>
      </trkpt>
      <trkpt lat="43.65408" lon="3.35844">
        <ele>281.8</ele>
        <time>2026-05-17T10:36:39.999Z</time>
      </trkpt>
      <trkpt lat="43.65408" lon="3.35844">
        <ele>281.2</ele>
        <time>2026-05-17T10:36:40.999Z</time>
      </trkpt>
      <trkpt lat="43.65408" lon="3.35844">
        <ele>281</ele>
        <time>2026-05-17T10:36:41.999Z</time>
      </trkpt>
      <trkpt lat="43.65408" lon="3.35845">
        <ele>281</ele>
        <time>2026-05-17T10:36:42.999Z</time>
      </trkpt>
      <trkpt lat="43.65407" lon="3.35845">
        <ele>281</ele>
        <time>2026-05-17T10:36:43.999Z</time>
      </trkpt>
      <trkpt lat="43.65407" lon="3.35846">
        <ele>281.1</ele>
        <time>2026-05-17T10:36:44.999Z</time>
      </trkpt>
      <trkpt lat="43.65407" lon="3.35846">
        <ele>281.2</ele>
        <time>2026-05-17T10:36:45.999Z</time>
      </trkpt>
      <trkpt lat="43.65406" lon="3.35847">
        <ele>281.2</ele>
        <time>2026-05-17T10:36:46.999Z</time>
      </trkpt>
      <trkpt lat="43.65406" lon="3.35847">
        <ele>281.4</ele>
        <time>2026-05-17T10:36:47.999Z</time>
      </trkpt>
      <trkpt lat="43.65406" lon="3.35847">
        <ele>281.5</ele>
        <time>2026-05-17T10:36:48.999Z</time>
      </trkpt>
      <trkpt lat="43.65406" lon="3.35848">
        <ele>281.7</ele>
        <time>2026-05-17T10:36:49.999Z</time>
      </trkpt>
      <trkpt lat="43.65406" lon="3.35849">
        <ele>281.7</ele>
        <time>2026-05-17T10:36:50.999Z</time>
      </trkpt>
      <trkpt lat="43.65405" lon="3.3585">
        <ele>281.6</ele>
        <time>2026-05-17T10:36:51.999Z</time>
      </trkpt>
      <trkpt lat="43.65405" lon="3.3585">
        <ele>281.7</ele>
        <time>2026-05-17T10:36:52.999Z</time>
      </trkpt>
      <trkpt lat="43.65405" lon="3.35851">
        <ele>281.9</ele>
        <time>2026-05-17T10:36:53.999Z</time>
      </trkpt>
      <trkpt lat="43.65405" lon="3.35852">
        <ele>282.1</ele>
        <time>2026-05-17T10:36:54.999Z</time>
      </trkpt>
      <trkpt lat="43.65404" lon="3.35853">
        <ele>282.3</ele>
        <time>2026-05-17T10:36:55.999Z</time>
      </trkpt>
      <trkpt lat="43.65404" lon="3.35854">
        <ele>282.5</ele>
        <time>2026-05-17T10:36:56.999Z</time>
      </trkpt>
      <trkpt lat="43.65404" lon="3.35854">
        <ele>282.5</ele>
        <time>2026-05-17T10:36:57.999Z</time>
      </trkpt>
      <trkpt lat="43.65405" lon="3.35855">
        <ele>282.5</ele>
        <time>2026-05-17T10:36:58.999Z</time>
      </trkpt>
      <trkpt lat="43.65405" lon="3.35855">
        <ele>282.8</ele>
        <time>2026-05-17T10:36:59.999Z</time>
      </trkpt>
      <trkpt lat="43.65406" lon="3.35855">
        <ele>283</ele>
        <time>2026-05-17T10:37:00.999Z</time>
      </trkpt>
      <trkpt lat="43.65407" lon="3.35854">
        <ele>283.3</ele>
        <time>2026-05-17T10:37:01.999Z</time>
      </trkpt>
      <trkpt lat="43.65407" lon="3.35855">
        <ele>283.7</ele>
        <time>2026-05-17T10:37:02.999Z</time>
      </trkpt>
      <trkpt lat="43.65407" lon="3.35855">
        <ele>283.6</ele>
        <time>2026-05-17T10:37:03.999Z</time>
      </trkpt>
      <trkpt lat="43.65407" lon="3.35855">
        <ele>283.8</ele>
        <time>2026-05-17T10:37:04.999Z</time>
      </trkpt>
      <trkpt lat="43.65407" lon="3.35855">
        <ele>283.9</ele>
        <time>2026-05-17T10:37:05.999Z</time>
      </trkpt>
      <trkpt lat="43.65407" lon="3.35855">
        <ele>284</ele>
        <time>2026-05-17T10:37:06.999Z</time>
      </trkpt>
      <trkpt lat="43.65407" lon="3.35855">
        <ele>284.1</ele>
        <time>2026-05-17T10:37:07.999Z</time>
      </trkpt>
      <trkpt lat="43.65407" lon="3.35855">
        <ele>284.3</ele>
        <time>2026-05-17T10:37:08.999Z</time>
      </trkpt>
      <trkpt lat="43.65407" lon="3.35855">
        <ele>284.6</ele>
        <time>2026-05-17T10:37:09.999Z</time>
      </trkpt>
      <trkpt lat="43.65407" lon="3.35855">
        <ele>284.8</ele>
        <time>2026-05-17T10:37:10.999Z</time>
      </trkpt>
      <trkpt lat="43.65407" lon="3.35855">
        <ele>285.1</ele>
        <time>2026-05-17T10:37:11.999Z</time>
      </trkpt>
      <trkpt lat="43.65407" lon="3.35856">
        <ele>285.2</ele>
        <time>2026-05-17T10:37:12.999Z</time>
      </trkpt>
      <trkpt lat="43.65407" lon="3.35856">
        <ele>285.3</ele>
        <time>2026-05-17T10:37:13.999Z</time>
      </trkpt>
      <trkpt lat="43.65407" lon="3.35856">
        <ele>285.5</ele>
        <time>2026-05-17T10:37:14.999Z</time>
      </trkpt>
      <trkpt lat="43.65407" lon="3.35857">
        <ele>285.6</ele>
        <time>2026-05-17T10:37:15.999Z</time>
      </trkpt>
      <trkpt lat="43.65407" lon="3.35857">
        <ele>285.7</ele>
        <time>2026-05-17T10:37:16.999Z</time>
      </trkpt>
      <trkpt lat="43.65407" lon="3.35857">
        <ele>285.9</ele>
        <time>2026-05-17T10:37:17.999Z</time>
      </trkpt>
      <trkpt lat="43.65407" lon="3.35857">
        <ele>286.2</ele>
        <time>2026-05-17T10:37:18.999Z</time>
      </trkpt>
      <trkpt lat="43.65407" lon="3.35857">
        <ele>286.5</ele>
        <time>2026-05-17T10:37:19.999Z</time>
      </trkpt>
      <trkpt lat="43.65407" lon="3.35858">
        <ele>286.9</ele>
        <time>2026-05-17T10:37:20.999Z</time>
      </trkpt>
      <trkpt lat="43.65407" lon="3.35858">
        <ele>287.2</ele>
        <time>2026-05-17T10:37:21.999Z</time>
      </trkpt>
      <trkpt lat="43.65407" lon="3.35858">
        <ele>287.4</ele>
        <time>2026-05-17T10:37:22.999Z</time>
      </trkpt>
      <trkpt lat="43.65407" lon="3.35858">
        <ele>287.6</ele>
        <time>2026-05-17T10:37:23.999Z</time>
      </trkpt>
      <trkpt lat="43.65407" lon="3.35859">
        <ele>287.9</ele>
        <time>2026-05-17T10:37:24.999Z</time>
      </trkpt>
      <trkpt lat="43.65407" lon="3.35861">
        <ele>288.1</ele>
        <time>2026-05-17T10:37:25.999Z</time>
      </trkpt>
      <trkpt lat="43.65407" lon="3.35862">
        <ele>288.1</ele>
        <time>2026-05-17T10:37:26.999Z</time>
      </trkpt>
      <trkpt lat="43.65407" lon="3.35862">
        <ele>288.2</ele>
        <time>2026-05-17T10:37:27.999Z</time>
      </trkpt>
      <trkpt lat="43.65407" lon="3.35862">
        <ele>288.2</ele>
        <time>2026-05-17T10:37:28.999Z</time>
      </trkpt>
      <trkpt lat="43.65407" lon="3.35862">
        <ele>288.3</ele>
        <time>2026-05-17T10:37:29.999Z</time>
      </trkpt>
      <trkpt lat="43.65407" lon="3.35862">
        <ele>288.4</ele>
        <time>2026-05-17T10:37:30.999Z</time>
      </trkpt>
      <trkpt lat="43.65407" lon="3.35862">
        <ele>288.5</ele>
        <time>2026-05-17T10:37:31.999Z</time>
      </trkpt>
      <trkpt lat="43.65407" lon="3.35862">
        <ele>288.4</ele>
        <time>2026-05-17T10:37:32.999Z</time>
      </trkpt>
      <trkpt lat="43.65407" lon="3.35862">
        <ele>288.4</ele>
        <time>2026-05-17T10:37:33.999Z</time>
      </trkpt>
      <trkpt lat="43.65407" lon="3.35862">
        <ele>288.6</ele>
        <time>2026-05-17T10:37:34.999Z</time>
      </trkpt>
      <trkpt lat="43.65407" lon="3.35862">
        <ele>288.7</ele>
        <time>2026-05-17T10:37:35.999Z</time>
      </trkpt>
      <trkpt lat="43.65407" lon="3.35862">
        <ele>288.9</ele>
        <time>2026-05-17T10:37:36.999Z</time>
      </trkpt>
      <trkpt lat="43.65407" lon="3.35863">
        <ele>289.4</ele>
        <time>2026-05-17T10:37:37.999Z</time>
      </trkpt>
      <trkpt lat="43.65407" lon="3.35863">
        <ele>289.8</ele>
        <time>2026-05-17T10:37:38.999Z</time>
      </trkpt>
      <trkpt lat="43.65407" lon="3.35863">
        <ele>290</ele>
        <time>2026-05-17T10:37:39.999Z</time>
      </trkpt>
      <trkpt lat="43.65407" lon="3.35863">
        <ele>290.4</ele>
        <time>2026-05-17T10:37:40.999Z</time>
      </trkpt>
      <trkpt lat="43.65407" lon="3.35864">
        <ele>290.7</ele>
        <time>2026-05-17T10:37:41.999Z</time>
      </trkpt>
      <trkpt lat="43.65407" lon="3.35865">
        <ele>290.9</ele>
        <time>2026-05-17T10:37:42.999Z</time>
      </trkpt>
      <trkpt lat="43.65408" lon="3.35866">
        <ele>290.9</ele>
        <time>2026-05-17T10:37:43.999Z</time>
      </trkpt>
      <trkpt lat="43.65408" lon="3.35866">
        <ele>291.1</ele>
        <time>2026-05-17T10:37:44.999Z</time>
      </trkpt>
      <trkpt lat="43.65408" lon="3.35866">
        <ele>291.1</ele>
        <time>2026-05-17T10:37:45.999Z</time>
      </trkpt>
      <trkpt lat="43.65408" lon="3.35866">
        <ele>290.9</ele>
        <time>2026-05-17T10:37:46.999Z</time>
      </trkpt>
      <trkpt lat="43.65408" lon="3.35866">
        <ele>291.1</ele>
        <time>2026-05-17T10:37:47.999Z</time>
      </trkpt>
      <trkpt lat="43.65408" lon="3.35866">
        <ele>291.3</ele>
        <time>2026-05-17T10:37:48.999Z</time>
      </trkpt>
      <trkpt lat="43.65408" lon="3.35867">
        <ele>291.6</ele>
        <time>2026-05-17T10:37:49.999Z</time>
      </trkpt>
      <trkpt lat="43.65408" lon="3.35867">
        <ele>291.6</ele>
        <time>2026-05-17T10:37:50.999Z</time>
      </trkpt>
      <trkpt lat="43.65408" lon="3.35867">
        <ele>291.8</ele>
        <time>2026-05-17T10:37:51.999Z</time>
      </trkpt>
      <trkpt lat="43.65408" lon="3.35867">
        <ele>291.8</ele>
        <time>2026-05-17T10:37:52.999Z</time>
      </trkpt>
      <trkpt lat="43.65408" lon="3.35867">
        <ele>291.8</ele>
        <time>2026-05-17T10:37:53.999Z</time>
      </trkpt>
      <trkpt lat="43.65408" lon="3.35867">
        <ele>291.8</ele>
        <time>2026-05-17T10:37:54.999Z</time>
      </trkpt>
      <trkpt lat="43.65408" lon="3.35867">
        <ele>291.9</ele>
        <time>2026-05-17T10:37:55.999Z</time>
      </trkpt>
      <trkpt lat="43.65408" lon="3.35868">
        <ele>292</ele>
        <time>2026-05-17T10:37:56.999Z</time>
      </trkpt>
      <trkpt lat="43.65408" lon="3.35868">
        <ele>292.2</ele>
        <time>2026-05-17T10:37:57.999Z</time>
      </trkpt>
      <trkpt lat="43.65408" lon="3.35868">
        <ele>292.3</ele>
        <time>2026-05-17T10:37:58.999Z</time>
      </trkpt>
      <trkpt lat="43.65408" lon="3.35868">
        <ele>292.3</ele>
        <time>2026-05-17T10:37:59.999Z</time>
      </trkpt>
      <trkpt lat="43.65408" lon="3.35869">
        <ele>292.4</ele>
        <time>2026-05-17T10:38:00.999Z</time>
      </trkpt>
      <trkpt lat="43.65408" lon="3.35869">
        <ele>292.5</ele>
        <time>2026-05-17T10:38:01.999Z</time>
      </trkpt>
      <trkpt lat="43.65409" lon="3.35869">
        <ele>292.4</ele>
        <time>2026-05-17T10:38:02.999Z</time>
      </trkpt>
      <trkpt lat="43.65409" lon="3.35871">
        <ele>292.5</ele>
        <time>2026-05-17T10:38:03.999Z</time>
      </trkpt>
      <trkpt lat="43.65409" lon="3.35872">
        <ele>292.5</ele>
        <time>2026-05-17T10:38:04.999Z</time>
      </trkpt>
      <trkpt lat="43.65409" lon="3.35873">
        <ele>292.6</ele>
        <time>2026-05-17T10:38:05.999Z</time>
      </trkpt>
      <trkpt lat="43.65409" lon="3.35874">
        <ele>292.7</ele>
        <time>2026-05-17T10:38:06.999Z</time>
      </trkpt>
      <trkpt lat="43.65409" lon="3.35874">
        <ele>292.9</ele>
        <time>2026-05-17T10:38:07.999Z</time>
      </trkpt>
      <trkpt lat="43.65409" lon="3.35874">
        <ele>292.8</ele>
        <time>2026-05-17T10:38:08.999Z</time>
      </trkpt>
      <trkpt lat="43.65409" lon="3.35874">
        <ele>292.9</ele>
        <time>2026-05-17T10:38:09.999Z</time>
      </trkpt>
      <trkpt lat="43.65409" lon="3.35874">
        <ele>292.8</ele>
        <time>2026-05-17T10:38:10.999Z</time>
      </trkpt>
      <trkpt lat="43.65408" lon="3.35875">
        <ele>293</ele>
        <time>2026-05-17T10:38:12.999Z</time>
      </trkpt>
      <trkpt lat="43.65408" lon="3.35876">
        <ele>293.1</ele>
        <time>2026-05-17T10:38:13.999Z</time>
      </trkpt>
      <trkpt lat="43.65408" lon="3.35877">
        <ele>292.9</ele>
        <time>2026-05-17T10:38:14.999Z</time>
      </trkpt>
      <trkpt lat="43.65408" lon="3.35879">
        <ele>292.9</ele>
        <time>2026-05-17T10:38:15.999Z</time>
      </trkpt>
      <trkpt lat="43.65407" lon="3.35879">
        <ele>292.8</ele>
        <time>2026-05-17T10:38:16.999Z</time>
      </trkpt>
      <trkpt lat="43.65408" lon="3.35879">
        <ele>293</ele>
        <time>2026-05-17T10:38:17.999Z</time>
      </trkpt>
      <trkpt lat="43.65408" lon="3.3588">
        <ele>293.1</ele>
        <time>2026-05-17T10:38:18.999Z</time>
      </trkpt>
      <trkpt lat="43.65408" lon="3.3588">
        <ele>293.1</ele>
        <time>2026-05-17T10:38:19.999Z</time>
      </trkpt>
      <trkpt lat="43.65408" lon="3.3588">
        <ele>292.9</ele>
        <time>2026-05-17T10:38:20.999Z</time>
      </trkpt>
      <trkpt lat="43.65407" lon="3.35881">
        <ele>292.8</ele>
        <time>2026-05-17T10:38:21.999Z</time>
      </trkpt>
      <trkpt lat="43.65407" lon="3.35881">
        <ele>292.8</ele>
        <time>2026-05-17T10:38:22.999Z</time>
      </trkpt>
      <trkpt lat="43.65407" lon="3.35881">
        <ele>292.9</ele>
        <time>2026-05-17T10:38:23.999Z</time>
      </trkpt>
      <trkpt lat="43.65406" lon="3.35881">
        <ele>293.2</ele>
        <time>2026-05-17T10:38:24.999Z</time>
      </trkpt>
      <trkpt lat="43.65406" lon="3.35882">
        <ele>293.4</ele>
        <time>2026-05-17T10:38:25.999Z</time>
      </trkpt>
      <trkpt lat="43.65406" lon="3.35884">
        <ele>293.3</ele>
        <time>2026-05-17T10:38:26.999Z</time>
      </trkpt>
      <trkpt lat="43.65406" lon="3.35886">
        <ele>293.4</ele>
        <time>2026-05-17T10:38:27.999Z</time>
      </trkpt>
      <trkpt lat="43.65406" lon="3.35886">
        <ele>293.3</ele>
        <time>2026-05-17T10:38:28.999Z</time>
      </trkpt>
      <trkpt lat="43.65405" lon="3.35887">
        <ele>293.4</ele>
        <time>2026-05-17T10:38:29.999Z</time>
      </trkpt>
      <trkpt lat="43.65405" lon="3.35889">
        <ele>293.3</ele>
        <time>2026-05-17T10:38:30.999Z</time>
      </trkpt>
      <trkpt lat="43.65405" lon="3.3589">
        <ele>293.2</ele>
        <time>2026-05-17T10:38:31.999Z</time>
      </trkpt>
      <trkpt lat="43.65405" lon="3.35891">
        <ele>293.3</ele>
        <time>2026-05-17T10:38:32.999Z</time>
      </trkpt>
      <trkpt lat="43.65405" lon="3.35893">
        <ele>293.3</ele>
        <time>2026-05-17T10:38:33.999Z</time>
      </trkpt>
      <trkpt lat="43.65405" lon="3.35893">
        <ele>293.8</ele>
        <time>2026-05-17T10:38:34.999Z</time>
      </trkpt>
      <trkpt lat="43.65405" lon="3.35894">
        <ele>293.9</ele>
        <time>2026-05-17T10:38:35.999Z</time>
      </trkpt>
      <trkpt lat="43.65405" lon="3.35895">
        <ele>294</ele>
        <time>2026-05-17T10:38:36.999Z</time>
      </trkpt>
      <trkpt lat="43.65406" lon="3.35896">
        <ele>294.1</ele>
        <time>2026-05-17T10:38:37.999Z</time>
      </trkpt>
      <trkpt lat="43.65406" lon="3.35896">
        <ele>294.3</ele>
        <time>2026-05-17T10:38:38.999Z</time>
      </trkpt>
      <trkpt lat="43.65406" lon="3.35896">
        <ele>294.4</ele>
        <time>2026-05-17T10:38:39.999Z</time>
      </trkpt>
      <trkpt lat="43.65406" lon="3.35897">
        <ele>294.4</ele>
        <time>2026-05-17T10:38:40.999Z</time>
      </trkpt>
      <trkpt lat="43.65406" lon="3.35897">
        <ele>294.6</ele>
        <time>2026-05-17T10:38:41.999Z</time>
      </trkpt>
      <trkpt lat="43.65406" lon="3.35898">
        <ele>294.7</ele>
        <time>2026-05-17T10:38:42.999Z</time>
      </trkpt>
      <trkpt lat="43.65406" lon="3.35898">
        <ele>294.7</ele>
        <time>2026-05-17T10:38:43.999Z</time>
      </trkpt>
      <trkpt lat="43.65406" lon="3.35898">
        <ele>294.7</ele>
        <time>2026-05-17T10:38:44.999Z</time>
      </trkpt>
      <trkpt lat="43.65406" lon="3.35898">
        <ele>294.9</ele>
        <time>2026-05-17T10:38:45.999Z</time>
      </trkpt>
      <trkpt lat="43.65406" lon="3.35899">
        <ele>294.7</ele>
        <time>2026-05-17T10:38:46.999Z</time>
      </trkpt>
      <trkpt lat="43.65406" lon="3.35899">
        <ele>294.6</ele>
        <time>2026-05-17T10:38:47.999Z</time>
      </trkpt>
      <trkpt lat="43.65406" lon="3.35899">
        <ele>294.6</ele>
        <time>2026-05-17T10:38:48.999Z</time>
      </trkpt>
      <trkpt lat="43.65406" lon="3.35899">
        <ele>294.5</ele>
        <time>2026-05-17T10:38:49.999Z</time>
      </trkpt>
      <trkpt lat="43.65406" lon="3.35899">
        <ele>294.3</ele>
        <time>2026-05-17T10:38:50.999Z</time>
      </trkpt>
      <trkpt lat="43.65405" lon="3.359">
        <ele>294</ele>
        <time>2026-05-17T10:38:51.999Z</time>
      </trkpt>
      <trkpt lat="43.65405" lon="3.35901">
        <ele>293.8</ele>
        <time>2026-05-17T10:38:52.999Z</time>
      </trkpt>
      <trkpt lat="43.65404" lon="3.35902">
        <ele>293.8</ele>
        <time>2026-05-17T10:38:53.999Z</time>
      </trkpt>
      <trkpt lat="43.65404" lon="3.35903">
        <ele>293.6</ele>
        <time>2026-05-17T10:38:54.999Z</time>
      </trkpt>
      <trkpt lat="43.65403" lon="3.35904">
        <ele>293.3</ele>
        <time>2026-05-17T10:38:55.999Z</time>
      </trkpt>
      <trkpt lat="43.65403" lon="3.35906">
        <ele>293.2</ele>
        <time>2026-05-17T10:38:56.999Z</time>
      </trkpt>
      <trkpt lat="43.65402" lon="3.35907">
        <ele>293</ele>
        <time>2026-05-17T10:38:57.999Z</time>
      </trkpt>
      <trkpt lat="43.65402" lon="3.35909">
        <ele>292.8</ele>
        <time>2026-05-17T10:38:58.999Z</time>
      </trkpt>
      <trkpt lat="43.65402" lon="3.35911">
        <ele>292.6</ele>
        <time>2026-05-17T10:38:59.999Z</time>
      </trkpt>
      <trkpt lat="43.65402" lon="3.35912">
        <ele>292.7</ele>
        <time>2026-05-17T10:39:00.999Z</time>
      </trkpt>
      <trkpt lat="43.65402" lon="3.35913">
        <ele>292.7</ele>
        <time>2026-05-17T10:39:01.999Z</time>
      </trkpt>
      <trkpt lat="43.65402" lon="3.35914">
        <ele>292.8</ele>
        <time>2026-05-17T10:39:02.999Z</time>
      </trkpt>
      <trkpt lat="43.65402" lon="3.35915">
        <ele>293</ele>
        <time>2026-05-17T10:39:03.999Z</time>
      </trkpt>
      <trkpt lat="43.65402" lon="3.35916">
        <ele>293</ele>
        <time>2026-05-17T10:39:04.999Z</time>
      </trkpt>
      <trkpt lat="43.65402" lon="3.35917">
        <ele>293.1</ele>
        <time>2026-05-17T10:39:05.999Z</time>
      </trkpt>
      <trkpt lat="43.65402" lon="3.35918">
        <ele>293.3</ele>
        <time>2026-05-17T10:39:06.999Z</time>
      </trkpt>
      <trkpt lat="43.65402" lon="3.35919">
        <ele>293.5</ele>
        <time>2026-05-17T10:39:07.999Z</time>
      </trkpt>
      <trkpt lat="43.65402" lon="3.3592">
        <ele>293.7</ele>
        <time>2026-05-17T10:39:08.999Z</time>
      </trkpt>
      <trkpt lat="43.65402" lon="3.35921">
        <ele>293.6</ele>
        <time>2026-05-17T10:39:09.999Z</time>
      </trkpt>
      <trkpt lat="43.65402" lon="3.35922">
        <ele>293.7</ele>
        <time>2026-05-17T10:39:10.999Z</time>
      </trkpt>
      <trkpt lat="43.65402" lon="3.35923">
        <ele>293.9</ele>
        <time>2026-05-17T10:39:11.999Z</time>
      </trkpt>
      <trkpt lat="43.65402" lon="3.35923">
        <ele>294.1</ele>
        <time>2026-05-17T10:39:12.999Z</time>
      </trkpt>
      <trkpt lat="43.65401" lon="3.35925">
        <ele>294.1</ele>
        <time>2026-05-17T10:39:13.999Z</time>
      </trkpt>
      <trkpt lat="43.65401" lon="3.35926">
        <ele>294.1</ele>
        <time>2026-05-17T10:39:14.999Z</time>
      </trkpt>
      <trkpt lat="43.654" lon="3.35928">
        <ele>294.2</ele>
        <time>2026-05-17T10:39:15.999Z</time>
      </trkpt>
      <trkpt lat="43.654" lon="3.35929">
        <ele>294.3</ele>
        <time>2026-05-17T10:39:16.999Z</time>
      </trkpt>
      <trkpt lat="43.654" lon="3.3593">
        <ele>294.4</ele>
        <time>2026-05-17T10:39:17.999Z</time>
      </trkpt>
      <trkpt lat="43.65399" lon="3.35931">
        <ele>294.4</ele>
        <time>2026-05-17T10:39:18.999Z</time>
      </trkpt>
      <trkpt lat="43.65398" lon="3.35932">
        <ele>294.4</ele>
        <time>2026-05-17T10:39:19.999Z</time>
      </trkpt>
      <trkpt lat="43.65397" lon="3.35933">
        <ele>294.3</ele>
        <time>2026-05-17T10:39:20.999Z</time>
      </trkpt>
      <trkpt lat="43.65396" lon="3.35934">
        <ele>294.5</ele>
        <time>2026-05-17T10:39:21.999Z</time>
      </trkpt>
      <trkpt lat="43.65396" lon="3.35935">
        <ele>294.6</ele>
        <time>2026-05-17T10:39:22.999Z</time>
      </trkpt>
      <trkpt lat="43.65395" lon="3.35935">
        <ele>294.8</ele>
        <time>2026-05-17T10:39:23.999Z</time>
      </trkpt>
      <trkpt lat="43.65395" lon="3.35935">
        <ele>295</ele>
        <time>2026-05-17T10:39:24.999Z</time>
      </trkpt>
      <trkpt lat="43.65395" lon="3.35935">
        <ele>295.1</ele>
        <time>2026-05-17T10:39:25.999Z</time>
      </trkpt>
      <trkpt lat="43.65394" lon="3.35936">
        <ele>294.8</ele>
        <time>2026-05-17T10:39:26.999Z</time>
      </trkpt>
      <trkpt lat="43.65394" lon="3.35936">
        <ele>294.9</ele>
        <time>2026-05-17T10:39:27.999Z</time>
      </trkpt>
      <trkpt lat="43.65394" lon="3.35936">
        <ele>295.7</ele>
        <time>2026-05-17T10:39:28.999Z</time>
      </trkpt>
      <trkpt lat="43.65394" lon="3.35936">
        <ele>295.9</ele>
        <time>2026-05-17T10:39:29.999Z</time>
      </trkpt>
      <trkpt lat="43.65394" lon="3.35936">
        <ele>295.8</ele>
        <time>2026-05-17T10:39:30.999Z</time>
      </trkpt>
      <trkpt lat="43.65394" lon="3.35936">
        <ele>295.7</ele>
        <time>2026-05-17T10:39:31.999Z</time>
      </trkpt>
      <trkpt lat="43.65394" lon="3.35936">
        <ele>295.8</ele>
        <time>2026-05-17T10:39:32.999Z</time>
      </trkpt>
      <trkpt lat="43.65394" lon="3.35936">
        <ele>295.8</ele>
        <time>2026-05-17T10:39:33.999Z</time>
      </trkpt>
      <trkpt lat="43.65394" lon="3.35936">
        <ele>296</ele>
        <time>2026-05-17T10:39:34.999Z</time>
      </trkpt>
      <trkpt lat="43.65394" lon="3.35936">
        <ele>296</ele>
        <time>2026-05-17T10:39:35.999Z</time>
      </trkpt>
      <trkpt lat="43.65394" lon="3.35936">
        <ele>295.8</ele>
        <time>2026-05-17T10:39:36.999Z</time>
      </trkpt>
      <trkpt lat="43.65394" lon="3.35936">
        <ele>295.9</ele>
        <time>2026-05-17T10:39:37.999Z</time>
      </trkpt>
      <trkpt lat="43.65394" lon="3.35936">
        <ele>295.9</ele>
        <time>2026-05-17T10:39:38.999Z</time>
      </trkpt>
      <trkpt lat="43.65394" lon="3.35936">
        <ele>296</ele>
        <time>2026-05-17T10:39:39.999Z</time>
      </trkpt>
      <trkpt lat="43.65394" lon="3.35936">
        <ele>295.9</ele>
        <time>2026-05-17T10:39:40.999Z</time>
      </trkpt>
      <trkpt lat="43.65394" lon="3.35936">
        <ele>296</ele>
        <time>2026-05-17T10:39:41.999Z</time>
      </trkpt>
      <trkpt lat="43.65394" lon="3.35936">
        <ele>295.9</ele>
        <time>2026-05-17T10:39:42.999Z</time>
      </trkpt>
      <trkpt lat="43.65394" lon="3.35936">
        <ele>295.8</ele>
        <time>2026-05-17T10:39:43.999Z</time>
      </trkpt>
      <trkpt lat="43.65394" lon="3.35936">
        <ele>295.8</ele>
        <time>2026-05-17T10:39:44.999Z</time>
      </trkpt>
      <trkpt lat="43.65394" lon="3.35936">
        <ele>295.9</ele>
        <time>2026-05-17T10:39:45.999Z</time>
      </trkpt>
      <trkpt lat="43.65394" lon="3.35936">
        <ele>295.8</ele>
        <time>2026-05-17T10:39:46.999Z</time>
      </trkpt>
      <trkpt lat="43.65394" lon="3.35936">
        <ele>295.9</ele>
        <time>2026-05-17T10:39:47.999Z</time>
      </trkpt>
      <trkpt lat="43.65394" lon="3.35936">
        <ele>296</ele>
        <time>2026-05-17T10:39:48.999Z</time>
      </trkpt>
      <trkpt lat="43.65394" lon="3.35936">
        <ele>296.1</ele>
        <time>2026-05-17T10:39:49.999Z</time>
      </trkpt>
      <trkpt lat="43.65394" lon="3.35937">
        <ele>296.1</ele>
        <time>2026-05-17T10:39:50.999Z</time>
      </trkpt>
      <trkpt lat="43.65394" lon="3.35937">
        <ele>296</ele>
        <time>2026-05-17T10:39:51.999Z</time>
      </trkpt>
      <trkpt lat="43.65394" lon="3.35937">
        <ele>296.1</ele>
        <time>2026-05-17T10:39:52.999Z</time>
      </trkpt>
      <trkpt lat="43.65394" lon="3.35937">
        <ele>296.1</ele>
        <time>2026-05-17T10:39:53.999Z</time>
      </trkpt>
      <trkpt lat="43.65394" lon="3.35937">
        <ele>296.1</ele>
        <time>2026-05-17T10:39:54.999Z</time>
      </trkpt>
      <trkpt lat="43.65394" lon="3.35935">
        <ele>296.3</ele>
        <time>2026-05-17T10:39:55.999Z</time>
      </trkpt>
      <trkpt lat="43.65393" lon="3.35935">
        <ele>296.4</ele>
        <time>2026-05-17T10:39:56.999Z</time>
      </trkpt>
      <trkpt lat="43.65393" lon="3.35934">
        <ele>296.6</ele>
        <time>2026-05-17T10:39:57.999Z</time>
      </trkpt>
      <trkpt lat="43.65393" lon="3.35934">
        <ele>296.8</ele>
        <time>2026-05-17T10:39:58.999Z</time>
      </trkpt>
      <trkpt lat="43.65393" lon="3.35934">
        <ele>297</ele>
        <time>2026-05-17T10:39:59.999Z</time>
      </trkpt>
      <trkpt lat="43.65393" lon="3.35934">
        <ele>297.1</ele>
        <time>2026-05-17T10:40:00.999Z</time>
      </trkpt>
      <trkpt lat="43.65393" lon="3.35934">
        <ele>297.3</ele>
        <time>2026-05-17T10:40:01.999Z</time>
      </trkpt>
      <trkpt lat="43.65393" lon="3.35934">
        <ele>297.4</ele>
        <time>2026-05-17T10:40:02.999Z</time>
      </trkpt>
      <trkpt lat="43.65393" lon="3.35934">
        <ele>297.3</ele>
        <time>2026-05-17T10:40:03.999Z</time>
      </trkpt>
      <trkpt lat="43.65393" lon="3.35935">
        <ele>297.3</ele>
        <time>2026-05-17T10:40:04.999Z</time>
      </trkpt>
      <trkpt lat="43.65394" lon="3.35935">
        <ele>297.4</ele>
        <time>2026-05-17T10:40:05.999Z</time>
      </trkpt>
      <trkpt lat="43.65394" lon="3.35936">
        <ele>297.4</ele>
        <time>2026-05-17T10:40:06.999Z</time>
      </trkpt>
      <trkpt lat="43.65394" lon="3.35937">
        <ele>297.4</ele>
        <time>2026-05-17T10:40:07.999Z</time>
      </trkpt>
      <trkpt lat="43.65395" lon="3.35938">
        <ele>297.3</ele>
        <time>2026-05-17T10:40:08.999Z</time>
      </trkpt>
      <trkpt lat="43.65395" lon="3.35939">
        <ele>297.3</ele>
        <time>2026-05-17T10:40:09.999Z</time>
      </trkpt>
      <trkpt lat="43.65395" lon="3.35939">
        <ele>297.2</ele>
        <time>2026-05-17T10:40:10.999Z</time>
      </trkpt>
      <trkpt lat="43.65396" lon="3.3594">
        <ele>297.1</ele>
        <time>2026-05-17T10:40:11.999Z</time>
      </trkpt>
      <trkpt lat="43.65396" lon="3.35941">
        <ele>297</ele>
        <time>2026-05-17T10:40:12.999Z</time>
      </trkpt>
      <trkpt lat="43.65397" lon="3.35942">
        <ele>296.8</ele>
        <time>2026-05-17T10:40:13.999Z</time>
      </trkpt>
      <trkpt lat="43.65397" lon="3.35942">
        <ele>296.5</ele>
        <time>2026-05-17T10:40:14.999Z</time>
      </trkpt>
      <trkpt lat="43.65397" lon="3.35943">
        <ele>296.5</ele>
        <time>2026-05-17T10:40:15.999Z</time>
      </trkpt>
      <trkpt lat="43.65398" lon="3.35943">
        <ele>296.2</ele>
        <time>2026-05-17T10:40:16.999Z</time>
      </trkpt>
      <trkpt lat="43.65399" lon="3.35944">
        <ele>296.2</ele>
        <time>2026-05-17T10:40:17.999Z</time>
      </trkpt>
      <trkpt lat="43.65399" lon="3.35944">
        <ele>296</ele>
        <time>2026-05-17T10:40:18.999Z</time>
      </trkpt>
      <trkpt lat="43.654" lon="3.35945">
        <ele>295.8</ele>
        <time>2026-05-17T10:40:19.999Z</time>
      </trkpt>
      <trkpt lat="43.654" lon="3.35945">
        <ele>295.7</ele>
        <time>2026-05-17T10:40:20.999Z</time>
      </trkpt>
      <trkpt lat="43.654" lon="3.35947">
        <ele>295.5</ele>
        <time>2026-05-17T10:40:21.999Z</time>
      </trkpt>
      <trkpt lat="43.654" lon="3.35948">
        <ele>295.4</ele>
        <time>2026-05-17T10:40:22.999Z</time>
      </trkpt>
      <trkpt lat="43.654" lon="3.35949">
        <ele>295.4</ele>
        <time>2026-05-17T10:40:23.999Z</time>
      </trkpt>
      <trkpt lat="43.654" lon="3.3595">
        <ele>295.7</ele>
        <time>2026-05-17T10:40:24.999Z</time>
      </trkpt>
      <trkpt lat="43.654" lon="3.35952">
        <ele>295.5</ele>
        <time>2026-05-17T10:40:25.999Z</time>
      </trkpt>
      <trkpt lat="43.654" lon="3.35953">
        <ele>295.4</ele>
        <time>2026-05-17T10:40:26.999Z</time>
      </trkpt>
      <trkpt lat="43.654" lon="3.35953">
        <ele>295.6</ele>
        <time>2026-05-17T10:40:27.999Z</time>
      </trkpt>
      <trkpt lat="43.654" lon="3.35953">
        <ele>295.5</ele>
        <time>2026-05-17T10:40:28.999Z</time>
      </trkpt>
      <trkpt lat="43.654" lon="3.35953">
        <ele>295.5</ele>
        <time>2026-05-17T10:40:29.999Z</time>
      </trkpt>
      <trkpt lat="43.654" lon="3.35953">
        <ele>295.6</ele>
        <time>2026-05-17T10:40:30.999Z</time>
      </trkpt>
      <trkpt lat="43.654" lon="3.35954">
        <ele>295.7</ele>
        <time>2026-05-17T10:40:31.999Z</time>
      </trkpt>
      <trkpt lat="43.65399" lon="3.35956">
        <ele>296</ele>
        <time>2026-05-17T10:40:32.999Z</time>
      </trkpt>
      <trkpt lat="43.65399" lon="3.35958">
        <ele>296.1</ele>
        <time>2026-05-17T10:40:33.999Z</time>
      </trkpt>
      <trkpt lat="43.65398" lon="3.3596">
        <ele>296.2</ele>
        <time>2026-05-17T10:40:34.999Z</time>
      </trkpt>
      <trkpt lat="43.65397" lon="3.35961">
        <ele>296.1</ele>
        <time>2026-05-17T10:40:35.999Z</time>
      </trkpt>
      <trkpt lat="43.65397" lon="3.35963">
        <ele>296</ele>
        <time>2026-05-17T10:40:36.999Z</time>
      </trkpt>
      <trkpt lat="43.65397" lon="3.35964">
        <ele>295.9</ele>
        <time>2026-05-17T10:40:37.999Z</time>
      </trkpt>
      <trkpt lat="43.65396" lon="3.35966">
        <ele>295.9</ele>
        <time>2026-05-17T10:40:38.999Z</time>
      </trkpt>
      <trkpt lat="43.65396" lon="3.35968">
        <ele>296.1</ele>
        <time>2026-05-17T10:40:39.999Z</time>
      </trkpt>
      <trkpt lat="43.65396" lon="3.35969">
        <ele>296.4</ele>
        <time>2026-05-17T10:40:40.999Z</time>
      </trkpt>
      <trkpt lat="43.65395" lon="3.3597">
        <ele>296.5</ele>
        <time>2026-05-17T10:40:41.999Z</time>
      </trkpt>
      <trkpt lat="43.65395" lon="3.3597">
        <ele>296.4</ele>
        <time>2026-05-17T10:40:42.999Z</time>
      </trkpt>
      <trkpt lat="43.65395" lon="3.35971">
        <ele>296.5</ele>
        <time>2026-05-17T10:40:43.999Z</time>
      </trkpt>
      <trkpt lat="43.65395" lon="3.35972">
        <ele>296.4</ele>
        <time>2026-05-17T10:40:44.999Z</time>
      </trkpt>
      <trkpt lat="43.65395" lon="3.35972">
        <ele>296</ele>
        <time>2026-05-17T10:40:45.999Z</time>
      </trkpt>
      <trkpt lat="43.65395" lon="3.35973">
        <ele>295.5</ele>
        <time>2026-05-17T10:40:46.999Z</time>
      </trkpt>
      <trkpt lat="43.65396" lon="3.35973">
        <ele>295.6</ele>
        <time>2026-05-17T10:40:47.999Z</time>
      </trkpt>
      <trkpt lat="43.65395" lon="3.35973">
        <ele>295.6</ele>
        <time>2026-05-17T10:40:48.999Z</time>
      </trkpt>
      <trkpt lat="43.65395" lon="3.35973">
        <ele>295.7</ele>
        <time>2026-05-17T10:40:49.999Z</time>
      </trkpt>
      <trkpt lat="43.65395" lon="3.35973">
        <ele>295.9</ele>
        <time>2026-05-17T10:40:50.999Z</time>
      </trkpt>
      <trkpt lat="43.65395" lon="3.35973">
        <ele>296</ele>
        <time>2026-05-17T10:40:51.999Z</time>
      </trkpt>
      <trkpt lat="43.65395" lon="3.35973">
        <ele>296</ele>
        <time>2026-05-17T10:40:52.999Z</time>
      </trkpt>
      <trkpt lat="43.65395" lon="3.35973">
        <ele>296</ele>
        <time>2026-05-17T10:40:53.999Z</time>
      </trkpt>
      <trkpt lat="43.65395" lon="3.35973">
        <ele>295.7</ele>
        <time>2026-05-17T10:40:54.999Z</time>
      </trkpt>
      <trkpt lat="43.65395" lon="3.35973">
        <ele>295.6</ele>
        <time>2026-05-17T10:40:55.999Z</time>
      </trkpt>
      <trkpt lat="43.65395" lon="3.35973">
        <ele>295.5</ele>
        <time>2026-05-17T10:40:56.999Z</time>
      </trkpt>
      <trkpt lat="43.65395" lon="3.35973">
        <ele>295.7</ele>
        <time>2026-05-17T10:40:57.999Z</time>
      </trkpt>
      <trkpt lat="43.65395" lon="3.35973">
        <ele>296</ele>
        <time>2026-05-17T10:40:58.999Z</time>
      </trkpt>
      <trkpt lat="43.65395" lon="3.35973">
        <ele>296.1</ele>
        <time>2026-05-17T10:40:59.999Z</time>
      </trkpt>
      <trkpt lat="43.65396" lon="3.35974">
        <ele>296.1</ele>
        <time>2026-05-17T10:41:00.999Z</time>
      </trkpt>
      <trkpt lat="43.65396" lon="3.35975">
        <ele>296</ele>
        <time>2026-05-17T10:41:01.999Z</time>
      </trkpt>
      <trkpt lat="43.65396" lon="3.35976">
        <ele>295.9</ele>
        <time>2026-05-17T10:41:02.999Z</time>
      </trkpt>
      <trkpt lat="43.65396" lon="3.35976">
        <ele>295.9</ele>
        <time>2026-05-17T10:41:03.999Z</time>
      </trkpt>
      <trkpt lat="43.65396" lon="3.35977">
        <ele>296.2</ele>
        <time>2026-05-17T10:41:04.999Z</time>
      </trkpt>
      <trkpt lat="43.65397" lon="3.35977">
        <ele>296.2</ele>
        <time>2026-05-17T10:41:05.999Z</time>
      </trkpt>
      <trkpt lat="43.65397" lon="3.35978">
        <ele>296.2</ele>
        <time>2026-05-17T10:41:06.999Z</time>
      </trkpt>
      <trkpt lat="43.65397" lon="3.35978">
        <ele>296.1</ele>
        <time>2026-05-17T10:41:07.999Z</time>
      </trkpt>
      <trkpt lat="43.65397" lon="3.35979">
        <ele>296.2</ele>
        <time>2026-05-17T10:41:08.999Z</time>
      </trkpt>
      <trkpt lat="43.65397" lon="3.35979">
        <ele>296.3</ele>
        <time>2026-05-17T10:41:09.999Z</time>
      </trkpt>
      <trkpt lat="43.65397" lon="3.3598">
        <ele>296.2</ele>
        <time>2026-05-17T10:41:10.999Z</time>
      </trkpt>
      <trkpt lat="43.65397" lon="3.35982">
        <ele>296.5</ele>
        <time>2026-05-17T10:41:11.999Z</time>
      </trkpt>
      <trkpt lat="43.65397" lon="3.35982">
        <ele>296.8</ele>
        <time>2026-05-17T10:41:12.999Z</time>
      </trkpt>
      <trkpt lat="43.65397" lon="3.35983">
        <ele>296.8</ele>
        <time>2026-05-17T10:41:13.999Z</time>
      </trkpt>
      <trkpt lat="43.65397" lon="3.35983">
        <ele>296.9</ele>
        <time>2026-05-17T10:41:14.999Z</time>
      </trkpt>
      <trkpt lat="43.65397" lon="3.35983">
        <ele>296.8</ele>
        <time>2026-05-17T10:41:15.999Z</time>
      </trkpt>
      <trkpt lat="43.65397" lon="3.35983">
        <ele>296.8</ele>
        <time>2026-05-17T10:41:16.999Z</time>
      </trkpt>
      <trkpt lat="43.65397" lon="3.35983">
        <ele>296.8</ele>
        <time>2026-05-17T10:41:17.999Z</time>
      </trkpt>
      <trkpt lat="43.65397" lon="3.35983">
        <ele>296.8</ele>
        <time>2026-05-17T10:41:18.999Z</time>
      </trkpt>
      <trkpt lat="43.65397" lon="3.35983">
        <ele>296.7</ele>
        <time>2026-05-17T10:41:19.999Z</time>
      </trkpt>
      <trkpt lat="43.65397" lon="3.35983">
        <ele>296.9</ele>
        <time>2026-05-17T10:41:20.999Z</time>
      </trkpt>
      <trkpt lat="43.65397" lon="3.35983">
        <ele>297.1</ele>
        <time>2026-05-17T10:41:21.999Z</time>
      </trkpt>
      <trkpt lat="43.65397" lon="3.35983">
        <ele>297.1</ele>
        <time>2026-05-17T10:41:22.999Z</time>
      </trkpt>
      <trkpt lat="43.65397" lon="3.35984">
        <ele>297</ele>
        <time>2026-05-17T10:41:23.999Z</time>
      </trkpt>
      <trkpt lat="43.65397" lon="3.35984">
        <ele>297</ele>
        <time>2026-05-17T10:41:24.999Z</time>
      </trkpt>
      <trkpt lat="43.65396" lon="3.35984">
        <ele>296.8</ele>
        <time>2026-05-17T10:41:25.999Z</time>
      </trkpt>
      <trkpt lat="43.65396" lon="3.35984">
        <ele>296.7</ele>
        <time>2026-05-17T10:41:26.999Z</time>
      </trkpt>
      <trkpt lat="43.65397" lon="3.35984">
        <ele>296.6</ele>
        <time>2026-05-17T10:41:27.999Z</time>
      </trkpt>
      <trkpt lat="43.65397" lon="3.35984">
        <ele>296.8</ele>
        <time>2026-05-17T10:41:28.999Z</time>
      </trkpt>
      <trkpt lat="43.65397" lon="3.35984">
        <ele>296.8</ele>
        <time>2026-05-17T10:41:29.999Z</time>
      </trkpt>
      <trkpt lat="43.65397" lon="3.35984">
        <ele>296.9</ele>
        <time>2026-05-17T10:41:30.999Z</time>
      </trkpt>
      <trkpt lat="43.65397" lon="3.35985">
        <ele>297</ele>
        <time>2026-05-17T10:41:31.999Z</time>
      </trkpt>
      <trkpt lat="43.65397" lon="3.35985">
        <ele>297.1</ele>
        <time>2026-05-17T10:41:32.999Z</time>
      </trkpt>
      <trkpt lat="43.65397" lon="3.35985">
        <ele>297.2</ele>
        <time>2026-05-17T10:41:33.999Z</time>
      </trkpt>
      <trkpt lat="43.65397" lon="3.35985">
        <ele>297.2</ele>
        <time>2026-05-17T10:41:34.999Z</time>
      </trkpt>
      <trkpt lat="43.65397" lon="3.35985">
        <ele>297.3</ele>
        <time>2026-05-17T10:41:35.999Z</time>
      </trkpt>
      <trkpt lat="43.65397" lon="3.35986">
        <ele>297.2</ele>
        <time>2026-05-17T10:41:36.999Z</time>
      </trkpt>
      <trkpt lat="43.65396" lon="3.35986">
        <ele>297.4</ele>
        <time>2026-05-17T10:41:37.999Z</time>
      </trkpt>
      <trkpt lat="43.65396" lon="3.35986">
        <ele>297.4</ele>
        <time>2026-05-17T10:41:38.999Z</time>
      </trkpt>
      <trkpt lat="43.65396" lon="3.35986">
        <ele>297.6</ele>
        <time>2026-05-17T10:41:39.999Z</time>
      </trkpt>
      <trkpt lat="43.65396" lon="3.35986">
        <ele>297.8</ele>
        <time>2026-05-17T10:41:40.999Z</time>
      </trkpt>
      <trkpt lat="43.65396" lon="3.35986">
        <ele>298</ele>
        <time>2026-05-17T10:41:41.999Z</time>
      </trkpt>
      <trkpt lat="43.65396" lon="3.35986">
        <ele>298.1</ele>
        <time>2026-05-17T10:41:42.999Z</time>
      </trkpt>
      <trkpt lat="43.65396" lon="3.35986">
        <ele>298.4</ele>
        <time>2026-05-17T10:41:43.999Z</time>
      </trkpt>
      <trkpt lat="43.65396" lon="3.35986">
        <ele>298.9</ele>
        <time>2026-05-17T10:41:44.999Z</time>
      </trkpt>
      <trkpt lat="43.65396" lon="3.35986">
        <ele>299.3</ele>
        <time>2026-05-17T10:41:45.999Z</time>
      </trkpt>
      <trkpt lat="43.65396" lon="3.35987">
        <ele>299.7</ele>
        <time>2026-05-17T10:41:46.999Z</time>
      </trkpt>
      <trkpt lat="43.65396" lon="3.35987">
        <ele>300.2</ele>
        <time>2026-05-17T10:41:47.999Z</time>
      </trkpt>
      <trkpt lat="43.65396" lon="3.35987">
        <ele>300.6</ele>
        <time>2026-05-17T10:41:48.999Z</time>
      </trkpt>
      <trkpt lat="43.65396" lon="3.35987">
        <ele>300.7</ele>
        <time>2026-05-17T10:41:49.999Z</time>
      </trkpt>
      <trkpt lat="43.65396" lon="3.35987">
        <ele>300.8</ele>
        <time>2026-05-17T10:41:50.999Z</time>
      </trkpt>
      <trkpt lat="43.65396" lon="3.35987">
        <ele>300.8</ele>
        <time>2026-05-17T10:41:51.999Z</time>
      </trkpt>
      <trkpt lat="43.65397" lon="3.35987">
        <ele>300.5</ele>
        <time>2026-05-17T10:41:52.999Z</time>
      </trkpt>
      <trkpt lat="43.65397" lon="3.35987">
        <ele>300.5</ele>
        <time>2026-05-17T10:41:53.999Z</time>
      </trkpt>
      <trkpt lat="43.65397" lon="3.35987">
        <ele>300.5</ele>
        <time>2026-05-17T10:41:54.999Z</time>
      </trkpt>
      <trkpt lat="43.65397" lon="3.35988">
        <ele>300.5</ele>
        <time>2026-05-17T10:41:55.999Z</time>
      </trkpt>
      <trkpt lat="43.65397" lon="3.35988">
        <ele>300.6</ele>
        <time>2026-05-17T10:41:56.999Z</time>
      </trkpt>
      <trkpt lat="43.65397" lon="3.35988">
        <ele>300.6</ele>
        <time>2026-05-17T10:41:57.999Z</time>
      </trkpt>
      <trkpt lat="43.65397" lon="3.35988">
        <ele>300.7</ele>
        <time>2026-05-17T10:41:58.999Z</time>
      </trkpt>
      <trkpt lat="43.65397" lon="3.35988">
        <ele>300.6</ele>
        <time>2026-05-17T10:41:59.999Z</time>
      </trkpt>
      <trkpt lat="43.65397" lon="3.35988">
        <ele>300.5</ele>
        <time>2026-05-17T10:42:00.999Z</time>
      </trkpt>
      <trkpt lat="43.65396" lon="3.35989">
        <ele>300.5</ele>
        <time>2026-05-17T10:42:01.999Z</time>
      </trkpt>
      <trkpt lat="43.65396" lon="3.35991">
        <ele>300.5</ele>
        <time>2026-05-17T10:42:02.999Z</time>
      </trkpt>
      <trkpt lat="43.65396" lon="3.35992">
        <ele>300.4</ele>
        <time>2026-05-17T10:42:03.999Z</time>
      </trkpt>
      <trkpt lat="43.65396" lon="3.35992">
        <ele>300.5</ele>
        <time>2026-05-17T10:42:04.999Z</time>
      </trkpt>
      <trkpt lat="43.65396" lon="3.35993">
        <ele>300.8</ele>
        <time>2026-05-17T10:42:05.999Z</time>
      </trkpt>
      <trkpt lat="43.65396" lon="3.35993">
        <ele>301.1</ele>
        <time>2026-05-17T10:42:06.999Z</time>
      </trkpt>
      <trkpt lat="43.65396" lon="3.35994">
        <ele>301.1</ele>
        <time>2026-05-17T10:42:07.999Z</time>
      </trkpt>
      <trkpt lat="43.65396" lon="3.35994">
        <ele>301</ele>
        <time>2026-05-17T10:42:08.999Z</time>
      </trkpt>
      <trkpt lat="43.65397" lon="3.35994">
        <ele>300.8</ele>
        <time>2026-05-17T10:42:09.999Z</time>
      </trkpt>
      <trkpt lat="43.65397" lon="3.35995">
        <ele>300.8</ele>
        <time>2026-05-17T10:42:10.999Z</time>
      </trkpt>
      <trkpt lat="43.65398" lon="3.35996">
        <ele>300.6</ele>
        <time>2026-05-17T10:42:11.999Z</time>
      </trkpt>
      <trkpt lat="43.65398" lon="3.35996">
        <ele>300</ele>
        <time>2026-05-17T10:42:12.999Z</time>
      </trkpt>
      <trkpt lat="43.65398" lon="3.35996">
        <ele>299.8</ele>
        <time>2026-05-17T10:42:13.999Z</time>
      </trkpt>
      <trkpt lat="43.65398" lon="3.35996">
        <ele>299.8</ele>
        <time>2026-05-17T10:42:14.999Z</time>
      </trkpt>
      <trkpt lat="43.65398" lon="3.35996">
        <ele>299.8</ele>
        <time>2026-05-17T10:42:15.999Z</time>
      </trkpt>
      <trkpt lat="43.65398" lon="3.35997">
        <ele>299.9</ele>
        <time>2026-05-17T10:42:16.999Z</time>
      </trkpt>
      <trkpt lat="43.65398" lon="3.35997">
        <ele>299.7</ele>
        <time>2026-05-17T10:42:17.999Z</time>
      </trkpt>
      <trkpt lat="43.65398" lon="3.35997">
        <ele>299.6</ele>
        <time>2026-05-17T10:42:18.999Z</time>
      </trkpt>
      <trkpt lat="43.65398" lon="3.35997">
        <ele>299.3</ele>
        <time>2026-05-17T10:42:19.999Z</time>
      </trkpt>
      <trkpt lat="43.65398" lon="3.35997">
        <ele>299</ele>
        <time>2026-05-17T10:42:20.999Z</time>
      </trkpt>
      <trkpt lat="43.65398" lon="3.35997">
        <ele>298.9</ele>
        <time>2026-05-17T10:42:21.999Z</time>
      </trkpt>
      <trkpt lat="43.65398" lon="3.35998">
        <ele>298.8</ele>
        <time>2026-05-17T10:42:22.999Z</time>
      </trkpt>
      <trkpt lat="43.65398" lon="3.35998">
        <ele>298.9</ele>
        <time>2026-05-17T10:42:23.999Z</time>
      </trkpt>
      <trkpt lat="43.65399" lon="3.35998">
        <ele>298.8</ele>
        <time>2026-05-17T10:42:24.999Z</time>
      </trkpt>
      <trkpt lat="43.65399" lon="3.35999">
        <ele>298.7</ele>
        <time>2026-05-17T10:42:25.999Z</time>
      </trkpt>
      <trkpt lat="43.65399" lon="3.35999">
        <ele>298.6</ele>
        <time>2026-05-17T10:42:26.999Z</time>
      </trkpt>
      <trkpt lat="43.65399" lon="3.35999">
        <ele>298.6</ele>
        <time>2026-05-17T10:42:27.999Z</time>
      </trkpt>
      <trkpt lat="43.65399" lon="3.35999">
        <ele>298.6</ele>
        <time>2026-05-17T10:42:28.999Z</time>
      </trkpt>
      <trkpt lat="43.65399" lon="3.35999">
        <ele>298.6</ele>
        <time>2026-05-17T10:42:29.999Z</time>
      </trkpt>
      <trkpt lat="43.65399" lon="3.35999">
        <ele>298.4</ele>
        <time>2026-05-17T10:42:30.999Z</time>
      </trkpt>
      <trkpt lat="43.65398" lon="3.35999">
        <ele>298.3</ele>
        <time>2026-05-17T10:42:32.999Z</time>
      </trkpt>
      <trkpt lat="43.65398" lon="3.36">
        <ele>298.2</ele>
        <time>2026-05-17T10:42:33.999Z</time>
      </trkpt>
      <trkpt lat="43.65398" lon="3.36001">
        <ele>298.3</ele>
        <time>2026-05-17T10:42:34.999Z</time>
      </trkpt>
      <trkpt lat="43.65398" lon="3.36002">
        <ele>298.2</ele>
        <time>2026-05-17T10:42:35.999Z</time>
      </trkpt>
      <trkpt lat="43.65398" lon="3.36004">
        <ele>297.9</ele>
        <time>2026-05-17T10:42:36.999Z</time>
      </trkpt>
      <trkpt lat="43.65398" lon="3.36004">
        <ele>297.8</ele>
        <time>2026-05-17T10:42:37.999Z</time>
      </trkpt>
      <trkpt lat="43.65398" lon="3.36005">
        <ele>297.5</ele>
        <time>2026-05-17T10:42:38.999Z</time>
      </trkpt>
      <trkpt lat="43.65398" lon="3.36005">
        <ele>297.5</ele>
        <time>2026-05-17T10:42:39.999Z</time>
      </trkpt>
      <trkpt lat="43.65398" lon="3.36005">
        <ele>297.6</ele>
        <time>2026-05-17T10:42:40.999Z</time>
      </trkpt>
      <trkpt lat="43.65398" lon="3.36005">
        <ele>297.4</ele>
        <time>2026-05-17T10:42:41.999Z</time>
      </trkpt>
      <trkpt lat="43.65398" lon="3.36005">
        <ele>297.4</ele>
        <time>2026-05-17T10:42:42.999Z</time>
      </trkpt>
      <trkpt lat="43.65398" lon="3.36005">
        <ele>297.4</ele>
        <time>2026-05-17T10:42:43.999Z</time>
      </trkpt>
      <trkpt lat="43.65398" lon="3.36005">
        <ele>297.3</ele>
        <time>2026-05-17T10:42:44.999Z</time>
      </trkpt>
      <trkpt lat="43.65398" lon="3.36006">
        <ele>297.2</ele>
        <time>2026-05-17T10:42:45.999Z</time>
      </trkpt>
      <trkpt lat="43.65398" lon="3.36007">
        <ele>297.1</ele>
        <time>2026-05-17T10:42:47.000Z</time>
      </trkpt>
      <trkpt lat="43.65397" lon="3.36008">
        <ele>297</ele>
        <time>2026-05-17T10:42:48.000Z</time>
      </trkpt>
      <trkpt lat="43.65397" lon="3.36008">
        <ele>297</ele>
        <time>2026-05-17T10:42:49.000Z</time>
      </trkpt>
      <trkpt lat="43.65397" lon="3.36009">
        <ele>297.2</ele>
        <time>2026-05-17T10:42:50.000Z</time>
      </trkpt>
      <trkpt lat="43.65397" lon="3.36009">
        <ele>297.3</ele>
        <time>2026-05-17T10:42:51.000Z</time>
      </trkpt>
      <trkpt lat="43.65396" lon="3.3601">
        <ele>297.3</ele>
        <time>2026-05-17T10:42:52.000Z</time>
      </trkpt>
      <trkpt lat="43.65396" lon="3.36012">
        <ele>297.4</ele>
        <time>2026-05-17T10:42:53.000Z</time>
      </trkpt>
      <trkpt lat="43.65396" lon="3.36013">
        <ele>297.5</ele>
        <time>2026-05-17T10:42:54.000Z</time>
      </trkpt>
      <trkpt lat="43.65396" lon="3.36014">
        <ele>297.4</ele>
        <time>2026-05-17T10:42:55.000Z</time>
      </trkpt>
      <trkpt lat="43.65396" lon="3.36014">
        <ele>297.4</ele>
        <time>2026-05-17T10:42:56.000Z</time>
      </trkpt>
      <trkpt lat="43.65396" lon="3.36015">
        <ele>297.5</ele>
        <time>2026-05-17T10:42:57.000Z</time>
      </trkpt>
      <trkpt lat="43.65395" lon="3.36016">
        <ele>297.5</ele>
        <time>2026-05-17T10:42:58.000Z</time>
      </trkpt>
      <trkpt lat="43.65395" lon="3.36016">
        <ele>297.5</ele>
        <time>2026-05-17T10:42:59.000Z</time>
      </trkpt>
      <trkpt lat="43.65395" lon="3.36016">
        <ele>297.2</ele>
        <time>2026-05-17T10:43:00.000Z</time>
      </trkpt>
      <trkpt lat="43.65395" lon="3.36017">
        <ele>297.1</ele>
        <time>2026-05-17T10:43:01.000Z</time>
      </trkpt>
      <trkpt lat="43.65395" lon="3.36018">
        <ele>297</ele>
        <time>2026-05-17T10:43:02.000Z</time>
      </trkpt>
      <trkpt lat="43.65395" lon="3.3602">
        <ele>296.9</ele>
        <time>2026-05-17T10:43:03.000Z</time>
      </trkpt>
      <trkpt lat="43.65395" lon="3.36021">
        <ele>297.1</ele>
        <time>2026-05-17T10:43:04.000Z</time>
      </trkpt>
      <trkpt lat="43.65395" lon="3.36022">
        <ele>297.2</ele>
        <time>2026-05-17T10:43:05.000Z</time>
      </trkpt>
      <trkpt lat="43.65395" lon="3.36022">
        <ele>297</ele>
        <time>2026-05-17T10:43:06.000Z</time>
      </trkpt>
      <trkpt lat="43.65395" lon="3.36022">
        <ele>297.1</ele>
        <time>2026-05-17T10:43:07.000Z</time>
      </trkpt>
      <trkpt lat="43.65395" lon="3.36022">
        <ele>297</ele>
        <time>2026-05-17T10:43:08.000Z</time>
      </trkpt>
      <trkpt lat="43.65395" lon="3.36022">
        <ele>296.9</ele>
        <time>2026-05-17T10:43:09.000Z</time>
      </trkpt>
      <trkpt lat="43.65395" lon="3.36022">
        <ele>296.9</ele>
        <time>2026-05-17T10:43:10.000Z</time>
      </trkpt>
      <trkpt lat="43.65395" lon="3.36023">
        <ele>296.7</ele>
        <time>2026-05-17T10:43:11.000Z</time>
      </trkpt>
      <trkpt lat="43.65395" lon="3.36024">
        <ele>296.6</ele>
        <time>2026-05-17T10:43:12.000Z</time>
      </trkpt>
      <trkpt lat="43.65394" lon="3.36025">
        <ele>296.3</ele>
        <time>2026-05-17T10:43:13.000Z</time>
      </trkpt>
      <trkpt lat="43.65394" lon="3.36025">
        <ele>296.1</ele>
        <time>2026-05-17T10:43:14.000Z</time>
      </trkpt>
      <trkpt lat="43.65394" lon="3.36025">
        <ele>295.9</ele>
        <time>2026-05-17T10:43:15.000Z</time>
      </trkpt>
      <trkpt lat="43.65394" lon="3.36026">
        <ele>295.8</ele>
        <time>2026-05-17T10:43:16.000Z</time>
      </trkpt>
      <trkpt lat="43.65394" lon="3.36026">
        <ele>296.1</ele>
        <time>2026-05-17T10:43:17.000Z</time>
      </trkpt>
      <trkpt lat="43.65394" lon="3.36026">
        <ele>296.3</ele>
        <time>2026-05-17T10:43:18.000Z</time>
      </trkpt>
      <trkpt lat="43.65394" lon="3.36028">
        <ele>296.3</ele>
        <time>2026-05-17T10:43:19.000Z</time>
      </trkpt>
      <trkpt lat="43.65393" lon="3.3603">
        <ele>296.3</ele>
        <time>2026-05-17T10:43:20.000Z</time>
      </trkpt>
      <trkpt lat="43.65393" lon="3.36032">
        <ele>296.2</ele>
        <time>2026-05-17T10:43:21.000Z</time>
      </trkpt>
      <trkpt lat="43.65393" lon="3.36032">
        <ele>296.2</ele>
        <time>2026-05-17T10:43:22.000Z</time>
      </trkpt>
      <trkpt lat="43.65393" lon="3.36033">
        <ele>296.3</ele>
        <time>2026-05-17T10:43:23.000Z</time>
      </trkpt>
      <trkpt lat="43.65392" lon="3.36035">
        <ele>296.4</ele>
        <time>2026-05-17T10:43:24.000Z</time>
      </trkpt>
      <trkpt lat="43.65392" lon="3.36037">
        <ele>296.4</ele>
        <time>2026-05-17T10:43:25.000Z</time>
      </trkpt>
      <trkpt lat="43.65391" lon="3.36039">
        <ele>296.4</ele>
        <time>2026-05-17T10:43:26.000Z</time>
      </trkpt>
      <trkpt lat="43.6539" lon="3.36041">
        <ele>296.5</ele>
        <time>2026-05-17T10:43:27.000Z</time>
      </trkpt>
      <trkpt lat="43.6539" lon="3.36043">
        <ele>296.4</ele>
        <time>2026-05-17T10:43:28.000Z</time>
      </trkpt>
      <trkpt lat="43.65389" lon="3.36044">
        <ele>296.3</ele>
        <time>2026-05-17T10:43:29.000Z</time>
      </trkpt>
      <trkpt lat="43.65389" lon="3.36045">
        <ele>296.4</ele>
        <time>2026-05-17T10:43:30.000Z</time>
      </trkpt>
      <trkpt lat="43.65389" lon="3.36046">
        <ele>296.3</ele>
        <time>2026-05-17T10:43:31.000Z</time>
      </trkpt>
      <trkpt lat="43.65389" lon="3.36046">
        <ele>296.5</ele>
        <time>2026-05-17T10:43:32.000Z</time>
      </trkpt>
      <trkpt lat="43.65389" lon="3.36046">
        <ele>296.6</ele>
        <time>2026-05-17T10:43:33.000Z</time>
      </trkpt>
      <trkpt lat="43.65389" lon="3.36046">
        <ele>296.7</ele>
        <time>2026-05-17T10:43:34.000Z</time>
      </trkpt>
      <trkpt lat="43.65389" lon="3.36047">
        <ele>296.7</ele>
        <time>2026-05-17T10:43:35.000Z</time>
      </trkpt>
      <trkpt lat="43.65389" lon="3.36049">
        <ele>296.8</ele>
        <time>2026-05-17T10:43:36.000Z</time>
      </trkpt>
      <trkpt lat="43.65388" lon="3.36051">
        <ele>296.8</ele>
        <time>2026-05-17T10:43:37.000Z</time>
      </trkpt>
      <trkpt lat="43.65388" lon="3.36053">
        <ele>296.8</ele>
        <time>2026-05-17T10:43:38.000Z</time>
      </trkpt>
      <trkpt lat="43.65388" lon="3.36054">
        <ele>296.9</ele>
        <time>2026-05-17T10:43:39.000Z</time>
      </trkpt>
      <trkpt lat="43.65388" lon="3.36055">
        <ele>296.9</ele>
        <time>2026-05-17T10:43:40.000Z</time>
      </trkpt>
      <trkpt lat="43.65388" lon="3.36057">
        <ele>296.9</ele>
        <time>2026-05-17T10:43:41.000Z</time>
      </trkpt>
      <trkpt lat="43.65388" lon="3.36058">
        <ele>296.9</ele>
        <time>2026-05-17T10:43:42.000Z</time>
      </trkpt>
      <trkpt lat="43.65388" lon="3.36059">
        <ele>296.9</ele>
        <time>2026-05-17T10:43:43.000Z</time>
      </trkpt>
      <trkpt lat="43.65389" lon="3.36061">
        <ele>296.9</ele>
        <time>2026-05-17T10:43:44.000Z</time>
      </trkpt>
      <trkpt lat="43.65389" lon="3.36062">
        <ele>296.9</ele>
        <time>2026-05-17T10:43:45.000Z</time>
      </trkpt>
      <trkpt lat="43.65389" lon="3.36063">
        <ele>296.8</ele>
        <time>2026-05-17T10:43:46.000Z</time>
      </trkpt>
      <trkpt lat="43.65389" lon="3.36064">
        <ele>296.9</ele>
        <time>2026-05-17T10:43:47.000Z</time>
      </trkpt>
      <trkpt lat="43.65388" lon="3.36065">
        <ele>296.7</ele>
        <time>2026-05-17T10:43:48.000Z</time>
      </trkpt>
      <trkpt lat="43.65388" lon="3.36066">
        <ele>296.8</ele>
        <time>2026-05-17T10:43:49.000Z</time>
      </trkpt>
      <trkpt lat="43.65388" lon="3.36067">
        <ele>296.7</ele>
        <time>2026-05-17T10:43:50.000Z</time>
      </trkpt>
      <trkpt lat="43.65387" lon="3.36068">
        <ele>296.9</ele>
        <time>2026-05-17T10:43:51.000Z</time>
      </trkpt>
      <trkpt lat="43.65386" lon="3.36069">
        <ele>296.7</ele>
        <time>2026-05-17T10:43:52.000Z</time>
      </trkpt>
      <trkpt lat="43.65386" lon="3.36069">
        <ele>296.4</ele>
        <time>2026-05-17T10:43:53.000Z</time>
      </trkpt>
      <trkpt lat="43.65385" lon="3.3607">
        <ele>296.2</ele>
        <time>2026-05-17T10:43:54.000Z</time>
      </trkpt>
      <trkpt lat="43.65384" lon="3.36071">
        <ele>296</ele>
        <time>2026-05-17T10:43:55.000Z</time>
      </trkpt>
      <trkpt lat="43.65384" lon="3.36072">
        <ele>296</ele>
        <time>2026-05-17T10:43:56.000Z</time>
      </trkpt>
      <trkpt lat="43.65383" lon="3.36073">
        <ele>295.9</ele>
        <time>2026-05-17T10:43:57.000Z</time>
      </trkpt>
      <trkpt lat="43.65383" lon="3.36074">
        <ele>295.8</ele>
        <time>2026-05-17T10:43:58.000Z</time>
      </trkpt>
      <trkpt lat="43.65382" lon="3.36075">
        <ele>295.8</ele>
        <time>2026-05-17T10:43:59.000Z</time>
      </trkpt>
      <trkpt lat="43.65381" lon="3.36075">
        <ele>295.7</ele>
        <time>2026-05-17T10:44:00.000Z</time>
      </trkpt>
      <trkpt lat="43.6538" lon="3.36076">
        <ele>295.5</ele>
        <time>2026-05-17T10:44:01.000Z</time>
      </trkpt>
      <trkpt lat="43.6538" lon="3.36077">
        <ele>295.3</ele>
        <time>2026-05-17T10:44:02.000Z</time>
      </trkpt>
      <trkpt lat="43.65379" lon="3.36078">
        <ele>294.9</ele>
        <time>2026-05-17T10:44:03.000Z</time>
      </trkpt>
      <trkpt lat="43.65379" lon="3.36079">
        <ele>294.7</ele>
        <time>2026-05-17T10:44:04.000Z</time>
      </trkpt>
      <trkpt lat="43.65379" lon="3.3608">
        <ele>294.8</ele>
        <time>2026-05-17T10:44:05.000Z</time>
      </trkpt>
      <trkpt lat="43.65379" lon="3.36081">
        <ele>294.7</ele>
        <time>2026-05-17T10:44:06.000Z</time>
      </trkpt>
      <trkpt lat="43.65378" lon="3.36082">
        <ele>294.7</ele>
        <time>2026-05-17T10:44:07.000Z</time>
      </trkpt>
      <trkpt lat="43.65378" lon="3.36083">
        <ele>294.8</ele>
        <time>2026-05-17T10:44:08.000Z</time>
      </trkpt>
      <trkpt lat="43.65378" lon="3.36084">
        <ele>294.8</ele>
        <time>2026-05-17T10:44:09.000Z</time>
      </trkpt>
      <trkpt lat="43.65377" lon="3.36086">
        <ele>294.6</ele>
        <time>2026-05-17T10:44:10.000Z</time>
      </trkpt>
      <trkpt lat="43.65377" lon="3.36087">
        <ele>294.4</ele>
        <time>2026-05-17T10:44:11.000Z</time>
      </trkpt>
      <trkpt lat="43.65377" lon="3.36089">
        <ele>294.5</ele>
        <time>2026-05-17T10:44:12.000Z</time>
      </trkpt>
      <trkpt lat="43.65377" lon="3.36091">
        <ele>294.9</ele>
        <time>2026-05-17T10:44:13.000Z</time>
      </trkpt>
      <trkpt lat="43.65378" lon="3.36093">
        <ele>295.1</ele>
        <time>2026-05-17T10:44:14.000Z</time>
      </trkpt>
      <trkpt lat="43.65378" lon="3.36094">
        <ele>296.1</ele>
        <time>2026-05-17T10:44:15.000Z</time>
      </trkpt>
      <trkpt lat="43.65379" lon="3.36095">
        <ele>297.5</ele>
        <time>2026-05-17T10:44:16.000Z</time>
      </trkpt>
      <trkpt lat="43.6538" lon="3.36096">
        <ele>297.9</ele>
        <time>2026-05-17T10:44:17.000Z</time>
      </trkpt>
      <trkpt lat="43.65381" lon="3.36096">
        <ele>298.2</ele>
        <time>2026-05-17T10:44:18.000Z</time>
      </trkpt>
      <trkpt lat="43.65381" lon="3.36096">
        <ele>298.3</ele>
        <time>2026-05-17T10:44:19.000Z</time>
      </trkpt>
      <trkpt lat="43.65382" lon="3.36097">
        <ele>298.3</ele>
        <time>2026-05-17T10:44:20.000Z</time>
      </trkpt>
      <trkpt lat="43.65382" lon="3.36099">
        <ele>298.4</ele>
        <time>2026-05-17T10:44:21.000Z</time>
      </trkpt>
      <trkpt lat="43.65382" lon="3.361">
        <ele>298.4</ele>
        <time>2026-05-17T10:44:22.000Z</time>
      </trkpt>
      <trkpt lat="43.65382" lon="3.36102">
        <ele>298.4</ele>
        <time>2026-05-17T10:44:23.000Z</time>
      </trkpt>
      <trkpt lat="43.65382" lon="3.36103">
        <ele>298.2</ele>
        <time>2026-05-17T10:44:24.000Z</time>
      </trkpt>
      <trkpt lat="43.65382" lon="3.36104">
        <ele>298.2</ele>
        <time>2026-05-17T10:44:25.000Z</time>
      </trkpt>
      <trkpt lat="43.65382" lon="3.36104">
        <ele>298.3</ele>
        <time>2026-05-17T10:44:26.000Z</time>
      </trkpt>
      <trkpt lat="43.65382" lon="3.36105">
        <ele>298.7</ele>
        <time>2026-05-17T10:44:27.000Z</time>
      </trkpt>
      <trkpt lat="43.65382" lon="3.36105">
        <ele>298.9</ele>
        <time>2026-05-17T10:44:28.000Z</time>
      </trkpt>
      <trkpt lat="43.65382" lon="3.36105">
        <ele>298.9</ele>
        <time>2026-05-17T10:44:29.000Z</time>
      </trkpt>
      <trkpt lat="43.65381" lon="3.36106">
        <ele>299</ele>
        <time>2026-05-17T10:44:30.000Z</time>
      </trkpt>
      <trkpt lat="43.6538" lon="3.36106">
        <ele>298.9</ele>
        <time>2026-05-17T10:44:31.000Z</time>
      </trkpt>
      <trkpt lat="43.65379" lon="3.36107">
        <ele>298.8</ele>
        <time>2026-05-17T10:44:32.000Z</time>
      </trkpt>
      <trkpt lat="43.65379" lon="3.36107">
        <ele>298.8</ele>
        <time>2026-05-17T10:44:33.000Z</time>
      </trkpt>
      <trkpt lat="43.65378" lon="3.36108">
        <ele>298.8</ele>
        <time>2026-05-17T10:44:34.000Z</time>
      </trkpt>
      <trkpt lat="43.65378" lon="3.36109">
        <ele>298.7</ele>
        <time>2026-05-17T10:44:35.000Z</time>
      </trkpt>
      <trkpt lat="43.65377" lon="3.3611">
        <ele>298.7</ele>
        <time>2026-05-17T10:44:36.000Z</time>
      </trkpt>
      <trkpt lat="43.65377" lon="3.36112">
        <ele>298.7</ele>
        <time>2026-05-17T10:44:37.000Z</time>
      </trkpt>
      <trkpt lat="43.65377" lon="3.36114">
        <ele>298.8</ele>
        <time>2026-05-17T10:44:38.000Z</time>
      </trkpt>
      <trkpt lat="43.65378" lon="3.36115">
        <ele>298.9</ele>
        <time>2026-05-17T10:44:39.000Z</time>
      </trkpt>
      <trkpt lat="43.65378" lon="3.36116">
        <ele>298.9</ele>
        <time>2026-05-17T10:44:40.000Z</time>
      </trkpt>
      <trkpt lat="43.65378" lon="3.36118">
        <ele>298.7</ele>
        <time>2026-05-17T10:44:41.000Z</time>
      </trkpt>
      <trkpt lat="43.65379" lon="3.36119">
        <ele>298.9</ele>
        <time>2026-05-17T10:44:42.000Z</time>
      </trkpt>
      <trkpt lat="43.65379" lon="3.3612">
        <ele>298.6</ele>
        <time>2026-05-17T10:44:43.000Z</time>
      </trkpt>
      <trkpt lat="43.65379" lon="3.36121">
        <ele>298.6</ele>
        <time>2026-05-17T10:44:44.000Z</time>
      </trkpt>
      <trkpt lat="43.65378" lon="3.36122">
        <ele>298.9</ele>
        <time>2026-05-17T10:44:45.000Z</time>
      </trkpt>
      <trkpt lat="43.65378" lon="3.36123">
        <ele>299</ele>
        <time>2026-05-17T10:44:46.000Z</time>
      </trkpt>
      <trkpt lat="43.65379" lon="3.36123">
        <ele>299.2</ele>
        <time>2026-05-17T10:44:47.000Z</time>
      </trkpt>
      <trkpt lat="43.65379" lon="3.36124">
        <ele>299.4</ele>
        <time>2026-05-17T10:44:48.000Z</time>
      </trkpt>
      <trkpt lat="43.65379" lon="3.36124">
        <ele>299.1</ele>
        <time>2026-05-17T10:44:49.000Z</time>
      </trkpt>
      <trkpt lat="43.65379" lon="3.36124">
        <ele>299.3</ele>
        <time>2026-05-17T10:44:50.000Z</time>
      </trkpt>
      <trkpt lat="43.65379" lon="3.36123">
        <ele>299</ele>
        <time>2026-05-17T10:44:51.000Z</time>
      </trkpt>
      <trkpt lat="43.65379" lon="3.36123">
        <ele>298.9</ele>
        <time>2026-05-17T10:44:52.000Z</time>
      </trkpt>
      <trkpt lat="43.65379" lon="3.36123">
        <ele>299</ele>
        <time>2026-05-17T10:44:53.000Z</time>
      </trkpt>
      <trkpt lat="43.65379" lon="3.36123">
        <ele>298.9</ele>
        <time>2026-05-17T10:44:54.000Z</time>
      </trkpt>
      <trkpt lat="43.65379" lon="3.36123">
        <ele>299</ele>
        <time>2026-05-17T10:44:55.000Z</time>
      </trkpt>
      <trkpt lat="43.65379" lon="3.36123">
        <ele>299</ele>
        <time>2026-05-17T10:44:56.000Z</time>
      </trkpt>
      <trkpt lat="43.65379" lon="3.36123">
        <ele>299</ele>
        <time>2026-05-17T10:44:57.000Z</time>
      </trkpt>
      <trkpt lat="43.65379" lon="3.36124">
        <ele>298.9</ele>
        <time>2026-05-17T10:44:58.000Z</time>
      </trkpt>
      <trkpt lat="43.65379" lon="3.36124">
        <ele>298.8</ele>
        <time>2026-05-17T10:44:59.000Z</time>
      </trkpt>
      <trkpt lat="43.65378" lon="3.36124">
        <ele>298.9</ele>
        <time>2026-05-17T10:45:00.000Z</time>
      </trkpt>
      <trkpt lat="43.65378" lon="3.36124">
        <ele>299</ele>
        <time>2026-05-17T10:45:01.000Z</time>
      </trkpt>
      <trkpt lat="43.65378" lon="3.36124">
        <ele>299.1</ele>
        <time>2026-05-17T10:45:02.000Z</time>
      </trkpt>
      <trkpt lat="43.65379" lon="3.36124">
        <ele>299.4</ele>
        <time>2026-05-17T10:45:03.000Z</time>
      </trkpt>
      <trkpt lat="43.65379" lon="3.36124">
        <ele>299.5</ele>
        <time>2026-05-17T10:45:04.000Z</time>
      </trkpt>
      <trkpt lat="43.65379" lon="3.36123">
        <ele>299.5</ele>
        <time>2026-05-17T10:45:05.000Z</time>
      </trkpt>
      <trkpt lat="43.65379" lon="3.36123">
        <ele>299.5</ele>
        <time>2026-05-17T10:45:06.000Z</time>
      </trkpt>
      <trkpt lat="43.6538" lon="3.36122">
        <ele>299.6</ele>
        <time>2026-05-17T10:45:07.000Z</time>
      </trkpt>
      <trkpt lat="43.6538" lon="3.36122">
        <ele>299.7</ele>
        <time>2026-05-17T10:45:08.000Z</time>
      </trkpt>
      <trkpt lat="43.6538" lon="3.36122">
        <ele>299.8</ele>
        <time>2026-05-17T10:45:09.000Z</time>
      </trkpt>
      <trkpt lat="43.6538" lon="3.36122">
        <ele>299.8</ele>
        <time>2026-05-17T10:45:10.000Z</time>
      </trkpt>
      <trkpt lat="43.6538" lon="3.36122">
        <ele>299.8</ele>
        <time>2026-05-17T10:45:11.000Z</time>
      </trkpt>
      <trkpt lat="43.6538" lon="3.36122">
        <ele>299.9</ele>
        <time>2026-05-17T10:45:12.000Z</time>
      </trkpt>
      <trkpt lat="43.6538" lon="3.36122">
        <ele>299.9</ele>
        <time>2026-05-17T10:45:13.000Z</time>
      </trkpt>
      <trkpt lat="43.6538" lon="3.36121">
        <ele>299.9</ele>
        <time>2026-05-17T10:45:14.000Z</time>
      </trkpt>
      <trkpt lat="43.65379" lon="3.36121">
        <ele>299.9</ele>
        <time>2026-05-17T10:45:15.000Z</time>
      </trkpt>
      <trkpt lat="43.6538" lon="3.36121">
        <ele>299.9</ele>
        <time>2026-05-17T10:45:16.000Z</time>
      </trkpt>
      <trkpt lat="43.6538" lon="3.36121">
        <ele>300.1</ele>
        <time>2026-05-17T10:45:17.000Z</time>
      </trkpt>
      <trkpt lat="43.6538" lon="3.36121">
        <ele>300.2</ele>
        <time>2026-05-17T10:45:18.000Z</time>
      </trkpt>
      <trkpt lat="43.6538" lon="3.36121">
        <ele>300.3</ele>
        <time>2026-05-17T10:45:19.000Z</time>
      </trkpt>
      <trkpt lat="43.65379" lon="3.36121">
        <ele>300.5</ele>
        <time>2026-05-17T10:45:20.000Z</time>
      </trkpt>
      <trkpt lat="43.65379" lon="3.36121">
        <ele>300.4</ele>
        <time>2026-05-17T10:45:21.000Z</time>
      </trkpt>
      <trkpt lat="43.6538" lon="3.36121">
        <ele>300.2</ele>
        <time>2026-05-17T10:45:22.000Z</time>
      </trkpt>
      <trkpt lat="43.65379" lon="3.36121">
        <ele>300.2</ele>
        <time>2026-05-17T10:45:23.000Z</time>
      </trkpt>
      <trkpt lat="43.65379" lon="3.36121">
        <ele>300.2</ele>
        <time>2026-05-17T10:45:25.000Z</time>
      </trkpt>
      <trkpt lat="43.65379" lon="3.3612">
        <ele>300.3</ele>
        <time>2026-05-17T10:45:26.000Z</time>
      </trkpt>
      <trkpt lat="43.65379" lon="3.3612">
        <ele>300.3</ele>
        <time>2026-05-17T10:45:27.000Z</time>
      </trkpt>
      <trkpt lat="43.65379" lon="3.36121">
        <ele>300.3</ele>
        <time>2026-05-17T10:45:28.000Z</time>
      </trkpt>
      <trkpt lat="43.6538" lon="3.36121">
        <ele>300.5</ele>
        <time>2026-05-17T10:45:29.000Z</time>
      </trkpt>
      <trkpt lat="43.6538" lon="3.36121">
        <ele>300.6</ele>
        <time>2026-05-17T10:45:30.000Z</time>
      </trkpt>
      <trkpt lat="43.6538" lon="3.36121">
        <ele>300.5</ele>
        <time>2026-05-17T10:45:31.000Z</time>
      </trkpt>
      <trkpt lat="43.6538" lon="3.36121">
        <ele>300.6</ele>
        <time>2026-05-17T10:45:32.000Z</time>
      </trkpt>
      <trkpt lat="43.6538" lon="3.3612">
        <ele>300.8</ele>
        <time>2026-05-17T10:45:33.000Z</time>
      </trkpt>
      <trkpt lat="43.6538" lon="3.3612">
        <ele>300.7</ele>
        <time>2026-05-17T10:45:34.000Z</time>
      </trkpt>
      <trkpt lat="43.6538" lon="3.3612">
        <ele>300.6</ele>
        <time>2026-05-17T10:45:35.000Z</time>
      </trkpt>
      <trkpt lat="43.6538" lon="3.3612">
        <ele>300.2</ele>
        <time>2026-05-17T10:45:36.000Z</time>
      </trkpt>
      <trkpt lat="43.6538" lon="3.3612">
        <ele>299.8</ele>
        <time>2026-05-17T10:45:37.000Z</time>
      </trkpt>
      <trkpt lat="43.6538" lon="3.3612">
        <ele>299.8</ele>
        <time>2026-05-17T10:45:38.000Z</time>
      </trkpt>
      <trkpt lat="43.6538" lon="3.3612">
        <ele>300.3</ele>
        <time>2026-05-17T10:45:39.000Z</time>
      </trkpt>
      <trkpt lat="43.6538" lon="3.36121">
        <ele>300.3</ele>
        <time>2026-05-17T10:45:40.000Z</time>
      </trkpt>
      <trkpt lat="43.6538" lon="3.36121">
        <ele>300.3</ele>
        <time>2026-05-17T10:45:41.000Z</time>
      </trkpt>
      <trkpt lat="43.65379" lon="3.36121">
        <ele>300.4</ele>
        <time>2026-05-17T10:45:42.000Z</time>
      </trkpt>
      <trkpt lat="43.65379" lon="3.36121">
        <ele>300.8</ele>
        <time>2026-05-17T10:45:43.000Z</time>
      </trkpt>
      <trkpt lat="43.65379" lon="3.36121">
        <ele>301.4</ele>
        <time>2026-05-17T10:45:44.000Z</time>
      </trkpt>
      <trkpt lat="43.65379" lon="3.36121">
        <ele>301.4</ele>
        <time>2026-05-17T10:45:45.000Z</time>
      </trkpt>
      <trkpt lat="43.65379" lon="3.36121">
        <ele>301.6</ele>
        <time>2026-05-17T10:45:46.000Z</time>
      </trkpt>
      <trkpt lat="43.65379" lon="3.36121">
        <ele>301.7</ele>
        <time>2026-05-17T10:45:47.000Z</time>
      </trkpt>
      <trkpt lat="43.65379" lon="3.36121">
        <ele>301.6</ele>
        <time>2026-05-17T10:45:48.000Z</time>
      </trkpt>
      <trkpt lat="43.65379" lon="3.36121">
        <ele>301.7</ele>
        <time>2026-05-17T10:45:49.000Z</time>
      </trkpt>
      <trkpt lat="43.65379" lon="3.36121">
        <ele>301.6</ele>
        <time>2026-05-17T10:45:50.000Z</time>
      </trkpt>
      <trkpt lat="43.65379" lon="3.36121">
        <ele>301.6</ele>
        <time>2026-05-17T10:45:51.000Z</time>
      </trkpt>
      <trkpt lat="43.65379" lon="3.36121">
        <ele>301.9</ele>
        <time>2026-05-17T10:45:52.000Z</time>
      </trkpt>
      <trkpt lat="43.6538" lon="3.36121">
        <ele>302.2</ele>
        <time>2026-05-17T10:45:53.000Z</time>
      </trkpt>
      <trkpt lat="43.6538" lon="3.36121">
        <ele>302.6</ele>
        <time>2026-05-17T10:45:54.000Z</time>
      </trkpt>
      <trkpt lat="43.6538" lon="3.36121">
        <ele>303.1</ele>
        <time>2026-05-17T10:45:55.000Z</time>
      </trkpt>
      <trkpt lat="43.6538" lon="3.36121">
        <ele>303.6</ele>
        <time>2026-05-17T10:45:56.000Z</time>
      </trkpt>
      <trkpt lat="43.6538" lon="3.36121">
        <ele>303.6</ele>
        <time>2026-05-17T10:45:57.000Z</time>
      </trkpt>
      <trkpt lat="43.6538" lon="3.36121">
        <ele>303.4</ele>
        <time>2026-05-17T10:45:58.000Z</time>
      </trkpt>
      <trkpt lat="43.6538" lon="3.36121">
        <ele>303.4</ele>
        <time>2026-05-17T10:45:59.000Z</time>
      </trkpt>
      <trkpt lat="43.6538" lon="3.36121">
        <ele>303.9</ele>
        <time>2026-05-17T10:46:00.000Z</time>
      </trkpt>
      <trkpt lat="43.6538" lon="3.36121">
        <ele>304.1</ele>
        <time>2026-05-17T10:46:01.000Z</time>
      </trkpt>
      <trkpt lat="43.6538" lon="3.36121">
        <ele>304.4</ele>
        <time>2026-05-17T10:46:02.000Z</time>
      </trkpt>
      <trkpt lat="43.6538" lon="3.36121">
        <ele>304.7</ele>
        <time>2026-05-17T10:46:03.000Z</time>
      </trkpt>
      <trkpt lat="43.6538" lon="3.36121">
        <ele>304.8</ele>
        <time>2026-05-17T10:46:04.000Z</time>
      </trkpt>
      <trkpt lat="43.6538" lon="3.36121">
        <ele>304.7</ele>
        <time>2026-05-17T10:46:05.000Z</time>
      </trkpt>
      <trkpt lat="43.6538" lon="3.36121">
        <ele>304.9</ele>
        <time>2026-05-17T10:46:06.000Z</time>
      </trkpt>
      <trkpt lat="43.6538" lon="3.36121">
        <ele>304.8</ele>
        <time>2026-05-17T10:46:07.000Z</time>
      </trkpt>
      <trkpt lat="43.6538" lon="3.36121">
        <ele>304.6</ele>
        <time>2026-05-17T10:46:08.000Z</time>
      </trkpt>
      <trkpt lat="43.6538" lon="3.36121">
        <ele>304.5</ele>
        <time>2026-05-17T10:46:09.000Z</time>
      </trkpt>
      <trkpt lat="43.6538" lon="3.36121">
        <ele>304.5</ele>
        <time>2026-05-17T10:46:10.000Z</time>
      </trkpt>
      <trkpt lat="43.6538" lon="3.36121">
        <ele>304.5</ele>
        <time>2026-05-17T10:46:11.000Z</time>
      </trkpt>
      <trkpt lat="43.6538" lon="3.36121">
        <ele>304.5</ele>
        <time>2026-05-17T10:46:12.000Z</time>
      </trkpt>
      <trkpt lat="43.6538" lon="3.36121">
        <ele>304.3</ele>
        <time>2026-05-17T10:46:13.000Z</time>
      </trkpt>
      <trkpt lat="43.6538" lon="3.36121">
        <ele>304.6</ele>
        <time>2026-05-17T10:46:14.000Z</time>
      </trkpt>
      <trkpt lat="43.6538" lon="3.36121">
        <ele>304.5</ele>
        <time>2026-05-17T10:46:15.000Z</time>
      </trkpt>
      <trkpt lat="43.6538" lon="3.36121">
        <ele>304.6</ele>
        <time>2026-05-17T10:46:16.000Z</time>
      </trkpt>
      <trkpt lat="43.6538" lon="3.36121">
        <ele>304.7</ele>
        <time>2026-05-17T10:46:17.000Z</time>
      </trkpt>
      <trkpt lat="43.6538" lon="3.36121">
        <ele>304.8</ele>
        <time>2026-05-17T10:46:18.000Z</time>
      </trkpt>
      <trkpt lat="43.6538" lon="3.36121">
        <ele>304.8</ele>
        <time>2026-05-17T10:46:19.000Z</time>
      </trkpt>
      <trkpt lat="43.6538" lon="3.36121">
        <ele>304.6</ele>
        <time>2026-05-17T10:46:20.000Z</time>
      </trkpt>
      <trkpt lat="43.6538" lon="3.36121">
        <ele>304.6</ele>
        <time>2026-05-17T10:46:21.000Z</time>
      </trkpt>
      <trkpt lat="43.6538" lon="3.36121">
        <ele>304.6</ele>
        <time>2026-05-17T10:46:22.000Z</time>
      </trkpt>
      <trkpt lat="43.6538" lon="3.36121">
        <ele>304.5</ele>
        <time>2026-05-17T10:46:23.000Z</time>
      </trkpt>
      <trkpt lat="43.6538" lon="3.36121">
        <ele>304.4</ele>
        <time>2026-05-17T10:46:24.000Z</time>
      </trkpt>
      <trkpt lat="43.6538" lon="3.36121">
        <ele>304.4</ele>
        <time>2026-05-17T10:46:25.000Z</time>
      </trkpt>
      <trkpt lat="43.6538" lon="3.36121">
        <ele>304.4</ele>
        <time>2026-05-17T10:46:26.000Z</time>
      </trkpt>
      <trkpt lat="43.6538" lon="3.36121">
        <ele>304.4</ele>
        <time>2026-05-17T10:46:27.000Z</time>
      </trkpt>
      <trkpt lat="43.6538" lon="3.36121">
        <ele>304.2</ele>
        <time>2026-05-17T10:46:28.000Z</time>
      </trkpt>
      <trkpt lat="43.6538" lon="3.36121">
        <ele>304</ele>
        <time>2026-05-17T10:46:29.000Z</time>
      </trkpt>
      <trkpt lat="43.6538" lon="3.36121">
        <ele>303.7</ele>
        <time>2026-05-17T10:46:30.000Z</time>
      </trkpt>
      <trkpt lat="43.6538" lon="3.36121">
        <ele>303.7</ele>
        <time>2026-05-17T10:46:31.000Z</time>
      </trkpt>
      <trkpt lat="43.6538" lon="3.36121">
        <ele>303.7</ele>
        <time>2026-05-17T10:46:32.000Z</time>
      </trkpt>
      <trkpt lat="43.6538" lon="3.36121">
        <ele>303.6</ele>
        <time>2026-05-17T10:46:33.000Z</time>
      </trkpt>
      <trkpt lat="43.6538" lon="3.36121">
        <ele>303.6</ele>
        <time>2026-05-17T10:46:34.000Z</time>
      </trkpt>
      <trkpt lat="43.6538" lon="3.36121">
        <ele>303.5</ele>
        <time>2026-05-17T10:46:35.000Z</time>
      </trkpt>
      <trkpt lat="43.6538" lon="3.36121">
        <ele>303.4</ele>
        <time>2026-05-17T10:46:36.000Z</time>
      </trkpt>
      <trkpt lat="43.6538" lon="3.36121">
        <ele>303.2</ele>
        <time>2026-05-17T10:46:37.000Z</time>
      </trkpt>
      <trkpt lat="43.6538" lon="3.36121">
        <ele>303</ele>
        <time>2026-05-17T10:46:38.000Z</time>
      </trkpt>
      <trkpt lat="43.6538" lon="3.36121">
        <ele>302.8</ele>
        <time>2026-05-17T10:46:39.000Z</time>
      </trkpt>
      <trkpt lat="43.6538" lon="3.36121">
        <ele>302.6</ele>
        <time>2026-05-17T10:46:40.000Z</time>
      </trkpt>
      <trkpt lat="43.6538" lon="3.36121">
        <ele>302.4</ele>
        <time>2026-05-17T10:46:41.000Z</time>
      </trkpt>
      <trkpt lat="43.6538" lon="3.36121">
        <ele>302.2</ele>
        <time>2026-05-17T10:46:42.000Z</time>
      </trkpt>
      <trkpt lat="43.6538" lon="3.36121">
        <ele>302</ele>
        <time>2026-05-17T10:46:43.000Z</time>
      </trkpt>
      <trkpt lat="43.6538" lon="3.36121">
        <ele>302</ele>
        <time>2026-05-17T10:46:44.000Z</time>
      </trkpt>
      <trkpt lat="43.6538" lon="3.36121">
        <ele>302</ele>
        <time>2026-05-17T10:46:45.000Z</time>
      </trkpt>
      <trkpt lat="43.6538" lon="3.36121">
        <ele>301.9</ele>
        <time>2026-05-17T10:46:46.000Z</time>
      </trkpt>
      <trkpt lat="43.6538" lon="3.36121">
        <ele>301.8</ele>
        <time>2026-05-17T10:46:47.000Z</time>
      </trkpt>
      <trkpt lat="43.6538" lon="3.36121">
        <ele>301.8</ele>
        <time>2026-05-17T10:46:48.000Z</time>
      </trkpt>
      <trkpt lat="43.6538" lon="3.36121">
        <ele>301.8</ele>
        <time>2026-05-17T10:46:49.000Z</time>
      </trkpt>
      <trkpt lat="43.6538" lon="3.36121">
        <ele>301.9</ele>
        <time>2026-05-17T10:46:50.000Z</time>
      </trkpt>
      <trkpt lat="43.6538" lon="3.36121">
        <ele>302.1</ele>
        <time>2026-05-17T10:46:51.000Z</time>
      </trkpt>
      <trkpt lat="43.6538" lon="3.36121">
        <ele>302.4</ele>
        <time>2026-05-17T10:46:52.000Z</time>
      </trkpt>
      <trkpt lat="43.6538" lon="3.36121">
        <ele>302.4</ele>
        <time>2026-05-17T10:46:53.000Z</time>
      </trkpt>
      <trkpt lat="43.6538" lon="3.36121">
        <ele>302.5</ele>
        <time>2026-05-17T10:46:54.000Z</time>
      </trkpt>
      <trkpt lat="43.6538" lon="3.36121">
        <ele>302.4</ele>
        <time>2026-05-17T10:46:55.000Z</time>
      </trkpt>
      <trkpt lat="43.6538" lon="3.36121">
        <ele>302.3</ele>
        <time>2026-05-17T10:46:56.000Z</time>
      </trkpt>
      <trkpt lat="43.6538" lon="3.36121">
        <ele>302.2</ele>
        <time>2026-05-17T10:46:57.000Z</time>
      </trkpt>
      <trkpt lat="43.6538" lon="3.36121">
        <ele>302</ele>
        <time>2026-05-17T10:46:58.000Z</time>
      </trkpt>
      <trkpt lat="43.6538" lon="3.36121">
        <ele>302</ele>
        <time>2026-05-17T10:46:59.000Z</time>
      </trkpt>
      <trkpt lat="43.6538" lon="3.36121">
        <ele>302</ele>
        <time>2026-05-17T10:47:00.000Z</time>
      </trkpt>
      <trkpt lat="43.6538" lon="3.36121">
        <ele>301.9</ele>
        <time>2026-05-17T10:47:01.000Z</time>
      </trkpt>
      <trkpt lat="43.6538" lon="3.36121">
        <ele>301.8</ele>
        <time>2026-05-17T10:47:02.000Z</time>
      </trkpt>
      <trkpt lat="43.6538" lon="3.36121">
        <ele>301.7</ele>
        <time>2026-05-17T10:47:03.000Z</time>
      </trkpt>
      <trkpt lat="43.6538" lon="3.36121">
        <ele>301.5</ele>
        <time>2026-05-17T10:47:04.000Z</time>
      </trkpt>
      <trkpt lat="43.6538" lon="3.36121">
        <ele>301.3</ele>
        <time>2026-05-17T10:47:05.000Z</time>
      </trkpt>
      <trkpt lat="43.6538" lon="3.36121">
        <ele>301.2</ele>
        <time>2026-05-17T10:47:06.000Z</time>
      </trkpt>
      <trkpt lat="43.6538" lon="3.36121">
        <ele>301.1</ele>
        <time>2026-05-17T10:47:07.000Z</time>
      </trkpt>
      <trkpt lat="43.6538" lon="3.36121">
        <ele>301.1</ele>
        <time>2026-05-17T10:47:08.000Z</time>
      </trkpt>
      <trkpt lat="43.6538" lon="3.36121">
        <ele>301.2</ele>
        <time>2026-05-17T10:47:09.000Z</time>
      </trkpt>
      <trkpt lat="43.6538" lon="3.36121">
        <ele>301</ele>
        <time>2026-05-17T10:47:10.000Z</time>
      </trkpt>
      <trkpt lat="43.6538" lon="3.36121">
        <ele>300.9</ele>
        <time>2026-05-17T10:47:11.000Z</time>
      </trkpt>
      <trkpt lat="43.6538" lon="3.36121">
        <ele>300.8</ele>
        <time>2026-05-17T10:47:12.000Z</time>
      </trkpt>
      <trkpt lat="43.6538" lon="3.36121">
        <ele>300.7</ele>
        <time>2026-05-17T10:47:13.000Z</time>
      </trkpt>
      <trkpt lat="43.6538" lon="3.36121">
        <ele>300.7</ele>
        <time>2026-05-17T10:47:14.000Z</time>
      </trkpt>
      <trkpt lat="43.6538" lon="3.36121">
        <ele>300.7</ele>
        <time>2026-05-17T10:47:15.000Z</time>
      </trkpt>
      <trkpt lat="43.6538" lon="3.36121">
        <ele>300.6</ele>
        <time>2026-05-17T10:47:16.000Z</time>
      </trkpt>
      <trkpt lat="43.6538" lon="3.36121">
        <ele>300.6</ele>
        <time>2026-05-17T10:47:17.000Z</time>
      </trkpt>
      <trkpt lat="43.6538" lon="3.36121">
        <ele>300.7</ele>
        <time>2026-05-17T10:47:18.000Z</time>
      </trkpt>
      <trkpt lat="43.6538" lon="3.36121">
        <ele>300.6</ele>
        <time>2026-05-17T10:47:19.000Z</time>
      </trkpt>
      <trkpt lat="43.6538" lon="3.36121">
        <ele>300.8</ele>
        <time>2026-05-17T10:47:20.000Z</time>
      </trkpt>
      <trkpt lat="43.6538" lon="3.36121">
        <ele>300.7</ele>
        <time>2026-05-17T10:47:21.000Z</time>
      </trkpt>
      <trkpt lat="43.6538" lon="3.36121">
        <ele>300.6</ele>
        <time>2026-05-17T10:47:22.000Z</time>
      </trkpt>
      <trkpt lat="43.6538" lon="3.36121">
        <ele>300.6</ele>
        <time>2026-05-17T10:47:23.000Z</time>
      </trkpt>
      <trkpt lat="43.6538" lon="3.36121">
        <ele>300.5</ele>
        <time>2026-05-17T10:47:24.000Z</time>
      </trkpt>
      <trkpt lat="43.6538" lon="3.36121">
        <ele>300.4</ele>
        <time>2026-05-17T10:47:25.000Z</time>
      </trkpt>
      <trkpt lat="43.65379" lon="3.36121">
        <ele>300.5</ele>
        <time>2026-05-17T10:47:26.000Z</time>
      </trkpt>
      <trkpt lat="43.65379" lon="3.36121">
        <ele>300.6</ele>
        <time>2026-05-17T10:47:27.000Z</time>
      </trkpt>
      <trkpt lat="43.65379" lon="3.36121">
        <ele>300.5</ele>
        <time>2026-05-17T10:47:28.000Z</time>
      </trkpt>
      <trkpt lat="43.65379" lon="3.36121">
        <ele>300.5</ele>
        <time>2026-05-17T10:47:29.000Z</time>
      </trkpt>
      <trkpt lat="43.65379" lon="3.36121">
        <ele>300.5</ele>
        <time>2026-05-17T10:47:30.000Z</time>
      </trkpt>
      <trkpt lat="43.65379" lon="3.36121">
        <ele>300.5</ele>
        <time>2026-05-17T10:47:31.000Z</time>
      </trkpt>
      <trkpt lat="43.65379" lon="3.36121">
        <ele>300.5</ele>
        <time>2026-05-17T10:47:32.000Z</time>
      </trkpt>
      <trkpt lat="43.65379" lon="3.36122">
        <ele>300.2</ele>
        <time>2026-05-17T10:47:33.000Z</time>
      </trkpt>
      <trkpt lat="43.65379" lon="3.36122">
        <ele>300.4</ele>
        <time>2026-05-17T10:47:34.000Z</time>
      </trkpt>
      <trkpt lat="43.65379" lon="3.36122">
        <ele>300.6</ele>
        <time>2026-05-17T10:47:35.000Z</time>
      </trkpt>
      <trkpt lat="43.65379" lon="3.36122">
        <ele>300.9</ele>
        <time>2026-05-17T10:47:36.000Z</time>
      </trkpt>
      <trkpt lat="43.65379" lon="3.36122">
        <ele>301.2</ele>
        <time>2026-05-17T10:47:37.000Z</time>
      </trkpt>
      <trkpt lat="43.65379" lon="3.36122">
        <ele>301.4</ele>
        <time>2026-05-17T10:47:38.000Z</time>
      </trkpt>
      <trkpt lat="43.65379" lon="3.36122">
        <ele>301.4</ele>
        <time>2026-05-17T10:47:39.000Z</time>
      </trkpt>
      <trkpt lat="43.65379" lon="3.36122">
        <ele>301.6</ele>
        <time>2026-05-17T10:47:40.000Z</time>
      </trkpt>
      <trkpt lat="43.65379" lon="3.36122">
        <ele>301.6</ele>
        <time>2026-05-17T10:47:41.000Z</time>
      </trkpt>
      <trkpt lat="43.65379" lon="3.36122">
        <ele>301.8</ele>
        <time>2026-05-17T10:47:42.000Z</time>
      </trkpt>
      <trkpt lat="43.65379" lon="3.36122">
        <ele>301.8</ele>
        <time>2026-05-17T10:47:43.000Z</time>
      </trkpt>
      <trkpt lat="43.65379" lon="3.36122">
        <ele>301.8</ele>
        <time>2026-05-17T10:47:44.000Z</time>
      </trkpt>
      <trkpt lat="43.65379" lon="3.36122">
        <ele>301.9</ele>
        <time>2026-05-17T10:47:45.000Z</time>
      </trkpt>
      <trkpt lat="43.65379" lon="3.36122">
        <ele>301.9</ele>
        <time>2026-05-17T10:47:46.000Z</time>
      </trkpt>
      <trkpt lat="43.65379" lon="3.36122">
        <ele>301.8</ele>
        <time>2026-05-17T10:47:47.000Z</time>
      </trkpt>
      <trkpt lat="43.65379" lon="3.36122">
        <ele>301.6</ele>
        <time>2026-05-17T10:47:48.000Z</time>
      </trkpt>
      <trkpt lat="43.65379" lon="3.36122">
        <ele>301.6</ele>
        <time>2026-05-17T10:47:49.000Z</time>
      </trkpt>
      <trkpt lat="43.65379" lon="3.36122">
        <ele>301.4</ele>
        <time>2026-05-17T10:47:50.000Z</time>
      </trkpt>
      <trkpt lat="43.65379" lon="3.36122">
        <ele>301.4</ele>
        <time>2026-05-17T10:47:51.000Z</time>
      </trkpt>
      <trkpt lat="43.65379" lon="3.36122">
        <ele>301.3</ele>
        <time>2026-05-17T10:47:52.000Z</time>
      </trkpt>
      <trkpt lat="43.65379" lon="3.36122">
        <ele>301.3</ele>
        <time>2026-05-17T10:47:53.000Z</time>
      </trkpt>
      <trkpt lat="43.65379" lon="3.36122">
        <ele>301.2</ele>
        <time>2026-05-17T10:47:54.000Z</time>
      </trkpt>
      <trkpt lat="43.65379" lon="3.36122">
        <ele>301.2</ele>
        <time>2026-05-17T10:47:55.000Z</time>
      </trkpt>
      <trkpt lat="43.65379" lon="3.36122">
        <ele>301.2</ele>
        <time>2026-05-17T10:47:56.000Z</time>
      </trkpt>
      <trkpt lat="43.65379" lon="3.36122">
        <ele>301.1</ele>
        <time>2026-05-17T10:47:57.000Z</time>
      </trkpt>
      <trkpt lat="43.65379" lon="3.36122">
        <ele>301</ele>
        <time>2026-05-17T10:47:58.000Z</time>
      </trkpt>
      <trkpt lat="43.65379" lon="3.36122">
        <ele>301</ele>
        <time>2026-05-17T10:47:59.000Z</time>
      </trkpt>
      <trkpt lat="43.65379" lon="3.36122">
        <ele>301</ele>
        <time>2026-05-17T10:48:00.000Z</time>
      </trkpt>
      <trkpt lat="43.65379" lon="3.36122">
        <ele>300.9</ele>
        <time>2026-05-17T10:48:01.000Z</time>
      </trkpt>
      <trkpt lat="43.65379" lon="3.36122">
        <ele>300.8</ele>
        <time>2026-05-17T10:48:02.000Z</time>
      </trkpt>
      <trkpt lat="43.65379" lon="3.36122">
        <ele>300.8</ele>
        <time>2026-05-17T10:48:03.000Z</time>
      </trkpt>
      <trkpt lat="43.65379" lon="3.36122">
        <ele>300.7</ele>
        <time>2026-05-17T10:48:04.000Z</time>
      </trkpt>
      <trkpt lat="43.65379" lon="3.36122">
        <ele>300.6</ele>
        <time>2026-05-17T10:48:05.000Z</time>
      </trkpt>
      <trkpt lat="43.65379" lon="3.36122">
        <ele>300.6</ele>
        <time>2026-05-17T10:48:06.000Z</time>
      </trkpt>
      <trkpt lat="43.65379" lon="3.36122">
        <ele>300.6</ele>
        <time>2026-05-17T10:48:07.000Z</time>
      </trkpt>
      <trkpt lat="43.65379" lon="3.36122">
        <ele>300.7</ele>
        <time>2026-05-17T10:48:08.000Z</time>
      </trkpt>
      <trkpt lat="43.65379" lon="3.36122">
        <ele>300.8</ele>
        <time>2026-05-17T10:48:09.000Z</time>
      </trkpt>
      <trkpt lat="43.65379" lon="3.36122">
        <ele>300.9</ele>
        <time>2026-05-17T10:48:10.000Z</time>
      </trkpt>
      <trkpt lat="43.65379" lon="3.36122">
        <ele>301</ele>
        <time>2026-05-17T10:48:11.000Z</time>
      </trkpt>
      <trkpt lat="43.65379" lon="3.36122">
        <ele>301.1</ele>
        <time>2026-05-17T10:48:12.000Z</time>
      </trkpt>
      <trkpt lat="43.65379" lon="3.36122">
        <ele>301.2</ele>
        <time>2026-05-17T10:48:13.000Z</time>
      </trkpt>
      <trkpt lat="43.65379" lon="3.36122">
        <ele>301.3</ele>
        <time>2026-05-17T10:48:14.000Z</time>
      </trkpt>
      <trkpt lat="43.65379" lon="3.36122">
        <ele>301.4</ele>
        <time>2026-05-17T10:48:15.000Z</time>
      </trkpt>
      <trkpt lat="43.65379" lon="3.36122">
        <ele>301.4</ele>
        <time>2026-05-17T10:48:16.000Z</time>
      </trkpt>
      <trkpt lat="43.65379" lon="3.36122">
        <ele>301.4</ele>
        <time>2026-05-17T10:48:17.000Z</time>
      </trkpt>
      <trkpt lat="43.65379" lon="3.36122">
        <ele>301.5</ele>
        <time>2026-05-17T10:48:18.000Z</time>
      </trkpt>
      <trkpt lat="43.65379" lon="3.36122">
        <ele>301.6</ele>
        <time>2026-05-17T10:48:19.000Z</time>
      </trkpt>
      <trkpt lat="43.65379" lon="3.36122">
        <ele>301.7</ele>
        <time>2026-05-17T10:48:20.000Z</time>
      </trkpt>
      <trkpt lat="43.65379" lon="3.36122">
        <ele>301.9</ele>
        <time>2026-05-17T10:48:21.000Z</time>
      </trkpt>
      <trkpt lat="43.65379" lon="3.36122">
        <ele>301.9</ele>
        <time>2026-05-17T10:48:22.000Z</time>
      </trkpt>
      <trkpt lat="43.65379" lon="3.36122">
        <ele>301.9</ele>
        <time>2026-05-17T10:48:23.000Z</time>
      </trkpt>
      <trkpt lat="43.65379" lon="3.36122">
        <ele>301.8</ele>
        <time>2026-05-17T10:48:24.000Z</time>
      </trkpt>
      <trkpt lat="43.65379" lon="3.36122">
        <ele>301.7</ele>
        <time>2026-05-17T10:48:25.000Z</time>
      </trkpt>
      <trkpt lat="43.65379" lon="3.36122">
        <ele>301.7</ele>
        <time>2026-05-17T10:48:26.000Z</time>
      </trkpt>
      <trkpt lat="43.65379" lon="3.36122">
        <ele>301.7</ele>
        <time>2026-05-17T10:48:27.000Z</time>
      </trkpt>
      <trkpt lat="43.65379" lon="3.36122">
        <ele>301.8</ele>
        <time>2026-05-17T10:48:28.000Z</time>
      </trkpt>
      <trkpt lat="43.65379" lon="3.36122">
        <ele>301.7</ele>
        <time>2026-05-17T10:48:29.000Z</time>
      </trkpt>
      <trkpt lat="43.65379" lon="3.36122">
        <ele>301.6</ele>
        <time>2026-05-17T10:48:30.000Z</time>
      </trkpt>
      <trkpt lat="43.65379" lon="3.36122">
        <ele>301.5</ele>
        <time>2026-05-17T10:48:31.000Z</time>
      </trkpt>
      <trkpt lat="43.65379" lon="3.36122">
        <ele>301.5</ele>
        <time>2026-05-17T10:48:32.000Z</time>
      </trkpt>
      <trkpt lat="43.65379" lon="3.36122">
        <ele>301.4</ele>
        <time>2026-05-17T10:48:33.000Z</time>
      </trkpt>
      <trkpt lat="43.65379" lon="3.36122">
        <ele>301.3</ele>
        <time>2026-05-17T10:48:34.000Z</time>
      </trkpt>
      <trkpt lat="43.65379" lon="3.36122">
        <ele>301.4</ele>
        <time>2026-05-17T10:48:35.000Z</time>
      </trkpt>
      <trkpt lat="43.65379" lon="3.36122">
        <ele>301.5</ele>
        <time>2026-05-17T10:48:36.000Z</time>
      </trkpt>
      <trkpt lat="43.65379" lon="3.36122">
        <ele>301.5</ele>
        <time>2026-05-17T10:48:37.000Z</time>
      </trkpt>
      <trkpt lat="43.65379" lon="3.36122">
        <ele>301.6</ele>
        <time>2026-05-17T10:48:38.000Z</time>
      </trkpt>
      <trkpt lat="43.65379" lon="3.36122">
        <ele>301.5</ele>
        <time>2026-05-17T10:48:39.000Z</time>
      </trkpt>
      <trkpt lat="43.65379" lon="3.36122">
        <ele>301.4</ele>
        <time>2026-05-17T10:48:40.000Z</time>
      </trkpt>
      <trkpt lat="43.65379" lon="3.36122">
        <ele>301.4</ele>
        <time>2026-05-17T10:48:41.000Z</time>
      </trkpt>
      <trkpt lat="43.65379" lon="3.36122">
        <ele>301.4</ele>
        <time>2026-05-17T10:48:42.000Z</time>
      </trkpt>
      <trkpt lat="43.65379" lon="3.36122">
        <ele>301.5</ele>
        <time>2026-05-17T10:48:43.000Z</time>
      </trkpt>
      <trkpt lat="43.65379" lon="3.36122">
        <ele>301.6</ele>
        <time>2026-05-17T10:48:44.000Z</time>
      </trkpt>
      <trkpt lat="43.65379" lon="3.36122">
        <ele>301.7</ele>
        <time>2026-05-17T10:48:45.000Z</time>
      </trkpt>
      <trkpt lat="43.65379" lon="3.36122">
        <ele>301.6</ele>
        <time>2026-05-17T10:48:46.000Z</time>
      </trkpt>
      <trkpt lat="43.65379" lon="3.36122">
        <ele>301.7</ele>
        <time>2026-05-17T10:48:47.000Z</time>
      </trkpt>
      <trkpt lat="43.65379" lon="3.36122">
        <ele>301.7</ele>
        <time>2026-05-17T10:48:48.000Z</time>
      </trkpt>
      <trkpt lat="43.65379" lon="3.36122">
        <ele>301.7</ele>
        <time>2026-05-17T10:48:49.000Z</time>
      </trkpt>
      <trkpt lat="43.65379" lon="3.36122">
        <ele>301.9</ele>
        <time>2026-05-17T10:48:50.000Z</time>
      </trkpt>
      <trkpt lat="43.65379" lon="3.36122">
        <ele>301.9</ele>
        <time>2026-05-17T10:48:51.000Z</time>
      </trkpt>
      <trkpt lat="43.65379" lon="3.36122">
        <ele>301.7</ele>
        <time>2026-05-17T10:48:52.000Z</time>
      </trkpt>
      <trkpt lat="43.65379" lon="3.36122">
        <ele>301.6</ele>
        <time>2026-05-17T10:48:53.000Z</time>
      </trkpt>
      <trkpt lat="43.65379" lon="3.36122">
        <ele>301.6</ele>
        <time>2026-05-17T10:48:54.000Z</time>
      </trkpt>
      <trkpt lat="43.65379" lon="3.36122">
        <ele>301.6</ele>
        <time>2026-05-17T10:48:55.000Z</time>
      </trkpt>
      <trkpt lat="43.65379" lon="3.36122">
        <ele>301.6</ele>
        <time>2026-05-17T10:48:56.000Z</time>
      </trkpt>
      <trkpt lat="43.65379" lon="3.36122">
        <ele>301.5</ele>
        <time>2026-05-17T10:48:57.000Z</time>
      </trkpt>
      <trkpt lat="43.65379" lon="3.36122">
        <ele>301.5</ele>
        <time>2026-05-17T10:48:58.000Z</time>
      </trkpt>
      <trkpt lat="43.65379" lon="3.36122">
        <ele>301.5</ele>
        <time>2026-05-17T10:48:59.000Z</time>
      </trkpt>
      <trkpt lat="43.65379" lon="3.36122">
        <ele>301.4</ele>
        <time>2026-05-17T10:49:00.000Z</time>
      </trkpt>
      <trkpt lat="43.65379" lon="3.36122">
        <ele>301.2</ele>
        <time>2026-05-17T10:49:01.000Z</time>
      </trkpt>
      <trkpt lat="43.65379" lon="3.36122">
        <ele>301.1</ele>
        <time>2026-05-17T10:49:02.000Z</time>
      </trkpt>
      <trkpt lat="43.65379" lon="3.36122">
        <ele>301.1</ele>
        <time>2026-05-17T10:49:03.000Z</time>
      </trkpt>
      <trkpt lat="43.65379" lon="3.36122">
        <ele>301</ele>
        <time>2026-05-17T10:49:04.000Z</time>
      </trkpt>
      <trkpt lat="43.65379" lon="3.36122">
        <ele>301</ele>
        <time>2026-05-17T10:49:05.000Z</time>
      </trkpt>
      <trkpt lat="43.65379" lon="3.36122">
        <ele>301</ele>
        <time>2026-05-17T10:49:06.000Z</time>
      </trkpt>
      <trkpt lat="43.65379" lon="3.36122">
        <ele>301</ele>
        <time>2026-05-17T10:49:07.000Z</time>
      </trkpt>
      <trkpt lat="43.65379" lon="3.36122">
        <ele>301.1</ele>
        <time>2026-05-17T10:49:08.000Z</time>
      </trkpt>
      <trkpt lat="43.65379" lon="3.36122">
        <ele>301.1</ele>
        <time>2026-05-17T10:49:09.000Z</time>
      </trkpt>
      <trkpt lat="43.65379" lon="3.36122">
        <ele>301.1</ele>
        <time>2026-05-17T10:49:10.000Z</time>
      </trkpt>
      <trkpt lat="43.65379" lon="3.36122">
        <ele>301</ele>
        <time>2026-05-17T10:49:11.000Z</time>
      </trkpt>
      <trkpt lat="43.65379" lon="3.36122">
        <ele>300.9</ele>
        <time>2026-05-17T10:49:12.000Z</time>
      </trkpt>
      <trkpt lat="43.65379" lon="3.36122">
        <ele>300.9</ele>
        <time>2026-05-17T10:49:13.000Z</time>
      </trkpt>
      <trkpt lat="43.65379" lon="3.36122">
        <ele>301</ele>
        <time>2026-05-17T10:49:14.000Z</time>
      </trkpt>
      <trkpt lat="43.65379" lon="3.36122">
        <ele>301</ele>
        <time>2026-05-17T10:49:15.000Z</time>
      </trkpt>
      <trkpt lat="43.65379" lon="3.36122">
        <ele>301</ele>
        <time>2026-05-17T10:49:16.000Z</time>
      </trkpt>
      <trkpt lat="43.65379" lon="3.36122">
        <ele>301</ele>
        <time>2026-05-17T10:49:17.000Z</time>
      </trkpt>
      <trkpt lat="43.65379" lon="3.36122">
        <ele>301.1</ele>
        <time>2026-05-17T10:49:18.000Z</time>
      </trkpt>
      <trkpt lat="43.65379" lon="3.36122">
        <ele>301.2</ele>
        <time>2026-05-17T10:49:19.000Z</time>
      </trkpt>
      <trkpt lat="43.65379" lon="3.36122">
        <ele>301.2</ele>
        <time>2026-05-17T10:49:20.000Z</time>
      </trkpt>
      <trkpt lat="43.65379" lon="3.36122">
        <ele>301.4</ele>
        <time>2026-05-17T10:49:21.000Z</time>
      </trkpt>
      <trkpt lat="43.65379" lon="3.36122">
        <ele>301.4</ele>
        <time>2026-05-17T10:49:22.000Z</time>
      </trkpt>
      <trkpt lat="43.65379" lon="3.36122">
        <ele>301.5</ele>
        <time>2026-05-17T10:49:23.000Z</time>
      </trkpt>
      <trkpt lat="43.65379" lon="3.36122">
        <ele>301.5</ele>
        <time>2026-05-17T10:49:24.000Z</time>
      </trkpt>
      <trkpt lat="43.65379" lon="3.36122">
        <ele>301.5</ele>
        <time>2026-05-17T10:49:25.000Z</time>
      </trkpt>
      <trkpt lat="43.65379" lon="3.36122">
        <ele>301.5</ele>
        <time>2026-05-17T10:49:26.000Z</time>
      </trkpt>
      <trkpt lat="43.65379" lon="3.36122">
        <ele>301.4</ele>
        <time>2026-05-17T10:49:27.000Z</time>
      </trkpt>
      <trkpt lat="43.65379" lon="3.36122">
        <ele>301.4</ele>
        <time>2026-05-17T10:49:28.000Z</time>
      </trkpt>
      <trkpt lat="43.65379" lon="3.36122">
        <ele>301.4</ele>
        <time>2026-05-17T10:49:29.000Z</time>
      </trkpt>
      <trkpt lat="43.65379" lon="3.36122">
        <ele>301.5</ele>
        <time>2026-05-17T10:49:30.000Z</time>
      </trkpt>
      <trkpt lat="43.65379" lon="3.36122">
        <ele>301.5</ele>
        <time>2026-05-17T10:49:31.000Z</time>
      </trkpt>
      <trkpt lat="43.65379" lon="3.36122">
        <ele>301.4</ele>
        <time>2026-05-17T10:49:32.000Z</time>
      </trkpt>
      <trkpt lat="43.65379" lon="3.36122">
        <ele>301.2</ele>
        <time>2026-05-17T10:49:33.000Z</time>
      </trkpt>
      <trkpt lat="43.65379" lon="3.36122">
        <ele>301.1</ele>
        <time>2026-05-17T10:49:34.000Z</time>
      </trkpt>
      <trkpt lat="43.65379" lon="3.36122">
        <ele>301</ele>
        <time>2026-05-17T10:49:35.000Z</time>
      </trkpt>
      <trkpt lat="43.6538" lon="3.36122">
        <ele>301</ele>
        <time>2026-05-17T10:49:36.000Z</time>
      </trkpt>
      <trkpt lat="43.6538" lon="3.36122">
        <ele>300.8</ele>
        <time>2026-05-17T10:49:37.000Z</time>
      </trkpt>
      <trkpt lat="43.6538" lon="3.36122">
        <ele>300.8</ele>
        <time>2026-05-17T10:49:38.000Z</time>
      </trkpt>
      <trkpt lat="43.6538" lon="3.36122">
        <ele>300.7</ele>
        <time>2026-05-17T10:49:39.000Z</time>
      </trkpt>
      <trkpt lat="43.6538" lon="3.36122">
        <ele>300.7</ele>
        <time>2026-05-17T10:49:40.000Z</time>
      </trkpt>
      <trkpt lat="43.6538" lon="3.36122">
        <ele>300.7</ele>
        <time>2026-05-17T10:49:41.000Z</time>
      </trkpt>
      <trkpt lat="43.6538" lon="3.36122">
        <ele>300.8</ele>
        <time>2026-05-17T10:49:42.000Z</time>
      </trkpt>
      <trkpt lat="43.6538" lon="3.36122">
        <ele>300.8</ele>
        <time>2026-05-17T10:49:43.000Z</time>
      </trkpt>
      <trkpt lat="43.6538" lon="3.36122">
        <ele>300.9</ele>
        <time>2026-05-17T10:49:44.000Z</time>
      </trkpt>
      <trkpt lat="43.6538" lon="3.36122">
        <ele>300.8</ele>
        <time>2026-05-17T10:49:45.000Z</time>
      </trkpt>
      <trkpt lat="43.6538" lon="3.36122">
        <ele>300.7</ele>
        <time>2026-05-17T10:49:46.000Z</time>
      </trkpt>
      <trkpt lat="43.6538" lon="3.36122">
        <ele>300.6</ele>
        <time>2026-05-17T10:49:47.000Z</time>
      </trkpt>
      <trkpt lat="43.6538" lon="3.36122">
        <ele>300.5</ele>
        <time>2026-05-17T10:49:48.000Z</time>
      </trkpt>
      <trkpt lat="43.6538" lon="3.36122">
        <ele>300.5</ele>
        <time>2026-05-17T10:49:49.000Z</time>
      </trkpt>
      <trkpt lat="43.6538" lon="3.36122">
        <ele>300.4</ele>
        <time>2026-05-17T10:49:50.000Z</time>
      </trkpt>
      <trkpt lat="43.6538" lon="3.36122">
        <ele>300.4</ele>
        <time>2026-05-17T10:49:51.000Z</time>
      </trkpt>
      <trkpt lat="43.6538" lon="3.36122">
        <ele>300.6</ele>
        <time>2026-05-17T10:49:52.000Z</time>
      </trkpt>
      <trkpt lat="43.6538" lon="3.36122">
        <ele>300.6</ele>
        <time>2026-05-17T10:49:53.000Z</time>
      </trkpt>
      <trkpt lat="43.6538" lon="3.36122">
        <ele>300.6</ele>
        <time>2026-05-17T10:49:54.000Z</time>
      </trkpt>
      <trkpt lat="43.6538" lon="3.36122">
        <ele>300.7</ele>
        <time>2026-05-17T10:49:55.000Z</time>
      </trkpt>
      <trkpt lat="43.6538" lon="3.36122">
        <ele>300.7</ele>
        <time>2026-05-17T10:49:56.000Z</time>
      </trkpt>
      <trkpt lat="43.6538" lon="3.36122">
        <ele>300.7</ele>
        <time>2026-05-17T10:49:57.000Z</time>
      </trkpt>
      <trkpt lat="43.6538" lon="3.36122">
        <ele>300.7</ele>
        <time>2026-05-17T10:49:58.000Z</time>
      </trkpt>
      <trkpt lat="43.6538" lon="3.36122">
        <ele>301</ele>
        <time>2026-05-17T10:49:59.000Z</time>
      </trkpt>
      <trkpt lat="43.6538" lon="3.36122">
        <ele>300.9</ele>
        <time>2026-05-17T10:50:00.000Z</time>
      </trkpt>
      <trkpt lat="43.6538" lon="3.36122">
        <ele>301</ele>
        <time>2026-05-17T10:50:01.000Z</time>
      </trkpt>
      <trkpt lat="43.6538" lon="3.36122">
        <ele>301</ele>
        <time>2026-05-17T10:50:02.000Z</time>
      </trkpt>
      <trkpt lat="43.6538" lon="3.36122">
        <ele>301</ele>
        <time>2026-05-17T10:50:03.000Z</time>
      </trkpt>
      <trkpt lat="43.6538" lon="3.36122">
        <ele>301.2</ele>
        <time>2026-05-17T10:50:04.000Z</time>
      </trkpt>
      <trkpt lat="43.6538" lon="3.36122">
        <ele>301.4</ele>
        <time>2026-05-17T10:50:05.000Z</time>
      </trkpt>
      <trkpt lat="43.6538" lon="3.36122">
        <ele>301.6</ele>
        <time>2026-05-17T10:50:06.000Z</time>
      </trkpt>
      <trkpt lat="43.6538" lon="3.36122">
        <ele>301.8</ele>
        <time>2026-05-17T10:50:07.000Z</time>
      </trkpt>
      <trkpt lat="43.6538" lon="3.36122">
        <ele>301.7</ele>
        <time>2026-05-17T10:50:08.000Z</time>
      </trkpt>
      <trkpt lat="43.6538" lon="3.36122">
        <ele>301.8</ele>
        <time>2026-05-17T10:50:09.000Z</time>
      </trkpt>
      <trkpt lat="43.6538" lon="3.36122">
        <ele>301.7</ele>
        <time>2026-05-17T10:50:10.000Z</time>
      </trkpt>
      <trkpt lat="43.6538" lon="3.36122">
        <ele>301.7</ele>
        <time>2026-05-17T10:50:11.000Z</time>
      </trkpt>
      <trkpt lat="43.6538" lon="3.36122">
        <ele>301.7</ele>
        <time>2026-05-17T10:50:12.000Z</time>
      </trkpt>
      <trkpt lat="43.6538" lon="3.36122">
        <ele>301.6</ele>
        <time>2026-05-17T10:50:13.000Z</time>
      </trkpt>
      <trkpt lat="43.6538" lon="3.36122">
        <ele>301.5</ele>
        <time>2026-05-17T10:50:14.000Z</time>
      </trkpt>
      <trkpt lat="43.6538" lon="3.36122">
        <ele>301.5</ele>
        <time>2026-05-17T10:50:15.000Z</time>
      </trkpt>
      <trkpt lat="43.6538" lon="3.36122">
        <ele>301.7</ele>
        <time>2026-05-17T10:50:16.000Z</time>
      </trkpt>
      <trkpt lat="43.6538" lon="3.36122">
        <ele>301.9</ele>
        <time>2026-05-17T10:50:17.000Z</time>
      </trkpt>
      <trkpt lat="43.6538" lon="3.36122">
        <ele>301.9</ele>
        <time>2026-05-17T10:50:18.000Z</time>
      </trkpt>
      <trkpt lat="43.6538" lon="3.36122">
        <ele>302</ele>
        <time>2026-05-17T10:50:19.000Z</time>
      </trkpt>
      <trkpt lat="43.6538" lon="3.36122">
        <ele>302.1</ele>
        <time>2026-05-17T10:50:20.000Z</time>
      </trkpt>
      <trkpt lat="43.6538" lon="3.36122">
        <ele>302.2</ele>
        <time>2026-05-17T10:50:21.000Z</time>
      </trkpt>
      <trkpt lat="43.6538" lon="3.36122">
        <ele>302.1</ele>
        <time>2026-05-17T10:50:22.000Z</time>
      </trkpt>
      <trkpt lat="43.6538" lon="3.36122">
        <ele>302.2</ele>
        <time>2026-05-17T10:50:23.000Z</time>
      </trkpt>
      <trkpt lat="43.6538" lon="3.36122">
        <ele>302.2</ele>
        <time>2026-05-17T10:50:24.000Z</time>
      </trkpt>
      <trkpt lat="43.6538" lon="3.36122">
        <ele>302.3</ele>
        <time>2026-05-17T10:50:25.000Z</time>
      </trkpt>
      <trkpt lat="43.6538" lon="3.36122">
        <ele>302.4</ele>
        <time>2026-05-17T10:50:26.000Z</time>
      </trkpt>
      <trkpt lat="43.6538" lon="3.36122">
        <ele>302.4</ele>
        <time>2026-05-17T10:50:27.000Z</time>
      </trkpt>
      <trkpt lat="43.6538" lon="3.36122">
        <ele>302.4</ele>
        <time>2026-05-17T10:50:28.000Z</time>
      </trkpt>
      <trkpt lat="43.6538" lon="3.36122">
        <ele>302.5</ele>
        <time>2026-05-17T10:50:29.000Z</time>
      </trkpt>
      <trkpt lat="43.6538" lon="3.36122">
        <ele>302.6</ele>
        <time>2026-05-17T10:50:30.000Z</time>
      </trkpt>
      <trkpt lat="43.6538" lon="3.36122">
        <ele>302.8</ele>
        <time>2026-05-17T10:50:31.000Z</time>
      </trkpt>
      <trkpt lat="43.6538" lon="3.36122">
        <ele>302.8</ele>
        <time>2026-05-17T10:50:32.000Z</time>
      </trkpt>
      <trkpt lat="43.6538" lon="3.36122">
        <ele>302.8</ele>
        <time>2026-05-17T10:50:33.000Z</time>
      </trkpt>
      <trkpt lat="43.6538" lon="3.36122">
        <ele>302.9</ele>
        <time>2026-05-17T10:50:34.000Z</time>
      </trkpt>
      <trkpt lat="43.6538" lon="3.36122">
        <ele>303</ele>
        <time>2026-05-17T10:50:35.000Z</time>
      </trkpt>
      <trkpt lat="43.6538" lon="3.36122">
        <ele>303</ele>
        <time>2026-05-17T10:50:36.000Z</time>
      </trkpt>
      <trkpt lat="43.6538" lon="3.36122">
        <ele>303</ele>
        <time>2026-05-17T10:50:37.000Z</time>
      </trkpt>
      <trkpt lat="43.6538" lon="3.36122">
        <ele>303</ele>
        <time>2026-05-17T10:50:38.000Z</time>
      </trkpt>
      <trkpt lat="43.6538" lon="3.36122">
        <ele>302.9</ele>
        <time>2026-05-17T10:50:39.000Z</time>
      </trkpt>
      <trkpt lat="43.6538" lon="3.36122">
        <ele>302.8</ele>
        <time>2026-05-17T10:50:40.000Z</time>
      </trkpt>
      <trkpt lat="43.6538" lon="3.36122">
        <ele>302.8</ele>
        <time>2026-05-17T10:50:41.000Z</time>
      </trkpt>
      <trkpt lat="43.6538" lon="3.36122">
        <ele>302.5</ele>
        <time>2026-05-17T10:50:42.000Z</time>
      </trkpt>
      <trkpt lat="43.6538" lon="3.36122">
        <ele>302.2</ele>
        <time>2026-05-17T10:50:43.000Z</time>
      </trkpt>
      <trkpt lat="43.6538" lon="3.36122">
        <ele>301.9</ele>
        <time>2026-05-17T10:50:44.000Z</time>
      </trkpt>
      <trkpt lat="43.6538" lon="3.36122">
        <ele>301.8</ele>
        <time>2026-05-17T10:50:45.000Z</time>
      </trkpt>
      <trkpt lat="43.6538" lon="3.36122">
        <ele>301.8</ele>
        <time>2026-05-17T10:50:46.000Z</time>
      </trkpt>
      <trkpt lat="43.6538" lon="3.36122">
        <ele>301.6</ele>
        <time>2026-05-17T10:50:47.000Z</time>
      </trkpt>
      <trkpt lat="43.6538" lon="3.36122">
        <ele>301.5</ele>
        <time>2026-05-17T10:50:48.000Z</time>
      </trkpt>
      <trkpt lat="43.6538" lon="3.36122">
        <ele>301.5</ele>
        <time>2026-05-17T10:50:49.000Z</time>
      </trkpt>
      <trkpt lat="43.6538" lon="3.36122">
        <ele>301.5</ele>
        <time>2026-05-17T10:50:50.000Z</time>
      </trkpt>
      <trkpt lat="43.6538" lon="3.36122">
        <ele>301.3</ele>
        <time>2026-05-17T10:50:51.000Z</time>
      </trkpt>
      <trkpt lat="43.6538" lon="3.36122">
        <ele>301.2</ele>
        <time>2026-05-17T10:50:52.000Z</time>
      </trkpt>
      <trkpt lat="43.6538" lon="3.36122">
        <ele>301.1</ele>
        <time>2026-05-17T10:50:53.000Z</time>
      </trkpt>
      <trkpt lat="43.6538" lon="3.36122">
        <ele>301.2</ele>
        <time>2026-05-17T10:50:54.000Z</time>
      </trkpt>
      <trkpt lat="43.6538" lon="3.36122">
        <ele>301.4</ele>
        <time>2026-05-17T10:50:55.000Z</time>
      </trkpt>
      <trkpt lat="43.6538" lon="3.36122">
        <ele>301.5</ele>
        <time>2026-05-17T10:50:56.000Z</time>
      </trkpt>
      <trkpt lat="43.6538" lon="3.36122">
        <ele>301.4</ele>
        <time>2026-05-17T10:50:57.000Z</time>
      </trkpt>
      <trkpt lat="43.6538" lon="3.36122">
        <ele>301.4</ele>
        <time>2026-05-17T10:50:58.000Z</time>
      </trkpt>
      <trkpt lat="43.6538" lon="3.36122">
        <ele>301.2</ele>
        <time>2026-05-17T10:50:59.000Z</time>
      </trkpt>
      <trkpt lat="43.6538" lon="3.36122">
        <ele>301</ele>
        <time>2026-05-17T10:51:00.000Z</time>
      </trkpt>
      <trkpt lat="43.6538" lon="3.36122">
        <ele>301</ele>
        <time>2026-05-17T10:51:01.000Z</time>
      </trkpt>
      <trkpt lat="43.6538" lon="3.36122">
        <ele>300.9</ele>
        <time>2026-05-17T10:51:02.000Z</time>
      </trkpt>
      <trkpt lat="43.6538" lon="3.36122">
        <ele>300.9</ele>
        <time>2026-05-17T10:51:03.000Z</time>
      </trkpt>
      <trkpt lat="43.6538" lon="3.36122">
        <ele>301</ele>
        <time>2026-05-17T10:51:04.000Z</time>
      </trkpt>
      <trkpt lat="43.6538" lon="3.36122">
        <ele>301</ele>
        <time>2026-05-17T10:51:05.000Z</time>
      </trkpt>
      <trkpt lat="43.6538" lon="3.36122">
        <ele>301</ele>
        <time>2026-05-17T10:51:06.000Z</time>
      </trkpt>
      <trkpt lat="43.6538" lon="3.36122">
        <ele>300.9</ele>
        <time>2026-05-17T10:51:07.000Z</time>
      </trkpt>
      <trkpt lat="43.6538" lon="3.36122">
        <ele>300.9</ele>
        <time>2026-05-17T10:51:08.000Z</time>
      </trkpt>
      <trkpt lat="43.6538" lon="3.36122">
        <ele>300.8</ele>
        <time>2026-05-17T10:51:09.000Z</time>
      </trkpt>
      <trkpt lat="43.6538" lon="3.36122">
        <ele>300.9</ele>
        <time>2026-05-17T10:51:10.000Z</time>
      </trkpt>
      <trkpt lat="43.6538" lon="3.36122">
        <ele>301</ele>
        <time>2026-05-17T10:51:11.000Z</time>
      </trkpt>
      <trkpt lat="43.6538" lon="3.36122">
        <ele>301</ele>
        <time>2026-05-17T10:51:12.000Z</time>
      </trkpt>
      <trkpt lat="43.6538" lon="3.36122">
        <ele>300.9</ele>
        <time>2026-05-17T10:51:13.000Z</time>
      </trkpt>
      <trkpt lat="43.6538" lon="3.36122">
        <ele>300.9</ele>
        <time>2026-05-17T10:51:14.000Z</time>
      </trkpt>
      <trkpt lat="43.6538" lon="3.36122">
        <ele>300.9</ele>
        <time>2026-05-17T10:51:15.000Z</time>
      </trkpt>
      <trkpt lat="43.6538" lon="3.36122">
        <ele>300.8</ele>
        <time>2026-05-17T10:51:16.000Z</time>
      </trkpt>
      <trkpt lat="43.6538" lon="3.36122">
        <ele>300.7</ele>
        <time>2026-05-17T10:51:17.000Z</time>
      </trkpt>
      <trkpt lat="43.6538" lon="3.36122">
        <ele>300.6</ele>
        <time>2026-05-17T10:51:18.000Z</time>
      </trkpt>
      <trkpt lat="43.6538" lon="3.36122">
        <ele>300.4</ele>
        <time>2026-05-17T10:51:19.000Z</time>
      </trkpt>
      <trkpt lat="43.6538" lon="3.36122">
        <ele>300.2</ele>
        <time>2026-05-17T10:51:20.000Z</time>
      </trkpt>
      <trkpt lat="43.6538" lon="3.36122">
        <ele>300.2</ele>
        <time>2026-05-17T10:51:21.000Z</time>
      </trkpt>
      <trkpt lat="43.6538" lon="3.36122">
        <ele>300.2</ele>
        <time>2026-05-17T10:51:22.000Z</time>
      </trkpt>
      <trkpt lat="43.6538" lon="3.36122">
        <ele>300.3</ele>
        <time>2026-05-17T10:51:23.000Z</time>
      </trkpt>
      <trkpt lat="43.6538" lon="3.36122">
        <ele>300.3</ele>
        <time>2026-05-17T10:51:24.000Z</time>
      </trkpt>
      <trkpt lat="43.6538" lon="3.36122">
        <ele>300.4</ele>
        <time>2026-05-17T10:51:25.000Z</time>
      </trkpt>
      <trkpt lat="43.6538" lon="3.36122">
        <ele>300.4</ele>
        <time>2026-05-17T10:51:26.000Z</time>
      </trkpt>
      <trkpt lat="43.6538" lon="3.36122">
        <ele>300.3</ele>
        <time>2026-05-17T10:51:27.000Z</time>
      </trkpt>
      <trkpt lat="43.6538" lon="3.36122">
        <ele>300.3</ele>
        <time>2026-05-17T10:51:28.000Z</time>
      </trkpt>
      <trkpt lat="43.6538" lon="3.36122">
        <ele>300.2</ele>
        <time>2026-05-17T10:51:29.000Z</time>
      </trkpt>
      <trkpt lat="43.6538" lon="3.36122">
        <ele>300</ele>
        <time>2026-05-17T10:51:30.000Z</time>
      </trkpt>
      <trkpt lat="43.6538" lon="3.36122">
        <ele>300</ele>
        <time>2026-05-17T10:51:31.000Z</time>
      </trkpt>
      <trkpt lat="43.6538" lon="3.36122">
        <ele>299.9</ele>
        <time>2026-05-17T10:51:32.000Z</time>
      </trkpt>
      <trkpt lat="43.6538" lon="3.36122">
        <ele>299.8</ele>
        <time>2026-05-17T10:51:33.000Z</time>
      </trkpt>
      <trkpt lat="43.6538" lon="3.36122">
        <ele>299.8</ele>
        <time>2026-05-17T10:51:34.000Z</time>
      </trkpt>
      <trkpt lat="43.6538" lon="3.36122">
        <ele>299.8</ele>
        <time>2026-05-17T10:51:35.000Z</time>
      </trkpt>
      <trkpt lat="43.6538" lon="3.36122">
        <ele>299.8</ele>
        <time>2026-05-17T10:51:36.000Z</time>
      </trkpt>
      <trkpt lat="43.6538" lon="3.36122">
        <ele>300</ele>
        <time>2026-05-17T10:51:37.000Z</time>
      </trkpt>
      <trkpt lat="43.6538" lon="3.36122">
        <ele>300</ele>
        <time>2026-05-17T10:51:38.000Z</time>
      </trkpt>
      <trkpt lat="43.6538" lon="3.36122">
        <ele>300.1</ele>
        <time>2026-05-17T10:51:39.000Z</time>
      </trkpt>
      <trkpt lat="43.6538" lon="3.36122">
        <ele>300.1</ele>
        <time>2026-05-17T10:51:40.000Z</time>
      </trkpt>
      <trkpt lat="43.6538" lon="3.36122">
        <ele>300</ele>
        <time>2026-05-17T10:51:41.000Z</time>
      </trkpt>
      <trkpt lat="43.6538" lon="3.36122">
        <ele>300</ele>
        <time>2026-05-17T10:51:42.000Z</time>
      </trkpt>
      <trkpt lat="43.6538" lon="3.36122">
        <ele>299.9</ele>
        <time>2026-05-17T10:51:43.000Z</time>
      </trkpt>
      <trkpt lat="43.6538" lon="3.36122">
        <ele>300</ele>
        <time>2026-05-17T10:51:44.000Z</time>
      </trkpt>
      <trkpt lat="43.6538" lon="3.36122">
        <ele>300.1</ele>
        <time>2026-05-17T10:51:45.000Z</time>
      </trkpt>
      <trkpt lat="43.6538" lon="3.36122">
        <ele>300.2</ele>
        <time>2026-05-17T10:51:46.000Z</time>
      </trkpt>
      <trkpt lat="43.6538" lon="3.36122">
        <ele>300.1</ele>
        <time>2026-05-17T10:51:47.000Z</time>
      </trkpt>
      <trkpt lat="43.6538" lon="3.36122">
        <ele>300.1</ele>
        <time>2026-05-17T10:51:48.000Z</time>
      </trkpt>
      <trkpt lat="43.6538" lon="3.36122">
        <ele>300</ele>
        <time>2026-05-17T10:51:49.000Z</time>
      </trkpt>
      <trkpt lat="43.6538" lon="3.36122">
        <ele>300</ele>
        <time>2026-05-17T10:51:50.000Z</time>
      </trkpt>
      <trkpt lat="43.6538" lon="3.36122">
        <ele>300</ele>
        <time>2026-05-17T10:51:51.000Z</time>
      </trkpt>
      <trkpt lat="43.6538" lon="3.36122">
        <ele>300</ele>
        <time>2026-05-17T10:51:52.000Z</time>
      </trkpt>
      <trkpt lat="43.6538" lon="3.36122">
        <ele>299.9</ele>
        <time>2026-05-17T10:51:53.000Z</time>
      </trkpt>
      <trkpt lat="43.6538" lon="3.36122">
        <ele>299.9</ele>
        <time>2026-05-17T10:51:54.000Z</time>
      </trkpt>
      <trkpt lat="43.6538" lon="3.36122">
        <ele>300</ele>
        <time>2026-05-17T10:51:55.000Z</time>
      </trkpt>
      <trkpt lat="43.6538" lon="3.36122">
        <ele>300.1</ele>
        <time>2026-05-17T10:51:56.000Z</time>
      </trkpt>
      <trkpt lat="43.6538" lon="3.36122">
        <ele>300.1</ele>
        <time>2026-05-17T10:51:57.000Z</time>
      </trkpt>
      <trkpt lat="43.6538" lon="3.36122">
        <ele>300.2</ele>
        <time>2026-05-17T10:51:58.000Z</time>
      </trkpt>
      <trkpt lat="43.6538" lon="3.36122">
        <ele>300.3</ele>
        <time>2026-05-17T10:51:59.000Z</time>
      </trkpt>
      <trkpt lat="43.6538" lon="3.36122">
        <ele>300.4</ele>
        <time>2026-05-17T10:52:00.000Z</time>
      </trkpt>
      <trkpt lat="43.6538" lon="3.36122">
        <ele>300.5</ele>
        <time>2026-05-17T10:52:01.000Z</time>
      </trkpt>
      <trkpt lat="43.6538" lon="3.36122">
        <ele>300.5</ele>
        <time>2026-05-17T10:52:02.000Z</time>
      </trkpt>
      <trkpt lat="43.6538" lon="3.36122">
        <ele>300.4</ele>
        <time>2026-05-17T10:52:03.000Z</time>
      </trkpt>
      <trkpt lat="43.6538" lon="3.36122">
        <ele>300.5</ele>
        <time>2026-05-17T10:52:04.000Z</time>
      </trkpt>
      <trkpt lat="43.6538" lon="3.36122">
        <ele>300.5</ele>
        <time>2026-05-17T10:52:05.000Z</time>
      </trkpt>
      <trkpt lat="43.6538" lon="3.36122">
        <ele>300.5</ele>
        <time>2026-05-17T10:52:06.000Z</time>
      </trkpt>
      <trkpt lat="43.6538" lon="3.36122">
        <ele>300.3</ele>
        <time>2026-05-17T10:52:07.000Z</time>
      </trkpt>
      <trkpt lat="43.6538" lon="3.36122">
        <ele>300.4</ele>
        <time>2026-05-17T10:52:08.000Z</time>
      </trkpt>
      <trkpt lat="43.6538" lon="3.36122">
        <ele>300.3</ele>
        <time>2026-05-17T10:52:09.000Z</time>
      </trkpt>
      <trkpt lat="43.6538" lon="3.36122">
        <ele>300.4</ele>
        <time>2026-05-17T10:52:10.000Z</time>
      </trkpt>
      <trkpt lat="43.6538" lon="3.36122">
        <ele>300.5</ele>
        <time>2026-05-17T10:52:11.000Z</time>
      </trkpt>
      <trkpt lat="43.6538" lon="3.36122">
        <ele>300.5</ele>
        <time>2026-05-17T10:52:12.000Z</time>
      </trkpt>
      <trkpt lat="43.6538" lon="3.36122">
        <ele>300.5</ele>
        <time>2026-05-17T10:52:13.000Z</time>
      </trkpt>
      <trkpt lat="43.6538" lon="3.36122">
        <ele>300.4</ele>
        <time>2026-05-17T10:52:14.000Z</time>
      </trkpt>
      <trkpt lat="43.6538" lon="3.36122">
        <ele>300.4</ele>
        <time>2026-05-17T10:52:15.000Z</time>
      </trkpt>
      <trkpt lat="43.6538" lon="3.36122">
        <ele>300.3</ele>
        <time>2026-05-17T10:52:16.000Z</time>
      </trkpt>
      <trkpt lat="43.6538" lon="3.36122">
        <ele>300.2</ele>
        <time>2026-05-17T10:52:17.000Z</time>
      </trkpt>
      <trkpt lat="43.6538" lon="3.36122">
        <ele>300.1</ele>
        <time>2026-05-17T10:52:18.000Z</time>
      </trkpt>
      <trkpt lat="43.6538" lon="3.36122">
        <ele>299.9</ele>
        <time>2026-05-17T10:52:19.000Z</time>
      </trkpt>
      <trkpt lat="43.6538" lon="3.36122">
        <ele>299.9</ele>
        <time>2026-05-17T10:52:20.000Z</time>
      </trkpt>
      <trkpt lat="43.6538" lon="3.36122">
        <ele>300</ele>
        <time>2026-05-17T10:52:21.000Z</time>
      </trkpt>
      <trkpt lat="43.6538" lon="3.36122">
        <ele>300.1</ele>
        <time>2026-05-17T10:52:22.000Z</time>
      </trkpt>
      <trkpt lat="43.6538" lon="3.36122">
        <ele>300.1</ele>
        <time>2026-05-17T10:52:23.000Z</time>
      </trkpt>
      <trkpt lat="43.6538" lon="3.36122">
        <ele>300</ele>
        <time>2026-05-17T10:52:24.000Z</time>
      </trkpt>
      <trkpt lat="43.6538" lon="3.36122">
        <ele>300.1</ele>
        <time>2026-05-17T10:52:25.000Z</time>
      </trkpt>
      <trkpt lat="43.6538" lon="3.36122">
        <ele>300.2</ele>
        <time>2026-05-17T10:52:26.000Z</time>
      </trkpt>
      <trkpt lat="43.6538" lon="3.36122">
        <ele>300.4</ele>
        <time>2026-05-17T10:52:27.000Z</time>
      </trkpt>
      <trkpt lat="43.6538" lon="3.36122">
        <ele>300.4</ele>
        <time>2026-05-17T10:52:28.000Z</time>
      </trkpt>
      <trkpt lat="43.6538" lon="3.36122">
        <ele>300.4</ele>
        <time>2026-05-17T10:52:29.000Z</time>
      </trkpt>
      <trkpt lat="43.6538" lon="3.36122">
        <ele>300.4</ele>
        <time>2026-05-17T10:52:30.000Z</time>
      </trkpt>
      <trkpt lat="43.6538" lon="3.36122">
        <ele>300.5</ele>
        <time>2026-05-17T10:52:31.000Z</time>
      </trkpt>
      <trkpt lat="43.6538" lon="3.36122">
        <ele>300.5</ele>
        <time>2026-05-17T10:52:32.000Z</time>
      </trkpt>
      <trkpt lat="43.6538" lon="3.36122">
        <ele>300.6</ele>
        <time>2026-05-17T10:52:33.000Z</time>
      </trkpt>
      <trkpt lat="43.6538" lon="3.36122">
        <ele>300.7</ele>
        <time>2026-05-17T10:52:34.000Z</time>
      </trkpt>
      <trkpt lat="43.6538" lon="3.36122">
        <ele>300.7</ele>
        <time>2026-05-17T10:52:35.000Z</time>
      </trkpt>
      <trkpt lat="43.6538" lon="3.36122">
        <ele>300.8</ele>
        <time>2026-05-17T10:52:36.000Z</time>
      </trkpt>
      <trkpt lat="43.6538" lon="3.36122">
        <ele>300.7</ele>
        <time>2026-05-17T10:52:37.000Z</time>
      </trkpt>
      <trkpt lat="43.6538" lon="3.36122">
        <ele>300.7</ele>
        <time>2026-05-17T10:52:38.000Z</time>
      </trkpt>
      <trkpt lat="43.6538" lon="3.36122">
        <ele>300.7</ele>
        <time>2026-05-17T10:52:39.000Z</time>
      </trkpt>
      <trkpt lat="43.6538" lon="3.36122">
        <ele>300.7</ele>
        <time>2026-05-17T10:52:40.000Z</time>
      </trkpt>
      <trkpt lat="43.6538" lon="3.36122">
        <ele>300.5</ele>
        <time>2026-05-17T10:52:41.000Z</time>
      </trkpt>
      <trkpt lat="43.6538" lon="3.36122">
        <ele>300.4</ele>
        <time>2026-05-17T10:52:42.000Z</time>
      </trkpt>
      <trkpt lat="43.6538" lon="3.36122">
        <ele>300.2</ele>
        <time>2026-05-17T10:52:43.000Z</time>
      </trkpt>
      <trkpt lat="43.6538" lon="3.36122">
        <ele>300.3</ele>
        <time>2026-05-17T10:52:44.000Z</time>
      </trkpt>
      <trkpt lat="43.6538" lon="3.36122">
        <ele>300.4</ele>
        <time>2026-05-17T10:52:45.000Z</time>
      </trkpt>
      <trkpt lat="43.6538" lon="3.36122">
        <ele>300.4</ele>
        <time>2026-05-17T10:52:46.000Z</time>
      </trkpt>
      <trkpt lat="43.6538" lon="3.36122">
        <ele>300.4</ele>
        <time>2026-05-17T10:52:47.000Z</time>
      </trkpt>
      <trkpt lat="43.6538" lon="3.36122">
        <ele>300.5</ele>
        <time>2026-05-17T10:52:48.000Z</time>
      </trkpt>
      <trkpt lat="43.6538" lon="3.36122">
        <ele>300.4</ele>
        <time>2026-05-17T10:52:49.000Z</time>
      </trkpt>
      <trkpt lat="43.6538" lon="3.36122">
        <ele>300.4</ele>
        <time>2026-05-17T10:52:50.000Z</time>
      </trkpt>
      <trkpt lat="43.6538" lon="3.36122">
        <ele>300.3</ele>
        <time>2026-05-17T10:52:51.000Z</time>
      </trkpt>
      <trkpt lat="43.6538" lon="3.36122">
        <ele>300.3</ele>
        <time>2026-05-17T10:52:52.000Z</time>
      </trkpt>
      <trkpt lat="43.6538" lon="3.36122">
        <ele>300.2</ele>
        <time>2026-05-17T10:52:53.000Z</time>
      </trkpt>
      <trkpt lat="43.6538" lon="3.36122">
        <ele>300.2</ele>
        <time>2026-05-17T10:52:54.000Z</time>
      </trkpt>
      <trkpt lat="43.6538" lon="3.36122">
        <ele>300.2</ele>
        <time>2026-05-17T10:52:55.000Z</time>
      </trkpt>
      <trkpt lat="43.6538" lon="3.36122">
        <ele>300.1</ele>
        <time>2026-05-17T10:52:56.000Z</time>
      </trkpt>
      <trkpt lat="43.6538" lon="3.36122">
        <ele>300</ele>
        <time>2026-05-17T10:52:57.000Z</time>
      </trkpt>
      <trkpt lat="43.6538" lon="3.36122">
        <ele>299.9</ele>
        <time>2026-05-17T10:52:58.000Z</time>
      </trkpt>
      <trkpt lat="43.6538" lon="3.36122">
        <ele>300</ele>
        <time>2026-05-17T10:52:59.000Z</time>
      </trkpt>
      <trkpt lat="43.6538" lon="3.36122">
        <ele>300</ele>
        <time>2026-05-17T10:53:00.000Z</time>
      </trkpt>
      <trkpt lat="43.6538" lon="3.36122">
        <ele>300</ele>
        <time>2026-05-17T10:53:01.000Z</time>
      </trkpt>
      <trkpt lat="43.6538" lon="3.36122">
        <ele>300</ele>
        <time>2026-05-17T10:53:02.000Z</time>
      </trkpt>
      <trkpt lat="43.6538" lon="3.36122">
        <ele>300</ele>
        <time>2026-05-17T10:53:03.000Z</time>
      </trkpt>
      <trkpt lat="43.6538" lon="3.36122">
        <ele>300</ele>
        <time>2026-05-17T10:53:04.000Z</time>
      </trkpt>
      <trkpt lat="43.6538" lon="3.36122">
        <ele>300</ele>
        <time>2026-05-17T10:53:05.000Z</time>
      </trkpt>
      <trkpt lat="43.6538" lon="3.36122">
        <ele>300.1</ele>
        <time>2026-05-17T10:53:06.000Z</time>
      </trkpt>
      <trkpt lat="43.6538" lon="3.36122">
        <ele>300.1</ele>
        <time>2026-05-17T10:53:07.000Z</time>
      </trkpt>
      <trkpt lat="43.6538" lon="3.36122">
        <ele>300.1</ele>
        <time>2026-05-17T10:53:08.000Z</time>
      </trkpt>
      <trkpt lat="43.6538" lon="3.36122">
        <ele>300.2</ele>
        <time>2026-05-17T10:53:09.000Z</time>
      </trkpt>
      <trkpt lat="43.6538" lon="3.36122">
        <ele>300.2</ele>
        <time>2026-05-17T10:53:10.000Z</time>
      </trkpt>
      <trkpt lat="43.6538" lon="3.36122">
        <ele>300.2</ele>
        <time>2026-05-17T10:53:11.000Z</time>
      </trkpt>
      <trkpt lat="43.6538" lon="3.36122">
        <ele>300.1</ele>
        <time>2026-05-17T10:53:12.000Z</time>
      </trkpt>
      <trkpt lat="43.6538" lon="3.36122">
        <ele>300.1</ele>
        <time>2026-05-17T10:53:13.000Z</time>
      </trkpt>
      <trkpt lat="43.6538" lon="3.36122">
        <ele>300</ele>
        <time>2026-05-17T10:53:14.000Z</time>
      </trkpt>
      <trkpt lat="43.6538" lon="3.36122">
        <ele>299.9</ele>
        <time>2026-05-17T10:53:15.000Z</time>
      </trkpt>
      <trkpt lat="43.6538" lon="3.36122">
        <ele>299.9</ele>
        <time>2026-05-17T10:53:16.000Z</time>
      </trkpt>
      <trkpt lat="43.6538" lon="3.36122">
        <ele>299.8</ele>
        <time>2026-05-17T10:53:17.000Z</time>
      </trkpt>
      <trkpt lat="43.6538" lon="3.36122">
        <ele>299.8</ele>
        <time>2026-05-17T10:53:18.000Z</time>
      </trkpt>
      <trkpt lat="43.6538" lon="3.36122">
        <ele>299.8</ele>
        <time>2026-05-17T10:53:19.000Z</time>
      </trkpt>
      <trkpt lat="43.6538" lon="3.36122">
        <ele>299.8</ele>
        <time>2026-05-17T10:53:20.000Z</time>
      </trkpt>
      <trkpt lat="43.6538" lon="3.36122">
        <ele>299.7</ele>
        <time>2026-05-17T10:53:21.000Z</time>
      </trkpt>
      <trkpt lat="43.6538" lon="3.36122">
        <ele>299.7</ele>
        <time>2026-05-17T10:53:22.000Z</time>
      </trkpt>
      <trkpt lat="43.6538" lon="3.36122">
        <ele>299.7</ele>
        <time>2026-05-17T10:53:23.000Z</time>
      </trkpt>
      <trkpt lat="43.6538" lon="3.36122">
        <ele>299.8</ele>
        <time>2026-05-17T10:53:24.000Z</time>
      </trkpt>
      <trkpt lat="43.6538" lon="3.36122">
        <ele>299.8</ele>
        <time>2026-05-17T10:53:25.000Z</time>
      </trkpt>
      <trkpt lat="43.6538" lon="3.36122">
        <ele>299.7</ele>
        <time>2026-05-17T10:53:26.000Z</time>
      </trkpt>
      <trkpt lat="43.6538" lon="3.36122">
        <ele>299.8</ele>
        <time>2026-05-17T10:53:27.000Z</time>
      </trkpt>
      <trkpt lat="43.6538" lon="3.36122">
        <ele>299.8</ele>
        <time>2026-05-17T10:53:28.000Z</time>
      </trkpt>
      <trkpt lat="43.6538" lon="3.36122">
        <ele>299.6</ele>
        <time>2026-05-17T10:53:29.000Z</time>
      </trkpt>
      <trkpt lat="43.6538" lon="3.36122">
        <ele>299.5</ele>
        <time>2026-05-17T10:53:30.000Z</time>
      </trkpt>
      <trkpt lat="43.6538" lon="3.36122">
        <ele>299.5</ele>
        <time>2026-05-17T10:53:31.000Z</time>
      </trkpt>
      <trkpt lat="43.6538" lon="3.36122">
        <ele>299.4</ele>
        <time>2026-05-17T10:53:32.000Z</time>
      </trkpt>
      <trkpt lat="43.6538" lon="3.36122">
        <ele>299.4</ele>
        <time>2026-05-17T10:53:33.000Z</time>
      </trkpt>
      <trkpt lat="43.6538" lon="3.36122">
        <ele>299.4</ele>
        <time>2026-05-17T10:53:34.000Z</time>
      </trkpt>
      <trkpt lat="43.6538" lon="3.36122">
        <ele>299.5</ele>
        <time>2026-05-17T10:53:35.000Z</time>
      </trkpt>
      <trkpt lat="43.6538" lon="3.36122">
        <ele>299.4</ele>
        <time>2026-05-17T10:53:36.000Z</time>
      </trkpt>
      <trkpt lat="43.6538" lon="3.36122">
        <ele>299.3</ele>
        <time>2026-05-17T10:53:37.000Z</time>
      </trkpt>
      <trkpt lat="43.6538" lon="3.36122">
        <ele>299.3</ele>
        <time>2026-05-17T10:53:38.000Z</time>
      </trkpt>
      <trkpt lat="43.6538" lon="3.36122">
        <ele>299.4</ele>
        <time>2026-05-17T10:53:39.000Z</time>
      </trkpt>
      <trkpt lat="43.6538" lon="3.36122">
        <ele>299.3</ele>
        <time>2026-05-17T10:53:40.000Z</time>
      </trkpt>
      <trkpt lat="43.6538" lon="3.36122">
        <ele>299.3</ele>
        <time>2026-05-17T10:53:41.000Z</time>
      </trkpt>
      <trkpt lat="43.6538" lon="3.36122">
        <ele>299.4</ele>
        <time>2026-05-17T10:53:42.000Z</time>
      </trkpt>
      <trkpt lat="43.6538" lon="3.36122">
        <ele>299.4</ele>
        <time>2026-05-17T10:53:43.000Z</time>
      </trkpt>
      <trkpt lat="43.6538" lon="3.36122">
        <ele>299.3</ele>
        <time>2026-05-17T10:53:44.000Z</time>
      </trkpt>
      <trkpt lat="43.6538" lon="3.36122">
        <ele>299.3</ele>
        <time>2026-05-17T10:53:45.000Z</time>
      </trkpt>
      <trkpt lat="43.6538" lon="3.36122">
        <ele>299.3</ele>
        <time>2026-05-17T10:53:46.000Z</time>
      </trkpt>
      <trkpt lat="43.6538" lon="3.36122">
        <ele>299.3</ele>
        <time>2026-05-17T10:53:47.000Z</time>
      </trkpt>
      <trkpt lat="43.6538" lon="3.36122">
        <ele>299.3</ele>
        <time>2026-05-17T10:53:48.000Z</time>
      </trkpt>
      <trkpt lat="43.6538" lon="3.36122">
        <ele>299.4</ele>
        <time>2026-05-17T10:53:49.000Z</time>
      </trkpt>
      <trkpt lat="43.6538" lon="3.36122">
        <ele>299.4</ele>
        <time>2026-05-17T10:53:50.000Z</time>
      </trkpt>
      <trkpt lat="43.6538" lon="3.36122">
        <ele>299.5</ele>
        <time>2026-05-17T10:53:51.000Z</time>
      </trkpt>
      <trkpt lat="43.6538" lon="3.36122">
        <ele>299.5</ele>
        <time>2026-05-17T10:53:52.000Z</time>
      </trkpt>
      <trkpt lat="43.6538" lon="3.36122">
        <ele>299.5</ele>
        <time>2026-05-17T10:53:53.000Z</time>
      </trkpt>
      <trkpt lat="43.6538" lon="3.36122">
        <ele>299.5</ele>
        <time>2026-05-17T10:53:54.000Z</time>
      </trkpt>
      <trkpt lat="43.6538" lon="3.36122">
        <ele>299.5</ele>
        <time>2026-05-17T10:53:55.000Z</time>
      </trkpt>
      <trkpt lat="43.6538" lon="3.36122">
        <ele>299.5</ele>
        <time>2026-05-17T10:53:56.000Z</time>
      </trkpt>
      <trkpt lat="43.6538" lon="3.36122">
        <ele>299.4</ele>
        <time>2026-05-17T10:53:57.000Z</time>
      </trkpt>
      <trkpt lat="43.6538" lon="3.36122">
        <ele>299.4</ele>
        <time>2026-05-17T10:53:58.000Z</time>
      </trkpt>
      <trkpt lat="43.6538" lon="3.36122">
        <ele>299.4</ele>
        <time>2026-05-17T10:53:59.000Z</time>
      </trkpt>
      <trkpt lat="43.6538" lon="3.36122">
        <ele>299.4</ele>
        <time>2026-05-17T10:54:00.000Z</time>
      </trkpt>
      <trkpt lat="43.6538" lon="3.36122">
        <ele>299.3</ele>
        <time>2026-05-17T10:54:01.000Z</time>
      </trkpt>
      <trkpt lat="43.6538" lon="3.36122">
        <ele>299.3</ele>
        <time>2026-05-17T10:54:02.000Z</time>
      </trkpt>
      <trkpt lat="43.6538" lon="3.36122">
        <ele>299.3</ele>
        <time>2026-05-17T10:54:03.000Z</time>
      </trkpt>
      <trkpt lat="43.6538" lon="3.36122">
        <ele>299.3</ele>
        <time>2026-05-17T10:54:04.000Z</time>
      </trkpt>
      <trkpt lat="43.6538" lon="3.36122">
        <ele>299.3</ele>
        <time>2026-05-17T10:54:05.000Z</time>
      </trkpt>
      <trkpt lat="43.6538" lon="3.36122">
        <ele>299.3</ele>
        <time>2026-05-17T10:54:06.000Z</time>
      </trkpt>
      <trkpt lat="43.6538" lon="3.36122">
        <ele>299.2</ele>
        <time>2026-05-17T10:54:07.000Z</time>
      </trkpt>
      <trkpt lat="43.6538" lon="3.36122">
        <ele>299.2</ele>
        <time>2026-05-17T10:54:08.000Z</time>
      </trkpt>
      <trkpt lat="43.6538" lon="3.36122">
        <ele>299.2</ele>
        <time>2026-05-17T10:54:09.000Z</time>
      </trkpt>
      <trkpt lat="43.6538" lon="3.36122">
        <ele>299.1</ele>
        <time>2026-05-17T10:54:10.000Z</time>
      </trkpt>
      <trkpt lat="43.6538" lon="3.36122">
        <ele>299.1</ele>
        <time>2026-05-17T10:54:11.000Z</time>
      </trkpt>
      <trkpt lat="43.6538" lon="3.36122">
        <ele>299.1</ele>
        <time>2026-05-17T10:54:12.000Z</time>
      </trkpt>
      <trkpt lat="43.6538" lon="3.36122">
        <ele>299</ele>
        <time>2026-05-17T10:54:13.000Z</time>
      </trkpt>
      <trkpt lat="43.6538" lon="3.36122">
        <ele>299</ele>
        <time>2026-05-17T10:54:14.000Z</time>
      </trkpt>
      <trkpt lat="43.6538" lon="3.36122">
        <ele>299</ele>
        <time>2026-05-17T10:54:15.000Z</time>
      </trkpt>
      <trkpt lat="43.6538" lon="3.36122">
        <ele>299</ele>
        <time>2026-05-17T10:54:16.000Z</time>
      </trkpt>
      <trkpt lat="43.6538" lon="3.36122">
        <ele>299.1</ele>
        <time>2026-05-17T10:54:17.000Z</time>
      </trkpt>
      <trkpt lat="43.6538" lon="3.36122">
        <ele>299.2</ele>
        <time>2026-05-17T10:54:18.000Z</time>
      </trkpt>
      <trkpt lat="43.6538" lon="3.36122">
        <ele>299.3</ele>
        <time>2026-05-17T10:54:19.000Z</time>
      </trkpt>
      <trkpt lat="43.6538" lon="3.36122">
        <ele>299.4</ele>
        <time>2026-05-17T10:54:20.000Z</time>
      </trkpt>
      <trkpt lat="43.6538" lon="3.36122">
        <ele>299.4</ele>
        <time>2026-05-17T10:54:21.000Z</time>
      </trkpt>
      <trkpt lat="43.6538" lon="3.36122">
        <ele>299.4</ele>
        <time>2026-05-17T10:54:22.000Z</time>
      </trkpt>
      <trkpt lat="43.6538" lon="3.36122">
        <ele>299.3</ele>
        <time>2026-05-17T10:54:23.000Z</time>
      </trkpt>
      <trkpt lat="43.6538" lon="3.36122">
        <ele>299.3</ele>
        <time>2026-05-17T10:54:24.000Z</time>
      </trkpt>
      <trkpt lat="43.6538" lon="3.36122">
        <ele>299.2</ele>
        <time>2026-05-17T10:54:25.000Z</time>
      </trkpt>
      <trkpt lat="43.6538" lon="3.36122">
        <ele>299.3</ele>
        <time>2026-05-17T10:54:26.000Z</time>
      </trkpt>
      <trkpt lat="43.6538" lon="3.36122">
        <ele>299.3</ele>
        <time>2026-05-17T10:54:27.000Z</time>
      </trkpt>
      <trkpt lat="43.6538" lon="3.36122">
        <ele>299.3</ele>
        <time>2026-05-17T10:54:28.000Z</time>
      </trkpt>
      <trkpt lat="43.6538" lon="3.36122">
        <ele>299.4</ele>
        <time>2026-05-17T10:54:29.000Z</time>
      </trkpt>
      <trkpt lat="43.6538" lon="3.36122">
        <ele>299.3</ele>
        <time>2026-05-17T10:54:30.000Z</time>
      </trkpt>
      <trkpt lat="43.6538" lon="3.36122">
        <ele>299.3</ele>
        <time>2026-05-17T10:54:31.000Z</time>
      </trkpt>
      <trkpt lat="43.6538" lon="3.36122">
        <ele>299.3</ele>
        <time>2026-05-17T10:54:32.000Z</time>
      </trkpt>
      <trkpt lat="43.6538" lon="3.36122">
        <ele>299.3</ele>
        <time>2026-05-17T10:54:33.000Z</time>
      </trkpt>
      <trkpt lat="43.6538" lon="3.36122">
        <ele>299.1</ele>
        <time>2026-05-17T10:54:34.000Z</time>
      </trkpt>
      <trkpt lat="43.6538" lon="3.36122">
        <ele>299</ele>
        <time>2026-05-17T10:54:35.000Z</time>
      </trkpt>
      <trkpt lat="43.6538" lon="3.36122">
        <ele>298.9</ele>
        <time>2026-05-17T10:54:36.000Z</time>
      </trkpt>
      <trkpt lat="43.6538" lon="3.36122">
        <ele>298.8</ele>
        <time>2026-05-17T10:54:37.000Z</time>
      </trkpt>
      <trkpt lat="43.6538" lon="3.36122">
        <ele>298.6</ele>
        <time>2026-05-17T10:54:38.000Z</time>
      </trkpt>
      <trkpt lat="43.6538" lon="3.36122">
        <ele>298.5</ele>
        <time>2026-05-17T10:54:39.000Z</time>
      </trkpt>
      <trkpt lat="43.6538" lon="3.36122">
        <ele>298.4</ele>
        <time>2026-05-17T10:54:40.000Z</time>
      </trkpt>
      <trkpt lat="43.6538" lon="3.36122">
        <ele>298.3</ele>
        <time>2026-05-17T10:54:41.000Z</time>
      </trkpt>
      <trkpt lat="43.6538" lon="3.36122">
        <ele>298.3</ele>
        <time>2026-05-17T10:54:42.000Z</time>
      </trkpt>
      <trkpt lat="43.6538" lon="3.36122">
        <ele>298.2</ele>
        <time>2026-05-17T10:54:43.000Z</time>
      </trkpt>
      <trkpt lat="43.6538" lon="3.36122">
        <ele>298.1</ele>
        <time>2026-05-17T10:54:44.000Z</time>
      </trkpt>
      <trkpt lat="43.6538" lon="3.36122">
        <ele>298</ele>
        <time>2026-05-17T10:54:45.000Z</time>
      </trkpt>
      <trkpt lat="43.6538" lon="3.36122">
        <ele>298.1</ele>
        <time>2026-05-17T10:54:46.000Z</time>
      </trkpt>
      <trkpt lat="43.6538" lon="3.36122">
        <ele>298.1</ele>
        <time>2026-05-17T10:54:47.000Z</time>
      </trkpt>
      <trkpt lat="43.6538" lon="3.36122">
        <ele>298.1</ele>
        <time>2026-05-17T10:54:48.000Z</time>
      </trkpt>
      <trkpt lat="43.6538" lon="3.36122">
        <ele>298.1</ele>
        <time>2026-05-17T10:54:49.000Z</time>
      </trkpt>
      <trkpt lat="43.6538" lon="3.36122">
        <ele>298.1</ele>
        <time>2026-05-17T10:54:50.000Z</time>
      </trkpt>
      <trkpt lat="43.6538" lon="3.36122">
        <ele>298.1</ele>
        <time>2026-05-17T10:54:51.000Z</time>
      </trkpt>
      <trkpt lat="43.6538" lon="3.36122">
        <ele>298</ele>
        <time>2026-05-17T10:54:52.000Z</time>
      </trkpt>
      <trkpt lat="43.6538" lon="3.36122">
        <ele>298</ele>
        <time>2026-05-17T10:54:53.000Z</time>
      </trkpt>
      <trkpt lat="43.6538" lon="3.36122">
        <ele>298</ele>
        <time>2026-05-17T10:54:54.000Z</time>
      </trkpt>
      <trkpt lat="43.6538" lon="3.36122">
        <ele>298</ele>
        <time>2026-05-17T10:54:55.000Z</time>
      </trkpt>
      <trkpt lat="43.6538" lon="3.36122">
        <ele>298.1</ele>
        <time>2026-05-17T10:54:56.000Z</time>
      </trkpt>
      <trkpt lat="43.6538" lon="3.36122">
        <ele>298.1</ele>
        <time>2026-05-17T10:54:57.000Z</time>
      </trkpt>
      <trkpt lat="43.6538" lon="3.36122">
        <ele>298</ele>
        <time>2026-05-17T10:54:58.000Z</time>
      </trkpt>
      <trkpt lat="43.6538" lon="3.36122">
        <ele>298</ele>
        <time>2026-05-17T10:54:59.000Z</time>
      </trkpt>
      <trkpt lat="43.6538" lon="3.36122">
        <ele>298</ele>
        <time>2026-05-17T10:55:00.000Z</time>
      </trkpt>
      <trkpt lat="43.6538" lon="3.36122">
        <ele>298.2</ele>
        <time>2026-05-17T10:55:01.000Z</time>
      </trkpt>
      <trkpt lat="43.6538" lon="3.36122">
        <ele>298.4</ele>
        <time>2026-05-17T10:55:02.000Z</time>
      </trkpt>
      <trkpt lat="43.6538" lon="3.36122">
        <ele>298.6</ele>
        <time>2026-05-17T10:55:03.000Z</time>
      </trkpt>
      <trkpt lat="43.6538" lon="3.36122">
        <ele>298.7</ele>
        <time>2026-05-17T10:55:04.000Z</time>
      </trkpt>
      <trkpt lat="43.6538" lon="3.36122">
        <ele>298.6</ele>
        <time>2026-05-17T10:55:05.000Z</time>
      </trkpt>
      <trkpt lat="43.6538" lon="3.36122">
        <ele>298.5</ele>
        <time>2026-05-17T10:55:06.000Z</time>
      </trkpt>
      <trkpt lat="43.6538" lon="3.36122">
        <ele>298.6</ele>
        <time>2026-05-17T10:55:07.000Z</time>
      </trkpt>
      <trkpt lat="43.6538" lon="3.36122">
        <ele>298.6</ele>
        <time>2026-05-17T10:55:08.000Z</time>
      </trkpt>
      <trkpt lat="43.6538" lon="3.36122">
        <ele>298.6</ele>
        <time>2026-05-17T10:55:09.000Z</time>
      </trkpt>
      <trkpt lat="43.6538" lon="3.36122">
        <ele>298.6</ele>
        <time>2026-05-17T10:55:10.000Z</time>
      </trkpt>
      <trkpt lat="43.6538" lon="3.36122">
        <ele>298.7</ele>
        <time>2026-05-17T10:55:11.000Z</time>
      </trkpt>
      <trkpt lat="43.6538" lon="3.36122">
        <ele>298.7</ele>
        <time>2026-05-17T10:55:12.000Z</time>
      </trkpt>
      <trkpt lat="43.6538" lon="3.36122">
        <ele>298.7</ele>
        <time>2026-05-17T10:55:13.000Z</time>
      </trkpt>
      <trkpt lat="43.6538" lon="3.36122">
        <ele>298.8</ele>
        <time>2026-05-17T10:55:14.000Z</time>
      </trkpt>
      <trkpt lat="43.6538" lon="3.36122">
        <ele>298.9</ele>
        <time>2026-05-17T10:55:15.000Z</time>
      </trkpt>
      <trkpt lat="43.6538" lon="3.36122">
        <ele>298.7</ele>
        <time>2026-05-17T10:55:16.000Z</time>
      </trkpt>
      <trkpt lat="43.6538" lon="3.36122">
        <ele>298.7</ele>
        <time>2026-05-17T10:55:17.000Z</time>
      </trkpt>
      <trkpt lat="43.6538" lon="3.36122">
        <ele>298.8</ele>
        <time>2026-05-17T10:55:18.000Z</time>
      </trkpt>
      <trkpt lat="43.6538" lon="3.36122">
        <ele>299</ele>
        <time>2026-05-17T10:55:19.000Z</time>
      </trkpt>
      <trkpt lat="43.6538" lon="3.36122">
        <ele>299.1</ele>
        <time>2026-05-17T10:55:20.000Z</time>
      </trkpt>
      <trkpt lat="43.6538" lon="3.36122">
        <ele>298.8</ele>
        <time>2026-05-17T10:55:21.000Z</time>
      </trkpt>
      <trkpt lat="43.6538" lon="3.36122">
        <ele>298.6</ele>
        <time>2026-05-17T10:55:22.000Z</time>
      </trkpt>
      <trkpt lat="43.6538" lon="3.36122">
        <ele>298.6</ele>
        <time>2026-05-17T10:55:23.000Z</time>
      </trkpt>
      <trkpt lat="43.6538" lon="3.36122">
        <ele>298.4</ele>
        <time>2026-05-17T10:55:24.000Z</time>
      </trkpt>
      <trkpt lat="43.6538" lon="3.36122">
        <ele>298.3</ele>
        <time>2026-05-17T10:55:25.000Z</time>
      </trkpt>
      <trkpt lat="43.6538" lon="3.36122">
        <ele>298.3</ele>
        <time>2026-05-17T10:55:26.000Z</time>
      </trkpt>
      <trkpt lat="43.6538" lon="3.36122">
        <ele>298.2</ele>
        <time>2026-05-17T10:55:27.000Z</time>
      </trkpt>
      <trkpt lat="43.6538" lon="3.36122">
        <ele>298.3</ele>
        <time>2026-05-17T10:55:28.000Z</time>
      </trkpt>
      <trkpt lat="43.6538" lon="3.36122">
        <ele>298.3</ele>
        <time>2026-05-17T10:55:29.000Z</time>
      </trkpt>
      <trkpt lat="43.6538" lon="3.36122">
        <ele>298.4</ele>
        <time>2026-05-17T10:55:30.000Z</time>
      </trkpt>
      <trkpt lat="43.6538" lon="3.36122">
        <ele>298.4</ele>
        <time>2026-05-17T10:55:31.000Z</time>
      </trkpt>
      <trkpt lat="43.6538" lon="3.36122">
        <ele>298.3</ele>
        <time>2026-05-17T10:55:32.000Z</time>
      </trkpt>
      <trkpt lat="43.6538" lon="3.36122">
        <ele>298.2</ele>
        <time>2026-05-17T10:55:33.000Z</time>
      </trkpt>
      <trkpt lat="43.6538" lon="3.36122">
        <ele>298.1</ele>
        <time>2026-05-17T10:55:34.000Z</time>
      </trkpt>
      <trkpt lat="43.6538" lon="3.36122">
        <ele>298</ele>
        <time>2026-05-17T10:55:35.000Z</time>
      </trkpt>
      <trkpt lat="43.6538" lon="3.36122">
        <ele>298</ele>
        <time>2026-05-17T10:55:36.000Z</time>
      </trkpt>
      <trkpt lat="43.6538" lon="3.36122">
        <ele>298</ele>
        <time>2026-05-17T10:55:37.000Z</time>
      </trkpt>
      <trkpt lat="43.6538" lon="3.36122">
        <ele>297.8</ele>
        <time>2026-05-17T10:55:38.000Z</time>
      </trkpt>
      <trkpt lat="43.6538" lon="3.36122">
        <ele>297.8</ele>
        <time>2026-05-17T10:55:39.000Z</time>
      </trkpt>
      <trkpt lat="43.6538" lon="3.36122">
        <ele>297.9</ele>
        <time>2026-05-17T10:55:40.000Z</time>
      </trkpt>
      <trkpt lat="43.6538" lon="3.36122">
        <ele>298</ele>
        <time>2026-05-17T10:55:41.000Z</time>
      </trkpt>
      <trkpt lat="43.6538" lon="3.36122">
        <ele>297.9</ele>
        <time>2026-05-17T10:55:42.000Z</time>
      </trkpt>
      <trkpt lat="43.6538" lon="3.36122">
        <ele>297.8</ele>
        <time>2026-05-17T10:55:43.000Z</time>
      </trkpt>
      <trkpt lat="43.6538" lon="3.36122">
        <ele>297.7</ele>
        <time>2026-05-17T10:55:44.000Z</time>
      </trkpt>
      <trkpt lat="43.6538" lon="3.36122">
        <ele>297.7</ele>
        <time>2026-05-17T10:55:45.000Z</time>
      </trkpt>
      <trkpt lat="43.6538" lon="3.36122">
        <ele>297.6</ele>
        <time>2026-05-17T10:55:46.000Z</time>
      </trkpt>
      <trkpt lat="43.6538" lon="3.36122">
        <ele>297.6</ele>
        <time>2026-05-17T10:55:47.000Z</time>
      </trkpt>
      <trkpt lat="43.6538" lon="3.36122">
        <ele>297.7</ele>
        <time>2026-05-17T10:55:48.000Z</time>
      </trkpt>
      <trkpt lat="43.6538" lon="3.36122">
        <ele>297.8</ele>
        <time>2026-05-17T10:55:49.000Z</time>
      </trkpt>
      <trkpt lat="43.6538" lon="3.36122">
        <ele>297.8</ele>
        <time>2026-05-17T10:55:50.000Z</time>
      </trkpt>
      <trkpt lat="43.6538" lon="3.36122">
        <ele>297.8</ele>
        <time>2026-05-17T10:55:51.000Z</time>
      </trkpt>
      <trkpt lat="43.6538" lon="3.36122">
        <ele>297.8</ele>
        <time>2026-05-17T10:55:52.000Z</time>
      </trkpt>
      <trkpt lat="43.6538" lon="3.36122">
        <ele>297.8</ele>
        <time>2026-05-17T10:55:53.000Z</time>
      </trkpt>
      <trkpt lat="43.6538" lon="3.36122">
        <ele>297.6</ele>
        <time>2026-05-17T10:55:54.000Z</time>
      </trkpt>
      <trkpt lat="43.6538" lon="3.36122">
        <ele>297.8</ele>
        <time>2026-05-17T10:55:55.000Z</time>
      </trkpt>
      <trkpt lat="43.6538" lon="3.36122">
        <ele>297.8</ele>
        <time>2026-05-17T10:55:56.000Z</time>
      </trkpt>
      <trkpt lat="43.6538" lon="3.36122">
        <ele>297.9</ele>
        <time>2026-05-17T10:55:57.000Z</time>
      </trkpt>
      <trkpt lat="43.6538" lon="3.36122">
        <ele>298.1</ele>
        <time>2026-05-17T10:55:58.000Z</time>
      </trkpt>
      <trkpt lat="43.6538" lon="3.36122">
        <ele>298.2</ele>
        <time>2026-05-17T10:55:59.000Z</time>
      </trkpt>
      <trkpt lat="43.6538" lon="3.36122">
        <ele>298.3</ele>
        <time>2026-05-17T10:56:00.000Z</time>
      </trkpt>
      <trkpt lat="43.6538" lon="3.36122">
        <ele>298.4</ele>
        <time>2026-05-17T10:56:01.000Z</time>
      </trkpt>
      <trkpt lat="43.6538" lon="3.36122">
        <ele>298.3</ele>
        <time>2026-05-17T10:56:02.000Z</time>
      </trkpt>
      <trkpt lat="43.6538" lon="3.36122">
        <ele>298.2</ele>
        <time>2026-05-17T10:56:03.000Z</time>
      </trkpt>
      <trkpt lat="43.6538" lon="3.36122">
        <ele>298.1</ele>
        <time>2026-05-17T10:56:04.000Z</time>
      </trkpt>
      <trkpt lat="43.6538" lon="3.36122">
        <ele>298.1</ele>
        <time>2026-05-17T10:56:05.000Z</time>
      </trkpt>
      <trkpt lat="43.6538" lon="3.36122">
        <ele>298.1</ele>
        <time>2026-05-17T10:56:06.000Z</time>
      </trkpt>
      <trkpt lat="43.6538" lon="3.36122">
        <ele>298.1</ele>
        <time>2026-05-17T10:56:07.000Z</time>
      </trkpt>
      <trkpt lat="43.6538" lon="3.36122">
        <ele>298</ele>
        <time>2026-05-17T10:56:08.000Z</time>
      </trkpt>
      <trkpt lat="43.6538" lon="3.36122">
        <ele>298</ele>
        <time>2026-05-17T10:56:09.000Z</time>
      </trkpt>
      <trkpt lat="43.6538" lon="3.36122">
        <ele>297.9</ele>
        <time>2026-05-17T10:56:10.000Z</time>
      </trkpt>
      <trkpt lat="43.6538" lon="3.36122">
        <ele>297.8</ele>
        <time>2026-05-17T10:56:11.000Z</time>
      </trkpt>
      <trkpt lat="43.6538" lon="3.36122">
        <ele>297.6</ele>
        <time>2026-05-17T10:56:12.000Z</time>
      </trkpt>
      <trkpt lat="43.6538" lon="3.36122">
        <ele>297.5</ele>
        <time>2026-05-17T10:56:13.000Z</time>
      </trkpt>
      <trkpt lat="43.6538" lon="3.36122">
        <ele>297.6</ele>
        <time>2026-05-17T10:56:14.000Z</time>
      </trkpt>
      <trkpt lat="43.6538" lon="3.36122">
        <ele>297.8</ele>
        <time>2026-05-17T10:56:15.000Z</time>
      </trkpt>
      <trkpt lat="43.6538" lon="3.36122">
        <ele>298</ele>
        <time>2026-05-17T10:56:16.000Z</time>
      </trkpt>
      <trkpt lat="43.6538" lon="3.36122">
        <ele>298</ele>
        <time>2026-05-17T10:56:17.000Z</time>
      </trkpt>
      <trkpt lat="43.6538" lon="3.36122">
        <ele>298</ele>
        <time>2026-05-17T10:56:18.000Z</time>
      </trkpt>
      <trkpt lat="43.6538" lon="3.36122">
        <ele>298</ele>
        <time>2026-05-17T10:56:19.000Z</time>
      </trkpt>
      <trkpt lat="43.6538" lon="3.36122">
        <ele>298</ele>
        <time>2026-05-17T10:56:20.000Z</time>
      </trkpt>
      <trkpt lat="43.6538" lon="3.36122">
        <ele>298</ele>
        <time>2026-05-17T10:56:21.000Z</time>
      </trkpt>
      <trkpt lat="43.6538" lon="3.36122">
        <ele>298</ele>
        <time>2026-05-17T10:56:22.000Z</time>
      </trkpt>
      <trkpt lat="43.6538" lon="3.36122">
        <ele>297.9</ele>
        <time>2026-05-17T10:56:23.000Z</time>
      </trkpt>
      <trkpt lat="43.6538" lon="3.36122">
        <ele>297.6</ele>
        <time>2026-05-17T10:56:24.000Z</time>
      </trkpt>
      <trkpt lat="43.6538" lon="3.36122">
        <ele>297.3</ele>
        <time>2026-05-17T10:56:25.000Z</time>
      </trkpt>
      <trkpt lat="43.6538" lon="3.36122">
        <ele>297.2</ele>
        <time>2026-05-17T10:56:26.000Z</time>
      </trkpt>
      <trkpt lat="43.6538" lon="3.36122">
        <ele>297.1</ele>
        <time>2026-05-17T10:56:27.000Z</time>
      </trkpt>
      <trkpt lat="43.6538" lon="3.36122">
        <ele>297</ele>
        <time>2026-05-17T10:56:28.000Z</time>
      </trkpt>
      <trkpt lat="43.6538" lon="3.36122">
        <ele>297.1</ele>
        <time>2026-05-17T10:56:29.000Z</time>
      </trkpt>
      <trkpt lat="43.6538" lon="3.36122">
        <ele>297.1</ele>
        <time>2026-05-17T10:56:30.000Z</time>
      </trkpt>
      <trkpt lat="43.6538" lon="3.36122">
        <ele>297.2</ele>
        <time>2026-05-17T10:56:31.000Z</time>
      </trkpt>
      <trkpt lat="43.6538" lon="3.36122">
        <ele>297.4</ele>
        <time>2026-05-17T10:56:32.000Z</time>
      </trkpt>
      <trkpt lat="43.6538" lon="3.36122">
        <ele>297.5</ele>
        <time>2026-05-17T10:56:33.000Z</time>
      </trkpt>
      <trkpt lat="43.6538" lon="3.36122">
        <ele>297.8</ele>
        <time>2026-05-17T10:56:34.000Z</time>
      </trkpt>
      <trkpt lat="43.6538" lon="3.36122">
        <ele>298</ele>
        <time>2026-05-17T10:56:35.000Z</time>
      </trkpt>
      <trkpt lat="43.6538" lon="3.36122">
        <ele>298</ele>
        <time>2026-05-17T10:56:36.000Z</time>
      </trkpt>
      <trkpt lat="43.6538" lon="3.36122">
        <ele>298</ele>
        <time>2026-05-17T10:56:37.000Z</time>
      </trkpt>
      <trkpt lat="43.6538" lon="3.36122">
        <ele>298.2</ele>
        <time>2026-05-17T10:56:38.000Z</time>
      </trkpt>
      <trkpt lat="43.6538" lon="3.36122">
        <ele>298.4</ele>
        <time>2026-05-17T10:56:39.000Z</time>
      </trkpt>
      <trkpt lat="43.6538" lon="3.36122">
        <ele>298.8</ele>
        <time>2026-05-17T10:56:40.000Z</time>
      </trkpt>
      <trkpt lat="43.6538" lon="3.36122">
        <ele>298.9</ele>
        <time>2026-05-17T10:56:41.000Z</time>
      </trkpt>
      <trkpt lat="43.65381" lon="3.36122">
        <ele>299.5</ele>
        <time>2026-05-17T10:56:42.999Z</time>
      </trkpt>
      <trkpt lat="43.65381" lon="3.36122">
        <ele>299.8</ele>
        <time>2026-05-17T10:56:43.999Z</time>
      </trkpt>
      <trkpt lat="43.65381" lon="3.36122">
        <ele>300.1</ele>
        <time>2026-05-17T10:56:44.999Z</time>
      </trkpt>
      <trkpt lat="43.65381" lon="3.36122">
        <ele>300.4</ele>
        <time>2026-05-17T10:56:45.999Z</time>
      </trkpt>
      <trkpt lat="43.65381" lon="3.36122">
        <ele>300.6</ele>
        <time>2026-05-17T10:56:46.999Z</time>
      </trkpt>
      <trkpt lat="43.65381" lon="3.36122">
        <ele>300.6</ele>
        <time>2026-05-17T10:56:47.999Z</time>
      </trkpt>
      <trkpt lat="43.65381" lon="3.36122">
        <ele>300.6</ele>
        <time>2026-05-17T10:56:48.999Z</time>
      </trkpt>
      <trkpt lat="43.65381" lon="3.36122">
        <ele>300.8</ele>
        <time>2026-05-17T10:56:49.999Z</time>
      </trkpt>
      <trkpt lat="43.65381" lon="3.36122">
        <ele>300.7</ele>
        <time>2026-05-17T10:56:50.999Z</time>
      </trkpt>
      <trkpt lat="43.65381" lon="3.36122">
        <ele>300.6</ele>
        <time>2026-05-17T10:56:51.999Z</time>
      </trkpt>
      <trkpt lat="43.65381" lon="3.36122">
        <ele>300.7</ele>
        <time>2026-05-17T10:56:52.999Z</time>
      </trkpt>
      <trkpt lat="43.65381" lon="3.36122">
        <ele>300.8</ele>
        <time>2026-05-17T10:56:53.999Z</time>
      </trkpt>
      <trkpt lat="43.65381" lon="3.36122">
        <ele>300.8</ele>
        <time>2026-05-17T10:56:54.999Z</time>
      </trkpt>
      <trkpt lat="43.65381" lon="3.36122">
        <ele>300.8</ele>
        <time>2026-05-17T10:56:55.999Z</time>
      </trkpt>
      <trkpt lat="43.65381" lon="3.36122">
        <ele>300.7</ele>
        <time>2026-05-17T10:56:56.999Z</time>
      </trkpt>
      <trkpt lat="43.65381" lon="3.36122">
        <ele>300.8</ele>
        <time>2026-05-17T10:56:57.999Z</time>
      </trkpt>
      <trkpt lat="43.65381" lon="3.36122">
        <ele>300.6</ele>
        <time>2026-05-17T10:56:58.999Z</time>
      </trkpt>
      <trkpt lat="43.65381" lon="3.36122">
        <ele>300.6</ele>
        <time>2026-05-17T10:56:59.999Z</time>
      </trkpt>
      <trkpt lat="43.65381" lon="3.36122">
        <ele>300.5</ele>
        <time>2026-05-17T10:57:00.999Z</time>
      </trkpt>
      <trkpt lat="43.65381" lon="3.36122">
        <ele>300.7</ele>
        <time>2026-05-17T10:57:01.999Z</time>
      </trkpt>
      <trkpt lat="43.65381" lon="3.36122">
        <ele>300.6</ele>
        <time>2026-05-17T10:57:02.999Z</time>
      </trkpt>
      <trkpt lat="43.65381" lon="3.36122">
        <ele>300.6</ele>
        <time>2026-05-17T10:57:03.999Z</time>
      </trkpt>
      <trkpt lat="43.65381" lon="3.36122">
        <ele>300.6</ele>
        <time>2026-05-17T10:57:04.999Z</time>
      </trkpt>
      <trkpt lat="43.65381" lon="3.36121">
        <ele>300.7</ele>
        <time>2026-05-17T10:57:05.999Z</time>
      </trkpt>
      <trkpt lat="43.65381" lon="3.36121">
        <ele>300.8</ele>
        <time>2026-05-17T10:57:06.999Z</time>
      </trkpt>
      <trkpt lat="43.65381" lon="3.36121">
        <ele>300.8</ele>
        <time>2026-05-17T10:57:07.999Z</time>
      </trkpt>
      <trkpt lat="43.65381" lon="3.36121">
        <ele>300.7</ele>
        <time>2026-05-17T10:57:08.999Z</time>
      </trkpt>
      <trkpt lat="43.65381" lon="3.36121">
        <ele>300.7</ele>
        <time>2026-05-17T10:57:09.999Z</time>
      </trkpt>
      <trkpt lat="43.65381" lon="3.36121">
        <ele>300.7</ele>
        <time>2026-05-17T10:57:10.999Z</time>
      </trkpt>
      <trkpt lat="43.65381" lon="3.36121">
        <ele>300.8</ele>
        <time>2026-05-17T10:57:11.999Z</time>
      </trkpt>
      <trkpt lat="43.65381" lon="3.36121">
        <ele>300.8</ele>
        <time>2026-05-17T10:57:12.999Z</time>
      </trkpt>
      <trkpt lat="43.65381" lon="3.36121">
        <ele>300.9</ele>
        <time>2026-05-17T10:57:13.999Z</time>
      </trkpt>
      <trkpt lat="43.65381" lon="3.36121">
        <ele>300.8</ele>
        <time>2026-05-17T10:57:14.999Z</time>
      </trkpt>
      <trkpt lat="43.65381" lon="3.36121">
        <ele>300.8</ele>
        <time>2026-05-17T10:57:15.999Z</time>
      </trkpt>
      <trkpt lat="43.65381" lon="3.36121">
        <ele>300.8</ele>
        <time>2026-05-17T10:57:16.999Z</time>
      </trkpt>
      <trkpt lat="43.65381" lon="3.36121">
        <ele>300.8</ele>
        <time>2026-05-17T10:57:17.999Z</time>
      </trkpt>
      <trkpt lat="43.65381" lon="3.36121">
        <ele>300.7</ele>
        <time>2026-05-17T10:57:18.999Z</time>
      </trkpt>
      <trkpt lat="43.65381" lon="3.36121">
        <ele>300.7</ele>
        <time>2026-05-17T10:57:19.999Z</time>
      </trkpt>
      <trkpt lat="43.65381" lon="3.36121">
        <ele>300.7</ele>
        <time>2026-05-17T10:57:20.999Z</time>
      </trkpt>
      <trkpt lat="43.65381" lon="3.36121">
        <ele>300.7</ele>
        <time>2026-05-17T10:57:21.999Z</time>
      </trkpt>
      <trkpt lat="43.65381" lon="3.36121">
        <ele>300.6</ele>
        <time>2026-05-17T10:57:22.999Z</time>
      </trkpt>
      <trkpt lat="43.65381" lon="3.36121">
        <ele>300.6</ele>
        <time>2026-05-17T10:57:23.999Z</time>
      </trkpt>
      <trkpt lat="43.65381" lon="3.36121">
        <ele>300.5</ele>
        <time>2026-05-17T10:57:24.999Z</time>
      </trkpt>
      <trkpt lat="43.65381" lon="3.36121">
        <ele>300.5</ele>
        <time>2026-05-17T10:57:25.999Z</time>
      </trkpt>
      <trkpt lat="43.65381" lon="3.36121">
        <ele>300.5</ele>
        <time>2026-05-17T10:57:26.999Z</time>
      </trkpt>
      <trkpt lat="43.65381" lon="3.36121">
        <ele>300.4</ele>
        <time>2026-05-17T10:57:27.999Z</time>
      </trkpt>
      <trkpt lat="43.65381" lon="3.36121">
        <ele>300.3</ele>
        <time>2026-05-17T10:57:28.999Z</time>
      </trkpt>
      <trkpt lat="43.65381" lon="3.36122">
        <ele>300.4</ele>
        <time>2026-05-17T10:57:29.999Z</time>
      </trkpt>
      <trkpt lat="43.65381" lon="3.36122">
        <ele>300.4</ele>
        <time>2026-05-17T10:57:30.999Z</time>
      </trkpt>
      <trkpt lat="43.65381" lon="3.36122">
        <ele>300.3</ele>
        <time>2026-05-17T10:57:31.999Z</time>
      </trkpt>
      <trkpt lat="43.65381" lon="3.36122">
        <ele>300.3</ele>
        <time>2026-05-17T10:57:32.999Z</time>
      </trkpt>
      <trkpt lat="43.65381" lon="3.36122">
        <ele>300.3</ele>
        <time>2026-05-17T10:57:33.999Z</time>
      </trkpt>
      <trkpt lat="43.65381" lon="3.36122">
        <ele>300.3</ele>
        <time>2026-05-17T10:57:34.999Z</time>
      </trkpt>
      <trkpt lat="43.65381" lon="3.36122">
        <ele>300.3</ele>
        <time>2026-05-17T10:57:35.999Z</time>
      </trkpt>
      <trkpt lat="43.65381" lon="3.36122">
        <ele>300.2</ele>
        <time>2026-05-17T10:57:36.999Z</time>
      </trkpt>
      <trkpt lat="43.65381" lon="3.36122">
        <ele>300.2</ele>
        <time>2026-05-17T10:57:37.999Z</time>
      </trkpt>
      <trkpt lat="43.65381" lon="3.36122">
        <ele>300.2</ele>
        <time>2026-05-17T10:57:38.999Z</time>
      </trkpt>
      <trkpt lat="43.65381" lon="3.36122">
        <ele>300.2</ele>
        <time>2026-05-17T10:57:39.999Z</time>
      </trkpt>
      <trkpt lat="43.65381" lon="3.36122">
        <ele>300.2</ele>
        <time>2026-05-17T10:57:40.999Z</time>
      </trkpt>
      <trkpt lat="43.65381" lon="3.36122">
        <ele>300.2</ele>
        <time>2026-05-17T10:57:41.999Z</time>
      </trkpt>
      <trkpt lat="43.65381" lon="3.36122">
        <ele>300.2</ele>
        <time>2026-05-17T10:57:42.999Z</time>
      </trkpt>
      <trkpt lat="43.65381" lon="3.36122">
        <ele>300.2</ele>
        <time>2026-05-17T10:57:43.999Z</time>
      </trkpt>
      <trkpt lat="43.65381" lon="3.36122">
        <ele>299.9</ele>
        <time>2026-05-17T10:57:44.999Z</time>
      </trkpt>
      <trkpt lat="43.65381" lon="3.36122">
        <ele>299.8</ele>
        <time>2026-05-17T10:57:45.999Z</time>
      </trkpt>
      <trkpt lat="43.65381" lon="3.36122">
        <ele>299.6</ele>
        <time>2026-05-17T10:57:46.999Z</time>
      </trkpt>
      <trkpt lat="43.65381" lon="3.36122">
        <ele>299.5</ele>
        <time>2026-05-17T10:57:47.999Z</time>
      </trkpt>
      <trkpt lat="43.65381" lon="3.36122">
        <ele>299.3</ele>
        <time>2026-05-17T10:57:48.999Z</time>
      </trkpt>
      <trkpt lat="43.65381" lon="3.36122">
        <ele>299.3</ele>
        <time>2026-05-17T10:57:49.999Z</time>
      </trkpt>
      <trkpt lat="43.65381" lon="3.36122">
        <ele>299.3</ele>
        <time>2026-05-17T10:57:50.999Z</time>
      </trkpt>
      <trkpt lat="43.65381" lon="3.36122">
        <ele>299.2</ele>
        <time>2026-05-17T10:57:51.999Z</time>
      </trkpt>
      <trkpt lat="43.65381" lon="3.36122">
        <ele>299.1</ele>
        <time>2026-05-17T10:57:52.999Z</time>
      </trkpt>
      <trkpt lat="43.65381" lon="3.36122">
        <ele>298.9</ele>
        <time>2026-05-17T10:57:53.999Z</time>
      </trkpt>
      <trkpt lat="43.65381" lon="3.36122">
        <ele>298.8</ele>
        <time>2026-05-17T10:57:54.999Z</time>
      </trkpt>
      <trkpt lat="43.65381" lon="3.36122">
        <ele>298.7</ele>
        <time>2026-05-17T10:57:55.999Z</time>
      </trkpt>
      <trkpt lat="43.65381" lon="3.36122">
        <ele>298.6</ele>
        <time>2026-05-17T10:57:56.999Z</time>
      </trkpt>
      <trkpt lat="43.65381" lon="3.36122">
        <ele>298.6</ele>
        <time>2026-05-17T10:57:57.999Z</time>
      </trkpt>
      <trkpt lat="43.65381" lon="3.36122">
        <ele>298.5</ele>
        <time>2026-05-17T10:57:58.999Z</time>
      </trkpt>
      <trkpt lat="43.65381" lon="3.36122">
        <ele>298.5</ele>
        <time>2026-05-17T10:57:59.999Z</time>
      </trkpt>
      <trkpt lat="43.65381" lon="3.36122">
        <ele>298.6</ele>
        <time>2026-05-17T10:58:00.999Z</time>
      </trkpt>
      <trkpt lat="43.65381" lon="3.36122">
        <ele>298.4</ele>
        <time>2026-05-17T10:58:01.999Z</time>
      </trkpt>
      <trkpt lat="43.65381" lon="3.36122">
        <ele>298.6</ele>
        <time>2026-05-17T10:58:02.999Z</time>
      </trkpt>
      <trkpt lat="43.65381" lon="3.36122">
        <ele>298.9</ele>
        <time>2026-05-17T10:58:03.999Z</time>
      </trkpt>
      <trkpt lat="43.65381" lon="3.36122">
        <ele>299.5</ele>
        <time>2026-05-17T10:58:04.999Z</time>
      </trkpt>
      <trkpt lat="43.65381" lon="3.36122">
        <ele>299.8</ele>
        <time>2026-05-17T10:58:05.999Z</time>
      </trkpt>
      <trkpt lat="43.65381" lon="3.36122">
        <ele>300.1</ele>
        <time>2026-05-17T10:58:06.999Z</time>
      </trkpt>
      <trkpt lat="43.65381" lon="3.36122">
        <ele>300.3</ele>
        <time>2026-05-17T10:58:07.999Z</time>
      </trkpt>
      <trkpt lat="43.6538" lon="3.36122">
        <ele>300.6</ele>
        <time>2026-05-17T10:58:08.999Z</time>
      </trkpt>
      <trkpt lat="43.6538" lon="3.36122">
        <ele>301.1</ele>
        <time>2026-05-17T10:58:09.999Z</time>
      </trkpt>
      <trkpt lat="43.6538" lon="3.36122">
        <ele>301.6</ele>
        <time>2026-05-17T10:58:10.999Z</time>
      </trkpt>
      <trkpt lat="43.6538" lon="3.36122">
        <ele>302</ele>
        <time>2026-05-17T10:58:11.999Z</time>
      </trkpt>
      <trkpt lat="43.6538" lon="3.36122">
        <ele>302.3</ele>
        <time>2026-05-17T10:58:12.999Z</time>
      </trkpt>
      <trkpt lat="43.6538" lon="3.36122">
        <ele>302.7</ele>
        <time>2026-05-17T10:58:13.999Z</time>
      </trkpt>
      <trkpt lat="43.6538" lon="3.36121">
        <ele>302.9</ele>
        <time>2026-05-17T10:58:14.999Z</time>
      </trkpt>
      <trkpt lat="43.6538" lon="3.36121">
        <ele>303.2</ele>
        <time>2026-05-17T10:58:15.999Z</time>
      </trkpt>
      <trkpt lat="43.6538" lon="3.36121">
        <ele>303.5</ele>
        <time>2026-05-17T10:58:16.999Z</time>
      </trkpt>
      <trkpt lat="43.6538" lon="3.36121">
        <ele>303.7</ele>
        <time>2026-05-17T10:58:17.999Z</time>
      </trkpt>
      <trkpt lat="43.6538" lon="3.36121">
        <ele>303.8</ele>
        <time>2026-05-17T10:58:18.999Z</time>
      </trkpt>
      <trkpt lat="43.6538" lon="3.36121">
        <ele>303.9</ele>
        <time>2026-05-17T10:58:19.999Z</time>
      </trkpt>
      <trkpt lat="43.6538" lon="3.36121">
        <ele>303.9</ele>
        <time>2026-05-17T10:58:20.999Z</time>
      </trkpt>
      <trkpt lat="43.6538" lon="3.36121">
        <ele>303.9</ele>
        <time>2026-05-17T10:58:21.999Z</time>
      </trkpt>
      <trkpt lat="43.6538" lon="3.36121">
        <ele>303.9</ele>
        <time>2026-05-17T10:58:22.999Z</time>
      </trkpt>
      <trkpt lat="43.6538" lon="3.36121">
        <ele>304</ele>
        <time>2026-05-17T10:58:23.999Z</time>
      </trkpt>
      <trkpt lat="43.6538" lon="3.36121">
        <ele>304.1</ele>
        <time>2026-05-17T10:58:24.999Z</time>
      </trkpt>
      <trkpt lat="43.6538" lon="3.36121">
        <ele>304.3</ele>
        <time>2026-05-17T10:58:25.999Z</time>
      </trkpt>
      <trkpt lat="43.6538" lon="3.36121">
        <ele>304.3</ele>
        <time>2026-05-17T10:58:26.999Z</time>
      </trkpt>
      <trkpt lat="43.6538" lon="3.36121">
        <ele>304.2</ele>
        <time>2026-05-17T10:58:27.999Z</time>
      </trkpt>
      <trkpt lat="43.6538" lon="3.36121">
        <ele>304.3</ele>
        <time>2026-05-17T10:58:28.999Z</time>
      </trkpt>
      <trkpt lat="43.6538" lon="3.36121">
        <ele>304.3</ele>
        <time>2026-05-17T10:58:29.999Z</time>
      </trkpt>
      <trkpt lat="43.6538" lon="3.36121">
        <ele>304.3</ele>
        <time>2026-05-17T10:58:30.999Z</time>
      </trkpt>
      <trkpt lat="43.6538" lon="3.36121">
        <ele>304.4</ele>
        <time>2026-05-17T10:58:31.999Z</time>
      </trkpt>
      <trkpt lat="43.6538" lon="3.36121">
        <ele>304.5</ele>
        <time>2026-05-17T10:58:32.999Z</time>
      </trkpt>
      <trkpt lat="43.6538" lon="3.36121">
        <ele>304.6</ele>
        <time>2026-05-17T10:58:33.999Z</time>
      </trkpt>
      <trkpt lat="43.6538" lon="3.36121">
        <ele>304.8</ele>
        <time>2026-05-17T10:58:34.999Z</time>
      </trkpt>
      <trkpt lat="43.6538" lon="3.36121">
        <ele>304.7</ele>
        <time>2026-05-17T10:58:35.999Z</time>
      </trkpt>
      <trkpt lat="43.6538" lon="3.36121">
        <ele>304.7</ele>
        <time>2026-05-17T10:58:36.999Z</time>
      </trkpt>
      <trkpt lat="43.6538" lon="3.36121">
        <ele>304.8</ele>
        <time>2026-05-17T10:58:37.999Z</time>
      </trkpt>
      <trkpt lat="43.6538" lon="3.36121">
        <ele>304.9</ele>
        <time>2026-05-17T10:58:38.999Z</time>
      </trkpt>
      <trkpt lat="43.6538" lon="3.36121">
        <ele>305.3</ele>
        <time>2026-05-17T10:58:39.999Z</time>
      </trkpt>
      <trkpt lat="43.6538" lon="3.3612">
        <ele>305.8</ele>
        <time>2026-05-17T10:58:40.999Z</time>
      </trkpt>
      <trkpt lat="43.6538" lon="3.3612">
        <ele>306</ele>
        <time>2026-05-17T10:58:41.999Z</time>
      </trkpt>
      <trkpt lat="43.6538" lon="3.3612">
        <ele>306.2</ele>
        <time>2026-05-17T10:58:42.999Z</time>
      </trkpt>
      <trkpt lat="43.6538" lon="3.3612">
        <ele>306.3</ele>
        <time>2026-05-17T10:58:43.999Z</time>
      </trkpt>
      <trkpt lat="43.6538" lon="3.3612">
        <ele>306.4</ele>
        <time>2026-05-17T10:58:44.999Z</time>
      </trkpt>
      <trkpt lat="43.6538" lon="3.3612">
        <ele>306.5</ele>
        <time>2026-05-17T10:58:45.999Z</time>
      </trkpt>
      <trkpt lat="43.6538" lon="3.3612">
        <ele>306.5</ele>
        <time>2026-05-17T10:58:46.999Z</time>
      </trkpt>
      <trkpt lat="43.6538" lon="3.3612">
        <ele>306.6</ele>
        <time>2026-05-17T10:58:47.999Z</time>
      </trkpt>
      <trkpt lat="43.6538" lon="3.3612">
        <ele>306.6</ele>
        <time>2026-05-17T10:58:48.999Z</time>
      </trkpt>
      <trkpt lat="43.6538" lon="3.3612">
        <ele>306.7</ele>
        <time>2026-05-17T10:58:49.999Z</time>
      </trkpt>
      <trkpt lat="43.6538" lon="3.3612">
        <ele>306.8</ele>
        <time>2026-05-17T10:58:50.999Z</time>
      </trkpt>
      <trkpt lat="43.6538" lon="3.3612">
        <ele>306.6</ele>
        <time>2026-05-17T10:58:51.999Z</time>
      </trkpt>
      <trkpt lat="43.6538" lon="3.36121">
        <ele>306.6</ele>
        <time>2026-05-17T10:58:52.999Z</time>
      </trkpt>
      <trkpt lat="43.6538" lon="3.36121">
        <ele>306.6</ele>
        <time>2026-05-17T10:58:53.999Z</time>
      </trkpt>
      <trkpt lat="43.65379" lon="3.3612">
        <ele>306.6</ele>
        <time>2026-05-17T10:58:54.999Z</time>
      </trkpt>
      <trkpt lat="43.65379" lon="3.3612">
        <ele>306.7</ele>
        <time>2026-05-17T10:58:55.999Z</time>
      </trkpt>
      <trkpt lat="43.65379" lon="3.3612">
        <ele>306.6</ele>
        <time>2026-05-17T10:58:56.999Z</time>
      </trkpt>
      <trkpt lat="43.65379" lon="3.3612">
        <ele>306.6</ele>
        <time>2026-05-17T10:58:57.999Z</time>
      </trkpt>
      <trkpt lat="43.65379" lon="3.3612">
        <ele>306.7</ele>
        <time>2026-05-17T10:58:58.999Z</time>
      </trkpt>
      <trkpt lat="43.65379" lon="3.3612">
        <ele>306.7</ele>
        <time>2026-05-17T10:58:59.999Z</time>
      </trkpt>
      <trkpt lat="43.65379" lon="3.3612">
        <ele>306.6</ele>
        <time>2026-05-17T10:59:00.999Z</time>
      </trkpt>
      <trkpt lat="43.65379" lon="3.3612">
        <ele>306.9</ele>
        <time>2026-05-17T10:59:01.999Z</time>
      </trkpt>
      <trkpt lat="43.65379" lon="3.3612">
        <ele>307</ele>
        <time>2026-05-17T10:59:02.999Z</time>
      </trkpt>
      <trkpt lat="43.65379" lon="3.3612">
        <ele>306.9</ele>
        <time>2026-05-17T10:59:03.999Z</time>
      </trkpt>
      <trkpt lat="43.65379" lon="3.3612">
        <ele>306.7</ele>
        <time>2026-05-17T10:59:04.999Z</time>
      </trkpt>
      <trkpt lat="43.65379" lon="3.3612">
        <ele>306.5</ele>
        <time>2026-05-17T10:59:05.999Z</time>
      </trkpt>
      <trkpt lat="43.65379" lon="3.3612">
        <ele>306.5</ele>
        <time>2026-05-17T10:59:06.999Z</time>
      </trkpt>
      <trkpt lat="43.65379" lon="3.36119">
        <ele>306.4</ele>
        <time>2026-05-17T10:59:07.999Z</time>
      </trkpt>
      <trkpt lat="43.65379" lon="3.36119">
        <ele>306.3</ele>
        <time>2026-05-17T10:59:08.999Z</time>
      </trkpt>
      <trkpt lat="43.65379" lon="3.36119">
        <ele>306.5</ele>
        <time>2026-05-17T10:59:09.999Z</time>
      </trkpt>
      <trkpt lat="43.65379" lon="3.36119">
        <ele>306.7</ele>
        <time>2026-05-17T10:59:10.999Z</time>
      </trkpt>
      <trkpt lat="43.65379" lon="3.36119">
        <ele>306.9</ele>
        <time>2026-05-17T10:59:11.999Z</time>
      </trkpt>
      <trkpt lat="43.65379" lon="3.36119">
        <ele>307.1</ele>
        <time>2026-05-17T10:59:12.999Z</time>
      </trkpt>
      <trkpt lat="43.65379" lon="3.36119">
        <ele>307.1</ele>
        <time>2026-05-17T10:59:13.999Z</time>
      </trkpt>
      <trkpt lat="43.65379" lon="3.36119">
        <ele>307.3</ele>
        <time>2026-05-17T10:59:14.999Z</time>
      </trkpt>
      <trkpt lat="43.65379" lon="3.36119">
        <ele>307.4</ele>
        <time>2026-05-17T10:59:15.999Z</time>
      </trkpt>
      <trkpt lat="43.65379" lon="3.36119">
        <ele>307.5</ele>
        <time>2026-05-17T10:59:16.999Z</time>
      </trkpt>
      <trkpt lat="43.65379" lon="3.36119">
        <ele>307.6</ele>
        <time>2026-05-17T10:59:17.999Z</time>
      </trkpt>
      <trkpt lat="43.65379" lon="3.36119">
        <ele>307.7</ele>
        <time>2026-05-17T10:59:18.999Z</time>
      </trkpt>
      <trkpt lat="43.65379" lon="3.36119">
        <ele>307.8</ele>
        <time>2026-05-17T10:59:19.999Z</time>
      </trkpt>
      <trkpt lat="43.65379" lon="3.36119">
        <ele>308.1</ele>
        <time>2026-05-17T10:59:20.999Z</time>
      </trkpt>
      <trkpt lat="43.65379" lon="3.36119">
        <ele>308.4</ele>
        <time>2026-05-17T10:59:21.999Z</time>
      </trkpt>
      <trkpt lat="43.65379" lon="3.36119">
        <ele>308.7</ele>
        <time>2026-05-17T10:59:22.999Z</time>
      </trkpt>
      <trkpt lat="43.65379" lon="3.36119">
        <ele>308.8</ele>
        <time>2026-05-17T10:59:23.999Z</time>
      </trkpt>
      <trkpt lat="43.65379" lon="3.36119">
        <ele>308.9</ele>
        <time>2026-05-17T10:59:24.999Z</time>
      </trkpt>
      <trkpt lat="43.65379" lon="3.36119">
        <ele>308.9</ele>
        <time>2026-05-17T10:59:25.999Z</time>
      </trkpt>
      <trkpt lat="43.65379" lon="3.36119">
        <ele>309</ele>
        <time>2026-05-17T10:59:26.999Z</time>
      </trkpt>
      <trkpt lat="43.65379" lon="3.36119">
        <ele>309.1</ele>
        <time>2026-05-17T10:59:27.999Z</time>
      </trkpt>
      <trkpt lat="43.65379" lon="3.36119">
        <ele>309.2</ele>
        <time>2026-05-17T10:59:28.999Z</time>
      </trkpt>
      <trkpt lat="43.65379" lon="3.36119">
        <ele>309.2</ele>
        <time>2026-05-17T10:59:29.999Z</time>
      </trkpt>
      <trkpt lat="43.65379" lon="3.36119">
        <ele>309.2</ele>
        <time>2026-05-17T10:59:30.999Z</time>
      </trkpt>
      <trkpt lat="43.65379" lon="3.36119">
        <ele>309.4</ele>
        <time>2026-05-17T10:59:31.999Z</time>
      </trkpt>
      <trkpt lat="43.65379" lon="3.36119">
        <ele>309.6</ele>
        <time>2026-05-17T10:59:32.999Z</time>
      </trkpt>
      <trkpt lat="43.65379" lon="3.36119">
        <ele>309.8</ele>
        <time>2026-05-17T10:59:33.999Z</time>
      </trkpt>
      <trkpt lat="43.65379" lon="3.36119">
        <ele>310</ele>
        <time>2026-05-17T10:59:34.999Z</time>
      </trkpt>
      <trkpt lat="43.65379" lon="3.36119">
        <ele>310</ele>
        <time>2026-05-17T10:59:35.999Z</time>
      </trkpt>
      <trkpt lat="43.65379" lon="3.36119">
        <ele>309.9</ele>
        <time>2026-05-17T10:59:36.999Z</time>
      </trkpt>
      <trkpt lat="43.65379" lon="3.36119">
        <ele>310</ele>
        <time>2026-05-17T10:59:37.999Z</time>
      </trkpt>
      <trkpt lat="43.65379" lon="3.36119">
        <ele>310</ele>
        <time>2026-05-17T10:59:38.999Z</time>
      </trkpt>
      <trkpt lat="43.65379" lon="3.36119">
        <ele>310</ele>
        <time>2026-05-17T10:59:39.999Z</time>
      </trkpt>
      <trkpt lat="43.65379" lon="3.36119">
        <ele>310</ele>
        <time>2026-05-17T10:59:40.999Z</time>
      </trkpt>
      <trkpt lat="43.65379" lon="3.36119">
        <ele>310.2</ele>
        <time>2026-05-17T10:59:41.999Z</time>
      </trkpt>
      <trkpt lat="43.65379" lon="3.36119">
        <ele>310.2</ele>
        <time>2026-05-17T10:59:42.999Z</time>
      </trkpt>
      <trkpt lat="43.65379" lon="3.36119">
        <ele>310.1</ele>
        <time>2026-05-17T10:59:43.999Z</time>
      </trkpt>
      <trkpt lat="43.65379" lon="3.36119">
        <ele>310</ele>
        <time>2026-05-17T10:59:44.999Z</time>
      </trkpt>
      <trkpt lat="43.65379" lon="3.36119">
        <ele>309.8</ele>
        <time>2026-05-17T10:59:45.999Z</time>
      </trkpt>
      <trkpt lat="43.65379" lon="3.36119">
        <ele>309.8</ele>
        <time>2026-05-17T10:59:46.999Z</time>
      </trkpt>
      <trkpt lat="43.65379" lon="3.36119">
        <ele>309.6</ele>
        <time>2026-05-17T10:59:47.999Z</time>
      </trkpt>
      <trkpt lat="43.65379" lon="3.36119">
        <ele>309.4</ele>
        <time>2026-05-17T10:59:48.999Z</time>
      </trkpt>
      <trkpt lat="43.65379" lon="3.36119">
        <ele>309.2</ele>
        <time>2026-05-17T10:59:49.999Z</time>
      </trkpt>
      <trkpt lat="43.65379" lon="3.36119">
        <ele>309</ele>
        <time>2026-05-17T10:59:50.999Z</time>
      </trkpt>
      <trkpt lat="43.65379" lon="3.36119">
        <ele>308.8</ele>
        <time>2026-05-17T10:59:51.999Z</time>
      </trkpt>
      <trkpt lat="43.65379" lon="3.36119">
        <ele>308.7</ele>
        <time>2026-05-17T10:59:52.999Z</time>
      </trkpt>
      <trkpt lat="43.65379" lon="3.36119">
        <ele>308.6</ele>
        <time>2026-05-17T10:59:53.999Z</time>
      </trkpt>
      <trkpt lat="43.65379" lon="3.36119">
        <ele>308.4</ele>
        <time>2026-05-17T10:59:54.999Z</time>
      </trkpt>
      <trkpt lat="43.65379" lon="3.36119">
        <ele>308.2</ele>
        <time>2026-05-17T10:59:55.999Z</time>
      </trkpt>
      <trkpt lat="43.65379" lon="3.36119">
        <ele>307.9</ele>
        <time>2026-05-17T10:59:56.999Z</time>
      </trkpt>
      <trkpt lat="43.65379" lon="3.36119">
        <ele>307.5</ele>
        <time>2026-05-17T10:59:57.999Z</time>
      </trkpt>
      <trkpt lat="43.65379" lon="3.36119">
        <ele>307.3</ele>
        <time>2026-05-17T10:59:58.999Z</time>
      </trkpt>
      <trkpt lat="43.65379" lon="3.36119">
        <ele>307.2</ele>
        <time>2026-05-17T10:59:59.999Z</time>
      </trkpt>
      <trkpt lat="43.65379" lon="3.36119">
        <ele>306.8</ele>
        <time>2026-05-17T11:00:00.999Z</time>
      </trkpt>
      <trkpt lat="43.65379" lon="3.36119">
        <ele>306.5</ele>
        <time>2026-05-17T11:00:01.999Z</time>
      </trkpt>
      <trkpt lat="43.65379" lon="3.36119">
        <ele>306.2</ele>
        <time>2026-05-17T11:00:02.999Z</time>
      </trkpt>
      <trkpt lat="43.65379" lon="3.36119">
        <ele>306</ele>
        <time>2026-05-17T11:00:03.999Z</time>
      </trkpt>
      <trkpt lat="43.65379" lon="3.36119">
        <ele>305.9</ele>
        <time>2026-05-17T11:00:04.999Z</time>
      </trkpt>
      <trkpt lat="43.65379" lon="3.36119">
        <ele>306.2</ele>
        <time>2026-05-17T11:00:05.999Z</time>
      </trkpt>
      <trkpt lat="43.65379" lon="3.36119">
        <ele>306.1</ele>
        <time>2026-05-17T11:00:06.999Z</time>
      </trkpt>
      <trkpt lat="43.65379" lon="3.36119">
        <ele>306.1</ele>
        <time>2026-05-17T11:00:07.999Z</time>
      </trkpt>
      <trkpt lat="43.65379" lon="3.36119">
        <ele>306.2</ele>
        <time>2026-05-17T11:00:08.999Z</time>
      </trkpt>
      <trkpt lat="43.65379" lon="3.36119">
        <ele>306.1</ele>
        <time>2026-05-17T11:00:09.999Z</time>
      </trkpt>
      <trkpt lat="43.65379" lon="3.36119">
        <ele>306.6</ele>
        <time>2026-05-17T11:00:10.999Z</time>
      </trkpt>
      <trkpt lat="43.65379" lon="3.36119">
        <ele>307.1</ele>
        <time>2026-05-17T11:00:11.999Z</time>
      </trkpt>
      <trkpt lat="43.65379" lon="3.36118">
        <ele>307.5</ele>
        <time>2026-05-17T11:00:12.999Z</time>
      </trkpt>
      <trkpt lat="43.65379" lon="3.36118">
        <ele>307.9</ele>
        <time>2026-05-17T11:00:13.999Z</time>
      </trkpt>
      <trkpt lat="43.65379" lon="3.36118">
        <ele>308.1</ele>
        <time>2026-05-17T11:00:14.999Z</time>
      </trkpt>
      <trkpt lat="43.65379" lon="3.36118">
        <ele>308.2</ele>
        <time>2026-05-17T11:00:15.999Z</time>
      </trkpt>
      <trkpt lat="43.65379" lon="3.36118">
        <ele>308.3</ele>
        <time>2026-05-17T11:00:16.999Z</time>
      </trkpt>
      <trkpt lat="43.65379" lon="3.36118">
        <ele>308.3</ele>
        <time>2026-05-17T11:00:17.999Z</time>
      </trkpt>
      <trkpt lat="43.65379" lon="3.36118">
        <ele>308.4</ele>
        <time>2026-05-17T11:00:18.999Z</time>
      </trkpt>
      <trkpt lat="43.65379" lon="3.36118">
        <ele>308.1</ele>
        <time>2026-05-17T11:00:19.999Z</time>
      </trkpt>
      <trkpt lat="43.65379" lon="3.36118">
        <ele>308</ele>
        <time>2026-05-17T11:00:20.999Z</time>
      </trkpt>
      <trkpt lat="43.65379" lon="3.36118">
        <ele>307.9</ele>
        <time>2026-05-17T11:00:21.999Z</time>
      </trkpt>
      <trkpt lat="43.65379" lon="3.36118">
        <ele>307.8</ele>
        <time>2026-05-17T11:00:22.999Z</time>
      </trkpt>
      <trkpt lat="43.65379" lon="3.36118">
        <ele>308</ele>
        <time>2026-05-17T11:00:23.999Z</time>
      </trkpt>
      <trkpt lat="43.65379" lon="3.36118">
        <ele>308.3</ele>
        <time>2026-05-17T11:00:24.999Z</time>
      </trkpt>
      <trkpt lat="43.65379" lon="3.36118">
        <ele>308.5</ele>
        <time>2026-05-17T11:00:25.999Z</time>
      </trkpt>
      <trkpt lat="43.65379" lon="3.36118">
        <ele>308.7</ele>
        <time>2026-05-17T11:00:26.999Z</time>
      </trkpt>
      <trkpt lat="43.65379" lon="3.36118">
        <ele>308.8</ele>
        <time>2026-05-17T11:00:27.999Z</time>
      </trkpt>
      <trkpt lat="43.65379" lon="3.36118">
        <ele>309</ele>
        <time>2026-05-17T11:00:28.999Z</time>
      </trkpt>
      <trkpt lat="43.65379" lon="3.36118">
        <ele>309.1</ele>
        <time>2026-05-17T11:00:29.999Z</time>
      </trkpt>
      <trkpt lat="43.65379" lon="3.36118">
        <ele>309.2</ele>
        <time>2026-05-17T11:00:30.999Z</time>
      </trkpt>
      <trkpt lat="43.65379" lon="3.36118">
        <ele>309.2</ele>
        <time>2026-05-17T11:00:31.999Z</time>
      </trkpt>
      <trkpt lat="43.65379" lon="3.36118">
        <ele>309.2</ele>
        <time>2026-05-17T11:00:32.999Z</time>
      </trkpt>
      <trkpt lat="43.65379" lon="3.36118">
        <ele>309.3</ele>
        <time>2026-05-17T11:00:33.999Z</time>
      </trkpt>
      <trkpt lat="43.65379" lon="3.36118">
        <ele>309.3</ele>
        <time>2026-05-17T11:00:34.999Z</time>
      </trkpt>
      <trkpt lat="43.65379" lon="3.36118">
        <ele>309.3</ele>
        <time>2026-05-17T11:00:35.999Z</time>
      </trkpt>
      <trkpt lat="43.65379" lon="3.36118">
        <ele>309.6</ele>
        <time>2026-05-17T11:00:36.999Z</time>
      </trkpt>
      <trkpt lat="43.65379" lon="3.36118">
        <ele>309.7</ele>
        <time>2026-05-17T11:00:37.999Z</time>
      </trkpt>
      <trkpt lat="43.65379" lon="3.36118">
        <ele>309.9</ele>
        <time>2026-05-17T11:00:38.999Z</time>
      </trkpt>
      <trkpt lat="43.65379" lon="3.36118">
        <ele>309.9</ele>
        <time>2026-05-17T11:00:39.999Z</time>
      </trkpt>
      <trkpt lat="43.65379" lon="3.36118">
        <ele>309.7</ele>
        <time>2026-05-17T11:00:40.999Z</time>
      </trkpt>
      <trkpt lat="43.65379" lon="3.36118">
        <ele>309.4</ele>
        <time>2026-05-17T11:00:41.999Z</time>
      </trkpt>
      <trkpt lat="43.65379" lon="3.36118">
        <ele>309.2</ele>
        <time>2026-05-17T11:00:42.999Z</time>
      </trkpt>
      <trkpt lat="43.65379" lon="3.36118">
        <ele>309</ele>
        <time>2026-05-17T11:00:43.999Z</time>
      </trkpt>
      <trkpt lat="43.65379" lon="3.36118">
        <ele>309.2</ele>
        <time>2026-05-17T11:00:44.999Z</time>
      </trkpt>
      <trkpt lat="43.65378" lon="3.36118">
        <ele>309.3</ele>
        <time>2026-05-17T11:00:45.999Z</time>
      </trkpt>
      <trkpt lat="43.65378" lon="3.36118">
        <ele>309.4</ele>
        <time>2026-05-17T11:00:46.999Z</time>
      </trkpt>
      <trkpt lat="43.65378" lon="3.36117">
        <ele>309.6</ele>
        <time>2026-05-17T11:00:47.999Z</time>
      </trkpt>
      <trkpt lat="43.65378" lon="3.36117">
        <ele>309.7</ele>
        <time>2026-05-17T11:00:48.999Z</time>
      </trkpt>
      <trkpt lat="43.65378" lon="3.36117">
        <ele>309.8</ele>
        <time>2026-05-17T11:00:49.999Z</time>
      </trkpt>
      <trkpt lat="43.65378" lon="3.36117">
        <ele>310</ele>
        <time>2026-05-17T11:00:50.999Z</time>
      </trkpt>
      <trkpt lat="43.65378" lon="3.36117">
        <ele>310</ele>
        <time>2026-05-17T11:00:51.999Z</time>
      </trkpt>
      <trkpt lat="43.65378" lon="3.36117">
        <ele>309.9</ele>
        <time>2026-05-17T11:00:52.999Z</time>
      </trkpt>
      <trkpt lat="43.65378" lon="3.36117">
        <ele>309.9</ele>
        <time>2026-05-17T11:00:53.999Z</time>
      </trkpt>
      <trkpt lat="43.65378" lon="3.36117">
        <ele>309.8</ele>
        <time>2026-05-17T11:00:54.999Z</time>
      </trkpt>
      <trkpt lat="43.65378" lon="3.36117">
        <ele>309.5</ele>
        <time>2026-05-17T11:00:55.999Z</time>
      </trkpt>
      <trkpt lat="43.65378" lon="3.36117">
        <ele>309.3</ele>
        <time>2026-05-17T11:00:56.999Z</time>
      </trkpt>
      <trkpt lat="43.65378" lon="3.36117">
        <ele>309.2</ele>
        <time>2026-05-17T11:00:57.999Z</time>
      </trkpt>
      <trkpt lat="43.65378" lon="3.36117">
        <ele>309</ele>
        <time>2026-05-17T11:00:58.999Z</time>
      </trkpt>
      <trkpt lat="43.65378" lon="3.36117">
        <ele>308.9</ele>
        <time>2026-05-17T11:00:59.999Z</time>
      </trkpt>
      <trkpt lat="43.65378" lon="3.36117">
        <ele>308.5</ele>
        <time>2026-05-17T11:01:00.999Z</time>
      </trkpt>
      <trkpt lat="43.65378" lon="3.36117">
        <ele>308.4</ele>
        <time>2026-05-17T11:01:01.999Z</time>
      </trkpt>
      <trkpt lat="43.65378" lon="3.36117">
        <ele>308.2</ele>
        <time>2026-05-17T11:01:02.999Z</time>
      </trkpt>
      <trkpt lat="43.65378" lon="3.36117">
        <ele>308</ele>
        <time>2026-05-17T11:01:03.999Z</time>
      </trkpt>
      <trkpt lat="43.65378" lon="3.36117">
        <ele>307.9</ele>
        <time>2026-05-17T11:01:04.999Z</time>
      </trkpt>
      <trkpt lat="43.65378" lon="3.36117">
        <ele>307.8</ele>
        <time>2026-05-17T11:01:05.999Z</time>
      </trkpt>
      <trkpt lat="43.65378" lon="3.36117">
        <ele>307.5</ele>
        <time>2026-05-17T11:01:06.999Z</time>
      </trkpt>
      <trkpt lat="43.65378" lon="3.36117">
        <ele>307.2</ele>
        <time>2026-05-17T11:01:07.999Z</time>
      </trkpt>
      <trkpt lat="43.65378" lon="3.36117">
        <ele>307.2</ele>
        <time>2026-05-17T11:01:08.999Z</time>
      </trkpt>
      <trkpt lat="43.65378" lon="3.36118">
        <ele>306.9</ele>
        <time>2026-05-17T11:01:09.999Z</time>
      </trkpt>
      <trkpt lat="43.65378" lon="3.36118">
        <ele>306.5</ele>
        <time>2026-05-17T11:01:10.999Z</time>
      </trkpt>
      <trkpt lat="43.65378" lon="3.36118">
        <ele>306.3</ele>
        <time>2026-05-17T11:01:11.999Z</time>
      </trkpt>
      <trkpt lat="43.65378" lon="3.36118">
        <ele>306.3</ele>
        <time>2026-05-17T11:01:12.999Z</time>
      </trkpt>
      <trkpt lat="43.65378" lon="3.36118">
        <ele>306.2</ele>
        <time>2026-05-17T11:01:13.999Z</time>
      </trkpt>
      <trkpt lat="43.65378" lon="3.36118">
        <ele>306.1</ele>
        <time>2026-05-17T11:01:14.999Z</time>
      </trkpt>
      <trkpt lat="43.65378" lon="3.36118">
        <ele>305.8</ele>
        <time>2026-05-17T11:01:15.999Z</time>
      </trkpt>
      <trkpt lat="43.65378" lon="3.36118">
        <ele>305.5</ele>
        <time>2026-05-17T11:01:16.999Z</time>
      </trkpt>
      <trkpt lat="43.65378" lon="3.36118">
        <ele>305.4</ele>
        <time>2026-05-17T11:01:17.999Z</time>
      </trkpt>
      <trkpt lat="43.65378" lon="3.36118">
        <ele>305.2</ele>
        <time>2026-05-17T11:01:18.999Z</time>
      </trkpt>
      <trkpt lat="43.65378" lon="3.36118">
        <ele>305</ele>
        <time>2026-05-17T11:01:19.999Z</time>
      </trkpt>
      <trkpt lat="43.65378" lon="3.36118">
        <ele>304.9</ele>
        <time>2026-05-17T11:01:20.999Z</time>
      </trkpt>
      <trkpt lat="43.65378" lon="3.36118">
        <ele>304.8</ele>
        <time>2026-05-17T11:01:21.999Z</time>
      </trkpt>
      <trkpt lat="43.65378" lon="3.36118">
        <ele>304.8</ele>
        <time>2026-05-17T11:01:22.999Z</time>
      </trkpt>
      <trkpt lat="43.65378" lon="3.36118">
        <ele>304.7</ele>
        <time>2026-05-17T11:01:23.999Z</time>
      </trkpt>
      <trkpt lat="43.65378" lon="3.36118">
        <ele>304.6</ele>
        <time>2026-05-17T11:01:24.999Z</time>
      </trkpt>
      <trkpt lat="43.65378" lon="3.36118">
        <ele>304.5</ele>
        <time>2026-05-17T11:01:25.999Z</time>
      </trkpt>
      <trkpt lat="43.65378" lon="3.36118">
        <ele>304.4</ele>
        <time>2026-05-17T11:01:26.999Z</time>
      </trkpt>
      <trkpt lat="43.65378" lon="3.36118">
        <ele>304.4</ele>
        <time>2026-05-17T11:01:27.999Z</time>
      </trkpt>
      <trkpt lat="43.65378" lon="3.36118">
        <ele>304.3</ele>
        <time>2026-05-17T11:01:28.999Z</time>
      </trkpt>
      <trkpt lat="43.65378" lon="3.36118">
        <ele>304.2</ele>
        <time>2026-05-17T11:01:29.999Z</time>
      </trkpt>
      <trkpt lat="43.65378" lon="3.36118">
        <ele>304.2</ele>
        <time>2026-05-17T11:01:30.999Z</time>
      </trkpt>
      <trkpt lat="43.65378" lon="3.36118">
        <ele>304.1</ele>
        <time>2026-05-17T11:01:31.999Z</time>
      </trkpt>
      <trkpt lat="43.65378" lon="3.36118">
        <ele>304</ele>
        <time>2026-05-17T11:01:32.999Z</time>
      </trkpt>
      <trkpt lat="43.65378" lon="3.36118">
        <ele>303.9</ele>
        <time>2026-05-17T11:01:33.999Z</time>
      </trkpt>
      <trkpt lat="43.65378" lon="3.36118">
        <ele>303.9</ele>
        <time>2026-05-17T11:01:34.999Z</time>
      </trkpt>
      <trkpt lat="43.65378" lon="3.36118">
        <ele>303.9</ele>
        <time>2026-05-17T11:01:35.999Z</time>
      </trkpt>
      <trkpt lat="43.65378" lon="3.36117">
        <ele>303.8</ele>
        <time>2026-05-17T11:01:36.999Z</time>
      </trkpt>
      <trkpt lat="43.65378" lon="3.36117">
        <ele>303.7</ele>
        <time>2026-05-17T11:01:37.999Z</time>
      </trkpt>
      <trkpt lat="43.65378" lon="3.36117">
        <ele>303.5</ele>
        <time>2026-05-17T11:01:38.999Z</time>
      </trkpt>
      <trkpt lat="43.65378" lon="3.36117">
        <ele>303.3</ele>
        <time>2026-05-17T11:01:39.999Z</time>
      </trkpt>
      <trkpt lat="43.65378" lon="3.36117">
        <ele>303</ele>
        <time>2026-05-17T11:01:40.999Z</time>
      </trkpt>
      <trkpt lat="43.65378" lon="3.36117">
        <ele>302.9</ele>
        <time>2026-05-17T11:01:41.999Z</time>
      </trkpt>
      <trkpt lat="43.65378" lon="3.36117">
        <ele>302.7</ele>
        <time>2026-05-17T11:01:42.999Z</time>
      </trkpt>
      <trkpt lat="43.65378" lon="3.36117">
        <ele>302.5</ele>
        <time>2026-05-17T11:01:43.999Z</time>
      </trkpt>
      <trkpt lat="43.65378" lon="3.36117">
        <ele>302.4</ele>
        <time>2026-05-17T11:01:44.999Z</time>
      </trkpt>
      <trkpt lat="43.65378" lon="3.36117">
        <ele>302.1</ele>
        <time>2026-05-17T11:01:45.999Z</time>
      </trkpt>
      <trkpt lat="43.65378" lon="3.36117">
        <ele>302.1</ele>
        <time>2026-05-17T11:01:46.999Z</time>
      </trkpt>
      <trkpt lat="43.65378" lon="3.36117">
        <ele>302.1</ele>
        <time>2026-05-17T11:01:47.999Z</time>
      </trkpt>
      <trkpt lat="43.65378" lon="3.36117">
        <ele>302.2</ele>
        <time>2026-05-17T11:01:48.999Z</time>
      </trkpt>
      <trkpt lat="43.65378" lon="3.36117">
        <ele>302.1</ele>
        <time>2026-05-17T11:01:49.999Z</time>
      </trkpt>
      <trkpt lat="43.65378" lon="3.36117">
        <ele>302</ele>
        <time>2026-05-17T11:01:50.999Z</time>
      </trkpt>
      <trkpt lat="43.65378" lon="3.36117">
        <ele>301.8</ele>
        <time>2026-05-17T11:01:51.999Z</time>
      </trkpt>
      <trkpt lat="43.65378" lon="3.36117">
        <ele>301.7</ele>
        <time>2026-05-17T11:01:52.999Z</time>
      </trkpt>
      <trkpt lat="43.65378" lon="3.36117">
        <ele>301.9</ele>
        <time>2026-05-17T11:01:53.999Z</time>
      </trkpt>
      <trkpt lat="43.65378" lon="3.36117">
        <ele>302.1</ele>
        <time>2026-05-17T11:01:54.999Z</time>
      </trkpt>
      <trkpt lat="43.65378" lon="3.36117">
        <ele>302.1</ele>
        <time>2026-05-17T11:01:55.999Z</time>
      </trkpt>
      <trkpt lat="43.65378" lon="3.36118">
        <ele>302.2</ele>
        <time>2026-05-17T11:01:56.999Z</time>
      </trkpt>
      <trkpt lat="43.65378" lon="3.36118">
        <ele>302.4</ele>
        <time>2026-05-17T11:01:57.999Z</time>
      </trkpt>
      <trkpt lat="43.65378" lon="3.36117">
        <ele>302.5</ele>
        <time>2026-05-17T11:01:58.999Z</time>
      </trkpt>
      <trkpt lat="43.65378" lon="3.36117">
        <ele>302.7</ele>
        <time>2026-05-17T11:01:59.999Z</time>
      </trkpt>
      <trkpt lat="43.65378" lon="3.36118">
        <ele>302.7</ele>
        <time>2026-05-17T11:02:00.999Z</time>
      </trkpt>
      <trkpt lat="43.65378" lon="3.36118">
        <ele>302.6</ele>
        <time>2026-05-17T11:02:01.999Z</time>
      </trkpt>
      <trkpt lat="43.65378" lon="3.36118">
        <ele>302.4</ele>
        <time>2026-05-17T11:02:02.999Z</time>
      </trkpt>
      <trkpt lat="43.6538" lon="3.36119">
        <ele>302.4</ele>
        <time>2026-05-17T11:02:04.999Z</time>
      </trkpt>
      <trkpt lat="43.65381" lon="3.36119">
        <ele>302.3</ele>
        <time>2026-05-17T11:02:05.999Z</time>
      </trkpt>
      <trkpt lat="43.65381" lon="3.36119">
        <ele>302.1</ele>
        <time>2026-05-17T11:02:06.999Z</time>
      </trkpt>
      <trkpt lat="43.65381" lon="3.36119">
        <ele>302.2</ele>
        <time>2026-05-17T11:02:07.999Z</time>
      </trkpt>
      <trkpt lat="43.65382" lon="3.36119">
        <ele>302.2</ele>
        <time>2026-05-17T11:02:08.999Z</time>
      </trkpt>
      <trkpt lat="43.65382" lon="3.36119">
        <ele>302</ele>
        <time>2026-05-17T11:02:09.999Z</time>
      </trkpt>
      <trkpt lat="43.65382" lon="3.36119">
        <ele>302.1</ele>
        <time>2026-05-17T11:02:11.999Z</time>
      </trkpt>
      <trkpt lat="43.65382" lon="3.36119">
        <ele>302</ele>
        <time>2026-05-17T11:02:12.999Z</time>
      </trkpt>
      <trkpt lat="43.65382" lon="3.36119">
        <ele>301.8</ele>
        <time>2026-05-17T11:02:13.999Z</time>
      </trkpt>
      <trkpt lat="43.65381" lon="3.36118">
        <ele>301.6</ele>
        <time>2026-05-17T11:02:14.999Z</time>
      </trkpt>
      <trkpt lat="43.65381" lon="3.36118">
        <ele>301.4</ele>
        <time>2026-05-17T11:02:15.999Z</time>
      </trkpt>
      <trkpt lat="43.65381" lon="3.36118">
        <ele>301.4</ele>
        <time>2026-05-17T11:02:16.999Z</time>
      </trkpt>
      <trkpt lat="43.65381" lon="3.36118">
        <ele>301.4</ele>
        <time>2026-05-17T11:02:17.999Z</time>
      </trkpt>
      <trkpt lat="43.65381" lon="3.36118">
        <ele>301.3</ele>
        <time>2026-05-17T11:02:18.999Z</time>
      </trkpt>
      <trkpt lat="43.65381" lon="3.36118">
        <ele>301.4</ele>
        <time>2026-05-17T11:02:19.999Z</time>
      </trkpt>
      <trkpt lat="43.65382" lon="3.36118">
        <ele>301.4</ele>
        <time>2026-05-17T11:02:20.999Z</time>
      </trkpt>
      <trkpt lat="43.65382" lon="3.36118">
        <ele>301.5</ele>
        <time>2026-05-17T11:02:21.999Z</time>
      </trkpt>
      <trkpt lat="43.65383" lon="3.36118">
        <ele>301.5</ele>
        <time>2026-05-17T11:02:22.999Z</time>
      </trkpt>
      <trkpt lat="43.65383" lon="3.36118">
        <ele>301.5</ele>
        <time>2026-05-17T11:02:23.999Z</time>
      </trkpt>
      <trkpt lat="43.65384" lon="3.36118">
        <ele>301.5</ele>
        <time>2026-05-17T11:02:24.999Z</time>
      </trkpt>
      <trkpt lat="43.65385" lon="3.36118">
        <ele>301.5</ele>
        <time>2026-05-17T11:02:25.999Z</time>
      </trkpt>
      <trkpt lat="43.65385" lon="3.36119">
        <ele>301.4</ele>
        <time>2026-05-17T11:02:26.999Z</time>
      </trkpt>
      <trkpt lat="43.65385" lon="3.36118">
        <ele>301.3</ele>
        <time>2026-05-17T11:02:27.999Z</time>
      </trkpt>
      <trkpt lat="43.65386" lon="3.36119">
        <ele>301.3</ele>
        <time>2026-05-17T11:02:28.999Z</time>
      </trkpt>
      <trkpt lat="43.65386" lon="3.36118">
        <ele>301</ele>
        <time>2026-05-17T11:02:29.999Z</time>
      </trkpt>
      <trkpt lat="43.65386" lon="3.36118">
        <ele>300.7</ele>
        <time>2026-05-17T11:02:30.999Z</time>
      </trkpt>
      <trkpt lat="43.65386" lon="3.36118">
        <ele>300.7</ele>
        <time>2026-05-17T11:02:31.999Z</time>
      </trkpt>
      <trkpt lat="43.65386" lon="3.36117">
        <ele>300.4</ele>
        <time>2026-05-17T11:02:32.999Z</time>
      </trkpt>
      <trkpt lat="43.65386" lon="3.36117">
        <ele>300.3</ele>
        <time>2026-05-17T11:02:33.999Z</time>
      </trkpt>
      <trkpt lat="43.65386" lon="3.36117">
        <ele>300.3</ele>
        <time>2026-05-17T11:02:34.999Z</time>
      </trkpt>
      <trkpt lat="43.65386" lon="3.36117">
        <ele>300.1</ele>
        <time>2026-05-17T11:02:35.999Z</time>
      </trkpt>
      <trkpt lat="43.65386" lon="3.36117">
        <ele>299.9</ele>
        <time>2026-05-17T11:02:36.999Z</time>
      </trkpt>
      <trkpt lat="43.65386" lon="3.36117">
        <ele>299.8</ele>
        <time>2026-05-17T11:02:37.999Z</time>
      </trkpt>
      <trkpt lat="43.65387" lon="3.36117">
        <ele>299.8</ele>
        <time>2026-05-17T11:02:38.999Z</time>
      </trkpt>
      <trkpt lat="43.65387" lon="3.36117">
        <ele>299.6</ele>
        <time>2026-05-17T11:02:39.999Z</time>
      </trkpt>
      <trkpt lat="43.65387" lon="3.36117">
        <ele>299.7</ele>
        <time>2026-05-17T11:02:40.999Z</time>
      </trkpt>
      <trkpt lat="43.65387" lon="3.36117">
        <ele>299.8</ele>
        <time>2026-05-17T11:02:41.999Z</time>
      </trkpt>
      <trkpt lat="43.65387" lon="3.36117">
        <ele>299.8</ele>
        <time>2026-05-17T11:02:42.999Z</time>
      </trkpt>
      <trkpt lat="43.65387" lon="3.36117">
        <ele>299.5</ele>
        <time>2026-05-17T11:02:43.999Z</time>
      </trkpt>
      <trkpt lat="43.65387" lon="3.36117">
        <ele>299.4</ele>
        <time>2026-05-17T11:02:44.999Z</time>
      </trkpt>
      <trkpt lat="43.65387" lon="3.36117">
        <ele>299.2</ele>
        <time>2026-05-17T11:02:45.999Z</time>
      </trkpt>
      <trkpt lat="43.65386" lon="3.36116">
        <ele>299</ele>
        <time>2026-05-17T11:02:46.999Z</time>
      </trkpt>
      <trkpt lat="43.65386" lon="3.36116">
        <ele>299</ele>
        <time>2026-05-17T11:02:47.999Z</time>
      </trkpt>
      <trkpt lat="43.65386" lon="3.36116">
        <ele>298.8</ele>
        <time>2026-05-17T11:02:48.999Z</time>
      </trkpt>
      <trkpt lat="43.65386" lon="3.36116">
        <ele>298.6</ele>
        <time>2026-05-17T11:02:49.999Z</time>
      </trkpt>
      <trkpt lat="43.65386" lon="3.36116">
        <ele>298.5</ele>
        <time>2026-05-17T11:02:50.999Z</time>
      </trkpt>
      <trkpt lat="43.65386" lon="3.36116">
        <ele>298.4</ele>
        <time>2026-05-17T11:02:51.999Z</time>
      </trkpt>
      <trkpt lat="43.65386" lon="3.36116">
        <ele>298.4</ele>
        <time>2026-05-17T11:02:52.999Z</time>
      </trkpt>
      <trkpt lat="43.65386" lon="3.36116">
        <ele>298.3</ele>
        <time>2026-05-17T11:02:53.999Z</time>
      </trkpt>
      <trkpt lat="43.65386" lon="3.36116">
        <ele>298.3</ele>
        <time>2026-05-17T11:02:54.999Z</time>
      </trkpt>
      <trkpt lat="43.65386" lon="3.36116">
        <ele>298.3</ele>
        <time>2026-05-17T11:02:55.999Z</time>
      </trkpt>
      <trkpt lat="43.65386" lon="3.36116">
        <ele>298.2</ele>
        <time>2026-05-17T11:02:56.999Z</time>
      </trkpt>
      <trkpt lat="43.65386" lon="3.36115">
        <ele>298.1</ele>
        <time>2026-05-17T11:02:57.999Z</time>
      </trkpt>
      <trkpt lat="43.65385" lon="3.36115">
        <ele>298</ele>
        <time>2026-05-17T11:02:58.999Z</time>
      </trkpt>
      <trkpt lat="43.65385" lon="3.36115">
        <ele>297.9</ele>
        <time>2026-05-17T11:02:59.999Z</time>
      </trkpt>
      <trkpt lat="43.65385" lon="3.36115">
        <ele>297.8</ele>
        <time>2026-05-17T11:03:00.999Z</time>
      </trkpt>
      <trkpt lat="43.65386" lon="3.36115">
        <ele>297.8</ele>
        <time>2026-05-17T11:03:01.999Z</time>
      </trkpt>
      <trkpt lat="43.65386" lon="3.36115">
        <ele>297.9</ele>
        <time>2026-05-17T11:03:02.999Z</time>
      </trkpt>
      <trkpt lat="43.65386" lon="3.36115">
        <ele>297.9</ele>
        <time>2026-05-17T11:03:03.999Z</time>
      </trkpt>
      <trkpt lat="43.65386" lon="3.36115">
        <ele>297.9</ele>
        <time>2026-05-17T11:03:04.999Z</time>
      </trkpt>
      <trkpt lat="43.65386" lon="3.36115">
        <ele>297.8</ele>
        <time>2026-05-17T11:03:05.999Z</time>
      </trkpt>
      <trkpt lat="43.65386" lon="3.36115">
        <ele>297.7</ele>
        <time>2026-05-17T11:03:06.999Z</time>
      </trkpt>
      <trkpt lat="43.65386" lon="3.36115">
        <ele>297.6</ele>
        <time>2026-05-17T11:03:07.999Z</time>
      </trkpt>
      <trkpt lat="43.65386" lon="3.36115">
        <ele>297.6</ele>
        <time>2026-05-17T11:03:08.999Z</time>
      </trkpt>
      <trkpt lat="43.65386" lon="3.36115">
        <ele>297.6</ele>
        <time>2026-05-17T11:03:09.999Z</time>
      </trkpt>
      <trkpt lat="43.65386" lon="3.36115">
        <ele>297.5</ele>
        <time>2026-05-17T11:03:10.999Z</time>
      </trkpt>
      <trkpt lat="43.65386" lon="3.36115">
        <ele>297.4</ele>
        <time>2026-05-17T11:03:11.999Z</time>
      </trkpt>
      <trkpt lat="43.65386" lon="3.36115">
        <ele>297.4</ele>
        <time>2026-05-17T11:03:12.999Z</time>
      </trkpt>
      <trkpt lat="43.65386" lon="3.36115">
        <ele>297.4</ele>
        <time>2026-05-17T11:03:13.999Z</time>
      </trkpt>
      <trkpt lat="43.65386" lon="3.36115">
        <ele>297.5</ele>
        <time>2026-05-17T11:03:14.999Z</time>
      </trkpt>
      <trkpt lat="43.65386" lon="3.36115">
        <ele>297.6</ele>
        <time>2026-05-17T11:03:15.999Z</time>
      </trkpt>
      <trkpt lat="43.65386" lon="3.36115">
        <ele>297.6</ele>
        <time>2026-05-17T11:03:16.999Z</time>
      </trkpt>
      <trkpt lat="43.65386" lon="3.36115">
        <ele>297.5</ele>
        <time>2026-05-17T11:03:17.999Z</time>
      </trkpt>
      <trkpt lat="43.65386" lon="3.36115">
        <ele>297.5</ele>
        <time>2026-05-17T11:03:18.999Z</time>
      </trkpt>
      <trkpt lat="43.65386" lon="3.36115">
        <ele>297.5</ele>
        <time>2026-05-17T11:03:19.999Z</time>
      </trkpt>
      <trkpt lat="43.65386" lon="3.36115">
        <ele>297.4</ele>
        <time>2026-05-17T11:03:20.999Z</time>
      </trkpt>
      <trkpt lat="43.65386" lon="3.36115">
        <ele>297.3</ele>
        <time>2026-05-17T11:03:21.999Z</time>
      </trkpt>
      <trkpt lat="43.65386" lon="3.36115">
        <ele>297.2</ele>
        <time>2026-05-17T11:03:22.999Z</time>
      </trkpt>
      <trkpt lat="43.65386" lon="3.36115">
        <ele>297.1</ele>
        <time>2026-05-17T11:03:23.999Z</time>
      </trkpt>
      <trkpt lat="43.65386" lon="3.36115">
        <ele>296.9</ele>
        <time>2026-05-17T11:03:24.999Z</time>
      </trkpt>
      <trkpt lat="43.65386" lon="3.36115">
        <ele>296.9</ele>
        <time>2026-05-17T11:03:25.999Z</time>
      </trkpt>
      <trkpt lat="43.65386" lon="3.36115">
        <ele>296.9</ele>
        <time>2026-05-17T11:03:26.999Z</time>
      </trkpt>
      <trkpt lat="43.65386" lon="3.36115">
        <ele>296.8</ele>
        <time>2026-05-17T11:03:27.999Z</time>
      </trkpt>
      <trkpt lat="43.65386" lon="3.36115">
        <ele>296.9</ele>
        <time>2026-05-17T11:03:28.999Z</time>
      </trkpt>
      <trkpt lat="43.65386" lon="3.36115">
        <ele>297</ele>
        <time>2026-05-17T11:03:29.999Z</time>
      </trkpt>
      <trkpt lat="43.65386" lon="3.36115">
        <ele>297</ele>
        <time>2026-05-17T11:03:30.999Z</time>
      </trkpt>
      <trkpt lat="43.65386" lon="3.36115">
        <ele>297</ele>
        <time>2026-05-17T11:03:31.999Z</time>
      </trkpt>
      <trkpt lat="43.65386" lon="3.36115">
        <ele>297</ele>
        <time>2026-05-17T11:03:32.999Z</time>
      </trkpt>
      <trkpt lat="43.65386" lon="3.36115">
        <ele>297</ele>
        <time>2026-05-17T11:03:33.999Z</time>
      </trkpt>
      <trkpt lat="43.65386" lon="3.36115">
        <ele>297.1</ele>
        <time>2026-05-17T11:03:34.999Z</time>
      </trkpt>
      <trkpt lat="43.65386" lon="3.36115">
        <ele>297.2</ele>
        <time>2026-05-17T11:03:35.999Z</time>
      </trkpt>
      <trkpt lat="43.65386" lon="3.36115">
        <ele>297.2</ele>
        <time>2026-05-17T11:03:36.999Z</time>
      </trkpt>
      <trkpt lat="43.65386" lon="3.36115">
        <ele>297.2</ele>
        <time>2026-05-17T11:03:37.999Z</time>
      </trkpt>
      <trkpt lat="43.65386" lon="3.36115">
        <ele>297.3</ele>
        <time>2026-05-17T11:03:38.999Z</time>
      </trkpt>
      <trkpt lat="43.65386" lon="3.36115">
        <ele>297.3</ele>
        <time>2026-05-17T11:03:39.999Z</time>
      </trkpt>
      <trkpt lat="43.65386" lon="3.36115">
        <ele>297.3</ele>
        <time>2026-05-17T11:03:40.999Z</time>
      </trkpt>
      <trkpt lat="43.65386" lon="3.36115">
        <ele>297.2</ele>
        <time>2026-05-17T11:03:41.999Z</time>
      </trkpt>
      <trkpt lat="43.65385" lon="3.36114">
        <ele>297.4</ele>
        <time>2026-05-17T11:03:42.999Z</time>
      </trkpt>
      <trkpt lat="43.65385" lon="3.36113">
        <ele>297.3</ele>
        <time>2026-05-17T11:03:43.999Z</time>
      </trkpt>
      <trkpt lat="43.65385" lon="3.36113">
        <ele>297</ele>
        <time>2026-05-17T11:03:44.999Z</time>
      </trkpt>
      <trkpt lat="43.65385" lon="3.36113">
        <ele>296.7</ele>
        <time>2026-05-17T11:03:45.999Z</time>
      </trkpt>
      <trkpt lat="43.65385" lon="3.36113">
        <ele>296.8</ele>
        <time>2026-05-17T11:03:46.999Z</time>
      </trkpt>
      <trkpt lat="43.65385" lon="3.36113">
        <ele>296.7</ele>
        <time>2026-05-17T11:03:47.999Z</time>
      </trkpt>
      <trkpt lat="43.65385" lon="3.36113">
        <ele>296.7</ele>
        <time>2026-05-17T11:03:48.999Z</time>
      </trkpt>
      <trkpt lat="43.65385" lon="3.36113">
        <ele>296.7</ele>
        <time>2026-05-17T11:03:49.999Z</time>
      </trkpt>
      <trkpt lat="43.65385" lon="3.36113">
        <ele>296.7</ele>
        <time>2026-05-17T11:03:50.999Z</time>
      </trkpt>
      <trkpt lat="43.65385" lon="3.36113">
        <ele>296.7</ele>
        <time>2026-05-17T11:03:51.999Z</time>
      </trkpt>
      <trkpt lat="43.65385" lon="3.36114">
        <ele>296.5</ele>
        <time>2026-05-17T11:03:52.999Z</time>
      </trkpt>
      <trkpt lat="43.65385" lon="3.36114">
        <ele>296.5</ele>
        <time>2026-05-17T11:03:53.999Z</time>
      </trkpt>
      <trkpt lat="43.65384" lon="3.36114">
        <ele>296.5</ele>
        <time>2026-05-17T11:03:54.999Z</time>
      </trkpt>
      <trkpt lat="43.65384" lon="3.36114">
        <ele>296.6</ele>
        <time>2026-05-17T11:03:55.999Z</time>
      </trkpt>
      <trkpt lat="43.65384" lon="3.36113">
        <ele>296.5</ele>
        <time>2026-05-17T11:03:56.999Z</time>
      </trkpt>
      <trkpt lat="43.65384" lon="3.36113">
        <ele>296.5</ele>
        <time>2026-05-17T11:03:57.999Z</time>
      </trkpt>
      <trkpt lat="43.65385" lon="3.36114">
        <ele>296.6</ele>
        <time>2026-05-17T11:03:58.999Z</time>
      </trkpt>
      <trkpt lat="43.65386" lon="3.36113">
        <ele>296.5</ele>
        <time>2026-05-17T11:03:59.999Z</time>
      </trkpt>
      <trkpt lat="43.65386" lon="3.36113">
        <ele>296.5</ele>
        <time>2026-05-17T11:04:00.999Z</time>
      </trkpt>
      <trkpt lat="43.65386" lon="3.36113">
        <ele>296.6</ele>
        <time>2026-05-17T11:04:01.999Z</time>
      </trkpt>
      <trkpt lat="43.65386" lon="3.36113">
        <ele>296.6</ele>
        <time>2026-05-17T11:04:02.999Z</time>
      </trkpt>
      <trkpt lat="43.65387" lon="3.36113">
        <ele>296.5</ele>
        <time>2026-05-17T11:04:03.999Z</time>
      </trkpt>
      <trkpt lat="43.65387" lon="3.36113">
        <ele>296.4</ele>
        <time>2026-05-17T11:04:04.999Z</time>
      </trkpt>
      <trkpt lat="43.65387" lon="3.36113">
        <ele>296.5</ele>
        <time>2026-05-17T11:04:05.999Z</time>
      </trkpt>
      <trkpt lat="43.65387" lon="3.36113">
        <ele>296.5</ele>
        <time>2026-05-17T11:04:06.999Z</time>
      </trkpt>
      <trkpt lat="43.65387" lon="3.36113">
        <ele>296.4</ele>
        <time>2026-05-17T11:04:07.999Z</time>
      </trkpt>
      <trkpt lat="43.65387" lon="3.36113">
        <ele>296.5</ele>
        <time>2026-05-17T11:04:08.999Z</time>
      </trkpt>
      <trkpt lat="43.65387" lon="3.36113">
        <ele>296.5</ele>
        <time>2026-05-17T11:04:09.999Z</time>
      </trkpt>
      <trkpt lat="43.65387" lon="3.36113">
        <ele>296.6</ele>
        <time>2026-05-17T11:04:10.999Z</time>
      </trkpt>
      <trkpt lat="43.65386" lon="3.36114">
        <ele>296.4</ele>
        <time>2026-05-17T11:04:11.999Z</time>
      </trkpt>
      <trkpt lat="43.65386" lon="3.36114">
        <ele>296.3</ele>
        <time>2026-05-17T11:04:12.999Z</time>
      </trkpt>
      <trkpt lat="43.65386" lon="3.36114">
        <ele>296.1</ele>
        <time>2026-05-17T11:04:13.999Z</time>
      </trkpt>
      <trkpt lat="43.65386" lon="3.36114">
        <ele>296.1</ele>
        <time>2026-05-17T11:04:14.999Z</time>
      </trkpt>
      <trkpt lat="43.65386" lon="3.36114">
        <ele>296</ele>
        <time>2026-05-17T11:04:16.999Z</time>
      </trkpt>
      <trkpt lat="43.65386" lon="3.36114">
        <ele>296.2</ele>
        <time>2026-05-17T11:04:17.999Z</time>
      </trkpt>
      <trkpt lat="43.65386" lon="3.36114">
        <ele>296.2</ele>
        <time>2026-05-17T11:04:18.999Z</time>
      </trkpt>
      <trkpt lat="43.65386" lon="3.36114">
        <ele>295.4</ele>
        <time>2026-05-17T11:04:19.999Z</time>
      </trkpt>
      <trkpt lat="43.65386" lon="3.36114">
        <ele>295.1</ele>
        <time>2026-05-17T11:04:20.999Z</time>
      </trkpt>
      <trkpt lat="43.65386" lon="3.36114">
        <ele>295.4</ele>
        <time>2026-05-17T11:04:21.999Z</time>
      </trkpt>
      <trkpt lat="43.65386" lon="3.36114">
        <ele>295.6</ele>
        <time>2026-05-17T11:04:22.999Z</time>
      </trkpt>
      <trkpt lat="43.65386" lon="3.36114">
        <ele>295.7</ele>
        <time>2026-05-17T11:04:23.999Z</time>
      </trkpt>
      <trkpt lat="43.65386" lon="3.36114">
        <ele>295.6</ele>
        <time>2026-05-17T11:04:24.999Z</time>
      </trkpt>
      <trkpt lat="43.65386" lon="3.36114">
        <ele>295.5</ele>
        <time>2026-05-17T11:04:25.999Z</time>
      </trkpt>
      <trkpt lat="43.65386" lon="3.36114">
        <ele>295.5</ele>
        <time>2026-05-17T11:04:26.999Z</time>
      </trkpt>
      <trkpt lat="43.65386" lon="3.36114">
        <ele>295.4</ele>
        <time>2026-05-17T11:04:27.999Z</time>
      </trkpt>
      <trkpt lat="43.65386" lon="3.36114">
        <ele>295.4</ele>
        <time>2026-05-17T11:04:28.999Z</time>
      </trkpt>
      <trkpt lat="43.65386" lon="3.36114">
        <ele>295.4</ele>
        <time>2026-05-17T11:04:29.999Z</time>
      </trkpt>
      <trkpt lat="43.65386" lon="3.36114">
        <ele>295.4</ele>
        <time>2026-05-17T11:04:30.999Z</time>
      </trkpt>
      <trkpt lat="43.65386" lon="3.36114">
        <ele>295.4</ele>
        <time>2026-05-17T11:04:31.999Z</time>
      </trkpt>
      <trkpt lat="43.65386" lon="3.36114">
        <ele>295.3</ele>
        <time>2026-05-17T11:04:32.999Z</time>
      </trkpt>
      <trkpt lat="43.65386" lon="3.36114">
        <ele>295.3</ele>
        <time>2026-05-17T11:04:33.999Z</time>
      </trkpt>
      <trkpt lat="43.65386" lon="3.36114">
        <ele>295.4</ele>
        <time>2026-05-17T11:04:34.999Z</time>
      </trkpt>
      <trkpt lat="43.65386" lon="3.36114">
        <ele>295.5</ele>
        <time>2026-05-17T11:04:35.999Z</time>
      </trkpt>
      <trkpt lat="43.65386" lon="3.36114">
        <ele>295.6</ele>
        <time>2026-05-17T11:04:36.999Z</time>
      </trkpt>
      <trkpt lat="43.65386" lon="3.36114">
        <ele>295.7</ele>
        <time>2026-05-17T11:04:37.999Z</time>
      </trkpt>
      <trkpt lat="43.65386" lon="3.36114">
        <ele>295.8</ele>
        <time>2026-05-17T11:04:38.999Z</time>
      </trkpt>
      <trkpt lat="43.65386" lon="3.36114">
        <ele>296</ele>
        <time>2026-05-17T11:04:39.999Z</time>
      </trkpt>
      <trkpt lat="43.65386" lon="3.36114">
        <ele>296.2</ele>
        <time>2026-05-17T11:04:40.999Z</time>
      </trkpt>
      <trkpt lat="43.65386" lon="3.36114">
        <ele>296.5</ele>
        <time>2026-05-17T11:04:41.999Z</time>
      </trkpt>
      <trkpt lat="43.65386" lon="3.36114">
        <ele>296.8</ele>
        <time>2026-05-17T11:04:42.999Z</time>
      </trkpt>
      <trkpt lat="43.65386" lon="3.36114">
        <ele>297</ele>
        <time>2026-05-17T11:04:43.999Z</time>
      </trkpt>
      <trkpt lat="43.65386" lon="3.36114">
        <ele>297.1</ele>
        <time>2026-05-17T11:04:44.999Z</time>
      </trkpt>
      <trkpt lat="43.65386" lon="3.36114">
        <ele>297.1</ele>
        <time>2026-05-17T11:04:45.999Z</time>
      </trkpt>
      <trkpt lat="43.65386" lon="3.36114">
        <ele>297.1</ele>
        <time>2026-05-17T11:04:46.999Z</time>
      </trkpt>
      <trkpt lat="43.65386" lon="3.36114">
        <ele>297.1</ele>
        <time>2026-05-17T11:04:47.999Z</time>
      </trkpt>
      <trkpt lat="43.65386" lon="3.36114">
        <ele>297.1</ele>
        <time>2026-05-17T11:04:48.999Z</time>
      </trkpt>
      <trkpt lat="43.65386" lon="3.36114">
        <ele>297.1</ele>
        <time>2026-05-17T11:04:49.999Z</time>
      </trkpt>
      <trkpt lat="43.65386" lon="3.36114">
        <ele>297</ele>
        <time>2026-05-17T11:04:50.999Z</time>
      </trkpt>
      <trkpt lat="43.65386" lon="3.36114">
        <ele>297.1</ele>
        <time>2026-05-17T11:04:51.999Z</time>
      </trkpt>
      <trkpt lat="43.65386" lon="3.36114">
        <ele>297</ele>
        <time>2026-05-17T11:04:52.999Z</time>
      </trkpt>
      <trkpt lat="43.65386" lon="3.36114">
        <ele>296.9</ele>
        <time>2026-05-17T11:04:53.999Z</time>
      </trkpt>
      <trkpt lat="43.65385" lon="3.36113">
        <ele>296.7</ele>
        <time>2026-05-17T11:04:54.999Z</time>
      </trkpt>
      <trkpt lat="43.65385" lon="3.36113">
        <ele>296.7</ele>
        <time>2026-05-17T11:04:55.999Z</time>
      </trkpt>
      <trkpt lat="43.65385" lon="3.36113">
        <ele>296.7</ele>
        <time>2026-05-17T11:04:56.999Z</time>
      </trkpt>
      <trkpt lat="43.65384" lon="3.36113">
        <ele>296.6</ele>
        <time>2026-05-17T11:04:57.999Z</time>
      </trkpt>
      <trkpt lat="43.65384" lon="3.36113">
        <ele>296.6</ele>
        <time>2026-05-17T11:04:58.999Z</time>
      </trkpt>
      <trkpt lat="43.65384" lon="3.36113">
        <ele>296.6</ele>
        <time>2026-05-17T11:04:59.999Z</time>
      </trkpt>
      <trkpt lat="43.65384" lon="3.36114">
        <ele>296.6</ele>
        <time>2026-05-17T11:05:00.999Z</time>
      </trkpt>
      <trkpt lat="43.65384" lon="3.36114">
        <ele>296.6</ele>
        <time>2026-05-17T11:05:01.999Z</time>
      </trkpt>
      <trkpt lat="43.65384" lon="3.36114">
        <ele>296.7</ele>
        <time>2026-05-17T11:05:02.999Z</time>
      </trkpt>
      <trkpt lat="43.65384" lon="3.36114">
        <ele>296.7</ele>
        <time>2026-05-17T11:05:03.999Z</time>
      </trkpt>
      <trkpt lat="43.65384" lon="3.36114">
        <ele>296.9</ele>
        <time>2026-05-17T11:05:04.999Z</time>
      </trkpt>
      <trkpt lat="43.65384" lon="3.36114">
        <ele>297</ele>
        <time>2026-05-17T11:05:05.999Z</time>
      </trkpt>
      <trkpt lat="43.65384" lon="3.36114">
        <ele>297.1</ele>
        <time>2026-05-17T11:05:06.999Z</time>
      </trkpt>
      <trkpt lat="43.65384" lon="3.36114">
        <ele>297.3</ele>
        <time>2026-05-17T11:05:07.999Z</time>
      </trkpt>
      <trkpt lat="43.65384" lon="3.36114">
        <ele>297.4</ele>
        <time>2026-05-17T11:05:08.999Z</time>
      </trkpt>
      <trkpt lat="43.65384" lon="3.36114">
        <ele>297.6</ele>
        <time>2026-05-17T11:05:09.999Z</time>
      </trkpt>
      <trkpt lat="43.65384" lon="3.36114">
        <ele>297.6</ele>
        <time>2026-05-17T11:05:10.999Z</time>
      </trkpt>
      <trkpt lat="43.65384" lon="3.36114">
        <ele>297.7</ele>
        <time>2026-05-17T11:05:11.999Z</time>
      </trkpt>
      <trkpt lat="43.65384" lon="3.36114">
        <ele>297.7</ele>
        <time>2026-05-17T11:05:12.999Z</time>
      </trkpt>
      <trkpt lat="43.65384" lon="3.36114">
        <ele>297.8</ele>
        <time>2026-05-17T11:05:13.999Z</time>
      </trkpt>
      <trkpt lat="43.65384" lon="3.36114">
        <ele>297.8</ele>
        <time>2026-05-17T11:05:14.999Z</time>
      </trkpt>
      <trkpt lat="43.65384" lon="3.36114">
        <ele>297.8</ele>
        <time>2026-05-17T11:05:15.999Z</time>
      </trkpt>
      <trkpt lat="43.65384" lon="3.36114">
        <ele>297.8</ele>
        <time>2026-05-17T11:05:16.999Z</time>
      </trkpt>
      <trkpt lat="43.65384" lon="3.36114">
        <ele>297.7</ele>
        <time>2026-05-17T11:05:17.999Z</time>
      </trkpt>
      <trkpt lat="43.65384" lon="3.36114">
        <ele>297.8</ele>
        <time>2026-05-17T11:05:18.999Z</time>
      </trkpt>
      <trkpt lat="43.65384" lon="3.36114">
        <ele>297.9</ele>
        <time>2026-05-17T11:05:19.999Z</time>
      </trkpt>
      <trkpt lat="43.65384" lon="3.36114">
        <ele>298</ele>
        <time>2026-05-17T11:05:20.999Z</time>
      </trkpt>
      <trkpt lat="43.65384" lon="3.36114">
        <ele>298.1</ele>
        <time>2026-05-17T11:05:21.999Z</time>
      </trkpt>
      <trkpt lat="43.65384" lon="3.36114">
        <ele>298.1</ele>
        <time>2026-05-17T11:05:22.999Z</time>
      </trkpt>
      <trkpt lat="43.65384" lon="3.36114">
        <ele>298.1</ele>
        <time>2026-05-17T11:05:23.999Z</time>
      </trkpt>
      <trkpt lat="43.65384" lon="3.36114">
        <ele>298.2</ele>
        <time>2026-05-17T11:05:24.999Z</time>
      </trkpt>
      <trkpt lat="43.65384" lon="3.36114">
        <ele>298.4</ele>
        <time>2026-05-17T11:05:25.999Z</time>
      </trkpt>
      <trkpt lat="43.65384" lon="3.36114">
        <ele>298.4</ele>
        <time>2026-05-17T11:05:26.999Z</time>
      </trkpt>
      <trkpt lat="43.65384" lon="3.36114">
        <ele>298.4</ele>
        <time>2026-05-17T11:05:27.999Z</time>
      </trkpt>
      <trkpt lat="43.65384" lon="3.36114">
        <ele>298.4</ele>
        <time>2026-05-17T11:05:28.999Z</time>
      </trkpt>
      <trkpt lat="43.65384" lon="3.36114">
        <ele>298.5</ele>
        <time>2026-05-17T11:05:29.999Z</time>
      </trkpt>
      <trkpt lat="43.65384" lon="3.36114">
        <ele>298.7</ele>
        <time>2026-05-17T11:05:30.999Z</time>
      </trkpt>
      <trkpt lat="43.65384" lon="3.36114">
        <ele>298.7</ele>
        <time>2026-05-17T11:05:31.999Z</time>
      </trkpt>
      <trkpt lat="43.65384" lon="3.36114">
        <ele>298.7</ele>
        <time>2026-05-17T11:05:32.999Z</time>
      </trkpt>
      <trkpt lat="43.65384" lon="3.36114">
        <ele>298.8</ele>
        <time>2026-05-17T11:05:33.999Z</time>
      </trkpt>
      <trkpt lat="43.65384" lon="3.36114">
        <ele>298.8</ele>
        <time>2026-05-17T11:05:34.999Z</time>
      </trkpt>
      <trkpt lat="43.65384" lon="3.36114">
        <ele>298.9</ele>
        <time>2026-05-17T11:05:35.999Z</time>
      </trkpt>
      <trkpt lat="43.65384" lon="3.36114">
        <ele>298.9</ele>
        <time>2026-05-17T11:05:36.999Z</time>
      </trkpt>
      <trkpt lat="43.65384" lon="3.36114">
        <ele>299</ele>
        <time>2026-05-17T11:05:37.999Z</time>
      </trkpt>
      <trkpt lat="43.65384" lon="3.36114">
        <ele>299</ele>
        <time>2026-05-17T11:05:38.999Z</time>
      </trkpt>
      <trkpt lat="43.65384" lon="3.36114">
        <ele>299.1</ele>
        <time>2026-05-17T11:05:39.999Z</time>
      </trkpt>
      <trkpt lat="43.65384" lon="3.36114">
        <ele>299.1</ele>
        <time>2026-05-17T11:05:40.999Z</time>
      </trkpt>
      <trkpt lat="43.65384" lon="3.36114">
        <ele>299</ele>
        <time>2026-05-17T11:05:41.999Z</time>
      </trkpt>
      <trkpt lat="43.65384" lon="3.36114">
        <ele>299</ele>
        <time>2026-05-17T11:05:42.999Z</time>
      </trkpt>
      <trkpt lat="43.65384" lon="3.36114">
        <ele>299</ele>
        <time>2026-05-17T11:05:43.999Z</time>
      </trkpt>
      <trkpt lat="43.65384" lon="3.36114">
        <ele>299</ele>
        <time>2026-05-17T11:05:44.999Z</time>
      </trkpt>
      <trkpt lat="43.65384" lon="3.36114">
        <ele>299.1</ele>
        <time>2026-05-17T11:05:45.999Z</time>
      </trkpt>
      <trkpt lat="43.65384" lon="3.36114">
        <ele>299</ele>
        <time>2026-05-17T11:05:46.999Z</time>
      </trkpt>
      <trkpt lat="43.65384" lon="3.36114">
        <ele>299</ele>
        <time>2026-05-17T11:05:47.999Z</time>
      </trkpt>
      <trkpt lat="43.65384" lon="3.36114">
        <ele>298.9</ele>
        <time>2026-05-17T11:05:48.999Z</time>
      </trkpt>
      <trkpt lat="43.65384" lon="3.36114">
        <ele>298.9</ele>
        <time>2026-05-17T11:05:49.999Z</time>
      </trkpt>
      <trkpt lat="43.65384" lon="3.36114">
        <ele>298.8</ele>
        <time>2026-05-17T11:05:50.999Z</time>
      </trkpt>
      <trkpt lat="43.65384" lon="3.36114">
        <ele>298.8</ele>
        <time>2026-05-17T11:05:51.999Z</time>
      </trkpt>
      <trkpt lat="43.65384" lon="3.36114">
        <ele>298.9</ele>
        <time>2026-05-17T11:05:52.999Z</time>
      </trkpt>
      <trkpt lat="43.65384" lon="3.36113">
        <ele>299</ele>
        <time>2026-05-17T11:05:53.999Z</time>
      </trkpt>
      <trkpt lat="43.65384" lon="3.36113">
        <ele>299.1</ele>
        <time>2026-05-17T11:05:54.999Z</time>
      </trkpt>
      <trkpt lat="43.65384" lon="3.36114">
        <ele>299.1</ele>
        <time>2026-05-17T11:05:55.999Z</time>
      </trkpt>
      <trkpt lat="43.65384" lon="3.36114">
        <ele>299.2</ele>
        <time>2026-05-17T11:05:56.999Z</time>
      </trkpt>
      <trkpt lat="43.65384" lon="3.36114">
        <ele>299.3</ele>
        <time>2026-05-17T11:05:57.999Z</time>
      </trkpt>
      <trkpt lat="43.65384" lon="3.36114">
        <ele>299.3</ele>
        <time>2026-05-17T11:05:58.999Z</time>
      </trkpt>
      <trkpt lat="43.65384" lon="3.36114">
        <ele>299.2</ele>
        <time>2026-05-17T11:06:00.999Z</time>
      </trkpt>
      <trkpt lat="43.65384" lon="3.36114">
        <ele>299.1</ele>
        <time>2026-05-17T11:06:01.999Z</time>
      </trkpt>
      <trkpt lat="43.65384" lon="3.36114">
        <ele>298.8</ele>
        <time>2026-05-17T11:06:02.999Z</time>
      </trkpt>
      <trkpt lat="43.65384" lon="3.36114">
        <ele>298.8</ele>
        <time>2026-05-17T11:06:03.999Z</time>
      </trkpt>
      <trkpt lat="43.65384" lon="3.36114">
        <ele>299</ele>
        <time>2026-05-17T11:06:04.999Z</time>
      </trkpt>
      <trkpt lat="43.65384" lon="3.36114">
        <ele>299.1</ele>
        <time>2026-05-17T11:06:05.999Z</time>
      </trkpt>
      <trkpt lat="43.65384" lon="3.36114">
        <ele>299.1</ele>
        <time>2026-05-17T11:06:06.999Z</time>
      </trkpt>
      <trkpt lat="43.65384" lon="3.36114">
        <ele>299.1</ele>
        <time>2026-05-17T11:06:07.999Z</time>
      </trkpt>
      <trkpt lat="43.65384" lon="3.36114">
        <ele>299.3</ele>
        <time>2026-05-17T11:06:08.999Z</time>
      </trkpt>
      <trkpt lat="43.65384" lon="3.36114">
        <ele>299.3</ele>
        <time>2026-05-17T11:06:09.999Z</time>
      </trkpt>
      <trkpt lat="43.65384" lon="3.36114">
        <ele>299.3</ele>
        <time>2026-05-17T11:06:10.999Z</time>
      </trkpt>
      <trkpt lat="43.65384" lon="3.36113">
        <ele>299.4</ele>
        <time>2026-05-17T11:06:11.999Z</time>
      </trkpt>
      <trkpt lat="43.65384" lon="3.36113">
        <ele>299.5</ele>
        <time>2026-05-17T11:06:12.999Z</time>
      </trkpt>
      <trkpt lat="43.65384" lon="3.36113">
        <ele>299.5</ele>
        <time>2026-05-17T11:06:13.999Z</time>
      </trkpt>
      <trkpt lat="43.65384" lon="3.36113">
        <ele>299.6</ele>
        <time>2026-05-17T11:06:14.999Z</time>
      </trkpt>
      <trkpt lat="43.65384" lon="3.36113">
        <ele>299.7</ele>
        <time>2026-05-17T11:06:15.999Z</time>
      </trkpt>
      <trkpt lat="43.65384" lon="3.36113">
        <ele>299.8</ele>
        <time>2026-05-17T11:06:16.999Z</time>
      </trkpt>
      <trkpt lat="43.65384" lon="3.36113">
        <ele>299.9</ele>
        <time>2026-05-17T11:06:17.999Z</time>
      </trkpt>
      <trkpt lat="43.65384" lon="3.36113">
        <ele>299.9</ele>
        <time>2026-05-17T11:06:18.999Z</time>
      </trkpt>
      <trkpt lat="43.65385" lon="3.36113">
        <ele>299.9</ele>
        <time>2026-05-17T11:06:20.999Z</time>
      </trkpt>
      <trkpt lat="43.65385" lon="3.36113">
        <ele>300</ele>
        <time>2026-05-17T11:06:21.999Z</time>
      </trkpt>
      <trkpt lat="43.65385" lon="3.36113">
        <ele>299.8</ele>
        <time>2026-05-17T11:06:22.999Z</time>
      </trkpt>
      <trkpt lat="43.65385" lon="3.36113">
        <ele>299.8</ele>
        <time>2026-05-17T11:06:23.999Z</time>
      </trkpt>
      <trkpt lat="43.65385" lon="3.36113">
        <ele>299.7</ele>
        <time>2026-05-17T11:06:24.999Z</time>
      </trkpt>
      <trkpt lat="43.65385" lon="3.36113">
        <ele>299.6</ele>
        <time>2026-05-17T11:06:25.999Z</time>
      </trkpt>
      <trkpt lat="43.65385" lon="3.36113">
        <ele>299.6</ele>
        <time>2026-05-17T11:06:26.999Z</time>
      </trkpt>
      <trkpt lat="43.65385" lon="3.36113">
        <ele>299.6</ele>
        <time>2026-05-17T11:06:27.999Z</time>
      </trkpt>
      <trkpt lat="43.65384" lon="3.36113">
        <ele>299.8</ele>
        <time>2026-05-17T11:06:29.999Z</time>
      </trkpt>
      <trkpt lat="43.65383" lon="3.36112">
        <ele>299.8</ele>
        <time>2026-05-17T11:06:30.999Z</time>
      </trkpt>
      <trkpt lat="43.65383" lon="3.36112">
        <ele>299.7</ele>
        <time>2026-05-17T11:06:31.999Z</time>
      </trkpt>
      <trkpt lat="43.65383" lon="3.36112">
        <ele>299.5</ele>
        <time>2026-05-17T11:06:32.999Z</time>
      </trkpt>
      <trkpt lat="43.65383" lon="3.36112">
        <ele>299.6</ele>
        <time>2026-05-17T11:06:33.999Z</time>
      </trkpt>
      <trkpt lat="43.65383" lon="3.36112">
        <ele>299.5</ele>
        <time>2026-05-17T11:06:34.999Z</time>
      </trkpt>
      <trkpt lat="43.65383" lon="3.36112">
        <ele>299.1</ele>
        <time>2026-05-17T11:06:35.999Z</time>
      </trkpt>
      <trkpt lat="43.65383" lon="3.36112">
        <ele>298.8</ele>
        <time>2026-05-17T11:06:36.999Z</time>
      </trkpt>
      <trkpt lat="43.65383" lon="3.36112">
        <ele>298.6</ele>
        <time>2026-05-17T11:06:38.999Z</time>
      </trkpt>
      <trkpt lat="43.65383" lon="3.36112">
        <ele>298.7</ele>
        <time>2026-05-17T11:06:39.999Z</time>
      </trkpt>
      <trkpt lat="43.65383" lon="3.36112">
        <ele>298.6</ele>
        <time>2026-05-17T11:06:40.999Z</time>
      </trkpt>
      <trkpt lat="43.65383" lon="3.36112">
        <ele>298.4</ele>
        <time>2026-05-17T11:06:41.999Z</time>
      </trkpt>
      <trkpt lat="43.65383" lon="3.36112">
        <ele>298.5</ele>
        <time>2026-05-17T11:06:42.999Z</time>
      </trkpt>
      <trkpt lat="43.65383" lon="3.36112">
        <ele>298.6</ele>
        <time>2026-05-17T11:06:43.999Z</time>
      </trkpt>
      <trkpt lat="43.65383" lon="3.36112">
        <ele>298.6</ele>
        <time>2026-05-17T11:06:44.999Z</time>
      </trkpt>
      <trkpt lat="43.65383" lon="3.36112">
        <ele>298.6</ele>
        <time>2026-05-17T11:06:45.999Z</time>
      </trkpt>
      <trkpt lat="43.65384" lon="3.36112">
        <ele>298.5</ele>
        <time>2026-05-17T11:06:46.999Z</time>
      </trkpt>
      <trkpt lat="43.65385" lon="3.36112">
        <ele>298.6</ele>
        <time>2026-05-17T11:06:47.999Z</time>
      </trkpt>
      <trkpt lat="43.65385" lon="3.36112">
        <ele>298.6</ele>
        <time>2026-05-17T11:06:48.999Z</time>
      </trkpt>
      <trkpt lat="43.65386" lon="3.36113">
        <ele>298.6</ele>
        <time>2026-05-17T11:06:49.999Z</time>
      </trkpt>
      <trkpt lat="43.65386" lon="3.36113">
        <ele>298.6</ele>
        <time>2026-05-17T11:06:50.999Z</time>
      </trkpt>
      <trkpt lat="43.65386" lon="3.36114">
        <ele>298.7</ele>
        <time>2026-05-17T11:06:51.999Z</time>
      </trkpt>
      <trkpt lat="43.65387" lon="3.36114">
        <ele>298.7</ele>
        <time>2026-05-17T11:06:52.999Z</time>
      </trkpt>
      <trkpt lat="43.65387" lon="3.36115">
        <ele>298.7</ele>
        <time>2026-05-17T11:06:53.999Z</time>
      </trkpt>
      <trkpt lat="43.65387" lon="3.36115">
        <ele>298.6</ele>
        <time>2026-05-17T11:06:54.999Z</time>
      </trkpt>
      <trkpt lat="43.65387" lon="3.36115">
        <ele>298.5</ele>
        <time>2026-05-17T11:06:55.999Z</time>
      </trkpt>
      <trkpt lat="43.65387" lon="3.36115">
        <ele>298.4</ele>
        <time>2026-05-17T11:06:56.999Z</time>
      </trkpt>
      <trkpt lat="43.65387" lon="3.36115">
        <ele>298.3</ele>
        <time>2026-05-17T11:06:57.999Z</time>
      </trkpt>
      <trkpt lat="43.65387" lon="3.36115">
        <ele>298.2</ele>
        <time>2026-05-17T11:06:58.999Z</time>
      </trkpt>
      <trkpt lat="43.65387" lon="3.36115">
        <ele>298.1</ele>
        <time>2026-05-17T11:06:59.999Z</time>
      </trkpt>
      <trkpt lat="43.65388" lon="3.36115">
        <ele>298</ele>
        <time>2026-05-17T11:07:00.999Z</time>
      </trkpt>
      <trkpt lat="43.65388" lon="3.36115">
        <ele>298.1</ele>
        <time>2026-05-17T11:07:01.999Z</time>
      </trkpt>
      <trkpt lat="43.65389" lon="3.36116">
        <ele>298.1</ele>
        <time>2026-05-17T11:07:02.999Z</time>
      </trkpt>
      <trkpt lat="43.65389" lon="3.36116">
        <ele>298.1</ele>
        <time>2026-05-17T11:07:03.999Z</time>
      </trkpt>
      <trkpt lat="43.65389" lon="3.36116">
        <ele>298</ele>
        <time>2026-05-17T11:07:04.999Z</time>
      </trkpt>
      <trkpt lat="43.65389" lon="3.36115">
        <ele>298</ele>
        <time>2026-05-17T11:07:05.999Z</time>
      </trkpt>
      <trkpt lat="43.6539" lon="3.36115">
        <ele>297.9</ele>
        <time>2026-05-17T11:07:06.999Z</time>
      </trkpt>
      <trkpt lat="43.6539" lon="3.36115">
        <ele>297.8</ele>
        <time>2026-05-17T11:07:07.999Z</time>
      </trkpt>
      <trkpt lat="43.6539" lon="3.36115">
        <ele>297.7</ele>
        <time>2026-05-17T11:07:08.999Z</time>
      </trkpt>
      <trkpt lat="43.6539" lon="3.36115">
        <ele>297.6</ele>
        <time>2026-05-17T11:07:09.999Z</time>
      </trkpt>
      <trkpt lat="43.65389" lon="3.36115">
        <ele>297.6</ele>
        <time>2026-05-17T11:07:10.999Z</time>
      </trkpt>
      <trkpt lat="43.65389" lon="3.36115">
        <ele>297.6</ele>
        <time>2026-05-17T11:07:11.999Z</time>
      </trkpt>
      <trkpt lat="43.65388" lon="3.36115">
        <ele>297.5</ele>
        <time>2026-05-17T11:07:12.999Z</time>
      </trkpt>
      <trkpt lat="43.65388" lon="3.36115">
        <ele>297.4</ele>
        <time>2026-05-17T11:07:13.999Z</time>
      </trkpt>
      <trkpt lat="43.65388" lon="3.36115">
        <ele>297.4</ele>
        <time>2026-05-17T11:07:14.999Z</time>
      </trkpt>
      <trkpt lat="43.65388" lon="3.36115">
        <ele>297.4</ele>
        <time>2026-05-17T11:07:15.999Z</time>
      </trkpt>
      <trkpt lat="43.65388" lon="3.36115">
        <ele>297.4</ele>
        <time>2026-05-17T11:07:16.999Z</time>
      </trkpt>
      <trkpt lat="43.65388" lon="3.36115">
        <ele>297.3</ele>
        <time>2026-05-17T11:07:17.999Z</time>
      </trkpt>
      <trkpt lat="43.65388" lon="3.36115">
        <ele>297.3</ele>
        <time>2026-05-17T11:07:18.999Z</time>
      </trkpt>
      <trkpt lat="43.65388" lon="3.36115">
        <ele>297.3</ele>
        <time>2026-05-17T11:07:19.999Z</time>
      </trkpt>
      <trkpt lat="43.65388" lon="3.36114">
        <ele>297.3</ele>
        <time>2026-05-17T11:07:20.999Z</time>
      </trkpt>
      <trkpt lat="43.65388" lon="3.36114">
        <ele>297.4</ele>
        <time>2026-05-17T11:07:21.999Z</time>
      </trkpt>
      <trkpt lat="43.65388" lon="3.36114">
        <ele>297.4</ele>
        <time>2026-05-17T11:07:22.999Z</time>
      </trkpt>
      <trkpt lat="43.65388" lon="3.36114">
        <ele>297.3</ele>
        <time>2026-05-17T11:07:23.999Z</time>
      </trkpt>
      <trkpt lat="43.65388" lon="3.36114">
        <ele>297.3</ele>
        <time>2026-05-17T11:07:24.999Z</time>
      </trkpt>
      <trkpt lat="43.65388" lon="3.36114">
        <ele>297.3</ele>
        <time>2026-05-17T11:07:25.999Z</time>
      </trkpt>
      <trkpt lat="43.65388" lon="3.36114">
        <ele>297.3</ele>
        <time>2026-05-17T11:07:26.999Z</time>
      </trkpt>
      <trkpt lat="43.65388" lon="3.36114">
        <ele>297.2</ele>
        <time>2026-05-17T11:07:27.999Z</time>
      </trkpt>
      <trkpt lat="43.65388" lon="3.36114">
        <ele>297.2</ele>
        <time>2026-05-17T11:07:28.999Z</time>
      </trkpt>
      <trkpt lat="43.65387" lon="3.36114">
        <ele>297.2</ele>
        <time>2026-05-17T11:07:29.999Z</time>
      </trkpt>
      <trkpt lat="43.65387" lon="3.36115">
        <ele>297.2</ele>
        <time>2026-05-17T11:07:30.999Z</time>
      </trkpt>
      <trkpt lat="43.65387" lon="3.36114">
        <ele>297.2</ele>
        <time>2026-05-17T11:07:31.999Z</time>
      </trkpt>
      <trkpt lat="43.65387" lon="3.36114">
        <ele>297.1</ele>
        <time>2026-05-17T11:07:32.999Z</time>
      </trkpt>
      <trkpt lat="43.65387" lon="3.36114">
        <ele>297</ele>
        <time>2026-05-17T11:07:33.999Z</time>
      </trkpt>
      <trkpt lat="43.65387" lon="3.36114">
        <ele>297</ele>
        <time>2026-05-17T11:07:34.999Z</time>
      </trkpt>
      <trkpt lat="43.65387" lon="3.36114">
        <ele>297</ele>
        <time>2026-05-17T11:07:35.999Z</time>
      </trkpt>
      <trkpt lat="43.65387" lon="3.36114">
        <ele>297.1</ele>
        <time>2026-05-17T11:07:36.999Z</time>
      </trkpt>
      <trkpt lat="43.65387" lon="3.36114">
        <ele>297.1</ele>
        <time>2026-05-17T11:07:37.999Z</time>
      </trkpt>
      <trkpt lat="43.65387" lon="3.36114">
        <ele>297.1</ele>
        <time>2026-05-17T11:07:38.999Z</time>
      </trkpt>
      <trkpt lat="43.65387" lon="3.36114">
        <ele>297.1</ele>
        <time>2026-05-17T11:07:39.999Z</time>
      </trkpt>
      <trkpt lat="43.65387" lon="3.36115">
        <ele>297.2</ele>
        <time>2026-05-17T11:07:40.999Z</time>
      </trkpt>
      <trkpt lat="43.65387" lon="3.36115">
        <ele>297.5</ele>
        <time>2026-05-17T11:07:41.999Z</time>
      </trkpt>
      <trkpt lat="43.65387" lon="3.36115">
        <ele>297.6</ele>
        <time>2026-05-17T11:07:42.999Z</time>
      </trkpt>
      <trkpt lat="43.65387" lon="3.36115">
        <ele>297.6</ele>
        <time>2026-05-17T11:07:43.999Z</time>
      </trkpt>
      <trkpt lat="43.65387" lon="3.36115">
        <ele>297.6</ele>
        <time>2026-05-17T11:07:44.999Z</time>
      </trkpt>
      <trkpt lat="43.65387" lon="3.36115">
        <ele>297.8</ele>
        <time>2026-05-17T11:07:45.999Z</time>
      </trkpt>
      <trkpt lat="43.65387" lon="3.36115">
        <ele>297.9</ele>
        <time>2026-05-17T11:07:46.999Z</time>
      </trkpt>
      <trkpt lat="43.65387" lon="3.36115">
        <ele>298</ele>
        <time>2026-05-17T11:07:47.999Z</time>
      </trkpt>
      <trkpt lat="43.65387" lon="3.36115">
        <ele>298.1</ele>
        <time>2026-05-17T11:07:48.999Z</time>
      </trkpt>
      <trkpt lat="43.65387" lon="3.36115">
        <ele>298.1</ele>
        <time>2026-05-17T11:07:49.999Z</time>
      </trkpt>
      <trkpt lat="43.65387" lon="3.36115">
        <ele>298.1</ele>
        <time>2026-05-17T11:07:50.999Z</time>
      </trkpt>
      <trkpt lat="43.65387" lon="3.36115">
        <ele>298</ele>
        <time>2026-05-17T11:07:51.999Z</time>
      </trkpt>
      <trkpt lat="43.65387" lon="3.36115">
        <ele>298</ele>
        <time>2026-05-17T11:07:52.999Z</time>
      </trkpt>
      <trkpt lat="43.65387" lon="3.36115">
        <ele>298</ele>
        <time>2026-05-17T11:07:53.999Z</time>
      </trkpt>
      <trkpt lat="43.65386" lon="3.36115">
        <ele>298</ele>
        <time>2026-05-17T11:07:54.999Z</time>
      </trkpt>
      <trkpt lat="43.65386" lon="3.36115">
        <ele>298</ele>
        <time>2026-05-17T11:07:55.999Z</time>
      </trkpt>
      <trkpt lat="43.65386" lon="3.36115">
        <ele>298.1</ele>
        <time>2026-05-17T11:07:56.999Z</time>
      </trkpt>
      <trkpt lat="43.65386" lon="3.36115">
        <ele>298</ele>
        <time>2026-05-17T11:07:57.999Z</time>
      </trkpt>
      <trkpt lat="43.65386" lon="3.36115">
        <ele>298</ele>
        <time>2026-05-17T11:07:58.999Z</time>
      </trkpt>
      <trkpt lat="43.65386" lon="3.36115">
        <ele>298</ele>
        <time>2026-05-17T11:07:59.999Z</time>
      </trkpt>
      <trkpt lat="43.65386" lon="3.36115">
        <ele>298</ele>
        <time>2026-05-17T11:08:00.999Z</time>
      </trkpt>
      <trkpt lat="43.65386" lon="3.36115">
        <ele>298</ele>
        <time>2026-05-17T11:08:01.999Z</time>
      </trkpt>
      <trkpt lat="43.65386" lon="3.36115">
        <ele>297.9</ele>
        <time>2026-05-17T11:08:02.999Z</time>
      </trkpt>
      <trkpt lat="43.65386" lon="3.36115">
        <ele>298</ele>
        <time>2026-05-17T11:08:03.999Z</time>
      </trkpt>
      <trkpt lat="43.65386" lon="3.36115">
        <ele>298</ele>
        <time>2026-05-17T11:08:04.999Z</time>
      </trkpt>
      <trkpt lat="43.65386" lon="3.36115">
        <ele>298.1</ele>
        <time>2026-05-17T11:08:05.999Z</time>
      </trkpt>
      <trkpt lat="43.65386" lon="3.36115">
        <ele>298.1</ele>
        <time>2026-05-17T11:08:06.999Z</time>
      </trkpt>
      <trkpt lat="43.65386" lon="3.36115">
        <ele>298.1</ele>
        <time>2026-05-17T11:08:07.999Z</time>
      </trkpt>
      <trkpt lat="43.65386" lon="3.36115">
        <ele>298.1</ele>
        <time>2026-05-17T11:08:08.999Z</time>
      </trkpt>
      <trkpt lat="43.65386" lon="3.36115">
        <ele>298</ele>
        <time>2026-05-17T11:08:09.999Z</time>
      </trkpt>
      <trkpt lat="43.65386" lon="3.36115">
        <ele>298.1</ele>
        <time>2026-05-17T11:08:10.999Z</time>
      </trkpt>
      <trkpt lat="43.65386" lon="3.36115">
        <ele>298.2</ele>
        <time>2026-05-17T11:08:11.999Z</time>
      </trkpt>
      <trkpt lat="43.65386" lon="3.36115">
        <ele>298.3</ele>
        <time>2026-05-17T11:08:12.999Z</time>
      </trkpt>
      <trkpt lat="43.65386" lon="3.36115">
        <ele>298.4</ele>
        <time>2026-05-17T11:08:13.999Z</time>
      </trkpt>
      <trkpt lat="43.65386" lon="3.36115">
        <ele>298.5</ele>
        <time>2026-05-17T11:08:14.999Z</time>
      </trkpt>
      <trkpt lat="43.65386" lon="3.36115">
        <ele>298.5</ele>
        <time>2026-05-17T11:08:15.999Z</time>
      </trkpt>
      <trkpt lat="43.65386" lon="3.36115">
        <ele>298.6</ele>
        <time>2026-05-17T11:08:16.999Z</time>
      </trkpt>
      <trkpt lat="43.65386" lon="3.36115">
        <ele>298.7</ele>
        <time>2026-05-17T11:08:17.999Z</time>
      </trkpt>
      <trkpt lat="43.65386" lon="3.36115">
        <ele>298.8</ele>
        <time>2026-05-17T11:08:18.999Z</time>
      </trkpt>
      <trkpt lat="43.65386" lon="3.36115">
        <ele>298.8</ele>
        <time>2026-05-17T11:08:19.999Z</time>
      </trkpt>
      <trkpt lat="43.65386" lon="3.36115">
        <ele>298.8</ele>
        <time>2026-05-17T11:08:20.999Z</time>
      </trkpt>
      <trkpt lat="43.65386" lon="3.36115">
        <ele>298.8</ele>
        <time>2026-05-17T11:08:21.999Z</time>
      </trkpt>
      <trkpt lat="43.65386" lon="3.36115">
        <ele>298.8</ele>
        <time>2026-05-17T11:08:22.999Z</time>
      </trkpt>
      <trkpt lat="43.65386" lon="3.36115">
        <ele>298.8</ele>
        <time>2026-05-17T11:08:23.999Z</time>
      </trkpt>
      <trkpt lat="43.65386" lon="3.36115">
        <ele>298.8</ele>
        <time>2026-05-17T11:08:24.999Z</time>
      </trkpt>
      <trkpt lat="43.65386" lon="3.36115">
        <ele>298.8</ele>
        <time>2026-05-17T11:08:25.999Z</time>
      </trkpt>
      <trkpt lat="43.65386" lon="3.36115">
        <ele>298.7</ele>
        <time>2026-05-17T11:08:26.999Z</time>
      </trkpt>
      <trkpt lat="43.65386" lon="3.36115">
        <ele>298.7</ele>
        <time>2026-05-17T11:08:27.999Z</time>
      </trkpt>
      <trkpt lat="43.65386" lon="3.36115">
        <ele>298.7</ele>
        <time>2026-05-17T11:08:28.999Z</time>
      </trkpt>
      <trkpt lat="43.65386" lon="3.36115">
        <ele>298.7</ele>
        <time>2026-05-17T11:08:29.999Z</time>
      </trkpt>
      <trkpt lat="43.65386" lon="3.36115">
        <ele>298.7</ele>
        <time>2026-05-17T11:08:30.999Z</time>
      </trkpt>
      <trkpt lat="43.65386" lon="3.36115">
        <ele>298.7</ele>
        <time>2026-05-17T11:08:31.999Z</time>
      </trkpt>
      <trkpt lat="43.65386" lon="3.36114">
        <ele>298.7</ele>
        <time>2026-05-17T11:08:32.999Z</time>
      </trkpt>
      <trkpt lat="43.65385" lon="3.36114">
        <ele>298.6</ele>
        <time>2026-05-17T11:08:33.999Z</time>
      </trkpt>
      <trkpt lat="43.65385" lon="3.36113">
        <ele>298.5</ele>
        <time>2026-05-17T11:08:34.999Z</time>
      </trkpt>
      <trkpt lat="43.65385" lon="3.36113">
        <ele>298.5</ele>
        <time>2026-05-17T11:08:35.999Z</time>
      </trkpt>
      <trkpt lat="43.65384" lon="3.36112">
        <ele>298.5</ele>
        <time>2026-05-17T11:08:36.999Z</time>
      </trkpt>
      <trkpt lat="43.65384" lon="3.36112">
        <ele>298.5</ele>
        <time>2026-05-17T11:08:37.999Z</time>
      </trkpt>
      <trkpt lat="43.65385" lon="3.36112">
        <ele>298.5</ele>
        <time>2026-05-17T11:08:38.999Z</time>
      </trkpt>
      <trkpt lat="43.65385" lon="3.36112">
        <ele>298.6</ele>
        <time>2026-05-17T11:08:39.999Z</time>
      </trkpt>
      <trkpt lat="43.65385" lon="3.36113">
        <ele>298.7</ele>
        <time>2026-05-17T11:08:40.999Z</time>
      </trkpt>
      <trkpt lat="43.65385" lon="3.36113">
        <ele>298.8</ele>
        <time>2026-05-17T11:08:41.999Z</time>
      </trkpt>
      <trkpt lat="43.65385" lon="3.36112">
        <ele>298.8</ele>
        <time>2026-05-17T11:08:42.999Z</time>
      </trkpt>
      <trkpt lat="43.65385" lon="3.36112">
        <ele>298.7</ele>
        <time>2026-05-17T11:08:43.999Z</time>
      </trkpt>
      <trkpt lat="43.65385" lon="3.36112">
        <ele>298.7</ele>
        <time>2026-05-17T11:08:44.999Z</time>
      </trkpt>
      <trkpt lat="43.65385" lon="3.36112">
        <ele>298.8</ele>
        <time>2026-05-17T11:08:45.999Z</time>
      </trkpt>
      <trkpt lat="43.65386" lon="3.36112">
        <ele>298.8</ele>
        <time>2026-05-17T11:08:46.999Z</time>
      </trkpt>
      <trkpt lat="43.65386" lon="3.36113">
        <ele>298.8</ele>
        <time>2026-05-17T11:08:47.999Z</time>
      </trkpt>
      <trkpt lat="43.65387" lon="3.36113">
        <ele>298.3</ele>
        <time>2026-05-17T11:08:48.999Z</time>
      </trkpt>
      <trkpt lat="43.65383" lon="3.36114">
        <ele>298.6</ele>
        <time>2026-05-17T11:08:49.999Z</time>
      </trkpt>
      <trkpt lat="43.65379" lon="3.36114">
        <ele>298.7</ele>
        <time>2026-05-17T11:08:50.999Z</time>
      </trkpt>
      <trkpt lat="43.65378" lon="3.36114">
        <ele>299</ele>
        <time>2026-05-17T11:08:51.999Z</time>
      </trkpt>
      <trkpt lat="43.65378" lon="3.36115">
        <ele>299.4</ele>
        <time>2026-05-17T11:08:52.999Z</time>
      </trkpt>
      <trkpt lat="43.65379" lon="3.36115">
        <ele>299.8</ele>
        <time>2026-05-17T11:08:53.999Z</time>
      </trkpt>
      <trkpt lat="43.6538" lon="3.36116">
        <ele>300.3</ele>
        <time>2026-05-17T11:08:54.999Z</time>
      </trkpt>
      <trkpt lat="43.65381" lon="3.36117">
        <ele>300.7</ele>
        <time>2026-05-17T11:08:55.999Z</time>
      </trkpt>
      <trkpt lat="43.6538" lon="3.36117">
        <ele>301</ele>
        <time>2026-05-17T11:08:56.999Z</time>
      </trkpt>
      <trkpt lat="43.65379" lon="3.36118">
        <ele>301.1</ele>
        <time>2026-05-17T11:08:57.999Z</time>
      </trkpt>
      <trkpt lat="43.65378" lon="3.36118">
        <ele>301.2</ele>
        <time>2026-05-17T11:08:58.999Z</time>
      </trkpt>
      <trkpt lat="43.65378" lon="3.36118">
        <ele>301.4</ele>
        <time>2026-05-17T11:08:59.999Z</time>
      </trkpt>
      <trkpt lat="43.65379" lon="3.36119">
        <ele>301.7</ele>
        <time>2026-05-17T11:09:00.999Z</time>
      </trkpt>
      <trkpt lat="43.6538" lon="3.36119">
        <ele>301.6</ele>
        <time>2026-05-17T11:09:01.999Z</time>
      </trkpt>
      <trkpt lat="43.6538" lon="3.36119">
        <ele>302.3</ele>
        <time>2026-05-17T11:09:02.999Z</time>
      </trkpt>
      <trkpt lat="43.6538" lon="3.36119">
        <ele>302.4</ele>
        <time>2026-05-17T11:09:03.999Z</time>
      </trkpt>
      <trkpt lat="43.6538" lon="3.36119">
        <ele>302.6</ele>
        <time>2026-05-17T11:09:04.999Z</time>
      </trkpt>
      <trkpt lat="43.6538" lon="3.36119">
        <ele>303</ele>
        <time>2026-05-17T11:09:05.999Z</time>
      </trkpt>
      <trkpt lat="43.6538" lon="3.36119">
        <ele>302.9</ele>
        <time>2026-05-17T11:09:06.999Z</time>
      </trkpt>
      <trkpt lat="43.6538" lon="3.36119">
        <ele>302.9</ele>
        <time>2026-05-17T11:09:07.999Z</time>
      </trkpt>
      <trkpt lat="43.65379" lon="3.36118">
        <ele>303.1</ele>
        <time>2026-05-17T11:09:08.999Z</time>
      </trkpt>
      <trkpt lat="43.65378" lon="3.36117">
        <ele>303.6</ele>
        <time>2026-05-17T11:09:09.999Z</time>
      </trkpt>
      <trkpt lat="43.65378" lon="3.36116">
        <ele>303.6</ele>
        <time>2026-05-17T11:09:10.999Z</time>
      </trkpt>
      <trkpt lat="43.65377" lon="3.36116">
        <ele>303.8</ele>
        <time>2026-05-17T11:09:11.999Z</time>
      </trkpt>
      <trkpt lat="43.65375" lon="3.36116">
        <ele>303.9</ele>
        <time>2026-05-17T11:09:12.999Z</time>
      </trkpt>
      <trkpt lat="43.65374" lon="3.36116">
        <ele>304.2</ele>
        <time>2026-05-17T11:09:13.999Z</time>
      </trkpt>
      <trkpt lat="43.65373" lon="3.36116">
        <ele>304.6</ele>
        <time>2026-05-17T11:09:14.999Z</time>
      </trkpt>
      <trkpt lat="43.65373" lon="3.36115">
        <ele>305</ele>
        <time>2026-05-17T11:09:15.999Z</time>
      </trkpt>
      <trkpt lat="43.65374" lon="3.36114">
        <ele>305</ele>
        <time>2026-05-17T11:09:16.999Z</time>
      </trkpt>
      <trkpt lat="43.65374" lon="3.36114">
        <ele>305</ele>
        <time>2026-05-17T11:09:17.999Z</time>
      </trkpt>
      <trkpt lat="43.65374" lon="3.36114">
        <ele>305</ele>
        <time>2026-05-17T11:09:18.999Z</time>
      </trkpt>
      <trkpt lat="43.65374" lon="3.36114">
        <ele>305.3</ele>
        <time>2026-05-17T11:09:19.999Z</time>
      </trkpt>
      <trkpt lat="43.65374" lon="3.36114">
        <ele>305.4</ele>
        <time>2026-05-17T11:09:20.999Z</time>
      </trkpt>
      <trkpt lat="43.65374" lon="3.36114">
        <ele>305.6</ele>
        <time>2026-05-17T11:09:21.999Z</time>
      </trkpt>
      <trkpt lat="43.65374" lon="3.36114">
        <ele>305.6</ele>
        <time>2026-05-17T11:09:22.999Z</time>
      </trkpt>
      <trkpt lat="43.65373" lon="3.36115">
        <ele>305.5</ele>
        <time>2026-05-17T11:09:23.999Z</time>
      </trkpt>
      <trkpt lat="43.65373" lon="3.36115">
        <ele>305.4</ele>
        <time>2026-05-17T11:09:24.999Z</time>
      </trkpt>
      <trkpt lat="43.65374" lon="3.36114">
        <ele>305.6</ele>
        <time>2026-05-17T11:09:25.999Z</time>
      </trkpt>
      <trkpt lat="43.65374" lon="3.36114">
        <ele>305.7</ele>
        <time>2026-05-17T11:09:26.999Z</time>
      </trkpt>
      <trkpt lat="43.65374" lon="3.36114">
        <ele>305.8</ele>
        <time>2026-05-17T11:09:27.999Z</time>
      </trkpt>
      <trkpt lat="43.65374" lon="3.36114">
        <ele>305.9</ele>
        <time>2026-05-17T11:09:28.999Z</time>
      </trkpt>
      <trkpt lat="43.65374" lon="3.36114">
        <ele>305.8</ele>
        <time>2026-05-17T11:09:29.999Z</time>
      </trkpt>
      <trkpt lat="43.65374" lon="3.36114">
        <ele>305.8</ele>
        <time>2026-05-17T11:09:30.999Z</time>
      </trkpt>
      <trkpt lat="43.65374" lon="3.36114">
        <ele>305.8</ele>
        <time>2026-05-17T11:09:31.999Z</time>
      </trkpt>
      <trkpt lat="43.65374" lon="3.36114">
        <ele>306.2</ele>
        <time>2026-05-17T11:09:32.999Z</time>
      </trkpt>
      <trkpt lat="43.65374" lon="3.36114">
        <ele>306.4</ele>
        <time>2026-05-17T11:09:33.999Z</time>
      </trkpt>
      <trkpt lat="43.65374" lon="3.36114">
        <ele>306.5</ele>
        <time>2026-05-17T11:09:34.999Z</time>
      </trkpt>
      <trkpt lat="43.65374" lon="3.36115">
        <ele>306.6</ele>
        <time>2026-05-17T11:09:35.999Z</time>
      </trkpt>
      <trkpt lat="43.65375" lon="3.36116">
        <ele>306.5</ele>
        <time>2026-05-17T11:09:36.999Z</time>
      </trkpt>
      <trkpt lat="43.65375" lon="3.36116">
        <ele>306.1</ele>
        <time>2026-05-17T11:09:37.999Z</time>
      </trkpt>
      <trkpt lat="43.65375" lon="3.36116">
        <ele>306</ele>
        <time>2026-05-17T11:09:38.999Z</time>
      </trkpt>
      <trkpt lat="43.65375" lon="3.36116">
        <ele>305.8</ele>
        <time>2026-05-17T11:09:39.999Z</time>
      </trkpt>
      <trkpt lat="43.65375" lon="3.36116">
        <ele>305.4</ele>
        <time>2026-05-17T11:09:41.999Z</time>
      </trkpt>
      <trkpt lat="43.65375" lon="3.36116">
        <ele>305.1</ele>
        <time>2026-05-17T11:09:42.999Z</time>
      </trkpt>
      <trkpt lat="43.65376" lon="3.36116">
        <ele>304.8</ele>
        <time>2026-05-17T11:09:43.999Z</time>
      </trkpt>
      <trkpt lat="43.65377" lon="3.36116">
        <ele>304.5</ele>
        <time>2026-05-17T11:09:44.999Z</time>
      </trkpt>
      <trkpt lat="43.65378" lon="3.36116">
        <ele>304.2</ele>
        <time>2026-05-17T11:09:45.999Z</time>
      </trkpt>
      <trkpt lat="43.65378" lon="3.36116">
        <ele>304.1</ele>
        <time>2026-05-17T11:09:46.999Z</time>
      </trkpt>
      <trkpt lat="43.65378" lon="3.36116">
        <ele>304</ele>
        <time>2026-05-17T11:09:47.999Z</time>
      </trkpt>
      <trkpt lat="43.65378" lon="3.36116">
        <ele>303.8</ele>
        <time>2026-05-17T11:09:48.999Z</time>
      </trkpt>
      <trkpt lat="43.65378" lon="3.36116">
        <ele>303.7</ele>
        <time>2026-05-17T11:09:49.999Z</time>
      </trkpt>
      <trkpt lat="43.65378" lon="3.36116">
        <ele>303.6</ele>
        <time>2026-05-17T11:09:50.999Z</time>
      </trkpt>
      <trkpt lat="43.65378" lon="3.36116">
        <ele>303.3</ele>
        <time>2026-05-17T11:09:51.999Z</time>
      </trkpt>
      <trkpt lat="43.65378" lon="3.36116">
        <ele>303</ele>
        <time>2026-05-17T11:09:52.999Z</time>
      </trkpt>
      <trkpt lat="43.65378" lon="3.36116">
        <ele>303</ele>
        <time>2026-05-17T11:09:53.999Z</time>
      </trkpt>
      <trkpt lat="43.65378" lon="3.36116">
        <ele>302.9</ele>
        <time>2026-05-17T11:09:54.999Z</time>
      </trkpt>
      <trkpt lat="43.65379" lon="3.36116">
        <ele>302.7</ele>
        <time>2026-05-17T11:09:55.999Z</time>
      </trkpt>
      <trkpt lat="43.65379" lon="3.36116">
        <ele>302.4</ele>
        <time>2026-05-17T11:09:56.999Z</time>
      </trkpt>
      <trkpt lat="43.65379" lon="3.36116">
        <ele>302.2</ele>
        <time>2026-05-17T11:09:57.999Z</time>
      </trkpt>
      <trkpt lat="43.65379" lon="3.36116">
        <ele>301.9</ele>
        <time>2026-05-17T11:09:58.999Z</time>
      </trkpt>
      <trkpt lat="43.65379" lon="3.36116">
        <ele>301.8</ele>
        <time>2026-05-17T11:09:59.999Z</time>
      </trkpt>
      <trkpt lat="43.65379" lon="3.36116">
        <ele>301.4</ele>
        <time>2026-05-17T11:10:00.999Z</time>
      </trkpt>
      <trkpt lat="43.65379" lon="3.36116">
        <ele>301.2</ele>
        <time>2026-05-17T11:10:01.999Z</time>
      </trkpt>
      <trkpt lat="43.65379" lon="3.36116">
        <ele>301</ele>
        <time>2026-05-17T11:10:03.999Z</time>
      </trkpt>
      <trkpt lat="43.65379" lon="3.36115">
        <ele>301</ele>
        <time>2026-05-17T11:10:04.999Z</time>
      </trkpt>
      <trkpt lat="43.65379" lon="3.36115">
        <ele>300.9</ele>
        <time>2026-05-17T11:10:05.999Z</time>
      </trkpt>
      <trkpt lat="43.65379" lon="3.36114">
        <ele>301</ele>
        <time>2026-05-17T11:10:06.999Z</time>
      </trkpt>
      <trkpt lat="43.65379" lon="3.36114">
        <ele>301</ele>
        <time>2026-05-17T11:10:07.999Z</time>
      </trkpt>
      <trkpt lat="43.65379" lon="3.36113">
        <ele>300.9</ele>
        <time>2026-05-17T11:10:08.999Z</time>
      </trkpt>
      <trkpt lat="43.65379" lon="3.36113">
        <ele>300.9</ele>
        <time>2026-05-17T11:10:09.999Z</time>
      </trkpt>
      <trkpt lat="43.65379" lon="3.36113">
        <ele>300.8</ele>
        <time>2026-05-17T11:10:10.999Z</time>
      </trkpt>
      <trkpt lat="43.65379" lon="3.36113">
        <ele>300.6</ele>
        <time>2026-05-17T11:10:11.999Z</time>
      </trkpt>
      <trkpt lat="43.65379" lon="3.36113">
        <ele>300.4</ele>
        <time>2026-05-17T11:10:12.999Z</time>
      </trkpt>
      <trkpt lat="43.65379" lon="3.36113">
        <ele>300.1</ele>
        <time>2026-05-17T11:10:13.999Z</time>
      </trkpt>
      <trkpt lat="43.65379" lon="3.36113">
        <ele>299.9</ele>
        <time>2026-05-17T11:10:14.999Z</time>
      </trkpt>
      <trkpt lat="43.65379" lon="3.36113">
        <ele>299.8</ele>
        <time>2026-05-17T11:10:15.999Z</time>
      </trkpt>
      <trkpt lat="43.65379" lon="3.36113">
        <ele>299.5</ele>
        <time>2026-05-17T11:10:16.999Z</time>
      </trkpt>
      <trkpt lat="43.65379" lon="3.36113">
        <ele>299.5</ele>
        <time>2026-05-17T11:10:18.000Z</time>
      </trkpt>
      <trkpt lat="43.65379" lon="3.36113">
        <ele>299.7</ele>
        <time>2026-05-17T11:10:19.000Z</time>
      </trkpt>
      <trkpt lat="43.65379" lon="3.36113">
        <ele>299.6</ele>
        <time>2026-05-17T11:10:20.000Z</time>
      </trkpt>
      <trkpt lat="43.65379" lon="3.36113">
        <ele>299.7</ele>
        <time>2026-05-17T11:10:21.000Z</time>
      </trkpt>
      <trkpt lat="43.65379" lon="3.36113">
        <ele>299.8</ele>
        <time>2026-05-17T11:10:22.000Z</time>
      </trkpt>
      <trkpt lat="43.65379" lon="3.36113">
        <ele>299.5</ele>
        <time>2026-05-17T11:10:23.000Z</time>
      </trkpt>
      <trkpt lat="43.6538" lon="3.36113">
        <ele>299.2</ele>
        <time>2026-05-17T11:10:24.000Z</time>
      </trkpt>
      <trkpt lat="43.6538" lon="3.36113">
        <ele>299.1</ele>
        <time>2026-05-17T11:10:25.000Z</time>
      </trkpt>
      <trkpt lat="43.6538" lon="3.36113">
        <ele>298.7</ele>
        <time>2026-05-17T11:10:26.000Z</time>
      </trkpt>
      <trkpt lat="43.6538" lon="3.36114">
        <ele>298.4</ele>
        <time>2026-05-17T11:10:27.000Z</time>
      </trkpt>
      <trkpt lat="43.6538" lon="3.36114">
        <ele>298.1</ele>
        <time>2026-05-17T11:10:28.000Z</time>
      </trkpt>
      <trkpt lat="43.6538" lon="3.36114">
        <ele>297.8</ele>
        <time>2026-05-17T11:10:29.000Z</time>
      </trkpt>
      <trkpt lat="43.6538" lon="3.36114">
        <ele>297.3</ele>
        <time>2026-05-17T11:10:30.000Z</time>
      </trkpt>
      <trkpt lat="43.6538" lon="3.36114">
        <ele>297.2</ele>
        <time>2026-05-17T11:10:31.000Z</time>
      </trkpt>
      <trkpt lat="43.6538" lon="3.36114">
        <ele>296.8</ele>
        <time>2026-05-17T11:10:32.000Z</time>
      </trkpt>
      <trkpt lat="43.6538" lon="3.36114">
        <ele>296.5</ele>
        <time>2026-05-17T11:10:33.000Z</time>
      </trkpt>
      <trkpt lat="43.6538" lon="3.36114">
        <ele>296.6</ele>
        <time>2026-05-17T11:10:34.000Z</time>
      </trkpt>
      <trkpt lat="43.6538" lon="3.36114">
        <ele>296.7</ele>
        <time>2026-05-17T11:10:35.000Z</time>
      </trkpt>
      <trkpt lat="43.6538" lon="3.36114">
        <ele>296.5</ele>
        <time>2026-05-17T11:10:36.000Z</time>
      </trkpt>
      <trkpt lat="43.6538" lon="3.36114">
        <ele>296.4</ele>
        <time>2026-05-17T11:10:37.000Z</time>
      </trkpt>
      <trkpt lat="43.6538" lon="3.36114">
        <ele>296.5</ele>
        <time>2026-05-17T11:10:38.000Z</time>
      </trkpt>
      <trkpt lat="43.6538" lon="3.36114">
        <ele>296.6</ele>
        <time>2026-05-17T11:10:39.000Z</time>
      </trkpt>
      <trkpt lat="43.6538" lon="3.36114">
        <ele>296.5</ele>
        <time>2026-05-17T11:10:40.000Z</time>
      </trkpt>
      <trkpt lat="43.6538" lon="3.36114">
        <ele>296.2</ele>
        <time>2026-05-17T11:10:41.000Z</time>
      </trkpt>
      <trkpt lat="43.6538" lon="3.36114">
        <ele>296</ele>
        <time>2026-05-17T11:10:42.000Z</time>
      </trkpt>
      <trkpt lat="43.6538" lon="3.36114">
        <ele>295.6</ele>
        <time>2026-05-17T11:10:43.000Z</time>
      </trkpt>
      <trkpt lat="43.6538" lon="3.36114">
        <ele>295.2</ele>
        <time>2026-05-17T11:10:44.000Z</time>
      </trkpt>
      <trkpt lat="43.6538" lon="3.36114">
        <ele>295</ele>
        <time>2026-05-17T11:10:45.000Z</time>
      </trkpt>
      <trkpt lat="43.6538" lon="3.36115">
        <ele>295</ele>
        <time>2026-05-17T11:10:46.000Z</time>
      </trkpt>
      <trkpt lat="43.6538" lon="3.36115">
        <ele>295</ele>
        <time>2026-05-17T11:10:47.000Z</time>
      </trkpt>
      <trkpt lat="43.6538" lon="3.36115">
        <ele>295</ele>
        <time>2026-05-17T11:10:48.000Z</time>
      </trkpt>
      <trkpt lat="43.6538" lon="3.36115">
        <ele>294.9</ele>
        <time>2026-05-17T11:10:49.000Z</time>
      </trkpt>
      <trkpt lat="43.65381" lon="3.36116">
        <ele>294.8</ele>
        <time>2026-05-17T11:10:50.000Z</time>
      </trkpt>
      <trkpt lat="43.65381" lon="3.36116">
        <ele>294.7</ele>
        <time>2026-05-17T11:10:51.000Z</time>
      </trkpt>
      <trkpt lat="43.65381" lon="3.36117">
        <ele>294.6</ele>
        <time>2026-05-17T11:10:52.000Z</time>
      </trkpt>
      <trkpt lat="43.65382" lon="3.36117">
        <ele>294.4</ele>
        <time>2026-05-17T11:10:53.000Z</time>
      </trkpt>
      <trkpt lat="43.65382" lon="3.36118">
        <ele>294.1</ele>
        <time>2026-05-17T11:10:54.000Z</time>
      </trkpt>
      <trkpt lat="43.65382" lon="3.36118">
        <ele>294.2</ele>
        <time>2026-05-17T11:10:55.000Z</time>
      </trkpt>
      <trkpt lat="43.65382" lon="3.36118">
        <ele>294.2</ele>
        <time>2026-05-17T11:10:56.000Z</time>
      </trkpt>
      <trkpt lat="43.65382" lon="3.36118">
        <ele>293.8</ele>
        <time>2026-05-17T11:10:57.000Z</time>
      </trkpt>
      <trkpt lat="43.65383" lon="3.36118">
        <ele>293.4</ele>
        <time>2026-05-17T11:10:58.000Z</time>
      </trkpt>
      <trkpt lat="43.65383" lon="3.36118">
        <ele>293.3</ele>
        <time>2026-05-17T11:10:59.000Z</time>
      </trkpt>
      <trkpt lat="43.65383" lon="3.36119">
        <ele>293.2</ele>
        <time>2026-05-17T11:11:00.000Z</time>
      </trkpt>
      <trkpt lat="43.65383" lon="3.36119">
        <ele>293</ele>
        <time>2026-05-17T11:11:01.000Z</time>
      </trkpt>
      <trkpt lat="43.65383" lon="3.36119">
        <ele>292.8</ele>
        <time>2026-05-17T11:11:02.000Z</time>
      </trkpt>
      <trkpt lat="43.65383" lon="3.36119">
        <ele>292.5</ele>
        <time>2026-05-17T11:11:03.000Z</time>
      </trkpt>
      <trkpt lat="43.65383" lon="3.36119">
        <ele>292.3</ele>
        <time>2026-05-17T11:11:04.000Z</time>
      </trkpt>
      <trkpt lat="43.65383" lon="3.36119">
        <ele>292.3</ele>
        <time>2026-05-17T11:11:05.000Z</time>
      </trkpt>
      <trkpt lat="43.65383" lon="3.36119">
        <ele>292.1</ele>
        <time>2026-05-17T11:11:06.000Z</time>
      </trkpt>
      <trkpt lat="43.65383" lon="3.36119">
        <ele>291.7</ele>
        <time>2026-05-17T11:11:07.000Z</time>
      </trkpt>
      <trkpt lat="43.65383" lon="3.36119">
        <ele>291.3</ele>
        <time>2026-05-17T11:11:08.000Z</time>
      </trkpt>
      <trkpt lat="43.65384" lon="3.36119">
        <ele>291.1</ele>
        <time>2026-05-17T11:11:10.000Z</time>
      </trkpt>
      <trkpt lat="43.65384" lon="3.36119">
        <ele>291.5</ele>
        <time>2026-05-17T11:11:11.000Z</time>
      </trkpt>
      <trkpt lat="43.65384" lon="3.36119">
        <ele>291.8</ele>
        <time>2026-05-17T11:11:12.000Z</time>
      </trkpt>
      <trkpt lat="43.65384" lon="3.36119">
        <ele>291.9</ele>
        <time>2026-05-17T11:11:13.000Z</time>
      </trkpt>
      <trkpt lat="43.65384" lon="3.36119">
        <ele>292</ele>
        <time>2026-05-17T11:11:14.000Z</time>
      </trkpt>
      <trkpt lat="43.65384" lon="3.36119">
        <ele>292</ele>
        <time>2026-05-17T11:11:15.000Z</time>
      </trkpt>
      <trkpt lat="43.65384" lon="3.36119">
        <ele>292.2</ele>
        <time>2026-05-17T11:11:17.000Z</time>
      </trkpt>
      <trkpt lat="43.65384" lon="3.36119">
        <ele>292.2</ele>
        <time>2026-05-17T11:11:18.000Z</time>
      </trkpt>
      <trkpt lat="43.65384" lon="3.36119">
        <ele>292.4</ele>
        <time>2026-05-17T11:11:19.000Z</time>
      </trkpt>
      <trkpt lat="43.65384" lon="3.36119">
        <ele>292.5</ele>
        <time>2026-05-17T11:11:20.000Z</time>
      </trkpt>
      <trkpt lat="43.65384" lon="3.36119">
        <ele>292.7</ele>
        <time>2026-05-17T11:11:21.000Z</time>
      </trkpt>
      <trkpt lat="43.65384" lon="3.36119">
        <ele>292.8</ele>
        <time>2026-05-17T11:11:22.000Z</time>
      </trkpt>
      <trkpt lat="43.65384" lon="3.36119">
        <ele>293</ele>
        <time>2026-05-17T11:11:23.000Z</time>
      </trkpt>
      <trkpt lat="43.65384" lon="3.36119">
        <ele>292.9</ele>
        <time>2026-05-17T11:11:24.000Z</time>
      </trkpt>
      <trkpt lat="43.65384" lon="3.36119">
        <ele>292.8</ele>
        <time>2026-05-17T11:11:25.000Z</time>
      </trkpt>
      <trkpt lat="43.65384" lon="3.36119">
        <ele>292.9</ele>
        <time>2026-05-17T11:11:26.000Z</time>
      </trkpt>
      <trkpt lat="43.65384" lon="3.36119">
        <ele>292.9</ele>
        <time>2026-05-17T11:11:27.000Z</time>
      </trkpt>
      <trkpt lat="43.65384" lon="3.36119">
        <ele>293.1</ele>
        <time>2026-05-17T11:11:28.000Z</time>
      </trkpt>
      <trkpt lat="43.65385" lon="3.36119">
        <ele>293.3</ele>
        <time>2026-05-17T11:11:29.000Z</time>
      </trkpt>
      <trkpt lat="43.65385" lon="3.36119">
        <ele>293.5</ele>
        <time>2026-05-17T11:11:30.000Z</time>
      </trkpt>
      <trkpt lat="43.65385" lon="3.36119">
        <ele>294.1</ele>
        <time>2026-05-17T11:11:31.000Z</time>
      </trkpt>
      <trkpt lat="43.65385" lon="3.36118">
        <ele>294.3</ele>
        <time>2026-05-17T11:11:32.000Z</time>
      </trkpt>
      <trkpt lat="43.65385" lon="3.36118">
        <ele>294.4</ele>
        <time>2026-05-17T11:11:33.000Z</time>
      </trkpt>
      <trkpt lat="43.65385" lon="3.36118">
        <ele>294.6</ele>
        <time>2026-05-17T11:11:34.000Z</time>
      </trkpt>
      <trkpt lat="43.65385" lon="3.36118">
        <ele>294.9</ele>
        <time>2026-05-17T11:11:35.000Z</time>
      </trkpt>
      <trkpt lat="43.65385" lon="3.36118">
        <ele>294.9</ele>
        <time>2026-05-17T11:11:36.000Z</time>
      </trkpt>
      <trkpt lat="43.65384" lon="3.36118">
        <ele>295</ele>
        <time>2026-05-17T11:11:37.000Z</time>
      </trkpt>
      <trkpt lat="43.65384" lon="3.36118">
        <ele>294.6</ele>
        <time>2026-05-17T11:11:38.000Z</time>
      </trkpt>
      <trkpt lat="43.65384" lon="3.36118">
        <ele>294.3</ele>
        <time>2026-05-17T11:11:39.000Z</time>
      </trkpt>
      <trkpt lat="43.65384" lon="3.36118">
        <ele>294.3</ele>
        <time>2026-05-17T11:11:40.000Z</time>
      </trkpt>
      <trkpt lat="43.65384" lon="3.36118">
        <ele>294.1</ele>
        <time>2026-05-17T11:11:41.000Z</time>
      </trkpt>
      <trkpt lat="43.65384" lon="3.36118">
        <ele>294.1</ele>
        <time>2026-05-17T11:11:42.000Z</time>
      </trkpt>
      <trkpt lat="43.65384" lon="3.36118">
        <ele>294.3</ele>
        <time>2026-05-17T11:11:43.000Z</time>
      </trkpt>
      <trkpt lat="43.65384" lon="3.36118">
        <ele>294.3</ele>
        <time>2026-05-17T11:11:44.000Z</time>
      </trkpt>
      <trkpt lat="43.65384" lon="3.36117">
        <ele>294.2</ele>
        <time>2026-05-17T11:11:45.000Z</time>
      </trkpt>
      <trkpt lat="43.65384" lon="3.36117">
        <ele>294.2</ele>
        <time>2026-05-17T11:11:46.000Z</time>
      </trkpt>
      <trkpt lat="43.65384" lon="3.36117">
        <ele>294.3</ele>
        <time>2026-05-17T11:11:47.000Z</time>
      </trkpt>
      <trkpt lat="43.65384" lon="3.36117">
        <ele>294.5</ele>
        <time>2026-05-17T11:11:48.000Z</time>
      </trkpt>
      <trkpt lat="43.65384" lon="3.36117">
        <ele>294.7</ele>
        <time>2026-05-17T11:11:49.000Z</time>
      </trkpt>
      <trkpt lat="43.65384" lon="3.36117">
        <ele>294.8</ele>
        <time>2026-05-17T11:11:50.000Z</time>
      </trkpt>
      <trkpt lat="43.65384" lon="3.36117">
        <ele>294.7</ele>
        <time>2026-05-17T11:11:51.000Z</time>
      </trkpt>
      <trkpt lat="43.65384" lon="3.36117">
        <ele>294.6</ele>
        <time>2026-05-17T11:11:52.000Z</time>
      </trkpt>
      <trkpt lat="43.65384" lon="3.36117">
        <ele>294.8</ele>
        <time>2026-05-17T11:11:54.000Z</time>
      </trkpt>
      <trkpt lat="43.65384" lon="3.36117">
        <ele>294.9</ele>
        <time>2026-05-17T11:11:55.000Z</time>
      </trkpt>
      <trkpt lat="43.65384" lon="3.36117">
        <ele>295</ele>
        <time>2026-05-17T11:11:56.000Z</time>
      </trkpt>
      <trkpt lat="43.65384" lon="3.36117">
        <ele>295.1</ele>
        <time>2026-05-17T11:11:57.000Z</time>
      </trkpt>
      <trkpt lat="43.65384" lon="3.36116">
        <ele>295.1</ele>
        <time>2026-05-17T11:11:58.000Z</time>
      </trkpt>
      <trkpt lat="43.65384" lon="3.36117">
        <ele>295.1</ele>
        <time>2026-05-17T11:11:59.000Z</time>
      </trkpt>
      <trkpt lat="43.65385" lon="3.36117">
        <ele>295.2</ele>
        <time>2026-05-17T11:12:00.000Z</time>
      </trkpt>
      <trkpt lat="43.65385" lon="3.36117">
        <ele>295.1</ele>
        <time>2026-05-17T11:12:01.000Z</time>
      </trkpt>
      <trkpt lat="43.65385" lon="3.36117">
        <ele>295.2</ele>
        <time>2026-05-17T11:12:02.000Z</time>
      </trkpt>
      <trkpt lat="43.65385" lon="3.36117">
        <ele>295.4</ele>
        <time>2026-05-17T11:12:03.000Z</time>
      </trkpt>
      <trkpt lat="43.65385" lon="3.36117">
        <ele>295.5</ele>
        <time>2026-05-17T11:12:04.000Z</time>
      </trkpt>
      <trkpt lat="43.65386" lon="3.36117">
        <ele>295.4</ele>
        <time>2026-05-17T11:12:05.000Z</time>
      </trkpt>
      <trkpt lat="43.65386" lon="3.36117">
        <ele>295.5</ele>
        <time>2026-05-17T11:12:06.000Z</time>
      </trkpt>
      <trkpt lat="43.65386" lon="3.36117">
        <ele>295.5</ele>
        <time>2026-05-17T11:12:07.000Z</time>
      </trkpt>
      <trkpt lat="43.65385" lon="3.36118">
        <ele>295.6</ele>
        <time>2026-05-17T11:12:08.000Z</time>
      </trkpt>
      <trkpt lat="43.65385" lon="3.36117">
        <ele>295.8</ele>
        <time>2026-05-17T11:12:09.000Z</time>
      </trkpt>
      <trkpt lat="43.65385" lon="3.36118">
        <ele>296</ele>
        <time>2026-05-17T11:12:10.000Z</time>
      </trkpt>
      <trkpt lat="43.65385" lon="3.36117">
        <ele>296.1</ele>
        <time>2026-05-17T11:12:11.000Z</time>
      </trkpt>
      <trkpt lat="43.65385" lon="3.36117">
        <ele>295.9</ele>
        <time>2026-05-17T11:12:12.000Z</time>
      </trkpt>
      <trkpt lat="43.65385" lon="3.36117">
        <ele>295.8</ele>
        <time>2026-05-17T11:12:13.000Z</time>
      </trkpt>
      <trkpt lat="43.65385" lon="3.36117">
        <ele>295.8</ele>
        <time>2026-05-17T11:12:14.000Z</time>
      </trkpt>
      <trkpt lat="43.65385" lon="3.36117">
        <ele>296.1</ele>
        <time>2026-05-17T11:12:15.000Z</time>
      </trkpt>
      <trkpt lat="43.65385" lon="3.36117">
        <ele>296.1</ele>
        <time>2026-05-17T11:12:16.000Z</time>
      </trkpt>
      <trkpt lat="43.65385" lon="3.36117">
        <ele>296.3</ele>
        <time>2026-05-17T11:12:17.000Z</time>
      </trkpt>
      <trkpt lat="43.65385" lon="3.36117">
        <ele>296.3</ele>
        <time>2026-05-17T11:12:18.000Z</time>
      </trkpt>
      <trkpt lat="43.65385" lon="3.36117">
        <ele>296</ele>
        <time>2026-05-17T11:12:19.000Z</time>
      </trkpt>
      <trkpt lat="43.65385" lon="3.36117">
        <ele>295.9</ele>
        <time>2026-05-17T11:12:20.000Z</time>
      </trkpt>
      <trkpt lat="43.65385" lon="3.36117">
        <ele>295.7</ele>
        <time>2026-05-17T11:12:21.000Z</time>
      </trkpt>
      <trkpt lat="43.65385" lon="3.36117">
        <ele>295.5</ele>
        <time>2026-05-17T11:12:22.000Z</time>
      </trkpt>
      <trkpt lat="43.65385" lon="3.36117">
        <ele>295.5</ele>
        <time>2026-05-17T11:12:23.000Z</time>
      </trkpt>
      <trkpt lat="43.65385" lon="3.36117">
        <ele>295.4</ele>
        <time>2026-05-17T11:12:24.000Z</time>
      </trkpt>
      <trkpt lat="43.65385" lon="3.36117">
        <ele>295.2</ele>
        <time>2026-05-17T11:12:25.000Z</time>
      </trkpt>
      <trkpt lat="43.65385" lon="3.36117">
        <ele>295.2</ele>
        <time>2026-05-17T11:12:26.000Z</time>
      </trkpt>
      <trkpt lat="43.65385" lon="3.36117">
        <ele>295.3</ele>
        <time>2026-05-17T11:12:27.000Z</time>
      </trkpt>
      <trkpt lat="43.65385" lon="3.36117">
        <ele>295.6</ele>
        <time>2026-05-17T11:12:29.000Z</time>
      </trkpt>
      <trkpt lat="43.65385" lon="3.36116">
        <ele>295.6</ele>
        <time>2026-05-17T11:12:30.000Z</time>
      </trkpt>
      <trkpt lat="43.65385" lon="3.36116">
        <ele>295.7</ele>
        <time>2026-05-17T11:12:31.000Z</time>
      </trkpt>
      <trkpt lat="43.65385" lon="3.36116">
        <ele>295.7</ele>
        <time>2026-05-17T11:12:32.000Z</time>
      </trkpt>
      <trkpt lat="43.65385" lon="3.36116">
        <ele>295.8</ele>
        <time>2026-05-17T11:12:33.000Z</time>
      </trkpt>
      <trkpt lat="43.65385" lon="3.36116">
        <ele>295.7</ele>
        <time>2026-05-17T11:12:34.000Z</time>
      </trkpt>
      <trkpt lat="43.65385" lon="3.36116">
        <ele>295.6</ele>
        <time>2026-05-17T11:12:35.000Z</time>
      </trkpt>
      <trkpt lat="43.65385" lon="3.36116">
        <ele>295.7</ele>
        <time>2026-05-17T11:12:36.000Z</time>
      </trkpt>
      <trkpt lat="43.65385" lon="3.36116">
        <ele>295.6</ele>
        <time>2026-05-17T11:12:37.000Z</time>
      </trkpt>
      <trkpt lat="43.65385" lon="3.36116">
        <ele>295.4</ele>
        <time>2026-05-17T11:12:38.000Z</time>
      </trkpt>
      <trkpt lat="43.65385" lon="3.36116">
        <ele>296</ele>
        <time>2026-05-17T11:12:39.000Z</time>
      </trkpt>
      <trkpt lat="43.65385" lon="3.36116">
        <ele>295.9</ele>
        <time>2026-05-17T11:12:41.000Z</time>
      </trkpt>
      <trkpt lat="43.65385" lon="3.36116">
        <ele>295.9</ele>
        <time>2026-05-17T11:12:42.000Z</time>
      </trkpt>
      <trkpt lat="43.65385" lon="3.36116">
        <ele>295.9</ele>
        <time>2026-05-17T11:12:43.000Z</time>
      </trkpt>
      <trkpt lat="43.65385" lon="3.36116">
        <ele>295.9</ele>
        <time>2026-05-17T11:12:44.000Z</time>
      </trkpt>
      <trkpt lat="43.65385" lon="3.36116">
        <ele>296</ele>
        <time>2026-05-17T11:12:45.000Z</time>
      </trkpt>
      <trkpt lat="43.65385" lon="3.36116">
        <ele>296.1</ele>
        <time>2026-05-17T11:12:46.000Z</time>
      </trkpt>
      <trkpt lat="43.65385" lon="3.36116">
        <ele>296.2</ele>
        <time>2026-05-17T11:12:47.000Z</time>
      </trkpt>
      <trkpt lat="43.65385" lon="3.36116">
        <ele>296.2</ele>
        <time>2026-05-17T11:12:48.000Z</time>
      </trkpt>
      <trkpt lat="43.65385" lon="3.36116">
        <ele>296.2</ele>
        <time>2026-05-17T11:12:49.000Z</time>
      </trkpt>
      <trkpt lat="43.65385" lon="3.36116">
        <ele>296.3</ele>
        <time>2026-05-17T11:12:50.000Z</time>
      </trkpt>
      <trkpt lat="43.65385" lon="3.36116">
        <ele>296.5</ele>
        <time>2026-05-17T11:12:51.000Z</time>
      </trkpt>
      <trkpt lat="43.65385" lon="3.36116">
        <ele>296.3</ele>
        <time>2026-05-17T11:12:52.000Z</time>
      </trkpt>
      <trkpt lat="43.65385" lon="3.36116">
        <ele>296.4</ele>
        <time>2026-05-17T11:12:53.000Z</time>
      </trkpt>
      <trkpt lat="43.65385" lon="3.36116">
        <ele>296.3</ele>
        <time>2026-05-17T11:12:54.000Z</time>
      </trkpt>
      <trkpt lat="43.65384" lon="3.36115">
        <ele>296.1</ele>
        <time>2026-05-17T11:12:55.000Z</time>
      </trkpt>
      <trkpt lat="43.65384" lon="3.36114">
        <ele>296.5</ele>
        <time>2026-05-17T11:12:56.000Z</time>
      </trkpt>
      <trkpt lat="43.65383" lon="3.36114">
        <ele>296.7</ele>
        <time>2026-05-17T11:12:57.000Z</time>
      </trkpt>
      <trkpt lat="43.65382" lon="3.36114">
        <ele>296.5</ele>
        <time>2026-05-17T11:12:58.000Z</time>
      </trkpt>
      <trkpt lat="43.65382" lon="3.36114">
        <ele>296.1</ele>
        <time>2026-05-17T11:12:59.000Z</time>
      </trkpt>
      <trkpt lat="43.65382" lon="3.36114">
        <ele>295.9</ele>
        <time>2026-05-17T11:13:00.000Z</time>
      </trkpt>
      <trkpt lat="43.65382" lon="3.36114">
        <ele>295.6</ele>
        <time>2026-05-17T11:13:01.000Z</time>
      </trkpt>
      <trkpt lat="43.65382" lon="3.36114">
        <ele>295.4</ele>
        <time>2026-05-17T11:13:02.000Z</time>
      </trkpt>
      <trkpt lat="43.65382" lon="3.36114">
        <ele>295.3</ele>
        <time>2026-05-17T11:13:03.000Z</time>
      </trkpt>
      <trkpt lat="43.65382" lon="3.36114">
        <ele>295.2</ele>
        <time>2026-05-17T11:13:04.000Z</time>
      </trkpt>
      <trkpt lat="43.65382" lon="3.36114">
        <ele>295</ele>
        <time>2026-05-17T11:13:05.000Z</time>
      </trkpt>
      <trkpt lat="43.65382" lon="3.36114">
        <ele>295</ele>
        <time>2026-05-17T11:13:06.000Z</time>
      </trkpt>
      <trkpt lat="43.65382" lon="3.36114">
        <ele>295</ele>
        <time>2026-05-17T11:13:07.000Z</time>
      </trkpt>
      <trkpt lat="43.65382" lon="3.36114">
        <ele>295</ele>
        <time>2026-05-17T11:13:08.000Z</time>
      </trkpt>
      <trkpt lat="43.65382" lon="3.36114">
        <ele>294.8</ele>
        <time>2026-05-17T11:13:09.000Z</time>
      </trkpt>
      <trkpt lat="43.65383" lon="3.36114">
        <ele>294.8</ele>
        <time>2026-05-17T11:13:10.000Z</time>
      </trkpt>
      <trkpt lat="43.65383" lon="3.36114">
        <ele>294.8</ele>
        <time>2026-05-17T11:13:11.000Z</time>
      </trkpt>
      <trkpt lat="43.65383" lon="3.36114">
        <ele>294.6</ele>
        <time>2026-05-17T11:13:12.000Z</time>
      </trkpt>
      <trkpt lat="43.65383" lon="3.36114">
        <ele>294.7</ele>
        <time>2026-05-17T11:13:13.000Z</time>
      </trkpt>
      <trkpt lat="43.65383" lon="3.36114">
        <ele>294.8</ele>
        <time>2026-05-17T11:13:14.000Z</time>
      </trkpt>
      <trkpt lat="43.65383" lon="3.36114">
        <ele>294.7</ele>
        <time>2026-05-17T11:13:15.000Z</time>
      </trkpt>
      <trkpt lat="43.65383" lon="3.36114">
        <ele>294.7</ele>
        <time>2026-05-17T11:13:16.000Z</time>
      </trkpt>
      <trkpt lat="43.65383" lon="3.36114">
        <ele>294.6</ele>
        <time>2026-05-17T11:13:17.000Z</time>
      </trkpt>
      <trkpt lat="43.65383" lon="3.36114">
        <ele>294.7</ele>
        <time>2026-05-17T11:13:18.000Z</time>
      </trkpt>
      <trkpt lat="43.65382" lon="3.36114">
        <ele>294.6</ele>
        <time>2026-05-17T11:13:19.000Z</time>
      </trkpt>
      <trkpt lat="43.65382" lon="3.36114">
        <ele>294.6</ele>
        <time>2026-05-17T11:13:20.000Z</time>
      </trkpt>
      <trkpt lat="43.65382" lon="3.36114">
        <ele>294.7</ele>
        <time>2026-05-17T11:13:21.000Z</time>
      </trkpt>
      <trkpt lat="43.65382" lon="3.36114">
        <ele>294.6</ele>
        <time>2026-05-17T11:13:22.000Z</time>
      </trkpt>
      <trkpt lat="43.65382" lon="3.36114">
        <ele>294.4</ele>
        <time>2026-05-17T11:13:23.000Z</time>
      </trkpt>
      <trkpt lat="43.65382" lon="3.36114">
        <ele>294.5</ele>
        <time>2026-05-17T11:13:24.000Z</time>
      </trkpt>
      <trkpt lat="43.65382" lon="3.36114">
        <ele>294.5</ele>
        <time>2026-05-17T11:13:25.000Z</time>
      </trkpt>
      <trkpt lat="43.65382" lon="3.36114">
        <ele>294.5</ele>
        <time>2026-05-17T11:13:26.000Z</time>
      </trkpt>
      <trkpt lat="43.65382" lon="3.36114">
        <ele>294.6</ele>
        <time>2026-05-17T11:13:27.000Z</time>
      </trkpt>
      <trkpt lat="43.65382" lon="3.36114">
        <ele>294.4</ele>
        <time>2026-05-17T11:13:28.000Z</time>
      </trkpt>
      <trkpt lat="43.65382" lon="3.36113">
        <ele>294.1</ele>
        <time>2026-05-17T11:13:29.000Z</time>
      </trkpt>
      <trkpt lat="43.65383" lon="3.36114">
        <ele>294.3</ele>
        <time>2026-05-17T11:13:30.000Z</time>
      </trkpt>
      <trkpt lat="43.65383" lon="3.36115">
        <ele>294.5</ele>
        <time>2026-05-17T11:13:31.000Z</time>
      </trkpt>
      <trkpt lat="43.65383" lon="3.36116">
        <ele>294.6</ele>
        <time>2026-05-17T11:13:32.000Z</time>
      </trkpt>
      <trkpt lat="43.65383" lon="3.36117">
        <ele>294.6</ele>
        <time>2026-05-17T11:13:33.000Z</time>
      </trkpt>
      <trkpt lat="43.65382" lon="3.36119">
        <ele>294.5</ele>
        <time>2026-05-17T11:13:34.000Z</time>
      </trkpt>
      <trkpt lat="43.65382" lon="3.3612">
        <ele>294.8</ele>
        <time>2026-05-17T11:13:35.000Z</time>
      </trkpt>
      <trkpt lat="43.65383" lon="3.3612">
        <ele>295</ele>
        <time>2026-05-17T11:13:36.000Z</time>
      </trkpt>
      <trkpt lat="43.65383" lon="3.36117">
        <ele>295</ele>
        <time>2026-05-17T11:13:37.000Z</time>
      </trkpt>
      <trkpt lat="43.65383" lon="3.36116">
        <ele>294.9</ele>
        <time>2026-05-17T11:13:38.000Z</time>
      </trkpt>
      <trkpt lat="43.65383" lon="3.36117">
        <ele>295.1</ele>
        <time>2026-05-17T11:13:39.000Z</time>
      </trkpt>
      <trkpt lat="43.65384" lon="3.36117">
        <ele>295.5</ele>
        <time>2026-05-17T11:13:40.000Z</time>
      </trkpt>
      <trkpt lat="43.65385" lon="3.36116">
        <ele>295.5</ele>
        <time>2026-05-17T11:13:41.000Z</time>
      </trkpt>
      <trkpt lat="43.65385" lon="3.36115">
        <ele>295.7</ele>
        <time>2026-05-17T11:13:42.000Z</time>
      </trkpt>
      <trkpt lat="43.65386" lon="3.36115">
        <ele>295.3</ele>
        <time>2026-05-17T11:13:43.000Z</time>
      </trkpt>
      <trkpt lat="43.65386" lon="3.36115">
        <ele>293.4</ele>
        <time>2026-05-17T11:13:44.000Z</time>
      </trkpt>
      <trkpt lat="43.65386" lon="3.36115">
        <ele>293.3</ele>
        <time>2026-05-17T11:13:45.000Z</time>
      </trkpt>
      <trkpt lat="43.65386" lon="3.36115">
        <ele>293.4</ele>
        <time>2026-05-17T11:13:46.000Z</time>
      </trkpt>
      <trkpt lat="43.65386" lon="3.36115">
        <ele>293.7</ele>
        <time>2026-05-17T11:13:47.000Z</time>
      </trkpt>
      <trkpt lat="43.65386" lon="3.36115">
        <ele>293.7</ele>
        <time>2026-05-17T11:13:48.000Z</time>
      </trkpt>
      <trkpt lat="43.65386" lon="3.36115">
        <ele>293.7</ele>
        <time>2026-05-17T11:13:49.000Z</time>
      </trkpt>
      <trkpt lat="43.65386" lon="3.36115">
        <ele>293.7</ele>
        <time>2026-05-17T11:13:50.000Z</time>
      </trkpt>
      <trkpt lat="43.65386" lon="3.36115">
        <ele>293.9</ele>
        <time>2026-05-17T11:13:51.000Z</time>
      </trkpt>
      <trkpt lat="43.65386" lon="3.36115">
        <ele>294.1</ele>
        <time>2026-05-17T11:13:52.000Z</time>
      </trkpt>
      <trkpt lat="43.65386" lon="3.36115">
        <ele>294.4</ele>
        <time>2026-05-17T11:13:53.000Z</time>
      </trkpt>
      <trkpt lat="43.65386" lon="3.36115">
        <ele>294.5</ele>
        <time>2026-05-17T11:13:54.000Z</time>
      </trkpt>
      <trkpt lat="43.65386" lon="3.36115">
        <ele>294.4</ele>
        <time>2026-05-17T11:13:55.000Z</time>
      </trkpt>
      <trkpt lat="43.65386" lon="3.36115">
        <ele>294.4</ele>
        <time>2026-05-17T11:13:56.000Z</time>
      </trkpt>
      <trkpt lat="43.65386" lon="3.36115">
        <ele>294.4</ele>
        <time>2026-05-17T11:13:57.000Z</time>
      </trkpt>
      <trkpt lat="43.65385" lon="3.36115">
        <ele>294.5</ele>
        <time>2026-05-17T11:13:58.000Z</time>
      </trkpt>
      <trkpt lat="43.65385" lon="3.36116">
        <ele>294.5</ele>
        <time>2026-05-17T11:13:59.000Z</time>
      </trkpt>
      <trkpt lat="43.65384" lon="3.36116">
        <ele>294.6</ele>
        <time>2026-05-17T11:14:00.000Z</time>
      </trkpt>
      <trkpt lat="43.65384" lon="3.36116">
        <ele>294.6</ele>
        <time>2026-05-17T11:14:01.000Z</time>
      </trkpt>
      <trkpt lat="43.65384" lon="3.36116">
        <ele>294.6</ele>
        <time>2026-05-17T11:14:02.000Z</time>
      </trkpt>
      <trkpt lat="43.65383" lon="3.36115">
        <ele>294.6</ele>
        <time>2026-05-17T11:14:03.000Z</time>
      </trkpt>
      <trkpt lat="43.65383" lon="3.36115">
        <ele>294.7</ele>
        <time>2026-05-17T11:14:04.000Z</time>
      </trkpt>
      <trkpt lat="43.65383" lon="3.36114">
        <ele>294.7</ele>
        <time>2026-05-17T11:14:05.000Z</time>
      </trkpt>
      <trkpt lat="43.65383" lon="3.36114">
        <ele>294.8</ele>
        <time>2026-05-17T11:14:06.000Z</time>
      </trkpt>
      <trkpt lat="43.65383" lon="3.36114">
        <ele>294.9</ele>
        <time>2026-05-17T11:14:07.000Z</time>
      </trkpt>
      <trkpt lat="43.65383" lon="3.36114">
        <ele>294.3</ele>
        <time>2026-05-17T11:14:08.000Z</time>
      </trkpt>
      <trkpt lat="43.65382" lon="3.36114">
        <ele>293.9</ele>
        <time>2026-05-17T11:14:09.000Z</time>
      </trkpt>
      <trkpt lat="43.65382" lon="3.36114">
        <ele>293.9</ele>
        <time>2026-05-17T11:14:10.000Z</time>
      </trkpt>
      <trkpt lat="43.65383" lon="3.36114">
        <ele>293.9</ele>
        <time>2026-05-17T11:14:11.000Z</time>
      </trkpt>
      <trkpt lat="43.65383" lon="3.36113">
        <ele>294</ele>
        <time>2026-05-17T11:14:12.000Z</time>
      </trkpt>
      <trkpt lat="43.65383" lon="3.36111">
        <ele>293.9</ele>
        <time>2026-05-17T11:14:13.000Z</time>
      </trkpt>
      <trkpt lat="43.65383" lon="3.36109">
        <ele>293.9</ele>
        <time>2026-05-17T11:14:14.000Z</time>
      </trkpt>
      <trkpt lat="43.65383" lon="3.36107">
        <ele>293.5</ele>
        <time>2026-05-17T11:14:15.000Z</time>
      </trkpt>
      <trkpt lat="43.65384" lon="3.36104">
        <ele>293.4</ele>
        <time>2026-05-17T11:14:16.000Z</time>
      </trkpt>
      <trkpt lat="43.65385" lon="3.36103">
        <ele>293.2</ele>
        <time>2026-05-17T11:14:17.000Z</time>
      </trkpt>
      <trkpt lat="43.65386" lon="3.361">
        <ele>293</ele>
        <time>2026-05-17T11:14:18.000Z</time>
      </trkpt>
      <trkpt lat="43.65386" lon="3.36096">
        <ele>292.7</ele>
        <time>2026-05-17T11:14:19.000Z</time>
      </trkpt>
      <trkpt lat="43.65387" lon="3.36095">
        <ele>292.7</ele>
        <time>2026-05-17T11:14:20.000Z</time>
      </trkpt>
      <trkpt lat="43.65387" lon="3.36093">
        <ele>292.2</ele>
        <time>2026-05-17T11:14:21.000Z</time>
      </trkpt>
      <trkpt lat="43.65387" lon="3.36091">
        <ele>292.2</ele>
        <time>2026-05-17T11:14:22.000Z</time>
      </trkpt>
      <trkpt lat="43.65387" lon="3.36089">
        <ele>292.1</ele>
        <time>2026-05-17T11:14:23.000Z</time>
      </trkpt>
      <trkpt lat="43.65387" lon="3.36086">
        <ele>292.2</ele>
        <time>2026-05-17T11:14:24.000Z</time>
      </trkpt>
      <trkpt lat="43.65387" lon="3.36087">
        <ele>291.5</ele>
        <time>2026-05-17T11:14:25.000Z</time>
      </trkpt>
      <trkpt lat="43.65388" lon="3.36083">
        <ele>291.5</ele>
        <time>2026-05-17T11:14:26.000Z</time>
      </trkpt>
      <trkpt lat="43.65388" lon="3.3608">
        <ele>291.3</ele>
        <time>2026-05-17T11:14:27.000Z</time>
      </trkpt>
      <trkpt lat="43.65389" lon="3.36077">
        <ele>291.3</ele>
        <time>2026-05-17T11:14:28.000Z</time>
      </trkpt>
      <trkpt lat="43.6539" lon="3.36074">
        <ele>290.8</ele>
        <time>2026-05-17T11:14:29.000Z</time>
      </trkpt>
      <trkpt lat="43.65391" lon="3.36072">
        <ele>290.6</ele>
        <time>2026-05-17T11:14:30.000Z</time>
      </trkpt>
      <trkpt lat="43.65391" lon="3.36068">
        <ele>290.5</ele>
        <time>2026-05-17T11:14:31.000Z</time>
      </trkpt>
      <trkpt lat="43.65392" lon="3.36067">
        <ele>290.9</ele>
        <time>2026-05-17T11:14:32.000Z</time>
      </trkpt>
      <trkpt lat="43.65392" lon="3.36065">
        <ele>290.7</ele>
        <time>2026-05-17T11:14:33.000Z</time>
      </trkpt>
      <trkpt lat="43.65394" lon="3.36064">
        <ele>291</ele>
        <time>2026-05-17T11:14:34.000Z</time>
      </trkpt>
      <trkpt lat="43.65395" lon="3.36063">
        <ele>291.4</ele>
        <time>2026-05-17T11:14:35.000Z</time>
      </trkpt>
      <trkpt lat="43.65395" lon="3.36063">
        <ele>292</ele>
        <time>2026-05-17T11:14:36.000Z</time>
      </trkpt>
      <trkpt lat="43.65395" lon="3.36062">
        <ele>291.4</ele>
        <time>2026-05-17T11:14:37.000Z</time>
      </trkpt>
      <trkpt lat="43.65395" lon="3.36062">
        <ele>291.1</ele>
        <time>2026-05-17T11:14:38.000Z</time>
      </trkpt>
      <trkpt lat="43.65395" lon="3.36062">
        <ele>291.4</ele>
        <time>2026-05-17T11:14:39.000Z</time>
      </trkpt>
      <trkpt lat="43.65395" lon="3.36062">
        <ele>296.8</ele>
        <time>2026-05-17T11:14:40.000Z</time>
      </trkpt>
      <trkpt lat="43.65395" lon="3.36062">
        <ele>296.7</ele>
        <time>2026-05-17T11:14:41.000Z</time>
      </trkpt>
      <trkpt lat="43.65394" lon="3.36062">
        <ele>296.4</ele>
        <time>2026-05-17T11:14:42.000Z</time>
      </trkpt>
      <trkpt lat="43.65394" lon="3.36063">
        <ele>296.7</ele>
        <time>2026-05-17T11:14:43.000Z</time>
      </trkpt>
      <trkpt lat="43.65394" lon="3.36064">
        <ele>296.6</ele>
        <time>2026-05-17T11:14:44.000Z</time>
      </trkpt>
      <trkpt lat="43.65394" lon="3.36065">
        <ele>296.6</ele>
        <time>2026-05-17T11:14:45.000Z</time>
      </trkpt>
      <trkpt lat="43.65394" lon="3.36066">
        <ele>296.5</ele>
        <time>2026-05-17T11:14:46.000Z</time>
      </trkpt>
      <trkpt lat="43.65394" lon="3.36066">
        <ele>296.5</ele>
        <time>2026-05-17T11:14:47.000Z</time>
      </trkpt>
      <trkpt lat="43.65394" lon="3.36067">
        <ele>296.2</ele>
        <time>2026-05-17T11:14:48.000Z</time>
      </trkpt>
      <trkpt lat="43.65394" lon="3.36067">
        <ele>296</ele>
        <time>2026-05-17T11:14:49.000Z</time>
      </trkpt>
      <trkpt lat="43.65394" lon="3.36066">
        <ele>296.2</ele>
        <time>2026-05-17T11:14:50.000Z</time>
      </trkpt>
      <trkpt lat="43.65394" lon="3.36074">
        <ele>295.4</ele>
        <time>2026-05-17T11:14:51.000Z</time>
      </trkpt>
      <trkpt lat="43.65393" lon="3.36079">
        <ele>295.4</ele>
        <time>2026-05-17T11:14:52.000Z</time>
      </trkpt>
      <trkpt lat="43.65393" lon="3.36082">
        <ele>295</ele>
        <time>2026-05-17T11:14:53.000Z</time>
      </trkpt>
      <trkpt lat="43.65393" lon="3.36083">
        <ele>294.7</ele>
        <time>2026-05-17T11:14:54.000Z</time>
      </trkpt>
      <trkpt lat="43.65393" lon="3.36083">
        <ele>294.3</ele>
        <time>2026-05-17T11:14:55.000Z</time>
      </trkpt>
      <trkpt lat="43.65393" lon="3.36083">
        <ele>294.2</ele>
        <time>2026-05-17T11:14:56.000Z</time>
      </trkpt>
      <trkpt lat="43.65393" lon="3.36083">
        <ele>294</ele>
        <time>2026-05-17T11:14:57.000Z</time>
      </trkpt>
      <trkpt lat="43.65393" lon="3.36084">
        <ele>294.1</ele>
        <time>2026-05-17T11:14:58.000Z</time>
      </trkpt>
      <trkpt lat="43.65392" lon="3.36087">
        <ele>294.1</ele>
        <time>2026-05-17T11:14:59.000Z</time>
      </trkpt>
      <trkpt lat="43.65389" lon="3.36098">
        <ele>297.1</ele>
        <time>2026-05-17T11:15:00.000Z</time>
      </trkpt>
      <trkpt lat="43.65389" lon="3.36102">
        <ele>297</ele>
        <time>2026-05-17T11:15:01.000Z</time>
      </trkpt>
      <trkpt lat="43.65389" lon="3.36104">
        <ele>297.1</ele>
        <time>2026-05-17T11:15:02.000Z</time>
      </trkpt>
      <trkpt lat="43.65389" lon="3.36104">
        <ele>297</ele>
        <time>2026-05-17T11:15:03.000Z</time>
      </trkpt>
      <trkpt lat="43.65389" lon="3.36104">
        <ele>296.7</ele>
        <time>2026-05-17T11:15:04.000Z</time>
      </trkpt>
      <trkpt lat="43.65389" lon="3.36104">
        <ele>296.6</ele>
        <time>2026-05-17T11:15:05.000Z</time>
      </trkpt>
      <trkpt lat="43.65389" lon="3.36105">
        <ele>296.6</ele>
        <time>2026-05-17T11:15:06.000Z</time>
      </trkpt>
      <trkpt lat="43.65388" lon="3.36106">
        <ele>296.8</ele>
        <time>2026-05-17T11:15:07.000Z</time>
      </trkpt>
      <trkpt lat="43.65388" lon="3.36106">
        <ele>296.9</ele>
        <time>2026-05-17T11:15:08.000Z</time>
      </trkpt>
      <trkpt lat="43.65387" lon="3.36106">
        <ele>297.1</ele>
        <time>2026-05-17T11:15:09.000Z</time>
      </trkpt>
      <trkpt lat="43.65388" lon="3.36106">
        <ele>297.1</ele>
        <time>2026-05-17T11:15:10.000Z</time>
      </trkpt>
      <trkpt lat="43.65387" lon="3.36109">
        <ele>296.9</ele>
        <time>2026-05-17T11:15:11.000Z</time>
      </trkpt>
      <trkpt lat="43.65388" lon="3.36112">
        <ele>296.7</ele>
        <time>2026-05-17T11:15:12.000Z</time>
      </trkpt>
      <trkpt lat="43.65388" lon="3.36114">
        <ele>296.2</ele>
        <time>2026-05-17T11:15:13.000Z</time>
      </trkpt>
      <trkpt lat="43.65387" lon="3.36117">
        <ele>296</ele>
        <time>2026-05-17T11:15:14.000Z</time>
      </trkpt>
      <trkpt lat="43.65387" lon="3.36124">
        <ele>295.3</ele>
        <time>2026-05-17T11:15:16.000Z</time>
      </trkpt>
      <trkpt lat="43.65388" lon="3.36127">
        <ele>295.6</ele>
        <time>2026-05-17T11:15:17.000Z</time>
      </trkpt>
      <trkpt lat="43.65388" lon="3.36129">
        <ele>296.4</ele>
        <time>2026-05-17T11:15:18.000Z</time>
      </trkpt>
      <trkpt lat="43.65387" lon="3.3613">
        <ele>296.1</ele>
        <time>2026-05-17T11:15:19.000Z</time>
      </trkpt>
      <trkpt lat="43.65388" lon="3.36131">
        <ele>295.8</ele>
        <time>2026-05-17T11:15:20.000Z</time>
      </trkpt>
      <trkpt lat="43.65387" lon="3.36132">
        <ele>295.3</ele>
        <time>2026-05-17T11:15:21.000Z</time>
      </trkpt>
      <trkpt lat="43.65386" lon="3.36131">
        <ele>295.3</ele>
        <time>2026-05-17T11:15:22.000Z</time>
      </trkpt>
      <trkpt lat="43.65386" lon="3.36131">
        <ele>295.2</ele>
        <time>2026-05-17T11:15:23.000Z</time>
      </trkpt>
      <trkpt lat="43.65386" lon="3.36131">
        <ele>292.6</ele>
        <time>2026-05-17T11:15:24.000Z</time>
      </trkpt>
      <trkpt lat="43.65386" lon="3.36131">
        <ele>292.6</ele>
        <time>2026-05-17T11:15:25.000Z</time>
      </trkpt>
      <trkpt lat="43.65386" lon="3.36131">
        <ele>292.7</ele>
        <time>2026-05-17T11:15:26.000Z</time>
      </trkpt>
      <trkpt lat="43.65386" lon="3.36131">
        <ele>292.5</ele>
        <time>2026-05-17T11:15:27.000Z</time>
      </trkpt>
      <trkpt lat="43.65386" lon="3.36131">
        <ele>292.5</ele>
        <time>2026-05-17T11:15:28.000Z</time>
      </trkpt>
      <trkpt lat="43.65386" lon="3.36131">
        <ele>292.6</ele>
        <time>2026-05-17T11:15:29.000Z</time>
      </trkpt>
      <trkpt lat="43.65387" lon="3.36131">
        <ele>292.6</ele>
        <time>2026-05-17T11:15:30.000Z</time>
      </trkpt>
      <trkpt lat="43.65387" lon="3.3613">
        <ele>292.5</ele>
        <time>2026-05-17T11:15:31.000Z</time>
      </trkpt>
      <trkpt lat="43.65387" lon="3.3613">
        <ele>292.5</ele>
        <time>2026-05-17T11:15:32.000Z</time>
      </trkpt>
      <trkpt lat="43.65387" lon="3.36129">
        <ele>292.6</ele>
        <time>2026-05-17T11:15:33.000Z</time>
      </trkpt>
      <trkpt lat="43.65388" lon="3.36128">
        <ele>292.3</ele>
        <time>2026-05-17T11:15:34.000Z</time>
      </trkpt>
      <trkpt lat="43.65389" lon="3.36127">
        <ele>292</ele>
        <time>2026-05-17T11:15:35.000Z</time>
      </trkpt>
      <trkpt lat="43.65389" lon="3.36128">
        <ele>291.7</ele>
        <time>2026-05-17T11:15:36.000Z</time>
      </trkpt>
      <trkpt lat="43.65389" lon="3.36127">
        <ele>291.7</ele>
        <time>2026-05-17T11:15:37.000Z</time>
      </trkpt>
      <trkpt lat="43.6539" lon="3.36127">
        <ele>291.9</ele>
        <time>2026-05-17T11:15:38.000Z</time>
      </trkpt>
      <trkpt lat="43.6539" lon="3.36127">
        <ele>292.6</ele>
        <time>2026-05-17T11:15:39.000Z</time>
      </trkpt>
      <trkpt lat="43.6539" lon="3.36128">
        <ele>292.7</ele>
        <time>2026-05-17T11:15:40.000Z</time>
      </trkpt>
      <trkpt lat="43.6539" lon="3.36128">
        <ele>292.7</ele>
        <time>2026-05-17T11:15:41.000Z</time>
      </trkpt>
      <trkpt lat="43.6539" lon="3.36129">
        <ele>292.9</ele>
        <time>2026-05-17T11:15:42.000Z</time>
      </trkpt>
      <trkpt lat="43.6539" lon="3.36129">
        <ele>292.9</ele>
        <time>2026-05-17T11:15:43.000Z</time>
      </trkpt>
      <trkpt lat="43.6539" lon="3.36129">
        <ele>292.8</ele>
        <time>2026-05-17T11:15:44.000Z</time>
      </trkpt>
      <trkpt lat="43.6539" lon="3.36131">
        <ele>292.6</ele>
        <time>2026-05-17T11:15:45.000Z</time>
      </trkpt>
      <trkpt lat="43.6539" lon="3.36132">
        <ele>292.4</ele>
        <time>2026-05-17T11:15:46.000Z</time>
      </trkpt>
      <trkpt lat="43.6539" lon="3.36132">
        <ele>292.1</ele>
        <time>2026-05-17T11:15:47.000Z</time>
      </trkpt>
      <trkpt lat="43.6539" lon="3.36132">
        <ele>291.9</ele>
        <time>2026-05-17T11:15:48.000Z</time>
      </trkpt>
      <trkpt lat="43.6539" lon="3.36132">
        <ele>292</ele>
        <time>2026-05-17T11:15:49.000Z</time>
      </trkpt>
      <trkpt lat="43.6539" lon="3.36132">
        <ele>292.1</ele>
        <time>2026-05-17T11:15:50.000Z</time>
      </trkpt>
      <trkpt lat="43.6539" lon="3.36132">
        <ele>292.1</ele>
        <time>2026-05-17T11:15:51.000Z</time>
      </trkpt>
      <trkpt lat="43.6539" lon="3.36132">
        <ele>292</ele>
        <time>2026-05-17T11:15:52.000Z</time>
      </trkpt>
      <trkpt lat="43.6539" lon="3.36132">
        <ele>291.9</ele>
        <time>2026-05-17T11:15:53.000Z</time>
      </trkpt>
      <trkpt lat="43.6539" lon="3.36132">
        <ele>291.7</ele>
        <time>2026-05-17T11:15:54.000Z</time>
      </trkpt>
      <trkpt lat="43.6539" lon="3.36132">
        <ele>291.2</ele>
        <time>2026-05-17T11:15:55.000Z</time>
      </trkpt>
      <trkpt lat="43.6539" lon="3.36132">
        <ele>291</ele>
        <time>2026-05-17T11:15:56.000Z</time>
      </trkpt>
      <trkpt lat="43.6539" lon="3.36132">
        <ele>291</ele>
        <time>2026-05-17T11:15:57.000Z</time>
      </trkpt>
      <trkpt lat="43.6539" lon="3.36132">
        <ele>290.8</ele>
        <time>2026-05-17T11:15:58.000Z</time>
      </trkpt>
      <trkpt lat="43.6539" lon="3.36132">
        <ele>290.8</ele>
        <time>2026-05-17T11:15:59.000Z</time>
      </trkpt>
      <trkpt lat="43.6539" lon="3.36132">
        <ele>290.7</ele>
        <time>2026-05-17T11:16:00.000Z</time>
      </trkpt>
      <trkpt lat="43.6539" lon="3.36132">
        <ele>290.5</ele>
        <time>2026-05-17T11:16:01.000Z</time>
      </trkpt>
      <trkpt lat="43.6539" lon="3.36132">
        <ele>290.5</ele>
        <time>2026-05-17T11:16:02.000Z</time>
      </trkpt>
      <trkpt lat="43.6539" lon="3.36132">
        <ele>290.2</ele>
        <time>2026-05-17T11:16:03.000Z</time>
      </trkpt>
      <trkpt lat="43.6539" lon="3.36131">
        <ele>289.8</ele>
        <time>2026-05-17T11:16:04.000Z</time>
      </trkpt>
      <trkpt lat="43.6539" lon="3.36132">
        <ele>289.9</ele>
        <time>2026-05-17T11:16:05.000Z</time>
      </trkpt>
      <trkpt lat="43.6539" lon="3.36132">
        <ele>289.9</ele>
        <time>2026-05-17T11:16:06.000Z</time>
      </trkpt>
      <trkpt lat="43.6539" lon="3.36132">
        <ele>289.7</ele>
        <time>2026-05-17T11:16:07.000Z</time>
      </trkpt>
      <trkpt lat="43.6539" lon="3.36132">
        <ele>289.6</ele>
        <time>2026-05-17T11:16:08.000Z</time>
      </trkpt>
      <trkpt lat="43.6539" lon="3.36132">
        <ele>289.6</ele>
        <time>2026-05-17T11:16:09.000Z</time>
      </trkpt>
      <trkpt lat="43.6539" lon="3.36132">
        <ele>289.7</ele>
        <time>2026-05-17T11:16:10.000Z</time>
      </trkpt>
      <trkpt lat="43.6539" lon="3.36132">
        <ele>289.4</ele>
        <time>2026-05-17T11:16:11.000Z</time>
      </trkpt>
      <trkpt lat="43.6539" lon="3.36132">
        <ele>289.1</ele>
        <time>2026-05-17T11:16:12.000Z</time>
      </trkpt>
      <trkpt lat="43.6539" lon="3.36132">
        <ele>289</ele>
        <time>2026-05-17T11:16:13.000Z</time>
      </trkpt>
      <trkpt lat="43.6539" lon="3.36131">
        <ele>288.9</ele>
        <time>2026-05-17T11:16:14.000Z</time>
      </trkpt>
      <trkpt lat="43.6539" lon="3.36131">
        <ele>289</ele>
        <time>2026-05-17T11:16:15.000Z</time>
      </trkpt>
      <trkpt lat="43.6539" lon="3.36131">
        <ele>288.9</ele>
        <time>2026-05-17T11:16:16.000Z</time>
      </trkpt>
      <trkpt lat="43.6539" lon="3.36131">
        <ele>289</ele>
        <time>2026-05-17T11:16:17.000Z</time>
      </trkpt>
      <trkpt lat="43.6539" lon="3.36131">
        <ele>289</ele>
        <time>2026-05-17T11:16:18.000Z</time>
      </trkpt>
      <trkpt lat="43.65391" lon="3.36132">
        <ele>288.8</ele>
        <time>2026-05-17T11:16:19.000Z</time>
      </trkpt>
      <trkpt lat="43.65391" lon="3.36131">
        <ele>288.7</ele>
        <time>2026-05-17T11:16:20.000Z</time>
      </trkpt>
      <trkpt lat="43.65391" lon="3.36131">
        <ele>288.7</ele>
        <time>2026-05-17T11:16:21.000Z</time>
      </trkpt>
      <trkpt lat="43.65392" lon="3.36131">
        <ele>288.7</ele>
        <time>2026-05-17T11:16:22.000Z</time>
      </trkpt>
      <trkpt lat="43.65392" lon="3.3613">
        <ele>288.9</ele>
        <time>2026-05-17T11:16:23.000Z</time>
      </trkpt>
      <trkpt lat="43.65393" lon="3.36129">
        <ele>289</ele>
        <time>2026-05-17T11:16:24.000Z</time>
      </trkpt>
      <trkpt lat="43.65393" lon="3.36129">
        <ele>289</ele>
        <time>2026-05-17T11:16:25.000Z</time>
      </trkpt>
      <trkpt lat="43.65393" lon="3.3613">
        <ele>289.1</ele>
        <time>2026-05-17T11:16:26.000Z</time>
      </trkpt>
      <trkpt lat="43.65393" lon="3.3613">
        <ele>289.1</ele>
        <time>2026-05-17T11:16:27.000Z</time>
      </trkpt>
      <trkpt lat="43.65393" lon="3.3613">
        <ele>289</ele>
        <time>2026-05-17T11:16:28.000Z</time>
      </trkpt>
      <trkpt lat="43.65393" lon="3.3613">
        <ele>288.8</ele>
        <time>2026-05-17T11:16:29.000Z</time>
      </trkpt>
      <trkpt lat="43.65393" lon="3.3613">
        <ele>288.6</ele>
        <time>2026-05-17T11:16:30.000Z</time>
      </trkpt>
      <trkpt lat="43.65393" lon="3.3613">
        <ele>288.6</ele>
        <time>2026-05-17T11:16:31.000Z</time>
      </trkpt>
      <trkpt lat="43.65393" lon="3.3613">
        <ele>288.5</ele>
        <time>2026-05-17T11:16:32.000Z</time>
      </trkpt>
      <trkpt lat="43.65393" lon="3.36129">
        <ele>288.5</ele>
        <time>2026-05-17T11:16:33.000Z</time>
      </trkpt>
      <trkpt lat="43.65393" lon="3.36128">
        <ele>288.2</ele>
        <time>2026-05-17T11:16:34.000Z</time>
      </trkpt>
      <trkpt lat="43.65393" lon="3.36128">
        <ele>288.1</ele>
        <time>2026-05-17T11:16:35.000Z</time>
      </trkpt>
      <trkpt lat="43.65393" lon="3.36128">
        <ele>288.2</ele>
        <time>2026-05-17T11:16:36.000Z</time>
      </trkpt>
      <trkpt lat="43.65393" lon="3.36128">
        <ele>287.9</ele>
        <time>2026-05-17T11:16:37.000Z</time>
      </trkpt>
      <trkpt lat="43.65393" lon="3.36129">
        <ele>287.6</ele>
        <time>2026-05-17T11:16:39.000Z</time>
      </trkpt>
      <trkpt lat="43.65393" lon="3.36129">
        <ele>287.4</ele>
        <time>2026-05-17T11:16:40.000Z</time>
      </trkpt>
      <trkpt lat="43.65392" lon="3.36129">
        <ele>287.8</ele>
        <time>2026-05-17T11:16:41.000Z</time>
      </trkpt>
      <trkpt lat="43.65392" lon="3.36129">
        <ele>287.6</ele>
        <time>2026-05-17T11:16:42.000Z</time>
      </trkpt>
      <trkpt lat="43.65392" lon="3.3613">
        <ele>287.5</ele>
        <time>2026-05-17T11:16:43.000Z</time>
      </trkpt>
      <trkpt lat="43.65392" lon="3.3613">
        <ele>287.6</ele>
        <time>2026-05-17T11:16:44.000Z</time>
      </trkpt>
      <trkpt lat="43.65392" lon="3.3613">
        <ele>287.7</ele>
        <time>2026-05-17T11:16:45.000Z</time>
      </trkpt>
      <trkpt lat="43.65392" lon="3.3613">
        <ele>287.8</ele>
        <time>2026-05-17T11:16:46.000Z</time>
      </trkpt>
      <trkpt lat="43.65392" lon="3.3613">
        <ele>287.7</ele>
        <time>2026-05-17T11:16:47.000Z</time>
      </trkpt>
      <trkpt lat="43.65392" lon="3.3613">
        <ele>287.5</ele>
        <time>2026-05-17T11:16:48.000Z</time>
      </trkpt>
      <trkpt lat="43.65392" lon="3.3613">
        <ele>287.4</ele>
        <time>2026-05-17T11:16:49.000Z</time>
      </trkpt>
      <trkpt lat="43.65392" lon="3.3613">
        <ele>287.3</ele>
        <time>2026-05-17T11:16:50.000Z</time>
      </trkpt>
      <trkpt lat="43.65393" lon="3.36131">
        <ele>287.4</ele>
        <time>2026-05-17T11:16:51.000Z</time>
      </trkpt>
      <trkpt lat="43.65393" lon="3.36132">
        <ele>287.7</ele>
        <time>2026-05-17T11:16:52.000Z</time>
      </trkpt>
      <trkpt lat="43.65393" lon="3.36133">
        <ele>287.8</ele>
        <time>2026-05-17T11:16:53.000Z</time>
      </trkpt>
      <trkpt lat="43.65393" lon="3.36134">
        <ele>288</ele>
        <time>2026-05-17T11:16:54.000Z</time>
      </trkpt>
      <trkpt lat="43.65392" lon="3.36134">
        <ele>287.9</ele>
        <time>2026-05-17T11:16:55.000Z</time>
      </trkpt>
      <trkpt lat="43.65391" lon="3.36135">
        <ele>288</ele>
        <time>2026-05-17T11:16:56.000Z</time>
      </trkpt>
      <trkpt lat="43.65391" lon="3.36136">
        <ele>288.1</ele>
        <time>2026-05-17T11:16:57.000Z</time>
      </trkpt>
      <trkpt lat="43.65391" lon="3.36138">
        <ele>288.2</ele>
        <time>2026-05-17T11:16:58.000Z</time>
      </trkpt>
      <trkpt lat="43.65391" lon="3.3614">
        <ele>288.1</ele>
        <time>2026-05-17T11:16:59.000Z</time>
      </trkpt>
      <trkpt lat="43.6539" lon="3.3614">
        <ele>288.3</ele>
        <time>2026-05-17T11:17:00.000Z</time>
      </trkpt>
      <trkpt lat="43.65389" lon="3.36142">
        <ele>288.1</ele>
        <time>2026-05-17T11:17:01.000Z</time>
      </trkpt>
      <trkpt lat="43.65389" lon="3.36143">
        <ele>288.4</ele>
        <time>2026-05-17T11:17:02.000Z</time>
      </trkpt>
      <trkpt lat="43.65388" lon="3.3614">
        <ele>288.7</ele>
        <time>2026-05-17T11:17:03.000Z</time>
      </trkpt>
      <trkpt lat="43.65388" lon="3.36142">
        <ele>289</ele>
        <time>2026-05-17T11:17:04.000Z</time>
      </trkpt>
      <trkpt lat="43.65388" lon="3.36141">
        <ele>289</ele>
        <time>2026-05-17T11:17:05.000Z</time>
      </trkpt>
      <trkpt lat="43.65388" lon="3.36141">
        <ele>288.8</ele>
        <time>2026-05-17T11:17:06.000Z</time>
      </trkpt>
      <trkpt lat="43.65389" lon="3.36142">
        <ele>288.5</ele>
        <time>2026-05-17T11:17:07.000Z</time>
      </trkpt>
      <trkpt lat="43.65389" lon="3.36142">
        <ele>288</ele>
        <time>2026-05-17T11:17:08.000Z</time>
      </trkpt>
      <trkpt lat="43.65388" lon="3.36142">
        <ele>286.4</ele>
        <time>2026-05-17T11:17:09.000Z</time>
      </trkpt>
      <trkpt lat="43.65388" lon="3.36142">
        <ele>286.3</ele>
        <time>2026-05-17T11:17:10.000Z</time>
      </trkpt>
      <trkpt lat="43.65388" lon="3.36142">
        <ele>286.6</ele>
        <time>2026-05-17T11:17:11.000Z</time>
      </trkpt>
      <trkpt lat="43.65388" lon="3.36143">
        <ele>286.6</ele>
        <time>2026-05-17T11:17:12.000Z</time>
      </trkpt>
      <trkpt lat="43.65388" lon="3.36143">
        <ele>286.8</ele>
        <time>2026-05-17T11:17:13.000Z</time>
      </trkpt>
      <trkpt lat="43.65388" lon="3.36144">
        <ele>287.1</ele>
        <time>2026-05-17T11:17:14.000Z</time>
      </trkpt>
      <trkpt lat="43.65388" lon="3.36144">
        <ele>287.3</ele>
        <time>2026-05-17T11:17:15.000Z</time>
      </trkpt>
      <trkpt lat="43.65388" lon="3.36143">
        <ele>287.4</ele>
        <time>2026-05-17T11:17:16.000Z</time>
      </trkpt>
      <trkpt lat="43.65388" lon="3.36143">
        <ele>287.7</ele>
        <time>2026-05-17T11:17:17.000Z</time>
      </trkpt>
      <trkpt lat="43.65388" lon="3.36143">
        <ele>287.7</ele>
        <time>2026-05-17T11:17:18.000Z</time>
      </trkpt>
      <trkpt lat="43.65388" lon="3.36143">
        <ele>287.9</ele>
        <time>2026-05-17T11:17:19.000Z</time>
      </trkpt>
      <trkpt lat="43.65388" lon="3.36143">
        <ele>288.2</ele>
        <time>2026-05-17T11:17:20.000Z</time>
      </trkpt>
      <trkpt lat="43.65388" lon="3.36143">
        <ele>288.1</ele>
        <time>2026-05-17T11:17:21.000Z</time>
      </trkpt>
      <trkpt lat="43.65388" lon="3.36143">
        <ele>287.9</ele>
        <time>2026-05-17T11:17:22.000Z</time>
      </trkpt>
      <trkpt lat="43.65387" lon="3.36143">
        <ele>287.8</ele>
        <time>2026-05-17T11:17:23.000Z</time>
      </trkpt>
      <trkpt lat="43.65387" lon="3.36143">
        <ele>287.8</ele>
        <time>2026-05-17T11:17:24.000Z</time>
      </trkpt>
      <trkpt lat="43.65387" lon="3.36143">
        <ele>287.8</ele>
        <time>2026-05-17T11:17:25.000Z</time>
      </trkpt>
      <trkpt lat="43.65386" lon="3.36144">
        <ele>287.7</ele>
        <time>2026-05-17T11:17:26.000Z</time>
      </trkpt>
      <trkpt lat="43.65385" lon="3.36144">
        <ele>287.7</ele>
        <time>2026-05-17T11:17:27.000Z</time>
      </trkpt>
      <trkpt lat="43.65384" lon="3.36144">
        <ele>287.9</ele>
        <time>2026-05-17T11:17:28.000Z</time>
      </trkpt>
      <trkpt lat="43.65384" lon="3.36143">
        <ele>288</ele>
        <time>2026-05-17T11:17:29.000Z</time>
      </trkpt>
      <trkpt lat="43.65384" lon="3.36143">
        <ele>288</ele>
        <time>2026-05-17T11:17:30.000Z</time>
      </trkpt>
      <trkpt lat="43.65383" lon="3.36143">
        <ele>287.9</ele>
        <time>2026-05-17T11:17:31.000Z</time>
      </trkpt>
      <trkpt lat="43.65383" lon="3.36144">
        <ele>287.8</ele>
        <time>2026-05-17T11:17:32.000Z</time>
      </trkpt>
      <trkpt lat="43.65383" lon="3.36144">
        <ele>287.7</ele>
        <time>2026-05-17T11:17:33.000Z</time>
      </trkpt>
      <trkpt lat="43.65382" lon="3.36145">
        <ele>288</ele>
        <time>2026-05-17T11:17:34.000Z</time>
      </trkpt>
      <trkpt lat="43.65382" lon="3.36145">
        <ele>288.1</ele>
        <time>2026-05-17T11:17:35.000Z</time>
      </trkpt>
      <trkpt lat="43.65382" lon="3.36145">
        <ele>287.8</ele>
        <time>2026-05-17T11:17:36.000Z</time>
      </trkpt>
      <trkpt lat="43.65381" lon="3.36145">
        <ele>286.8</ele>
        <time>2026-05-17T11:17:37.000Z</time>
      </trkpt>
      <trkpt lat="43.65381" lon="3.36145">
        <ele>287</ele>
        <time>2026-05-17T11:17:38.000Z</time>
      </trkpt>
      <trkpt lat="43.65381" lon="3.36145">
        <ele>286.9</ele>
        <time>2026-05-17T11:17:39.000Z</time>
      </trkpt>
      <trkpt lat="43.65381" lon="3.36145">
        <ele>286.8</ele>
        <time>2026-05-17T11:17:40.000Z</time>
      </trkpt>
      <trkpt lat="43.65381" lon="3.36145">
        <ele>286.6</ele>
        <time>2026-05-17T11:17:41.000Z</time>
      </trkpt>
      <trkpt lat="43.65381" lon="3.36145">
        <ele>286.6</ele>
        <time>2026-05-17T11:17:42.000Z</time>
      </trkpt>
      <trkpt lat="43.65381" lon="3.36145">
        <ele>286.4</ele>
        <time>2026-05-17T11:17:43.000Z</time>
      </trkpt>
      <trkpt lat="43.65381" lon="3.36145">
        <ele>286.3</ele>
        <time>2026-05-17T11:17:44.000Z</time>
      </trkpt>
      <trkpt lat="43.6538" lon="3.36144">
        <ele>286.1</ele>
        <time>2026-05-17T11:17:45.000Z</time>
      </trkpt>
      <trkpt lat="43.65379" lon="3.36144">
        <ele>285.8</ele>
        <time>2026-05-17T11:17:46.000Z</time>
      </trkpt>
      <trkpt lat="43.65378" lon="3.36143">
        <ele>285.8</ele>
        <time>2026-05-17T11:17:47.000Z</time>
      </trkpt>
      <trkpt lat="43.65378" lon="3.36142">
        <ele>285.7</ele>
        <time>2026-05-17T11:17:48.000Z</time>
      </trkpt>
      <trkpt lat="43.65377" lon="3.3614">
        <ele>285.6</ele>
        <time>2026-05-17T11:17:49.000Z</time>
      </trkpt>
      <trkpt lat="43.65376" lon="3.36138">
        <ele>285.7</ele>
        <time>2026-05-17T11:17:50.000Z</time>
      </trkpt>
      <trkpt lat="43.65375" lon="3.36136">
        <ele>285.3</ele>
        <time>2026-05-17T11:17:51.000Z</time>
      </trkpt>
      <trkpt lat="43.65375" lon="3.36136">
        <ele>285.6</ele>
        <time>2026-05-17T11:17:52.000Z</time>
      </trkpt>
      <trkpt lat="43.65375" lon="3.36136">
        <ele>285.6</ele>
        <time>2026-05-17T11:17:53.000Z</time>
      </trkpt>
      <trkpt lat="43.65375" lon="3.36136">
        <ele>285.5</ele>
        <time>2026-05-17T11:17:54.000Z</time>
      </trkpt>
      <trkpt lat="43.65375" lon="3.36136">
        <ele>285.6</ele>
        <time>2026-05-17T11:17:55.000Z</time>
      </trkpt>
      <trkpt lat="43.65375" lon="3.36135">
        <ele>285.6</ele>
        <time>2026-05-17T11:17:56.000Z</time>
      </trkpt>
      <trkpt lat="43.65375" lon="3.36135">
        <ele>285.7</ele>
        <time>2026-05-17T11:17:57.000Z</time>
      </trkpt>
      <trkpt lat="43.65375" lon="3.36135">
        <ele>285.8</ele>
        <time>2026-05-17T11:17:58.000Z</time>
      </trkpt>
      <trkpt lat="43.65375" lon="3.36134">
        <ele>286</ele>
        <time>2026-05-17T11:17:59.000Z</time>
      </trkpt>
      <trkpt lat="43.65374" lon="3.36132">
        <ele>286.4</ele>
        <time>2026-05-17T11:18:00.000Z</time>
      </trkpt>
      <trkpt lat="43.65373" lon="3.36132">
        <ele>286.4</ele>
        <time>2026-05-17T11:18:01.000Z</time>
      </trkpt>
      <trkpt lat="43.65373" lon="3.36131">
        <ele>286.2</ele>
        <time>2026-05-17T11:18:02.000Z</time>
      </trkpt>
      <trkpt lat="43.65373" lon="3.36131">
        <ele>285.9</ele>
        <time>2026-05-17T11:18:03.000Z</time>
      </trkpt>
      <trkpt lat="43.65373" lon="3.36131">
        <ele>285.7</ele>
        <time>2026-05-17T11:18:04.000Z</time>
      </trkpt>
      <trkpt lat="43.65373" lon="3.36131">
        <ele>285.4</ele>
        <time>2026-05-17T11:18:05.000Z</time>
      </trkpt>
      <trkpt lat="43.65373" lon="3.36131">
        <ele>285.3</ele>
        <time>2026-05-17T11:18:06.000Z</time>
      </trkpt>
      <trkpt lat="43.65373" lon="3.36131">
        <ele>285.3</ele>
        <time>2026-05-17T11:18:07.000Z</time>
      </trkpt>
      <trkpt lat="43.65375" lon="3.36132">
        <ele>285</ele>
        <time>2026-05-17T11:18:08.000Z</time>
      </trkpt>
      <trkpt lat="43.65375" lon="3.36132">
        <ele>284.8</ele>
        <time>2026-05-17T11:18:09.000Z</time>
      </trkpt>
      <trkpt lat="43.65376" lon="3.36133">
        <ele>284.6</ele>
        <time>2026-05-17T11:18:10.000Z</time>
      </trkpt>
      <trkpt lat="43.65377" lon="3.36135">
        <ele>284.6</ele>
        <time>2026-05-17T11:18:11.000Z</time>
      </trkpt>
      <trkpt lat="43.65378" lon="3.36137">
        <ele>284.4</ele>
        <time>2026-05-17T11:18:12.000Z</time>
      </trkpt>
      <trkpt lat="43.65378" lon="3.36139">
        <ele>284.3</ele>
        <time>2026-05-17T11:18:13.000Z</time>
      </trkpt>
      <trkpt lat="43.6538" lon="3.3614">
        <ele>284.4</ele>
        <time>2026-05-17T11:18:14.000Z</time>
      </trkpt>
      <trkpt lat="43.65381" lon="3.36142">
        <ele>284.7</ele>
        <time>2026-05-17T11:18:15.000Z</time>
      </trkpt>
      <trkpt lat="43.65382" lon="3.36142">
        <ele>284.6</ele>
        <time>2026-05-17T11:18:16.000Z</time>
      </trkpt>
      <trkpt lat="43.65383" lon="3.36142">
        <ele>284.6</ele>
        <time>2026-05-17T11:18:17.000Z</time>
      </trkpt>
      <trkpt lat="43.65383" lon="3.36142">
        <ele>284.6</ele>
        <time>2026-05-17T11:18:18.000Z</time>
      </trkpt>
      <trkpt lat="43.65382" lon="3.36141">
        <ele>284.2</ele>
        <time>2026-05-17T11:18:19.000Z</time>
      </trkpt>
      <trkpt lat="43.65382" lon="3.36141">
        <ele>284.4</ele>
        <time>2026-05-17T11:18:20.000Z</time>
      </trkpt>
      <trkpt lat="43.65382" lon="3.36141">
        <ele>284.8</ele>
        <time>2026-05-17T11:18:21.000Z</time>
      </trkpt>
      <trkpt lat="43.65381" lon="3.36141">
        <ele>284.9</ele>
        <time>2026-05-17T11:18:22.000Z</time>
      </trkpt>
      <trkpt lat="43.6538" lon="3.3614">
        <ele>285.1</ele>
        <time>2026-05-17T11:18:23.000Z</time>
      </trkpt>
      <trkpt lat="43.65379" lon="3.3614">
        <ele>285.4</ele>
        <time>2026-05-17T11:18:24.000Z</time>
      </trkpt>
      <trkpt lat="43.65378" lon="3.36139">
        <ele>285.1</ele>
        <time>2026-05-17T11:18:25.000Z</time>
      </trkpt>
      <trkpt lat="43.65378" lon="3.36138">
        <ele>284.8</ele>
        <time>2026-05-17T11:18:26.000Z</time>
      </trkpt>
      <trkpt lat="43.65378" lon="3.36137">
        <ele>284.5</ele>
        <time>2026-05-17T11:18:27.000Z</time>
      </trkpt>
      <trkpt lat="43.65378" lon="3.36137">
        <ele>283.8</ele>
        <time>2026-05-17T11:18:28.000Z</time>
      </trkpt>
      <trkpt lat="43.65378" lon="3.36137">
        <ele>283.7</ele>
        <time>2026-05-17T11:18:29.000Z</time>
      </trkpt>
      <trkpt lat="43.65378" lon="3.36137">
        <ele>283.7</ele>
        <time>2026-05-17T11:18:30.000Z</time>
      </trkpt>
      <trkpt lat="43.65378" lon="3.36136">
        <ele>283.6</ele>
        <time>2026-05-17T11:18:31.000Z</time>
      </trkpt>
      <trkpt lat="43.65378" lon="3.36136">
        <ele>283.5</ele>
        <time>2026-05-17T11:18:32.000Z</time>
      </trkpt>
      <trkpt lat="43.65378" lon="3.36136">
        <ele>283.4</ele>
        <time>2026-05-17T11:18:33.000Z</time>
      </trkpt>
      <trkpt lat="43.65378" lon="3.36135">
        <ele>283.3</ele>
        <time>2026-05-17T11:18:34.000Z</time>
      </trkpt>
      <trkpt lat="43.65378" lon="3.36135">
        <ele>283.3</ele>
        <time>2026-05-17T11:18:35.000Z</time>
      </trkpt>
      <trkpt lat="43.65379" lon="3.36134">
        <ele>283.2</ele>
        <time>2026-05-17T11:18:36.000Z</time>
      </trkpt>
      <trkpt lat="43.65379" lon="3.36134">
        <ele>282.9</ele>
        <time>2026-05-17T11:18:37.000Z</time>
      </trkpt>
      <trkpt lat="43.6538" lon="3.36134">
        <ele>282.7</ele>
        <time>2026-05-17T11:18:38.000Z</time>
      </trkpt>
      <trkpt lat="43.65381" lon="3.36135">
        <ele>282.6</ele>
        <time>2026-05-17T11:18:39.000Z</time>
      </trkpt>
      <trkpt lat="43.65381" lon="3.36136">
        <ele>283.1</ele>
        <time>2026-05-17T11:18:40.000Z</time>
      </trkpt>
      <trkpt lat="43.65382" lon="3.36139">
        <ele>283.1</ele>
        <time>2026-05-17T11:18:41.000Z</time>
      </trkpt>
      <trkpt lat="43.65383" lon="3.36141">
        <ele>283.6</ele>
        <time>2026-05-17T11:18:42.000Z</time>
      </trkpt>
      <trkpt lat="43.65383" lon="3.36142">
        <ele>283.7</ele>
        <time>2026-05-17T11:18:43.000Z</time>
      </trkpt>
      <trkpt lat="43.65384" lon="3.36144">
        <ele>284.2</ele>
        <time>2026-05-17T11:18:44.000Z</time>
      </trkpt>
      <trkpt lat="43.65385" lon="3.36145">
        <ele>284.2</ele>
        <time>2026-05-17T11:18:45.000Z</time>
      </trkpt>
      <trkpt lat="43.65385" lon="3.36145">
        <ele>284.2</ele>
        <time>2026-05-17T11:18:46.000Z</time>
      </trkpt>
      <trkpt lat="43.65386" lon="3.36144">
        <ele>283.9</ele>
        <time>2026-05-17T11:18:47.000Z</time>
      </trkpt>
      <trkpt lat="43.65386" lon="3.36144">
        <ele>283.6</ele>
        <time>2026-05-17T11:18:48.000Z</time>
      </trkpt>
      <trkpt lat="43.65387" lon="3.36143">
        <ele>283.3</ele>
        <time>2026-05-17T11:18:49.000Z</time>
      </trkpt>
      <trkpt lat="43.65388" lon="3.36143">
        <ele>283.4</ele>
        <time>2026-05-17T11:18:50.000Z</time>
      </trkpt>
      <trkpt lat="43.65388" lon="3.36143">
        <ele>283.3</ele>
        <time>2026-05-17T11:18:51.000Z</time>
      </trkpt>
      <trkpt lat="43.65389" lon="3.36143">
        <ele>283.5</ele>
        <time>2026-05-17T11:18:52.000Z</time>
      </trkpt>
      <trkpt lat="43.6539" lon="3.36143">
        <ele>283.5</ele>
        <time>2026-05-17T11:18:53.000Z</time>
      </trkpt>
      <trkpt lat="43.65391" lon="3.36143">
        <ele>283.5</ele>
        <time>2026-05-17T11:18:54.000Z</time>
      </trkpt>
      <trkpt lat="43.65391" lon="3.36143">
        <ele>282.1</ele>
        <time>2026-05-17T11:18:55.000Z</time>
      </trkpt>
      <trkpt lat="43.65391" lon="3.36143">
        <ele>282.3</ele>
        <time>2026-05-17T11:18:56.000Z</time>
      </trkpt>
      <trkpt lat="43.65391" lon="3.36143">
        <ele>282.6</ele>
        <time>2026-05-17T11:18:57.000Z</time>
      </trkpt>
      <trkpt lat="43.65391" lon="3.36143">
        <ele>282.7</ele>
        <time>2026-05-17T11:18:58.000Z</time>
      </trkpt>
      <trkpt lat="43.65391" lon="3.36143">
        <ele>282.6</ele>
        <time>2026-05-17T11:18:59.000Z</time>
      </trkpt>
      <trkpt lat="43.65391" lon="3.36142">
        <ele>282.5</ele>
        <time>2026-05-17T11:19:00.000Z</time>
      </trkpt>
      <trkpt lat="43.65391" lon="3.36141">
        <ele>282.6</ele>
        <time>2026-05-17T11:19:01.000Z</time>
      </trkpt>
      <trkpt lat="43.65391" lon="3.3614">
        <ele>282.7</ele>
        <time>2026-05-17T11:19:02.000Z</time>
      </trkpt>
      <trkpt lat="43.65391" lon="3.36139">
        <ele>282.9</ele>
        <time>2026-05-17T11:19:03.000Z</time>
      </trkpt>
      <trkpt lat="43.6539" lon="3.36139">
        <ele>283.1</ele>
        <time>2026-05-17T11:19:04.000Z</time>
      </trkpt>
      <trkpt lat="43.6539" lon="3.36138">
        <ele>283.3</ele>
        <time>2026-05-17T11:19:05.000Z</time>
      </trkpt>
      <trkpt lat="43.65391" lon="3.36138">
        <ele>283.2</ele>
        <time>2026-05-17T11:19:06.000Z</time>
      </trkpt>
      <trkpt lat="43.65392" lon="3.36137">
        <ele>283.2</ele>
        <time>2026-05-17T11:19:07.000Z</time>
      </trkpt>
      <trkpt lat="43.65392" lon="3.36138">
        <ele>283.4</ele>
        <time>2026-05-17T11:19:08.000Z</time>
      </trkpt>
      <trkpt lat="43.65393" lon="3.36138">
        <ele>283.5</ele>
        <time>2026-05-17T11:19:09.000Z</time>
      </trkpt>
      <trkpt lat="43.65393" lon="3.36137">
        <ele>283.9</ele>
        <time>2026-05-17T11:19:10.000Z</time>
      </trkpt>
      <trkpt lat="43.65393" lon="3.36137">
        <ele>283.8</ele>
        <time>2026-05-17T11:19:11.000Z</time>
      </trkpt>
      <trkpt lat="43.65393" lon="3.36137">
        <ele>283.7</ele>
        <time>2026-05-17T11:19:12.000Z</time>
      </trkpt>
      <trkpt lat="43.65393" lon="3.36137">
        <ele>283.8</ele>
        <time>2026-05-17T11:19:13.000Z</time>
      </trkpt>
      <trkpt lat="43.65393" lon="3.36137">
        <ele>283.9</ele>
        <time>2026-05-17T11:19:14.000Z</time>
      </trkpt>
      <trkpt lat="43.65393" lon="3.36137">
        <ele>284</ele>
        <time>2026-05-17T11:19:16.000Z</time>
      </trkpt>
      <trkpt lat="43.65393" lon="3.36137">
        <ele>283.8</ele>
        <time>2026-05-17T11:19:17.000Z</time>
      </trkpt>
      <trkpt lat="43.65393" lon="3.36137">
        <ele>283.7</ele>
        <time>2026-05-17T11:19:18.000Z</time>
      </trkpt>
      <trkpt lat="43.65393" lon="3.36137">
        <ele>283.7</ele>
        <time>2026-05-17T11:19:19.000Z</time>
      </trkpt>
      <trkpt lat="43.65393" lon="3.36137">
        <ele>283.4</ele>
        <time>2026-05-17T11:19:20.000Z</time>
      </trkpt>
      <trkpt lat="43.65393" lon="3.36137">
        <ele>283.3</ele>
        <time>2026-05-17T11:19:21.000Z</time>
      </trkpt>
      <trkpt lat="43.65393" lon="3.36137">
        <ele>283.4</ele>
        <time>2026-05-17T11:19:22.000Z</time>
      </trkpt>
      <trkpt lat="43.65393" lon="3.36137">
        <ele>283.6</ele>
        <time>2026-05-17T11:19:23.000Z</time>
      </trkpt>
      <trkpt lat="43.65393" lon="3.36137">
        <ele>283.7</ele>
        <time>2026-05-17T11:19:24.000Z</time>
      </trkpt>
      <trkpt lat="43.65393" lon="3.36137">
        <ele>283.7</ele>
        <time>2026-05-17T11:19:25.000Z</time>
      </trkpt>
      <trkpt lat="43.65393" lon="3.36138">
        <ele>283.7</ele>
        <time>2026-05-17T11:19:26.000Z</time>
      </trkpt>
      <trkpt lat="43.65394" lon="3.36138">
        <ele>283.7</ele>
        <time>2026-05-17T11:19:27.000Z</time>
      </trkpt>
      <trkpt lat="43.65394" lon="3.36138">
        <ele>283.8</ele>
        <time>2026-05-17T11:19:28.000Z</time>
      </trkpt>
      <trkpt lat="43.65394" lon="3.36138">
        <ele>283.4</ele>
        <time>2026-05-17T11:19:29.000Z</time>
      </trkpt>
      <trkpt lat="43.65394" lon="3.36138">
        <ele>283.4</ele>
        <time>2026-05-17T11:19:30.000Z</time>
      </trkpt>
      <trkpt lat="43.65394" lon="3.36138">
        <ele>283.1</ele>
        <time>2026-05-17T11:19:31.000Z</time>
      </trkpt>
      <trkpt lat="43.65394" lon="3.36138">
        <ele>282.9</ele>
        <time>2026-05-17T11:19:32.000Z</time>
      </trkpt>
      <trkpt lat="43.65394" lon="3.36138">
        <ele>282.9</ele>
        <time>2026-05-17T11:19:33.000Z</time>
      </trkpt>
      <trkpt lat="43.65394" lon="3.36138">
        <ele>282.8</ele>
        <time>2026-05-17T11:19:34.000Z</time>
      </trkpt>
      <trkpt lat="43.65394" lon="3.36138">
        <ele>282.7</ele>
        <time>2026-05-17T11:19:35.000Z</time>
      </trkpt>
      <trkpt lat="43.65393" lon="3.36139">
        <ele>282.7</ele>
        <time>2026-05-17T11:19:36.000Z</time>
      </trkpt>
      <trkpt lat="43.65393" lon="3.36139">
        <ele>282.7</ele>
        <time>2026-05-17T11:19:37.000Z</time>
      </trkpt>
      <trkpt lat="43.65394" lon="3.36139">
        <ele>282.8</ele>
        <time>2026-05-17T11:19:38.000Z</time>
      </trkpt>
      <trkpt lat="43.65394" lon="3.36139">
        <ele>283.2</ele>
        <time>2026-05-17T11:19:39.000Z</time>
      </trkpt>
      <trkpt lat="43.65394" lon="3.36138">
        <ele>283.2</ele>
        <time>2026-05-17T11:19:40.000Z</time>
      </trkpt>
      <trkpt lat="43.65394" lon="3.36138">
        <ele>283.1</ele>
        <time>2026-05-17T11:19:41.000Z</time>
      </trkpt>
      <trkpt lat="43.65394" lon="3.36137">
        <ele>283.2</ele>
        <time>2026-05-17T11:19:42.000Z</time>
      </trkpt>
      <trkpt lat="43.65394" lon="3.36137">
        <ele>284</ele>
        <time>2026-05-17T11:19:43.000Z</time>
      </trkpt>
      <trkpt lat="43.65394" lon="3.36138">
        <ele>284.1</ele>
        <time>2026-05-17T11:19:44.000Z</time>
      </trkpt>
      <trkpt lat="43.65394" lon="3.36138">
        <ele>284.1</ele>
        <time>2026-05-17T11:19:45.000Z</time>
      </trkpt>
      <trkpt lat="43.65394" lon="3.36138">
        <ele>284</ele>
        <time>2026-05-17T11:19:46.000Z</time>
      </trkpt>
      <trkpt lat="43.65394" lon="3.36138">
        <ele>284.3</ele>
        <time>2026-05-17T11:19:47.000Z</time>
      </trkpt>
      <trkpt lat="43.65394" lon="3.36138">
        <ele>284.2</ele>
        <time>2026-05-17T11:19:48.000Z</time>
      </trkpt>
      <trkpt lat="43.65394" lon="3.36139">
        <ele>283.9</ele>
        <time>2026-05-17T11:19:49.000Z</time>
      </trkpt>
      <trkpt lat="43.65394" lon="3.36139">
        <ele>283.7</ele>
        <time>2026-05-17T11:19:50.000Z</time>
      </trkpt>
      <trkpt lat="43.65394" lon="3.36139">
        <ele>283.3</ele>
        <time>2026-05-17T11:19:51.000Z</time>
      </trkpt>
      <trkpt lat="43.65394" lon="3.36139">
        <ele>283.1</ele>
        <time>2026-05-17T11:19:52.000Z</time>
      </trkpt>
      <trkpt lat="43.65394" lon="3.36139">
        <ele>282.8</ele>
        <time>2026-05-17T11:19:53.000Z</time>
      </trkpt>
      <trkpt lat="43.65394" lon="3.36139">
        <ele>282.7</ele>
        <time>2026-05-17T11:19:54.000Z</time>
      </trkpt>
      <trkpt lat="43.65394" lon="3.36139">
        <ele>282.6</ele>
        <time>2026-05-17T11:19:55.000Z</time>
      </trkpt>
      <trkpt lat="43.65394" lon="3.36139">
        <ele>282.7</ele>
        <time>2026-05-17T11:19:56.000Z</time>
      </trkpt>
      <trkpt lat="43.65394" lon="3.36138">
        <ele>282.9</ele>
        <time>2026-05-17T11:19:57.000Z</time>
      </trkpt>
      <trkpt lat="43.65394" lon="3.36138">
        <ele>283.4</ele>
        <time>2026-05-17T11:19:58.000Z</time>
      </trkpt>
      <trkpt lat="43.65394" lon="3.36138">
        <ele>283.6</ele>
        <time>2026-05-17T11:19:59.000Z</time>
      </trkpt>
      <trkpt lat="43.65394" lon="3.36138">
        <ele>283.6</ele>
        <time>2026-05-17T11:20:00.000Z</time>
      </trkpt>
      <trkpt lat="43.65394" lon="3.36138">
        <ele>283.4</ele>
        <time>2026-05-17T11:20:01.000Z</time>
      </trkpt>
      <trkpt lat="43.65394" lon="3.36138">
        <ele>283.3</ele>
        <time>2026-05-17T11:20:02.000Z</time>
      </trkpt>
      <trkpt lat="43.65394" lon="3.36138">
        <ele>283.6</ele>
        <time>2026-05-17T11:20:03.000Z</time>
      </trkpt>
      <trkpt lat="43.65394" lon="3.36138">
        <ele>283.7</ele>
        <time>2026-05-17T11:20:04.000Z</time>
      </trkpt>
      <trkpt lat="43.65394" lon="3.36138">
        <ele>283.6</ele>
        <time>2026-05-17T11:20:05.000Z</time>
      </trkpt>
      <trkpt lat="43.65394" lon="3.36136">
        <ele>283.5</ele>
        <time>2026-05-17T11:20:06.000Z</time>
      </trkpt>
      <trkpt lat="43.65393" lon="3.36135">
        <ele>283.6</ele>
        <time>2026-05-17T11:20:07.000Z</time>
      </trkpt>
      <trkpt lat="43.65393" lon="3.36134">
        <ele>283.6</ele>
        <time>2026-05-17T11:20:08.000Z</time>
      </trkpt>
      <trkpt lat="43.65393" lon="3.36133">
        <ele>283.7</ele>
        <time>2026-05-17T11:20:09.000Z</time>
      </trkpt>
      <trkpt lat="43.65393" lon="3.36132">
        <ele>283.6</ele>
        <time>2026-05-17T11:20:10.000Z</time>
      </trkpt>
      <trkpt lat="43.65392" lon="3.36131">
        <ele>283.8</ele>
        <time>2026-05-17T11:20:11.000Z</time>
      </trkpt>
      <trkpt lat="43.65392" lon="3.36131">
        <ele>284.1</ele>
        <time>2026-05-17T11:20:12.000Z</time>
      </trkpt>
      <trkpt lat="43.65391" lon="3.3613">
        <ele>283.9</ele>
        <time>2026-05-17T11:20:13.000Z</time>
      </trkpt>
      <trkpt lat="43.65391" lon="3.3613">
        <ele>283.8</ele>
        <time>2026-05-17T11:20:14.000Z</time>
      </trkpt>
      <trkpt lat="43.6539" lon="3.36129">
        <ele>283.7</ele>
        <time>2026-05-17T11:20:15.000Z</time>
      </trkpt>
      <trkpt lat="43.65388" lon="3.36128">
        <ele>283.7</ele>
        <time>2026-05-17T11:20:16.000Z</time>
      </trkpt>
      <trkpt lat="43.65388" lon="3.36128">
        <ele>283.9</ele>
        <time>2026-05-17T11:20:17.000Z</time>
      </trkpt>
      <trkpt lat="43.65389" lon="3.36127">
        <ele>283.9</ele>
        <time>2026-05-17T11:20:18.000Z</time>
      </trkpt>
      <trkpt lat="43.65389" lon="3.36126">
        <ele>283.8</ele>
        <time>2026-05-17T11:20:19.000Z</time>
      </trkpt>
      <trkpt lat="43.65388" lon="3.36126">
        <ele>284</ele>
        <time>2026-05-17T11:20:20.000Z</time>
      </trkpt>
      <trkpt lat="43.65388" lon="3.36126">
        <ele>283.8</ele>
        <time>2026-05-17T11:20:21.000Z</time>
      </trkpt>
      <trkpt lat="43.65386" lon="3.36126">
        <ele>283.7</ele>
        <time>2026-05-17T11:20:22.000Z</time>
      </trkpt>
      <trkpt lat="43.65385" lon="3.36126">
        <ele>283.6</ele>
        <time>2026-05-17T11:20:23.000Z</time>
      </trkpt>
      <trkpt lat="43.65384" lon="3.36127">
        <ele>283.6</ele>
        <time>2026-05-17T11:20:24.000Z</time>
      </trkpt>
      <trkpt lat="43.65383" lon="3.36128">
        <ele>283.8</ele>
        <time>2026-05-17T11:20:25.000Z</time>
      </trkpt>
      <trkpt lat="43.65383" lon="3.36128">
        <ele>283.8</ele>
        <time>2026-05-17T11:20:26.000Z</time>
      </trkpt>
      <trkpt lat="43.65382" lon="3.36128">
        <ele>283.5</ele>
        <time>2026-05-17T11:20:27.000Z</time>
      </trkpt>
      <trkpt lat="43.65382" lon="3.36127">
        <ele>283.7</ele>
        <time>2026-05-17T11:20:28.000Z</time>
      </trkpt>
      <trkpt lat="43.65381" lon="3.36125">
        <ele>283.8</ele>
        <time>2026-05-17T11:20:29.000Z</time>
      </trkpt>
      <trkpt lat="43.65381" lon="3.36125">
        <ele>283.7</ele>
        <time>2026-05-17T11:20:30.000Z</time>
      </trkpt>
      <trkpt lat="43.6538" lon="3.36124">
        <ele>283.6</ele>
        <time>2026-05-17T11:20:31.000Z</time>
      </trkpt>
      <trkpt lat="43.65379" lon="3.36121">
        <ele>283.7</ele>
        <time>2026-05-17T11:20:32.000Z</time>
      </trkpt>
      <trkpt lat="43.65378" lon="3.36121">
        <ele>283.7</ele>
        <time>2026-05-17T11:20:33.000Z</time>
      </trkpt>
      <trkpt lat="43.65377" lon="3.3612">
        <ele>283.7</ele>
        <time>2026-05-17T11:20:34.000Z</time>
      </trkpt>
      <trkpt lat="43.65376" lon="3.36119">
        <ele>283.7</ele>
        <time>2026-05-17T11:20:35.000Z</time>
      </trkpt>
      <trkpt lat="43.65376" lon="3.36119">
        <ele>283.7</ele>
        <time>2026-05-17T11:20:36.000Z</time>
      </trkpt>
      <trkpt lat="43.65375" lon="3.36119">
        <ele>284</ele>
        <time>2026-05-17T11:20:37.000Z</time>
      </trkpt>
      <trkpt lat="43.65375" lon="3.36118">
        <ele>284.2</ele>
        <time>2026-05-17T11:20:38.000Z</time>
      </trkpt>
      <trkpt lat="43.65375" lon="3.36118">
        <ele>284</ele>
        <time>2026-05-17T11:20:39.000Z</time>
      </trkpt>
      <trkpt lat="43.65376" lon="3.36118">
        <ele>284.3</ele>
        <time>2026-05-17T11:20:40.000Z</time>
      </trkpt>
      <trkpt lat="43.65376" lon="3.36118">
        <ele>285.3</ele>
        <time>2026-05-17T11:20:41.000Z</time>
      </trkpt>
      <trkpt lat="43.65376" lon="3.36118">
        <ele>285.3</ele>
        <time>2026-05-17T11:20:42.000Z</time>
      </trkpt>
      <trkpt lat="43.65376" lon="3.36118">
        <ele>285.2</ele>
        <time>2026-05-17T11:20:43.000Z</time>
      </trkpt>
      <trkpt lat="43.65376" lon="3.36118">
        <ele>285.2</ele>
        <time>2026-05-17T11:20:44.000Z</time>
      </trkpt>
      <trkpt lat="43.65376" lon="3.36118">
        <ele>285.3</ele>
        <time>2026-05-17T11:20:45.000Z</time>
      </trkpt>
      <trkpt lat="43.65376" lon="3.36118">
        <ele>285</ele>
        <time>2026-05-17T11:20:46.000Z</time>
      </trkpt>
      <trkpt lat="43.65376" lon="3.36118">
        <ele>285</ele>
        <time>2026-05-17T11:20:47.000Z</time>
      </trkpt>
      <trkpt lat="43.65376" lon="3.36118">
        <ele>284.7</ele>
        <time>2026-05-17T11:20:48.000Z</time>
      </trkpt>
      <trkpt lat="43.65376" lon="3.36118">
        <ele>284.5</ele>
        <time>2026-05-17T11:20:49.000Z</time>
      </trkpt>
      <trkpt lat="43.65376" lon="3.36118">
        <ele>284.6</ele>
        <time>2026-05-17T11:20:50.000Z</time>
      </trkpt>
      <trkpt lat="43.65377" lon="3.36118">
        <ele>284.7</ele>
        <time>2026-05-17T11:20:51.000Z</time>
      </trkpt>
      <trkpt lat="43.65376" lon="3.36118">
        <ele>284.9</ele>
        <time>2026-05-17T11:20:52.000Z</time>
      </trkpt>
      <trkpt lat="43.65376" lon="3.36118">
        <ele>285.2</ele>
        <time>2026-05-17T11:20:53.000Z</time>
      </trkpt>
      <trkpt lat="43.65376" lon="3.36118">
        <ele>285.5</ele>
        <time>2026-05-17T11:20:54.000Z</time>
      </trkpt>
      <trkpt lat="43.65376" lon="3.36118">
        <ele>285.6</ele>
        <time>2026-05-17T11:20:55.000Z</time>
      </trkpt>
      <trkpt lat="43.65376" lon="3.36118">
        <ele>285.6</ele>
        <time>2026-05-17T11:20:56.000Z</time>
      </trkpt>
      <trkpt lat="43.65376" lon="3.36118">
        <ele>285.7</ele>
        <time>2026-05-17T11:20:57.000Z</time>
      </trkpt>
      <trkpt lat="43.65376" lon="3.36117">
        <ele>285.7</ele>
        <time>2026-05-17T11:20:58.000Z</time>
      </trkpt>
      <trkpt lat="43.65376" lon="3.36117">
        <ele>285.6</ele>
        <time>2026-05-17T11:20:59.000Z</time>
      </trkpt>
      <trkpt lat="43.65376" lon="3.36116">
        <ele>285.5</ele>
        <time>2026-05-17T11:21:00.000Z</time>
      </trkpt>
      <trkpt lat="43.65376" lon="3.36116">
        <ele>285.2</ele>
        <time>2026-05-17T11:21:01.000Z</time>
      </trkpt>
      <trkpt lat="43.65376" lon="3.36116">
        <ele>285.2</ele>
        <time>2026-05-17T11:21:02.000Z</time>
      </trkpt>
      <trkpt lat="43.65376" lon="3.36116">
        <ele>285.1</ele>
        <time>2026-05-17T11:21:03.000Z</time>
      </trkpt>
      <trkpt lat="43.65376" lon="3.36116">
        <ele>284.8</ele>
        <time>2026-05-17T11:21:04.000Z</time>
      </trkpt>
      <trkpt lat="43.65376" lon="3.36116">
        <ele>284.6</ele>
        <time>2026-05-17T11:21:05.000Z</time>
      </trkpt>
      <trkpt lat="43.65376" lon="3.36116">
        <ele>284.4</ele>
        <time>2026-05-17T11:21:06.000Z</time>
      </trkpt>
      <trkpt lat="43.65376" lon="3.36116">
        <ele>284.5</ele>
        <time>2026-05-17T11:21:07.000Z</time>
      </trkpt>
      <trkpt lat="43.65376" lon="3.36116">
        <ele>284.5</ele>
        <time>2026-05-17T11:21:08.000Z</time>
      </trkpt>
      <trkpt lat="43.65376" lon="3.36116">
        <ele>284.6</ele>
        <time>2026-05-17T11:21:09.000Z</time>
      </trkpt>
      <trkpt lat="43.65376" lon="3.36116">
        <ele>284.6</ele>
        <time>2026-05-17T11:21:10.000Z</time>
      </trkpt>
      <trkpt lat="43.65376" lon="3.36116">
        <ele>285.2</ele>
        <time>2026-05-17T11:21:11.000Z</time>
      </trkpt>
      <trkpt lat="43.65377" lon="3.36116">
        <ele>285.9</ele>
        <time>2026-05-17T11:21:12.000Z</time>
      </trkpt>
      <trkpt lat="43.65377" lon="3.36116">
        <ele>286.5</ele>
        <time>2026-05-17T11:21:13.000Z</time>
      </trkpt>
      <trkpt lat="43.65377" lon="3.36116">
        <ele>287.1</ele>
        <time>2026-05-17T11:21:14.000Z</time>
      </trkpt>
      <trkpt lat="43.65377" lon="3.36116">
        <ele>287.7</ele>
        <time>2026-05-17T11:21:15.000Z</time>
      </trkpt>
      <trkpt lat="43.65377" lon="3.36116">
        <ele>288.1</ele>
        <time>2026-05-17T11:21:16.000Z</time>
      </trkpt>
      <trkpt lat="43.65377" lon="3.36116">
        <ele>288.5</ele>
        <time>2026-05-17T11:21:17.000Z</time>
      </trkpt>
      <trkpt lat="43.65377" lon="3.36116">
        <ele>288.7</ele>
        <time>2026-05-17T11:21:18.000Z</time>
      </trkpt>
      <trkpt lat="43.65377" lon="3.36116">
        <ele>289.1</ele>
        <time>2026-05-17T11:21:19.000Z</time>
      </trkpt>
      <trkpt lat="43.65377" lon="3.36116">
        <ele>289.2</ele>
        <time>2026-05-17T11:21:20.000Z</time>
      </trkpt>
      <trkpt lat="43.65378" lon="3.36116">
        <ele>289.3</ele>
        <time>2026-05-17T11:21:21.000Z</time>
      </trkpt>
      <trkpt lat="43.65378" lon="3.36116">
        <ele>289.6</ele>
        <time>2026-05-17T11:21:22.000Z</time>
      </trkpt>
      <trkpt lat="43.65378" lon="3.36116">
        <ele>289.8</ele>
        <time>2026-05-17T11:21:23.000Z</time>
      </trkpt>
      <trkpt lat="43.65378" lon="3.36116">
        <ele>290.1</ele>
        <time>2026-05-17T11:21:24.000Z</time>
      </trkpt>
      <trkpt lat="43.65378" lon="3.36116">
        <ele>290.6</ele>
        <time>2026-05-17T11:21:25.000Z</time>
      </trkpt>
      <trkpt lat="43.65378" lon="3.36116">
        <ele>290.9</ele>
        <time>2026-05-17T11:21:26.000Z</time>
      </trkpt>
      <trkpt lat="43.65378" lon="3.36116">
        <ele>291.2</ele>
        <time>2026-05-17T11:21:27.000Z</time>
      </trkpt>
      <trkpt lat="43.65378" lon="3.36116">
        <ele>291.5</ele>
        <time>2026-05-17T11:21:28.000Z</time>
      </trkpt>
      <trkpt lat="43.65378" lon="3.36116">
        <ele>292.1</ele>
        <time>2026-05-17T11:21:29.000Z</time>
      </trkpt>
      <trkpt lat="43.65378" lon="3.36116">
        <ele>292.4</ele>
        <time>2026-05-17T11:21:30.000Z</time>
      </trkpt>
      <trkpt lat="43.65378" lon="3.36116">
        <ele>292.8</ele>
        <time>2026-05-17T11:21:31.000Z</time>
      </trkpt>
      <trkpt lat="43.65378" lon="3.36116">
        <ele>292.9</ele>
        <time>2026-05-17T11:21:32.000Z</time>
      </trkpt>
      <trkpt lat="43.65378" lon="3.36116">
        <ele>293.1</ele>
        <time>2026-05-17T11:21:33.000Z</time>
      </trkpt>
      <trkpt lat="43.65379" lon="3.36116">
        <ele>293.5</ele>
        <time>2026-05-17T11:21:34.000Z</time>
      </trkpt>
      <trkpt lat="43.65379" lon="3.36116">
        <ele>293.8</ele>
        <time>2026-05-17T11:21:35.000Z</time>
      </trkpt>
      <trkpt lat="43.65379" lon="3.36116">
        <ele>294.1</ele>
        <time>2026-05-17T11:21:36.000Z</time>
      </trkpt>
      <trkpt lat="43.65379" lon="3.36116">
        <ele>294.1</ele>
        <time>2026-05-17T11:21:37.000Z</time>
      </trkpt>
      <trkpt lat="43.65379" lon="3.36116">
        <ele>294.2</ele>
        <time>2026-05-17T11:21:38.000Z</time>
      </trkpt>
      <trkpt lat="43.65379" lon="3.36116">
        <ele>294.3</ele>
        <time>2026-05-17T11:21:39.000Z</time>
      </trkpt>
      <trkpt lat="43.65379" lon="3.36116">
        <ele>294.5</ele>
        <time>2026-05-17T11:21:40.000Z</time>
      </trkpt>
      <trkpt lat="43.65379" lon="3.36116">
        <ele>294.7</ele>
        <time>2026-05-17T11:21:41.000Z</time>
      </trkpt>
      <trkpt lat="43.65379" lon="3.36116">
        <ele>295.1</ele>
        <time>2026-05-17T11:21:42.000Z</time>
      </trkpt>
      <trkpt lat="43.65379" lon="3.36116">
        <ele>295.3</ele>
        <time>2026-05-17T11:21:43.000Z</time>
      </trkpt>
      <trkpt lat="43.65379" lon="3.36116">
        <ele>295.6</ele>
        <time>2026-05-17T11:21:44.000Z</time>
      </trkpt>
      <trkpt lat="43.65379" lon="3.36116">
        <ele>295.8</ele>
        <time>2026-05-17T11:21:45.000Z</time>
      </trkpt>
      <trkpt lat="43.65379" lon="3.36116">
        <ele>295.8</ele>
        <time>2026-05-17T11:21:46.000Z</time>
      </trkpt>
      <trkpt lat="43.65379" lon="3.36116">
        <ele>295.9</ele>
        <time>2026-05-17T11:21:47.000Z</time>
      </trkpt>
      <trkpt lat="43.65379" lon="3.36116">
        <ele>296.1</ele>
        <time>2026-05-17T11:21:48.000Z</time>
      </trkpt>
      <trkpt lat="43.6538" lon="3.36116">
        <ele>296.3</ele>
        <time>2026-05-17T11:21:49.000Z</time>
      </trkpt>
      <trkpt lat="43.6538" lon="3.36116">
        <ele>296.3</ele>
        <time>2026-05-17T11:21:50.000Z</time>
      </trkpt>
      <trkpt lat="43.6538" lon="3.36116">
        <ele>296.4</ele>
        <time>2026-05-17T11:21:51.000Z</time>
      </trkpt>
      <trkpt lat="43.6538" lon="3.36116">
        <ele>296.4</ele>
        <time>2026-05-17T11:21:52.000Z</time>
      </trkpt>
      <trkpt lat="43.6538" lon="3.36116">
        <ele>296.5</ele>
        <time>2026-05-17T11:21:53.000Z</time>
      </trkpt>
      <trkpt lat="43.6538" lon="3.36116">
        <ele>296.6</ele>
        <time>2026-05-17T11:21:54.000Z</time>
      </trkpt>
      <trkpt lat="43.6538" lon="3.36116">
        <ele>296.8</ele>
        <time>2026-05-17T11:21:55.000Z</time>
      </trkpt>
      <trkpt lat="43.6538" lon="3.36116">
        <ele>296.9</ele>
        <time>2026-05-17T11:21:56.000Z</time>
      </trkpt>
      <trkpt lat="43.6538" lon="3.36116">
        <ele>296.9</ele>
        <time>2026-05-17T11:21:57.000Z</time>
      </trkpt>
      <trkpt lat="43.6538" lon="3.36116">
        <ele>297</ele>
        <time>2026-05-17T11:21:58.000Z</time>
      </trkpt>
      <trkpt lat="43.6538" lon="3.36116">
        <ele>297.1</ele>
        <time>2026-05-17T11:21:59.000Z</time>
      </trkpt>
      <trkpt lat="43.6538" lon="3.36116">
        <ele>297.1</ele>
        <time>2026-05-17T11:22:00.000Z</time>
      </trkpt>
      <trkpt lat="43.6538" lon="3.36116">
        <ele>297.2</ele>
        <time>2026-05-17T11:22:01.000Z</time>
      </trkpt>
      <trkpt lat="43.6538" lon="3.36116">
        <ele>297.2</ele>
        <time>2026-05-17T11:22:02.000Z</time>
      </trkpt>
      <trkpt lat="43.6538" lon="3.36116">
        <ele>297.4</ele>
        <time>2026-05-17T11:22:03.000Z</time>
      </trkpt>
      <trkpt lat="43.6538" lon="3.36116">
        <ele>297.8</ele>
        <time>2026-05-17T11:22:04.000Z</time>
      </trkpt>
      <trkpt lat="43.6538" lon="3.36116">
        <ele>297.9</ele>
        <time>2026-05-17T11:22:05.000Z</time>
      </trkpt>
      <trkpt lat="43.6538" lon="3.36116">
        <ele>297.9</ele>
        <time>2026-05-17T11:22:06.000Z</time>
      </trkpt>
      <trkpt lat="43.6538" lon="3.36116">
        <ele>298</ele>
        <time>2026-05-17T11:22:07.000Z</time>
      </trkpt>
      <trkpt lat="43.6538" lon="3.36116">
        <ele>298</ele>
        <time>2026-05-17T11:22:08.000Z</time>
      </trkpt>
      <trkpt lat="43.6538" lon="3.36116">
        <ele>297.9</ele>
        <time>2026-05-17T11:22:09.000Z</time>
      </trkpt>
      <trkpt lat="43.6538" lon="3.36116">
        <ele>297.9</ele>
        <time>2026-05-17T11:22:10.000Z</time>
      </trkpt>
      <trkpt lat="43.6538" lon="3.36116">
        <ele>298</ele>
        <time>2026-05-17T11:22:11.000Z</time>
      </trkpt>
      <trkpt lat="43.6538" lon="3.36116">
        <ele>298.1</ele>
        <time>2026-05-17T11:22:12.000Z</time>
      </trkpt>
      <trkpt lat="43.6538" lon="3.36116">
        <ele>298</ele>
        <time>2026-05-17T11:22:13.000Z</time>
      </trkpt>
      <trkpt lat="43.65381" lon="3.36116">
        <ele>298.1</ele>
        <time>2026-05-17T11:22:14.000Z</time>
      </trkpt>
      <trkpt lat="43.65381" lon="3.36116">
        <ele>298.1</ele>
        <time>2026-05-17T11:22:15.000Z</time>
      </trkpt>
      <trkpt lat="43.65381" lon="3.36116">
        <ele>298.1</ele>
        <time>2026-05-17T11:22:16.000Z</time>
      </trkpt>
      <trkpt lat="43.65381" lon="3.36116">
        <ele>297.9</ele>
        <time>2026-05-17T11:22:17.000Z</time>
      </trkpt>
      <trkpt lat="43.65381" lon="3.36116">
        <ele>297.9</ele>
        <time>2026-05-17T11:22:18.000Z</time>
      </trkpt>
      <trkpt lat="43.65381" lon="3.36116">
        <ele>297.9</ele>
        <time>2026-05-17T11:22:19.000Z</time>
      </trkpt>
      <trkpt lat="43.65381" lon="3.36116">
        <ele>297.8</ele>
        <time>2026-05-17T11:22:20.000Z</time>
      </trkpt>
      <trkpt lat="43.65381" lon="3.36116">
        <ele>297.9</ele>
        <time>2026-05-17T11:22:21.000Z</time>
      </trkpt>
      <trkpt lat="43.65381" lon="3.36116">
        <ele>298.1</ele>
        <time>2026-05-17T11:22:22.000Z</time>
      </trkpt>
      <trkpt lat="43.65381" lon="3.36116">
        <ele>298.3</ele>
        <time>2026-05-17T11:22:23.000Z</time>
      </trkpt>
      <trkpt lat="43.65381" lon="3.36116">
        <ele>298.2</ele>
        <time>2026-05-17T11:22:24.000Z</time>
      </trkpt>
      <trkpt lat="43.65381" lon="3.36116">
        <ele>298.3</ele>
        <time>2026-05-17T11:22:25.000Z</time>
      </trkpt>
      <trkpt lat="43.65381" lon="3.36116">
        <ele>298.3</ele>
        <time>2026-05-17T11:22:26.000Z</time>
      </trkpt>
      <trkpt lat="43.65381" lon="3.36116">
        <ele>298.2</ele>
        <time>2026-05-17T11:22:27.000Z</time>
      </trkpt>
      <trkpt lat="43.65381" lon="3.36116">
        <ele>298.2</ele>
        <time>2026-05-17T11:22:28.000Z</time>
      </trkpt>
      <trkpt lat="43.65381" lon="3.36116">
        <ele>298.1</ele>
        <time>2026-05-17T11:22:29.000Z</time>
      </trkpt>
      <trkpt lat="43.65381" lon="3.36116">
        <ele>297.8</ele>
        <time>2026-05-17T11:22:30.000Z</time>
      </trkpt>
      <trkpt lat="43.65381" lon="3.36116">
        <ele>297.7</ele>
        <time>2026-05-17T11:22:31.000Z</time>
      </trkpt>
      <trkpt lat="43.65381" lon="3.36116">
        <ele>297.7</ele>
        <time>2026-05-17T11:22:32.000Z</time>
      </trkpt>
      <trkpt lat="43.65381" lon="3.36116">
        <ele>297.5</ele>
        <time>2026-05-17T11:22:33.000Z</time>
      </trkpt>
      <trkpt lat="43.65381" lon="3.36116">
        <ele>297.4</ele>
        <time>2026-05-17T11:22:34.000Z</time>
      </trkpt>
      <trkpt lat="43.65381" lon="3.36116">
        <ele>297.5</ele>
        <time>2026-05-17T11:22:35.000Z</time>
      </trkpt>
      <trkpt lat="43.65381" lon="3.36116">
        <ele>297.8</ele>
        <time>2026-05-17T11:22:36.000Z</time>
      </trkpt>
      <trkpt lat="43.65381" lon="3.36116">
        <ele>298.1</ele>
        <time>2026-05-17T11:22:37.000Z</time>
      </trkpt>
      <trkpt lat="43.65381" lon="3.36116">
        <ele>298.2</ele>
        <time>2026-05-17T11:22:38.000Z</time>
      </trkpt>
      <trkpt lat="43.65381" lon="3.36116">
        <ele>298.2</ele>
        <time>2026-05-17T11:22:39.000Z</time>
      </trkpt>
      <trkpt lat="43.65381" lon="3.36116">
        <ele>298.2</ele>
        <time>2026-05-17T11:22:40.000Z</time>
      </trkpt>
      <trkpt lat="43.65381" lon="3.36116">
        <ele>298.1</ele>
        <time>2026-05-17T11:22:41.000Z</time>
      </trkpt>
      <trkpt lat="43.65381" lon="3.36116">
        <ele>298</ele>
        <time>2026-05-17T11:22:42.000Z</time>
      </trkpt>
      <trkpt lat="43.65381" lon="3.36116">
        <ele>297.9</ele>
        <time>2026-05-17T11:22:43.000Z</time>
      </trkpt>
      <trkpt lat="43.65381" lon="3.36116">
        <ele>297.6</ele>
        <time>2026-05-17T11:22:44.999Z</time>
      </trkpt>
      <trkpt lat="43.65381" lon="3.36116">
        <ele>297.6</ele>
        <time>2026-05-17T11:22:45.999Z</time>
      </trkpt>
      <trkpt lat="43.65381" lon="3.36116">
        <ele>297.6</ele>
        <time>2026-05-17T11:22:46.999Z</time>
      </trkpt>
      <trkpt lat="43.65381" lon="3.36116">
        <ele>297.6</ele>
        <time>2026-05-17T11:22:47.999Z</time>
      </trkpt>
      <trkpt lat="43.65381" lon="3.36116">
        <ele>297.9</ele>
        <time>2026-05-17T11:22:48.999Z</time>
      </trkpt>
      <trkpt lat="43.65381" lon="3.36116">
        <ele>297.9</ele>
        <time>2026-05-17T11:22:49.999Z</time>
      </trkpt>
      <trkpt lat="43.65381" lon="3.36116">
        <ele>297.8</ele>
        <time>2026-05-17T11:22:50.999Z</time>
      </trkpt>
      <trkpt lat="43.65381" lon="3.36116">
        <ele>297.7</ele>
        <time>2026-05-17T11:22:51.999Z</time>
      </trkpt>
      <trkpt lat="43.65381" lon="3.36116">
        <ele>297.8</ele>
        <time>2026-05-17T11:22:52.999Z</time>
      </trkpt>
      <trkpt lat="43.65381" lon="3.36116">
        <ele>298</ele>
        <time>2026-05-17T11:22:53.999Z</time>
      </trkpt>
      <trkpt lat="43.65381" lon="3.36116">
        <ele>298</ele>
        <time>2026-05-17T11:22:54.999Z</time>
      </trkpt>
      <trkpt lat="43.65381" lon="3.36116">
        <ele>297.7</ele>
        <time>2026-05-17T11:22:55.999Z</time>
      </trkpt>
      <trkpt lat="43.65381" lon="3.36116">
        <ele>297.5</ele>
        <time>2026-05-17T11:22:56.999Z</time>
      </trkpt>
      <trkpt lat="43.65381" lon="3.36116">
        <ele>297.5</ele>
        <time>2026-05-17T11:22:57.999Z</time>
      </trkpt>
      <trkpt lat="43.65381" lon="3.36116">
        <ele>297.4</ele>
        <time>2026-05-17T11:22:58.999Z</time>
      </trkpt>
      <trkpt lat="43.65381" lon="3.36116">
        <ele>297.6</ele>
        <time>2026-05-17T11:22:59.999Z</time>
      </trkpt>
      <trkpt lat="43.65381" lon="3.36116">
        <ele>297.7</ele>
        <time>2026-05-17T11:23:00.999Z</time>
      </trkpt>
      <trkpt lat="43.65381" lon="3.36116">
        <ele>297.7</ele>
        <time>2026-05-17T11:23:01.999Z</time>
      </trkpt>
      <trkpt lat="43.65381" lon="3.36116">
        <ele>297.7</ele>
        <time>2026-05-17T11:23:02.999Z</time>
      </trkpt>
      <trkpt lat="43.65381" lon="3.36116">
        <ele>297.6</ele>
        <time>2026-05-17T11:23:03.999Z</time>
      </trkpt>
      <trkpt lat="43.65381" lon="3.36116">
        <ele>297.6</ele>
        <time>2026-05-17T11:23:04.999Z</time>
      </trkpt>
      <trkpt lat="43.65381" lon="3.36116">
        <ele>297.7</ele>
        <time>2026-05-17T11:23:05.999Z</time>
      </trkpt>
      <trkpt lat="43.65381" lon="3.36116">
        <ele>297.8</ele>
        <time>2026-05-17T11:23:06.999Z</time>
      </trkpt>
      <trkpt lat="43.65381" lon="3.36116">
        <ele>297.8</ele>
        <time>2026-05-17T11:23:07.999Z</time>
      </trkpt>
      <trkpt lat="43.65381" lon="3.36116">
        <ele>297.7</ele>
        <time>2026-05-17T11:23:08.999Z</time>
      </trkpt>
      <trkpt lat="43.65381" lon="3.36116">
        <ele>297.9</ele>
        <time>2026-05-17T11:23:09.999Z</time>
      </trkpt>
      <trkpt lat="43.65381" lon="3.36116">
        <ele>297.9</ele>
        <time>2026-05-17T11:23:10.999Z</time>
      </trkpt>
      <trkpt lat="43.65381" lon="3.36116">
        <ele>298</ele>
        <time>2026-05-17T11:23:11.999Z</time>
      </trkpt>
      <trkpt lat="43.65381" lon="3.36116">
        <ele>298.3</ele>
        <time>2026-05-17T11:23:12.999Z</time>
      </trkpt>
      <trkpt lat="43.65381" lon="3.36116">
        <ele>298.5</ele>
        <time>2026-05-17T11:23:13.999Z</time>
      </trkpt>
      <trkpt lat="43.65381" lon="3.36116">
        <ele>298.6</ele>
        <time>2026-05-17T11:23:14.999Z</time>
      </trkpt>
      <trkpt lat="43.65381" lon="3.36116">
        <ele>298.6</ele>
        <time>2026-05-17T11:23:15.999Z</time>
      </trkpt>
      <trkpt lat="43.65381" lon="3.36116">
        <ele>298.6</ele>
        <time>2026-05-17T11:23:16.999Z</time>
      </trkpt>
      <trkpt lat="43.65381" lon="3.36116">
        <ele>298.8</ele>
        <time>2026-05-17T11:23:17.999Z</time>
      </trkpt>
      <trkpt lat="43.65381" lon="3.36116">
        <ele>298.9</ele>
        <time>2026-05-17T11:23:18.999Z</time>
      </trkpt>
      <trkpt lat="43.65381" lon="3.36116">
        <ele>299</ele>
        <time>2026-05-17T11:23:19.999Z</time>
      </trkpt>
      <trkpt lat="43.65381" lon="3.36116">
        <ele>298.9</ele>
        <time>2026-05-17T11:23:20.999Z</time>
      </trkpt>
      <trkpt lat="43.65381" lon="3.36116">
        <ele>299</ele>
        <time>2026-05-17T11:23:21.999Z</time>
      </trkpt>
      <trkpt lat="43.65381" lon="3.36115">
        <ele>299.2</ele>
        <time>2026-05-17T11:23:22.999Z</time>
      </trkpt>
      <trkpt lat="43.65381" lon="3.36115">
        <ele>299.4</ele>
        <time>2026-05-17T11:23:23.999Z</time>
      </trkpt>
      <trkpt lat="43.65381" lon="3.36115">
        <ele>299.2</ele>
        <time>2026-05-17T11:23:24.999Z</time>
      </trkpt>
      <trkpt lat="43.65381" lon="3.36115">
        <ele>299.2</ele>
        <time>2026-05-17T11:23:25.999Z</time>
      </trkpt>
      <trkpt lat="43.65381" lon="3.36115">
        <ele>299.4</ele>
        <time>2026-05-17T11:23:26.999Z</time>
      </trkpt>
      <trkpt lat="43.65381" lon="3.36115">
        <ele>299.4</ele>
        <time>2026-05-17T11:23:27.999Z</time>
      </trkpt>
      <trkpt lat="43.65381" lon="3.36115">
        <ele>299.4</ele>
        <time>2026-05-17T11:23:28.999Z</time>
      </trkpt>
      <trkpt lat="43.65381" lon="3.36115">
        <ele>299.3</ele>
        <time>2026-05-17T11:23:29.999Z</time>
      </trkpt>
      <trkpt lat="43.65381" lon="3.36115">
        <ele>299.3</ele>
        <time>2026-05-17T11:23:30.999Z</time>
      </trkpt>
      <trkpt lat="43.65381" lon="3.36115">
        <ele>299.1</ele>
        <time>2026-05-17T11:23:31.999Z</time>
      </trkpt>
      <trkpt lat="43.65381" lon="3.36115">
        <ele>299</ele>
        <time>2026-05-17T11:23:32.999Z</time>
      </trkpt>
      <trkpt lat="43.65381" lon="3.36115">
        <ele>299</ele>
        <time>2026-05-17T11:23:33.999Z</time>
      </trkpt>
      <trkpt lat="43.65381" lon="3.36115">
        <ele>299.1</ele>
        <time>2026-05-17T11:23:34.999Z</time>
      </trkpt>
      <trkpt lat="43.65381" lon="3.36115">
        <ele>299.1</ele>
        <time>2026-05-17T11:23:35.999Z</time>
      </trkpt>
      <trkpt lat="43.65381" lon="3.36115">
        <ele>299.1</ele>
        <time>2026-05-17T11:23:36.999Z</time>
      </trkpt>
      <trkpt lat="43.65381" lon="3.36115">
        <ele>299</ele>
        <time>2026-05-17T11:23:37.999Z</time>
      </trkpt>
      <trkpt lat="43.65381" lon="3.36115">
        <ele>298.9</ele>
        <time>2026-05-17T11:23:38.999Z</time>
      </trkpt>
      <trkpt lat="43.65381" lon="3.36115">
        <ele>298.9</ele>
        <time>2026-05-17T11:23:39.999Z</time>
      </trkpt>
      <trkpt lat="43.65381" lon="3.36115">
        <ele>298.9</ele>
        <time>2026-05-17T11:23:40.999Z</time>
      </trkpt>
      <trkpt lat="43.65381" lon="3.36115">
        <ele>298.7</ele>
        <time>2026-05-17T11:23:41.999Z</time>
      </trkpt>
      <trkpt lat="43.65381" lon="3.36115">
        <ele>298.6</ele>
        <time>2026-05-17T11:23:42.999Z</time>
      </trkpt>
      <trkpt lat="43.65381" lon="3.36115">
        <ele>298.4</ele>
        <time>2026-05-17T11:23:43.999Z</time>
      </trkpt>
      <trkpt lat="43.65381" lon="3.36115">
        <ele>298.4</ele>
        <time>2026-05-17T11:23:44.999Z</time>
      </trkpt>
      <trkpt lat="43.65381" lon="3.36115">
        <ele>298.3</ele>
        <time>2026-05-17T11:23:45.999Z</time>
      </trkpt>
      <trkpt lat="43.65381" lon="3.36115">
        <ele>298.1</ele>
        <time>2026-05-17T11:23:46.999Z</time>
      </trkpt>
      <trkpt lat="43.65381" lon="3.36115">
        <ele>297.9</ele>
        <time>2026-05-17T11:23:47.999Z</time>
      </trkpt>
      <trkpt lat="43.65381" lon="3.36115">
        <ele>297.7</ele>
        <time>2026-05-17T11:23:48.999Z</time>
      </trkpt>
      <trkpt lat="43.65381" lon="3.36115">
        <ele>297.8</ele>
        <time>2026-05-17T11:23:49.999Z</time>
      </trkpt>
      <trkpt lat="43.65381" lon="3.36115">
        <ele>297.8</ele>
        <time>2026-05-17T11:23:50.999Z</time>
      </trkpt>
      <trkpt lat="43.65381" lon="3.36115">
        <ele>297.9</ele>
        <time>2026-05-17T11:23:51.999Z</time>
      </trkpt>
      <trkpt lat="43.65381" lon="3.36115">
        <ele>297.9</ele>
        <time>2026-05-17T11:23:52.999Z</time>
      </trkpt>
      <trkpt lat="43.65381" lon="3.36115">
        <ele>297.9</ele>
        <time>2026-05-17T11:23:53.999Z</time>
      </trkpt>
      <trkpt lat="43.65381" lon="3.36115">
        <ele>297.9</ele>
        <time>2026-05-17T11:23:54.999Z</time>
      </trkpt>
      <trkpt lat="43.65381" lon="3.36115">
        <ele>297.9</ele>
        <time>2026-05-17T11:23:55.999Z</time>
      </trkpt>
      <trkpt lat="43.65381" lon="3.36115">
        <ele>297.8</ele>
        <time>2026-05-17T11:23:56.999Z</time>
      </trkpt>
      <trkpt lat="43.65381" lon="3.36115">
        <ele>297.6</ele>
        <time>2026-05-17T11:23:57.999Z</time>
      </trkpt>
      <trkpt lat="43.65381" lon="3.36115">
        <ele>297.5</ele>
        <time>2026-05-17T11:23:58.999Z</time>
      </trkpt>
      <trkpt lat="43.65381" lon="3.36115">
        <ele>297.6</ele>
        <time>2026-05-17T11:23:59.999Z</time>
      </trkpt>
      <trkpt lat="43.65381" lon="3.36115">
        <ele>297.8</ele>
        <time>2026-05-17T11:24:00.999Z</time>
      </trkpt>
      <trkpt lat="43.65381" lon="3.36115">
        <ele>297.7</ele>
        <time>2026-05-17T11:24:01.999Z</time>
      </trkpt>
      <trkpt lat="43.65381" lon="3.36115">
        <ele>297.7</ele>
        <time>2026-05-17T11:24:02.999Z</time>
      </trkpt>
      <trkpt lat="43.65381" lon="3.36116">
        <ele>297.7</ele>
        <time>2026-05-17T11:24:03.999Z</time>
      </trkpt>
      <trkpt lat="43.65381" lon="3.36116">
        <ele>297.7</ele>
        <time>2026-05-17T11:24:04.999Z</time>
      </trkpt>
      <trkpt lat="43.65382" lon="3.36116">
        <ele>297.8</ele>
        <time>2026-05-17T11:24:05.999Z</time>
      </trkpt>
      <trkpt lat="43.65382" lon="3.36116">
        <ele>297.9</ele>
        <time>2026-05-17T11:24:06.999Z</time>
      </trkpt>
      <trkpt lat="43.65382" lon="3.36117">
        <ele>297.8</ele>
        <time>2026-05-17T11:24:07.999Z</time>
      </trkpt>
      <trkpt lat="43.65382" lon="3.36117">
        <ele>297.7</ele>
        <time>2026-05-17T11:24:08.999Z</time>
      </trkpt>
      <trkpt lat="43.65382" lon="3.36117">
        <ele>297.7</ele>
        <time>2026-05-17T11:24:09.999Z</time>
      </trkpt>
      <trkpt lat="43.65382" lon="3.36117">
        <ele>297.6</ele>
        <time>2026-05-17T11:24:10.999Z</time>
      </trkpt>
      <trkpt lat="43.65382" lon="3.36117">
        <ele>297.5</ele>
        <time>2026-05-17T11:24:11.999Z</time>
      </trkpt>
      <trkpt lat="43.65382" lon="3.36117">
        <ele>297.5</ele>
        <time>2026-05-17T11:24:12.999Z</time>
      </trkpt>
      <trkpt lat="43.65382" lon="3.36117">
        <ele>297.5</ele>
        <time>2026-05-17T11:24:13.999Z</time>
      </trkpt>
      <trkpt lat="43.65382" lon="3.36117">
        <ele>297.7</ele>
        <time>2026-05-17T11:24:14.999Z</time>
      </trkpt>
      <trkpt lat="43.65382" lon="3.36117">
        <ele>297.8</ele>
        <time>2026-05-17T11:24:15.999Z</time>
      </trkpt>
      <trkpt lat="43.65382" lon="3.36117">
        <ele>297.9</ele>
        <time>2026-05-17T11:24:16.999Z</time>
      </trkpt>
      <trkpt lat="43.65382" lon="3.36116">
        <ele>297.8</ele>
        <time>2026-05-17T11:24:17.999Z</time>
      </trkpt>
      <trkpt lat="43.65382" lon="3.36116">
        <ele>297.8</ele>
        <time>2026-05-17T11:24:18.999Z</time>
      </trkpt>
      <trkpt lat="43.65382" lon="3.36116">
        <ele>298</ele>
        <time>2026-05-17T11:24:19.999Z</time>
      </trkpt>
      <trkpt lat="43.65382" lon="3.36116">
        <ele>298.5</ele>
        <time>2026-05-17T11:24:20.999Z</time>
      </trkpt>
      <trkpt lat="43.65382" lon="3.36116">
        <ele>298.7</ele>
        <time>2026-05-17T11:24:21.999Z</time>
      </trkpt>
      <trkpt lat="43.65382" lon="3.36117">
        <ele>298.7</ele>
        <time>2026-05-17T11:24:22.999Z</time>
      </trkpt>
      <trkpt lat="43.65382" lon="3.36116">
        <ele>298.8</ele>
        <time>2026-05-17T11:24:23.999Z</time>
      </trkpt>
      <trkpt lat="43.65382" lon="3.36117">
        <ele>298.7</ele>
        <time>2026-05-17T11:24:24.999Z</time>
      </trkpt>
      <trkpt lat="43.65382" lon="3.36117">
        <ele>298.8</ele>
        <time>2026-05-17T11:24:25.999Z</time>
      </trkpt>
      <trkpt lat="43.65382" lon="3.36117">
        <ele>298.9</ele>
        <time>2026-05-17T11:24:26.999Z</time>
      </trkpt>
      <trkpt lat="43.65382" lon="3.36117">
        <ele>298.9</ele>
        <time>2026-05-17T11:24:27.999Z</time>
      </trkpt>
      <trkpt lat="43.65382" lon="3.36117">
        <ele>299.1</ele>
        <time>2026-05-17T11:24:28.999Z</time>
      </trkpt>
      <trkpt lat="43.65382" lon="3.36117">
        <ele>299</ele>
        <time>2026-05-17T11:24:29.999Z</time>
      </trkpt>
      <trkpt lat="43.65382" lon="3.36116">
        <ele>299</ele>
        <time>2026-05-17T11:24:30.999Z</time>
      </trkpt>
      <trkpt lat="43.65382" lon="3.36116">
        <ele>299</ele>
        <time>2026-05-17T11:24:31.999Z</time>
      </trkpt>
      <trkpt lat="43.65382" lon="3.36116">
        <ele>298.8</ele>
        <time>2026-05-17T11:24:32.999Z</time>
      </trkpt>
      <trkpt lat="43.65382" lon="3.36116">
        <ele>298.6</ele>
        <time>2026-05-17T11:24:33.999Z</time>
      </trkpt>
      <trkpt lat="43.65382" lon="3.36117">
        <ele>298.4</ele>
        <time>2026-05-17T11:24:34.999Z</time>
      </trkpt>
      <trkpt lat="43.65382" lon="3.36117">
        <ele>298.2</ele>
        <time>2026-05-17T11:24:35.999Z</time>
      </trkpt>
      <trkpt lat="43.65382" lon="3.36116">
        <ele>298.1</ele>
        <time>2026-05-17T11:24:36.999Z</time>
      </trkpt>
      <trkpt lat="43.65382" lon="3.36116">
        <ele>298.1</ele>
        <time>2026-05-17T11:24:37.999Z</time>
      </trkpt>
      <trkpt lat="43.65382" lon="3.36116">
        <ele>298.1</ele>
        <time>2026-05-17T11:24:38.999Z</time>
      </trkpt>
      <trkpt lat="43.65382" lon="3.36116">
        <ele>298.3</ele>
        <time>2026-05-17T11:24:39.999Z</time>
      </trkpt>
      <trkpt lat="43.65382" lon="3.36116">
        <ele>298.3</ele>
        <time>2026-05-17T11:24:40.999Z</time>
      </trkpt>
      <trkpt lat="43.65382" lon="3.36116">
        <ele>298.3</ele>
        <time>2026-05-17T11:24:41.999Z</time>
      </trkpt>
      <trkpt lat="43.65382" lon="3.36116">
        <ele>298.1</ele>
        <time>2026-05-17T11:24:42.999Z</time>
      </trkpt>
      <trkpt lat="43.65382" lon="3.36117">
        <ele>298.1</ele>
        <time>2026-05-17T11:24:43.999Z</time>
      </trkpt>
      <trkpt lat="43.65382" lon="3.36117">
        <ele>298.1</ele>
        <time>2026-05-17T11:24:44.999Z</time>
      </trkpt>
      <trkpt lat="43.65382" lon="3.36117">
        <ele>298</ele>
        <time>2026-05-17T11:24:45.999Z</time>
      </trkpt>
      <trkpt lat="43.65382" lon="3.36117">
        <ele>297.8</ele>
        <time>2026-05-17T11:24:46.999Z</time>
      </trkpt>
      <trkpt lat="43.65382" lon="3.36117">
        <ele>297.6</ele>
        <time>2026-05-17T11:24:47.999Z</time>
      </trkpt>
      <trkpt lat="43.65382" lon="3.36117">
        <ele>297.2</ele>
        <time>2026-05-17T11:24:48.999Z</time>
      </trkpt>
      <trkpt lat="43.65382" lon="3.36116">
        <ele>297</ele>
        <time>2026-05-17T11:24:49.999Z</time>
      </trkpt>
      <trkpt lat="43.65382" lon="3.36116">
        <ele>296.8</ele>
        <time>2026-05-17T11:24:50.999Z</time>
      </trkpt>
      <trkpt lat="43.65382" lon="3.36115">
        <ele>296.8</ele>
        <time>2026-05-17T11:24:51.999Z</time>
      </trkpt>
      <trkpt lat="43.65382" lon="3.36115">
        <ele>296.7</ele>
        <time>2026-05-17T11:24:52.999Z</time>
      </trkpt>
      <trkpt lat="43.65382" lon="3.36115">
        <ele>296.9</ele>
        <time>2026-05-17T11:24:53.999Z</time>
      </trkpt>
      <trkpt lat="43.65382" lon="3.36115">
        <ele>296.9</ele>
        <time>2026-05-17T11:24:54.999Z</time>
      </trkpt>
      <trkpt lat="43.65382" lon="3.36115">
        <ele>296.9</ele>
        <time>2026-05-17T11:24:55.999Z</time>
      </trkpt>
      <trkpt lat="43.65381" lon="3.36115">
        <ele>296.6</ele>
        <time>2026-05-17T11:24:56.999Z</time>
      </trkpt>
      <trkpt lat="43.65381" lon="3.36116">
        <ele>296.3</ele>
        <time>2026-05-17T11:24:57.999Z</time>
      </trkpt>
      <trkpt lat="43.65381" lon="3.36116">
        <ele>296</ele>
        <time>2026-05-17T11:24:58.999Z</time>
      </trkpt>
      <trkpt lat="43.65381" lon="3.36115">
        <ele>295.8</ele>
        <time>2026-05-17T11:24:59.999Z</time>
      </trkpt>
      <trkpt lat="43.65381" lon="3.36116">
        <ele>295.7</ele>
        <time>2026-05-17T11:25:00.999Z</time>
      </trkpt>
      <trkpt lat="43.65381" lon="3.36116">
        <ele>295.7</ele>
        <time>2026-05-17T11:25:01.999Z</time>
      </trkpt>
      <trkpt lat="43.65381" lon="3.36116">
        <ele>295.7</ele>
        <time>2026-05-17T11:25:02.999Z</time>
      </trkpt>
      <trkpt lat="43.65381" lon="3.36116">
        <ele>295.6</ele>
        <time>2026-05-17T11:25:03.999Z</time>
      </trkpt>
      <trkpt lat="43.65381" lon="3.36116">
        <ele>295.6</ele>
        <time>2026-05-17T11:25:04.999Z</time>
      </trkpt>
      <trkpt lat="43.65381" lon="3.36116">
        <ele>295.6</ele>
        <time>2026-05-17T11:25:05.999Z</time>
      </trkpt>
      <trkpt lat="43.65381" lon="3.36116">
        <ele>295.4</ele>
        <time>2026-05-17T11:25:06.999Z</time>
      </trkpt>
      <trkpt lat="43.65381" lon="3.36116">
        <ele>295.2</ele>
        <time>2026-05-17T11:25:07.999Z</time>
      </trkpt>
      <trkpt lat="43.65381" lon="3.36116">
        <ele>295.2</ele>
        <time>2026-05-17T11:25:08.999Z</time>
      </trkpt>
      <trkpt lat="43.65381" lon="3.36116">
        <ele>295.3</ele>
        <time>2026-05-17T11:25:09.999Z</time>
      </trkpt>
      <trkpt lat="43.65381" lon="3.36116">
        <ele>295.5</ele>
        <time>2026-05-17T11:25:10.999Z</time>
      </trkpt>
      <trkpt lat="43.65381" lon="3.36116">
        <ele>295.5</ele>
        <time>2026-05-17T11:25:11.999Z</time>
      </trkpt>
      <trkpt lat="43.65381" lon="3.36116">
        <ele>295.6</ele>
        <time>2026-05-17T11:25:12.999Z</time>
      </trkpt>
      <trkpt lat="43.65381" lon="3.36116">
        <ele>295.5</ele>
        <time>2026-05-17T11:25:13.999Z</time>
      </trkpt>
      <trkpt lat="43.65381" lon="3.36116">
        <ele>295.3</ele>
        <time>2026-05-17T11:25:14.999Z</time>
      </trkpt>
      <trkpt lat="43.65382" lon="3.36116">
        <ele>295.3</ele>
        <time>2026-05-17T11:25:15.999Z</time>
      </trkpt>
      <trkpt lat="43.65382" lon="3.36116">
        <ele>295.3</ele>
        <time>2026-05-17T11:25:16.999Z</time>
      </trkpt>
      <trkpt lat="43.65382" lon="3.36116">
        <ele>295.2</ele>
        <time>2026-05-17T11:25:17.999Z</time>
      </trkpt>
      <trkpt lat="43.65382" lon="3.36116">
        <ele>295</ele>
        <time>2026-05-17T11:25:18.999Z</time>
      </trkpt>
      <trkpt lat="43.65382" lon="3.36116">
        <ele>294.9</ele>
        <time>2026-05-17T11:25:19.999Z</time>
      </trkpt>
      <trkpt lat="43.65382" lon="3.36116">
        <ele>294.8</ele>
        <time>2026-05-17T11:25:20.999Z</time>
      </trkpt>
      <trkpt lat="43.65382" lon="3.36116">
        <ele>294.7</ele>
        <time>2026-05-17T11:25:21.999Z</time>
      </trkpt>
      <trkpt lat="43.65382" lon="3.36116">
        <ele>294.7</ele>
        <time>2026-05-17T11:25:22.999Z</time>
      </trkpt>
      <trkpt lat="43.65382" lon="3.36116">
        <ele>294.7</ele>
        <time>2026-05-17T11:25:23.999Z</time>
      </trkpt>
      <trkpt lat="43.65382" lon="3.36116">
        <ele>294.9</ele>
        <time>2026-05-17T11:25:24.999Z</time>
      </trkpt>
      <trkpt lat="43.65382" lon="3.36116">
        <ele>295.2</ele>
        <time>2026-05-17T11:25:25.999Z</time>
      </trkpt>
      <trkpt lat="43.65382" lon="3.36116">
        <ele>295.5</ele>
        <time>2026-05-17T11:25:26.999Z</time>
      </trkpt>
      <trkpt lat="43.65381" lon="3.36116">
        <ele>295.8</ele>
        <time>2026-05-17T11:25:27.999Z</time>
      </trkpt>
      <trkpt lat="43.65381" lon="3.36116">
        <ele>295.7</ele>
        <time>2026-05-17T11:25:28.999Z</time>
      </trkpt>
      <trkpt lat="43.65381" lon="3.36116">
        <ele>295.2</ele>
        <time>2026-05-17T11:25:29.999Z</time>
      </trkpt>
      <trkpt lat="43.65381" lon="3.36117">
        <ele>294.8</ele>
        <time>2026-05-17T11:25:30.999Z</time>
      </trkpt>
      <trkpt lat="43.65382" lon="3.36117">
        <ele>294.7</ele>
        <time>2026-05-17T11:25:31.999Z</time>
      </trkpt>
      <trkpt lat="43.65382" lon="3.36116">
        <ele>294.6</ele>
        <time>2026-05-17T11:25:32.999Z</time>
      </trkpt>
      <trkpt lat="43.65382" lon="3.36116">
        <ele>294.6</ele>
        <time>2026-05-17T11:25:33.999Z</time>
      </trkpt>
      <trkpt lat="43.65382" lon="3.36114">
        <ele>294.5</ele>
        <time>2026-05-17T11:25:34.999Z</time>
      </trkpt>
      <trkpt lat="43.65382" lon="3.36114">
        <ele>294.5</ele>
        <time>2026-05-17T11:25:35.999Z</time>
      </trkpt>
      <trkpt lat="43.65382" lon="3.36113">
        <ele>294.6</ele>
        <time>2026-05-17T11:25:36.999Z</time>
      </trkpt>
      <trkpt lat="43.65382" lon="3.36112">
        <ele>294.6</ele>
        <time>2026-05-17T11:25:37.999Z</time>
      </trkpt>
      <trkpt lat="43.65382" lon="3.36112">
        <ele>294.6</ele>
        <time>2026-05-17T11:25:38.999Z</time>
      </trkpt>
      <trkpt lat="43.65382" lon="3.36112">
        <ele>294.7</ele>
        <time>2026-05-17T11:25:39.999Z</time>
      </trkpt>
      <trkpt lat="43.65382" lon="3.36112">
        <ele>294.7</ele>
        <time>2026-05-17T11:25:40.999Z</time>
      </trkpt>
      <trkpt lat="43.65382" lon="3.36112">
        <ele>294.5</ele>
        <time>2026-05-17T11:25:41.999Z</time>
      </trkpt>
      <trkpt lat="43.65382" lon="3.36112">
        <ele>294.5</ele>
        <time>2026-05-17T11:25:42.999Z</time>
      </trkpt>
      <trkpt lat="43.65382" lon="3.36112">
        <ele>294.4</ele>
        <time>2026-05-17T11:25:43.999Z</time>
      </trkpt>
      <trkpt lat="43.65382" lon="3.36112">
        <ele>294.5</ele>
        <time>2026-05-17T11:25:44.999Z</time>
      </trkpt>
      <trkpt lat="43.65382" lon="3.36112">
        <ele>294.5</ele>
        <time>2026-05-17T11:25:45.999Z</time>
      </trkpt>
      <trkpt lat="43.65382" lon="3.36112">
        <ele>294.6</ele>
        <time>2026-05-17T11:25:46.999Z</time>
      </trkpt>
      <trkpt lat="43.65382" lon="3.36112">
        <ele>294.4</ele>
        <time>2026-05-17T11:25:47.999Z</time>
      </trkpt>
      <trkpt lat="43.65382" lon="3.36113">
        <ele>294.6</ele>
        <time>2026-05-17T11:25:48.999Z</time>
      </trkpt>
      <trkpt lat="43.65382" lon="3.36113">
        <ele>294.6</ele>
        <time>2026-05-17T11:25:49.999Z</time>
      </trkpt>
      <trkpt lat="43.65382" lon="3.36113">
        <ele>294.7</ele>
        <time>2026-05-17T11:25:50.999Z</time>
      </trkpt>
      <trkpt lat="43.65382" lon="3.36113">
        <ele>294.6</ele>
        <time>2026-05-17T11:25:51.999Z</time>
      </trkpt>
      <trkpt lat="43.65382" lon="3.36113">
        <ele>294.3</ele>
        <time>2026-05-17T11:25:52.999Z</time>
      </trkpt>
      <trkpt lat="43.65382" lon="3.36113">
        <ele>294.2</ele>
        <time>2026-05-17T11:25:53.999Z</time>
      </trkpt>
      <trkpt lat="43.65382" lon="3.36113">
        <ele>293.7</ele>
        <time>2026-05-17T11:25:54.999Z</time>
      </trkpt>
      <trkpt lat="43.65382" lon="3.36113">
        <ele>293.4</ele>
        <time>2026-05-17T11:25:55.999Z</time>
      </trkpt>
      <trkpt lat="43.65382" lon="3.36113">
        <ele>293.2</ele>
        <time>2026-05-17T11:25:56.999Z</time>
      </trkpt>
      <trkpt lat="43.65381" lon="3.36113">
        <ele>293.1</ele>
        <time>2026-05-17T11:25:57.999Z</time>
      </trkpt>
      <trkpt lat="43.65381" lon="3.36113">
        <ele>292.7</ele>
        <time>2026-05-17T11:25:58.999Z</time>
      </trkpt>
      <trkpt lat="43.65381" lon="3.36113">
        <ele>292.7</ele>
        <time>2026-05-17T11:25:59.999Z</time>
      </trkpt>
      <trkpt lat="43.65381" lon="3.36113">
        <ele>292.7</ele>
        <time>2026-05-17T11:26:00.999Z</time>
      </trkpt>
      <trkpt lat="43.65381" lon="3.36113">
        <ele>292.8</ele>
        <time>2026-05-17T11:26:01.999Z</time>
      </trkpt>
      <trkpt lat="43.65381" lon="3.36113">
        <ele>293</ele>
        <time>2026-05-17T11:26:02.999Z</time>
      </trkpt>
      <trkpt lat="43.65382" lon="3.36113">
        <ele>292.9</ele>
        <time>2026-05-17T11:26:03.999Z</time>
      </trkpt>
      <trkpt lat="43.65382" lon="3.36113">
        <ele>292.9</ele>
        <time>2026-05-17T11:26:04.999Z</time>
      </trkpt>
      <trkpt lat="43.65382" lon="3.36113">
        <ele>292.9</ele>
        <time>2026-05-17T11:26:05.999Z</time>
      </trkpt>
      <trkpt lat="43.65382" lon="3.36113">
        <ele>292.9</ele>
        <time>2026-05-17T11:26:06.999Z</time>
      </trkpt>
      <trkpt lat="43.65382" lon="3.36113">
        <ele>292.9</ele>
        <time>2026-05-17T11:26:07.999Z</time>
      </trkpt>
      <trkpt lat="43.65382" lon="3.36113">
        <ele>293</ele>
        <time>2026-05-17T11:26:08.999Z</time>
      </trkpt>
      <trkpt lat="43.65382" lon="3.36113">
        <ele>292.8</ele>
        <time>2026-05-17T11:26:09.999Z</time>
      </trkpt>
      <trkpt lat="43.65382" lon="3.36113">
        <ele>292.8</ele>
        <time>2026-05-17T11:26:10.999Z</time>
      </trkpt>
      <trkpt lat="43.65382" lon="3.36113">
        <ele>292.7</ele>
        <time>2026-05-17T11:26:11.999Z</time>
      </trkpt>
      <trkpt lat="43.65382" lon="3.36113">
        <ele>292.4</ele>
        <time>2026-05-17T11:26:12.999Z</time>
      </trkpt>
      <trkpt lat="43.65382" lon="3.36113">
        <ele>292.3</ele>
        <time>2026-05-17T11:26:13.999Z</time>
      </trkpt>
      <trkpt lat="43.65382" lon="3.36113">
        <ele>292.2</ele>
        <time>2026-05-17T11:26:14.999Z</time>
      </trkpt>
      <trkpt lat="43.65382" lon="3.36113">
        <ele>292.3</ele>
        <time>2026-05-17T11:26:15.999Z</time>
      </trkpt>
      <trkpt lat="43.65382" lon="3.36113">
        <ele>292.1</ele>
        <time>2026-05-17T11:26:16.999Z</time>
      </trkpt>
      <trkpt lat="43.65382" lon="3.36113">
        <ele>292.1</ele>
        <time>2026-05-17T11:26:17.999Z</time>
      </trkpt>
      <trkpt lat="43.65382" lon="3.36114">
        <ele>292</ele>
        <time>2026-05-17T11:26:18.999Z</time>
      </trkpt>
      <trkpt lat="43.65382" lon="3.36113">
        <ele>292.3</ele>
        <time>2026-05-17T11:26:19.999Z</time>
      </trkpt>
      <trkpt lat="43.65382" lon="3.36113">
        <ele>292.4</ele>
        <time>2026-05-17T11:26:20.999Z</time>
      </trkpt>
      <trkpt lat="43.65382" lon="3.36114">
        <ele>292.6</ele>
        <time>2026-05-17T11:26:21.999Z</time>
      </trkpt>
      <trkpt lat="43.65382" lon="3.36114">
        <ele>292.8</ele>
        <time>2026-05-17T11:26:22.999Z</time>
      </trkpt>
      <trkpt lat="43.65382" lon="3.36114">
        <ele>292.8</ele>
        <time>2026-05-17T11:26:23.999Z</time>
      </trkpt>
      <trkpt lat="43.65382" lon="3.36114">
        <ele>292.8</ele>
        <time>2026-05-17T11:26:24.999Z</time>
      </trkpt>
      <trkpt lat="43.65382" lon="3.36114">
        <ele>292.7</ele>
        <time>2026-05-17T11:26:25.999Z</time>
      </trkpt>
      <trkpt lat="43.65382" lon="3.36114">
        <ele>292.7</ele>
        <time>2026-05-17T11:26:26.999Z</time>
      </trkpt>
      <trkpt lat="43.65383" lon="3.36114">
        <ele>292.5</ele>
        <time>2026-05-17T11:26:27.999Z</time>
      </trkpt>
      <trkpt lat="43.65383" lon="3.36114">
        <ele>292.4</ele>
        <time>2026-05-17T11:26:28.999Z</time>
      </trkpt>
      <trkpt lat="43.65383" lon="3.36114">
        <ele>292.5</ele>
        <time>2026-05-17T11:26:29.999Z</time>
      </trkpt>
      <trkpt lat="43.65383" lon="3.36114">
        <ele>292.8</ele>
        <time>2026-05-17T11:26:30.999Z</time>
      </trkpt>
      <trkpt lat="43.65383" lon="3.36114">
        <ele>293</ele>
        <time>2026-05-17T11:26:31.999Z</time>
      </trkpt>
      <trkpt lat="43.65383" lon="3.36114">
        <ele>293.1</ele>
        <time>2026-05-17T11:26:32.999Z</time>
      </trkpt>
      <trkpt lat="43.65383" lon="3.36114">
        <ele>293.3</ele>
        <time>2026-05-17T11:26:33.999Z</time>
      </trkpt>
      <trkpt lat="43.65383" lon="3.36114">
        <ele>293.4</ele>
        <time>2026-05-17T11:26:34.999Z</time>
      </trkpt>
      <trkpt lat="43.65383" lon="3.36115">
        <ele>293.7</ele>
        <time>2026-05-17T11:26:35.999Z</time>
      </trkpt>
      <trkpt lat="43.65383" lon="3.36116">
        <ele>293.8</ele>
        <time>2026-05-17T11:26:36.999Z</time>
      </trkpt>
      <trkpt lat="43.65382" lon="3.36119">
        <ele>293.7</ele>
        <time>2026-05-17T11:26:37.999Z</time>
      </trkpt>
      <trkpt lat="43.65382" lon="3.36122">
        <ele>293.4</ele>
        <time>2026-05-17T11:26:38.999Z</time>
      </trkpt>
      <trkpt lat="43.65381" lon="3.36123">
        <ele>294</ele>
        <time>2026-05-17T11:26:39.999Z</time>
      </trkpt>
      <trkpt lat="43.65381" lon="3.36124">
        <ele>294.7</ele>
        <time>2026-05-17T11:26:40.999Z</time>
      </trkpt>
      <trkpt lat="43.65381" lon="3.36124">
        <ele>294.7</ele>
        <time>2026-05-17T11:26:41.999Z</time>
      </trkpt>
      <trkpt lat="43.65381" lon="3.36125">
        <ele>294.8</ele>
        <time>2026-05-17T11:26:42.999Z</time>
      </trkpt>
      <trkpt lat="43.65381" lon="3.36126">
        <ele>294.5</ele>
        <time>2026-05-17T11:26:43.999Z</time>
      </trkpt>
      <trkpt lat="43.65381" lon="3.36127">
        <ele>294.4</ele>
        <time>2026-05-17T11:26:44.999Z</time>
      </trkpt>
      <trkpt lat="43.65381" lon="3.36126">
        <ele>294.6</ele>
        <time>2026-05-17T11:26:45.999Z</time>
      </trkpt>
      <trkpt lat="43.65381" lon="3.36125">
        <ele>294.8</ele>
        <time>2026-05-17T11:26:46.999Z</time>
      </trkpt>
      <trkpt lat="43.65381" lon="3.36125">
        <ele>294.3</ele>
        <time>2026-05-17T11:26:47.999Z</time>
      </trkpt>
      <trkpt lat="43.65382" lon="3.36125">
        <ele>292.8</ele>
        <time>2026-05-17T11:26:48.999Z</time>
      </trkpt>
      <trkpt lat="43.65382" lon="3.36125">
        <ele>292.9</ele>
        <time>2026-05-17T11:26:49.999Z</time>
      </trkpt>
      <trkpt lat="43.65383" lon="3.36125">
        <ele>292.8</ele>
        <time>2026-05-17T11:26:50.999Z</time>
      </trkpt>
      <trkpt lat="43.65383" lon="3.36125">
        <ele>293.1</ele>
        <time>2026-05-17T11:26:51.999Z</time>
      </trkpt>
      <trkpt lat="43.65383" lon="3.36125">
        <ele>293.1</ele>
        <time>2026-05-17T11:26:52.999Z</time>
      </trkpt>
      <trkpt lat="43.65383" lon="3.36125">
        <ele>293.2</ele>
        <time>2026-05-17T11:26:53.999Z</time>
      </trkpt>
      <trkpt lat="43.65382" lon="3.36125">
        <ele>293.3</ele>
        <time>2026-05-17T11:26:54.999Z</time>
      </trkpt>
      <trkpt lat="43.65383" lon="3.36125">
        <ele>294</ele>
        <time>2026-05-17T11:26:55.999Z</time>
      </trkpt>
      <trkpt lat="43.65382" lon="3.36125">
        <ele>294</ele>
        <time>2026-05-17T11:26:56.999Z</time>
      </trkpt>
      <trkpt lat="43.65382" lon="3.36125">
        <ele>294.2</ele>
        <time>2026-05-17T11:26:57.999Z</time>
      </trkpt>
      <trkpt lat="43.65382" lon="3.36125">
        <ele>294.5</ele>
        <time>2026-05-17T11:26:58.999Z</time>
      </trkpt>
      <trkpt lat="43.65382" lon="3.36125">
        <ele>294.7</ele>
        <time>2026-05-17T11:26:59.999Z</time>
      </trkpt>
      <trkpt lat="43.65382" lon="3.36125">
        <ele>294.9</ele>
        <time>2026-05-17T11:27:00.999Z</time>
      </trkpt>
      <trkpt lat="43.65383" lon="3.36125">
        <ele>294.8</ele>
        <time>2026-05-17T11:27:01.999Z</time>
      </trkpt>
      <trkpt lat="43.65383" lon="3.36125">
        <ele>294.4</ele>
        <time>2026-05-17T11:27:02.999Z</time>
      </trkpt>
      <trkpt lat="43.65383" lon="3.36125">
        <ele>294.3</ele>
        <time>2026-05-17T11:27:03.999Z</time>
      </trkpt>
      <trkpt lat="43.65383" lon="3.36125">
        <ele>294.4</ele>
        <time>2026-05-17T11:27:04.999Z</time>
      </trkpt>
      <trkpt lat="43.65383" lon="3.36125">
        <ele>294.3</ele>
        <time>2026-05-17T11:27:05.999Z</time>
      </trkpt>
      <trkpt lat="43.65382" lon="3.36126">
        <ele>294.3</ele>
        <time>2026-05-17T11:27:06.999Z</time>
      </trkpt>
      <trkpt lat="43.65382" lon="3.36126">
        <ele>294.4</ele>
        <time>2026-05-17T11:27:07.999Z</time>
      </trkpt>
      <trkpt lat="43.65382" lon="3.36126">
        <ele>294.4</ele>
        <time>2026-05-17T11:27:08.999Z</time>
      </trkpt>
      <trkpt lat="43.65383" lon="3.36127">
        <ele>293.9</ele>
        <time>2026-05-17T11:27:09.999Z</time>
      </trkpt>
      <trkpt lat="43.65383" lon="3.36127">
        <ele>293.7</ele>
        <time>2026-05-17T11:27:10.999Z</time>
      </trkpt>
      <trkpt lat="43.65384" lon="3.36128">
        <ele>293.4</ele>
        <time>2026-05-17T11:27:11.999Z</time>
      </trkpt>
      <trkpt lat="43.65385" lon="3.36128">
        <ele>293.1</ele>
        <time>2026-05-17T11:27:12.999Z</time>
      </trkpt>
      <trkpt lat="43.65385" lon="3.36129">
        <ele>293.1</ele>
        <time>2026-05-17T11:27:13.999Z</time>
      </trkpt>
      <trkpt lat="43.65385" lon="3.36129">
        <ele>293.1</ele>
        <time>2026-05-17T11:27:14.999Z</time>
      </trkpt>
      <trkpt lat="43.65385" lon="3.3613">
        <ele>292.9</ele>
        <time>2026-05-17T11:27:15.999Z</time>
      </trkpt>
      <trkpt lat="43.65386" lon="3.36131">
        <ele>292.9</ele>
        <time>2026-05-17T11:27:16.999Z</time>
      </trkpt>
      <trkpt lat="43.65386" lon="3.36131">
        <ele>292.7</ele>
        <time>2026-05-17T11:27:17.999Z</time>
      </trkpt>
      <trkpt lat="43.65386" lon="3.36131">
        <ele>292.2</ele>
        <time>2026-05-17T11:27:18.999Z</time>
      </trkpt>
      <trkpt lat="43.65386" lon="3.36131">
        <ele>291.9</ele>
        <time>2026-05-17T11:27:19.999Z</time>
      </trkpt>
      <trkpt lat="43.65385" lon="3.36131">
        <ele>291.5</ele>
        <time>2026-05-17T11:27:20.999Z</time>
      </trkpt>
      <trkpt lat="43.65385" lon="3.36131">
        <ele>291.5</ele>
        <time>2026-05-17T11:27:21.999Z</time>
      </trkpt>
      <trkpt lat="43.65384" lon="3.3613">
        <ele>291.3</ele>
        <time>2026-05-17T11:27:22.999Z</time>
      </trkpt>
      <trkpt lat="43.65384" lon="3.36129">
        <ele>291.4</ele>
        <time>2026-05-17T11:27:23.999Z</time>
      </trkpt>
      <trkpt lat="43.65384" lon="3.36129">
        <ele>291.4</ele>
        <time>2026-05-17T11:27:24.999Z</time>
      </trkpt>
      <trkpt lat="43.65384" lon="3.36129">
        <ele>291.2</ele>
        <time>2026-05-17T11:27:25.999Z</time>
      </trkpt>
      <trkpt lat="43.65384" lon="3.36129">
        <ele>291.4</ele>
        <time>2026-05-17T11:27:26.999Z</time>
      </trkpt>
      <trkpt lat="43.65384" lon="3.36129">
        <ele>291.6</ele>
        <time>2026-05-17T11:27:27.999Z</time>
      </trkpt>
      <trkpt lat="43.65384" lon="3.36129">
        <ele>291.6</ele>
        <time>2026-05-17T11:27:28.999Z</time>
      </trkpt>
      <trkpt lat="43.65384" lon="3.36129">
        <ele>291.4</ele>
        <time>2026-05-17T11:27:29.999Z</time>
      </trkpt>
      <trkpt lat="43.65385" lon="3.36129">
        <ele>291.3</ele>
        <time>2026-05-17T11:27:30.999Z</time>
      </trkpt>
      <trkpt lat="43.65385" lon="3.36129">
        <ele>291.2</ele>
        <time>2026-05-17T11:27:31.999Z</time>
      </trkpt>
      <trkpt lat="43.65385" lon="3.36129">
        <ele>291.5</ele>
        <time>2026-05-17T11:27:32.999Z</time>
      </trkpt>
      <trkpt lat="43.65385" lon="3.36129">
        <ele>291.5</ele>
        <time>2026-05-17T11:27:33.999Z</time>
      </trkpt>
      <trkpt lat="43.65385" lon="3.36128">
        <ele>291.4</ele>
        <time>2026-05-17T11:27:34.999Z</time>
      </trkpt>
      <trkpt lat="43.65385" lon="3.36128">
        <ele>291.3</ele>
        <time>2026-05-17T11:27:35.999Z</time>
      </trkpt>
      <trkpt lat="43.65385" lon="3.36128">
        <ele>291.4</ele>
        <time>2026-05-17T11:27:36.999Z</time>
      </trkpt>
      <trkpt lat="43.65385" lon="3.36128">
        <ele>291.7</ele>
        <time>2026-05-17T11:27:37.999Z</time>
      </trkpt>
      <trkpt lat="43.65385" lon="3.36128">
        <ele>291.9</ele>
        <time>2026-05-17T11:27:38.999Z</time>
      </trkpt>
      <trkpt lat="43.65385" lon="3.36128">
        <ele>291.9</ele>
        <time>2026-05-17T11:27:39.999Z</time>
      </trkpt>
      <trkpt lat="43.65385" lon="3.36128">
        <ele>292.1</ele>
        <time>2026-05-17T11:27:40.999Z</time>
      </trkpt>
      <trkpt lat="43.65385" lon="3.36128">
        <ele>292.2</ele>
        <time>2026-05-17T11:27:41.999Z</time>
      </trkpt>
      <trkpt lat="43.65385" lon="3.36128">
        <ele>292.2</ele>
        <time>2026-05-17T11:27:42.999Z</time>
      </trkpt>
      <trkpt lat="43.65386" lon="3.36128">
        <ele>292.2</ele>
        <time>2026-05-17T11:27:43.999Z</time>
      </trkpt>
      <trkpt lat="43.65386" lon="3.36127">
        <ele>291.8</ele>
        <time>2026-05-17T11:27:44.999Z</time>
      </trkpt>
      <trkpt lat="43.65386" lon="3.36127">
        <ele>291.5</ele>
        <time>2026-05-17T11:27:45.999Z</time>
      </trkpt>
      <trkpt lat="43.65386" lon="3.36127">
        <ele>291.3</ele>
        <time>2026-05-17T11:27:46.999Z</time>
      </trkpt>
      <trkpt lat="43.65386" lon="3.36127">
        <ele>291.1</ele>
        <time>2026-05-17T11:27:47.999Z</time>
      </trkpt>
      <trkpt lat="43.65387" lon="3.36127">
        <ele>290.7</ele>
        <time>2026-05-17T11:27:48.999Z</time>
      </trkpt>
      <trkpt lat="43.65387" lon="3.36127">
        <ele>290.8</ele>
        <time>2026-05-17T11:27:49.999Z</time>
      </trkpt>
      <trkpt lat="43.65387" lon="3.36127">
        <ele>290.8</ele>
        <time>2026-05-17T11:27:50.999Z</time>
      </trkpt>
      <trkpt lat="43.65387" lon="3.36127">
        <ele>290.7</ele>
        <time>2026-05-17T11:27:51.999Z</time>
      </trkpt>
      <trkpt lat="43.65387" lon="3.36127">
        <ele>290.6</ele>
        <time>2026-05-17T11:27:52.999Z</time>
      </trkpt>
      <trkpt lat="43.65388" lon="3.36127">
        <ele>290.8</ele>
        <time>2026-05-17T11:27:53.999Z</time>
      </trkpt>
      <trkpt lat="43.65388" lon="3.36127">
        <ele>290.9</ele>
        <time>2026-05-17T11:27:54.999Z</time>
      </trkpt>
      <trkpt lat="43.65388" lon="3.36127">
        <ele>291.1</ele>
        <time>2026-05-17T11:27:55.999Z</time>
      </trkpt>
      <trkpt lat="43.65389" lon="3.36128">
        <ele>291.3</ele>
        <time>2026-05-17T11:27:56.999Z</time>
      </trkpt>
      <trkpt lat="43.6539" lon="3.36128">
        <ele>291.3</ele>
        <time>2026-05-17T11:27:57.999Z</time>
      </trkpt>
      <trkpt lat="43.6539" lon="3.36128">
        <ele>291.3</ele>
        <time>2026-05-17T11:27:58.999Z</time>
      </trkpt>
      <trkpt lat="43.65391" lon="3.36128">
        <ele>291.3</ele>
        <time>2026-05-17T11:27:59.999Z</time>
      </trkpt>
      <trkpt lat="43.65391" lon="3.36128">
        <ele>291</ele>
        <time>2026-05-17T11:28:00.999Z</time>
      </trkpt>
      <trkpt lat="43.65391" lon="3.36128">
        <ele>290.7</ele>
        <time>2026-05-17T11:28:01.999Z</time>
      </trkpt>
      <trkpt lat="43.65391" lon="3.36128">
        <ele>290.5</ele>
        <time>2026-05-17T11:28:02.999Z</time>
      </trkpt>
      <trkpt lat="43.65391" lon="3.36128">
        <ele>290.2</ele>
        <time>2026-05-17T11:28:03.999Z</time>
      </trkpt>
      <trkpt lat="43.65391" lon="3.36128">
        <ele>290.3</ele>
        <time>2026-05-17T11:28:04.999Z</time>
      </trkpt>
      <trkpt lat="43.65391" lon="3.36128">
        <ele>290.4</ele>
        <time>2026-05-17T11:28:05.999Z</time>
      </trkpt>
      <trkpt lat="43.65391" lon="3.36128">
        <ele>290.5</ele>
        <time>2026-05-17T11:28:06.999Z</time>
      </trkpt>
      <trkpt lat="43.65391" lon="3.36128">
        <ele>290.4</ele>
        <time>2026-05-17T11:28:07.999Z</time>
      </trkpt>
      <trkpt lat="43.65391" lon="3.36128">
        <ele>290.4</ele>
        <time>2026-05-17T11:28:08.999Z</time>
      </trkpt>
      <trkpt lat="43.65391" lon="3.36128">
        <ele>290.5</ele>
        <time>2026-05-17T11:28:09.999Z</time>
      </trkpt>
      <trkpt lat="43.65391" lon="3.36128">
        <ele>290.5</ele>
        <time>2026-05-17T11:28:10.999Z</time>
      </trkpt>
      <trkpt lat="43.65391" lon="3.36128">
        <ele>290.5</ele>
        <time>2026-05-17T11:28:11.999Z</time>
      </trkpt>
      <trkpt lat="43.65391" lon="3.36128">
        <ele>290.5</ele>
        <time>2026-05-17T11:28:12.999Z</time>
      </trkpt>
      <trkpt lat="43.65391" lon="3.36128">
        <ele>290.5</ele>
        <time>2026-05-17T11:28:13.999Z</time>
      </trkpt>
      <trkpt lat="43.65391" lon="3.36128">
        <ele>290.3</ele>
        <time>2026-05-17T11:28:14.999Z</time>
      </trkpt>
      <trkpt lat="43.65391" lon="3.36128">
        <ele>290.2</ele>
        <time>2026-05-17T11:28:15.999Z</time>
      </trkpt>
      <trkpt lat="43.65391" lon="3.36128">
        <ele>290</ele>
        <time>2026-05-17T11:28:16.999Z</time>
      </trkpt>
      <trkpt lat="43.65391" lon="3.36128">
        <ele>290.1</ele>
        <time>2026-05-17T11:28:17.999Z</time>
      </trkpt>
      <trkpt lat="43.65391" lon="3.36128">
        <ele>289.7</ele>
        <time>2026-05-17T11:28:18.999Z</time>
      </trkpt>
      <trkpt lat="43.65391" lon="3.36128">
        <ele>289.8</ele>
        <time>2026-05-17T11:28:19.999Z</time>
      </trkpt>
      <trkpt lat="43.65391" lon="3.36128">
        <ele>289.9</ele>
        <time>2026-05-17T11:28:20.999Z</time>
      </trkpt>
      <trkpt lat="43.65391" lon="3.36128">
        <ele>289.8</ele>
        <time>2026-05-17T11:28:21.999Z</time>
      </trkpt>
      <trkpt lat="43.65391" lon="3.36128">
        <ele>289.7</ele>
        <time>2026-05-17T11:28:22.999Z</time>
      </trkpt>
      <trkpt lat="43.65391" lon="3.36128">
        <ele>289.5</ele>
        <time>2026-05-17T11:28:23.999Z</time>
      </trkpt>
      <trkpt lat="43.6539" lon="3.36129">
        <ele>289.3</ele>
        <time>2026-05-17T11:28:24.999Z</time>
      </trkpt>
      <trkpt lat="43.65389" lon="3.36129">
        <ele>289.2</ele>
        <time>2026-05-17T11:28:25.999Z</time>
      </trkpt>
      <trkpt lat="43.65388" lon="3.36129">
        <ele>289.2</ele>
        <time>2026-05-17T11:28:26.999Z</time>
      </trkpt>
      <trkpt lat="43.65388" lon="3.36129">
        <ele>289.2</ele>
        <time>2026-05-17T11:28:27.999Z</time>
      </trkpt>
      <trkpt lat="43.65387" lon="3.36128">
        <ele>289.2</ele>
        <time>2026-05-17T11:28:28.999Z</time>
      </trkpt>
      <trkpt lat="43.65387" lon="3.36127">
        <ele>289.1</ele>
        <time>2026-05-17T11:28:29.999Z</time>
      </trkpt>
      <trkpt lat="43.65386" lon="3.36126">
        <ele>288.9</ele>
        <time>2026-05-17T11:28:30.999Z</time>
      </trkpt>
      <trkpt lat="43.65385" lon="3.36125">
        <ele>289.1</ele>
        <time>2026-05-17T11:28:31.999Z</time>
      </trkpt>
      <trkpt lat="43.65384" lon="3.36124">
        <ele>289.1</ele>
        <time>2026-05-17T11:28:32.999Z</time>
      </trkpt>
      <trkpt lat="43.65383" lon="3.36123">
        <ele>289.1</ele>
        <time>2026-05-17T11:28:33.999Z</time>
      </trkpt>
      <trkpt lat="43.65383" lon="3.36123">
        <ele>289.3</ele>
        <time>2026-05-17T11:28:34.999Z</time>
      </trkpt>
      <trkpt lat="43.65383" lon="3.36122">
        <ele>289.5</ele>
        <time>2026-05-17T11:28:35.999Z</time>
      </trkpt>
      <trkpt lat="43.65382" lon="3.3612">
        <ele>289.5</ele>
        <time>2026-05-17T11:28:36.999Z</time>
      </trkpt>
      <trkpt lat="43.65382" lon="3.36119">
        <ele>289.3</ele>
        <time>2026-05-17T11:28:37.999Z</time>
      </trkpt>
      <trkpt lat="43.65382" lon="3.36117">
        <ele>289.4</ele>
        <time>2026-05-17T11:28:38.999Z</time>
      </trkpt>
      <trkpt lat="43.65382" lon="3.36115">
        <ele>289.4</ele>
        <time>2026-05-17T11:28:39.999Z</time>
      </trkpt>
      <trkpt lat="43.65382" lon="3.36113">
        <ele>289.4</ele>
        <time>2026-05-17T11:28:40.999Z</time>
      </trkpt>
      <trkpt lat="43.65382" lon="3.36113">
        <ele>289.3</ele>
        <time>2026-05-17T11:28:41.999Z</time>
      </trkpt>
      <trkpt lat="43.65382" lon="3.36112">
        <ele>289.9</ele>
        <time>2026-05-17T11:28:42.999Z</time>
      </trkpt>
      <trkpt lat="43.65381" lon="3.36111">
        <ele>289.8</ele>
        <time>2026-05-17T11:28:43.999Z</time>
      </trkpt>
      <trkpt lat="43.65381" lon="3.3611">
        <ele>289.8</ele>
        <time>2026-05-17T11:28:44.999Z</time>
      </trkpt>
      <trkpt lat="43.6538" lon="3.36108">
        <ele>289.8</ele>
        <time>2026-05-17T11:28:45.999Z</time>
      </trkpt>
      <trkpt lat="43.6538" lon="3.36107">
        <ele>289.6</ele>
        <time>2026-05-17T11:28:46.999Z</time>
      </trkpt>
      <trkpt lat="43.6538" lon="3.36106">
        <ele>289.7</ele>
        <time>2026-05-17T11:28:47.999Z</time>
      </trkpt>
      <trkpt lat="43.6538" lon="3.36106">
        <ele>289.4</ele>
        <time>2026-05-17T11:28:48.999Z</time>
      </trkpt>
      <trkpt lat="43.6538" lon="3.36105">
        <ele>289.4</ele>
        <time>2026-05-17T11:28:49.999Z</time>
      </trkpt>
      <trkpt lat="43.6538" lon="3.36105">
        <ele>289.7</ele>
        <time>2026-05-17T11:28:50.999Z</time>
      </trkpt>
      <trkpt lat="43.6538" lon="3.36105">
        <ele>289.8</ele>
        <time>2026-05-17T11:28:51.999Z</time>
      </trkpt>
      <trkpt lat="43.6538" lon="3.36105">
        <ele>289.8</ele>
        <time>2026-05-17T11:28:52.999Z</time>
      </trkpt>
      <trkpt lat="43.6538" lon="3.36104">
        <ele>289.9</ele>
        <time>2026-05-17T11:28:53.999Z</time>
      </trkpt>
      <trkpt lat="43.6538" lon="3.36103">
        <ele>289.9</ele>
        <time>2026-05-17T11:28:54.999Z</time>
      </trkpt>
      <trkpt lat="43.65382" lon="3.36102">
        <ele>289.8</ele>
        <time>2026-05-17T11:28:55.999Z</time>
      </trkpt>
      <trkpt lat="43.65383" lon="3.36102">
        <ele>289.8</ele>
        <time>2026-05-17T11:28:56.999Z</time>
      </trkpt>
      <trkpt lat="43.65384" lon="3.36101">
        <ele>289.9</ele>
        <time>2026-05-17T11:28:57.999Z</time>
      </trkpt>
      <trkpt lat="43.65385" lon="3.36101">
        <ele>289.8</ele>
        <time>2026-05-17T11:28:58.999Z</time>
      </trkpt>
      <trkpt lat="43.65385" lon="3.361">
        <ele>289.6</ele>
        <time>2026-05-17T11:28:59.999Z</time>
      </trkpt>
      <trkpt lat="43.65385" lon="3.36099">
        <ele>289.3</ele>
        <time>2026-05-17T11:29:00.999Z</time>
      </trkpt>
      <trkpt lat="43.65384" lon="3.36098">
        <ele>289.1</ele>
        <time>2026-05-17T11:29:01.999Z</time>
      </trkpt>
      <trkpt lat="43.65384" lon="3.36097">
        <ele>289.1</ele>
        <time>2026-05-17T11:29:02.999Z</time>
      </trkpt>
      <trkpt lat="43.65383" lon="3.36096">
        <ele>289.4</ele>
        <time>2026-05-17T11:29:03.999Z</time>
      </trkpt>
      <trkpt lat="43.65383" lon="3.36096">
        <ele>289.3</ele>
        <time>2026-05-17T11:29:04.999Z</time>
      </trkpt>
      <trkpt lat="43.65382" lon="3.36095">
        <ele>289.4</ele>
        <time>2026-05-17T11:29:05.999Z</time>
      </trkpt>
      <trkpt lat="43.65381" lon="3.36094">
        <ele>289.5</ele>
        <time>2026-05-17T11:29:06.999Z</time>
      </trkpt>
      <trkpt lat="43.6538" lon="3.36094">
        <ele>289.6</ele>
        <time>2026-05-17T11:29:07.999Z</time>
      </trkpt>
      <trkpt lat="43.65379" lon="3.36094">
        <ele>290.1</ele>
        <time>2026-05-17T11:29:08.999Z</time>
      </trkpt>
      <trkpt lat="43.65379" lon="3.36094">
        <ele>290.4</ele>
        <time>2026-05-17T11:29:09.999Z</time>
      </trkpt>
      <trkpt lat="43.65379" lon="3.36094">
        <ele>290.6</ele>
        <time>2026-05-17T11:29:10.999Z</time>
      </trkpt>
      <trkpt lat="43.65379" lon="3.36094">
        <ele>289.8</ele>
        <time>2026-05-17T11:29:11.999Z</time>
      </trkpt>
      <trkpt lat="43.65379" lon="3.36094">
        <ele>289.9</ele>
        <time>2026-05-17T11:29:12.999Z</time>
      </trkpt>
      <trkpt lat="43.65379" lon="3.36094">
        <ele>289.9</ele>
        <time>2026-05-17T11:29:13.999Z</time>
      </trkpt>
      <trkpt lat="43.65379" lon="3.36094">
        <ele>289.6</ele>
        <time>2026-05-17T11:29:14.999Z</time>
      </trkpt>
      <trkpt lat="43.65379" lon="3.36094">
        <ele>289.3</ele>
        <time>2026-05-17T11:29:15.999Z</time>
      </trkpt>
      <trkpt lat="43.65379" lon="3.36094">
        <ele>289</ele>
        <time>2026-05-17T11:29:16.999Z</time>
      </trkpt>
      <trkpt lat="43.65379" lon="3.36094">
        <ele>288.7</ele>
        <time>2026-05-17T11:29:17.999Z</time>
      </trkpt>
      <trkpt lat="43.65379" lon="3.36094">
        <ele>288.5</ele>
        <time>2026-05-17T11:29:18.999Z</time>
      </trkpt>
      <trkpt lat="43.65379" lon="3.36095">
        <ele>288.3</ele>
        <time>2026-05-17T11:29:19.999Z</time>
      </trkpt>
      <trkpt lat="43.6538" lon="3.36095">
        <ele>288</ele>
        <time>2026-05-17T11:29:20.999Z</time>
      </trkpt>
      <trkpt lat="43.6538" lon="3.36095">
        <ele>288.2</ele>
        <time>2026-05-17T11:29:21.999Z</time>
      </trkpt>
      <trkpt lat="43.65379" lon="3.36095">
        <ele>288.4</ele>
        <time>2026-05-17T11:29:22.999Z</time>
      </trkpt>
      <trkpt lat="43.65379" lon="3.36096">
        <ele>288.7</ele>
        <time>2026-05-17T11:29:23.999Z</time>
      </trkpt>
      <trkpt lat="43.65379" lon="3.36096">
        <ele>288.9</ele>
        <time>2026-05-17T11:29:24.999Z</time>
      </trkpt>
      <trkpt lat="43.65379" lon="3.36095">
        <ele>289</ele>
        <time>2026-05-17T11:29:25.999Z</time>
      </trkpt>
      <trkpt lat="43.65379" lon="3.36095">
        <ele>289.2</ele>
        <time>2026-05-17T11:29:26.999Z</time>
      </trkpt>
      <trkpt lat="43.65379" lon="3.36095">
        <ele>289.3</ele>
        <time>2026-05-17T11:29:27.999Z</time>
      </trkpt>
      <trkpt lat="43.65379" lon="3.36095">
        <ele>289.4</ele>
        <time>2026-05-17T11:29:28.999Z</time>
      </trkpt>
      <trkpt lat="43.6538" lon="3.36095">
        <ele>289.3</ele>
        <time>2026-05-17T11:29:29.999Z</time>
      </trkpt>
      <trkpt lat="43.6538" lon="3.36095">
        <ele>289.1</ele>
        <time>2026-05-17T11:29:30.999Z</time>
      </trkpt>
      <trkpt lat="43.6538" lon="3.36095">
        <ele>288.3</ele>
        <time>2026-05-17T11:29:31.999Z</time>
      </trkpt>
      <trkpt lat="43.6538" lon="3.36095">
        <ele>288.2</ele>
        <time>2026-05-17T11:29:32.999Z</time>
      </trkpt>
      <trkpt lat="43.6538" lon="3.36095">
        <ele>288.3</ele>
        <time>2026-05-17T11:29:33.999Z</time>
      </trkpt>
      <trkpt lat="43.6538" lon="3.36095">
        <ele>288.3</ele>
        <time>2026-05-17T11:29:34.999Z</time>
      </trkpt>
      <trkpt lat="43.6538" lon="3.36095">
        <ele>288.2</ele>
        <time>2026-05-17T11:29:35.999Z</time>
      </trkpt>
      <trkpt lat="43.6538" lon="3.36095">
        <ele>288</ele>
        <time>2026-05-17T11:29:36.999Z</time>
      </trkpt>
      <trkpt lat="43.6538" lon="3.36095">
        <ele>287.8</ele>
        <time>2026-05-17T11:29:37.999Z</time>
      </trkpt>
      <trkpt lat="43.6538" lon="3.36095">
        <ele>287.9</ele>
        <time>2026-05-17T11:29:38.999Z</time>
      </trkpt>
      <trkpt lat="43.6538" lon="3.36094">
        <ele>288.2</ele>
        <time>2026-05-17T11:29:39.999Z</time>
      </trkpt>
      <trkpt lat="43.6538" lon="3.36094">
        <ele>288.2</ele>
        <time>2026-05-17T11:29:40.999Z</time>
      </trkpt>
      <trkpt lat="43.6538" lon="3.36094">
        <ele>288.3</ele>
        <time>2026-05-17T11:29:41.999Z</time>
      </trkpt>
      <trkpt lat="43.6538" lon="3.36094">
        <ele>288.4</ele>
        <time>2026-05-17T11:29:42.999Z</time>
      </trkpt>
      <trkpt lat="43.6538" lon="3.36094">
        <ele>288.6</ele>
        <time>2026-05-17T11:29:43.999Z</time>
      </trkpt>
      <trkpt lat="43.6538" lon="3.36094">
        <ele>288.8</ele>
        <time>2026-05-17T11:29:44.999Z</time>
      </trkpt>
      <trkpt lat="43.6538" lon="3.36093">
        <ele>289</ele>
        <time>2026-05-17T11:29:45.999Z</time>
      </trkpt>
      <trkpt lat="43.6538" lon="3.36093">
        <ele>288.9</ele>
        <time>2026-05-17T11:29:46.999Z</time>
      </trkpt>
      <trkpt lat="43.6538" lon="3.36093">
        <ele>289</ele>
        <time>2026-05-17T11:29:47.999Z</time>
      </trkpt>
      <trkpt lat="43.6538" lon="3.36093">
        <ele>289.1</ele>
        <time>2026-05-17T11:29:48.999Z</time>
      </trkpt>
      <trkpt lat="43.6538" lon="3.36093">
        <ele>289.2</ele>
        <time>2026-05-17T11:29:49.999Z</time>
      </trkpt>
      <trkpt lat="43.6538" lon="3.36093">
        <ele>289.2</ele>
        <time>2026-05-17T11:29:50.999Z</time>
      </trkpt>
      <trkpt lat="43.6538" lon="3.36093">
        <ele>289.3</ele>
        <time>2026-05-17T11:29:51.999Z</time>
      </trkpt>
      <trkpt lat="43.6538" lon="3.36092">
        <ele>289.6</ele>
        <time>2026-05-17T11:29:53.999Z</time>
      </trkpt>
      <trkpt lat="43.6538" lon="3.36091">
        <ele>289.8</ele>
        <time>2026-05-17T11:29:54.999Z</time>
      </trkpt>
      <trkpt lat="43.6538" lon="3.3609">
        <ele>289.9</ele>
        <time>2026-05-17T11:29:55.999Z</time>
      </trkpt>
      <trkpt lat="43.6538" lon="3.3609">
        <ele>290</ele>
        <time>2026-05-17T11:29:56.999Z</time>
      </trkpt>
      <trkpt lat="43.6538" lon="3.3609">
        <ele>290</ele>
        <time>2026-05-17T11:29:57.999Z</time>
      </trkpt>
      <trkpt lat="43.6538" lon="3.3609">
        <ele>290.1</ele>
        <time>2026-05-17T11:29:58.999Z</time>
      </trkpt>
      <trkpt lat="43.6538" lon="3.3609">
        <ele>290.1</ele>
        <time>2026-05-17T11:29:59.999Z</time>
      </trkpt>
      <trkpt lat="43.6538" lon="3.3609">
        <ele>289.9</ele>
        <time>2026-05-17T11:30:00.999Z</time>
      </trkpt>
      <trkpt lat="43.6538" lon="3.3609">
        <ele>289.8</ele>
        <time>2026-05-17T11:30:01.999Z</time>
      </trkpt>
      <trkpt lat="43.6538" lon="3.3609">
        <ele>289.7</ele>
        <time>2026-05-17T11:30:02.999Z</time>
      </trkpt>
      <trkpt lat="43.6538" lon="3.3609">
        <ele>289.4</ele>
        <time>2026-05-17T11:30:03.999Z</time>
      </trkpt>
      <trkpt lat="43.6538" lon="3.36089">
        <ele>289.4</ele>
        <time>2026-05-17T11:30:04.999Z</time>
      </trkpt>
      <trkpt lat="43.65379" lon="3.36089">
        <ele>289.5</ele>
        <time>2026-05-17T11:30:05.999Z</time>
      </trkpt>
      <trkpt lat="43.65379" lon="3.36089">
        <ele>289.7</ele>
        <time>2026-05-17T11:30:06.999Z</time>
      </trkpt>
      <trkpt lat="43.65379" lon="3.36088">
        <ele>289.8</ele>
        <time>2026-05-17T11:30:07.999Z</time>
      </trkpt>
      <trkpt lat="43.65378" lon="3.36087">
        <ele>290</ele>
        <time>2026-05-17T11:30:08.999Z</time>
      </trkpt>
      <trkpt lat="43.65377" lon="3.36087">
        <ele>289.9</ele>
        <time>2026-05-17T11:30:09.999Z</time>
      </trkpt>
      <trkpt lat="43.65377" lon="3.36087">
        <ele>289.7</ele>
        <time>2026-05-17T11:30:10.999Z</time>
      </trkpt>
      <trkpt lat="43.65377" lon="3.36086">
        <ele>289.7</ele>
        <time>2026-05-17T11:30:11.999Z</time>
      </trkpt>
      <trkpt lat="43.65376" lon="3.36085">
        <ele>289.6</ele>
        <time>2026-05-17T11:30:12.999Z</time>
      </trkpt>
      <trkpt lat="43.65376" lon="3.36085">
        <ele>289.6</ele>
        <time>2026-05-17T11:30:13.999Z</time>
      </trkpt>
      <trkpt lat="43.65376" lon="3.36085">
        <ele>290.1</ele>
        <time>2026-05-17T11:30:14.999Z</time>
      </trkpt>
      <trkpt lat="43.65376" lon="3.36085">
        <ele>290.1</ele>
        <time>2026-05-17T11:30:15.999Z</time>
      </trkpt>
      <trkpt lat="43.65376" lon="3.36085">
        <ele>290.4</ele>
        <time>2026-05-17T11:30:16.999Z</time>
      </trkpt>
      <trkpt lat="43.65376" lon="3.36085">
        <ele>290.3</ele>
        <time>2026-05-17T11:30:17.999Z</time>
      </trkpt>
      <trkpt lat="43.65376" lon="3.36085">
        <ele>290.2</ele>
        <time>2026-05-17T11:30:18.999Z</time>
      </trkpt>
      <trkpt lat="43.65376" lon="3.36085">
        <ele>289.9</ele>
        <time>2026-05-17T11:30:19.999Z</time>
      </trkpt>
      <trkpt lat="43.65376" lon="3.36085">
        <ele>289.9</ele>
        <time>2026-05-17T11:30:20.999Z</time>
      </trkpt>
      <trkpt lat="43.65376" lon="3.36085">
        <ele>289.9</ele>
        <time>2026-05-17T11:30:21.999Z</time>
      </trkpt>
      <trkpt lat="43.65376" lon="3.36085">
        <ele>289.8</ele>
        <time>2026-05-17T11:30:22.999Z</time>
      </trkpt>
      <trkpt lat="43.65375" lon="3.36085">
        <ele>289.6</ele>
        <time>2026-05-17T11:30:23.999Z</time>
      </trkpt>
      <trkpt lat="43.65375" lon="3.36085">
        <ele>289.4</ele>
        <time>2026-05-17T11:30:24.999Z</time>
      </trkpt>
      <trkpt lat="43.65375" lon="3.36085">
        <ele>289.6</ele>
        <time>2026-05-17T11:30:25.999Z</time>
      </trkpt>
      <trkpt lat="43.65375" lon="3.36085">
        <ele>289.7</ele>
        <time>2026-05-17T11:30:26.999Z</time>
      </trkpt>
      <trkpt lat="43.65375" lon="3.36085">
        <ele>289.8</ele>
        <time>2026-05-17T11:30:27.999Z</time>
      </trkpt>
      <trkpt lat="43.65375" lon="3.36085">
        <ele>289.6</ele>
        <time>2026-05-17T11:30:28.999Z</time>
      </trkpt>
      <trkpt lat="43.65375" lon="3.36084">
        <ele>289.5</ele>
        <time>2026-05-17T11:30:29.999Z</time>
      </trkpt>
      <trkpt lat="43.65374" lon="3.36083">
        <ele>289.5</ele>
        <time>2026-05-17T11:30:30.999Z</time>
      </trkpt>
      <trkpt lat="43.65374" lon="3.36083">
        <ele>289.3</ele>
        <time>2026-05-17T11:30:31.999Z</time>
      </trkpt>
      <trkpt lat="43.65373" lon="3.36082">
        <ele>289</ele>
        <time>2026-05-17T11:30:32.999Z</time>
      </trkpt>
      <trkpt lat="43.65373" lon="3.36082">
        <ele>288.9</ele>
        <time>2026-05-17T11:30:33.999Z</time>
      </trkpt>
      <trkpt lat="43.65373" lon="3.36083">
        <ele>288.9</ele>
        <time>2026-05-17T11:30:34.999Z</time>
      </trkpt>
      <trkpt lat="43.65373" lon="3.36083">
        <ele>288.8</ele>
        <time>2026-05-17T11:30:35.999Z</time>
      </trkpt>
      <trkpt lat="43.65372" lon="3.36083">
        <ele>288.8</ele>
        <time>2026-05-17T11:30:36.999Z</time>
      </trkpt>
      <trkpt lat="43.65372" lon="3.36083">
        <ele>288.6</ele>
        <time>2026-05-17T11:30:37.999Z</time>
      </trkpt>
      <trkpt lat="43.65372" lon="3.36083">
        <ele>288.7</ele>
        <time>2026-05-17T11:30:38.999Z</time>
      </trkpt>
      <trkpt lat="43.65372" lon="3.36083">
        <ele>288.5</ele>
        <time>2026-05-17T11:30:39.999Z</time>
      </trkpt>
      <trkpt lat="43.65372" lon="3.36083">
        <ele>288.7</ele>
        <time>2026-05-17T11:30:40.999Z</time>
      </trkpt>
      <trkpt lat="43.65372" lon="3.36083">
        <ele>288.7</ele>
        <time>2026-05-17T11:30:41.999Z</time>
      </trkpt>
      <trkpt lat="43.65372" lon="3.36083">
        <ele>288.7</ele>
        <time>2026-05-17T11:30:42.999Z</time>
      </trkpt>
      <trkpt lat="43.65372" lon="3.36083">
        <ele>288.7</ele>
        <time>2026-05-17T11:30:43.999Z</time>
      </trkpt>
      <trkpt lat="43.65372" lon="3.36083">
        <ele>288.9</ele>
        <time>2026-05-17T11:30:44.999Z</time>
      </trkpt>
      <trkpt lat="43.65372" lon="3.36083">
        <ele>288.5</ele>
        <time>2026-05-17T11:30:45.999Z</time>
      </trkpt>
      <trkpt lat="43.65372" lon="3.36083">
        <ele>288.2</ele>
        <time>2026-05-17T11:30:46.999Z</time>
      </trkpt>
      <trkpt lat="43.65372" lon="3.36083">
        <ele>288.1</ele>
        <time>2026-05-17T11:30:47.999Z</time>
      </trkpt>
      <trkpt lat="43.65371" lon="3.36083">
        <ele>287.9</ele>
        <time>2026-05-17T11:30:48.999Z</time>
      </trkpt>
      <trkpt lat="43.65371" lon="3.36083">
        <ele>287.8</ele>
        <time>2026-05-17T11:30:49.999Z</time>
      </trkpt>
      <trkpt lat="43.65371" lon="3.36083">
        <ele>287.5</ele>
        <time>2026-05-17T11:30:50.999Z</time>
      </trkpt>
      <trkpt lat="43.65371" lon="3.36083">
        <ele>287.5</ele>
        <time>2026-05-17T11:30:51.999Z</time>
      </trkpt>
      <trkpt lat="43.6537" lon="3.36083">
        <ele>287.5</ele>
        <time>2026-05-17T11:30:52.999Z</time>
      </trkpt>
      <trkpt lat="43.6537" lon="3.36083">
        <ele>287.2</ele>
        <time>2026-05-17T11:30:53.999Z</time>
      </trkpt>
      <trkpt lat="43.6537" lon="3.36083">
        <ele>287.1</ele>
        <time>2026-05-17T11:30:54.999Z</time>
      </trkpt>
      <trkpt lat="43.6537" lon="3.36083">
        <ele>287</ele>
        <time>2026-05-17T11:30:55.999Z</time>
      </trkpt>
      <trkpt lat="43.6537" lon="3.36083">
        <ele>286.7</ele>
        <time>2026-05-17T11:30:56.999Z</time>
      </trkpt>
      <trkpt lat="43.6537" lon="3.36083">
        <ele>286.8</ele>
        <time>2026-05-17T11:30:57.999Z</time>
      </trkpt>
      <trkpt lat="43.6537" lon="3.36083">
        <ele>286.7</ele>
        <time>2026-05-17T11:30:58.999Z</time>
      </trkpt>
      <trkpt lat="43.6537" lon="3.36082">
        <ele>286.7</ele>
        <time>2026-05-17T11:30:59.999Z</time>
      </trkpt>
      <trkpt lat="43.65369" lon="3.36082">
        <ele>286.7</ele>
        <time>2026-05-17T11:31:00.999Z</time>
      </trkpt>
      <trkpt lat="43.65369" lon="3.36083">
        <ele>286.3</ele>
        <time>2026-05-17T11:31:01.999Z</time>
      </trkpt>
      <trkpt lat="43.65369" lon="3.36083">
        <ele>286.2</ele>
        <time>2026-05-17T11:31:02.999Z</time>
      </trkpt>
      <trkpt lat="43.65369" lon="3.36083">
        <ele>286</ele>
        <time>2026-05-17T11:31:03.999Z</time>
      </trkpt>
      <trkpt lat="43.65369" lon="3.36083">
        <ele>285.9</ele>
        <time>2026-05-17T11:31:04.999Z</time>
      </trkpt>
      <trkpt lat="43.65368" lon="3.36082">
        <ele>285.7</ele>
        <time>2026-05-17T11:31:05.999Z</time>
      </trkpt>
      <trkpt lat="43.65368" lon="3.36082">
        <ele>285.7</ele>
        <time>2026-05-17T11:31:06.999Z</time>
      </trkpt>
      <trkpt lat="43.65368" lon="3.36082">
        <ele>285.6</ele>
        <time>2026-05-17T11:31:07.999Z</time>
      </trkpt>
      <trkpt lat="43.65368" lon="3.36082">
        <ele>285.5</ele>
        <time>2026-05-17T11:31:08.999Z</time>
      </trkpt>
      <trkpt lat="43.65366" lon="3.36082">
        <ele>285.4</ele>
        <time>2026-05-17T11:31:09.999Z</time>
      </trkpt>
      <trkpt lat="43.65365" lon="3.36082">
        <ele>285.2</ele>
        <time>2026-05-17T11:31:10.999Z</time>
      </trkpt>
      <trkpt lat="43.65365" lon="3.36082">
        <ele>284.9</ele>
        <time>2026-05-17T11:31:11.999Z</time>
      </trkpt>
      <trkpt lat="43.65364" lon="3.36082">
        <ele>284.9</ele>
        <time>2026-05-17T11:31:12.999Z</time>
      </trkpt>
      <trkpt lat="43.65363" lon="3.36083">
        <ele>284.7</ele>
        <time>2026-05-17T11:31:13.999Z</time>
      </trkpt>
      <trkpt lat="43.65363" lon="3.36083">
        <ele>284.7</ele>
        <time>2026-05-17T11:31:14.999Z</time>
      </trkpt>
      <trkpt lat="43.65363" lon="3.36083">
        <ele>284.5</ele>
        <time>2026-05-17T11:31:15.999Z</time>
      </trkpt>
      <trkpt lat="43.65363" lon="3.36083">
        <ele>284.4</ele>
        <time>2026-05-17T11:31:16.999Z</time>
      </trkpt>
      <trkpt lat="43.65363" lon="3.36083">
        <ele>284.4</ele>
        <time>2026-05-17T11:31:17.999Z</time>
      </trkpt>
      <trkpt lat="43.65363" lon="3.36083">
        <ele>284.6</ele>
        <time>2026-05-17T11:31:18.999Z</time>
      </trkpt>
      <trkpt lat="43.65363" lon="3.36083">
        <ele>284.9</ele>
        <time>2026-05-17T11:31:19.999Z</time>
      </trkpt>
      <trkpt lat="43.65361" lon="3.36084">
        <ele>284.6</ele>
        <time>2026-05-17T11:31:20.999Z</time>
      </trkpt>
      <trkpt lat="43.6536" lon="3.36084">
        <ele>284.5</ele>
        <time>2026-05-17T11:31:21.999Z</time>
      </trkpt>
      <trkpt lat="43.65359" lon="3.36085">
        <ele>284.3</ele>
        <time>2026-05-17T11:31:22.999Z</time>
      </trkpt>
      <trkpt lat="43.65359" lon="3.36085">
        <ele>284</ele>
        <time>2026-05-17T11:31:23.999Z</time>
      </trkpt>
      <trkpt lat="43.65359" lon="3.36085">
        <ele>283.6</ele>
        <time>2026-05-17T11:31:24.999Z</time>
      </trkpt>
      <trkpt lat="43.65359" lon="3.36085">
        <ele>283.6</ele>
        <time>2026-05-17T11:31:25.999Z</time>
      </trkpt>
      <trkpt lat="43.65359" lon="3.36085">
        <ele>283.6</ele>
        <time>2026-05-17T11:31:26.999Z</time>
      </trkpt>
      <trkpt lat="43.65359" lon="3.36085">
        <ele>283.5</ele>
        <time>2026-05-17T11:31:27.999Z</time>
      </trkpt>
      <trkpt lat="43.65359" lon="3.36085">
        <ele>283.5</ele>
        <time>2026-05-17T11:31:28.999Z</time>
      </trkpt>
      <trkpt lat="43.65359" lon="3.36085">
        <ele>283.4</ele>
        <time>2026-05-17T11:31:29.999Z</time>
      </trkpt>
      <trkpt lat="43.65359" lon="3.36085">
        <ele>283.2</ele>
        <time>2026-05-17T11:31:30.999Z</time>
      </trkpt>
      <trkpt lat="43.65359" lon="3.36085">
        <ele>283.3</ele>
        <time>2026-05-17T11:31:31.999Z</time>
      </trkpt>
      <trkpt lat="43.65359" lon="3.36085">
        <ele>283.2</ele>
        <time>2026-05-17T11:31:32.999Z</time>
      </trkpt>
      <trkpt lat="43.65359" lon="3.36085">
        <ele>283.3</ele>
        <time>2026-05-17T11:31:33.999Z</time>
      </trkpt>
      <trkpt lat="43.65358" lon="3.36085">
        <ele>283.1</ele>
        <time>2026-05-17T11:31:34.999Z</time>
      </trkpt>
      <trkpt lat="43.65358" lon="3.36085">
        <ele>283</ele>
        <time>2026-05-17T11:31:35.999Z</time>
      </trkpt>
      <trkpt lat="43.65358" lon="3.36085">
        <ele>283.2</ele>
        <time>2026-05-17T11:31:36.999Z</time>
      </trkpt>
      <trkpt lat="43.65358" lon="3.36085">
        <ele>283.2</ele>
        <time>2026-05-17T11:31:37.999Z</time>
      </trkpt>
      <trkpt lat="43.65358" lon="3.36085">
        <ele>283.1</ele>
        <time>2026-05-17T11:31:38.999Z</time>
      </trkpt>
      <trkpt lat="43.65358" lon="3.36085">
        <ele>283.1</ele>
        <time>2026-05-17T11:31:39.999Z</time>
      </trkpt>
      <trkpt lat="43.65358" lon="3.36085">
        <ele>282.9</ele>
        <time>2026-05-17T11:31:40.999Z</time>
      </trkpt>
      <trkpt lat="43.65358" lon="3.36085">
        <ele>282.7</ele>
        <time>2026-05-17T11:31:41.999Z</time>
      </trkpt>
      <trkpt lat="43.65358" lon="3.36085">
        <ele>282.4</ele>
        <time>2026-05-17T11:31:42.999Z</time>
      </trkpt>
      <trkpt lat="43.65358" lon="3.36085">
        <ele>282.2</ele>
        <time>2026-05-17T11:31:43.999Z</time>
      </trkpt>
      <trkpt lat="43.65358" lon="3.36085">
        <ele>282.2</ele>
        <time>2026-05-17T11:31:44.999Z</time>
      </trkpt>
      <trkpt lat="43.65357" lon="3.36085">
        <ele>282.1</ele>
        <time>2026-05-17T11:31:45.999Z</time>
      </trkpt>
      <trkpt lat="43.65357" lon="3.36085">
        <ele>282</ele>
        <time>2026-05-17T11:31:46.999Z</time>
      </trkpt>
      <trkpt lat="43.65357" lon="3.36084">
        <ele>281.9</ele>
        <time>2026-05-17T11:31:47.999Z</time>
      </trkpt>
      <trkpt lat="43.65357" lon="3.36084">
        <ele>282.1</ele>
        <time>2026-05-17T11:31:48.999Z</time>
      </trkpt>
      <trkpt lat="43.65357" lon="3.36085">
        <ele>282</ele>
        <time>2026-05-17T11:31:49.999Z</time>
      </trkpt>
      <trkpt lat="43.65356" lon="3.36084">
        <ele>281.9</ele>
        <time>2026-05-17T11:31:50.999Z</time>
      </trkpt>
      <trkpt lat="43.65356" lon="3.36084">
        <ele>281.8</ele>
        <time>2026-05-17T11:31:51.999Z</time>
      </trkpt>
      <trkpt lat="43.65356" lon="3.36084">
        <ele>281.7</ele>
        <time>2026-05-17T11:31:52.999Z</time>
      </trkpt>
      <trkpt lat="43.65356" lon="3.36084">
        <ele>281.6</ele>
        <time>2026-05-17T11:31:53.999Z</time>
      </trkpt>
      <trkpt lat="43.65356" lon="3.36084">
        <ele>281.6</ele>
        <time>2026-05-17T11:31:54.999Z</time>
      </trkpt>
      <trkpt lat="43.65356" lon="3.36084">
        <ele>281.4</ele>
        <time>2026-05-17T11:31:55.999Z</time>
      </trkpt>
      <trkpt lat="43.65356" lon="3.36084">
        <ele>281.4</ele>
        <time>2026-05-17T11:31:56.999Z</time>
      </trkpt>
      <trkpt lat="43.65355" lon="3.36084">
        <ele>281.4</ele>
        <time>2026-05-17T11:31:57.999Z</time>
      </trkpt>
      <trkpt lat="43.65355" lon="3.36084">
        <ele>281.3</ele>
        <time>2026-05-17T11:31:58.999Z</time>
      </trkpt>
      <trkpt lat="43.65355" lon="3.36084">
        <ele>281.3</ele>
        <time>2026-05-17T11:31:59.999Z</time>
      </trkpt>
      <trkpt lat="43.65355" lon="3.36084">
        <ele>281.2</ele>
        <time>2026-05-17T11:32:00.999Z</time>
      </trkpt>
      <trkpt lat="43.65355" lon="3.36084">
        <ele>281.2</ele>
        <time>2026-05-17T11:32:01.999Z</time>
      </trkpt>
      <trkpt lat="43.65355" lon="3.36084">
        <ele>281.3</ele>
        <time>2026-05-17T11:32:02.999Z</time>
      </trkpt>
      <trkpt lat="43.65355" lon="3.36084">
        <ele>281.2</ele>
        <time>2026-05-17T11:32:03.999Z</time>
      </trkpt>
      <trkpt lat="43.65355" lon="3.36084">
        <ele>280.8</ele>
        <time>2026-05-17T11:32:04.999Z</time>
      </trkpt>
      <trkpt lat="43.65355" lon="3.36084">
        <ele>280.4</ele>
        <time>2026-05-17T11:32:05.999Z</time>
      </trkpt>
      <trkpt lat="43.65355" lon="3.36084">
        <ele>280.3</ele>
        <time>2026-05-17T11:32:06.999Z</time>
      </trkpt>
      <trkpt lat="43.65355" lon="3.36084">
        <ele>280.2</ele>
        <time>2026-05-17T11:32:07.999Z</time>
      </trkpt>
      <trkpt lat="43.65355" lon="3.36084">
        <ele>280</ele>
        <time>2026-05-17T11:32:08.999Z</time>
      </trkpt>
      <trkpt lat="43.65355" lon="3.36084">
        <ele>279.7</ele>
        <time>2026-05-17T11:32:09.999Z</time>
      </trkpt>
      <trkpt lat="43.65355" lon="3.36084">
        <ele>279.7</ele>
        <time>2026-05-17T11:32:10.999Z</time>
      </trkpt>
      <trkpt lat="43.65355" lon="3.36084">
        <ele>279.4</ele>
        <time>2026-05-17T11:32:11.999Z</time>
      </trkpt>
      <trkpt lat="43.65354" lon="3.36084">
        <ele>279.1</ele>
        <time>2026-05-17T11:32:12.999Z</time>
      </trkpt>
      <trkpt lat="43.65354" lon="3.36084">
        <ele>278.8</ele>
        <time>2026-05-17T11:32:13.999Z</time>
      </trkpt>
      <trkpt lat="43.65354" lon="3.36084">
        <ele>278.6</ele>
        <time>2026-05-17T11:32:14.999Z</time>
      </trkpt>
      <trkpt lat="43.65354" lon="3.36085">
        <ele>278.4</ele>
        <time>2026-05-17T11:32:15.999Z</time>
      </trkpt>
      <trkpt lat="43.65353" lon="3.36085">
        <ele>278.3</ele>
        <time>2026-05-17T11:32:16.999Z</time>
      </trkpt>
      <trkpt lat="43.6535" lon="3.36085">
        <ele>278.1</ele>
        <time>2026-05-17T11:32:17.999Z</time>
      </trkpt>
      <trkpt lat="43.65349" lon="3.36084">
        <ele>278.1</ele>
        <time>2026-05-17T11:32:18.999Z</time>
      </trkpt>
      <trkpt lat="43.65349" lon="3.36084">
        <ele>277.9</ele>
        <time>2026-05-17T11:32:19.999Z</time>
      </trkpt>
      <trkpt lat="43.65349" lon="3.36084">
        <ele>277.9</ele>
        <time>2026-05-17T11:32:20.999Z</time>
      </trkpt>
      <trkpt lat="43.65349" lon="3.36085">
        <ele>277.8</ele>
        <time>2026-05-17T11:32:21.999Z</time>
      </trkpt>
      <trkpt lat="43.65349" lon="3.36085">
        <ele>277.6</ele>
        <time>2026-05-17T11:32:22.999Z</time>
      </trkpt>
      <trkpt lat="43.65348" lon="3.36085">
        <ele>277.5</ele>
        <time>2026-05-17T11:32:23.999Z</time>
      </trkpt>
      <trkpt lat="43.65348" lon="3.36085">
        <ele>277.4</ele>
        <time>2026-05-17T11:32:24.999Z</time>
      </trkpt>
      <trkpt lat="43.65348" lon="3.36085">
        <ele>277.3</ele>
        <time>2026-05-17T11:32:25.999Z</time>
      </trkpt>
      <trkpt lat="43.65347" lon="3.36084">
        <ele>277.3</ele>
        <time>2026-05-17T11:32:26.999Z</time>
      </trkpt>
      <trkpt lat="43.65347" lon="3.36085">
        <ele>277.3</ele>
        <time>2026-05-17T11:32:27.999Z</time>
      </trkpt>
      <trkpt lat="43.65346" lon="3.36085">
        <ele>277.3</ele>
        <time>2026-05-17T11:32:28.999Z</time>
      </trkpt>
      <trkpt lat="43.65346" lon="3.36085">
        <ele>277.4</ele>
        <time>2026-05-17T11:32:29.999Z</time>
      </trkpt>
      <trkpt lat="43.65346" lon="3.36085">
        <ele>277.3</ele>
        <time>2026-05-17T11:32:30.999Z</time>
      </trkpt>
      <trkpt lat="43.65346" lon="3.36085">
        <ele>276.9</ele>
        <time>2026-05-17T11:32:31.999Z</time>
      </trkpt>
      <trkpt lat="43.65345" lon="3.36084">
        <ele>276.6</ele>
        <time>2026-05-17T11:32:32.999Z</time>
      </trkpt>
      <trkpt lat="43.65344" lon="3.36084">
        <ele>276.3</ele>
        <time>2026-05-17T11:32:33.999Z</time>
      </trkpt>
      <trkpt lat="43.65343" lon="3.36085">
        <ele>275.9</ele>
        <time>2026-05-17T11:32:34.999Z</time>
      </trkpt>
      <trkpt lat="43.65342" lon="3.36085">
        <ele>275.6</ele>
        <time>2026-05-17T11:32:35.999Z</time>
      </trkpt>
      <trkpt lat="43.65342" lon="3.36085">
        <ele>275.2</ele>
        <time>2026-05-17T11:32:36.999Z</time>
      </trkpt>
      <trkpt lat="43.65342" lon="3.36085">
        <ele>275.1</ele>
        <time>2026-05-17T11:32:37.999Z</time>
      </trkpt>
      <trkpt lat="43.65342" lon="3.36085">
        <ele>274.9</ele>
        <time>2026-05-17T11:32:38.999Z</time>
      </trkpt>
      <trkpt lat="43.65342" lon="3.36085">
        <ele>274.6</ele>
        <time>2026-05-17T11:32:39.999Z</time>
      </trkpt>
      <trkpt lat="43.65342" lon="3.36085">
        <ele>274.3</ele>
        <time>2026-05-17T11:32:40.999Z</time>
      </trkpt>
      <trkpt lat="43.65341" lon="3.36085">
        <ele>274.2</ele>
        <time>2026-05-17T11:32:41.999Z</time>
      </trkpt>
      <trkpt lat="43.65341" lon="3.36085">
        <ele>274.1</ele>
        <time>2026-05-17T11:32:42.999Z</time>
      </trkpt>
      <trkpt lat="43.65341" lon="3.36085">
        <ele>274</ele>
        <time>2026-05-17T11:32:43.999Z</time>
      </trkpt>
      <trkpt lat="43.65341" lon="3.36085">
        <ele>273.9</ele>
        <time>2026-05-17T11:32:44.999Z</time>
      </trkpt>
      <trkpt lat="43.65341" lon="3.36085">
        <ele>273.8</ele>
        <time>2026-05-17T11:32:45.999Z</time>
      </trkpt>
      <trkpt lat="43.6534" lon="3.36086">
        <ele>273.8</ele>
        <time>2026-05-17T11:32:46.999Z</time>
      </trkpt>
      <trkpt lat="43.65339" lon="3.36086">
        <ele>273.6</ele>
        <time>2026-05-17T11:32:47.999Z</time>
      </trkpt>
      <trkpt lat="43.65339" lon="3.36086">
        <ele>273.4</ele>
        <time>2026-05-17T11:32:48.999Z</time>
      </trkpt>
      <trkpt lat="43.65339" lon="3.36086">
        <ele>273.2</ele>
        <time>2026-05-17T11:32:49.999Z</time>
      </trkpt>
      <trkpt lat="43.65339" lon="3.36086">
        <ele>272.9</ele>
        <time>2026-05-17T11:32:50.999Z</time>
      </trkpt>
      <trkpt lat="43.65339" lon="3.36086">
        <ele>272.6</ele>
        <time>2026-05-17T11:32:51.999Z</time>
      </trkpt>
      <trkpt lat="43.65338" lon="3.36086">
        <ele>272.3</ele>
        <time>2026-05-17T11:32:52.999Z</time>
      </trkpt>
      <trkpt lat="43.65338" lon="3.36087">
        <ele>272</ele>
        <time>2026-05-17T11:32:53.999Z</time>
      </trkpt>
      <trkpt lat="43.65337" lon="3.36086">
        <ele>271.7</ele>
        <time>2026-05-17T11:32:54.999Z</time>
      </trkpt>
      <trkpt lat="43.65337" lon="3.36087">
        <ele>271.5</ele>
        <time>2026-05-17T11:32:55.999Z</time>
      </trkpt>
      <trkpt lat="43.65336" lon="3.36087">
        <ele>271.2</ele>
        <time>2026-05-17T11:32:56.999Z</time>
      </trkpt>
      <trkpt lat="43.65335" lon="3.36087">
        <ele>271.1</ele>
        <time>2026-05-17T11:32:57.999Z</time>
      </trkpt>
      <trkpt lat="43.65335" lon="3.36087">
        <ele>271.1</ele>
        <time>2026-05-17T11:32:58.999Z</time>
      </trkpt>
      <trkpt lat="43.65334" lon="3.36087">
        <ele>270.8</ele>
        <time>2026-05-17T11:32:59.999Z</time>
      </trkpt>
      <trkpt lat="43.65334" lon="3.36087">
        <ele>270.5</ele>
        <time>2026-05-17T11:33:00.999Z</time>
      </trkpt>
      <trkpt lat="43.65334" lon="3.36087">
        <ele>270.4</ele>
        <time>2026-05-17T11:33:01.999Z</time>
      </trkpt>
      <trkpt lat="43.65334" lon="3.36087">
        <ele>270.2</ele>
        <time>2026-05-17T11:33:02.999Z</time>
      </trkpt>
      <trkpt lat="43.65334" lon="3.36087">
        <ele>269.9</ele>
        <time>2026-05-17T11:33:03.999Z</time>
      </trkpt>
      <trkpt lat="43.65334" lon="3.36087">
        <ele>269.7</ele>
        <time>2026-05-17T11:33:04.999Z</time>
      </trkpt>
      <trkpt lat="43.65334" lon="3.36087">
        <ele>269.6</ele>
        <time>2026-05-17T11:33:05.999Z</time>
      </trkpt>
      <trkpt lat="43.65334" lon="3.36087">
        <ele>269.3</ele>
        <time>2026-05-17T11:33:06.999Z</time>
      </trkpt>
      <trkpt lat="43.65333" lon="3.36087">
        <ele>269.1</ele>
        <time>2026-05-17T11:33:07.999Z</time>
      </trkpt>
      <trkpt lat="43.65333" lon="3.36087">
        <ele>268.9</ele>
        <time>2026-05-17T11:33:08.999Z</time>
      </trkpt>
      <trkpt lat="43.65333" lon="3.36087">
        <ele>268.5</ele>
        <time>2026-05-17T11:33:09.999Z</time>
      </trkpt>
      <trkpt lat="43.65333" lon="3.36087">
        <ele>268.2</ele>
        <time>2026-05-17T11:33:10.999Z</time>
      </trkpt>
      <trkpt lat="43.65333" lon="3.36088">
        <ele>267.8</ele>
        <time>2026-05-17T11:33:11.999Z</time>
      </trkpt>
      <trkpt lat="43.65333" lon="3.36088">
        <ele>267.4</ele>
        <time>2026-05-17T11:33:12.999Z</time>
      </trkpt>
      <trkpt lat="43.65333" lon="3.36088">
        <ele>267.1</ele>
        <time>2026-05-17T11:33:13.999Z</time>
      </trkpt>
      <trkpt lat="43.65333" lon="3.36088">
        <ele>266.9</ele>
        <time>2026-05-17T11:33:14.999Z</time>
      </trkpt>
      <trkpt lat="43.65333" lon="3.36088">
        <ele>266.4</ele>
        <time>2026-05-17T11:33:15.999Z</time>
      </trkpt>
      <trkpt lat="43.65333" lon="3.36088">
        <ele>266.2</ele>
        <time>2026-05-17T11:33:16.999Z</time>
      </trkpt>
      <trkpt lat="43.65332" lon="3.36088">
        <ele>265.9</ele>
        <time>2026-05-17T11:33:17.999Z</time>
      </trkpt>
      <trkpt lat="43.65332" lon="3.36088">
        <ele>265.7</ele>
        <time>2026-05-17T11:33:18.999Z</time>
      </trkpt>
      <trkpt lat="43.65332" lon="3.36088">
        <ele>265.5</ele>
        <time>2026-05-17T11:33:19.999Z</time>
      </trkpt>
      <trkpt lat="43.65332" lon="3.36088">
        <ele>265.4</ele>
        <time>2026-05-17T11:33:20.999Z</time>
      </trkpt>
      <trkpt lat="43.65332" lon="3.36088">
        <ele>265.4</ele>
        <time>2026-05-17T11:33:21.999Z</time>
      </trkpt>
      <trkpt lat="43.65331" lon="3.36088">
        <ele>265.4</ele>
        <time>2026-05-17T11:33:22.999Z</time>
      </trkpt>
      <trkpt lat="43.6533" lon="3.36088">
        <ele>265.2</ele>
        <time>2026-05-17T11:33:23.999Z</time>
      </trkpt>
      <trkpt lat="43.65329" lon="3.36089">
        <ele>265.2</ele>
        <time>2026-05-17T11:33:24.999Z</time>
      </trkpt>
      <trkpt lat="43.65328" lon="3.36089">
        <ele>265</ele>
        <time>2026-05-17T11:33:25.999Z</time>
      </trkpt>
      <trkpt lat="43.65328" lon="3.36089">
        <ele>265.1</ele>
        <time>2026-05-17T11:33:26.999Z</time>
      </trkpt>
      <trkpt lat="43.65328" lon="3.36089">
        <ele>265.3</ele>
        <time>2026-05-17T11:33:27.999Z</time>
      </trkpt>
      <trkpt lat="43.65328" lon="3.36089">
        <ele>265.5</ele>
        <time>2026-05-17T11:33:28.999Z</time>
      </trkpt>
      <trkpt lat="43.65328" lon="3.36089">
        <ele>265.5</ele>
        <time>2026-05-17T11:33:29.999Z</time>
      </trkpt>
      <trkpt lat="43.65328" lon="3.36089">
        <ele>265.1</ele>
        <time>2026-05-17T11:33:30.999Z</time>
      </trkpt>
      <trkpt lat="43.65327" lon="3.36089">
        <ele>265.2</ele>
        <time>2026-05-17T11:33:31.999Z</time>
      </trkpt>
      <trkpt lat="43.65327" lon="3.36089">
        <ele>265.4</ele>
        <time>2026-05-17T11:33:32.999Z</time>
      </trkpt>
      <trkpt lat="43.65327" lon="3.36089">
        <ele>265</ele>
        <time>2026-05-17T11:33:33.999Z</time>
      </trkpt>
      <trkpt lat="43.65327" lon="3.36089">
        <ele>265</ele>
        <time>2026-05-17T11:33:34.999Z</time>
      </trkpt>
      <trkpt lat="43.65327" lon="3.36089">
        <ele>264.9</ele>
        <time>2026-05-17T11:33:35.999Z</time>
      </trkpt>
      <trkpt lat="43.65327" lon="3.36089">
        <ele>264.6</ele>
        <time>2026-05-17T11:33:36.999Z</time>
      </trkpt>
      <trkpt lat="43.65327" lon="3.36089">
        <ele>264.4</ele>
        <time>2026-05-17T11:33:37.999Z</time>
      </trkpt>
      <trkpt lat="43.65327" lon="3.36089">
        <ele>264.5</ele>
        <time>2026-05-17T11:33:38.999Z</time>
      </trkpt>
      <trkpt lat="43.65327" lon="3.36089">
        <ele>264.3</ele>
        <time>2026-05-17T11:33:39.999Z</time>
      </trkpt>
      <trkpt lat="43.65327" lon="3.36089">
        <ele>264.3</ele>
        <time>2026-05-17T11:33:40.999Z</time>
      </trkpt>
      <trkpt lat="43.65327" lon="3.36089">
        <ele>264.3</ele>
        <time>2026-05-17T11:33:41.999Z</time>
      </trkpt>
      <trkpt lat="43.65327" lon="3.36089">
        <ele>264.1</ele>
        <time>2026-05-17T11:33:42.999Z</time>
      </trkpt>
      <trkpt lat="43.65327" lon="3.36089">
        <ele>264</ele>
        <time>2026-05-17T11:33:43.999Z</time>
      </trkpt>
      <trkpt lat="43.65327" lon="3.36089">
        <ele>264.2</ele>
        <time>2026-05-17T11:33:44.999Z</time>
      </trkpt>
      <trkpt lat="43.65327" lon="3.36089">
        <ele>264.5</ele>
        <time>2026-05-17T11:33:45.999Z</time>
      </trkpt>
      <trkpt lat="43.65327" lon="3.36089">
        <ele>264.9</ele>
        <time>2026-05-17T11:33:46.999Z</time>
      </trkpt>
      <trkpt lat="43.65326" lon="3.36089">
        <ele>264.7</ele>
        <time>2026-05-17T11:33:47.999Z</time>
      </trkpt>
      <trkpt lat="43.65326" lon="3.36089">
        <ele>264.7</ele>
        <time>2026-05-17T11:33:48.999Z</time>
      </trkpt>
      <trkpt lat="43.65326" lon="3.36089">
        <ele>264.7</ele>
        <time>2026-05-17T11:33:49.999Z</time>
      </trkpt>
      <trkpt lat="43.65325" lon="3.36089">
        <ele>264.6</ele>
        <time>2026-05-17T11:33:50.999Z</time>
      </trkpt>
      <trkpt lat="43.65323" lon="3.3609">
        <ele>264.6</ele>
        <time>2026-05-17T11:33:51.999Z</time>
      </trkpt>
      <trkpt lat="43.65323" lon="3.3609">
        <ele>264.6</ele>
        <time>2026-05-17T11:33:52.999Z</time>
      </trkpt>
      <trkpt lat="43.65323" lon="3.3609">
        <ele>264.6</ele>
        <time>2026-05-17T11:33:53.999Z</time>
      </trkpt>
      <trkpt lat="43.65323" lon="3.3609">
        <ele>264.5</ele>
        <time>2026-05-17T11:33:54.999Z</time>
      </trkpt>
      <trkpt lat="43.65323" lon="3.3609">
        <ele>264.5</ele>
        <time>2026-05-17T11:33:55.999Z</time>
      </trkpt>
      <trkpt lat="43.65323" lon="3.3609">
        <ele>264.3</ele>
        <time>2026-05-17T11:33:56.999Z</time>
      </trkpt>
      <trkpt lat="43.65322" lon="3.3609">
        <ele>264.2</ele>
        <time>2026-05-17T11:33:57.999Z</time>
      </trkpt>
      <trkpt lat="43.65322" lon="3.36091">
        <ele>263.9</ele>
        <time>2026-05-17T11:33:58.999Z</time>
      </trkpt>
      <trkpt lat="43.65321" lon="3.3609">
        <ele>263.6</ele>
        <time>2026-05-17T11:33:59.999Z</time>
      </trkpt>
      <trkpt lat="43.65321" lon="3.36091">
        <ele>263.4</ele>
        <time>2026-05-17T11:34:00.999Z</time>
      </trkpt>
      <trkpt lat="43.65321" lon="3.36091">
        <ele>263.2</ele>
        <time>2026-05-17T11:34:01.999Z</time>
      </trkpt>
      <trkpt lat="43.65321" lon="3.36091">
        <ele>262.9</ele>
        <time>2026-05-17T11:34:02.999Z</time>
      </trkpt>
      <trkpt lat="43.6532" lon="3.36091">
        <ele>262.7</ele>
        <time>2026-05-17T11:34:03.999Z</time>
      </trkpt>
      <trkpt lat="43.6532" lon="3.36091">
        <ele>262.4</ele>
        <time>2026-05-17T11:34:04.999Z</time>
      </trkpt>
      <trkpt lat="43.65319" lon="3.36091">
        <ele>262.2</ele>
        <time>2026-05-17T11:34:05.999Z</time>
      </trkpt>
      <trkpt lat="43.65319" lon="3.36091">
        <ele>262.3</ele>
        <time>2026-05-17T11:34:06.999Z</time>
      </trkpt>
      <trkpt lat="43.65319" lon="3.36091">
        <ele>262.2</ele>
        <time>2026-05-17T11:34:07.999Z</time>
      </trkpt>
      <trkpt lat="43.65318" lon="3.36092">
        <ele>261.9</ele>
        <time>2026-05-17T11:34:08.999Z</time>
      </trkpt>
      <trkpt lat="43.65317" lon="3.36092">
        <ele>261.8</ele>
        <time>2026-05-17T11:34:09.999Z</time>
      </trkpt>
      <trkpt lat="43.65316" lon="3.36093">
        <ele>261.8</ele>
        <time>2026-05-17T11:34:10.999Z</time>
      </trkpt>
      <trkpt lat="43.65316" lon="3.36094">
        <ele>261.5</ele>
        <time>2026-05-17T11:34:11.999Z</time>
      </trkpt>
      <trkpt lat="43.65316" lon="3.36094">
        <ele>261.5</ele>
        <time>2026-05-17T11:34:12.999Z</time>
      </trkpt>
      <trkpt lat="43.65316" lon="3.36094">
        <ele>261.5</ele>
        <time>2026-05-17T11:34:13.999Z</time>
      </trkpt>
      <trkpt lat="43.65315" lon="3.36095">
        <ele>261.6</ele>
        <time>2026-05-17T11:34:14.999Z</time>
      </trkpt>
      <trkpt lat="43.65315" lon="3.36095">
        <ele>261.8</ele>
        <time>2026-05-17T11:34:15.999Z</time>
      </trkpt>
      <trkpt lat="43.65314" lon="3.36096">
        <ele>261.8</ele>
        <time>2026-05-17T11:34:16.999Z</time>
      </trkpt>
      <trkpt lat="43.65314" lon="3.36096">
        <ele>261.8</ele>
        <time>2026-05-17T11:34:17.999Z</time>
      </trkpt>
      <trkpt lat="43.65313" lon="3.36097">
        <ele>261.7</ele>
        <time>2026-05-17T11:34:18.999Z</time>
      </trkpt>
      <trkpt lat="43.65313" lon="3.36097">
        <ele>261.6</ele>
        <time>2026-05-17T11:34:19.999Z</time>
      </trkpt>
      <trkpt lat="43.65312" lon="3.36098">
        <ele>261.5</ele>
        <time>2026-05-17T11:34:20.999Z</time>
      </trkpt>
      <trkpt lat="43.65312" lon="3.36098">
        <ele>261.5</ele>
        <time>2026-05-17T11:34:21.999Z</time>
      </trkpt>
      <trkpt lat="43.65311" lon="3.36098">
        <ele>261.3</ele>
        <time>2026-05-17T11:34:22.999Z</time>
      </trkpt>
      <trkpt lat="43.65311" lon="3.36099">
        <ele>261.2</ele>
        <time>2026-05-17T11:34:23.999Z</time>
      </trkpt>
      <trkpt lat="43.6531" lon="3.36099">
        <ele>261.1</ele>
        <time>2026-05-17T11:34:24.999Z</time>
      </trkpt>
      <trkpt lat="43.6531" lon="3.36099">
        <ele>261.1</ele>
        <time>2026-05-17T11:34:25.999Z</time>
      </trkpt>
      <trkpt lat="43.6531" lon="3.36099">
        <ele>261</ele>
        <time>2026-05-17T11:34:26.999Z</time>
      </trkpt>
      <trkpt lat="43.6531" lon="3.36099">
        <ele>260.9</ele>
        <time>2026-05-17T11:34:27.999Z</time>
      </trkpt>
      <trkpt lat="43.65309" lon="3.36099">
        <ele>260.8</ele>
        <time>2026-05-17T11:34:28.999Z</time>
      </trkpt>
      <trkpt lat="43.65309" lon="3.36099">
        <ele>260.6</ele>
        <time>2026-05-17T11:34:29.999Z</time>
      </trkpt>
      <trkpt lat="43.65308" lon="3.36099">
        <ele>260.6</ele>
        <time>2026-05-17T11:34:30.999Z</time>
      </trkpt>
      <trkpt lat="43.65308" lon="3.36099">
        <ele>260.5</ele>
        <time>2026-05-17T11:34:31.999Z</time>
      </trkpt>
      <trkpt lat="43.65308" lon="3.36099">
        <ele>260.2</ele>
        <time>2026-05-17T11:34:32.999Z</time>
      </trkpt>
      <trkpt lat="43.65307" lon="3.36098">
        <ele>259.9</ele>
        <time>2026-05-17T11:34:33.999Z</time>
      </trkpt>
      <trkpt lat="43.65306" lon="3.36098">
        <ele>259.6</ele>
        <time>2026-05-17T11:34:34.999Z</time>
      </trkpt>
      <trkpt lat="43.65306" lon="3.36098">
        <ele>259.2</ele>
        <time>2026-05-17T11:34:35.999Z</time>
      </trkpt>
      <trkpt lat="43.65306" lon="3.36098">
        <ele>258.6</ele>
        <time>2026-05-17T11:34:36.999Z</time>
      </trkpt>
      <trkpt lat="43.65306" lon="3.36097">
        <ele>258</ele>
        <time>2026-05-17T11:34:37.999Z</time>
      </trkpt>
      <trkpt lat="43.65306" lon="3.36096">
        <ele>257.9</ele>
        <time>2026-05-17T11:34:38.999Z</time>
      </trkpt>
      <trkpt lat="43.65305" lon="3.36095">
        <ele>257.8</ele>
        <time>2026-05-17T11:34:39.999Z</time>
      </trkpt>
      <trkpt lat="43.65305" lon="3.36095">
        <ele>257.6</ele>
        <time>2026-05-17T11:34:40.999Z</time>
      </trkpt>
      <trkpt lat="43.65304" lon="3.36094">
        <ele>257.4</ele>
        <time>2026-05-17T11:34:41.999Z</time>
      </trkpt>
      <trkpt lat="43.65304" lon="3.36095">
        <ele>257.1</ele>
        <time>2026-05-17T11:34:42.999Z</time>
      </trkpt>
      <trkpt lat="43.65304" lon="3.36095">
        <ele>256.8</ele>
        <time>2026-05-17T11:34:43.999Z</time>
      </trkpt>
      <trkpt lat="43.65303" lon="3.36095">
        <ele>256.7</ele>
        <time>2026-05-17T11:34:44.999Z</time>
      </trkpt>
      <trkpt lat="43.65303" lon="3.36095">
        <ele>256.1</ele>
        <time>2026-05-17T11:34:45.999Z</time>
      </trkpt>
      <trkpt lat="43.65303" lon="3.36095">
        <ele>255.7</ele>
        <time>2026-05-17T11:34:46.999Z</time>
      </trkpt>
      <trkpt lat="43.65303" lon="3.36095">
        <ele>255.8</ele>
        <time>2026-05-17T11:34:47.999Z</time>
      </trkpt>
      <trkpt lat="43.65303" lon="3.36095">
        <ele>255.9</ele>
        <time>2026-05-17T11:34:48.999Z</time>
      </trkpt>
      <trkpt lat="43.65303" lon="3.36095">
        <ele>255.9</ele>
        <time>2026-05-17T11:34:49.999Z</time>
      </trkpt>
      <trkpt lat="43.65303" lon="3.36095">
        <ele>255.5</ele>
        <time>2026-05-17T11:34:50.999Z</time>
      </trkpt>
      <trkpt lat="43.65303" lon="3.36094">
        <ele>254.9</ele>
        <time>2026-05-17T11:34:51.999Z</time>
      </trkpt>
      <trkpt lat="43.65302" lon="3.36092">
        <ele>254.4</ele>
        <time>2026-05-17T11:34:52.999Z</time>
      </trkpt>
      <trkpt lat="43.65302" lon="3.36092">
        <ele>254</ele>
        <time>2026-05-17T11:34:53.999Z</time>
      </trkpt>
      <trkpt lat="43.65301" lon="3.36092">
        <ele>253.7</ele>
        <time>2026-05-17T11:34:54.999Z</time>
      </trkpt>
      <trkpt lat="43.65301" lon="3.36091">
        <ele>253.3</ele>
        <time>2026-05-17T11:34:55.999Z</time>
      </trkpt>
      <trkpt lat="43.653" lon="3.36089">
        <ele>253.1</ele>
        <time>2026-05-17T11:34:56.999Z</time>
      </trkpt>
      <trkpt lat="43.65299" lon="3.36088">
        <ele>253</ele>
        <time>2026-05-17T11:34:57.999Z</time>
      </trkpt>
      <trkpt lat="43.65298" lon="3.36087">
        <ele>252.9</ele>
        <time>2026-05-17T11:34:58.999Z</time>
      </trkpt>
      <trkpt lat="43.65298" lon="3.36087">
        <ele>252.9</ele>
        <time>2026-05-17T11:34:59.999Z</time>
      </trkpt>
      <trkpt lat="43.65297" lon="3.36087">
        <ele>252.6</ele>
        <time>2026-05-17T11:35:00.999Z</time>
      </trkpt>
      <trkpt lat="43.65297" lon="3.36087">
        <ele>252.3</ele>
        <time>2026-05-17T11:35:01.999Z</time>
      </trkpt>
      <trkpt lat="43.65297" lon="3.36087">
        <ele>252.1</ele>
        <time>2026-05-17T11:35:02.999Z</time>
      </trkpt>
      <trkpt lat="43.65297" lon="3.36086">
        <ele>252</ele>
        <time>2026-05-17T11:35:03.999Z</time>
      </trkpt>
      <trkpt lat="43.65296" lon="3.36084">
        <ele>252</ele>
        <time>2026-05-17T11:35:04.999Z</time>
      </trkpt>
      <trkpt lat="43.65296" lon="3.36083">
        <ele>251.7</ele>
        <time>2026-05-17T11:35:05.999Z</time>
      </trkpt>
      <trkpt lat="43.65296" lon="3.36081">
        <ele>251.5</ele>
        <time>2026-05-17T11:35:06.999Z</time>
      </trkpt>
      <trkpt lat="43.65295" lon="3.36079">
        <ele>251.5</ele>
        <time>2026-05-17T11:35:07.999Z</time>
      </trkpt>
      <trkpt lat="43.65295" lon="3.36079">
        <ele>251.3</ele>
        <time>2026-05-17T11:35:08.999Z</time>
      </trkpt>
      <trkpt lat="43.65295" lon="3.36079">
        <ele>251.2</ele>
        <time>2026-05-17T11:35:09.999Z</time>
      </trkpt>
      <trkpt lat="43.65295" lon="3.36079">
        <ele>251.1</ele>
        <time>2026-05-17T11:35:10.999Z</time>
      </trkpt>
      <trkpt lat="43.65295" lon="3.36079">
        <ele>251.1</ele>
        <time>2026-05-17T11:35:11.999Z</time>
      </trkpt>
      <trkpt lat="43.65295" lon="3.36079">
        <ele>251.3</ele>
        <time>2026-05-17T11:35:12.999Z</time>
      </trkpt>
      <trkpt lat="43.65295" lon="3.36079">
        <ele>251.4</ele>
        <time>2026-05-17T11:35:13.999Z</time>
      </trkpt>
      <trkpt lat="43.65295" lon="3.36079">
        <ele>251.7</ele>
        <time>2026-05-17T11:35:14.999Z</time>
      </trkpt>
      <trkpt lat="43.65295" lon="3.36078">
        <ele>251.6</ele>
        <time>2026-05-17T11:35:15.999Z</time>
      </trkpt>
      <trkpt lat="43.65295" lon="3.36079">
        <ele>251.7</ele>
        <time>2026-05-17T11:35:16.999Z</time>
      </trkpt>
      <trkpt lat="43.65295" lon="3.36078">
        <ele>251.7</ele>
        <time>2026-05-17T11:35:17.999Z</time>
      </trkpt>
      <trkpt lat="43.65295" lon="3.36079">
        <ele>252.3</ele>
        <time>2026-05-17T11:35:18.999Z</time>
      </trkpt>
      <trkpt lat="43.65295" lon="3.36079">
        <ele>252.8</ele>
        <time>2026-05-17T11:35:19.999Z</time>
      </trkpt>
      <trkpt lat="43.65294" lon="3.36079">
        <ele>253</ele>
        <time>2026-05-17T11:35:20.999Z</time>
      </trkpt>
      <trkpt lat="43.65294" lon="3.36078">
        <ele>252.7</ele>
        <time>2026-05-17T11:35:21.999Z</time>
      </trkpt>
      <trkpt lat="43.65293" lon="3.36077">
        <ele>252.8</ele>
        <time>2026-05-17T11:35:22.999Z</time>
      </trkpt>
      <trkpt lat="43.65293" lon="3.36076">
        <ele>252.7</ele>
        <time>2026-05-17T11:35:24.000Z</time>
      </trkpt>
      <trkpt lat="43.65293" lon="3.36076">
        <ele>252.4</ele>
        <time>2026-05-17T11:35:25.000Z</time>
      </trkpt>
      <trkpt lat="43.65293" lon="3.36076">
        <ele>252</ele>
        <time>2026-05-17T11:35:26.000Z</time>
      </trkpt>
      <trkpt lat="43.65293" lon="3.36077">
        <ele>251.9</ele>
        <time>2026-05-17T11:35:27.000Z</time>
      </trkpt>
      <trkpt lat="43.65292" lon="3.36076">
        <ele>251.9</ele>
        <time>2026-05-17T11:35:28.000Z</time>
      </trkpt>
      <trkpt lat="43.65291" lon="3.36076">
        <ele>251.6</ele>
        <time>2026-05-17T11:35:29.000Z</time>
      </trkpt>
      <trkpt lat="43.6529" lon="3.36074">
        <ele>251.3</ele>
        <time>2026-05-17T11:35:30.000Z</time>
      </trkpt>
      <trkpt lat="43.65289" lon="3.36073">
        <ele>251.1</ele>
        <time>2026-05-17T11:35:31.000Z</time>
      </trkpt>
      <trkpt lat="43.65288" lon="3.36072">
        <ele>251.1</ele>
        <time>2026-05-17T11:35:32.000Z</time>
      </trkpt>
      <trkpt lat="43.65287" lon="3.3607">
        <ele>251</ele>
        <time>2026-05-17T11:35:33.000Z</time>
      </trkpt>
      <trkpt lat="43.65286" lon="3.36068">
        <ele>250.9</ele>
        <time>2026-05-17T11:35:34.000Z</time>
      </trkpt>
      <trkpt lat="43.65286" lon="3.36066">
        <ele>250.3</ele>
        <time>2026-05-17T11:35:35.000Z</time>
      </trkpt>
      <trkpt lat="43.65285" lon="3.36065">
        <ele>250</ele>
        <time>2026-05-17T11:35:36.000Z</time>
      </trkpt>
      <trkpt lat="43.65285" lon="3.36064">
        <ele>249.9</ele>
        <time>2026-05-17T11:35:37.000Z</time>
      </trkpt>
      <trkpt lat="43.65284" lon="3.36062">
        <ele>249.8</ele>
        <time>2026-05-17T11:35:38.000Z</time>
      </trkpt>
      <trkpt lat="43.65284" lon="3.36061">
        <ele>249.8</ele>
        <time>2026-05-17T11:35:39.000Z</time>
      </trkpt>
      <trkpt lat="43.65283" lon="3.3606">
        <ele>249.5</ele>
        <time>2026-05-17T11:35:40.000Z</time>
      </trkpt>
      <trkpt lat="43.65283" lon="3.36059">
        <ele>249.2</ele>
        <time>2026-05-17T11:35:41.000Z</time>
      </trkpt>
      <trkpt lat="43.65282" lon="3.36059">
        <ele>248.9</ele>
        <time>2026-05-17T11:35:42.000Z</time>
      </trkpt>
      <trkpt lat="43.65282" lon="3.36058">
        <ele>248.7</ele>
        <time>2026-05-17T11:35:43.000Z</time>
      </trkpt>
      <trkpt lat="43.65282" lon="3.36058">
        <ele>248.5</ele>
        <time>2026-05-17T11:35:44.000Z</time>
      </trkpt>
      <trkpt lat="43.65282" lon="3.36058">
        <ele>248</ele>
        <time>2026-05-17T11:35:45.000Z</time>
      </trkpt>
      <trkpt lat="43.65281" lon="3.36057">
        <ele>248</ele>
        <time>2026-05-17T11:35:46.000Z</time>
      </trkpt>
      <trkpt lat="43.6528" lon="3.36057">
        <ele>247.7</ele>
        <time>2026-05-17T11:35:47.000Z</time>
      </trkpt>
      <trkpt lat="43.6528" lon="3.36057">
        <ele>247.7</ele>
        <time>2026-05-17T11:35:48.000Z</time>
      </trkpt>
      <trkpt lat="43.65279" lon="3.36056">
        <ele>247.6</ele>
        <time>2026-05-17T11:35:49.000Z</time>
      </trkpt>
      <trkpt lat="43.65278" lon="3.36055">
        <ele>247.5</ele>
        <time>2026-05-17T11:35:50.000Z</time>
      </trkpt>
      <trkpt lat="43.65277" lon="3.36055">
        <ele>247</ele>
        <time>2026-05-17T11:35:51.000Z</time>
      </trkpt>
      <trkpt lat="43.65276" lon="3.36054">
        <ele>246.6</ele>
        <time>2026-05-17T11:35:52.000Z</time>
      </trkpt>
      <trkpt lat="43.65275" lon="3.36053">
        <ele>246.3</ele>
        <time>2026-05-17T11:35:53.000Z</time>
      </trkpt>
      <trkpt lat="43.65275" lon="3.36053">
        <ele>246.2</ele>
        <time>2026-05-17T11:35:54.000Z</time>
      </trkpt>
      <trkpt lat="43.65275" lon="3.36051">
        <ele>246.1</ele>
        <time>2026-05-17T11:35:55.000Z</time>
      </trkpt>
      <trkpt lat="43.65275" lon="3.36051">
        <ele>245.9</ele>
        <time>2026-05-17T11:35:56.000Z</time>
      </trkpt>
      <trkpt lat="43.65274" lon="3.3605">
        <ele>245.8</ele>
        <time>2026-05-17T11:35:57.000Z</time>
      </trkpt>
      <trkpt lat="43.65274" lon="3.3605">
        <ele>245.5</ele>
        <time>2026-05-17T11:35:58.000Z</time>
      </trkpt>
      <trkpt lat="43.65273" lon="3.3605">
        <ele>245.4</ele>
        <time>2026-05-17T11:35:59.000Z</time>
      </trkpt>
      <trkpt lat="43.65273" lon="3.3605">
        <ele>245.6</ele>
        <time>2026-05-17T11:36:00.000Z</time>
      </trkpt>
      <trkpt lat="43.65273" lon="3.36051">
        <ele>245.5</ele>
        <time>2026-05-17T11:36:01.000Z</time>
      </trkpt>
      <trkpt lat="43.65273" lon="3.36052">
        <ele>245.1</ele>
        <time>2026-05-17T11:36:02.000Z</time>
      </trkpt>
      <trkpt lat="43.65273" lon="3.36051">
        <ele>244.5</ele>
        <time>2026-05-17T11:36:03.000Z</time>
      </trkpt>
      <trkpt lat="43.65273" lon="3.36051">
        <ele>244.3</ele>
        <time>2026-05-17T11:36:04.000Z</time>
      </trkpt>
      <trkpt lat="43.65273" lon="3.36051">
        <ele>243.8</ele>
        <time>2026-05-17T11:36:05.000Z</time>
      </trkpt>
      <trkpt lat="43.65272" lon="3.36051">
        <ele>243.5</ele>
        <time>2026-05-17T11:36:06.000Z</time>
      </trkpt>
      <trkpt lat="43.65272" lon="3.3605">
        <ele>242.9</ele>
        <time>2026-05-17T11:36:07.000Z</time>
      </trkpt>
      <trkpt lat="43.65272" lon="3.3605">
        <ele>242.5</ele>
        <time>2026-05-17T11:36:08.000Z</time>
      </trkpt>
      <trkpt lat="43.65272" lon="3.36049">
        <ele>242.1</ele>
        <time>2026-05-17T11:36:09.000Z</time>
      </trkpt>
      <trkpt lat="43.65272" lon="3.36048">
        <ele>241.9</ele>
        <time>2026-05-17T11:36:10.000Z</time>
      </trkpt>
      <trkpt lat="43.65271" lon="3.36048">
        <ele>241.8</ele>
        <time>2026-05-17T11:36:11.000Z</time>
      </trkpt>
      <trkpt lat="43.6527" lon="3.36047">
        <ele>241.4</ele>
        <time>2026-05-17T11:36:12.000Z</time>
      </trkpt>
      <trkpt lat="43.65269" lon="3.36047">
        <ele>241.3</ele>
        <time>2026-05-17T11:36:13.000Z</time>
      </trkpt>
      <trkpt lat="43.65268" lon="3.36046">
        <ele>241.2</ele>
        <time>2026-05-17T11:36:14.000Z</time>
      </trkpt>
      <trkpt lat="43.65267" lon="3.36046">
        <ele>241.3</ele>
        <time>2026-05-17T11:36:15.000Z</time>
      </trkpt>
      <trkpt lat="43.65267" lon="3.36046">
        <ele>241.3</ele>
        <time>2026-05-17T11:36:16.000Z</time>
      </trkpt>
      <trkpt lat="43.65266" lon="3.36045">
        <ele>240.7</ele>
        <time>2026-05-17T11:36:17.000Z</time>
      </trkpt>
      <trkpt lat="43.65265" lon="3.36044">
        <ele>240.2</ele>
        <time>2026-05-17T11:36:18.000Z</time>
      </trkpt>
      <trkpt lat="43.65264" lon="3.36043">
        <ele>240</ele>
        <time>2026-05-17T11:36:19.000Z</time>
      </trkpt>
      <trkpt lat="43.65264" lon="3.36042">
        <ele>239.7</ele>
        <time>2026-05-17T11:36:20.000Z</time>
      </trkpt>
      <trkpt lat="43.65263" lon="3.36042">
        <ele>239.4</ele>
        <time>2026-05-17T11:36:21.000Z</time>
      </trkpt>
      <trkpt lat="43.65263" lon="3.36042">
        <ele>238.8</ele>
        <time>2026-05-17T11:36:22.000Z</time>
      </trkpt>
      <trkpt lat="43.65262" lon="3.36041">
        <ele>238.5</ele>
        <time>2026-05-17T11:36:23.000Z</time>
      </trkpt>
      <trkpt lat="43.65261" lon="3.36041">
        <ele>238.1</ele>
        <time>2026-05-17T11:36:24.000Z</time>
      </trkpt>
      <trkpt lat="43.6526" lon="3.36041">
        <ele>237.9</ele>
        <time>2026-05-17T11:36:25.000Z</time>
      </trkpt>
      <trkpt lat="43.6526" lon="3.3604">
        <ele>238.3</ele>
        <time>2026-05-17T11:36:26.000Z</time>
      </trkpt>
      <trkpt lat="43.65259" lon="3.3604">
        <ele>238</ele>
        <time>2026-05-17T11:36:27.000Z</time>
      </trkpt>
      <trkpt lat="43.65259" lon="3.3604">
        <ele>237.7</ele>
        <time>2026-05-17T11:36:28.000Z</time>
      </trkpt>
      <trkpt lat="43.65258" lon="3.3604">
        <ele>237.6</ele>
        <time>2026-05-17T11:36:29.000Z</time>
      </trkpt>
      <trkpt lat="43.65257" lon="3.3604">
        <ele>237.4</ele>
        <time>2026-05-17T11:36:30.000Z</time>
      </trkpt>
      <trkpt lat="43.65257" lon="3.36039">
        <ele>236.9</ele>
        <time>2026-05-17T11:36:31.000Z</time>
      </trkpt>
      <trkpt lat="43.65255" lon="3.36039">
        <ele>236.7</ele>
        <time>2026-05-17T11:36:32.000Z</time>
      </trkpt>
      <trkpt lat="43.65255" lon="3.36039">
        <ele>236.7</ele>
        <time>2026-05-17T11:36:33.000Z</time>
      </trkpt>
      <trkpt lat="43.65255" lon="3.36039">
        <ele>236.6</ele>
        <time>2026-05-17T11:36:34.000Z</time>
      </trkpt>
      <trkpt lat="43.65254" lon="3.36039">
        <ele>236</ele>
        <time>2026-05-17T11:36:35.000Z</time>
      </trkpt>
      <trkpt lat="43.65254" lon="3.36038">
        <ele>235.8</ele>
        <time>2026-05-17T11:36:36.000Z</time>
      </trkpt>
      <trkpt lat="43.65253" lon="3.36038">
        <ele>235.3</ele>
        <time>2026-05-17T11:36:37.000Z</time>
      </trkpt>
      <trkpt lat="43.65252" lon="3.36037">
        <ele>235.3</ele>
        <time>2026-05-17T11:36:38.000Z</time>
      </trkpt>
      <trkpt lat="43.65251" lon="3.36037">
        <ele>235.1</ele>
        <time>2026-05-17T11:36:39.000Z</time>
      </trkpt>
      <trkpt lat="43.65251" lon="3.36036">
        <ele>235</ele>
        <time>2026-05-17T11:36:40.000Z</time>
      </trkpt>
      <trkpt lat="43.65251" lon="3.36035">
        <ele>235</ele>
        <time>2026-05-17T11:36:41.000Z</time>
      </trkpt>
      <trkpt lat="43.6525" lon="3.36035">
        <ele>234.8</ele>
        <time>2026-05-17T11:36:42.000Z</time>
      </trkpt>
      <trkpt lat="43.65249" lon="3.36035">
        <ele>234.7</ele>
        <time>2026-05-17T11:36:43.000Z</time>
      </trkpt>
      <trkpt lat="43.65249" lon="3.36034">
        <ele>234.6</ele>
        <time>2026-05-17T11:36:44.000Z</time>
      </trkpt>
      <trkpt lat="43.65248" lon="3.36034">
        <ele>234.3</ele>
        <time>2026-05-17T11:36:45.000Z</time>
      </trkpt>
      <trkpt lat="43.65248" lon="3.36034">
        <ele>233.8</ele>
        <time>2026-05-17T11:36:46.000Z</time>
      </trkpt>
      <trkpt lat="43.65248" lon="3.36032">
        <ele>233.2</ele>
        <time>2026-05-17T11:36:47.000Z</time>
      </trkpt>
      <trkpt lat="43.65248" lon="3.36032">
        <ele>232.9</ele>
        <time>2026-05-17T11:36:48.000Z</time>
      </trkpt>
      <trkpt lat="43.65247" lon="3.36032">
        <ele>233</ele>
        <time>2026-05-17T11:36:49.000Z</time>
      </trkpt>
      <trkpt lat="43.65247" lon="3.36031">
        <ele>232.9</ele>
        <time>2026-05-17T11:36:50.000Z</time>
      </trkpt>
      <trkpt lat="43.65247" lon="3.36031">
        <ele>232.6</ele>
        <time>2026-05-17T11:36:51.000Z</time>
      </trkpt>
      <trkpt lat="43.65247" lon="3.36031">
        <ele>232.3</ele>
        <time>2026-05-17T11:36:52.000Z</time>
      </trkpt>
      <trkpt lat="43.65247" lon="3.36031">
        <ele>232</ele>
        <time>2026-05-17T11:36:53.000Z</time>
      </trkpt>
      <trkpt lat="43.65246" lon="3.3603">
        <ele>231.8</ele>
        <time>2026-05-17T11:36:54.000Z</time>
      </trkpt>
      <trkpt lat="43.65245" lon="3.36029">
        <ele>231.9</ele>
        <time>2026-05-17T11:36:55.000Z</time>
      </trkpt>
      <trkpt lat="43.65244" lon="3.36029">
        <ele>231.6</ele>
        <time>2026-05-17T11:36:56.000Z</time>
      </trkpt>
      <trkpt lat="43.65243" lon="3.36028">
        <ele>231.4</ele>
        <time>2026-05-17T11:36:57.000Z</time>
      </trkpt>
      <trkpt lat="43.65243" lon="3.36027">
        <ele>231.3</ele>
        <time>2026-05-17T11:36:58.000Z</time>
      </trkpt>
      <trkpt lat="43.65242" lon="3.36025">
        <ele>230.9</ele>
        <time>2026-05-17T11:36:59.000Z</time>
      </trkpt>
      <trkpt lat="43.65241" lon="3.36024">
        <ele>230.5</ele>
        <time>2026-05-17T11:37:00.000Z</time>
      </trkpt>
      <trkpt lat="43.6524" lon="3.36024">
        <ele>230.4</ele>
        <time>2026-05-17T11:37:01.000Z</time>
      </trkpt>
      <trkpt lat="43.65239" lon="3.36023">
        <ele>230.3</ele>
        <time>2026-05-17T11:37:02.000Z</time>
      </trkpt>
      <trkpt lat="43.65239" lon="3.36023">
        <ele>230</ele>
        <time>2026-05-17T11:37:03.000Z</time>
      </trkpt>
      <trkpt lat="43.65239" lon="3.36022">
        <ele>229.7</ele>
        <time>2026-05-17T11:37:04.000Z</time>
      </trkpt>
      <trkpt lat="43.65239" lon="3.36022">
        <ele>229.3</ele>
        <time>2026-05-17T11:37:05.000Z</time>
      </trkpt>
      <trkpt lat="43.65238" lon="3.36021">
        <ele>228.8</ele>
        <time>2026-05-17T11:37:06.000Z</time>
      </trkpt>
      <trkpt lat="43.65238" lon="3.36021">
        <ele>228.1</ele>
        <time>2026-05-17T11:37:07.000Z</time>
      </trkpt>
      <trkpt lat="43.65237" lon="3.3602">
        <ele>227.6</ele>
        <time>2026-05-17T11:37:08.000Z</time>
      </trkpt>
      <trkpt lat="43.65237" lon="3.36019">
        <ele>227.3</ele>
        <time>2026-05-17T11:37:09.000Z</time>
      </trkpt>
      <trkpt lat="43.65237" lon="3.36018">
        <ele>226.8</ele>
        <time>2026-05-17T11:37:10.000Z</time>
      </trkpt>
      <trkpt lat="43.65237" lon="3.36016">
        <ele>226.9</ele>
        <time>2026-05-17T11:37:11.000Z</time>
      </trkpt>
      <trkpt lat="43.65236" lon="3.36014">
        <ele>226.7</ele>
        <time>2026-05-17T11:37:12.000Z</time>
      </trkpt>
      <trkpt lat="43.65236" lon="3.36013">
        <ele>226.5</ele>
        <time>2026-05-17T11:37:13.000Z</time>
      </trkpt>
      <trkpt lat="43.65236" lon="3.36012">
        <ele>226.5</ele>
        <time>2026-05-17T11:37:14.000Z</time>
      </trkpt>
      <trkpt lat="43.65236" lon="3.36011">
        <ele>226.5</ele>
        <time>2026-05-17T11:37:15.000Z</time>
      </trkpt>
      <trkpt lat="43.65235" lon="3.3601">
        <ele>226.5</ele>
        <time>2026-05-17T11:37:16.000Z</time>
      </trkpt>
      <trkpt lat="43.65235" lon="3.36009">
        <ele>226.4</ele>
        <time>2026-05-17T11:37:17.000Z</time>
      </trkpt>
      <trkpt lat="43.65235" lon="3.36008">
        <ele>226.3</ele>
        <time>2026-05-17T11:37:18.000Z</time>
      </trkpt>
      <trkpt lat="43.65235" lon="3.36007">
        <ele>226.4</ele>
        <time>2026-05-17T11:37:19.000Z</time>
      </trkpt>
      <trkpt lat="43.65235" lon="3.36006">
        <ele>226.5</ele>
        <time>2026-05-17T11:37:20.000Z</time>
      </trkpt>
      <trkpt lat="43.65234" lon="3.36005">
        <ele>226.8</ele>
        <time>2026-05-17T11:37:21.000Z</time>
      </trkpt>
      <trkpt lat="43.65234" lon="3.36005">
        <ele>226.8</ele>
        <time>2026-05-17T11:37:22.000Z</time>
      </trkpt>
      <trkpt lat="43.65233" lon="3.36004">
        <ele>226.6</ele>
        <time>2026-05-17T11:37:23.000Z</time>
      </trkpt>
      <trkpt lat="43.65233" lon="3.36004">
        <ele>226.8</ele>
        <time>2026-05-17T11:37:24.000Z</time>
      </trkpt>
      <trkpt lat="43.65232" lon="3.36004">
        <ele>226.5</ele>
        <time>2026-05-17T11:37:25.000Z</time>
      </trkpt>
      <trkpt lat="43.65232" lon="3.36004">
        <ele>227.2</ele>
        <time>2026-05-17T11:37:26.000Z</time>
      </trkpt>
      <trkpt lat="43.65232" lon="3.36004">
        <ele>227.4</ele>
        <time>2026-05-17T11:37:27.000Z</time>
      </trkpt>
      <trkpt lat="43.65232" lon="3.36004">
        <ele>227.5</ele>
        <time>2026-05-17T11:37:28.000Z</time>
      </trkpt>
      <trkpt lat="43.65232" lon="3.36004">
        <ele>227.5</ele>
        <time>2026-05-17T11:37:29.000Z</time>
      </trkpt>
      <trkpt lat="43.65232" lon="3.36004">
        <ele>227.3</ele>
        <time>2026-05-17T11:37:30.000Z</time>
      </trkpt>
      <trkpt lat="43.65231" lon="3.36005">
        <ele>227</ele>
        <time>2026-05-17T11:37:31.000Z</time>
      </trkpt>
      <trkpt lat="43.65231" lon="3.36006">
        <ele>227.1</ele>
        <time>2026-05-17T11:37:32.000Z</time>
      </trkpt>
      <trkpt lat="43.65231" lon="3.36007">
        <ele>227.1</ele>
        <time>2026-05-17T11:37:33.000Z</time>
      </trkpt>
      <trkpt lat="43.65232" lon="3.36009">
        <ele>226.9</ele>
        <time>2026-05-17T11:37:34.000Z</time>
      </trkpt>
      <trkpt lat="43.65232" lon="3.3601">
        <ele>226.7</ele>
        <time>2026-05-17T11:37:35.000Z</time>
      </trkpt>
      <trkpt lat="43.65232" lon="3.36011">
        <ele>226.6</ele>
        <time>2026-05-17T11:37:36.000Z</time>
      </trkpt>
      <trkpt lat="43.65232" lon="3.36012">
        <ele>226.6</ele>
        <time>2026-05-17T11:37:37.000Z</time>
      </trkpt>
      <trkpt lat="43.65232" lon="3.36013">
        <ele>226.4</ele>
        <time>2026-05-17T11:37:38.000Z</time>
      </trkpt>
      <trkpt lat="43.65232" lon="3.36013">
        <ele>226.1</ele>
        <time>2026-05-17T11:37:39.000Z</time>
      </trkpt>
      <trkpt lat="43.65232" lon="3.36013">
        <ele>225.5</ele>
        <time>2026-05-17T11:37:40.000Z</time>
      </trkpt>
      <trkpt lat="43.65231" lon="3.36014">
        <ele>225.7</ele>
        <time>2026-05-17T11:37:41.000Z</time>
      </trkpt>
      <trkpt lat="43.65231" lon="3.36014">
        <ele>225.6</ele>
        <time>2026-05-17T11:37:42.000Z</time>
      </trkpt>
      <trkpt lat="43.65231" lon="3.36014">
        <ele>225.4</ele>
        <time>2026-05-17T11:37:43.000Z</time>
      </trkpt>
      <trkpt lat="43.65231" lon="3.36014">
        <ele>225</ele>
        <time>2026-05-17T11:37:44.000Z</time>
      </trkpt>
      <trkpt lat="43.65231" lon="3.36014">
        <ele>224.8</ele>
        <time>2026-05-17T11:37:45.000Z</time>
      </trkpt>
      <trkpt lat="43.65231" lon="3.36014">
        <ele>224.6</ele>
        <time>2026-05-17T11:37:46.000Z</time>
      </trkpt>
      <trkpt lat="43.6523" lon="3.36014">
        <ele>224.2</ele>
        <time>2026-05-17T11:37:47.000Z</time>
      </trkpt>
      <trkpt lat="43.65229" lon="3.36014">
        <ele>223.7</ele>
        <time>2026-05-17T11:37:48.000Z</time>
      </trkpt>
      <trkpt lat="43.65228" lon="3.36014">
        <ele>223.4</ele>
        <time>2026-05-17T11:37:49.000Z</time>
      </trkpt>
      <trkpt lat="43.65227" lon="3.36014">
        <ele>223.3</ele>
        <time>2026-05-17T11:37:50.000Z</time>
      </trkpt>
      <trkpt lat="43.65227" lon="3.36014">
        <ele>223.2</ele>
        <time>2026-05-17T11:37:51.000Z</time>
      </trkpt>
      <trkpt lat="43.65226" lon="3.36013">
        <ele>223.2</ele>
        <time>2026-05-17T11:37:52.000Z</time>
      </trkpt>
      <trkpt lat="43.65226" lon="3.36013">
        <ele>223.1</ele>
        <time>2026-05-17T11:37:53.000Z</time>
      </trkpt>
      <trkpt lat="43.65225" lon="3.36012">
        <ele>223.2</ele>
        <time>2026-05-17T11:37:54.000Z</time>
      </trkpt>
      <trkpt lat="43.65224" lon="3.36011">
        <ele>223</ele>
        <time>2026-05-17T11:37:55.000Z</time>
      </trkpt>
      <trkpt lat="43.65223" lon="3.36011">
        <ele>222.8</ele>
        <time>2026-05-17T11:37:56.000Z</time>
      </trkpt>
      <trkpt lat="43.65222" lon="3.3601">
        <ele>222.9</ele>
        <time>2026-05-17T11:37:57.000Z</time>
      </trkpt>
      <trkpt lat="43.65221" lon="3.36009">
        <ele>222.7</ele>
        <time>2026-05-17T11:37:58.000Z</time>
      </trkpt>
      <trkpt lat="43.6522" lon="3.36008">
        <ele>222.6</ele>
        <time>2026-05-17T11:37:59.000Z</time>
      </trkpt>
      <trkpt lat="43.65219" lon="3.36008">
        <ele>222.4</ele>
        <time>2026-05-17T11:38:00.000Z</time>
      </trkpt>
      <trkpt lat="43.65219" lon="3.36008">
        <ele>222</ele>
        <time>2026-05-17T11:38:01.000Z</time>
      </trkpt>
      <trkpt lat="43.65219" lon="3.36008">
        <ele>222.3</ele>
        <time>2026-05-17T11:38:02.000Z</time>
      </trkpt>
      <trkpt lat="43.65219" lon="3.36008">
        <ele>221.9</ele>
        <time>2026-05-17T11:38:03.000Z</time>
      </trkpt>
      <trkpt lat="43.65219" lon="3.36008">
        <ele>221.6</ele>
        <time>2026-05-17T11:38:04.000Z</time>
      </trkpt>
      <trkpt lat="43.65219" lon="3.36008">
        <ele>221</ele>
        <time>2026-05-17T11:38:05.000Z</time>
      </trkpt>
      <trkpt lat="43.65219" lon="3.36008">
        <ele>220.4</ele>
        <time>2026-05-17T11:38:06.000Z</time>
      </trkpt>
      <trkpt lat="43.65219" lon="3.36007">
        <ele>220</ele>
        <time>2026-05-17T11:38:07.000Z</time>
      </trkpt>
      <trkpt lat="43.65219" lon="3.36007">
        <ele>219.5</ele>
        <time>2026-05-17T11:38:08.000Z</time>
      </trkpt>
      <trkpt lat="43.65218" lon="3.36006">
        <ele>219</ele>
        <time>2026-05-17T11:38:09.000Z</time>
      </trkpt>
      <trkpt lat="43.65217" lon="3.36004">
        <ele>219.1</ele>
        <time>2026-05-17T11:38:10.000Z</time>
      </trkpt>
      <trkpt lat="43.65217" lon="3.36004">
        <ele>219.1</ele>
        <time>2026-05-17T11:38:11.000Z</time>
      </trkpt>
      <trkpt lat="43.65216" lon="3.36004">
        <ele>219</ele>
        <time>2026-05-17T11:38:12.000Z</time>
      </trkpt>
      <trkpt lat="43.65216" lon="3.36004">
        <ele>218.6</ele>
        <time>2026-05-17T11:38:13.000Z</time>
      </trkpt>
      <trkpt lat="43.65215" lon="3.36004">
        <ele>218.4</ele>
        <time>2026-05-17T11:38:14.000Z</time>
      </trkpt>
      <trkpt lat="43.65215" lon="3.36006">
        <ele>217.8</ele>
        <time>2026-05-17T11:38:15.000Z</time>
      </trkpt>
      <trkpt lat="43.65216" lon="3.36006">
        <ele>217.8</ele>
        <time>2026-05-17T11:38:16.000Z</time>
      </trkpt>
      <trkpt lat="43.65216" lon="3.36006">
        <ele>217.6</ele>
        <time>2026-05-17T11:38:17.000Z</time>
      </trkpt>
      <trkpt lat="43.65215" lon="3.36006">
        <ele>217.4</ele>
        <time>2026-05-17T11:38:18.000Z</time>
      </trkpt>
      <trkpt lat="43.65215" lon="3.36006">
        <ele>217.1</ele>
        <time>2026-05-17T11:38:19.000Z</time>
      </trkpt>
      <trkpt lat="43.65214" lon="3.36006">
        <ele>216.8</ele>
        <time>2026-05-17T11:38:20.000Z</time>
      </trkpt>
      <trkpt lat="43.65214" lon="3.36005">
        <ele>216.2</ele>
        <time>2026-05-17T11:38:21.000Z</time>
      </trkpt>
      <trkpt lat="43.65213" lon="3.36005">
        <ele>216</ele>
        <time>2026-05-17T11:38:22.000Z</time>
      </trkpt>
      <trkpt lat="43.65214" lon="3.36004">
        <ele>215.8</ele>
        <time>2026-05-17T11:38:23.000Z</time>
      </trkpt>
      <trkpt lat="43.65214" lon="3.36004">
        <ele>214.5</ele>
        <time>2026-05-17T11:38:24.000Z</time>
      </trkpt>
      <trkpt lat="43.65215" lon="3.36003">
        <ele>214.5</ele>
        <time>2026-05-17T11:38:25.000Z</time>
      </trkpt>
      <trkpt lat="43.65214" lon="3.36003">
        <ele>214.7</ele>
        <time>2026-05-17T11:38:26.000Z</time>
      </trkpt>
      <trkpt lat="43.65214" lon="3.36003">
        <ele>215.1</ele>
        <time>2026-05-17T11:38:27.000Z</time>
      </trkpt>
      <trkpt lat="43.65214" lon="3.36003">
        <ele>215.2</ele>
        <time>2026-05-17T11:38:28.000Z</time>
      </trkpt>
      <trkpt lat="43.65213" lon="3.36003">
        <ele>215.8</ele>
        <time>2026-05-17T11:38:29.000Z</time>
      </trkpt>
      <trkpt lat="43.65213" lon="3.36003">
        <ele>214.8</ele>
        <time>2026-05-17T11:38:30.000Z</time>
      </trkpt>
      <trkpt lat="43.65213" lon="3.36002">
        <ele>215.2</ele>
        <time>2026-05-17T11:38:31.000Z</time>
      </trkpt>
      <trkpt lat="43.65213" lon="3.36001">
        <ele>215</ele>
        <time>2026-05-17T11:38:32.000Z</time>
      </trkpt>
      <trkpt lat="43.65213" lon="3.36001">
        <ele>214.7</ele>
        <time>2026-05-17T11:38:33.000Z</time>
      </trkpt>
      <trkpt lat="43.65213" lon="3.36001">
        <ele>215.2</ele>
        <time>2026-05-17T11:38:34.000Z</time>
      </trkpt>
      <trkpt lat="43.65213" lon="3.36002">
        <ele>215.2</ele>
        <time>2026-05-17T11:38:35.000Z</time>
      </trkpt>
      <trkpt lat="43.65213" lon="3.36001">
        <ele>215.7</ele>
        <time>2026-05-17T11:38:36.000Z</time>
      </trkpt>
      <trkpt lat="43.65213" lon="3.36001">
        <ele>214.8</ele>
        <time>2026-05-17T11:38:37.000Z</time>
      </trkpt>
      <trkpt lat="43.65213" lon="3.36002">
        <ele>215</ele>
        <time>2026-05-17T11:38:38.000Z</time>
      </trkpt>
      <trkpt lat="43.65213" lon="3.36002">
        <ele>215.3</ele>
        <time>2026-05-17T11:38:39.000Z</time>
      </trkpt>
      <trkpt lat="43.65213" lon="3.36002">
        <ele>215.5</ele>
        <time>2026-05-17T11:38:40.000Z</time>
      </trkpt>
      <trkpt lat="43.65213" lon="3.36002">
        <ele>215.6</ele>
        <time>2026-05-17T11:38:41.000Z</time>
      </trkpt>
      <trkpt lat="43.65213" lon="3.36002">
        <ele>215.6</ele>
        <time>2026-05-17T11:38:42.000Z</time>
      </trkpt>
      <trkpt lat="43.65213" lon="3.36002">
        <ele>215.7</ele>
        <time>2026-05-17T11:38:43.000Z</time>
      </trkpt>
      <trkpt lat="43.65213" lon="3.36002">
        <ele>215.7</ele>
        <time>2026-05-17T11:38:44.000Z</time>
      </trkpt>
      <trkpt lat="43.65213" lon="3.36002">
        <ele>215.7</ele>
        <time>2026-05-17T11:38:45.000Z</time>
      </trkpt>
      <trkpt lat="43.65213" lon="3.36002">
        <ele>215.7</ele>
        <time>2026-05-17T11:38:46.000Z</time>
      </trkpt>
      <trkpt lat="43.65213" lon="3.36002">
        <ele>215.4</ele>
        <time>2026-05-17T11:38:47.000Z</time>
      </trkpt>
      <trkpt lat="43.65213" lon="3.36002">
        <ele>215.6</ele>
        <time>2026-05-17T11:38:48.000Z</time>
      </trkpt>
      <trkpt lat="43.65213" lon="3.36002">
        <ele>215.7</ele>
        <time>2026-05-17T11:38:49.000Z</time>
      </trkpt>
      <trkpt lat="43.65213" lon="3.36002">
        <ele>215.8</ele>
        <time>2026-05-17T11:38:50.000Z</time>
      </trkpt>
      <trkpt lat="43.65213" lon="3.36002">
        <ele>216</ele>
        <time>2026-05-17T11:38:51.000Z</time>
      </trkpt>
      <trkpt lat="43.65213" lon="3.36002">
        <ele>216.2</ele>
        <time>2026-05-17T11:38:52.000Z</time>
      </trkpt>
      <trkpt lat="43.65213" lon="3.36001">
        <ele>216.4</ele>
        <time>2026-05-17T11:38:53.000Z</time>
      </trkpt>
      <trkpt lat="43.65213" lon="3.36001">
        <ele>216.4</ele>
        <time>2026-05-17T11:38:54.000Z</time>
      </trkpt>
      <trkpt lat="43.65213" lon="3.36001">
        <ele>216.2</ele>
        <time>2026-05-17T11:38:55.000Z</time>
      </trkpt>
      <trkpt lat="43.65213" lon="3.36001">
        <ele>216.2</ele>
        <time>2026-05-17T11:38:56.000Z</time>
      </trkpt>
      <trkpt lat="43.65213" lon="3.36001">
        <ele>216.2</ele>
        <time>2026-05-17T11:38:57.000Z</time>
      </trkpt>
      <trkpt lat="43.65213" lon="3.36001">
        <ele>216.2</ele>
        <time>2026-05-17T11:38:58.000Z</time>
      </trkpt>
      <trkpt lat="43.65213" lon="3.36001">
        <ele>216.4</ele>
        <time>2026-05-17T11:38:59.000Z</time>
      </trkpt>
      <trkpt lat="43.65213" lon="3.36001">
        <ele>216.4</ele>
        <time>2026-05-17T11:39:00.000Z</time>
      </trkpt>
      <trkpt lat="43.65213" lon="3.36001">
        <ele>216.4</ele>
        <time>2026-05-17T11:39:01.000Z</time>
      </trkpt>
      <trkpt lat="43.65213" lon="3.36001">
        <ele>216.4</ele>
        <time>2026-05-17T11:39:02.000Z</time>
      </trkpt>
      <trkpt lat="43.65213" lon="3.36001">
        <ele>216.6</ele>
        <time>2026-05-17T11:39:03.000Z</time>
      </trkpt>
      <trkpt lat="43.65213" lon="3.36001">
        <ele>216.3</ele>
        <time>2026-05-17T11:39:04.000Z</time>
      </trkpt>
      <trkpt lat="43.65213" lon="3.36002">
        <ele>216</ele>
        <time>2026-05-17T11:39:05.000Z</time>
      </trkpt>
      <trkpt lat="43.65213" lon="3.36003">
        <ele>215.9</ele>
        <time>2026-05-17T11:39:06.000Z</time>
      </trkpt>
      <trkpt lat="43.65212" lon="3.36003">
        <ele>215.8</ele>
        <time>2026-05-17T11:39:07.000Z</time>
      </trkpt>
      <trkpt lat="43.65212" lon="3.36005">
        <ele>215.9</ele>
        <time>2026-05-17T11:39:08.000Z</time>
      </trkpt>
      <trkpt lat="43.65211" lon="3.36006">
        <ele>215.9</ele>
        <time>2026-05-17T11:39:09.000Z</time>
      </trkpt>
      <trkpt lat="43.65211" lon="3.36006">
        <ele>216.8</ele>
        <time>2026-05-17T11:39:11.000Z</time>
      </trkpt>
      <trkpt lat="43.6521" lon="3.36007">
        <ele>216.8</ele>
        <time>2026-05-17T11:39:12.000Z</time>
      </trkpt>
      <trkpt lat="43.6521" lon="3.36005">
        <ele>216.8</ele>
        <time>2026-05-17T11:39:13.000Z</time>
      </trkpt>
      <trkpt lat="43.65209" lon="3.36004">
        <ele>216</ele>
        <time>2026-05-17T11:39:14.000Z</time>
      </trkpt>
      <trkpt lat="43.65208" lon="3.36004">
        <ele>215.4</ele>
        <time>2026-05-17T11:39:15.000Z</time>
      </trkpt>
      <trkpt lat="43.65208" lon="3.36003">
        <ele>215</ele>
        <time>2026-05-17T11:39:16.000Z</time>
      </trkpt>
      <trkpt lat="43.65208" lon="3.36001">
        <ele>214.6</ele>
        <time>2026-05-17T11:39:17.000Z</time>
      </trkpt>
      <trkpt lat="43.65207" lon="3.36001">
        <ele>214.3</ele>
        <time>2026-05-17T11:39:18.000Z</time>
      </trkpt>
      <trkpt lat="43.65207" lon="3.36">
        <ele>214.3</ele>
        <time>2026-05-17T11:39:19.000Z</time>
      </trkpt>
      <trkpt lat="43.65207" lon="3.35998">
        <ele>214.1</ele>
        <time>2026-05-17T11:39:20.000Z</time>
      </trkpt>
      <trkpt lat="43.65206" lon="3.35996">
        <ele>214.4</ele>
        <time>2026-05-17T11:39:21.000Z</time>
      </trkpt>
      <trkpt lat="43.65206" lon="3.35996">
        <ele>214.3</ele>
        <time>2026-05-17T11:39:22.000Z</time>
      </trkpt>
      <trkpt lat="43.65205" lon="3.35995">
        <ele>214.2</ele>
        <time>2026-05-17T11:39:23.000Z</time>
      </trkpt>
      <trkpt lat="43.65204" lon="3.35994">
        <ele>214</ele>
        <time>2026-05-17T11:39:24.000Z</time>
      </trkpt>
      <trkpt lat="43.65203" lon="3.35993">
        <ele>213.6</ele>
        <time>2026-05-17T11:39:25.000Z</time>
      </trkpt>
      <trkpt lat="43.65203" lon="3.35992">
        <ele>213.2</ele>
        <time>2026-05-17T11:39:26.000Z</time>
      </trkpt>
      <trkpt lat="43.65202" lon="3.35991">
        <ele>213.1</ele>
        <time>2026-05-17T11:39:27.000Z</time>
      </trkpt>
      <trkpt lat="43.65201" lon="3.35989">
        <ele>212.8</ele>
        <time>2026-05-17T11:39:28.000Z</time>
      </trkpt>
      <trkpt lat="43.65201" lon="3.35988">
        <ele>212.4</ele>
        <time>2026-05-17T11:39:29.000Z</time>
      </trkpt>
      <trkpt lat="43.65201" lon="3.35988">
        <ele>211.8</ele>
        <time>2026-05-17T11:39:30.000Z</time>
      </trkpt>
      <trkpt lat="43.652" lon="3.35987">
        <ele>211.7</ele>
        <time>2026-05-17T11:39:31.000Z</time>
      </trkpt>
      <trkpt lat="43.652" lon="3.35986">
        <ele>211.6</ele>
        <time>2026-05-17T11:39:32.000Z</time>
      </trkpt>
      <trkpt lat="43.65199" lon="3.35986">
        <ele>211.4</ele>
        <time>2026-05-17T11:39:33.000Z</time>
      </trkpt>
      <trkpt lat="43.65199" lon="3.35986">
        <ele>211.1</ele>
        <time>2026-05-17T11:39:34.000Z</time>
      </trkpt>
      <trkpt lat="43.65198" lon="3.35986">
        <ele>210.4</ele>
        <time>2026-05-17T11:39:35.000Z</time>
      </trkpt>
      <trkpt lat="43.65197" lon="3.35986">
        <ele>210.3</ele>
        <time>2026-05-17T11:39:36.000Z</time>
      </trkpt>
      <trkpt lat="43.65197" lon="3.35986">
        <ele>210.4</ele>
        <time>2026-05-17T11:39:37.000Z</time>
      </trkpt>
      <trkpt lat="43.65197" lon="3.35985">
        <ele>210.5</ele>
        <time>2026-05-17T11:39:38.000Z</time>
      </trkpt>
      <trkpt lat="43.65196" lon="3.35984">
        <ele>210</ele>
        <time>2026-05-17T11:39:39.000Z</time>
      </trkpt>
      <trkpt lat="43.65196" lon="3.35984">
        <ele>210.4</ele>
        <time>2026-05-17T11:39:40.000Z</time>
      </trkpt>
      <trkpt lat="43.65196" lon="3.35983">
        <ele>210</ele>
        <time>2026-05-17T11:39:41.000Z</time>
      </trkpt>
      <trkpt lat="43.65195" lon="3.35982">
        <ele>210.4</ele>
        <time>2026-05-17T11:39:42.000Z</time>
      </trkpt>
      <trkpt lat="43.65195" lon="3.35981">
        <ele>212.6</ele>
        <time>2026-05-17T11:39:43.000Z</time>
      </trkpt>
      <trkpt lat="43.65195" lon="3.35981">
        <ele>212.6</ele>
        <time>2026-05-17T11:39:44.000Z</time>
      </trkpt>
      <trkpt lat="43.65195" lon="3.35981">
        <ele>212.6</ele>
        <time>2026-05-17T11:39:45.000Z</time>
      </trkpt>
      <trkpt lat="43.65195" lon="3.35981">
        <ele>212.6</ele>
        <time>2026-05-17T11:39:46.000Z</time>
      </trkpt>
      <trkpt lat="43.65194" lon="3.35981">
        <ele>212.4</ele>
        <time>2026-05-17T11:39:47.000Z</time>
      </trkpt>
      <trkpt lat="43.65193" lon="3.3598">
        <ele>211.8</ele>
        <time>2026-05-17T11:39:48.000Z</time>
      </trkpt>
      <trkpt lat="43.65192" lon="3.35978">
        <ele>211.3</ele>
        <time>2026-05-17T11:39:49.000Z</time>
      </trkpt>
      <trkpt lat="43.65191" lon="3.35976">
        <ele>210.8</ele>
        <time>2026-05-17T11:39:50.000Z</time>
      </trkpt>
      <trkpt lat="43.6519" lon="3.35974">
        <ele>210.3</ele>
        <time>2026-05-17T11:39:51.000Z</time>
      </trkpt>
      <trkpt lat="43.65188" lon="3.35972">
        <ele>210.2</ele>
        <time>2026-05-17T11:39:52.000Z</time>
      </trkpt>
      <trkpt lat="43.65187" lon="3.35971">
        <ele>210.6</ele>
        <time>2026-05-17T11:39:53.000Z</time>
      </trkpt>
      <trkpt lat="43.65186" lon="3.3597">
        <ele>210.9</ele>
        <time>2026-05-17T11:39:54.000Z</time>
      </trkpt>
      <trkpt lat="43.65186" lon="3.35968">
        <ele>211.1</ele>
        <time>2026-05-17T11:39:55.000Z</time>
      </trkpt>
      <trkpt lat="43.65185" lon="3.35967">
        <ele>210.6</ele>
        <time>2026-05-17T11:39:56.000Z</time>
      </trkpt>
      <trkpt lat="43.65184" lon="3.35966">
        <ele>210</ele>
        <time>2026-05-17T11:39:57.000Z</time>
      </trkpt>
      <trkpt lat="43.65184" lon="3.35966">
        <ele>209.6</ele>
        <time>2026-05-17T11:39:58.000Z</time>
      </trkpt>
      <trkpt lat="43.65183" lon="3.35964">
        <ele>209.6</ele>
        <time>2026-05-17T11:39:59.000Z</time>
      </trkpt>
      <trkpt lat="43.65182" lon="3.35963">
        <ele>209.7</ele>
        <time>2026-05-17T11:40:00.000Z</time>
      </trkpt>
      <trkpt lat="43.65182" lon="3.35961">
        <ele>209.9</ele>
        <time>2026-05-17T11:40:01.000Z</time>
      </trkpt>
      <trkpt lat="43.65182" lon="3.3596">
        <ele>209.9</ele>
        <time>2026-05-17T11:40:02.000Z</time>
      </trkpt>
      <trkpt lat="43.65181" lon="3.35958">
        <ele>209.6</ele>
        <time>2026-05-17T11:40:03.000Z</time>
      </trkpt>
      <trkpt lat="43.6518" lon="3.35957">
        <ele>209.2</ele>
        <time>2026-05-17T11:40:04.000Z</time>
      </trkpt>
      <trkpt lat="43.65179" lon="3.35956">
        <ele>209</ele>
        <time>2026-05-17T11:40:05.000Z</time>
      </trkpt>
      <trkpt lat="43.65179" lon="3.35954">
        <ele>208.8</ele>
        <time>2026-05-17T11:40:06.000Z</time>
      </trkpt>
      <trkpt lat="43.65178" lon="3.35953">
        <ele>208.6</ele>
        <time>2026-05-17T11:40:07.000Z</time>
      </trkpt>
      <trkpt lat="43.65178" lon="3.35952">
        <ele>208.2</ele>
        <time>2026-05-17T11:40:08.000Z</time>
      </trkpt>
      <trkpt lat="43.65178" lon="3.35951">
        <ele>207.9</ele>
        <time>2026-05-17T11:40:09.000Z</time>
      </trkpt>
      <trkpt lat="43.65177" lon="3.3595">
        <ele>207.5</ele>
        <time>2026-05-17T11:40:10.000Z</time>
      </trkpt>
      <trkpt lat="43.65177" lon="3.35948">
        <ele>207.1</ele>
        <time>2026-05-17T11:40:11.000Z</time>
      </trkpt>
      <trkpt lat="43.65176" lon="3.35946">
        <ele>207.2</ele>
        <time>2026-05-17T11:40:12.000Z</time>
      </trkpt>
      <trkpt lat="43.65175" lon="3.35945">
        <ele>207.4</ele>
        <time>2026-05-17T11:40:13.000Z</time>
      </trkpt>
      <trkpt lat="43.65175" lon="3.35944">
        <ele>206.9</ele>
        <time>2026-05-17T11:40:14.000Z</time>
      </trkpt>
      <trkpt lat="43.65174" lon="3.35943">
        <ele>207</ele>
        <time>2026-05-17T11:40:15.000Z</time>
      </trkpt>
      <trkpt lat="43.65173" lon="3.35941">
        <ele>206.9</ele>
        <time>2026-05-17T11:40:16.000Z</time>
      </trkpt>
      <trkpt lat="43.65173" lon="3.3594">
        <ele>206.9</ele>
        <time>2026-05-17T11:40:17.000Z</time>
      </trkpt>
      <trkpt lat="43.65173" lon="3.3594">
        <ele>206.1</ele>
        <time>2026-05-17T11:40:18.000Z</time>
      </trkpt>
      <trkpt lat="43.65172" lon="3.35939">
        <ele>206</ele>
        <time>2026-05-17T11:40:19.000Z</time>
      </trkpt>
      <trkpt lat="43.65172" lon="3.35938">
        <ele>206.1</ele>
        <time>2026-05-17T11:40:20.000Z</time>
      </trkpt>
      <trkpt lat="43.65172" lon="3.35938">
        <ele>206.5</ele>
        <time>2026-05-17T11:40:21.000Z</time>
      </trkpt>
      <trkpt lat="43.65171" lon="3.35938">
        <ele>206.6</ele>
        <time>2026-05-17T11:40:22.000Z</time>
      </trkpt>
      <trkpt lat="43.6517" lon="3.35937">
        <ele>206.3</ele>
        <time>2026-05-17T11:40:23.000Z</time>
      </trkpt>
      <trkpt lat="43.6517" lon="3.35936">
        <ele>206.5</ele>
        <time>2026-05-17T11:40:24.000Z</time>
      </trkpt>
      <trkpt lat="43.65169" lon="3.35935">
        <ele>206.3</ele>
        <time>2026-05-17T11:40:25.000Z</time>
      </trkpt>
      <trkpt lat="43.65169" lon="3.35935">
        <ele>205.8</ele>
        <time>2026-05-17T11:40:26.000Z</time>
      </trkpt>
      <trkpt lat="43.65168" lon="3.35935">
        <ele>205.3</ele>
        <time>2026-05-17T11:40:27.000Z</time>
      </trkpt>
      <trkpt lat="43.65168" lon="3.35935">
        <ele>204.7</ele>
        <time>2026-05-17T11:40:28.000Z</time>
      </trkpt>
      <trkpt lat="43.65168" lon="3.35936">
        <ele>204.5</ele>
        <time>2026-05-17T11:40:29.000Z</time>
      </trkpt>
      <trkpt lat="43.65168" lon="3.35936">
        <ele>205.5</ele>
        <time>2026-05-17T11:40:30.000Z</time>
      </trkpt>
      <trkpt lat="43.65167" lon="3.35936">
        <ele>205.7</ele>
        <time>2026-05-17T11:40:31.000Z</time>
      </trkpt>
      <trkpt lat="43.65166" lon="3.35936">
        <ele>205.7</ele>
        <time>2026-05-17T11:40:32.000Z</time>
      </trkpt>
      <trkpt lat="43.65165" lon="3.35936">
        <ele>205.5</ele>
        <time>2026-05-17T11:40:33.000Z</time>
      </trkpt>
      <trkpt lat="43.65165" lon="3.35935">
        <ele>205.5</ele>
        <time>2026-05-17T11:40:34.000Z</time>
      </trkpt>
      <trkpt lat="43.65164" lon="3.35934">
        <ele>205.3</ele>
        <time>2026-05-17T11:40:35.000Z</time>
      </trkpt>
      <trkpt lat="43.65163" lon="3.35934">
        <ele>205</ele>
        <time>2026-05-17T11:40:36.000Z</time>
      </trkpt>
      <trkpt lat="43.65161" lon="3.35933">
        <ele>204.7</ele>
        <time>2026-05-17T11:40:37.000Z</time>
      </trkpt>
      <trkpt lat="43.65161" lon="3.35932">
        <ele>204.5</ele>
        <time>2026-05-17T11:40:38.000Z</time>
      </trkpt>
      <trkpt lat="43.6516" lon="3.35932">
        <ele>204.2</ele>
        <time>2026-05-17T11:40:39.000Z</time>
      </trkpt>
      <trkpt lat="43.65158" lon="3.35931">
        <ele>204.1</ele>
        <time>2026-05-17T11:40:40.000Z</time>
      </trkpt>
      <trkpt lat="43.65157" lon="3.35931">
        <ele>203.8</ele>
        <time>2026-05-17T11:40:41.000Z</time>
      </trkpt>
      <trkpt lat="43.65155" lon="3.35931">
        <ele>203.8</ele>
        <time>2026-05-17T11:40:42.000Z</time>
      </trkpt>
      <trkpt lat="43.65154" lon="3.35931">
        <ele>203.2</ele>
        <time>2026-05-17T11:40:43.000Z</time>
      </trkpt>
      <trkpt lat="43.65153" lon="3.3593">
        <ele>202.8</ele>
        <time>2026-05-17T11:40:44.000Z</time>
      </trkpt>
      <trkpt lat="43.65151" lon="3.3593">
        <ele>202.5</ele>
        <time>2026-05-17T11:40:45.000Z</time>
      </trkpt>
      <trkpt lat="43.6515" lon="3.35929">
        <ele>202.2</ele>
        <time>2026-05-17T11:40:46.000Z</time>
      </trkpt>
      <trkpt lat="43.6515" lon="3.35929">
        <ele>202</ele>
        <time>2026-05-17T11:40:47.000Z</time>
      </trkpt>
      <trkpt lat="43.65149" lon="3.35929">
        <ele>201.9</ele>
        <time>2026-05-17T11:40:48.000Z</time>
      </trkpt>
      <trkpt lat="43.65148" lon="3.35928">
        <ele>202</ele>
        <time>2026-05-17T11:40:49.000Z</time>
      </trkpt>
      <trkpt lat="43.65147" lon="3.35928">
        <ele>201.8</ele>
        <time>2026-05-17T11:40:50.000Z</time>
      </trkpt>
      <trkpt lat="43.65146" lon="3.35929">
        <ele>201.5</ele>
        <time>2026-05-17T11:40:51.000Z</time>
      </trkpt>
      <trkpt lat="43.65145" lon="3.35929">
        <ele>201.2</ele>
        <time>2026-05-17T11:40:52.000Z</time>
      </trkpt>
      <trkpt lat="43.65145" lon="3.35929">
        <ele>201.5</ele>
        <time>2026-05-17T11:40:53.000Z</time>
      </trkpt>
      <trkpt lat="43.65144" lon="3.3593">
        <ele>201.2</ele>
        <time>2026-05-17T11:40:54.000Z</time>
      </trkpt>
      <trkpt lat="43.65143" lon="3.3593">
        <ele>201.4</ele>
        <time>2026-05-17T11:40:55.000Z</time>
      </trkpt>
      <trkpt lat="43.65142" lon="3.3593">
        <ele>201</ele>
        <time>2026-05-17T11:40:56.000Z</time>
      </trkpt>
      <trkpt lat="43.65142" lon="3.3593">
        <ele>200.7</ele>
        <time>2026-05-17T11:40:57.000Z</time>
      </trkpt>
      <trkpt lat="43.65142" lon="3.3593">
        <ele>200.8</ele>
        <time>2026-05-17T11:40:58.000Z</time>
      </trkpt>
      <trkpt lat="43.65141" lon="3.3593">
        <ele>200.8</ele>
        <time>2026-05-17T11:40:59.000Z</time>
      </trkpt>
      <trkpt lat="43.6514" lon="3.3593">
        <ele>200.5</ele>
        <time>2026-05-17T11:41:00.000Z</time>
      </trkpt>
      <trkpt lat="43.65139" lon="3.35931">
        <ele>200.2</ele>
        <time>2026-05-17T11:41:01.000Z</time>
      </trkpt>
      <trkpt lat="43.65139" lon="3.3593">
        <ele>199.9</ele>
        <time>2026-05-17T11:41:02.000Z</time>
      </trkpt>
      <trkpt lat="43.65139" lon="3.3593">
        <ele>199.2</ele>
        <time>2026-05-17T11:41:03.000Z</time>
      </trkpt>
      <trkpt lat="43.65139" lon="3.35929">
        <ele>198.8</ele>
        <time>2026-05-17T11:41:04.000Z</time>
      </trkpt>
      <trkpt lat="43.65138" lon="3.35929">
        <ele>199.4</ele>
        <time>2026-05-17T11:41:05.000Z</time>
      </trkpt>
      <trkpt lat="43.65137" lon="3.35929">
        <ele>199.5</ele>
        <time>2026-05-17T11:41:06.000Z</time>
      </trkpt>
      <trkpt lat="43.65136" lon="3.35929">
        <ele>199.1</ele>
        <time>2026-05-17T11:41:07.000Z</time>
      </trkpt>
      <trkpt lat="43.65135" lon="3.35929">
        <ele>199</ele>
        <time>2026-05-17T11:41:08.000Z</time>
      </trkpt>
      <trkpt lat="43.65134" lon="3.35929">
        <ele>198.9</ele>
        <time>2026-05-17T11:41:09.000Z</time>
      </trkpt>
      <trkpt lat="43.65133" lon="3.35928">
        <ele>198.7</ele>
        <time>2026-05-17T11:41:10.000Z</time>
      </trkpt>
      <trkpt lat="43.65133" lon="3.35928">
        <ele>198.5</ele>
        <time>2026-05-17T11:41:11.000Z</time>
      </trkpt>
      <trkpt lat="43.65133" lon="3.35928">
        <ele>198.1</ele>
        <time>2026-05-17T11:41:12.000Z</time>
      </trkpt>
      <trkpt lat="43.65132" lon="3.35927">
        <ele>197.9</ele>
        <time>2026-05-17T11:41:13.000Z</time>
      </trkpt>
      <trkpt lat="43.65132" lon="3.35927">
        <ele>197.4</ele>
        <time>2026-05-17T11:41:14.000Z</time>
      </trkpt>
      <trkpt lat="43.65132" lon="3.35927">
        <ele>197.1</ele>
        <time>2026-05-17T11:41:15.000Z</time>
      </trkpt>
      <trkpt lat="43.65132" lon="3.35927">
        <ele>196.8</ele>
        <time>2026-05-17T11:41:16.000Z</time>
      </trkpt>
      <trkpt lat="43.65132" lon="3.35927">
        <ele>196.4</ele>
        <time>2026-05-17T11:41:17.000Z</time>
      </trkpt>
      <trkpt lat="43.65131" lon="3.35928">
        <ele>195.8</ele>
        <time>2026-05-17T11:41:18.000Z</time>
      </trkpt>
      <trkpt lat="43.65131" lon="3.35929">
        <ele>195.4</ele>
        <time>2026-05-17T11:41:19.000Z</time>
      </trkpt>
      <trkpt lat="43.6513" lon="3.3593">
        <ele>195.5</ele>
        <time>2026-05-17T11:41:20.000Z</time>
      </trkpt>
      <trkpt lat="43.65129" lon="3.35931">
        <ele>195.5</ele>
        <time>2026-05-17T11:41:21.000Z</time>
      </trkpt>
      <trkpt lat="43.65129" lon="3.35931">
        <ele>195.2</ele>
        <time>2026-05-17T11:41:22.000Z</time>
      </trkpt>
      <trkpt lat="43.65128" lon="3.35931">
        <ele>194.9</ele>
        <time>2026-05-17T11:41:23.000Z</time>
      </trkpt>
      <trkpt lat="43.65128" lon="3.35931">
        <ele>194.7</ele>
        <time>2026-05-17T11:41:24.000Z</time>
      </trkpt>
      <trkpt lat="43.65128" lon="3.3593">
        <ele>194.5</ele>
        <time>2026-05-17T11:41:25.000Z</time>
      </trkpt>
      <trkpt lat="43.65127" lon="3.35928">
        <ele>194.5</ele>
        <time>2026-05-17T11:41:26.000Z</time>
      </trkpt>
      <trkpt lat="43.65126" lon="3.35927">
        <ele>194.7</ele>
        <time>2026-05-17T11:41:27.000Z</time>
      </trkpt>
      <trkpt lat="43.65125" lon="3.35926">
        <ele>194.4</ele>
        <time>2026-05-17T11:41:28.000Z</time>
      </trkpt>
      <trkpt lat="43.65124" lon="3.35926">
        <ele>194.5</ele>
        <time>2026-05-17T11:41:29.000Z</time>
      </trkpt>
      <trkpt lat="43.65124" lon="3.35926">
        <ele>194.3</ele>
        <time>2026-05-17T11:41:30.000Z</time>
      </trkpt>
      <trkpt lat="43.65123" lon="3.35925">
        <ele>193.7</ele>
        <time>2026-05-17T11:41:31.000Z</time>
      </trkpt>
      <trkpt lat="43.65123" lon="3.35925">
        <ele>193.3</ele>
        <time>2026-05-17T11:41:32.000Z</time>
      </trkpt>
      <trkpt lat="43.65122" lon="3.35924">
        <ele>193.1</ele>
        <time>2026-05-17T11:41:33.000Z</time>
      </trkpt>
      <trkpt lat="43.65121" lon="3.35923">
        <ele>192.7</ele>
        <time>2026-05-17T11:41:34.000Z</time>
      </trkpt>
      <trkpt lat="43.6512" lon="3.35922">
        <ele>192.6</ele>
        <time>2026-05-17T11:41:35.000Z</time>
      </trkpt>
      <trkpt lat="43.6512" lon="3.35921">
        <ele>192.9</ele>
        <time>2026-05-17T11:41:36.000Z</time>
      </trkpt>
      <trkpt lat="43.65119" lon="3.35921">
        <ele>192.8</ele>
        <time>2026-05-17T11:41:37.000Z</time>
      </trkpt>
      <trkpt lat="43.65118" lon="3.3592">
        <ele>192.6</ele>
        <time>2026-05-17T11:41:38.000Z</time>
      </trkpt>
      <trkpt lat="43.65118" lon="3.3592">
        <ele>192.7</ele>
        <time>2026-05-17T11:41:39.000Z</time>
      </trkpt>
      <trkpt lat="43.65117" lon="3.3592">
        <ele>192.5</ele>
        <time>2026-05-17T11:41:40.000Z</time>
      </trkpt>
      <trkpt lat="43.65117" lon="3.3592">
        <ele>192.3</ele>
        <time>2026-05-17T11:41:41.000Z</time>
      </trkpt>
      <trkpt lat="43.65117" lon="3.35919">
        <ele>191.7</ele>
        <time>2026-05-17T11:41:42.000Z</time>
      </trkpt>
      <trkpt lat="43.65116" lon="3.35918">
        <ele>191.4</ele>
        <time>2026-05-17T11:41:43.000Z</time>
      </trkpt>
      <trkpt lat="43.65115" lon="3.35917">
        <ele>191.8</ele>
        <time>2026-05-17T11:41:44.000Z</time>
      </trkpt>
      <trkpt lat="43.65115" lon="3.35916">
        <ele>192.1</ele>
        <time>2026-05-17T11:41:45.000Z</time>
      </trkpt>
      <trkpt lat="43.65114" lon="3.35915">
        <ele>192.3</ele>
        <time>2026-05-17T11:41:46.000Z</time>
      </trkpt>
      <trkpt lat="43.65113" lon="3.35915">
        <ele>192</ele>
        <time>2026-05-17T11:41:47.000Z</time>
      </trkpt>
      <trkpt lat="43.65112" lon="3.35914">
        <ele>191.4</ele>
        <time>2026-05-17T11:41:48.000Z</time>
      </trkpt>
      <trkpt lat="43.65111" lon="3.35914">
        <ele>191.1</ele>
        <time>2026-05-17T11:41:49.000Z</time>
      </trkpt>
      <trkpt lat="43.6511" lon="3.35914">
        <ele>190.9</ele>
        <time>2026-05-17T11:41:50.000Z</time>
      </trkpt>
      <trkpt lat="43.65109" lon="3.35913">
        <ele>190.6</ele>
        <time>2026-05-17T11:41:51.000Z</time>
      </trkpt>
      <trkpt lat="43.65108" lon="3.35912">
        <ele>190.3</ele>
        <time>2026-05-17T11:41:52.000Z</time>
      </trkpt>
      <trkpt lat="43.65107" lon="3.35912">
        <ele>189.8</ele>
        <time>2026-05-17T11:41:53.000Z</time>
      </trkpt>
      <trkpt lat="43.65106" lon="3.35911">
        <ele>189.4</ele>
        <time>2026-05-17T11:41:54.000Z</time>
      </trkpt>
      <trkpt lat="43.65106" lon="3.35911">
        <ele>189.7</ele>
        <time>2026-05-17T11:41:55.000Z</time>
      </trkpt>
      <trkpt lat="43.65106" lon="3.35911">
        <ele>189.7</ele>
        <time>2026-05-17T11:41:56.000Z</time>
      </trkpt>
      <trkpt lat="43.65105" lon="3.35911">
        <ele>189.9</ele>
        <time>2026-05-17T11:41:57.000Z</time>
      </trkpt>
      <trkpt lat="43.65104" lon="3.35911">
        <ele>189.7</ele>
        <time>2026-05-17T11:41:58.000Z</time>
      </trkpt>
      <trkpt lat="43.65103" lon="3.35911">
        <ele>189.4</ele>
        <time>2026-05-17T11:41:59.000Z</time>
      </trkpt>
      <trkpt lat="43.65102" lon="3.3591">
        <ele>189.5</ele>
        <time>2026-05-17T11:42:00.000Z</time>
      </trkpt>
      <trkpt lat="43.65102" lon="3.3591">
        <ele>189</ele>
        <time>2026-05-17T11:42:01.000Z</time>
      </trkpt>
      <trkpt lat="43.65101" lon="3.35909">
        <ele>189</ele>
        <time>2026-05-17T11:42:02.000Z</time>
      </trkpt>
      <trkpt lat="43.651" lon="3.35908">
        <ele>189.2</ele>
        <time>2026-05-17T11:42:03.000Z</time>
      </trkpt>
      <trkpt lat="43.65099" lon="3.35907">
        <ele>189.4</ele>
        <time>2026-05-17T11:42:04.000Z</time>
      </trkpt>
      <trkpt lat="43.65097" lon="3.35907">
        <ele>189.7</ele>
        <time>2026-05-17T11:42:05.000Z</time>
      </trkpt>
      <trkpt lat="43.65096" lon="3.35906">
        <ele>189.8</ele>
        <time>2026-05-17T11:42:06.000Z</time>
      </trkpt>
      <trkpt lat="43.65095" lon="3.35905">
        <ele>190.1</ele>
        <time>2026-05-17T11:42:07.000Z</time>
      </trkpt>
      <trkpt lat="43.65094" lon="3.35905">
        <ele>189.9</ele>
        <time>2026-05-17T11:42:08.000Z</time>
      </trkpt>
      <trkpt lat="43.65094" lon="3.35904">
        <ele>190.1</ele>
        <time>2026-05-17T11:42:09.000Z</time>
      </trkpt>
      <trkpt lat="43.65093" lon="3.35903">
        <ele>190.3</ele>
        <time>2026-05-17T11:42:10.000Z</time>
      </trkpt>
      <trkpt lat="43.65092" lon="3.35903">
        <ele>190</ele>
        <time>2026-05-17T11:42:11.000Z</time>
      </trkpt>
      <trkpt lat="43.65091" lon="3.35902">
        <ele>189.9</ele>
        <time>2026-05-17T11:42:12.000Z</time>
      </trkpt>
      <trkpt lat="43.6509" lon="3.35902">
        <ele>189.6</ele>
        <time>2026-05-17T11:42:13.000Z</time>
      </trkpt>
      <trkpt lat="43.6509" lon="3.35902">
        <ele>189.4</ele>
        <time>2026-05-17T11:42:14.000Z</time>
      </trkpt>
      <trkpt lat="43.65089" lon="3.35901">
        <ele>189.2</ele>
        <time>2026-05-17T11:42:15.000Z</time>
      </trkpt>
      <trkpt lat="43.65088" lon="3.359">
        <ele>189</ele>
        <time>2026-05-17T11:42:16.000Z</time>
      </trkpt>
      <trkpt lat="43.65087" lon="3.359">
        <ele>189</ele>
        <time>2026-05-17T11:42:17.000Z</time>
      </trkpt>
      <trkpt lat="43.65086" lon="3.35899">
        <ele>188.7</ele>
        <time>2026-05-17T11:42:18.000Z</time>
      </trkpt>
      <trkpt lat="43.65086" lon="3.35898">
        <ele>188.2</ele>
        <time>2026-05-17T11:42:19.000Z</time>
      </trkpt>
      <trkpt lat="43.65085" lon="3.35898">
        <ele>187.3</ele>
        <time>2026-05-17T11:42:20.000Z</time>
      </trkpt>
      <trkpt lat="43.65084" lon="3.35896">
        <ele>187.5</ele>
        <time>2026-05-17T11:42:21.000Z</time>
      </trkpt>
      <trkpt lat="43.65083" lon="3.35894">
        <ele>187.9</ele>
        <time>2026-05-17T11:42:22.000Z</time>
      </trkpt>
      <trkpt lat="43.65082" lon="3.35893">
        <ele>187.3</ele>
        <time>2026-05-17T11:42:23.000Z</time>
      </trkpt>
      <trkpt lat="43.65081" lon="3.35892">
        <ele>187</ele>
        <time>2026-05-17T11:42:24.000Z</time>
      </trkpt>
      <trkpt lat="43.6508" lon="3.35891">
        <ele>185.9</ele>
        <time>2026-05-17T11:42:25.000Z</time>
      </trkpt>
      <trkpt lat="43.65079" lon="3.3589">
        <ele>185.2</ele>
        <time>2026-05-17T11:42:26.000Z</time>
      </trkpt>
      <trkpt lat="43.65079" lon="3.35889">
        <ele>184.8</ele>
        <time>2026-05-17T11:42:27.000Z</time>
      </trkpt>
      <trkpt lat="43.65078" lon="3.35887">
        <ele>183.8</ele>
        <time>2026-05-17T11:42:28.000Z</time>
      </trkpt>
      <trkpt lat="43.65078" lon="3.35885">
        <ele>183.6</ele>
        <time>2026-05-17T11:42:29.000Z</time>
      </trkpt>
      <trkpt lat="43.65079" lon="3.35884">
        <ele>182.9</ele>
        <time>2026-05-17T11:42:30.000Z</time>
      </trkpt>
      <trkpt lat="43.65081" lon="3.35883">
        <ele>182.8</ele>
        <time>2026-05-17T11:42:31.000Z</time>
      </trkpt>
      <trkpt lat="43.65081" lon="3.35882">
        <ele>182.5</ele>
        <time>2026-05-17T11:42:32.000Z</time>
      </trkpt>
      <trkpt lat="43.65082" lon="3.3588">
        <ele>181.9</ele>
        <time>2026-05-17T11:42:33.000Z</time>
      </trkpt>
      <trkpt lat="43.65082" lon="3.35878">
        <ele>181.2</ele>
        <time>2026-05-17T11:42:34.000Z</time>
      </trkpt>
      <trkpt lat="43.65082" lon="3.35876">
        <ele>180.6</ele>
        <time>2026-05-17T11:42:35.000Z</time>
      </trkpt>
      <trkpt lat="43.65081" lon="3.35875">
        <ele>180.1</ele>
        <time>2026-05-17T11:42:36.000Z</time>
      </trkpt>
      <trkpt lat="43.6508" lon="3.35874">
        <ele>179.7</ele>
        <time>2026-05-17T11:42:37.000Z</time>
      </trkpt>
      <trkpt lat="43.6508" lon="3.35873">
        <ele>179.6</ele>
        <time>2026-05-17T11:42:38.000Z</time>
      </trkpt>
      <trkpt lat="43.65079" lon="3.35872">
        <ele>179.5</ele>
        <time>2026-05-17T11:42:39.000Z</time>
      </trkpt>
      <trkpt lat="43.65078" lon="3.35871">
        <ele>179.7</ele>
        <time>2026-05-17T11:42:40.000Z</time>
      </trkpt>
      <trkpt lat="43.65076" lon="3.3587">
        <ele>179.5</ele>
        <time>2026-05-17T11:42:41.000Z</time>
      </trkpt>
      <trkpt lat="43.65075" lon="3.35869">
        <ele>179.6</ele>
        <time>2026-05-17T11:42:42.000Z</time>
      </trkpt>
      <trkpt lat="43.65074" lon="3.35868">
        <ele>179.2</ele>
        <time>2026-05-17T11:42:43.000Z</time>
      </trkpt>
      <trkpt lat="43.65073" lon="3.35868">
        <ele>178.8</ele>
        <time>2026-05-17T11:42:44.000Z</time>
      </trkpt>
      <trkpt lat="43.65073" lon="3.35869">
        <ele>178.9</ele>
        <time>2026-05-17T11:42:45.000Z</time>
      </trkpt>
      <trkpt lat="43.65073" lon="3.35868">
        <ele>178.8</ele>
        <time>2026-05-17T11:42:46.000Z</time>
      </trkpt>
      <trkpt lat="43.65073" lon="3.35868">
        <ele>178.5</ele>
        <time>2026-05-17T11:42:47.000Z</time>
      </trkpt>
      <trkpt lat="43.65073" lon="3.35868">
        <ele>178.1</ele>
        <time>2026-05-17T11:42:48.000Z</time>
      </trkpt>
      <trkpt lat="43.65073" lon="3.35866">
        <ele>178.1</ele>
        <time>2026-05-17T11:42:49.000Z</time>
      </trkpt>
      <trkpt lat="43.65072" lon="3.35865">
        <ele>178.2</ele>
        <time>2026-05-17T11:42:50.000Z</time>
      </trkpt>
      <trkpt lat="43.65072" lon="3.35864">
        <ele>178.1</ele>
        <time>2026-05-17T11:42:51.000Z</time>
      </trkpt>
      <trkpt lat="43.65071" lon="3.35862">
        <ele>178.4</ele>
        <time>2026-05-17T11:42:52.000Z</time>
      </trkpt>
      <trkpt lat="43.6507" lon="3.3586">
        <ele>178.7</ele>
        <time>2026-05-17T11:42:53.000Z</time>
      </trkpt>
      <trkpt lat="43.6507" lon="3.35859">
        <ele>178</ele>
        <time>2026-05-17T11:42:54.000Z</time>
      </trkpt>
      <trkpt lat="43.65069" lon="3.35858">
        <ele>177.3</ele>
        <time>2026-05-17T11:42:55.000Z</time>
      </trkpt>
      <trkpt lat="43.65069" lon="3.35859">
        <ele>177.1</ele>
        <time>2026-05-17T11:42:56.000Z</time>
      </trkpt>
      <trkpt lat="43.65069" lon="3.35858">
        <ele>177</ele>
        <time>2026-05-17T11:42:57.000Z</time>
      </trkpt>
      <trkpt lat="43.65068" lon="3.35857">
        <ele>177.2</ele>
        <time>2026-05-17T11:42:58.000Z</time>
      </trkpt>
      <trkpt lat="43.65067" lon="3.35856">
        <ele>177.6</ele>
        <time>2026-05-17T11:42:59.000Z</time>
      </trkpt>
      <trkpt lat="43.65066" lon="3.35854">
        <ele>178</ele>
        <time>2026-05-17T11:43:00.000Z</time>
      </trkpt>
      <trkpt lat="43.65066" lon="3.35853">
        <ele>177.7</ele>
        <time>2026-05-17T11:43:01.000Z</time>
      </trkpt>
      <trkpt lat="43.65066" lon="3.35852">
        <ele>177.8</ele>
        <time>2026-05-17T11:43:02.000Z</time>
      </trkpt>
      <trkpt lat="43.65066" lon="3.35852">
        <ele>177.6</ele>
        <time>2026-05-17T11:43:03.000Z</time>
      </trkpt>
      <trkpt lat="43.65066" lon="3.35851">
        <ele>177.4</ele>
        <time>2026-05-17T11:43:04.000Z</time>
      </trkpt>
      <trkpt lat="43.65066" lon="3.35851">
        <ele>177.1</ele>
        <time>2026-05-17T11:43:05.000Z</time>
      </trkpt>
      <trkpt lat="43.65066" lon="3.35851">
        <ele>176.8</ele>
        <time>2026-05-17T11:43:06.000Z</time>
      </trkpt>
      <trkpt lat="43.65066" lon="3.35851">
        <ele>176.6</ele>
        <time>2026-05-17T11:43:07.000Z</time>
      </trkpt>
      <trkpt lat="43.65066" lon="3.35851">
        <ele>176.2</ele>
        <time>2026-05-17T11:43:08.000Z</time>
      </trkpt>
      <trkpt lat="43.65066" lon="3.35851">
        <ele>175.8</ele>
        <time>2026-05-17T11:43:09.000Z</time>
      </trkpt>
      <trkpt lat="43.65066" lon="3.35849">
        <ele>175.7</ele>
        <time>2026-05-17T11:43:10.000Z</time>
      </trkpt>
      <trkpt lat="43.65066" lon="3.35848">
        <ele>175.7</ele>
        <time>2026-05-17T11:43:11.000Z</time>
      </trkpt>
      <trkpt lat="43.65066" lon="3.35846">
        <ele>175.7</ele>
        <time>2026-05-17T11:43:12.000Z</time>
      </trkpt>
      <trkpt lat="43.65065" lon="3.35845">
        <ele>176</ele>
        <time>2026-05-17T11:43:13.000Z</time>
      </trkpt>
      <trkpt lat="43.65064" lon="3.35844">
        <ele>176.2</ele>
        <time>2026-05-17T11:43:14.000Z</time>
      </trkpt>
      <trkpt lat="43.65064" lon="3.35844">
        <ele>176.4</ele>
        <time>2026-05-17T11:43:15.000Z</time>
      </trkpt>
      <trkpt lat="43.65064" lon="3.35844">
        <ele>176.8</ele>
        <time>2026-05-17T11:43:16.000Z</time>
      </trkpt>
      <trkpt lat="43.65064" lon="3.35844">
        <ele>177</ele>
        <time>2026-05-17T11:43:17.000Z</time>
      </trkpt>
      <trkpt lat="43.65064" lon="3.35842">
        <ele>177.3</ele>
        <time>2026-05-17T11:43:18.000Z</time>
      </trkpt>
      <trkpt lat="43.65064" lon="3.35841">
        <ele>177.3</ele>
        <time>2026-05-17T11:43:19.000Z</time>
      </trkpt>
      <trkpt lat="43.65064" lon="3.3584">
        <ele>177.3</ele>
        <time>2026-05-17T11:43:20.000Z</time>
      </trkpt>
      <trkpt lat="43.65062" lon="3.35839">
        <ele>177</ele>
        <time>2026-05-17T11:43:21.000Z</time>
      </trkpt>
      <trkpt lat="43.65061" lon="3.35837">
        <ele>176.8</ele>
        <time>2026-05-17T11:43:22.000Z</time>
      </trkpt>
      <trkpt lat="43.65061" lon="3.35837">
        <ele>177</ele>
        <time>2026-05-17T11:43:23.000Z</time>
      </trkpt>
      <trkpt lat="43.65061" lon="3.35836">
        <ele>176.4</ele>
        <time>2026-05-17T11:43:24.000Z</time>
      </trkpt>
      <trkpt lat="43.65061" lon="3.35834">
        <ele>176.2</ele>
        <time>2026-05-17T11:43:25.000Z</time>
      </trkpt>
      <trkpt lat="43.6506" lon="3.35832">
        <ele>176.4</ele>
        <time>2026-05-17T11:43:26.000Z</time>
      </trkpt>
      <trkpt lat="43.6506" lon="3.3583">
        <ele>176.6</ele>
        <time>2026-05-17T11:43:27.000Z</time>
      </trkpt>
      <trkpt lat="43.6506" lon="3.35827">
        <ele>176.8</ele>
        <time>2026-05-17T11:43:28.000Z</time>
      </trkpt>
      <trkpt lat="43.6506" lon="3.35826">
        <ele>177.2</ele>
        <time>2026-05-17T11:43:29.000Z</time>
      </trkpt>
      <trkpt lat="43.65059" lon="3.35824">
        <ele>177.6</ele>
        <time>2026-05-17T11:43:30.000Z</time>
      </trkpt>
      <trkpt lat="43.65059" lon="3.35823">
        <ele>177.9</ele>
        <time>2026-05-17T11:43:31.000Z</time>
      </trkpt>
      <trkpt lat="43.65058" lon="3.35821">
        <ele>177.9</ele>
        <time>2026-05-17T11:43:32.000Z</time>
      </trkpt>
      <trkpt lat="43.65058" lon="3.3582">
        <ele>178</ele>
        <time>2026-05-17T11:43:33.000Z</time>
      </trkpt>
      <trkpt lat="43.65057" lon="3.35818">
        <ele>178.5</ele>
        <time>2026-05-17T11:43:34.000Z</time>
      </trkpt>
      <trkpt lat="43.65057" lon="3.35817">
        <ele>178.9</ele>
        <time>2026-05-17T11:43:35.000Z</time>
      </trkpt>
      <trkpt lat="43.65057" lon="3.35816">
        <ele>179.1</ele>
        <time>2026-05-17T11:43:36.000Z</time>
      </trkpt>
      <trkpt lat="43.65057" lon="3.35815">
        <ele>179.3</ele>
        <time>2026-05-17T11:43:37.000Z</time>
      </trkpt>
      <trkpt lat="43.65057" lon="3.35813">
        <ele>179.3</ele>
        <time>2026-05-17T11:43:38.000Z</time>
      </trkpt>
      <trkpt lat="43.65056" lon="3.35812">
        <ele>179.5</ele>
        <time>2026-05-17T11:43:39.000Z</time>
      </trkpt>
      <trkpt lat="43.65056" lon="3.35811">
        <ele>179.5</ele>
        <time>2026-05-17T11:43:40.000Z</time>
      </trkpt>
      <trkpt lat="43.65055" lon="3.3581">
        <ele>179.7</ele>
        <time>2026-05-17T11:43:41.000Z</time>
      </trkpt>
      <trkpt lat="43.65055" lon="3.35809">
        <ele>180</ele>
        <time>2026-05-17T11:43:42.000Z</time>
      </trkpt>
      <trkpt lat="43.65054" lon="3.35808">
        <ele>180.2</ele>
        <time>2026-05-17T11:43:43.000Z</time>
      </trkpt>
      <trkpt lat="43.65054" lon="3.35807">
        <ele>180.4</ele>
        <time>2026-05-17T11:43:44.000Z</time>
      </trkpt>
      <trkpt lat="43.65054" lon="3.35805">
        <ele>180.1</ele>
        <time>2026-05-17T11:43:45.000Z</time>
      </trkpt>
      <trkpt lat="43.65054" lon="3.35804">
        <ele>179.9</ele>
        <time>2026-05-17T11:43:46.000Z</time>
      </trkpt>
      <trkpt lat="43.65053" lon="3.35803">
        <ele>179.9</ele>
        <time>2026-05-17T11:43:47.000Z</time>
      </trkpt>
      <trkpt lat="43.65053" lon="3.35802">
        <ele>179.8</ele>
        <time>2026-05-17T11:43:48.000Z</time>
      </trkpt>
      <trkpt lat="43.65053" lon="3.358">
        <ele>179.6</ele>
        <time>2026-05-17T11:43:49.000Z</time>
      </trkpt>
      <trkpt lat="43.65053" lon="3.35799">
        <ele>179.4</ele>
        <time>2026-05-17T11:43:50.000Z</time>
      </trkpt>
      <trkpt lat="43.65052" lon="3.35798">
        <ele>179.7</ele>
        <time>2026-05-17T11:43:51.000Z</time>
      </trkpt>
      <trkpt lat="43.65052" lon="3.35797">
        <ele>179.9</ele>
        <time>2026-05-17T11:43:52.000Z</time>
      </trkpt>
      <trkpt lat="43.65052" lon="3.35796">
        <ele>179.9</ele>
        <time>2026-05-17T11:43:53.000Z</time>
      </trkpt>
      <trkpt lat="43.65051" lon="3.35794">
        <ele>180.2</ele>
        <time>2026-05-17T11:43:54.000Z</time>
      </trkpt>
      <trkpt lat="43.65051" lon="3.35793">
        <ele>180.2</ele>
        <time>2026-05-17T11:43:55.000Z</time>
      </trkpt>
      <trkpt lat="43.65051" lon="3.35791">
        <ele>180.2</ele>
        <time>2026-05-17T11:43:56.000Z</time>
      </trkpt>
      <trkpt lat="43.65051" lon="3.3579">
        <ele>180.3</ele>
        <time>2026-05-17T11:43:57.000Z</time>
      </trkpt>
      <trkpt lat="43.65051" lon="3.35789">
        <ele>180.2</ele>
        <time>2026-05-17T11:43:58.000Z</time>
      </trkpt>
      <trkpt lat="43.65051" lon="3.35788">
        <ele>180.2</ele>
        <time>2026-05-17T11:43:59.000Z</time>
      </trkpt>
      <trkpt lat="43.65051" lon="3.35787">
        <ele>180.3</ele>
        <time>2026-05-17T11:44:00.000Z</time>
      </trkpt>
      <trkpt lat="43.65051" lon="3.35785">
        <ele>180.2</ele>
        <time>2026-05-17T11:44:01.000Z</time>
      </trkpt>
      <trkpt lat="43.65051" lon="3.35783">
        <ele>180.2</ele>
        <time>2026-05-17T11:44:02.000Z</time>
      </trkpt>
      <trkpt lat="43.6505" lon="3.35781">
        <ele>180.1</ele>
        <time>2026-05-17T11:44:03.000Z</time>
      </trkpt>
      <trkpt lat="43.6505" lon="3.3578">
        <ele>180</ele>
        <time>2026-05-17T11:44:04.000Z</time>
      </trkpt>
      <trkpt lat="43.6505" lon="3.35778">
        <ele>180.2</ele>
        <time>2026-05-17T11:44:05.000Z</time>
      </trkpt>
      <trkpt lat="43.6505" lon="3.35777">
        <ele>180.3</ele>
        <time>2026-05-17T11:44:06.000Z</time>
      </trkpt>
      <trkpt lat="43.65049" lon="3.35776">
        <ele>180.1</ele>
        <time>2026-05-17T11:44:07.000Z</time>
      </trkpt>
      <trkpt lat="43.65049" lon="3.35774">
        <ele>179.8</ele>
        <time>2026-05-17T11:44:08.000Z</time>
      </trkpt>
      <trkpt lat="43.65049" lon="3.35772">
        <ele>179.4</ele>
        <time>2026-05-17T11:44:09.000Z</time>
      </trkpt>
      <trkpt lat="43.65049" lon="3.35771">
        <ele>179.3</ele>
        <time>2026-05-17T11:44:10.000Z</time>
      </trkpt>
      <trkpt lat="43.65048" lon="3.3577">
        <ele>179</ele>
        <time>2026-05-17T11:44:11.000Z</time>
      </trkpt>
      <trkpt lat="43.65048" lon="3.35769">
        <ele>178.8</ele>
        <time>2026-05-17T11:44:12.000Z</time>
      </trkpt>
      <trkpt lat="43.65047" lon="3.35768">
        <ele>179.1</ele>
        <time>2026-05-17T11:44:13.000Z</time>
      </trkpt>
      <trkpt lat="43.65047" lon="3.35766">
        <ele>179.5</ele>
        <time>2026-05-17T11:44:14.000Z</time>
      </trkpt>
      <trkpt lat="43.65046" lon="3.35764">
        <ele>179.5</ele>
        <time>2026-05-17T11:44:15.000Z</time>
      </trkpt>
      <trkpt lat="43.65044" lon="3.35763">
        <ele>179.6</ele>
        <time>2026-05-17T11:44:16.000Z</time>
      </trkpt>
      <trkpt lat="43.65043" lon="3.35761">
        <ele>179.7</ele>
        <time>2026-05-17T11:44:17.000Z</time>
      </trkpt>
      <trkpt lat="43.65042" lon="3.3576">
        <ele>179.6</ele>
        <time>2026-05-17T11:44:18.000Z</time>
      </trkpt>
      <trkpt lat="43.65041" lon="3.35759">
        <ele>179.3</ele>
        <time>2026-05-17T11:44:19.000Z</time>
      </trkpt>
      <trkpt lat="43.6504" lon="3.35758">
        <ele>179</ele>
        <time>2026-05-17T11:44:20.000Z</time>
      </trkpt>
      <trkpt lat="43.65039" lon="3.35757">
        <ele>179.1</ele>
        <time>2026-05-17T11:44:21.000Z</time>
      </trkpt>
      <trkpt lat="43.65037" lon="3.35756">
        <ele>179.2</ele>
        <time>2026-05-17T11:44:22.000Z</time>
      </trkpt>
      <trkpt lat="43.65036" lon="3.35755">
        <ele>179.3</ele>
        <time>2026-05-17T11:44:23.000Z</time>
      </trkpt>
      <trkpt lat="43.65034" lon="3.35755">
        <ele>179.2</ele>
        <time>2026-05-17T11:44:24.000Z</time>
      </trkpt>
      <trkpt lat="43.65033" lon="3.35754">
        <ele>179.1</ele>
        <time>2026-05-17T11:44:25.000Z</time>
      </trkpt>
      <trkpt lat="43.65033" lon="3.35754">
        <ele>178.9</ele>
        <time>2026-05-17T11:44:26.000Z</time>
      </trkpt>
      <trkpt lat="43.65032" lon="3.35754">
        <ele>178.8</ele>
        <time>2026-05-17T11:44:27.000Z</time>
      </trkpt>
      <trkpt lat="43.65031" lon="3.35753">
        <ele>178.6</ele>
        <time>2026-05-17T11:44:28.000Z</time>
      </trkpt>
      <trkpt lat="43.65029" lon="3.35752">
        <ele>178.3</ele>
        <time>2026-05-17T11:44:29.000Z</time>
      </trkpt>
      <trkpt lat="43.65028" lon="3.35751">
        <ele>178.1</ele>
        <time>2026-05-17T11:44:30.000Z</time>
      </trkpt>
      <trkpt lat="43.65027" lon="3.35751">
        <ele>177.9</ele>
        <time>2026-05-17T11:44:31.000Z</time>
      </trkpt>
      <trkpt lat="43.65027" lon="3.3575">
        <ele>178</ele>
        <time>2026-05-17T11:44:32.000Z</time>
      </trkpt>
      <trkpt lat="43.65025" lon="3.35749">
        <ele>177.8</ele>
        <time>2026-05-17T11:44:33.000Z</time>
      </trkpt>
      <trkpt lat="43.65025" lon="3.35749">
        <ele>177.3</ele>
        <time>2026-05-17T11:44:34.000Z</time>
      </trkpt>
      <trkpt lat="43.65024" lon="3.35748">
        <ele>176.9</ele>
        <time>2026-05-17T11:44:35.000Z</time>
      </trkpt>
      <trkpt lat="43.65023" lon="3.35747">
        <ele>176.9</ele>
        <time>2026-05-17T11:44:36.000Z</time>
      </trkpt>
      <trkpt lat="43.65021" lon="3.35746">
        <ele>176.7</ele>
        <time>2026-05-17T11:44:37.000Z</time>
      </trkpt>
      <trkpt lat="43.6502" lon="3.35745">
        <ele>176.5</ele>
        <time>2026-05-17T11:44:38.000Z</time>
      </trkpt>
      <trkpt lat="43.65018" lon="3.35744">
        <ele>176.3</ele>
        <time>2026-05-17T11:44:39.000Z</time>
      </trkpt>
      <trkpt lat="43.65017" lon="3.35743">
        <ele>176.2</ele>
        <time>2026-05-17T11:44:40.000Z</time>
      </trkpt>
      <trkpt lat="43.65016" lon="3.35742">
        <ele>176.1</ele>
        <time>2026-05-17T11:44:41.000Z</time>
      </trkpt>
      <trkpt lat="43.65016" lon="3.35741">
        <ele>176.1</ele>
        <time>2026-05-17T11:44:42.000Z</time>
      </trkpt>
      <trkpt lat="43.65016" lon="3.35741">
        <ele>176.1</ele>
        <time>2026-05-17T11:44:43.000Z</time>
      </trkpt>
      <trkpt lat="43.65015" lon="3.35739">
        <ele>175.9</ele>
        <time>2026-05-17T11:44:44.000Z</time>
      </trkpt>
      <trkpt lat="43.65015" lon="3.35738">
        <ele>175.9</ele>
        <time>2026-05-17T11:44:45.000Z</time>
      </trkpt>
      <trkpt lat="43.65014" lon="3.35736">
        <ele>175.5</ele>
        <time>2026-05-17T11:44:46.000Z</time>
      </trkpt>
      <trkpt lat="43.65014" lon="3.35735">
        <ele>175.3</ele>
        <time>2026-05-17T11:44:47.000Z</time>
      </trkpt>
      <trkpt lat="43.65013" lon="3.35732">
        <ele>176</ele>
        <time>2026-05-17T11:44:48.000Z</time>
      </trkpt>
      <trkpt lat="43.65012" lon="3.35732">
        <ele>176</ele>
        <time>2026-05-17T11:44:49.000Z</time>
      </trkpt>
      <trkpt lat="43.65011" lon="3.35731">
        <ele>176</ele>
        <time>2026-05-17T11:44:50.000Z</time>
      </trkpt>
      <trkpt lat="43.6501" lon="3.3573">
        <ele>175.8</ele>
        <time>2026-05-17T11:44:51.000Z</time>
      </trkpt>
      <trkpt lat="43.6501" lon="3.35729">
        <ele>175.3</ele>
        <time>2026-05-17T11:44:52.000Z</time>
      </trkpt>
      <trkpt lat="43.65009" lon="3.35728">
        <ele>174.7</ele>
        <time>2026-05-17T11:44:53.000Z</time>
      </trkpt>
      <trkpt lat="43.65008" lon="3.35727">
        <ele>174.5</ele>
        <time>2026-05-17T11:44:54.000Z</time>
      </trkpt>
      <trkpt lat="43.65007" lon="3.35726">
        <ele>174.7</ele>
        <time>2026-05-17T11:44:55.000Z</time>
      </trkpt>
      <trkpt lat="43.65006" lon="3.35725">
        <ele>174.8</ele>
        <time>2026-05-17T11:44:56.000Z</time>
      </trkpt>
      <trkpt lat="43.65006" lon="3.35724">
        <ele>174.6</ele>
        <time>2026-05-17T11:44:57.000Z</time>
      </trkpt>
      <trkpt lat="43.65005" lon="3.35723">
        <ele>174.4</ele>
        <time>2026-05-17T11:44:58.000Z</time>
      </trkpt>
      <trkpt lat="43.65004" lon="3.35722">
        <ele>174.1</ele>
        <time>2026-05-17T11:44:59.000Z</time>
      </trkpt>
      <trkpt lat="43.65004" lon="3.35721">
        <ele>174.1</ele>
        <time>2026-05-17T11:45:00.000Z</time>
      </trkpt>
      <trkpt lat="43.65003" lon="3.3572">
        <ele>173.7</ele>
        <time>2026-05-17T11:45:01.000Z</time>
      </trkpt>
      <trkpt lat="43.65002" lon="3.35719">
        <ele>173.3</ele>
        <time>2026-05-17T11:45:02.000Z</time>
      </trkpt>
      <trkpt lat="43.65001" lon="3.35718">
        <ele>173.5</ele>
        <time>2026-05-17T11:45:03.000Z</time>
      </trkpt>
      <trkpt lat="43.65" lon="3.35717">
        <ele>173.3</ele>
        <time>2026-05-17T11:45:04.000Z</time>
      </trkpt>
      <trkpt lat="43.65" lon="3.35716">
        <ele>172.8</ele>
        <time>2026-05-17T11:45:05.000Z</time>
      </trkpt>
      <trkpt lat="43.64999" lon="3.35715">
        <ele>172.5</ele>
        <time>2026-05-17T11:45:06.000Z</time>
      </trkpt>
      <trkpt lat="43.64999" lon="3.35713">
        <ele>172</ele>
        <time>2026-05-17T11:45:07.000Z</time>
      </trkpt>
      <trkpt lat="43.64998" lon="3.35711">
        <ele>171.8</ele>
        <time>2026-05-17T11:45:08.000Z</time>
      </trkpt>
      <trkpt lat="43.64997" lon="3.35709">
        <ele>172.4</ele>
        <time>2026-05-17T11:45:09.000Z</time>
      </trkpt>
      <trkpt lat="43.64997" lon="3.35707">
        <ele>172.4</ele>
        <time>2026-05-17T11:45:10.000Z</time>
      </trkpt>
      <trkpt lat="43.64997" lon="3.35705">
        <ele>171.8</ele>
        <time>2026-05-17T11:45:11.000Z</time>
      </trkpt>
      <trkpt lat="43.64996" lon="3.35703">
        <ele>172</ele>
        <time>2026-05-17T11:45:12.000Z</time>
      </trkpt>
      <trkpt lat="43.64996" lon="3.357">
        <ele>172.8</ele>
        <time>2026-05-17T11:45:13.000Z</time>
      </trkpt>
      <trkpt lat="43.64995" lon="3.35698">
        <ele>173</ele>
        <time>2026-05-17T11:45:14.000Z</time>
      </trkpt>
      <trkpt lat="43.64994" lon="3.35697">
        <ele>173.5</ele>
        <time>2026-05-17T11:45:15.000Z</time>
      </trkpt>
      <trkpt lat="43.64993" lon="3.35695">
        <ele>175</ele>
        <time>2026-05-17T11:45:16.000Z</time>
      </trkpt>
      <trkpt lat="43.64992" lon="3.35693">
        <ele>176.4</ele>
        <time>2026-05-17T11:45:17.000Z</time>
      </trkpt>
      <trkpt lat="43.64992" lon="3.35692">
        <ele>177.6</ele>
        <time>2026-05-17T11:45:18.000Z</time>
      </trkpt>
      <trkpt lat="43.64991" lon="3.3569">
        <ele>178.6</ele>
        <time>2026-05-17T11:45:19.000Z</time>
      </trkpt>
      <trkpt lat="43.64991" lon="3.35688">
        <ele>179.2</ele>
        <time>2026-05-17T11:45:20.000Z</time>
      </trkpt>
      <trkpt lat="43.64991" lon="3.35687">
        <ele>179.5</ele>
        <time>2026-05-17T11:45:21.000Z</time>
      </trkpt>
      <trkpt lat="43.64991" lon="3.35685">
        <ele>179.6</ele>
        <time>2026-05-17T11:45:22.000Z</time>
      </trkpt>
      <trkpt lat="43.6499" lon="3.35683">
        <ele>180.2</ele>
        <time>2026-05-17T11:45:23.000Z</time>
      </trkpt>
      <trkpt lat="43.6499" lon="3.35682">
        <ele>180.3</ele>
        <time>2026-05-17T11:45:24.000Z</time>
      </trkpt>
      <trkpt lat="43.64989" lon="3.35681">
        <ele>180.8</ele>
        <time>2026-05-17T11:45:25.000Z</time>
      </trkpt>
      <trkpt lat="43.64988" lon="3.35679">
        <ele>181.1</ele>
        <time>2026-05-17T11:45:26.000Z</time>
      </trkpt>
      <trkpt lat="43.64988" lon="3.35678">
        <ele>181.2</ele>
        <time>2026-05-17T11:45:27.000Z</time>
      </trkpt>
      <trkpt lat="43.64987" lon="3.35677">
        <ele>181.3</ele>
        <time>2026-05-17T11:45:28.000Z</time>
      </trkpt>
      <trkpt lat="43.64987" lon="3.35676">
        <ele>181.5</ele>
        <time>2026-05-17T11:45:29.000Z</time>
      </trkpt>
      <trkpt lat="43.64986" lon="3.35675">
        <ele>181.8</ele>
        <time>2026-05-17T11:45:30.000Z</time>
      </trkpt>
      <trkpt lat="43.64985" lon="3.35674">
        <ele>182</ele>
        <time>2026-05-17T11:45:31.000Z</time>
      </trkpt>
      <trkpt lat="43.64985" lon="3.35673">
        <ele>181.9</ele>
        <time>2026-05-17T11:45:32.000Z</time>
      </trkpt>
      <trkpt lat="43.64984" lon="3.35672">
        <ele>181.9</ele>
        <time>2026-05-17T11:45:33.000Z</time>
      </trkpt>
      <trkpt lat="43.64982" lon="3.35671">
        <ele>181.7</ele>
        <time>2026-05-17T11:45:34.000Z</time>
      </trkpt>
      <trkpt lat="43.64981" lon="3.3567">
        <ele>181.5</ele>
        <time>2026-05-17T11:45:35.000Z</time>
      </trkpt>
      <trkpt lat="43.6498" lon="3.35669">
        <ele>181.4</ele>
        <time>2026-05-17T11:45:36.000Z</time>
      </trkpt>
      <trkpt lat="43.64979" lon="3.35668">
        <ele>181.5</ele>
        <time>2026-05-17T11:45:37.000Z</time>
      </trkpt>
      <trkpt lat="43.64978" lon="3.35668">
        <ele>181</ele>
        <time>2026-05-17T11:45:38.000Z</time>
      </trkpt>
      <trkpt lat="43.64978" lon="3.35668">
        <ele>180.9</ele>
        <time>2026-05-17T11:45:39.000Z</time>
      </trkpt>
      <trkpt lat="43.64977" lon="3.35667">
        <ele>180.8</ele>
        <time>2026-05-17T11:45:40.000Z</time>
      </trkpt>
      <trkpt lat="43.64977" lon="3.35667">
        <ele>180.5</ele>
        <time>2026-05-17T11:45:41.000Z</time>
      </trkpt>
      <trkpt lat="43.64976" lon="3.35667">
        <ele>180.1</ele>
        <time>2026-05-17T11:45:42.000Z</time>
      </trkpt>
      <trkpt lat="43.64974" lon="3.35667">
        <ele>179.8</ele>
        <time>2026-05-17T11:45:43.000Z</time>
      </trkpt>
      <trkpt lat="43.64974" lon="3.35666">
        <ele>179.4</ele>
        <time>2026-05-17T11:45:44.000Z</time>
      </trkpt>
      <trkpt lat="43.64973" lon="3.35666">
        <ele>179.3</ele>
        <time>2026-05-17T11:45:45.000Z</time>
      </trkpt>
      <trkpt lat="43.64972" lon="3.35665">
        <ele>179.3</ele>
        <time>2026-05-17T11:45:46.000Z</time>
      </trkpt>
      <trkpt lat="43.64971" lon="3.35665">
        <ele>179.3</ele>
        <time>2026-05-17T11:45:47.000Z</time>
      </trkpt>
      <trkpt lat="43.64969" lon="3.35664">
        <ele>179.4</ele>
        <time>2026-05-17T11:45:48.000Z</time>
      </trkpt>
      <trkpt lat="43.64968" lon="3.35663">
        <ele>179.5</ele>
        <time>2026-05-17T11:45:49.000Z</time>
      </trkpt>
      <trkpt lat="43.64967" lon="3.35662">
        <ele>179.8</ele>
        <time>2026-05-17T11:45:50.000Z</time>
      </trkpt>
      <trkpt lat="43.64966" lon="3.35661">
        <ele>180</ele>
        <time>2026-05-17T11:45:51.000Z</time>
      </trkpt>
      <trkpt lat="43.64965" lon="3.3566">
        <ele>180</ele>
        <time>2026-05-17T11:45:52.000Z</time>
      </trkpt>
      <trkpt lat="43.64964" lon="3.3566">
        <ele>179.8</ele>
        <time>2026-05-17T11:45:53.000Z</time>
      </trkpt>
      <trkpt lat="43.64963" lon="3.35658">
        <ele>179.7</ele>
        <time>2026-05-17T11:45:54.000Z</time>
      </trkpt>
      <trkpt lat="43.64963" lon="3.35657">
        <ele>180.2</ele>
        <time>2026-05-17T11:45:55.000Z</time>
      </trkpt>
      <trkpt lat="43.64961" lon="3.35656">
        <ele>180.5</ele>
        <time>2026-05-17T11:45:56.000Z</time>
      </trkpt>
      <trkpt lat="43.6496" lon="3.35654">
        <ele>181.1</ele>
        <time>2026-05-17T11:45:57.000Z</time>
      </trkpt>
      <trkpt lat="43.64959" lon="3.35653">
        <ele>181.3</ele>
        <time>2026-05-17T11:45:58.000Z</time>
      </trkpt>
      <trkpt lat="43.64959" lon="3.35651">
        <ele>181.4</ele>
        <time>2026-05-17T11:45:59.000Z</time>
      </trkpt>
      <trkpt lat="43.6496" lon="3.35649">
        <ele>181.6</ele>
        <time>2026-05-17T11:46:00.000Z</time>
      </trkpt>
      <trkpt lat="43.64961" lon="3.35647">
        <ele>181.6</ele>
        <time>2026-05-17T11:46:01.000Z</time>
      </trkpt>
      <trkpt lat="43.64962" lon="3.35645">
        <ele>181.3</ele>
        <time>2026-05-17T11:46:02.000Z</time>
      </trkpt>
      <trkpt lat="43.64962" lon="3.35643">
        <ele>181.3</ele>
        <time>2026-05-17T11:46:03.000Z</time>
      </trkpt>
      <trkpt lat="43.64963" lon="3.35641">
        <ele>181.2</ele>
        <time>2026-05-17T11:46:04.000Z</time>
      </trkpt>
      <trkpt lat="43.64964" lon="3.35639">
        <ele>181</ele>
        <time>2026-05-17T11:46:05.000Z</time>
      </trkpt>
      <trkpt lat="43.64965" lon="3.35637">
        <ele>180.9</ele>
        <time>2026-05-17T11:46:06.000Z</time>
      </trkpt>
      <trkpt lat="43.64966" lon="3.35636">
        <ele>180.5</ele>
        <time>2026-05-17T11:46:07.000Z</time>
      </trkpt>
      <trkpt lat="43.64966" lon="3.35634">
        <ele>180.5</ele>
        <time>2026-05-17T11:46:08.000Z</time>
      </trkpt>
      <trkpt lat="43.64967" lon="3.3563">
        <ele>180.6</ele>
        <time>2026-05-17T11:46:10.000Z</time>
      </trkpt>
      <trkpt lat="43.64968" lon="3.35629">
        <ele>180.7</ele>
        <time>2026-05-17T11:46:11.000Z</time>
      </trkpt>
      <trkpt lat="43.64969" lon="3.35627">
        <ele>180.7</ele>
        <time>2026-05-17T11:46:12.000Z</time>
      </trkpt>
      <trkpt lat="43.6497" lon="3.35625">
        <ele>181.1</ele>
        <time>2026-05-17T11:46:13.000Z</time>
      </trkpt>
      <trkpt lat="43.64971" lon="3.35624">
        <ele>180.9</ele>
        <time>2026-05-17T11:46:14.000Z</time>
      </trkpt>
      <trkpt lat="43.64973" lon="3.35623">
        <ele>181.6</ele>
        <time>2026-05-17T11:46:15.000Z</time>
      </trkpt>
      <trkpt lat="43.64974" lon="3.35622">
        <ele>182</ele>
        <time>2026-05-17T11:46:16.000Z</time>
      </trkpt>
      <trkpt lat="43.64975" lon="3.35621">
        <ele>182.2</ele>
        <time>2026-05-17T11:46:17.000Z</time>
      </trkpt>
      <trkpt lat="43.64975" lon="3.35619">
        <ele>182.4</ele>
        <time>2026-05-17T11:46:18.000Z</time>
      </trkpt>
      <trkpt lat="43.64975" lon="3.35617">
        <ele>181.9</ele>
        <time>2026-05-17T11:46:19.000Z</time>
      </trkpt>
      <trkpt lat="43.64976" lon="3.35615">
        <ele>181.4</ele>
        <time>2026-05-17T11:46:20.000Z</time>
      </trkpt>
      <trkpt lat="43.64976" lon="3.35614">
        <ele>181.1</ele>
        <time>2026-05-17T11:46:21.000Z</time>
      </trkpt>
      <trkpt lat="43.64977" lon="3.35613">
        <ele>181.1</ele>
        <time>2026-05-17T11:46:22.000Z</time>
      </trkpt>
      <trkpt lat="43.64977" lon="3.35612">
        <ele>181.2</ele>
        <time>2026-05-17T11:46:23.000Z</time>
      </trkpt>
      <trkpt lat="43.64977" lon="3.35611">
        <ele>181.4</ele>
        <time>2026-05-17T11:46:24.000Z</time>
      </trkpt>
      <trkpt lat="43.64978" lon="3.3561">
        <ele>181.3</ele>
        <time>2026-05-17T11:46:25.000Z</time>
      </trkpt>
      <trkpt lat="43.64978" lon="3.35608">
        <ele>181.2</ele>
        <time>2026-05-17T11:46:26.000Z</time>
      </trkpt>
      <trkpt lat="43.64979" lon="3.35607">
        <ele>181</ele>
        <time>2026-05-17T11:46:27.000Z</time>
      </trkpt>
      <trkpt lat="43.64979" lon="3.35605">
        <ele>181</ele>
        <time>2026-05-17T11:46:28.000Z</time>
      </trkpt>
      <trkpt lat="43.64979" lon="3.35604">
        <ele>181.1</ele>
        <time>2026-05-17T11:46:29.000Z</time>
      </trkpt>
      <trkpt lat="43.64979" lon="3.35603">
        <ele>180.8</ele>
        <time>2026-05-17T11:46:30.000Z</time>
      </trkpt>
      <trkpt lat="43.64979" lon="3.35602">
        <ele>180.8</ele>
        <time>2026-05-17T11:46:31.000Z</time>
      </trkpt>
      <trkpt lat="43.64979" lon="3.356">
        <ele>180.7</ele>
        <time>2026-05-17T11:46:32.000Z</time>
      </trkpt>
      <trkpt lat="43.64979" lon="3.35599">
        <ele>180.1</ele>
        <time>2026-05-17T11:46:33.000Z</time>
      </trkpt>
      <trkpt lat="43.64979" lon="3.35597">
        <ele>180</ele>
        <time>2026-05-17T11:46:34.000Z</time>
      </trkpt>
      <trkpt lat="43.6498" lon="3.35595">
        <ele>179.4</ele>
        <time>2026-05-17T11:46:35.000Z</time>
      </trkpt>
      <trkpt lat="43.64981" lon="3.35594">
        <ele>179.4</ele>
        <time>2026-05-17T11:46:36.000Z</time>
      </trkpt>
      <trkpt lat="43.64981" lon="3.35593">
        <ele>179.2</ele>
        <time>2026-05-17T11:46:37.000Z</time>
      </trkpt>
      <trkpt lat="43.64982" lon="3.35592">
        <ele>179.1</ele>
        <time>2026-05-17T11:46:38.000Z</time>
      </trkpt>
      <trkpt lat="43.64983" lon="3.3559">
        <ele>178.9</ele>
        <time>2026-05-17T11:46:39.000Z</time>
      </trkpt>
      <trkpt lat="43.64984" lon="3.35589">
        <ele>179.1</ele>
        <time>2026-05-17T11:46:40.000Z</time>
      </trkpt>
      <trkpt lat="43.64984" lon="3.35587">
        <ele>179.3</ele>
        <time>2026-05-17T11:46:41.000Z</time>
      </trkpt>
      <trkpt lat="43.64984" lon="3.35586">
        <ele>179.1</ele>
        <time>2026-05-17T11:46:42.000Z</time>
      </trkpt>
      <trkpt lat="43.64985" lon="3.35584">
        <ele>179.1</ele>
        <time>2026-05-17T11:46:43.000Z</time>
      </trkpt>
      <trkpt lat="43.64985" lon="3.35582">
        <ele>179.2</ele>
        <time>2026-05-17T11:46:44.000Z</time>
      </trkpt>
      <trkpt lat="43.64986" lon="3.3558">
        <ele>179.3</ele>
        <time>2026-05-17T11:46:45.000Z</time>
      </trkpt>
      <trkpt lat="43.64986" lon="3.35578">
        <ele>179.5</ele>
        <time>2026-05-17T11:46:46.000Z</time>
      </trkpt>
      <trkpt lat="43.64986" lon="3.35576">
        <ele>179.4</ele>
        <time>2026-05-17T11:46:47.000Z</time>
      </trkpt>
      <trkpt lat="43.64986" lon="3.35576">
        <ele>179.1</ele>
        <time>2026-05-17T11:46:48.000Z</time>
      </trkpt>
      <trkpt lat="43.64986" lon="3.35575">
        <ele>178.9</ele>
        <time>2026-05-17T11:46:49.000Z</time>
      </trkpt>
      <trkpt lat="43.64987" lon="3.35573">
        <ele>178.8</ele>
        <time>2026-05-17T11:46:50.000Z</time>
      </trkpt>
      <trkpt lat="43.64987" lon="3.35571">
        <ele>179</ele>
        <time>2026-05-17T11:46:51.000Z</time>
      </trkpt>
      <trkpt lat="43.64988" lon="3.35569">
        <ele>179.2</ele>
        <time>2026-05-17T11:46:52.000Z</time>
      </trkpt>
      <trkpt lat="43.64989" lon="3.35567">
        <ele>179.2</ele>
        <time>2026-05-17T11:46:53.000Z</time>
      </trkpt>
      <trkpt lat="43.64989" lon="3.35565">
        <ele>179.2</ele>
        <time>2026-05-17T11:46:54.000Z</time>
      </trkpt>
      <trkpt lat="43.6499" lon="3.35563">
        <ele>179.1</ele>
        <time>2026-05-17T11:46:55.000Z</time>
      </trkpt>
      <trkpt lat="43.6499" lon="3.35561">
        <ele>178.9</ele>
        <time>2026-05-17T11:46:56.000Z</time>
      </trkpt>
      <trkpt lat="43.6499" lon="3.35559">
        <ele>179</ele>
        <time>2026-05-17T11:46:57.000Z</time>
      </trkpt>
      <trkpt lat="43.6499" lon="3.35559">
        <ele>179</ele>
        <time>2026-05-17T11:46:58.000Z</time>
      </trkpt>
      <trkpt lat="43.64991" lon="3.35557">
        <ele>179.2</ele>
        <time>2026-05-17T11:46:59.000Z</time>
      </trkpt>
      <trkpt lat="43.64991" lon="3.35556">
        <ele>179.3</ele>
        <time>2026-05-17T11:47:00.000Z</time>
      </trkpt>
      <trkpt lat="43.64991" lon="3.35554">
        <ele>179.2</ele>
        <time>2026-05-17T11:47:01.000Z</time>
      </trkpt>
      <trkpt lat="43.64992" lon="3.35552">
        <ele>179.2</ele>
        <time>2026-05-17T11:47:02.000Z</time>
      </trkpt>
      <trkpt lat="43.64992" lon="3.3555">
        <ele>179.3</ele>
        <time>2026-05-17T11:47:03.000Z</time>
      </trkpt>
      <trkpt lat="43.64993" lon="3.35549">
        <ele>179.3</ele>
        <time>2026-05-17T11:47:04.000Z</time>
      </trkpt>
      <trkpt lat="43.64993" lon="3.35547">
        <ele>179.3</ele>
        <time>2026-05-17T11:47:05.000Z</time>
      </trkpt>
      <trkpt lat="43.64994" lon="3.35544">
        <ele>179.2</ele>
        <time>2026-05-17T11:47:06.000Z</time>
      </trkpt>
      <trkpt lat="43.64995" lon="3.35542">
        <ele>179.2</ele>
        <time>2026-05-17T11:47:07.000Z</time>
      </trkpt>
      <trkpt lat="43.64995" lon="3.3554">
        <ele>179.3</ele>
        <time>2026-05-17T11:47:08.000Z</time>
      </trkpt>
      <trkpt lat="43.64996" lon="3.35539">
        <ele>178.9</ele>
        <time>2026-05-17T11:47:09.000Z</time>
      </trkpt>
      <trkpt lat="43.64996" lon="3.35537">
        <ele>178.6</ele>
        <time>2026-05-17T11:47:10.000Z</time>
      </trkpt>
      <trkpt lat="43.64996" lon="3.35535">
        <ele>178.6</ele>
        <time>2026-05-17T11:47:11.000Z</time>
      </trkpt>
      <trkpt lat="43.64997" lon="3.35534">
        <ele>178.3</ele>
        <time>2026-05-17T11:47:12.000Z</time>
      </trkpt>
      <trkpt lat="43.64996" lon="3.35532">
        <ele>181.9</ele>
        <time>2026-05-17T11:47:13.000Z</time>
      </trkpt>
      <trkpt lat="43.64996" lon="3.35531">
        <ele>184</ele>
        <time>2026-05-17T11:47:14.000Z</time>
      </trkpt>
      <trkpt lat="43.64997" lon="3.35529">
        <ele>184.7</ele>
        <time>2026-05-17T11:47:15.000Z</time>
      </trkpt>
      <trkpt lat="43.64996" lon="3.35527">
        <ele>185.5</ele>
        <time>2026-05-17T11:47:16.000Z</time>
      </trkpt>
      <trkpt lat="43.64997" lon="3.35525">
        <ele>186</ele>
        <time>2026-05-17T11:47:17.000Z</time>
      </trkpt>
      <trkpt lat="43.64997" lon="3.35524">
        <ele>186.2</ele>
        <time>2026-05-17T11:47:18.000Z</time>
      </trkpt>
      <trkpt lat="43.64997" lon="3.35523">
        <ele>186.3</ele>
        <time>2026-05-17T11:47:19.000Z</time>
      </trkpt>
      <trkpt lat="43.64997" lon="3.35521">
        <ele>186.6</ele>
        <time>2026-05-17T11:47:20.000Z</time>
      </trkpt>
      <trkpt lat="43.64997" lon="3.3552">
        <ele>186.9</ele>
        <time>2026-05-17T11:47:21.000Z</time>
      </trkpt>
      <trkpt lat="43.64997" lon="3.35517">
        <ele>187.6</ele>
        <time>2026-05-17T11:47:22.000Z</time>
      </trkpt>
      <trkpt lat="43.64996" lon="3.35515">
        <ele>188.2</ele>
        <time>2026-05-17T11:47:23.000Z</time>
      </trkpt>
      <trkpt lat="43.64995" lon="3.35513">
        <ele>189.1</ele>
        <time>2026-05-17T11:47:24.000Z</time>
      </trkpt>
      <trkpt lat="43.64995" lon="3.35511">
        <ele>189.7</ele>
        <time>2026-05-17T11:47:25.000Z</time>
      </trkpt>
      <trkpt lat="43.64994" lon="3.3551">
        <ele>190.1</ele>
        <time>2026-05-17T11:47:26.000Z</time>
      </trkpt>
      <trkpt lat="43.64994" lon="3.35509">
        <ele>190.5</ele>
        <time>2026-05-17T11:47:27.000Z</time>
      </trkpt>
      <trkpt lat="43.64993" lon="3.35508">
        <ele>190.6</ele>
        <time>2026-05-17T11:47:28.000Z</time>
      </trkpt>
      <trkpt lat="43.64993" lon="3.35507">
        <ele>190.7</ele>
        <time>2026-05-17T11:47:29.000Z</time>
      </trkpt>
      <trkpt lat="43.64993" lon="3.35506">
        <ele>190.6</ele>
        <time>2026-05-17T11:47:30.000Z</time>
      </trkpt>
      <trkpt lat="43.64992" lon="3.35505">
        <ele>190.5</ele>
        <time>2026-05-17T11:47:31.000Z</time>
      </trkpt>
      <trkpt lat="43.6499" lon="3.35503">
        <ele>190.5</ele>
        <time>2026-05-17T11:47:32.000Z</time>
      </trkpt>
      <trkpt lat="43.64989" lon="3.35502">
        <ele>190</ele>
        <time>2026-05-17T11:47:33.000Z</time>
      </trkpt>
      <trkpt lat="43.64988" lon="3.35501">
        <ele>189.7</ele>
        <time>2026-05-17T11:47:34.000Z</time>
      </trkpt>
      <trkpt lat="43.64988" lon="3.355">
        <ele>189.6</ele>
        <time>2026-05-17T11:47:35.000Z</time>
      </trkpt>
      <trkpt lat="43.64987" lon="3.35499">
        <ele>190.1</ele>
        <time>2026-05-17T11:47:36.000Z</time>
      </trkpt>
      <trkpt lat="43.64986" lon="3.35497">
        <ele>190.6</ele>
        <time>2026-05-17T11:47:37.000Z</time>
      </trkpt>
      <trkpt lat="43.64985" lon="3.35496">
        <ele>190.6</ele>
        <time>2026-05-17T11:47:38.000Z</time>
      </trkpt>
      <trkpt lat="43.64983" lon="3.35496">
        <ele>190.8</ele>
        <time>2026-05-17T11:47:39.000Z</time>
      </trkpt>
      <trkpt lat="43.64981" lon="3.35495">
        <ele>190.9</ele>
        <time>2026-05-17T11:47:40.000Z</time>
      </trkpt>
      <trkpt lat="43.64979" lon="3.35495">
        <ele>190.6</ele>
        <time>2026-05-17T11:47:41.000Z</time>
      </trkpt>
      <trkpt lat="43.64978" lon="3.35494">
        <ele>190.6</ele>
        <time>2026-05-17T11:47:42.000Z</time>
      </trkpt>
      <trkpt lat="43.64976" lon="3.35493">
        <ele>190.5</ele>
        <time>2026-05-17T11:47:43.000Z</time>
      </trkpt>
      <trkpt lat="43.64975" lon="3.35492">
        <ele>190.6</ele>
        <time>2026-05-17T11:47:44.000Z</time>
      </trkpt>
      <trkpt lat="43.64974" lon="3.35492">
        <ele>190.9</ele>
        <time>2026-05-17T11:47:45.000Z</time>
      </trkpt>
      <trkpt lat="43.64973" lon="3.35492">
        <ele>190.4</ele>
        <time>2026-05-17T11:47:46.000Z</time>
      </trkpt>
      <trkpt lat="43.64972" lon="3.35493">
        <ele>189.9</ele>
        <time>2026-05-17T11:47:47.000Z</time>
      </trkpt>
      <trkpt lat="43.64972" lon="3.35492">
        <ele>189.7</ele>
        <time>2026-05-17T11:47:48.000Z</time>
      </trkpt>
      <trkpt lat="43.64971" lon="3.35492">
        <ele>190</ele>
        <time>2026-05-17T11:47:49.000Z</time>
      </trkpt>
      <trkpt lat="43.6497" lon="3.35492">
        <ele>190.2</ele>
        <time>2026-05-17T11:47:50.000Z</time>
      </trkpt>
      <trkpt lat="43.64969" lon="3.35491">
        <ele>190</ele>
        <time>2026-05-17T11:47:51.000Z</time>
      </trkpt>
      <trkpt lat="43.64967" lon="3.3549">
        <ele>189.8</ele>
        <time>2026-05-17T11:47:52.000Z</time>
      </trkpt>
      <trkpt lat="43.64966" lon="3.3549">
        <ele>189.5</ele>
        <time>2026-05-17T11:47:53.000Z</time>
      </trkpt>
      <trkpt lat="43.64964" lon="3.35488">
        <ele>189.9</ele>
        <time>2026-05-17T11:47:54.000Z</time>
      </trkpt>
      <trkpt lat="43.64962" lon="3.35487">
        <ele>189.5</ele>
        <time>2026-05-17T11:47:55.000Z</time>
      </trkpt>
      <trkpt lat="43.64961" lon="3.35487">
        <ele>189.3</ele>
        <time>2026-05-17T11:47:56.000Z</time>
      </trkpt>
      <trkpt lat="43.6496" lon="3.35486">
        <ele>189.3</ele>
        <time>2026-05-17T11:47:57.000Z</time>
      </trkpt>
      <trkpt lat="43.64959" lon="3.35485">
        <ele>189</ele>
        <time>2026-05-17T11:47:58.000Z</time>
      </trkpt>
      <trkpt lat="43.64958" lon="3.35485">
        <ele>188.7</ele>
        <time>2026-05-17T11:47:59.000Z</time>
      </trkpt>
      <trkpt lat="43.64956" lon="3.35484">
        <ele>188.8</ele>
        <time>2026-05-17T11:48:00.000Z</time>
      </trkpt>
      <trkpt lat="43.64955" lon="3.35484">
        <ele>188.8</ele>
        <time>2026-05-17T11:48:01.000Z</time>
      </trkpt>
      <trkpt lat="43.64954" lon="3.35482">
        <ele>189.6</ele>
        <time>2026-05-17T11:48:02.000Z</time>
      </trkpt>
      <trkpt lat="43.64952" lon="3.35482">
        <ele>190</ele>
        <time>2026-05-17T11:48:03.000Z</time>
      </trkpt>
      <trkpt lat="43.64951" lon="3.35482">
        <ele>189.8</ele>
        <time>2026-05-17T11:48:04.000Z</time>
      </trkpt>
      <trkpt lat="43.64949" lon="3.3548">
        <ele>189.5</ele>
        <time>2026-05-17T11:48:05.000Z</time>
      </trkpt>
      <trkpt lat="43.64947" lon="3.35479">
        <ele>189.7</ele>
        <time>2026-05-17T11:48:06.000Z</time>
      </trkpt>
      <trkpt lat="43.64946" lon="3.35478">
        <ele>189.9</ele>
        <time>2026-05-17T11:48:07.000Z</time>
      </trkpt>
      <trkpt lat="43.64945" lon="3.35478">
        <ele>190</ele>
        <time>2026-05-17T11:48:08.000Z</time>
      </trkpt>
      <trkpt lat="43.64944" lon="3.35477">
        <ele>189.5</ele>
        <time>2026-05-17T11:48:09.000Z</time>
      </trkpt>
      <trkpt lat="43.64943" lon="3.35477">
        <ele>189.2</ele>
        <time>2026-05-17T11:48:10.000Z</time>
      </trkpt>
      <trkpt lat="43.64941" lon="3.35476">
        <ele>189</ele>
        <time>2026-05-17T11:48:11.000Z</time>
      </trkpt>
      <trkpt lat="43.64939" lon="3.35475">
        <ele>188.5</ele>
        <time>2026-05-17T11:48:12.000Z</time>
      </trkpt>
      <trkpt lat="43.64938" lon="3.35475">
        <ele>187.9</ele>
        <time>2026-05-17T11:48:13.000Z</time>
      </trkpt>
      <trkpt lat="43.64936" lon="3.35475">
        <ele>187.7</ele>
        <time>2026-05-17T11:48:14.000Z</time>
      </trkpt>
      <trkpt lat="43.64935" lon="3.35475">
        <ele>187.2</ele>
        <time>2026-05-17T11:48:15.000Z</time>
      </trkpt>
      <trkpt lat="43.64934" lon="3.35475">
        <ele>186.8</ele>
        <time>2026-05-17T11:48:16.000Z</time>
      </trkpt>
      <trkpt lat="43.64934" lon="3.35474">
        <ele>186.3</ele>
        <time>2026-05-17T11:48:17.000Z</time>
      </trkpt>
      <trkpt lat="43.64934" lon="3.35474">
        <ele>185.7</ele>
        <time>2026-05-17T11:48:18.000Z</time>
      </trkpt>
      <trkpt lat="43.64933" lon="3.35474">
        <ele>184.9</ele>
        <time>2026-05-17T11:48:19.000Z</time>
      </trkpt>
      <trkpt lat="43.64932" lon="3.35472">
        <ele>184.8</ele>
        <time>2026-05-17T11:48:20.000Z</time>
      </trkpt>
      <trkpt lat="43.64931" lon="3.35471">
        <ele>184.4</ele>
        <time>2026-05-17T11:48:21.000Z</time>
      </trkpt>
      <trkpt lat="43.6493" lon="3.35469">
        <ele>184.7</ele>
        <time>2026-05-17T11:48:22.000Z</time>
      </trkpt>
      <trkpt lat="43.64928" lon="3.35467">
        <ele>184.6</ele>
        <time>2026-05-17T11:48:23.000Z</time>
      </trkpt>
      <trkpt lat="43.64927" lon="3.35465">
        <ele>184.8</ele>
        <time>2026-05-17T11:48:24.000Z</time>
      </trkpt>
      <trkpt lat="43.64927" lon="3.35464">
        <ele>184.6</ele>
        <time>2026-05-17T11:48:25.000Z</time>
      </trkpt>
      <trkpt lat="43.64926" lon="3.35463">
        <ele>184</ele>
        <time>2026-05-17T11:48:26.000Z</time>
      </trkpt>
      <trkpt lat="43.64926" lon="3.35461">
        <ele>183.5</ele>
        <time>2026-05-17T11:48:27.000Z</time>
      </trkpt>
      <trkpt lat="43.64926" lon="3.3546">
        <ele>183.6</ele>
        <time>2026-05-17T11:48:28.000Z</time>
      </trkpt>
      <trkpt lat="43.64926" lon="3.35459">
        <ele>184.4</ele>
        <time>2026-05-17T11:48:29.000Z</time>
      </trkpt>
      <trkpt lat="43.64926" lon="3.35458">
        <ele>184.8</ele>
        <time>2026-05-17T11:48:30.000Z</time>
      </trkpt>
      <trkpt lat="43.64925" lon="3.35457">
        <ele>184.8</ele>
        <time>2026-05-17T11:48:31.000Z</time>
      </trkpt>
      <trkpt lat="43.64923" lon="3.35455">
        <ele>184.7</ele>
        <time>2026-05-17T11:48:32.999Z</time>
      </trkpt>
      <trkpt lat="43.64921" lon="3.35454">
        <ele>184.7</ele>
        <time>2026-05-17T11:48:33.999Z</time>
      </trkpt>
      <trkpt lat="43.64921" lon="3.35452">
        <ele>184.6</ele>
        <time>2026-05-17T11:48:34.999Z</time>
      </trkpt>
      <trkpt lat="43.6492" lon="3.3545">
        <ele>184.5</ele>
        <time>2026-05-17T11:48:35.999Z</time>
      </trkpt>
      <trkpt lat="43.64919" lon="3.35449">
        <ele>184.2</ele>
        <time>2026-05-17T11:48:36.999Z</time>
      </trkpt>
      <trkpt lat="43.64919" lon="3.35448">
        <ele>184</ele>
        <time>2026-05-17T11:48:37.999Z</time>
      </trkpt>
      <trkpt lat="43.64918" lon="3.35445">
        <ele>183.4</ele>
        <time>2026-05-17T11:48:38.999Z</time>
      </trkpt>
      <trkpt lat="43.64918" lon="3.35444">
        <ele>183.7</ele>
        <time>2026-05-17T11:48:39.999Z</time>
      </trkpt>
      <trkpt lat="43.64917" lon="3.35442">
        <ele>184</ele>
        <time>2026-05-17T11:48:40.999Z</time>
      </trkpt>
      <trkpt lat="43.64915" lon="3.35441">
        <ele>184.2</ele>
        <time>2026-05-17T11:48:41.999Z</time>
      </trkpt>
      <trkpt lat="43.64915" lon="3.35441">
        <ele>184.5</ele>
        <time>2026-05-17T11:48:42.999Z</time>
      </trkpt>
      <trkpt lat="43.64914" lon="3.3544">
        <ele>184.7</ele>
        <time>2026-05-17T11:48:43.999Z</time>
      </trkpt>
      <trkpt lat="43.64913" lon="3.35439">
        <ele>185.1</ele>
        <time>2026-05-17T11:48:44.999Z</time>
      </trkpt>
      <trkpt lat="43.64912" lon="3.35437">
        <ele>185.9</ele>
        <time>2026-05-17T11:48:45.999Z</time>
      </trkpt>
      <trkpt lat="43.6491" lon="3.35435">
        <ele>186.3</ele>
        <time>2026-05-17T11:48:46.999Z</time>
      </trkpt>
      <trkpt lat="43.6491" lon="3.35433">
        <ele>186.7</ele>
        <time>2026-05-17T11:48:47.999Z</time>
      </trkpt>
      <trkpt lat="43.64909" lon="3.35432">
        <ele>187.4</ele>
        <time>2026-05-17T11:48:48.999Z</time>
      </trkpt>
      <trkpt lat="43.64908" lon="3.3543">
        <ele>188.5</ele>
        <time>2026-05-17T11:48:49.999Z</time>
      </trkpt>
      <trkpt lat="43.64908" lon="3.35428">
        <ele>189.1</ele>
        <time>2026-05-17T11:48:50.999Z</time>
      </trkpt>
      <trkpt lat="43.64908" lon="3.35427">
        <ele>189.8</ele>
        <time>2026-05-17T11:48:51.999Z</time>
      </trkpt>
      <trkpt lat="43.64908" lon="3.35426">
        <ele>190.1</ele>
        <time>2026-05-17T11:48:52.999Z</time>
      </trkpt>
      <trkpt lat="43.64908" lon="3.35424">
        <ele>190.2</ele>
        <time>2026-05-17T11:48:53.999Z</time>
      </trkpt>
      <trkpt lat="43.64908" lon="3.35421">
        <ele>189.9</ele>
        <time>2026-05-17T11:48:54.999Z</time>
      </trkpt>
      <trkpt lat="43.64907" lon="3.35419">
        <ele>189.7</ele>
        <time>2026-05-17T11:48:55.999Z</time>
      </trkpt>
      <trkpt lat="43.64907" lon="3.35417">
        <ele>190.1</ele>
        <time>2026-05-17T11:48:56.999Z</time>
      </trkpt>
      <trkpt lat="43.64907" lon="3.35416">
        <ele>190.8</ele>
        <time>2026-05-17T11:48:57.999Z</time>
      </trkpt>
      <trkpt lat="43.64907" lon="3.35415">
        <ele>191.2</ele>
        <time>2026-05-17T11:48:58.999Z</time>
      </trkpt>
      <trkpt lat="43.64908" lon="3.35414">
        <ele>191.4</ele>
        <time>2026-05-17T11:48:59.999Z</time>
      </trkpt>
      <trkpt lat="43.64908" lon="3.35412">
        <ele>191.5</ele>
        <time>2026-05-17T11:49:00.999Z</time>
      </trkpt>
      <trkpt lat="43.64909" lon="3.3541">
        <ele>191.4</ele>
        <time>2026-05-17T11:49:01.999Z</time>
      </trkpt>
      <trkpt lat="43.6491" lon="3.35409">
        <ele>191.6</ele>
        <time>2026-05-17T11:49:02.999Z</time>
      </trkpt>
      <trkpt lat="43.64911" lon="3.35407">
        <ele>192.3</ele>
        <time>2026-05-17T11:49:03.999Z</time>
      </trkpt>
      <trkpt lat="43.64912" lon="3.35406">
        <ele>192.5</ele>
        <time>2026-05-17T11:49:04.999Z</time>
      </trkpt>
      <trkpt lat="43.64913" lon="3.35404">
        <ele>193.6</ele>
        <time>2026-05-17T11:49:05.999Z</time>
      </trkpt>
      <trkpt lat="43.64915" lon="3.35402">
        <ele>194</ele>
        <time>2026-05-17T11:49:06.999Z</time>
      </trkpt>
      <trkpt lat="43.64916" lon="3.35401">
        <ele>193.7</ele>
        <time>2026-05-17T11:49:07.999Z</time>
      </trkpt>
      <trkpt lat="43.64916" lon="3.354">
        <ele>193.9</ele>
        <time>2026-05-17T11:49:08.999Z</time>
      </trkpt>
      <trkpt lat="43.64916" lon="3.35399">
        <ele>194.2</ele>
        <time>2026-05-17T11:49:09.999Z</time>
      </trkpt>
      <trkpt lat="43.64917" lon="3.35398">
        <ele>194.8</ele>
        <time>2026-05-17T11:49:10.999Z</time>
      </trkpt>
      <trkpt lat="43.64917" lon="3.35397">
        <ele>195.3</ele>
        <time>2026-05-17T11:49:11.999Z</time>
      </trkpt>
      <trkpt lat="43.64918" lon="3.35395">
        <ele>195.8</ele>
        <time>2026-05-17T11:49:12.999Z</time>
      </trkpt>
      <trkpt lat="43.64919" lon="3.35394">
        <ele>196.2</ele>
        <time>2026-05-17T11:49:13.999Z</time>
      </trkpt>
      <trkpt lat="43.64921" lon="3.35393">
        <ele>196.3</ele>
        <time>2026-05-17T11:49:14.999Z</time>
      </trkpt>
      <trkpt lat="43.64922" lon="3.35392">
        <ele>196.1</ele>
        <time>2026-05-17T11:49:15.999Z</time>
      </trkpt>
      <trkpt lat="43.64924" lon="3.35391">
        <ele>196.4</ele>
        <time>2026-05-17T11:49:16.999Z</time>
      </trkpt>
      <trkpt lat="43.64925" lon="3.35391">
        <ele>196.1</ele>
        <time>2026-05-17T11:49:17.999Z</time>
      </trkpt>
      <trkpt lat="43.64926" lon="3.3539">
        <ele>196</ele>
        <time>2026-05-17T11:49:18.999Z</time>
      </trkpt>
      <trkpt lat="43.64926" lon="3.35389">
        <ele>195.6</ele>
        <time>2026-05-17T11:49:19.999Z</time>
      </trkpt>
      <trkpt lat="43.64927" lon="3.35389">
        <ele>195.6</ele>
        <time>2026-05-17T11:49:20.999Z</time>
      </trkpt>
      <trkpt lat="43.64928" lon="3.35387">
        <ele>195.5</ele>
        <time>2026-05-17T11:49:21.999Z</time>
      </trkpt>
      <trkpt lat="43.64928" lon="3.35385">
        <ele>195.9</ele>
        <time>2026-05-17T11:49:22.999Z</time>
      </trkpt>
      <trkpt lat="43.64928" lon="3.35383">
        <ele>196.3</ele>
        <time>2026-05-17T11:49:23.999Z</time>
      </trkpt>
      <trkpt lat="43.64929" lon="3.35381">
        <ele>196.6</ele>
        <time>2026-05-17T11:49:24.999Z</time>
      </trkpt>
      <trkpt lat="43.6493" lon="3.3538">
        <ele>196.7</ele>
        <time>2026-05-17T11:49:25.999Z</time>
      </trkpt>
      <trkpt lat="43.6493" lon="3.35377">
        <ele>196.9</ele>
        <time>2026-05-17T11:49:26.999Z</time>
      </trkpt>
      <trkpt lat="43.64931" lon="3.35376">
        <ele>196.9</ele>
        <time>2026-05-17T11:49:27.999Z</time>
      </trkpt>
      <trkpt lat="43.64932" lon="3.35374">
        <ele>197.2</ele>
        <time>2026-05-17T11:49:28.999Z</time>
      </trkpt>
      <trkpt lat="43.64933" lon="3.35373">
        <ele>197.3</ele>
        <time>2026-05-17T11:49:29.999Z</time>
      </trkpt>
      <trkpt lat="43.64933" lon="3.35371">
        <ele>197.2</ele>
        <time>2026-05-17T11:49:30.999Z</time>
      </trkpt>
      <trkpt lat="43.64934" lon="3.35369">
        <ele>197.1</ele>
        <time>2026-05-17T11:49:31.999Z</time>
      </trkpt>
      <trkpt lat="43.64934" lon="3.35367">
        <ele>197</ele>
        <time>2026-05-17T11:49:32.999Z</time>
      </trkpt>
      <trkpt lat="43.64934" lon="3.35365">
        <ele>196.9</ele>
        <time>2026-05-17T11:49:33.999Z</time>
      </trkpt>
      <trkpt lat="43.64934" lon="3.35364">
        <ele>196.7</ele>
        <time>2026-05-17T11:49:34.999Z</time>
      </trkpt>
      <trkpt lat="43.64935" lon="3.35362">
        <ele>196.6</ele>
        <time>2026-05-17T11:49:35.999Z</time>
      </trkpt>
      <trkpt lat="43.64936" lon="3.3536">
        <ele>196.2</ele>
        <time>2026-05-17T11:49:36.999Z</time>
      </trkpt>
      <trkpt lat="43.64936" lon="3.35358">
        <ele>196</ele>
        <time>2026-05-17T11:49:37.999Z</time>
      </trkpt>
      <trkpt lat="43.64938" lon="3.35354">
        <ele>195.9</ele>
        <time>2026-05-17T11:49:39.999Z</time>
      </trkpt>
      <trkpt lat="43.64938" lon="3.35352">
        <ele>195.8</ele>
        <time>2026-05-17T11:49:40.999Z</time>
      </trkpt>
      <trkpt lat="43.6494" lon="3.35351">
        <ele>196.1</ele>
        <time>2026-05-17T11:49:41.999Z</time>
      </trkpt>
      <trkpt lat="43.64942" lon="3.35349">
        <ele>197.4</ele>
        <time>2026-05-17T11:49:42.999Z</time>
      </trkpt>
      <trkpt lat="43.64945" lon="3.3535">
        <ele>197.4</ele>
        <time>2026-05-17T11:49:43.999Z</time>
      </trkpt>
      <trkpt lat="43.64947" lon="3.35348">
        <ele>197.9</ele>
        <time>2026-05-17T11:49:44.999Z</time>
      </trkpt>
      <trkpt lat="43.64947" lon="3.35347">
        <ele>196.5</ele>
        <time>2026-05-17T11:49:45.999Z</time>
      </trkpt>
      <trkpt lat="43.64946" lon="3.35346">
        <ele>195.8</ele>
        <time>2026-05-17T11:49:46.999Z</time>
      </trkpt>
      <trkpt lat="43.64945" lon="3.35345">
        <ele>195</ele>
        <time>2026-05-17T11:49:47.999Z</time>
      </trkpt>
      <trkpt lat="43.64944" lon="3.35343">
        <ele>194.3</ele>
        <time>2026-05-17T11:49:48.999Z</time>
      </trkpt>
      <trkpt lat="43.64944" lon="3.35341">
        <ele>193.9</ele>
        <time>2026-05-17T11:49:49.999Z</time>
      </trkpt>
      <trkpt lat="43.64943" lon="3.35339">
        <ele>193.6</ele>
        <time>2026-05-17T11:49:50.999Z</time>
      </trkpt>
      <trkpt lat="43.64943" lon="3.35338">
        <ele>192.9</ele>
        <time>2026-05-17T11:49:51.999Z</time>
      </trkpt>
      <trkpt lat="43.64943" lon="3.35336">
        <ele>192.5</ele>
        <time>2026-05-17T11:49:52.999Z</time>
      </trkpt>
      <trkpt lat="43.64942" lon="3.35335">
        <ele>192.2</ele>
        <time>2026-05-17T11:49:53.999Z</time>
      </trkpt>
      <trkpt lat="43.64942" lon="3.35335">
        <ele>192</ele>
        <time>2026-05-17T11:49:54.999Z</time>
      </trkpt>
      <trkpt lat="43.64941" lon="3.35334">
        <ele>192.2</ele>
        <time>2026-05-17T11:49:55.999Z</time>
      </trkpt>
      <trkpt lat="43.6494" lon="3.35332">
        <ele>191.8</ele>
        <time>2026-05-17T11:49:56.999Z</time>
      </trkpt>
      <trkpt lat="43.64939" lon="3.3533">
        <ele>191.6</ele>
        <time>2026-05-17T11:49:57.999Z</time>
      </trkpt>
      <trkpt lat="43.64937" lon="3.35328">
        <ele>191</ele>
        <time>2026-05-17T11:49:58.999Z</time>
      </trkpt>
      <trkpt lat="43.64936" lon="3.35326">
        <ele>190.5</ele>
        <time>2026-05-17T11:49:59.999Z</time>
      </trkpt>
      <trkpt lat="43.64936" lon="3.35324">
        <ele>190.3</ele>
        <time>2026-05-17T11:50:00.999Z</time>
      </trkpt>
      <trkpt lat="43.64935" lon="3.35322">
        <ele>190.1</ele>
        <time>2026-05-17T11:50:01.999Z</time>
      </trkpt>
      <trkpt lat="43.64934" lon="3.3532">
        <ele>190.1</ele>
        <time>2026-05-17T11:50:02.999Z</time>
      </trkpt>
      <trkpt lat="43.64933" lon="3.35319">
        <ele>189.9</ele>
        <time>2026-05-17T11:50:03.999Z</time>
      </trkpt>
      <trkpt lat="43.64932" lon="3.35317">
        <ele>189.7</ele>
        <time>2026-05-17T11:50:04.999Z</time>
      </trkpt>
      <trkpt lat="43.64932" lon="3.35316">
        <ele>189.5</ele>
        <time>2026-05-17T11:50:05.999Z</time>
      </trkpt>
      <trkpt lat="43.64931" lon="3.35315">
        <ele>189.8</ele>
        <time>2026-05-17T11:50:06.999Z</time>
      </trkpt>
      <trkpt lat="43.6493" lon="3.35313">
        <ele>189.9</ele>
        <time>2026-05-17T11:50:07.999Z</time>
      </trkpt>
      <trkpt lat="43.64929" lon="3.35311">
        <ele>189.8</ele>
        <time>2026-05-17T11:50:08.999Z</time>
      </trkpt>
      <trkpt lat="43.64927" lon="3.3531">
        <ele>189.7</ele>
        <time>2026-05-17T11:50:09.999Z</time>
      </trkpt>
      <trkpt lat="43.64926" lon="3.35309">
        <ele>189.9</ele>
        <time>2026-05-17T11:50:10.999Z</time>
      </trkpt>
      <trkpt lat="43.64925" lon="3.35308">
        <ele>189.6</ele>
        <time>2026-05-17T11:50:11.999Z</time>
      </trkpt>
      <trkpt lat="43.64925" lon="3.35307">
        <ele>189</ele>
        <time>2026-05-17T11:50:12.999Z</time>
      </trkpt>
      <trkpt lat="43.64924" lon="3.35306">
        <ele>189</ele>
        <time>2026-05-17T11:50:13.999Z</time>
      </trkpt>
      <trkpt lat="43.64924" lon="3.35305">
        <ele>188.4</ele>
        <time>2026-05-17T11:50:14.999Z</time>
      </trkpt>
      <trkpt lat="43.64923" lon="3.35304">
        <ele>188</ele>
        <time>2026-05-17T11:50:15.999Z</time>
      </trkpt>
      <trkpt lat="43.64923" lon="3.35303">
        <ele>188</ele>
        <time>2026-05-17T11:50:16.999Z</time>
      </trkpt>
      <trkpt lat="43.64922" lon="3.35301">
        <ele>187.9</ele>
        <time>2026-05-17T11:50:17.999Z</time>
      </trkpt>
      <trkpt lat="43.64921" lon="3.35301">
        <ele>187.5</ele>
        <time>2026-05-17T11:50:18.999Z</time>
      </trkpt>
      <trkpt lat="43.6492" lon="3.353">
        <ele>187.4</ele>
        <time>2026-05-17T11:50:19.999Z</time>
      </trkpt>
      <trkpt lat="43.64919" lon="3.35297">
        <ele>187.5</ele>
        <time>2026-05-17T11:50:20.999Z</time>
      </trkpt>
      <trkpt lat="43.64918" lon="3.35295">
        <ele>187.6</ele>
        <time>2026-05-17T11:50:21.999Z</time>
      </trkpt>
      <trkpt lat="43.64916" lon="3.35293">
        <ele>187.5</ele>
        <time>2026-05-17T11:50:22.999Z</time>
      </trkpt>
      <trkpt lat="43.64915" lon="3.35292">
        <ele>187.3</ele>
        <time>2026-05-17T11:50:23.999Z</time>
      </trkpt>
      <trkpt lat="43.64915" lon="3.35291">
        <ele>186.7</ele>
        <time>2026-05-17T11:50:24.999Z</time>
      </trkpt>
      <trkpt lat="43.64914" lon="3.3529">
        <ele>186.8</ele>
        <time>2026-05-17T11:50:25.999Z</time>
      </trkpt>
      <trkpt lat="43.64914" lon="3.35288">
        <ele>187.2</ele>
        <time>2026-05-17T11:50:26.999Z</time>
      </trkpt>
      <trkpt lat="43.64913" lon="3.35287">
        <ele>187.7</ele>
        <time>2026-05-17T11:50:27.999Z</time>
      </trkpt>
      <trkpt lat="43.64913" lon="3.35285">
        <ele>188.1</ele>
        <time>2026-05-17T11:50:28.999Z</time>
      </trkpt>
      <trkpt lat="43.64912" lon="3.35284">
        <ele>188.2</ele>
        <time>2026-05-17T11:50:29.999Z</time>
      </trkpt>
      <trkpt lat="43.64912" lon="3.35282">
        <ele>188</ele>
        <time>2026-05-17T11:50:30.999Z</time>
      </trkpt>
      <trkpt lat="43.64911" lon="3.3528">
        <ele>188.1</ele>
        <time>2026-05-17T11:50:31.999Z</time>
      </trkpt>
      <trkpt lat="43.64912" lon="3.35279">
        <ele>188.1</ele>
        <time>2026-05-17T11:50:32.999Z</time>
      </trkpt>
      <trkpt lat="43.64913" lon="3.35277">
        <ele>188.4</ele>
        <time>2026-05-17T11:50:33.999Z</time>
      </trkpt>
      <trkpt lat="43.64914" lon="3.35275">
        <ele>188</ele>
        <time>2026-05-17T11:50:34.999Z</time>
      </trkpt>
      <trkpt lat="43.64914" lon="3.35273">
        <ele>187.5</ele>
        <time>2026-05-17T11:50:35.999Z</time>
      </trkpt>
      <trkpt lat="43.64914" lon="3.35272">
        <ele>187.2</ele>
        <time>2026-05-17T11:50:36.999Z</time>
      </trkpt>
      <trkpt lat="43.64914" lon="3.3527">
        <ele>187.4</ele>
        <time>2026-05-17T11:50:37.999Z</time>
      </trkpt>
      <trkpt lat="43.64914" lon="3.35269">
        <ele>187.6</ele>
        <time>2026-05-17T11:50:38.999Z</time>
      </trkpt>
      <trkpt lat="43.64914" lon="3.35267">
        <ele>188.5</ele>
        <time>2026-05-17T11:50:39.999Z</time>
      </trkpt>
      <trkpt lat="43.64913" lon="3.35265">
        <ele>188.6</ele>
        <time>2026-05-17T11:50:40.999Z</time>
      </trkpt>
      <trkpt lat="43.64914" lon="3.35263">
        <ele>188.8</ele>
        <time>2026-05-17T11:50:41.999Z</time>
      </trkpt>
      <trkpt lat="43.64914" lon="3.35261">
        <ele>189.1</ele>
        <time>2026-05-17T11:50:42.999Z</time>
      </trkpt>
      <trkpt lat="43.64914" lon="3.35258">
        <ele>189.5</ele>
        <time>2026-05-17T11:50:43.999Z</time>
      </trkpt>
      <trkpt lat="43.64914" lon="3.35256">
        <ele>189.6</ele>
        <time>2026-05-17T11:50:44.999Z</time>
      </trkpt>
      <trkpt lat="43.64915" lon="3.35255">
        <ele>190</ele>
        <time>2026-05-17T11:50:45.999Z</time>
      </trkpt>
      <trkpt lat="43.64916" lon="3.35253">
        <ele>190.4</ele>
        <time>2026-05-17T11:50:46.999Z</time>
      </trkpt>
      <trkpt lat="43.64917" lon="3.35251">
        <ele>190.4</ele>
        <time>2026-05-17T11:50:47.999Z</time>
      </trkpt>
      <trkpt lat="43.64917" lon="3.3525">
        <ele>190.6</ele>
        <time>2026-05-17T11:50:48.999Z</time>
      </trkpt>
      <trkpt lat="43.64917" lon="3.35248">
        <ele>190.9</ele>
        <time>2026-05-17T11:50:49.999Z</time>
      </trkpt>
      <trkpt lat="43.64918" lon="3.35247">
        <ele>190.9</ele>
        <time>2026-05-17T11:50:50.999Z</time>
      </trkpt>
      <trkpt lat="43.64919" lon="3.35245">
        <ele>190.9</ele>
        <time>2026-05-17T11:50:51.999Z</time>
      </trkpt>
      <trkpt lat="43.6492" lon="3.35244">
        <ele>190.9</ele>
        <time>2026-05-17T11:50:52.999Z</time>
      </trkpt>
      <trkpt lat="43.64921" lon="3.35242">
        <ele>190.7</ele>
        <time>2026-05-17T11:50:53.999Z</time>
      </trkpt>
      <trkpt lat="43.64921" lon="3.35241">
        <ele>190.5</ele>
        <time>2026-05-17T11:50:54.999Z</time>
      </trkpt>
      <trkpt lat="43.64922" lon="3.35239">
        <ele>190.4</ele>
        <time>2026-05-17T11:50:55.999Z</time>
      </trkpt>
      <trkpt lat="43.64922" lon="3.35236">
        <ele>190.6</ele>
        <time>2026-05-17T11:50:56.999Z</time>
      </trkpt>
      <trkpt lat="43.64923" lon="3.35234">
        <ele>190.4</ele>
        <time>2026-05-17T11:50:57.999Z</time>
      </trkpt>
      <trkpt lat="43.64922" lon="3.35231">
        <ele>190.2</ele>
        <time>2026-05-17T11:50:58.999Z</time>
      </trkpt>
      <trkpt lat="43.64922" lon="3.35229">
        <ele>190</ele>
        <time>2026-05-17T11:50:59.999Z</time>
      </trkpt>
      <trkpt lat="43.64922" lon="3.35228">
        <ele>190.2</ele>
        <time>2026-05-17T11:51:00.999Z</time>
      </trkpt>
      <trkpt lat="43.64921" lon="3.35227">
        <ele>190.3</ele>
        <time>2026-05-17T11:51:01.999Z</time>
      </trkpt>
      <trkpt lat="43.64922" lon="3.35226">
        <ele>190.4</ele>
        <time>2026-05-17T11:51:02.999Z</time>
      </trkpt>
      <trkpt lat="43.64923" lon="3.35225">
        <ele>190.4</ele>
        <time>2026-05-17T11:51:03.999Z</time>
      </trkpt>
      <trkpt lat="43.64923" lon="3.35223">
        <ele>190.1</ele>
        <time>2026-05-17T11:51:04.999Z</time>
      </trkpt>
      <trkpt lat="43.64922" lon="3.35221">
        <ele>190.2</ele>
        <time>2026-05-17T11:51:05.999Z</time>
      </trkpt>
      <trkpt lat="43.64923" lon="3.35219">
        <ele>190.1</ele>
        <time>2026-05-17T11:51:06.999Z</time>
      </trkpt>
      <trkpt lat="43.64923" lon="3.35217">
        <ele>189.9</ele>
        <time>2026-05-17T11:51:07.999Z</time>
      </trkpt>
      <trkpt lat="43.64923" lon="3.35216">
        <ele>189.9</ele>
        <time>2026-05-17T11:51:08.999Z</time>
      </trkpt>
      <trkpt lat="43.64924" lon="3.35215">
        <ele>189.5</ele>
        <time>2026-05-17T11:51:09.999Z</time>
      </trkpt>
      <trkpt lat="43.64924" lon="3.35213">
        <ele>189.3</ele>
        <time>2026-05-17T11:51:10.999Z</time>
      </trkpt>
      <trkpt lat="43.64925" lon="3.35211">
        <ele>189.1</ele>
        <time>2026-05-17T11:51:11.999Z</time>
      </trkpt>
      <trkpt lat="43.64924" lon="3.3521">
        <ele>189</ele>
        <time>2026-05-17T11:51:12.999Z</time>
      </trkpt>
      <trkpt lat="43.64923" lon="3.35208">
        <ele>189</ele>
        <time>2026-05-17T11:51:13.999Z</time>
      </trkpt>
      <trkpt lat="43.64923" lon="3.35206">
        <ele>188.9</ele>
        <time>2026-05-17T11:51:14.999Z</time>
      </trkpt>
      <trkpt lat="43.64923" lon="3.35203">
        <ele>188.9</ele>
        <time>2026-05-17T11:51:15.999Z</time>
      </trkpt>
      <trkpt lat="43.64923" lon="3.352">
        <ele>189</ele>
        <time>2026-05-17T11:51:16.999Z</time>
      </trkpt>
      <trkpt lat="43.64924" lon="3.35198">
        <ele>188.9</ele>
        <time>2026-05-17T11:51:17.999Z</time>
      </trkpt>
      <trkpt lat="43.64924" lon="3.35198">
        <ele>188.5</ele>
        <time>2026-05-17T11:51:18.999Z</time>
      </trkpt>
      <trkpt lat="43.64924" lon="3.35197">
        <ele>188</ele>
        <time>2026-05-17T11:51:19.999Z</time>
      </trkpt>
      <trkpt lat="43.64923" lon="3.35196">
        <ele>187.8</ele>
        <time>2026-05-17T11:51:20.999Z</time>
      </trkpt>
      <trkpt lat="43.64922" lon="3.35194">
        <ele>187.3</ele>
        <time>2026-05-17T11:51:21.999Z</time>
      </trkpt>
      <trkpt lat="43.64921" lon="3.35192">
        <ele>186.9</ele>
        <time>2026-05-17T11:51:22.999Z</time>
      </trkpt>
      <trkpt lat="43.64919" lon="3.3519">
        <ele>186.6</ele>
        <time>2026-05-17T11:51:23.999Z</time>
      </trkpt>
      <trkpt lat="43.64918" lon="3.35189">
        <ele>186.9</ele>
        <time>2026-05-17T11:51:24.999Z</time>
      </trkpt>
      <trkpt lat="43.64917" lon="3.35188">
        <ele>187</ele>
        <time>2026-05-17T11:51:25.999Z</time>
      </trkpt>
      <trkpt lat="43.64916" lon="3.35186">
        <ele>187.1</ele>
        <time>2026-05-17T11:51:26.999Z</time>
      </trkpt>
      <trkpt lat="43.64916" lon="3.35186">
        <ele>187</ele>
        <time>2026-05-17T11:51:27.999Z</time>
      </trkpt>
      <trkpt lat="43.64915" lon="3.35184">
        <ele>187.1</ele>
        <time>2026-05-17T11:51:28.999Z</time>
      </trkpt>
      <trkpt lat="43.64914" lon="3.35184">
        <ele>187.2</ele>
        <time>2026-05-17T11:51:29.999Z</time>
      </trkpt>
      <trkpt lat="43.64913" lon="3.35184">
        <ele>187.1</ele>
        <time>2026-05-17T11:51:30.999Z</time>
      </trkpt>
      <trkpt lat="43.64912" lon="3.35183">
        <ele>187.1</ele>
        <time>2026-05-17T11:51:31.999Z</time>
      </trkpt>
      <trkpt lat="43.6491" lon="3.35182">
        <ele>187.1</ele>
        <time>2026-05-17T11:51:32.999Z</time>
      </trkpt>
      <trkpt lat="43.64909" lon="3.35181">
        <ele>187.3</ele>
        <time>2026-05-17T11:51:33.999Z</time>
      </trkpt>
      <trkpt lat="43.64906" lon="3.35181">
        <ele>187.6</ele>
        <time>2026-05-17T11:51:34.999Z</time>
      </trkpt>
      <trkpt lat="43.64905" lon="3.3518">
        <ele>187.9</ele>
        <time>2026-05-17T11:51:35.999Z</time>
      </trkpt>
      <trkpt lat="43.64903" lon="3.35179">
        <ele>188.2</ele>
        <time>2026-05-17T11:51:36.999Z</time>
      </trkpt>
      <trkpt lat="43.64903" lon="3.35178">
        <ele>188.3</ele>
        <time>2026-05-17T11:51:37.999Z</time>
      </trkpt>
      <trkpt lat="43.64902" lon="3.35178">
        <ele>188.1</ele>
        <time>2026-05-17T11:51:38.999Z</time>
      </trkpt>
      <trkpt lat="43.64901" lon="3.35177">
        <ele>187.7</ele>
        <time>2026-05-17T11:51:39.999Z</time>
      </trkpt>
      <trkpt lat="43.649" lon="3.35178">
        <ele>187.8</ele>
        <time>2026-05-17T11:51:40.999Z</time>
      </trkpt>
      <trkpt lat="43.64899" lon="3.35177">
        <ele>187.8</ele>
        <time>2026-05-17T11:51:41.999Z</time>
      </trkpt>
      <trkpt lat="43.64897" lon="3.35177">
        <ele>187.6</ele>
        <time>2026-05-17T11:51:42.999Z</time>
      </trkpt>
      <trkpt lat="43.64895" lon="3.35177">
        <ele>187.5</ele>
        <time>2026-05-17T11:51:43.999Z</time>
      </trkpt>
      <trkpt lat="43.64894" lon="3.35177">
        <ele>187.7</ele>
        <time>2026-05-17T11:51:44.999Z</time>
      </trkpt>
      <trkpt lat="43.64893" lon="3.35177">
        <ele>187.7</ele>
        <time>2026-05-17T11:51:45.999Z</time>
      </trkpt>
      <trkpt lat="43.64893" lon="3.35176">
        <ele>187.9</ele>
        <time>2026-05-17T11:51:46.999Z</time>
      </trkpt>
      <trkpt lat="43.64892" lon="3.35176">
        <ele>187.8</ele>
        <time>2026-05-17T11:51:47.999Z</time>
      </trkpt>
      <trkpt lat="43.64891" lon="3.35174">
        <ele>187.6</ele>
        <time>2026-05-17T11:51:48.999Z</time>
      </trkpt>
      <trkpt lat="43.64891" lon="3.35173">
        <ele>187.4</ele>
        <time>2026-05-17T11:51:49.999Z</time>
      </trkpt>
      <trkpt lat="43.6489" lon="3.35173">
        <ele>187.1</ele>
        <time>2026-05-17T11:51:50.999Z</time>
      </trkpt>
      <trkpt lat="43.64889" lon="3.35172">
        <ele>186.7</ele>
        <time>2026-05-17T11:51:51.999Z</time>
      </trkpt>
      <trkpt lat="43.64888" lon="3.35172">
        <ele>186.7</ele>
        <time>2026-05-17T11:51:52.999Z</time>
      </trkpt>
      <trkpt lat="43.64887" lon="3.3517">
        <ele>186.8</ele>
        <time>2026-05-17T11:51:53.999Z</time>
      </trkpt>
      <trkpt lat="43.64886" lon="3.35169">
        <ele>186.9</ele>
        <time>2026-05-17T11:51:54.999Z</time>
      </trkpt>
      <trkpt lat="43.64885" lon="3.35168">
        <ele>187.1</ele>
        <time>2026-05-17T11:51:55.999Z</time>
      </trkpt>
      <trkpt lat="43.64884" lon="3.35168">
        <ele>186.9</ele>
        <time>2026-05-17T11:51:56.999Z</time>
      </trkpt>
      <trkpt lat="43.64882" lon="3.35167">
        <ele>186.9</ele>
        <time>2026-05-17T11:51:57.999Z</time>
      </trkpt>
      <trkpt lat="43.64881" lon="3.35165">
        <ele>187</ele>
        <time>2026-05-17T11:51:58.999Z</time>
      </trkpt>
      <trkpt lat="43.6488" lon="3.35163">
        <ele>186.4</ele>
        <time>2026-05-17T11:51:59.999Z</time>
      </trkpt>
      <trkpt lat="43.64879" lon="3.35161">
        <ele>185.8</ele>
        <time>2026-05-17T11:52:00.999Z</time>
      </trkpt>
      <trkpt lat="43.64878" lon="3.3516">
        <ele>185.5</ele>
        <time>2026-05-17T11:52:01.999Z</time>
      </trkpt>
      <trkpt lat="43.64877" lon="3.35158">
        <ele>185.3</ele>
        <time>2026-05-17T11:52:02.999Z</time>
      </trkpt>
      <trkpt lat="43.64876" lon="3.35156">
        <ele>185</ele>
        <time>2026-05-17T11:52:03.999Z</time>
      </trkpt>
      <trkpt lat="43.64876" lon="3.35155">
        <ele>184.9</ele>
        <time>2026-05-17T11:52:04.999Z</time>
      </trkpt>
      <trkpt lat="43.64875" lon="3.35154">
        <ele>185.4</ele>
        <time>2026-05-17T11:52:05.999Z</time>
      </trkpt>
      <trkpt lat="43.64873" lon="3.35153">
        <ele>186.2</ele>
        <time>2026-05-17T11:52:06.999Z</time>
      </trkpt>
      <trkpt lat="43.64872" lon="3.35151">
        <ele>186.3</ele>
        <time>2026-05-17T11:52:07.999Z</time>
      </trkpt>
      <trkpt lat="43.64871" lon="3.35149">
        <ele>186.1</ele>
        <time>2026-05-17T11:52:08.999Z</time>
      </trkpt>
      <trkpt lat="43.6487" lon="3.35148">
        <ele>186.3</ele>
        <time>2026-05-17T11:52:09.999Z</time>
      </trkpt>
      <trkpt lat="43.64869" lon="3.35146">
        <ele>186.8</ele>
        <time>2026-05-17T11:52:10.999Z</time>
      </trkpt>
      <trkpt lat="43.64868" lon="3.35144">
        <ele>187.4</ele>
        <time>2026-05-17T11:52:11.999Z</time>
      </trkpt>
      <trkpt lat="43.64868" lon="3.35142">
        <ele>187.9</ele>
        <time>2026-05-17T11:52:12.999Z</time>
      </trkpt>
      <trkpt lat="43.64868" lon="3.35141">
        <ele>188.5</ele>
        <time>2026-05-17T11:52:13.999Z</time>
      </trkpt>
      <trkpt lat="43.64868" lon="3.35139">
        <ele>188.8</ele>
        <time>2026-05-17T11:52:14.999Z</time>
      </trkpt>
      <trkpt lat="43.64868" lon="3.35138">
        <ele>188.7</ele>
        <time>2026-05-17T11:52:15.999Z</time>
      </trkpt>
      <trkpt lat="43.64868" lon="3.35137">
        <ele>188.9</ele>
        <time>2026-05-17T11:52:16.999Z</time>
      </trkpt>
      <trkpt lat="43.64867" lon="3.35135">
        <ele>189.3</ele>
        <time>2026-05-17T11:52:17.999Z</time>
      </trkpt>
      <trkpt lat="43.64866" lon="3.35133">
        <ele>189.5</ele>
        <time>2026-05-17T11:52:18.999Z</time>
      </trkpt>
      <trkpt lat="43.64866" lon="3.35131">
        <ele>189.3</ele>
        <time>2026-05-17T11:52:19.999Z</time>
      </trkpt>
      <trkpt lat="43.64865" lon="3.35129">
        <ele>189.2</ele>
        <time>2026-05-17T11:52:20.999Z</time>
      </trkpt>
      <trkpt lat="43.64865" lon="3.35127">
        <ele>189.1</ele>
        <time>2026-05-17T11:52:21.999Z</time>
      </trkpt>
      <trkpt lat="43.64865" lon="3.35125">
        <ele>189.2</ele>
        <time>2026-05-17T11:52:22.999Z</time>
      </trkpt>
      <trkpt lat="43.64865" lon="3.35123">
        <ele>189.3</ele>
        <time>2026-05-17T11:52:23.999Z</time>
      </trkpt>
      <trkpt lat="43.64864" lon="3.35122">
        <ele>189.4</ele>
        <time>2026-05-17T11:52:24.999Z</time>
      </trkpt>
      <trkpt lat="43.64864" lon="3.35121">
        <ele>189.9</ele>
        <time>2026-05-17T11:52:25.999Z</time>
      </trkpt>
      <trkpt lat="43.64864" lon="3.35119">
        <ele>190.3</ele>
        <time>2026-05-17T11:52:26.999Z</time>
      </trkpt>
      <trkpt lat="43.64863" lon="3.35118">
        <ele>190.5</ele>
        <time>2026-05-17T11:52:27.999Z</time>
      </trkpt>
      <trkpt lat="43.64863" lon="3.35116">
        <ele>190.8</ele>
        <time>2026-05-17T11:52:28.999Z</time>
      </trkpt>
      <trkpt lat="43.64863" lon="3.35113">
        <ele>191.4</ele>
        <time>2026-05-17T11:52:29.999Z</time>
      </trkpt>
      <trkpt lat="43.64863" lon="3.35111">
        <ele>192</ele>
        <time>2026-05-17T11:52:30.999Z</time>
      </trkpt>
      <trkpt lat="43.64863" lon="3.35109">
        <ele>192.4</ele>
        <time>2026-05-17T11:52:31.999Z</time>
      </trkpt>
      <trkpt lat="43.64864" lon="3.35107">
        <ele>192.5</ele>
        <time>2026-05-17T11:52:32.999Z</time>
      </trkpt>
      <trkpt lat="43.64864" lon="3.35106">
        <ele>192.6</ele>
        <time>2026-05-17T11:52:33.999Z</time>
      </trkpt>
      <trkpt lat="43.64864" lon="3.35104">
        <ele>192.7</ele>
        <time>2026-05-17T11:52:34.999Z</time>
      </trkpt>
      <trkpt lat="43.64865" lon="3.35103">
        <ele>192.4</ele>
        <time>2026-05-17T11:52:35.999Z</time>
      </trkpt>
      <trkpt lat="43.64865" lon="3.35102">
        <ele>192.2</ele>
        <time>2026-05-17T11:52:36.999Z</time>
      </trkpt>
      <trkpt lat="43.64866" lon="3.35101">
        <ele>192</ele>
        <time>2026-05-17T11:52:37.999Z</time>
      </trkpt>
      <trkpt lat="43.64866" lon="3.35099">
        <ele>191.7</ele>
        <time>2026-05-17T11:52:38.999Z</time>
      </trkpt>
      <trkpt lat="43.64867" lon="3.35097">
        <ele>191.5</ele>
        <time>2026-05-17T11:52:39.999Z</time>
      </trkpt>
      <trkpt lat="43.64867" lon="3.35095">
        <ele>191.6</ele>
        <time>2026-05-17T11:52:40.999Z</time>
      </trkpt>
      <trkpt lat="43.64868" lon="3.35093">
        <ele>191.5</ele>
        <time>2026-05-17T11:52:41.999Z</time>
      </trkpt>
      <trkpt lat="43.64869" lon="3.35091">
        <ele>191.5</ele>
        <time>2026-05-17T11:52:42.999Z</time>
      </trkpt>
      <trkpt lat="43.64869" lon="3.3509">
        <ele>191.2</ele>
        <time>2026-05-17T11:52:43.999Z</time>
      </trkpt>
      <trkpt lat="43.6487" lon="3.35089">
        <ele>191</ele>
        <time>2026-05-17T11:52:44.999Z</time>
      </trkpt>
      <trkpt lat="43.64871" lon="3.35088">
        <ele>190.7</ele>
        <time>2026-05-17T11:52:45.999Z</time>
      </trkpt>
      <trkpt lat="43.64871" lon="3.35087">
        <ele>190.7</ele>
        <time>2026-05-17T11:52:46.999Z</time>
      </trkpt>
      <trkpt lat="43.64871" lon="3.35084">
        <ele>190.9</ele>
        <time>2026-05-17T11:52:47.999Z</time>
      </trkpt>
      <trkpt lat="43.64871" lon="3.35082">
        <ele>190.5</ele>
        <time>2026-05-17T11:52:48.999Z</time>
      </trkpt>
      <trkpt lat="43.64871" lon="3.35079">
        <ele>190.3</ele>
        <time>2026-05-17T11:52:49.999Z</time>
      </trkpt>
      <trkpt lat="43.64871" lon="3.35077">
        <ele>190.4</ele>
        <time>2026-05-17T11:52:50.999Z</time>
      </trkpt>
      <trkpt lat="43.6487" lon="3.35075">
        <ele>190</ele>
        <time>2026-05-17T11:52:51.999Z</time>
      </trkpt>
      <trkpt lat="43.6487" lon="3.35073">
        <ele>189.8</ele>
        <time>2026-05-17T11:52:52.999Z</time>
      </trkpt>
      <trkpt lat="43.64869" lon="3.35072">
        <ele>189.3</ele>
        <time>2026-05-17T11:52:53.999Z</time>
      </trkpt>
      <trkpt lat="43.64869" lon="3.3507">
        <ele>189.3</ele>
        <time>2026-05-17T11:52:54.999Z</time>
      </trkpt>
      <trkpt lat="43.64868" lon="3.35069">
        <ele>189.3</ele>
        <time>2026-05-17T11:52:55.999Z</time>
      </trkpt>
      <trkpt lat="43.64868" lon="3.35066">
        <ele>190.1</ele>
        <time>2026-05-17T11:52:56.999Z</time>
      </trkpt>
      <trkpt lat="43.64868" lon="3.35065">
        <ele>190.9</ele>
        <time>2026-05-17T11:52:57.999Z</time>
      </trkpt>
      <trkpt lat="43.64868" lon="3.35063">
        <ele>191.3</ele>
        <time>2026-05-17T11:52:58.999Z</time>
      </trkpt>
      <trkpt lat="43.64867" lon="3.35061">
        <ele>191.1</ele>
        <time>2026-05-17T11:52:59.999Z</time>
      </trkpt>
      <trkpt lat="43.64867" lon="3.3506">
        <ele>190.9</ele>
        <time>2026-05-17T11:53:00.999Z</time>
      </trkpt>
      <trkpt lat="43.64867" lon="3.35058">
        <ele>190.7</ele>
        <time>2026-05-17T11:53:01.999Z</time>
      </trkpt>
      <trkpt lat="43.64866" lon="3.35056">
        <ele>190.9</ele>
        <time>2026-05-17T11:53:02.999Z</time>
      </trkpt>
      <trkpt lat="43.64865" lon="3.35054">
        <ele>190.9</ele>
        <time>2026-05-17T11:53:03.999Z</time>
      </trkpt>
      <trkpt lat="43.64864" lon="3.35052">
        <ele>191.1</ele>
        <time>2026-05-17T11:53:04.999Z</time>
      </trkpt>
      <trkpt lat="43.64864" lon="3.3505">
        <ele>191</ele>
        <time>2026-05-17T11:53:05.999Z</time>
      </trkpt>
      <trkpt lat="43.64863" lon="3.3505">
        <ele>190.8</ele>
        <time>2026-05-17T11:53:06.999Z</time>
      </trkpt>
      <trkpt lat="43.64862" lon="3.35049">
        <ele>190.8</ele>
        <time>2026-05-17T11:53:07.999Z</time>
      </trkpt>
      <trkpt lat="43.64862" lon="3.35049">
        <ele>191</ele>
        <time>2026-05-17T11:53:08.999Z</time>
      </trkpt>
      <trkpt lat="43.6486" lon="3.35049">
        <ele>190.8</ele>
        <time>2026-05-17T11:53:09.999Z</time>
      </trkpt>
      <trkpt lat="43.6486" lon="3.35048">
        <ele>190.5</ele>
        <time>2026-05-17T11:53:10.999Z</time>
      </trkpt>
      <trkpt lat="43.64859" lon="3.35048">
        <ele>190.7</ele>
        <time>2026-05-17T11:53:11.999Z</time>
      </trkpt>
      <trkpt lat="43.64857" lon="3.35047">
        <ele>190.9</ele>
        <time>2026-05-17T11:53:12.999Z</time>
      </trkpt>
      <trkpt lat="43.64857" lon="3.35046">
        <ele>190.8</ele>
        <time>2026-05-17T11:53:13.999Z</time>
      </trkpt>
      <trkpt lat="43.64855" lon="3.35045">
        <ele>191.1</ele>
        <time>2026-05-17T11:53:14.999Z</time>
      </trkpt>
      <trkpt lat="43.64854" lon="3.35044">
        <ele>191.5</ele>
        <time>2026-05-17T11:53:15.999Z</time>
      </trkpt>
      <trkpt lat="43.64853" lon="3.35044">
        <ele>191.9</ele>
        <time>2026-05-17T11:53:16.999Z</time>
      </trkpt>
      <trkpt lat="43.64852" lon="3.35043">
        <ele>192.1</ele>
        <time>2026-05-17T11:53:17.999Z</time>
      </trkpt>
      <trkpt lat="43.64851" lon="3.35042">
        <ele>192.3</ele>
        <time>2026-05-17T11:53:18.999Z</time>
      </trkpt>
      <trkpt lat="43.64851" lon="3.3504">
        <ele>192.3</ele>
        <time>2026-05-17T11:53:19.999Z</time>
      </trkpt>
      <trkpt lat="43.6485" lon="3.35039">
        <ele>192.6</ele>
        <time>2026-05-17T11:53:20.999Z</time>
      </trkpt>
      <trkpt lat="43.64849" lon="3.35039">
        <ele>192.9</ele>
        <time>2026-05-17T11:53:21.999Z</time>
      </trkpt>
      <trkpt lat="43.64847" lon="3.35038">
        <ele>193.3</ele>
        <time>2026-05-17T11:53:22.999Z</time>
      </trkpt>
      <trkpt lat="43.64846" lon="3.35036">
        <ele>193.9</ele>
        <time>2026-05-17T11:53:23.999Z</time>
      </trkpt>
      <trkpt lat="43.64846" lon="3.35035">
        <ele>193.7</ele>
        <time>2026-05-17T11:53:24.999Z</time>
      </trkpt>
      <trkpt lat="43.64847" lon="3.35034">
        <ele>193.8</ele>
        <time>2026-05-17T11:53:25.999Z</time>
      </trkpt>
      <trkpt lat="43.64848" lon="3.35035">
        <ele>193.3</ele>
        <time>2026-05-17T11:53:26.999Z</time>
      </trkpt>
      <trkpt lat="43.64849" lon="3.35035">
        <ele>192.8</ele>
        <time>2026-05-17T11:53:27.999Z</time>
      </trkpt>
      <trkpt lat="43.64849" lon="3.35035">
        <ele>191.5</ele>
        <time>2026-05-17T11:53:28.999Z</time>
      </trkpt>
      <trkpt lat="43.64849" lon="3.35035">
        <ele>190.8</ele>
        <time>2026-05-17T11:53:29.999Z</time>
      </trkpt>
      <trkpt lat="43.64849" lon="3.35035">
        <ele>190.4</ele>
        <time>2026-05-17T11:53:30.999Z</time>
      </trkpt>
      <trkpt lat="43.64849" lon="3.35035">
        <ele>190.3</ele>
        <time>2026-05-17T11:53:31.999Z</time>
      </trkpt>
      <trkpt lat="43.64849" lon="3.35035">
        <ele>190.2</ele>
        <time>2026-05-17T11:53:32.999Z</time>
      </trkpt>
      <trkpt lat="43.64849" lon="3.35035">
        <ele>190.3</ele>
        <time>2026-05-17T11:53:33.999Z</time>
      </trkpt>
      <trkpt lat="43.64849" lon="3.35035">
        <ele>190.4</ele>
        <time>2026-05-17T11:53:34.999Z</time>
      </trkpt>
      <trkpt lat="43.64849" lon="3.35035">
        <ele>190.4</ele>
        <time>2026-05-17T11:53:35.999Z</time>
      </trkpt>
      <trkpt lat="43.64849" lon="3.35035">
        <ele>190.5</ele>
        <time>2026-05-17T11:53:36.999Z</time>
      </trkpt>
      <trkpt lat="43.64849" lon="3.35035">
        <ele>190.7</ele>
        <time>2026-05-17T11:53:37.999Z</time>
      </trkpt>
      <trkpt lat="43.64849" lon="3.35035">
        <ele>190.7</ele>
        <time>2026-05-17T11:53:38.999Z</time>
      </trkpt>
      <trkpt lat="43.64849" lon="3.35035">
        <ele>190.7</ele>
        <time>2026-05-17T11:53:39.999Z</time>
      </trkpt>
      <trkpt lat="43.64849" lon="3.35035">
        <ele>190.7</ele>
        <time>2026-05-17T11:53:40.999Z</time>
      </trkpt>
      <trkpt lat="43.64849" lon="3.35034">
        <ele>190.9</ele>
        <time>2026-05-17T11:53:41.999Z</time>
      </trkpt>
      <trkpt lat="43.64849" lon="3.35033">
        <ele>190.9</ele>
        <time>2026-05-17T11:53:42.999Z</time>
      </trkpt>
      <trkpt lat="43.64849" lon="3.35033">
        <ele>190.7</ele>
        <time>2026-05-17T11:53:43.999Z</time>
      </trkpt>
      <trkpt lat="43.64849" lon="3.35033">
        <ele>190.5</ele>
        <time>2026-05-17T11:53:44.999Z</time>
      </trkpt>
      <trkpt lat="43.64849" lon="3.35033">
        <ele>190.5</ele>
        <time>2026-05-17T11:53:45.999Z</time>
      </trkpt>
      <trkpt lat="43.64849" lon="3.35033">
        <ele>190.6</ele>
        <time>2026-05-17T11:53:46.999Z</time>
      </trkpt>
      <trkpt lat="43.64849" lon="3.35033">
        <ele>190.6</ele>
        <time>2026-05-17T11:53:47.999Z</time>
      </trkpt>
      <trkpt lat="43.64849" lon="3.35033">
        <ele>190.8</ele>
        <time>2026-05-17T11:53:48.999Z</time>
      </trkpt>
      <trkpt lat="43.64849" lon="3.35033">
        <ele>190.8</ele>
        <time>2026-05-17T11:53:49.999Z</time>
      </trkpt>
      <trkpt lat="43.64849" lon="3.35033">
        <ele>190.9</ele>
        <time>2026-05-17T11:53:50.999Z</time>
      </trkpt>
      <trkpt lat="43.64849" lon="3.35033">
        <ele>190.7</ele>
        <time>2026-05-17T11:53:51.999Z</time>
      </trkpt>
      <trkpt lat="43.64849" lon="3.35033">
        <ele>190.5</ele>
        <time>2026-05-17T11:53:52.999Z</time>
      </trkpt>
      <trkpt lat="43.64849" lon="3.35033">
        <ele>190.4</ele>
        <time>2026-05-17T11:53:53.999Z</time>
      </trkpt>
      <trkpt lat="43.64849" lon="3.35033">
        <ele>190.6</ele>
        <time>2026-05-17T11:53:54.999Z</time>
      </trkpt>
      <trkpt lat="43.64849" lon="3.35033">
        <ele>190.5</ele>
        <time>2026-05-17T11:53:55.999Z</time>
      </trkpt>
      <trkpt lat="43.64849" lon="3.35033">
        <ele>190.4</ele>
        <time>2026-05-17T11:53:56.999Z</time>
      </trkpt>
      <trkpt lat="43.64849" lon="3.35033">
        <ele>190.3</ele>
        <time>2026-05-17T11:53:57.999Z</time>
      </trkpt>
      <trkpt lat="43.64849" lon="3.35033">
        <ele>190.2</ele>
        <time>2026-05-17T11:53:58.999Z</time>
      </trkpt>
      <trkpt lat="43.64849" lon="3.35033">
        <ele>189.9</ele>
        <time>2026-05-17T11:53:59.999Z</time>
      </trkpt>
      <trkpt lat="43.64849" lon="3.35033">
        <ele>189.9</ele>
        <time>2026-05-17T11:54:00.999Z</time>
      </trkpt>
      <trkpt lat="43.64849" lon="3.35033">
        <ele>189.6</ele>
        <time>2026-05-17T11:54:01.999Z</time>
      </trkpt>
      <trkpt lat="43.64849" lon="3.35033">
        <ele>189.6</ele>
        <time>2026-05-17T11:54:02.999Z</time>
      </trkpt>
      <trkpt lat="43.64849" lon="3.35034">
        <ele>189.5</ele>
        <time>2026-05-17T11:54:03.999Z</time>
      </trkpt>
      <trkpt lat="43.64849" lon="3.35034">
        <ele>189</ele>
        <time>2026-05-17T11:54:04.999Z</time>
      </trkpt>
      <trkpt lat="43.64849" lon="3.35034">
        <ele>188.9</ele>
        <time>2026-05-17T11:54:05.999Z</time>
      </trkpt>
      <trkpt lat="43.64849" lon="3.35034">
        <ele>188.8</ele>
        <time>2026-05-17T11:54:06.999Z</time>
      </trkpt>
      <trkpt lat="43.6485" lon="3.35034">
        <ele>188.7</ele>
        <time>2026-05-17T11:54:07.999Z</time>
      </trkpt>
      <trkpt lat="43.6485" lon="3.35034">
        <ele>188.6</ele>
        <time>2026-05-17T11:54:08.999Z</time>
      </trkpt>
      <trkpt lat="43.64849" lon="3.35034">
        <ele>188.5</ele>
        <time>2026-05-17T11:54:09.999Z</time>
      </trkpt>
      <trkpt lat="43.64849" lon="3.35034">
        <ele>188.4</ele>
        <time>2026-05-17T11:54:10.999Z</time>
      </trkpt>
      <trkpt lat="43.6485" lon="3.35034">
        <ele>188.2</ele>
        <time>2026-05-17T11:54:11.999Z</time>
      </trkpt>
      <trkpt lat="43.64849" lon="3.35034">
        <ele>188.2</ele>
        <time>2026-05-17T11:54:12.999Z</time>
      </trkpt>
      <trkpt lat="43.64849" lon="3.35034">
        <ele>188.3</ele>
        <time>2026-05-17T11:54:13.999Z</time>
      </trkpt>
      <trkpt lat="43.6485" lon="3.35033">
        <ele>188.6</ele>
        <time>2026-05-17T11:54:14.999Z</time>
      </trkpt>
      <trkpt lat="43.6485" lon="3.35033">
        <ele>189.1</ele>
        <time>2026-05-17T11:54:15.999Z</time>
      </trkpt>
      <trkpt lat="43.6485" lon="3.35033">
        <ele>188.8</ele>
        <time>2026-05-17T11:54:16.999Z</time>
      </trkpt>
      <trkpt lat="43.6485" lon="3.35033">
        <ele>188.8</ele>
        <time>2026-05-17T11:54:17.999Z</time>
      </trkpt>
      <trkpt lat="43.6485" lon="3.35033">
        <ele>188.8</ele>
        <time>2026-05-17T11:54:18.999Z</time>
      </trkpt>
      <trkpt lat="43.6485" lon="3.35033">
        <ele>188.7</ele>
        <time>2026-05-17T11:54:19.999Z</time>
      </trkpt>
      <trkpt lat="43.6485" lon="3.35033">
        <ele>188.7</ele>
        <time>2026-05-17T11:54:20.999Z</time>
      </trkpt>
      <trkpt lat="43.6485" lon="3.35033">
        <ele>188.6</ele>
        <time>2026-05-17T11:54:21.999Z</time>
      </trkpt>
      <trkpt lat="43.6485" lon="3.35033">
        <ele>188.2</ele>
        <time>2026-05-17T11:54:22.999Z</time>
      </trkpt>
      <trkpt lat="43.6485" lon="3.35033">
        <ele>188</ele>
        <time>2026-05-17T11:54:23.999Z</time>
      </trkpt>
      <trkpt lat="43.6485" lon="3.35033">
        <ele>187.6</ele>
        <time>2026-05-17T11:54:24.999Z</time>
      </trkpt>
      <trkpt lat="43.6485" lon="3.35034">
        <ele>187.4</ele>
        <time>2026-05-17T11:54:25.999Z</time>
      </trkpt>
      <trkpt lat="43.6485" lon="3.35034">
        <ele>187.1</ele>
        <time>2026-05-17T11:54:26.999Z</time>
      </trkpt>
      <trkpt lat="43.6485" lon="3.35034">
        <ele>187</ele>
        <time>2026-05-17T11:54:27.999Z</time>
      </trkpt>
      <trkpt lat="43.6485" lon="3.35034">
        <ele>186.8</ele>
        <time>2026-05-17T11:54:28.999Z</time>
      </trkpt>
      <trkpt lat="43.6485" lon="3.35034">
        <ele>186.6</ele>
        <time>2026-05-17T11:54:29.999Z</time>
      </trkpt>
      <trkpt lat="43.6485" lon="3.35034">
        <ele>186.4</ele>
        <time>2026-05-17T11:54:30.999Z</time>
      </trkpt>
      <trkpt lat="43.6485" lon="3.35034">
        <ele>186.3</ele>
        <time>2026-05-17T11:54:31.999Z</time>
      </trkpt>
      <trkpt lat="43.6485" lon="3.35034">
        <ele>185.8</ele>
        <time>2026-05-17T11:54:32.999Z</time>
      </trkpt>
      <trkpt lat="43.6485" lon="3.35034">
        <ele>185.8</ele>
        <time>2026-05-17T11:54:33.999Z</time>
      </trkpt>
      <trkpt lat="43.6485" lon="3.35034">
        <ele>185.8</ele>
        <time>2026-05-17T11:54:34.999Z</time>
      </trkpt>
      <trkpt lat="43.6485" lon="3.35034">
        <ele>185.6</ele>
        <time>2026-05-17T11:54:35.999Z</time>
      </trkpt>
      <trkpt lat="43.6485" lon="3.35034">
        <ele>185.5</ele>
        <time>2026-05-17T11:54:36.999Z</time>
      </trkpt>
      <trkpt lat="43.6485" lon="3.35034">
        <ele>185.5</ele>
        <time>2026-05-17T11:54:37.999Z</time>
      </trkpt>
      <trkpt lat="43.6485" lon="3.35034">
        <ele>185.6</ele>
        <time>2026-05-17T11:54:38.999Z</time>
      </trkpt>
      <trkpt lat="43.6485" lon="3.35034">
        <ele>185.8</ele>
        <time>2026-05-17T11:54:39.999Z</time>
      </trkpt>
      <trkpt lat="43.6485" lon="3.35034">
        <ele>185.8</ele>
        <time>2026-05-17T11:54:40.999Z</time>
      </trkpt>
      <trkpt lat="43.6485" lon="3.35034">
        <ele>185.9</ele>
        <time>2026-05-17T11:54:41.999Z</time>
      </trkpt>
      <trkpt lat="43.6485" lon="3.35034">
        <ele>185.9</ele>
        <time>2026-05-17T11:54:42.999Z</time>
      </trkpt>
      <trkpt lat="43.6485" lon="3.35034">
        <ele>185.8</ele>
        <time>2026-05-17T11:54:43.999Z</time>
      </trkpt>
      <trkpt lat="43.6485" lon="3.35034">
        <ele>185.5</ele>
        <time>2026-05-17T11:54:44.999Z</time>
      </trkpt>
      <trkpt lat="43.64851" lon="3.35034">
        <ele>185.4</ele>
        <time>2026-05-17T11:54:45.999Z</time>
      </trkpt>
      <trkpt lat="43.64851" lon="3.35034">
        <ele>185.5</ele>
        <time>2026-05-17T11:54:46.999Z</time>
      </trkpt>
      <trkpt lat="43.64851" lon="3.35034">
        <ele>185.7</ele>
        <time>2026-05-17T11:54:47.999Z</time>
      </trkpt>
      <trkpt lat="43.64851" lon="3.35034">
        <ele>185.6</ele>
        <time>2026-05-17T11:54:48.999Z</time>
      </trkpt>
      <trkpt lat="43.64851" lon="3.35034">
        <ele>185.7</ele>
        <time>2026-05-17T11:54:49.999Z</time>
      </trkpt>
      <trkpt lat="43.64851" lon="3.35034">
        <ele>185.6</ele>
        <time>2026-05-17T11:54:50.999Z</time>
      </trkpt>
      <trkpt lat="43.64851" lon="3.35034">
        <ele>185.6</ele>
        <time>2026-05-17T11:54:51.999Z</time>
      </trkpt>
      <trkpt lat="43.64851" lon="3.35034">
        <ele>185.6</ele>
        <time>2026-05-17T11:54:52.999Z</time>
      </trkpt>
      <trkpt lat="43.64851" lon="3.35034">
        <ele>185.5</ele>
        <time>2026-05-17T11:54:53.999Z</time>
      </trkpt>
      <trkpt lat="43.64851" lon="3.35034">
        <ele>185.5</ele>
        <time>2026-05-17T11:54:54.999Z</time>
      </trkpt>
      <trkpt lat="43.64851" lon="3.35034">
        <ele>185.4</ele>
        <time>2026-05-17T11:54:55.999Z</time>
      </trkpt>
      <trkpt lat="43.64851" lon="3.35034">
        <ele>185.4</ele>
        <time>2026-05-17T11:54:56.999Z</time>
      </trkpt>
      <trkpt lat="43.64851" lon="3.35034">
        <ele>185.4</ele>
        <time>2026-05-17T11:54:57.999Z</time>
      </trkpt>
      <trkpt lat="43.64851" lon="3.35034">
        <ele>185.3</ele>
        <time>2026-05-17T11:54:58.999Z</time>
      </trkpt>
      <trkpt lat="43.64851" lon="3.35034">
        <ele>185.3</ele>
        <time>2026-05-17T11:54:59.999Z</time>
      </trkpt>
      <trkpt lat="43.64851" lon="3.35034">
        <ele>185.2</ele>
        <time>2026-05-17T11:55:00.999Z</time>
      </trkpt>
      <trkpt lat="43.64851" lon="3.35034">
        <ele>184.9</ele>
        <time>2026-05-17T11:55:01.999Z</time>
      </trkpt>
      <trkpt lat="43.64851" lon="3.35034">
        <ele>184.7</ele>
        <time>2026-05-17T11:55:02.999Z</time>
      </trkpt>
      <trkpt lat="43.64851" lon="3.35034">
        <ele>184.5</ele>
        <time>2026-05-17T11:55:03.999Z</time>
      </trkpt>
      <trkpt lat="43.64851" lon="3.35034">
        <ele>184.4</ele>
        <time>2026-05-17T11:55:04.999Z</time>
      </trkpt>
      <trkpt lat="43.6485" lon="3.35034">
        <ele>184.3</ele>
        <time>2026-05-17T11:55:05.999Z</time>
      </trkpt>
      <trkpt lat="43.6485" lon="3.35034">
        <ele>184.2</ele>
        <time>2026-05-17T11:55:06.999Z</time>
      </trkpt>
      <trkpt lat="43.6485" lon="3.35034">
        <ele>184.2</ele>
        <time>2026-05-17T11:55:07.999Z</time>
      </trkpt>
      <trkpt lat="43.6485" lon="3.35034">
        <ele>184.2</ele>
        <time>2026-05-17T11:55:08.999Z</time>
      </trkpt>
      <trkpt lat="43.6485" lon="3.35034">
        <ele>184.3</ele>
        <time>2026-05-17T11:55:09.999Z</time>
      </trkpt>
      <trkpt lat="43.6485" lon="3.35034">
        <ele>184.4</ele>
        <time>2026-05-17T11:55:10.999Z</time>
      </trkpt>
      <trkpt lat="43.6485" lon="3.35034">
        <ele>184.4</ele>
        <time>2026-05-17T11:55:11.999Z</time>
      </trkpt>
      <trkpt lat="43.6485" lon="3.35034">
        <ele>184.4</ele>
        <time>2026-05-17T11:55:12.999Z</time>
      </trkpt>
      <trkpt lat="43.6485" lon="3.35034">
        <ele>184.4</ele>
        <time>2026-05-17T11:55:13.999Z</time>
      </trkpt>
      <trkpt lat="43.6485" lon="3.35034">
        <ele>184.2</ele>
        <time>2026-05-17T11:55:14.999Z</time>
      </trkpt>
      <trkpt lat="43.6485" lon="3.35034">
        <ele>184.2</ele>
        <time>2026-05-17T11:55:15.999Z</time>
      </trkpt>
      <trkpt lat="43.6485" lon="3.35034">
        <ele>184</ele>
        <time>2026-05-17T11:55:16.999Z</time>
      </trkpt>
      <trkpt lat="43.6485" lon="3.35034">
        <ele>184</ele>
        <time>2026-05-17T11:55:17.999Z</time>
      </trkpt>
      <trkpt lat="43.6485" lon="3.35034">
        <ele>184</ele>
        <time>2026-05-17T11:55:18.999Z</time>
      </trkpt>
      <trkpt lat="43.6485" lon="3.35034">
        <ele>183.9</ele>
        <time>2026-05-17T11:55:19.999Z</time>
      </trkpt>
      <trkpt lat="43.6485" lon="3.35034">
        <ele>183.6</ele>
        <time>2026-05-17T11:55:20.999Z</time>
      </trkpt>
      <trkpt lat="43.6485" lon="3.35034">
        <ele>183.4</ele>
        <time>2026-05-17T11:55:21.999Z</time>
      </trkpt>
      <trkpt lat="43.6485" lon="3.35034">
        <ele>183.3</ele>
        <time>2026-05-17T11:55:22.999Z</time>
      </trkpt>
      <trkpt lat="43.6485" lon="3.35034">
        <ele>183</ele>
        <time>2026-05-17T11:55:23.999Z</time>
      </trkpt>
      <trkpt lat="43.6485" lon="3.35034">
        <ele>183.2</ele>
        <time>2026-05-17T11:55:24.999Z</time>
      </trkpt>
      <trkpt lat="43.6485" lon="3.35034">
        <ele>183.1</ele>
        <time>2026-05-17T11:55:25.999Z</time>
      </trkpt>
      <trkpt lat="43.6485" lon="3.35034">
        <ele>183</ele>
        <time>2026-05-17T11:55:26.999Z</time>
      </trkpt>
      <trkpt lat="43.6485" lon="3.35034">
        <ele>183</ele>
        <time>2026-05-17T11:55:27.999Z</time>
      </trkpt>
      <trkpt lat="43.6485" lon="3.35034">
        <ele>183.1</ele>
        <time>2026-05-17T11:55:28.999Z</time>
      </trkpt>
      <trkpt lat="43.6485" lon="3.35034">
        <ele>183.2</ele>
        <time>2026-05-17T11:55:29.999Z</time>
      </trkpt>
      <trkpt lat="43.6485" lon="3.35034">
        <ele>183.4</ele>
        <time>2026-05-17T11:55:30.999Z</time>
      </trkpt>
      <trkpt lat="43.6485" lon="3.35034">
        <ele>183.7</ele>
        <time>2026-05-17T11:55:31.999Z</time>
      </trkpt>
      <trkpt lat="43.6485" lon="3.35034">
        <ele>184.3</ele>
        <time>2026-05-17T11:55:32.999Z</time>
      </trkpt>
      <trkpt lat="43.6485" lon="3.35034">
        <ele>184.5</ele>
        <time>2026-05-17T11:55:33.999Z</time>
      </trkpt>
      <trkpt lat="43.6485" lon="3.35034">
        <ele>184.9</ele>
        <time>2026-05-17T11:55:34.999Z</time>
      </trkpt>
      <trkpt lat="43.6485" lon="3.35034">
        <ele>185.3</ele>
        <time>2026-05-17T11:55:35.999Z</time>
      </trkpt>
      <trkpt lat="43.6485" lon="3.35034">
        <ele>185.7</ele>
        <time>2026-05-17T11:55:36.999Z</time>
      </trkpt>
      <trkpt lat="43.6485" lon="3.35034">
        <ele>186.2</ele>
        <time>2026-05-17T11:55:37.999Z</time>
      </trkpt>
      <trkpt lat="43.6485" lon="3.35034">
        <ele>186.6</ele>
        <time>2026-05-17T11:55:38.999Z</time>
      </trkpt>
      <trkpt lat="43.6485" lon="3.35034">
        <ele>186.9</ele>
        <time>2026-05-17T11:55:39.999Z</time>
      </trkpt>
      <trkpt lat="43.6485" lon="3.35033">
        <ele>187.2</ele>
        <time>2026-05-17T11:55:40.999Z</time>
      </trkpt>
      <trkpt lat="43.6485" lon="3.35033">
        <ele>187.3</ele>
        <time>2026-05-17T11:55:41.999Z</time>
      </trkpt>
      <trkpt lat="43.6485" lon="3.35033">
        <ele>187.5</ele>
        <time>2026-05-17T11:55:42.999Z</time>
      </trkpt>
      <trkpt lat="43.6485" lon="3.35033">
        <ele>187.5</ele>
        <time>2026-05-17T11:55:43.999Z</time>
      </trkpt>
      <trkpt lat="43.6485" lon="3.35033">
        <ele>187.3</ele>
        <time>2026-05-17T11:55:44.999Z</time>
      </trkpt>
      <trkpt lat="43.6485" lon="3.35033">
        <ele>187</ele>
        <time>2026-05-17T11:55:45.999Z</time>
      </trkpt>
      <trkpt lat="43.6485" lon="3.35033">
        <ele>186.8</ele>
        <time>2026-05-17T11:55:46.999Z</time>
      </trkpt>
      <trkpt lat="43.6485" lon="3.35033">
        <ele>186.7</ele>
        <time>2026-05-17T11:55:47.999Z</time>
      </trkpt>
      <trkpt lat="43.64849" lon="3.35033">
        <ele>186.8</ele>
        <time>2026-05-17T11:55:48.999Z</time>
      </trkpt>
      <trkpt lat="43.64848" lon="3.35033">
        <ele>186.9</ele>
        <time>2026-05-17T11:55:49.999Z</time>
      </trkpt>
      <trkpt lat="43.64847" lon="3.35033">
        <ele>187</ele>
        <time>2026-05-17T11:55:50.999Z</time>
      </trkpt>
      <trkpt lat="43.64846" lon="3.35033">
        <ele>187</ele>
        <time>2026-05-17T11:55:51.999Z</time>
      </trkpt>
      <trkpt lat="43.64845" lon="3.35033">
        <ele>186.9</ele>
        <time>2026-05-17T11:55:52.999Z</time>
      </trkpt>
      <trkpt lat="43.64845" lon="3.35033">
        <ele>186.9</ele>
        <time>2026-05-17T11:55:53.999Z</time>
      </trkpt>
      <trkpt lat="43.64844" lon="3.35033">
        <ele>186.9</ele>
        <time>2026-05-17T11:55:54.999Z</time>
      </trkpt>
      <trkpt lat="43.64842" lon="3.35032">
        <ele>186.5</ele>
        <time>2026-05-17T11:55:55.999Z</time>
      </trkpt>
      <trkpt lat="43.64841" lon="3.35033">
        <ele>186.4</ele>
        <time>2026-05-17T11:55:56.999Z</time>
      </trkpt>
      <trkpt lat="43.6484" lon="3.35033">
        <ele>186.2</ele>
        <time>2026-05-17T11:55:57.999Z</time>
      </trkpt>
      <trkpt lat="43.64839" lon="3.35034">
        <ele>185.8</ele>
        <time>2026-05-17T11:55:58.999Z</time>
      </trkpt>
      <trkpt lat="43.64838" lon="3.35034">
        <ele>185.9</ele>
        <time>2026-05-17T11:55:59.999Z</time>
      </trkpt>
      <trkpt lat="43.64838" lon="3.35034">
        <ele>185.9</ele>
        <time>2026-05-17T11:56:00.999Z</time>
      </trkpt>
      <trkpt lat="43.64836" lon="3.35035">
        <ele>185.4</ele>
        <time>2026-05-17T11:56:01.999Z</time>
      </trkpt>
      <trkpt lat="43.64835" lon="3.35035">
        <ele>185.1</ele>
        <time>2026-05-17T11:56:02.999Z</time>
      </trkpt>
      <trkpt lat="43.64835" lon="3.35035">
        <ele>184.8</ele>
        <time>2026-05-17T11:56:03.999Z</time>
      </trkpt>
      <trkpt lat="43.64834" lon="3.35035">
        <ele>184.5</ele>
        <time>2026-05-17T11:56:04.999Z</time>
      </trkpt>
      <trkpt lat="43.64834" lon="3.35035">
        <ele>184.4</ele>
        <time>2026-05-17T11:56:05.999Z</time>
      </trkpt>
      <trkpt lat="43.64834" lon="3.35035">
        <ele>183.4</ele>
        <time>2026-05-17T11:56:06.999Z</time>
      </trkpt>
      <trkpt lat="43.64833" lon="3.35036">
        <ele>183</ele>
        <time>2026-05-17T11:56:07.999Z</time>
      </trkpt>
      <trkpt lat="43.64832" lon="3.35036">
        <ele>182.8</ele>
        <time>2026-05-17T11:56:08.999Z</time>
      </trkpt>
      <trkpt lat="43.64831" lon="3.35036">
        <ele>182.5</ele>
        <time>2026-05-17T11:56:09.999Z</time>
      </trkpt>
      <trkpt lat="43.6483" lon="3.35036">
        <ele>182.3</ele>
        <time>2026-05-17T11:56:10.999Z</time>
      </trkpt>
      <trkpt lat="43.6483" lon="3.35036">
        <ele>181.8</ele>
        <time>2026-05-17T11:56:11.999Z</time>
      </trkpt>
      <trkpt lat="43.6483" lon="3.35036">
        <ele>181.8</ele>
        <time>2026-05-17T11:56:12.999Z</time>
      </trkpt>
      <trkpt lat="43.6483" lon="3.35036">
        <ele>181.3</ele>
        <time>2026-05-17T11:56:13.999Z</time>
      </trkpt>
      <trkpt lat="43.6483" lon="3.35036">
        <ele>181.3</ele>
        <time>2026-05-17T11:56:14.999Z</time>
      </trkpt>
      <trkpt lat="43.6483" lon="3.35036">
        <ele>181.2</ele>
        <time>2026-05-17T11:56:15.999Z</time>
      </trkpt>
      <trkpt lat="43.6483" lon="3.35036">
        <ele>181.2</ele>
        <time>2026-05-17T11:56:16.999Z</time>
      </trkpt>
      <trkpt lat="43.6483" lon="3.35036">
        <ele>181</ele>
        <time>2026-05-17T11:56:17.999Z</time>
      </trkpt>
      <trkpt lat="43.6483" lon="3.35036">
        <ele>180.9</ele>
        <time>2026-05-17T11:56:18.999Z</time>
      </trkpt>
      <trkpt lat="43.6483" lon="3.35038">
        <ele>180.8</ele>
        <time>2026-05-17T11:56:19.999Z</time>
      </trkpt>
      <trkpt lat="43.64829" lon="3.35038">
        <ele>180.9</ele>
        <time>2026-05-17T11:56:20.999Z</time>
      </trkpt>
      <trkpt lat="43.64828" lon="3.35037">
        <ele>181.2</ele>
        <time>2026-05-17T11:56:21.999Z</time>
      </trkpt>
      <trkpt lat="43.64828" lon="3.35037">
        <ele>181.3</ele>
        <time>2026-05-17T11:56:22.999Z</time>
      </trkpt>
      <trkpt lat="43.64828" lon="3.35037">
        <ele>181.3</ele>
        <time>2026-05-17T11:56:23.999Z</time>
      </trkpt>
      <trkpt lat="43.64828" lon="3.35036">
        <ele>181.7</ele>
        <time>2026-05-17T11:56:24.999Z</time>
      </trkpt>
      <trkpt lat="43.6483" lon="3.35036">
        <ele>181.5</ele>
        <time>2026-05-17T11:56:25.999Z</time>
      </trkpt>
      <trkpt lat="43.64831" lon="3.35036">
        <ele>181.7</ele>
        <time>2026-05-17T11:56:26.999Z</time>
      </trkpt>
      <trkpt lat="43.64832" lon="3.35035">
        <ele>182.1</ele>
        <time>2026-05-17T11:56:27.999Z</time>
      </trkpt>
      <trkpt lat="43.64833" lon="3.35035">
        <ele>182.3</ele>
        <time>2026-05-17T11:56:28.999Z</time>
      </trkpt>
      <trkpt lat="43.64833" lon="3.35034">
        <ele>182.4</ele>
        <time>2026-05-17T11:56:29.999Z</time>
      </trkpt>
      <trkpt lat="43.64834" lon="3.35034">
        <ele>182.6</ele>
        <time>2026-05-17T11:56:30.999Z</time>
      </trkpt>
      <trkpt lat="43.64835" lon="3.35034">
        <ele>182.7</ele>
        <time>2026-05-17T11:56:31.999Z</time>
      </trkpt>
      <trkpt lat="43.64836" lon="3.35033">
        <ele>182.6</ele>
        <time>2026-05-17T11:56:32.999Z</time>
      </trkpt>
      <trkpt lat="43.64838" lon="3.35032">
        <ele>182.5</ele>
        <time>2026-05-17T11:56:33.999Z</time>
      </trkpt>
      <trkpt lat="43.64838" lon="3.35029">
        <ele>181.7</ele>
        <time>2026-05-17T11:56:34.999Z</time>
      </trkpt>
      <trkpt lat="43.64839" lon="3.35027">
        <ele>181.7</ele>
        <time>2026-05-17T11:56:35.999Z</time>
      </trkpt>
      <trkpt lat="43.6484" lon="3.35026">
        <ele>181.4</ele>
        <time>2026-05-17T11:56:36.999Z</time>
      </trkpt>
      <trkpt lat="43.6484" lon="3.35024">
        <ele>181.1</ele>
        <time>2026-05-17T11:56:37.999Z</time>
      </trkpt>
      <trkpt lat="43.64841" lon="3.35023">
        <ele>181</ele>
        <time>2026-05-17T11:56:38.999Z</time>
      </trkpt>
      <trkpt lat="43.64842" lon="3.35021">
        <ele>181.2</ele>
        <time>2026-05-17T11:56:39.999Z</time>
      </trkpt>
      <trkpt lat="43.64842" lon="3.35019">
        <ele>181.9</ele>
        <time>2026-05-17T11:56:40.999Z</time>
      </trkpt>
      <trkpt lat="43.64843" lon="3.35018">
        <ele>182.2</ele>
        <time>2026-05-17T11:56:41.999Z</time>
      </trkpt>
      <trkpt lat="43.64844" lon="3.35016">
        <ele>182.2</ele>
        <time>2026-05-17T11:56:42.999Z</time>
      </trkpt>
      <trkpt lat="43.64844" lon="3.35014">
        <ele>182.6</ele>
        <time>2026-05-17T11:56:43.999Z</time>
      </trkpt>
      <trkpt lat="43.64845" lon="3.35013">
        <ele>182.6</ele>
        <time>2026-05-17T11:56:44.999Z</time>
      </trkpt>
      <trkpt lat="43.64846" lon="3.35012">
        <ele>182.8</ele>
        <time>2026-05-17T11:56:45.999Z</time>
      </trkpt>
      <trkpt lat="43.64846" lon="3.35011">
        <ele>183</ele>
        <time>2026-05-17T11:56:46.999Z</time>
      </trkpt>
      <trkpt lat="43.64846" lon="3.3501">
        <ele>183.1</ele>
        <time>2026-05-17T11:56:47.999Z</time>
      </trkpt>
      <trkpt lat="43.64847" lon="3.35008">
        <ele>183.6</ele>
        <time>2026-05-17T11:56:48.999Z</time>
      </trkpt>
      <trkpt lat="43.64848" lon="3.35007">
        <ele>183.9</ele>
        <time>2026-05-17T11:56:49.999Z</time>
      </trkpt>
      <trkpt lat="43.64848" lon="3.35005">
        <ele>184.1</ele>
        <time>2026-05-17T11:56:50.999Z</time>
      </trkpt>
      <trkpt lat="43.64849" lon="3.35004">
        <ele>184.1</ele>
        <time>2026-05-17T11:56:51.999Z</time>
      </trkpt>
      <trkpt lat="43.6485" lon="3.35003">
        <ele>184</ele>
        <time>2026-05-17T11:56:52.999Z</time>
      </trkpt>
      <trkpt lat="43.64851" lon="3.35002">
        <ele>184</ele>
        <time>2026-05-17T11:56:53.999Z</time>
      </trkpt>
      <trkpt lat="43.64851" lon="3.35001">
        <ele>184.1</ele>
        <time>2026-05-17T11:56:54.999Z</time>
      </trkpt>
      <trkpt lat="43.64852" lon="3.35">
        <ele>184.3</ele>
        <time>2026-05-17T11:56:55.999Z</time>
      </trkpt>
      <trkpt lat="43.64853" lon="3.34999">
        <ele>184.2</ele>
        <time>2026-05-17T11:56:56.999Z</time>
      </trkpt>
      <trkpt lat="43.64853" lon="3.34998">
        <ele>184.1</ele>
        <time>2026-05-17T11:56:57.999Z</time>
      </trkpt>
      <trkpt lat="43.64854" lon="3.34997">
        <ele>183.8</ele>
        <time>2026-05-17T11:56:58.999Z</time>
      </trkpt>
      <trkpt lat="43.64854" lon="3.34995">
        <ele>183.9</ele>
        <time>2026-05-17T11:56:59.999Z</time>
      </trkpt>
      <trkpt lat="43.64855" lon="3.34993">
        <ele>184.2</ele>
        <time>2026-05-17T11:57:00.999Z</time>
      </trkpt>
      <trkpt lat="43.64855" lon="3.34991">
        <ele>184.1</ele>
        <time>2026-05-17T11:57:01.999Z</time>
      </trkpt>
      <trkpt lat="43.64855" lon="3.34989">
        <ele>184.2</ele>
        <time>2026-05-17T11:57:02.999Z</time>
      </trkpt>
      <trkpt lat="43.64854" lon="3.34988">
        <ele>184.1</ele>
        <time>2026-05-17T11:57:03.999Z</time>
      </trkpt>
      <trkpt lat="43.64854" lon="3.34986">
        <ele>184.3</ele>
        <time>2026-05-17T11:57:04.999Z</time>
      </trkpt>
      <trkpt lat="43.64855" lon="3.34984">
        <ele>184.2</ele>
        <time>2026-05-17T11:57:05.999Z</time>
      </trkpt>
      <trkpt lat="43.64855" lon="3.34982">
        <ele>184.3</ele>
        <time>2026-05-17T11:57:06.999Z</time>
      </trkpt>
      <trkpt lat="43.64855" lon="3.3498">
        <ele>184.4</ele>
        <time>2026-05-17T11:57:07.999Z</time>
      </trkpt>
      <trkpt lat="43.64855" lon="3.34978">
        <ele>184.7</ele>
        <time>2026-05-17T11:57:08.999Z</time>
      </trkpt>
      <trkpt lat="43.64856" lon="3.34977">
        <ele>184.9</ele>
        <time>2026-05-17T11:57:09.999Z</time>
      </trkpt>
      <trkpt lat="43.64856" lon="3.34975">
        <ele>184.9</ele>
        <time>2026-05-17T11:57:10.999Z</time>
      </trkpt>
      <trkpt lat="43.64856" lon="3.34974">
        <ele>184.9</ele>
        <time>2026-05-17T11:57:11.999Z</time>
      </trkpt>
      <trkpt lat="43.64856" lon="3.34972">
        <ele>185</ele>
        <time>2026-05-17T11:57:12.999Z</time>
      </trkpt>
      <trkpt lat="43.64856" lon="3.3497">
        <ele>184.8</ele>
        <time>2026-05-17T11:57:13.999Z</time>
      </trkpt>
      <trkpt lat="43.64856" lon="3.34969">
        <ele>184.7</ele>
        <time>2026-05-17T11:57:14.999Z</time>
      </trkpt>
      <trkpt lat="43.64856" lon="3.34967">
        <ele>184.8</ele>
        <time>2026-05-17T11:57:15.999Z</time>
      </trkpt>
      <trkpt lat="43.64856" lon="3.34965">
        <ele>184.9</ele>
        <time>2026-05-17T11:57:16.999Z</time>
      </trkpt>
      <trkpt lat="43.64856" lon="3.34964">
        <ele>184.7</ele>
        <time>2026-05-17T11:57:17.999Z</time>
      </trkpt>
      <trkpt lat="43.64855" lon="3.34963">
        <ele>184.4</ele>
        <time>2026-05-17T11:57:18.999Z</time>
      </trkpt>
      <trkpt lat="43.64855" lon="3.34961">
        <ele>184.4</ele>
        <time>2026-05-17T11:57:19.999Z</time>
      </trkpt>
      <trkpt lat="43.64855" lon="3.34961">
        <ele>184.5</ele>
        <time>2026-05-17T11:57:20.999Z</time>
      </trkpt>
      <trkpt lat="43.64855" lon="3.3496">
        <ele>184.6</ele>
        <time>2026-05-17T11:57:21.999Z</time>
      </trkpt>
      <trkpt lat="43.64854" lon="3.34958">
        <ele>184.9</ele>
        <time>2026-05-17T11:57:22.999Z</time>
      </trkpt>
      <trkpt lat="43.64853" lon="3.34956">
        <ele>185.3</ele>
        <time>2026-05-17T11:57:23.999Z</time>
      </trkpt>
      <trkpt lat="43.64853" lon="3.34954">
        <ele>185.8</ele>
        <time>2026-05-17T11:57:24.999Z</time>
      </trkpt>
      <trkpt lat="43.64853" lon="3.34952">
        <ele>185.7</ele>
        <time>2026-05-17T11:57:25.999Z</time>
      </trkpt>
      <trkpt lat="43.64852" lon="3.3495">
        <ele>185.8</ele>
        <time>2026-05-17T11:57:26.999Z</time>
      </trkpt>
      <trkpt lat="43.64852" lon="3.34948">
        <ele>185.9</ele>
        <time>2026-05-17T11:57:27.999Z</time>
      </trkpt>
      <trkpt lat="43.64851" lon="3.34947">
        <ele>185.8</ele>
        <time>2026-05-17T11:57:28.999Z</time>
      </trkpt>
      <trkpt lat="43.64851" lon="3.34946">
        <ele>185.8</ele>
        <time>2026-05-17T11:57:29.999Z</time>
      </trkpt>
      <trkpt lat="43.64851" lon="3.34945">
        <ele>185.7</ele>
        <time>2026-05-17T11:57:30.999Z</time>
      </trkpt>
      <trkpt lat="43.6485" lon="3.34944">
        <ele>185.6</ele>
        <time>2026-05-17T11:57:31.999Z</time>
      </trkpt>
      <trkpt lat="43.6485" lon="3.34942">
        <ele>186</ele>
        <time>2026-05-17T11:57:32.999Z</time>
      </trkpt>
      <trkpt lat="43.6485" lon="3.34941">
        <ele>186</ele>
        <time>2026-05-17T11:57:33.999Z</time>
      </trkpt>
      <trkpt lat="43.6485" lon="3.34941">
        <ele>185.9</ele>
        <time>2026-05-17T11:57:34.999Z</time>
      </trkpt>
      <trkpt lat="43.64849" lon="3.3494">
        <ele>186.1</ele>
        <time>2026-05-17T11:57:35.999Z</time>
      </trkpt>
      <trkpt lat="43.64848" lon="3.34939">
        <ele>186.2</ele>
        <time>2026-05-17T11:57:36.999Z</time>
      </trkpt>
      <trkpt lat="43.64848" lon="3.34938">
        <ele>186.2</ele>
        <time>2026-05-17T11:57:37.999Z</time>
      </trkpt>
      <trkpt lat="43.64847" lon="3.34937">
        <ele>186.3</ele>
        <time>2026-05-17T11:57:38.999Z</time>
      </trkpt>
      <trkpt lat="43.64847" lon="3.34937">
        <ele>186.1</ele>
        <time>2026-05-17T11:57:39.999Z</time>
      </trkpt>
      <trkpt lat="43.64846" lon="3.34936">
        <ele>185.8</ele>
        <time>2026-05-17T11:57:40.999Z</time>
      </trkpt>
      <trkpt lat="43.64845" lon="3.34935">
        <ele>185.4</ele>
        <time>2026-05-17T11:57:41.999Z</time>
      </trkpt>
      <trkpt lat="43.64845" lon="3.34934">
        <ele>185.4</ele>
        <time>2026-05-17T11:57:42.999Z</time>
      </trkpt>
      <trkpt lat="43.64844" lon="3.34933">
        <ele>185</ele>
        <time>2026-05-17T11:57:43.999Z</time>
      </trkpt>
      <trkpt lat="43.64843" lon="3.34932">
        <ele>184.8</ele>
        <time>2026-05-17T11:57:44.999Z</time>
      </trkpt>
      <trkpt lat="43.64842" lon="3.3493">
        <ele>184.8</ele>
        <time>2026-05-17T11:57:45.999Z</time>
      </trkpt>
      <trkpt lat="43.64841" lon="3.34929">
        <ele>184.9</ele>
        <time>2026-05-17T11:57:46.999Z</time>
      </trkpt>
      <trkpt lat="43.64841" lon="3.34928">
        <ele>185.1</ele>
        <time>2026-05-17T11:57:47.999Z</time>
      </trkpt>
      <trkpt lat="43.6484" lon="3.34927">
        <ele>185</ele>
        <time>2026-05-17T11:57:48.999Z</time>
      </trkpt>
      <trkpt lat="43.64839" lon="3.34925">
        <ele>184.9</ele>
        <time>2026-05-17T11:57:49.999Z</time>
      </trkpt>
      <trkpt lat="43.64838" lon="3.34924">
        <ele>184.8</ele>
        <time>2026-05-17T11:57:50.999Z</time>
      </trkpt>
      <trkpt lat="43.64838" lon="3.34924">
        <ele>184.3</ele>
        <time>2026-05-17T11:57:51.999Z</time>
      </trkpt>
      <trkpt lat="43.64837" lon="3.34924">
        <ele>183.8</ele>
        <time>2026-05-17T11:57:52.999Z</time>
      </trkpt>
      <trkpt lat="43.64836" lon="3.34924">
        <ele>183.3</ele>
        <time>2026-05-17T11:57:53.999Z</time>
      </trkpt>
      <trkpt lat="43.64835" lon="3.34924">
        <ele>182.7</ele>
        <time>2026-05-17T11:57:54.999Z</time>
      </trkpt>
      <trkpt lat="43.64835" lon="3.34924">
        <ele>182.9</ele>
        <time>2026-05-17T11:57:55.999Z</time>
      </trkpt>
      <trkpt lat="43.64834" lon="3.34924">
        <ele>182.9</ele>
        <time>2026-05-17T11:57:56.999Z</time>
      </trkpt>
      <trkpt lat="43.64833" lon="3.34923">
        <ele>182.6</ele>
        <time>2026-05-17T11:57:57.999Z</time>
      </trkpt>
      <trkpt lat="43.64832" lon="3.34921">
        <ele>182.2</ele>
        <time>2026-05-17T11:57:58.999Z</time>
      </trkpt>
      <trkpt lat="43.64831" lon="3.3492">
        <ele>182</ele>
        <time>2026-05-17T11:57:59.999Z</time>
      </trkpt>
      <trkpt lat="43.64831" lon="3.34918">
        <ele>181.9</ele>
        <time>2026-05-17T11:58:00.999Z</time>
      </trkpt>
      <trkpt lat="43.64831" lon="3.34916">
        <ele>181.8</ele>
        <time>2026-05-17T11:58:01.999Z</time>
      </trkpt>
      <trkpt lat="43.64832" lon="3.34914">
        <ele>182</ele>
        <time>2026-05-17T11:58:02.999Z</time>
      </trkpt>
      <trkpt lat="43.64832" lon="3.34913">
        <ele>182.3</ele>
        <time>2026-05-17T11:58:03.999Z</time>
      </trkpt>
      <trkpt lat="43.64833" lon="3.34911">
        <ele>182.4</ele>
        <time>2026-05-17T11:58:04.999Z</time>
      </trkpt>
      <trkpt lat="43.64834" lon="3.3491">
        <ele>182.4</ele>
        <time>2026-05-17T11:58:05.999Z</time>
      </trkpt>
      <trkpt lat="43.64834" lon="3.34909">
        <ele>182.6</ele>
        <time>2026-05-17T11:58:06.999Z</time>
      </trkpt>
      <trkpt lat="43.64835" lon="3.34907">
        <ele>182.6</ele>
        <time>2026-05-17T11:58:07.999Z</time>
      </trkpt>
      <trkpt lat="43.64835" lon="3.34906">
        <ele>182.5</ele>
        <time>2026-05-17T11:58:08.999Z</time>
      </trkpt>
      <trkpt lat="43.64834" lon="3.34905">
        <ele>182.5</ele>
        <time>2026-05-17T11:58:09.999Z</time>
      </trkpt>
      <trkpt lat="43.64834" lon="3.34904">
        <ele>182.8</ele>
        <time>2026-05-17T11:58:10.999Z</time>
      </trkpt>
      <trkpt lat="43.64834" lon="3.34903">
        <ele>183</ele>
        <time>2026-05-17T11:58:11.999Z</time>
      </trkpt>
      <trkpt lat="43.64833" lon="3.34902">
        <ele>183.4</ele>
        <time>2026-05-17T11:58:12.999Z</time>
      </trkpt>
      <trkpt lat="43.64833" lon="3.34901">
        <ele>183.6</ele>
        <time>2026-05-17T11:58:13.999Z</time>
      </trkpt>
      <trkpt lat="43.64832" lon="3.349">
        <ele>183.8</ele>
        <time>2026-05-17T11:58:14.999Z</time>
      </trkpt>
      <trkpt lat="43.6483" lon="3.349">
        <ele>183.7</ele>
        <time>2026-05-17T11:58:15.999Z</time>
      </trkpt>
      <trkpt lat="43.64829" lon="3.34899">
        <ele>183.6</ele>
        <time>2026-05-17T11:58:16.999Z</time>
      </trkpt>
      <trkpt lat="43.64828" lon="3.34898">
        <ele>183.6</ele>
        <time>2026-05-17T11:58:17.999Z</time>
      </trkpt>
      <trkpt lat="43.64827" lon="3.34897">
        <ele>183.3</ele>
        <time>2026-05-17T11:58:18.999Z</time>
      </trkpt>
      <trkpt lat="43.64826" lon="3.34897">
        <ele>183.3</ele>
        <time>2026-05-17T11:58:19.999Z</time>
      </trkpt>
      <trkpt lat="43.64825" lon="3.34896">
        <ele>183.2</ele>
        <time>2026-05-17T11:58:20.999Z</time>
      </trkpt>
      <trkpt lat="43.64824" lon="3.34896">
        <ele>183.1</ele>
        <time>2026-05-17T11:58:21.999Z</time>
      </trkpt>
      <trkpt lat="43.64823" lon="3.34895">
        <ele>183</ele>
        <time>2026-05-17T11:58:22.999Z</time>
      </trkpt>
      <trkpt lat="43.64822" lon="3.34894">
        <ele>182.9</ele>
        <time>2026-05-17T11:58:23.999Z</time>
      </trkpt>
      <trkpt lat="43.64822" lon="3.34892">
        <ele>183</ele>
        <time>2026-05-17T11:58:24.999Z</time>
      </trkpt>
      <trkpt lat="43.64821" lon="3.34891">
        <ele>183.1</ele>
        <time>2026-05-17T11:58:25.999Z</time>
      </trkpt>
      <trkpt lat="43.64821" lon="3.34889">
        <ele>183.3</ele>
        <time>2026-05-17T11:58:26.999Z</time>
      </trkpt>
      <trkpt lat="43.6482" lon="3.34887">
        <ele>183.3</ele>
        <time>2026-05-17T11:58:27.999Z</time>
      </trkpt>
      <trkpt lat="43.6482" lon="3.34886">
        <ele>183.6</ele>
        <time>2026-05-17T11:58:28.999Z</time>
      </trkpt>
      <trkpt lat="43.6482" lon="3.34883">
        <ele>184</ele>
        <time>2026-05-17T11:58:29.999Z</time>
      </trkpt>
      <trkpt lat="43.6482" lon="3.34882">
        <ele>183.8</ele>
        <time>2026-05-17T11:58:30.999Z</time>
      </trkpt>
      <trkpt lat="43.6482" lon="3.3488">
        <ele>183.7</ele>
        <time>2026-05-17T11:58:31.999Z</time>
      </trkpt>
      <trkpt lat="43.6482" lon="3.34879">
        <ele>183.5</ele>
        <time>2026-05-17T11:58:32.999Z</time>
      </trkpt>
      <trkpt lat="43.6482" lon="3.34878">
        <ele>183.3</ele>
        <time>2026-05-17T11:58:33.999Z</time>
      </trkpt>
      <trkpt lat="43.6482" lon="3.34876">
        <ele>183.1</ele>
        <time>2026-05-17T11:58:34.999Z</time>
      </trkpt>
      <trkpt lat="43.6482" lon="3.34874">
        <ele>183.2</ele>
        <time>2026-05-17T11:58:35.999Z</time>
      </trkpt>
      <trkpt lat="43.6482" lon="3.34872">
        <ele>183.3</ele>
        <time>2026-05-17T11:58:36.999Z</time>
      </trkpt>
      <trkpt lat="43.64819" lon="3.34872">
        <ele>183.7</ele>
        <time>2026-05-17T11:58:37.999Z</time>
      </trkpt>
      <trkpt lat="43.64819" lon="3.34871">
        <ele>184</ele>
        <time>2026-05-17T11:58:38.999Z</time>
      </trkpt>
      <trkpt lat="43.64819" lon="3.34869">
        <ele>184</ele>
        <time>2026-05-17T11:58:39.999Z</time>
      </trkpt>
      <trkpt lat="43.64819" lon="3.34868">
        <ele>184.2</ele>
        <time>2026-05-17T11:58:40.999Z</time>
      </trkpt>
      <trkpt lat="43.64819" lon="3.34867">
        <ele>184.4</ele>
        <time>2026-05-17T11:58:41.999Z</time>
      </trkpt>
      <trkpt lat="43.64818" lon="3.34865">
        <ele>184.3</ele>
        <time>2026-05-17T11:58:42.999Z</time>
      </trkpt>
      <trkpt lat="43.64818" lon="3.34864">
        <ele>184.5</ele>
        <time>2026-05-17T11:58:43.999Z</time>
      </trkpt>
      <trkpt lat="43.64818" lon="3.34863">
        <ele>184.5</ele>
        <time>2026-05-17T11:58:44.999Z</time>
      </trkpt>
      <trkpt lat="43.64817" lon="3.34862">
        <ele>184.6</ele>
        <time>2026-05-17T11:58:45.999Z</time>
      </trkpt>
      <trkpt lat="43.64816" lon="3.34861">
        <ele>184.7</ele>
        <time>2026-05-17T11:58:46.999Z</time>
      </trkpt>
      <trkpt lat="43.64815" lon="3.3486">
        <ele>184.7</ele>
        <time>2026-05-17T11:58:47.999Z</time>
      </trkpt>
      <trkpt lat="43.64815" lon="3.34858">
        <ele>184.8</ele>
        <time>2026-05-17T11:58:48.999Z</time>
      </trkpt>
      <trkpt lat="43.64814" lon="3.34857">
        <ele>184.9</ele>
        <time>2026-05-17T11:58:49.999Z</time>
      </trkpt>
      <trkpt lat="43.64814" lon="3.34856">
        <ele>184.9</ele>
        <time>2026-05-17T11:58:50.999Z</time>
      </trkpt>
      <trkpt lat="43.64813" lon="3.34856">
        <ele>184.8</ele>
        <time>2026-05-17T11:58:51.999Z</time>
      </trkpt>
      <trkpt lat="43.64812" lon="3.34854">
        <ele>185.2</ele>
        <time>2026-05-17T11:58:53.999Z</time>
      </trkpt>
      <trkpt lat="43.64811" lon="3.34853">
        <ele>185.5</ele>
        <time>2026-05-17T11:58:54.999Z</time>
      </trkpt>
      <trkpt lat="43.6481" lon="3.34852">
        <ele>185.6</ele>
        <time>2026-05-17T11:58:55.999Z</time>
      </trkpt>
      <trkpt lat="43.6481" lon="3.34852">
        <ele>185.6</ele>
        <time>2026-05-17T11:58:56.999Z</time>
      </trkpt>
      <trkpt lat="43.64808" lon="3.3485">
        <ele>184.8</ele>
        <time>2026-05-17T11:58:57.999Z</time>
      </trkpt>
      <trkpt lat="43.64807" lon="3.34849">
        <ele>184.9</ele>
        <time>2026-05-17T11:58:58.999Z</time>
      </trkpt>
      <trkpt lat="43.64806" lon="3.34848">
        <ele>184.6</ele>
        <time>2026-05-17T11:58:59.999Z</time>
      </trkpt>
      <trkpt lat="43.64805" lon="3.34848">
        <ele>184.4</ele>
        <time>2026-05-17T11:59:00.999Z</time>
      </trkpt>
      <trkpt lat="43.64804" lon="3.34847">
        <ele>184.1</ele>
        <time>2026-05-17T11:59:01.999Z</time>
      </trkpt>
      <trkpt lat="43.64803" lon="3.34847">
        <ele>183.9</ele>
        <time>2026-05-17T11:59:02.999Z</time>
      </trkpt>
      <trkpt lat="43.64802" lon="3.34846">
        <ele>183.8</ele>
        <time>2026-05-17T11:59:03.999Z</time>
      </trkpt>
      <trkpt lat="43.648" lon="3.34844">
        <ele>183.7</ele>
        <time>2026-05-17T11:59:04.999Z</time>
      </trkpt>
      <trkpt lat="43.64799" lon="3.34843">
        <ele>183.8</ele>
        <time>2026-05-17T11:59:05.999Z</time>
      </trkpt>
      <trkpt lat="43.64799" lon="3.34842">
        <ele>184</ele>
        <time>2026-05-17T11:59:06.999Z</time>
      </trkpt>
      <trkpt lat="43.64799" lon="3.34842">
        <ele>184.1</ele>
        <time>2026-05-17T11:59:07.999Z</time>
      </trkpt>
      <trkpt lat="43.64798" lon="3.34841">
        <ele>184.1</ele>
        <time>2026-05-17T11:59:08.999Z</time>
      </trkpt>
      <trkpt lat="43.64798" lon="3.3484">
        <ele>184.2</ele>
        <time>2026-05-17T11:59:09.999Z</time>
      </trkpt>
      <trkpt lat="43.64798" lon="3.3484">
        <ele>184.3</ele>
        <time>2026-05-17T11:59:10.999Z</time>
      </trkpt>
      <trkpt lat="43.64798" lon="3.3484">
        <ele>184.2</ele>
        <time>2026-05-17T11:59:11.999Z</time>
      </trkpt>
      <trkpt lat="43.64797" lon="3.3484">
        <ele>184</ele>
        <time>2026-05-17T11:59:12.999Z</time>
      </trkpt>
      <trkpt lat="43.64797" lon="3.3484">
        <ele>185.1</ele>
        <time>2026-05-17T11:59:13.999Z</time>
      </trkpt>
      <trkpt lat="43.64797" lon="3.3484">
        <ele>185.3</ele>
        <time>2026-05-17T11:59:14.999Z</time>
      </trkpt>
      <trkpt lat="43.64798" lon="3.34839">
        <ele>185.2</ele>
        <time>2026-05-17T11:59:15.999Z</time>
      </trkpt>
      <trkpt lat="43.64799" lon="3.34838">
        <ele>185.3</ele>
        <time>2026-05-17T11:59:16.999Z</time>
      </trkpt>
      <trkpt lat="43.648" lon="3.34836">
        <ele>185.5</ele>
        <time>2026-05-17T11:59:17.999Z</time>
      </trkpt>
      <trkpt lat="43.64801" lon="3.34834">
        <ele>185.8</ele>
        <time>2026-05-17T11:59:18.999Z</time>
      </trkpt>
      <trkpt lat="43.64801" lon="3.34834">
        <ele>186.9</ele>
        <time>2026-05-17T11:59:19.999Z</time>
      </trkpt>
      <trkpt lat="43.64802" lon="3.34834">
        <ele>187.8</ele>
        <time>2026-05-17T11:59:20.999Z</time>
      </trkpt>
      <trkpt lat="43.64801" lon="3.34833">
        <ele>187.7</ele>
        <time>2026-05-17T11:59:21.999Z</time>
      </trkpt>
      <trkpt lat="43.64801" lon="3.34833">
        <ele>186.5</ele>
        <time>2026-05-17T11:59:22.999Z</time>
      </trkpt>
      <trkpt lat="43.64801" lon="3.34833">
        <ele>186.5</ele>
        <time>2026-05-17T11:59:23.999Z</time>
      </trkpt>
      <trkpt lat="43.64801" lon="3.34833">
        <ele>186.8</ele>
        <time>2026-05-17T11:59:24.999Z</time>
      </trkpt>
      <trkpt lat="43.64801" lon="3.34833">
        <ele>186.9</ele>
        <time>2026-05-17T11:59:25.999Z</time>
      </trkpt>
      <trkpt lat="43.64802" lon="3.34833">
        <ele>187.2</ele>
        <time>2026-05-17T11:59:26.999Z</time>
      </trkpt>
      <trkpt lat="43.64802" lon="3.34831">
        <ele>188.1</ele>
        <time>2026-05-17T11:59:27.999Z</time>
      </trkpt>
      <trkpt lat="43.64802" lon="3.3483">
        <ele>188.7</ele>
        <time>2026-05-17T11:59:28.999Z</time>
      </trkpt>
      <trkpt lat="43.64802" lon="3.34827">
        <ele>189.2</ele>
        <time>2026-05-17T11:59:29.999Z</time>
      </trkpt>
      <trkpt lat="43.64802" lon="3.34825">
        <ele>189.3</ele>
        <time>2026-05-17T11:59:30.999Z</time>
      </trkpt>
      <trkpt lat="43.64802" lon="3.34822">
        <ele>189.6</ele>
        <time>2026-05-17T11:59:31.999Z</time>
      </trkpt>
      <trkpt lat="43.64802" lon="3.3482">
        <ele>189.7</ele>
        <time>2026-05-17T11:59:32.999Z</time>
      </trkpt>
      <trkpt lat="43.64801" lon="3.34818">
        <ele>189.6</ele>
        <time>2026-05-17T11:59:33.999Z</time>
      </trkpt>
      <trkpt lat="43.64801" lon="3.34816">
        <ele>189.4</ele>
        <time>2026-05-17T11:59:34.999Z</time>
      </trkpt>
      <trkpt lat="43.64801" lon="3.34814">
        <ele>189.7</ele>
        <time>2026-05-17T11:59:35.999Z</time>
      </trkpt>
      <trkpt lat="43.64801" lon="3.34814">
        <ele>189.5</ele>
        <time>2026-05-17T11:59:36.999Z</time>
      </trkpt>
      <trkpt lat="43.64801" lon="3.34814">
        <ele>189.2</ele>
        <time>2026-05-17T11:59:37.999Z</time>
      </trkpt>
      <trkpt lat="43.64801" lon="3.34814">
        <ele>188.7</ele>
        <time>2026-05-17T11:59:38.999Z</time>
      </trkpt>
      <trkpt lat="43.64801" lon="3.34814">
        <ele>187.3</ele>
        <time>2026-05-17T11:59:39.999Z</time>
      </trkpt>
      <trkpt lat="43.64801" lon="3.34814">
        <ele>187.2</ele>
        <time>2026-05-17T11:59:40.999Z</time>
      </trkpt>
      <trkpt lat="43.64801" lon="3.34814">
        <ele>187.9</ele>
        <time>2026-05-17T11:59:41.999Z</time>
      </trkpt>
      <trkpt lat="43.64801" lon="3.34814">
        <ele>188</ele>
        <time>2026-05-17T11:59:42.999Z</time>
      </trkpt>
      <trkpt lat="43.64801" lon="3.34814">
        <ele>187.9</ele>
        <time>2026-05-17T11:59:43.999Z</time>
      </trkpt>
      <trkpt lat="43.64801" lon="3.34814">
        <ele>187.8</ele>
        <time>2026-05-17T11:59:44.999Z</time>
      </trkpt>
      <trkpt lat="43.64801" lon="3.34814">
        <ele>187.7</ele>
        <time>2026-05-17T11:59:45.999Z</time>
      </trkpt>
      <trkpt lat="43.64801" lon="3.34814">
        <ele>187.4</ele>
        <time>2026-05-17T11:59:46.999Z</time>
      </trkpt>
      <trkpt lat="43.64801" lon="3.34814">
        <ele>187.3</ele>
        <time>2026-05-17T11:59:47.999Z</time>
      </trkpt>
      <trkpt lat="43.64801" lon="3.34814">
        <ele>187.5</ele>
        <time>2026-05-17T11:59:48.999Z</time>
      </trkpt>
      <trkpt lat="43.64801" lon="3.34813">
        <ele>187.6</ele>
        <time>2026-05-17T11:59:49.999Z</time>
      </trkpt>
      <trkpt lat="43.64801" lon="3.34811">
        <ele>187.6</ele>
        <time>2026-05-17T11:59:50.999Z</time>
      </trkpt>
      <trkpt lat="43.64801" lon="3.34808">
        <ele>187.8</ele>
        <time>2026-05-17T11:59:51.999Z</time>
      </trkpt>
      <trkpt lat="43.648" lon="3.34805">
        <ele>187.6</ele>
        <time>2026-05-17T11:59:52.999Z</time>
      </trkpt>
      <trkpt lat="43.648" lon="3.34803">
        <ele>187.6</ele>
        <time>2026-05-17T11:59:53.999Z</time>
      </trkpt>
      <trkpt lat="43.64799" lon="3.348">
        <ele>187.8</ele>
        <time>2026-05-17T11:59:54.999Z</time>
      </trkpt>
      <trkpt lat="43.64799" lon="3.34799">
        <ele>188</ele>
        <time>2026-05-17T11:59:55.999Z</time>
      </trkpt>
      <trkpt lat="43.64798" lon="3.34797">
        <ele>188</ele>
        <time>2026-05-17T11:59:56.999Z</time>
      </trkpt>
      <trkpt lat="43.64797" lon="3.34795">
        <ele>188</ele>
        <time>2026-05-17T11:59:57.999Z</time>
      </trkpt>
      <trkpt lat="43.64797" lon="3.34794">
        <ele>188.1</ele>
        <time>2026-05-17T11:59:58.999Z</time>
      </trkpt>
      <trkpt lat="43.64796" lon="3.34792">
        <ele>188.2</ele>
        <time>2026-05-17T11:59:59.999Z</time>
      </trkpt>
      <trkpt lat="43.64796" lon="3.34791">
        <ele>188.1</ele>
        <time>2026-05-17T12:00:00.999Z</time>
      </trkpt>
      <trkpt lat="43.64795" lon="3.3479">
        <ele>188.3</ele>
        <time>2026-05-17T12:00:01.999Z</time>
      </trkpt>
      <trkpt lat="43.64795" lon="3.34789">
        <ele>188.5</ele>
        <time>2026-05-17T12:00:02.999Z</time>
      </trkpt>
      <trkpt lat="43.64794" lon="3.34788">
        <ele>188.5</ele>
        <time>2026-05-17T12:00:03.999Z</time>
      </trkpt>
      <trkpt lat="43.64794" lon="3.34788">
        <ele>188.4</ele>
        <time>2026-05-17T12:00:04.999Z</time>
      </trkpt>
      <trkpt lat="43.64794" lon="3.34787">
        <ele>188.4</ele>
        <time>2026-05-17T12:00:05.999Z</time>
      </trkpt>
      <trkpt lat="43.64794" lon="3.34787">
        <ele>187.8</ele>
        <time>2026-05-17T12:00:06.999Z</time>
      </trkpt>
      <trkpt lat="43.64793" lon="3.34787">
        <ele>187.9</ele>
        <time>2026-05-17T12:00:07.999Z</time>
      </trkpt>
      <trkpt lat="43.64793" lon="3.34787">
        <ele>187.8</ele>
        <time>2026-05-17T12:00:08.999Z</time>
      </trkpt>
      <trkpt lat="43.64793" lon="3.34787">
        <ele>187.6</ele>
        <time>2026-05-17T12:00:09.999Z</time>
      </trkpt>
      <trkpt lat="43.64793" lon="3.34787">
        <ele>187.4</ele>
        <time>2026-05-17T12:00:10.999Z</time>
      </trkpt>
      <trkpt lat="43.64792" lon="3.34787">
        <ele>187.5</ele>
        <time>2026-05-17T12:00:11.999Z</time>
      </trkpt>
      <trkpt lat="43.64792" lon="3.34787">
        <ele>187.6</ele>
        <time>2026-05-17T12:00:12.999Z</time>
      </trkpt>
      <trkpt lat="43.64792" lon="3.34787">
        <ele>187.5</ele>
        <time>2026-05-17T12:00:13.999Z</time>
      </trkpt>
      <trkpt lat="43.64792" lon="3.34787">
        <ele>187.4</ele>
        <time>2026-05-17T12:00:14.999Z</time>
      </trkpt>
      <trkpt lat="43.64792" lon="3.34787">
        <ele>187.4</ele>
        <time>2026-05-17T12:00:15.999Z</time>
      </trkpt>
      <trkpt lat="43.64792" lon="3.34787">
        <ele>187</ele>
        <time>2026-05-17T12:00:16.999Z</time>
      </trkpt>
      <trkpt lat="43.64792" lon="3.34787">
        <ele>186.6</ele>
        <time>2026-05-17T12:00:17.999Z</time>
      </trkpt>
      <trkpt lat="43.64792" lon="3.34787">
        <ele>186.5</ele>
        <time>2026-05-17T12:00:18.999Z</time>
      </trkpt>
      <trkpt lat="43.64792" lon="3.34787">
        <ele>186.5</ele>
        <time>2026-05-17T12:00:19.999Z</time>
      </trkpt>
      <trkpt lat="43.64792" lon="3.34787">
        <ele>186.3</ele>
        <time>2026-05-17T12:00:20.999Z</time>
      </trkpt>
      <trkpt lat="43.64792" lon="3.34787">
        <ele>186.2</ele>
        <time>2026-05-17T12:00:21.999Z</time>
      </trkpt>
      <trkpt lat="43.64792" lon="3.34787">
        <ele>186.1</ele>
        <time>2026-05-17T12:00:22.999Z</time>
      </trkpt>
      <trkpt lat="43.64792" lon="3.34787">
        <ele>185.9</ele>
        <time>2026-05-17T12:00:23.999Z</time>
      </trkpt>
      <trkpt lat="43.64792" lon="3.34787">
        <ele>185.7</ele>
        <time>2026-05-17T12:00:24.999Z</time>
      </trkpt>
      <trkpt lat="43.64792" lon="3.34787">
        <ele>185.6</ele>
        <time>2026-05-17T12:00:25.999Z</time>
      </trkpt>
      <trkpt lat="43.64792" lon="3.34787">
        <ele>185.3</ele>
        <time>2026-05-17T12:00:26.999Z</time>
      </trkpt>
      <trkpt lat="43.64792" lon="3.34788">
        <ele>185.2</ele>
        <time>2026-05-17T12:00:27.999Z</time>
      </trkpt>
      <trkpt lat="43.64792" lon="3.34788">
        <ele>185.2</ele>
        <time>2026-05-17T12:00:28.999Z</time>
      </trkpt>
      <trkpt lat="43.64792" lon="3.34788">
        <ele>185.2</ele>
        <time>2026-05-17T12:00:29.999Z</time>
      </trkpt>
      <trkpt lat="43.64792" lon="3.34788">
        <ele>185.1</ele>
        <time>2026-05-17T12:00:30.999Z</time>
      </trkpt>
      <trkpt lat="43.64792" lon="3.34788">
        <ele>184.9</ele>
        <time>2026-05-17T12:00:31.999Z</time>
      </trkpt>
      <trkpt lat="43.64792" lon="3.34788">
        <ele>184.5</ele>
        <time>2026-05-17T12:00:32.999Z</time>
      </trkpt>
      <trkpt lat="43.64792" lon="3.34788">
        <ele>184.2</ele>
        <time>2026-05-17T12:00:33.999Z</time>
      </trkpt>
      <trkpt lat="43.64792" lon="3.34788">
        <ele>184</ele>
        <time>2026-05-17T12:00:34.999Z</time>
      </trkpt>
      <trkpt lat="43.64792" lon="3.34788">
        <ele>183.9</ele>
        <time>2026-05-17T12:00:35.999Z</time>
      </trkpt>
      <trkpt lat="43.64792" lon="3.34788">
        <ele>184</ele>
        <time>2026-05-17T12:00:36.999Z</time>
      </trkpt>
      <trkpt lat="43.64792" lon="3.34788">
        <ele>183.9</ele>
        <time>2026-05-17T12:00:37.999Z</time>
      </trkpt>
      <trkpt lat="43.64792" lon="3.34788">
        <ele>183.8</ele>
        <time>2026-05-17T12:00:38.999Z</time>
      </trkpt>
      <trkpt lat="43.64792" lon="3.34788">
        <ele>183.9</ele>
        <time>2026-05-17T12:00:39.999Z</time>
      </trkpt>
      <trkpt lat="43.64792" lon="3.34788">
        <ele>183.9</ele>
        <time>2026-05-17T12:00:40.999Z</time>
      </trkpt>
      <trkpt lat="43.64792" lon="3.34788">
        <ele>184</ele>
        <time>2026-05-17T12:00:41.999Z</time>
      </trkpt>
      <trkpt lat="43.64792" lon="3.34788">
        <ele>183.7</ele>
        <time>2026-05-17T12:00:42.999Z</time>
      </trkpt>
      <trkpt lat="43.64792" lon="3.34788">
        <ele>183.7</ele>
        <time>2026-05-17T12:00:43.999Z</time>
      </trkpt>
      <trkpt lat="43.64792" lon="3.34788">
        <ele>183.7</ele>
        <time>2026-05-17T12:00:44.999Z</time>
      </trkpt>
      <trkpt lat="43.64792" lon="3.34787">
        <ele>183.3</ele>
        <time>2026-05-17T12:00:45.999Z</time>
      </trkpt>
      <trkpt lat="43.64791" lon="3.34785">
        <ele>183</ele>
        <time>2026-05-17T12:00:46.999Z</time>
      </trkpt>
      <trkpt lat="43.6479" lon="3.34784">
        <ele>182.9</ele>
        <time>2026-05-17T12:00:47.999Z</time>
      </trkpt>
      <trkpt lat="43.64789" lon="3.34782">
        <ele>182.6</ele>
        <time>2026-05-17T12:00:48.999Z</time>
      </trkpt>
      <trkpt lat="43.64789" lon="3.34781">
        <ele>182.4</ele>
        <time>2026-05-17T12:00:49.999Z</time>
      </trkpt>
      <trkpt lat="43.64788" lon="3.34778">
        <ele>182.7</ele>
        <time>2026-05-17T12:00:50.999Z</time>
      </trkpt>
      <trkpt lat="43.64787" lon="3.34776">
        <ele>182.7</ele>
        <time>2026-05-17T12:00:51.999Z</time>
      </trkpt>
      <trkpt lat="43.64787" lon="3.34775">
        <ele>182.8</ele>
        <time>2026-05-17T12:00:52.999Z</time>
      </trkpt>
      <trkpt lat="43.64787" lon="3.34773">
        <ele>182.8</ele>
        <time>2026-05-17T12:00:53.999Z</time>
      </trkpt>
      <trkpt lat="43.64788" lon="3.34772">
        <ele>182.6</ele>
        <time>2026-05-17T12:00:54.999Z</time>
      </trkpt>
      <trkpt lat="43.64787" lon="3.34769">
        <ele>182.5</ele>
        <time>2026-05-17T12:00:55.999Z</time>
      </trkpt>
      <trkpt lat="43.64787" lon="3.34767">
        <ele>182.5</ele>
        <time>2026-05-17T12:00:56.999Z</time>
      </trkpt>
      <trkpt lat="43.64787" lon="3.34765">
        <ele>182.4</ele>
        <time>2026-05-17T12:00:57.999Z</time>
      </trkpt>
      <trkpt lat="43.64786" lon="3.34764">
        <ele>182.7</ele>
        <time>2026-05-17T12:00:58.999Z</time>
      </trkpt>
      <trkpt lat="43.64786" lon="3.34763">
        <ele>182.2</ele>
        <time>2026-05-17T12:00:59.999Z</time>
      </trkpt>
      <trkpt lat="43.64784" lon="3.34762">
        <ele>182</ele>
        <time>2026-05-17T12:01:00.999Z</time>
      </trkpt>
      <trkpt lat="43.64783" lon="3.34761">
        <ele>181.5</ele>
        <time>2026-05-17T12:01:01.999Z</time>
      </trkpt>
      <trkpt lat="43.64782" lon="3.3476">
        <ele>181.8</ele>
        <time>2026-05-17T12:01:02.999Z</time>
      </trkpt>
      <trkpt lat="43.64781" lon="3.3476">
        <ele>181.7</ele>
        <time>2026-05-17T12:01:03.999Z</time>
      </trkpt>
      <trkpt lat="43.6478" lon="3.34759">
        <ele>181.6</ele>
        <time>2026-05-17T12:01:04.999Z</time>
      </trkpt>
      <trkpt lat="43.64779" lon="3.34758">
        <ele>181.8</ele>
        <time>2026-05-17T12:01:05.999Z</time>
      </trkpt>
      <trkpt lat="43.64778" lon="3.34757">
        <ele>181.7</ele>
        <time>2026-05-17T12:01:06.999Z</time>
      </trkpt>
      <trkpt lat="43.64778" lon="3.34755">
        <ele>181.8</ele>
        <time>2026-05-17T12:01:07.999Z</time>
      </trkpt>
      <trkpt lat="43.64777" lon="3.34754">
        <ele>182.1</ele>
        <time>2026-05-17T12:01:08.999Z</time>
      </trkpt>
      <trkpt lat="43.64776" lon="3.34753">
        <ele>182</ele>
        <time>2026-05-17T12:01:09.999Z</time>
      </trkpt>
      <trkpt lat="43.64776" lon="3.34752">
        <ele>182.6</ele>
        <time>2026-05-17T12:01:11.000Z</time>
      </trkpt>
      <trkpt lat="43.64776" lon="3.34752">
        <ele>182.5</ele>
        <time>2026-05-17T12:01:12.000Z</time>
      </trkpt>
      <trkpt lat="43.64775" lon="3.34751">
        <ele>182.5</ele>
        <time>2026-05-17T12:01:13.000Z</time>
      </trkpt>
      <trkpt lat="43.64775" lon="3.34749">
        <ele>182.5</ele>
        <time>2026-05-17T12:01:14.000Z</time>
      </trkpt>
      <trkpt lat="43.64774" lon="3.34748">
        <ele>182.8</ele>
        <time>2026-05-17T12:01:15.000Z</time>
      </trkpt>
      <trkpt lat="43.64774" lon="3.34748">
        <ele>182.5</ele>
        <time>2026-05-17T12:01:16.000Z</time>
      </trkpt>
      <trkpt lat="43.64775" lon="3.34749">
        <ele>182.3</ele>
        <time>2026-05-17T12:01:17.000Z</time>
      </trkpt>
      <trkpt lat="43.64775" lon="3.3475">
        <ele>182.4</ele>
        <time>2026-05-17T12:01:18.000Z</time>
      </trkpt>
      <trkpt lat="43.64775" lon="3.34749">
        <ele>182.5</ele>
        <time>2026-05-17T12:01:19.000Z</time>
      </trkpt>
      <trkpt lat="43.64775" lon="3.34749">
        <ele>182.7</ele>
        <time>2026-05-17T12:01:20.000Z</time>
      </trkpt>
      <trkpt lat="43.64775" lon="3.34748">
        <ele>182.4</ele>
        <time>2026-05-17T12:01:21.000Z</time>
      </trkpt>
      <trkpt lat="43.64774" lon="3.34746">
        <ele>182.5</ele>
        <time>2026-05-17T12:01:22.000Z</time>
      </trkpt>
      <trkpt lat="43.64773" lon="3.34745">
        <ele>182.5</ele>
        <time>2026-05-17T12:01:23.000Z</time>
      </trkpt>
      <trkpt lat="43.64773" lon="3.34744">
        <ele>182.5</ele>
        <time>2026-05-17T12:01:24.000Z</time>
      </trkpt>
      <trkpt lat="43.64772" lon="3.34742">
        <ele>182.5</ele>
        <time>2026-05-17T12:01:25.000Z</time>
      </trkpt>
      <trkpt lat="43.64771" lon="3.3474">
        <ele>182.9</ele>
        <time>2026-05-17T12:01:26.000Z</time>
      </trkpt>
      <trkpt lat="43.6477" lon="3.34739">
        <ele>182.6</ele>
        <time>2026-05-17T12:01:27.000Z</time>
      </trkpt>
      <trkpt lat="43.6477" lon="3.34737">
        <ele>183</ele>
        <time>2026-05-17T12:01:28.000Z</time>
      </trkpt>
      <trkpt lat="43.64769" lon="3.34736">
        <ele>183.1</ele>
        <time>2026-05-17T12:01:29.000Z</time>
      </trkpt>
      <trkpt lat="43.64769" lon="3.34735">
        <ele>183.2</ele>
        <time>2026-05-17T12:01:30.000Z</time>
      </trkpt>
      <trkpt lat="43.64769" lon="3.34734">
        <ele>183.5</ele>
        <time>2026-05-17T12:01:31.000Z</time>
      </trkpt>
      <trkpt lat="43.64768" lon="3.34732">
        <ele>183.7</ele>
        <time>2026-05-17T12:01:32.000Z</time>
      </trkpt>
      <trkpt lat="43.64768" lon="3.34731">
        <ele>183.8</ele>
        <time>2026-05-17T12:01:33.000Z</time>
      </trkpt>
      <trkpt lat="43.64767" lon="3.3473">
        <ele>183.8</ele>
        <time>2026-05-17T12:01:34.000Z</time>
      </trkpt>
      <trkpt lat="43.64767" lon="3.34729">
        <ele>184.1</ele>
        <time>2026-05-17T12:01:35.000Z</time>
      </trkpt>
      <trkpt lat="43.64767" lon="3.34728">
        <ele>184.4</ele>
        <time>2026-05-17T12:01:36.000Z</time>
      </trkpt>
      <trkpt lat="43.64766" lon="3.34727">
        <ele>184.6</ele>
        <time>2026-05-17T12:01:37.000Z</time>
      </trkpt>
      <trkpt lat="43.64766" lon="3.34725">
        <ele>184.8</ele>
        <time>2026-05-17T12:01:38.000Z</time>
      </trkpt>
      <trkpt lat="43.64765" lon="3.34725">
        <ele>185.4</ele>
        <time>2026-05-17T12:01:39.000Z</time>
      </trkpt>
      <trkpt lat="43.64765" lon="3.34724">
        <ele>185.4</ele>
        <time>2026-05-17T12:01:40.000Z</time>
      </trkpt>
      <trkpt lat="43.64764" lon="3.34722">
        <ele>185.1</ele>
        <time>2026-05-17T12:01:41.000Z</time>
      </trkpt>
      <trkpt lat="43.64764" lon="3.3472">
        <ele>185</ele>
        <time>2026-05-17T12:01:42.000Z</time>
      </trkpt>
      <trkpt lat="43.64763" lon="3.34719">
        <ele>184.7</ele>
        <time>2026-05-17T12:01:43.000Z</time>
      </trkpt>
      <trkpt lat="43.64763" lon="3.34718">
        <ele>184.4</ele>
        <time>2026-05-17T12:01:44.000Z</time>
      </trkpt>
      <trkpt lat="43.64762" lon="3.34717">
        <ele>184.6</ele>
        <time>2026-05-17T12:01:45.000Z</time>
      </trkpt>
      <trkpt lat="43.64762" lon="3.34717">
        <ele>184.6</ele>
        <time>2026-05-17T12:01:46.000Z</time>
      </trkpt>
      <trkpt lat="43.64762" lon="3.34716">
        <ele>184.3</ele>
        <time>2026-05-17T12:01:47.000Z</time>
      </trkpt>
      <trkpt lat="43.64761" lon="3.34714">
        <ele>183.9</ele>
        <time>2026-05-17T12:01:48.000Z</time>
      </trkpt>
      <trkpt lat="43.64761" lon="3.34712">
        <ele>183.7</ele>
        <time>2026-05-17T12:01:49.000Z</time>
      </trkpt>
      <trkpt lat="43.64761" lon="3.3471">
        <ele>183.5</ele>
        <time>2026-05-17T12:01:50.000Z</time>
      </trkpt>
      <trkpt lat="43.64761" lon="3.34708">
        <ele>183.1</ele>
        <time>2026-05-17T12:01:51.000Z</time>
      </trkpt>
      <trkpt lat="43.64761" lon="3.34708">
        <ele>183</ele>
        <time>2026-05-17T12:01:52.000Z</time>
      </trkpt>
      <trkpt lat="43.64761" lon="3.34707">
        <ele>182.9</ele>
        <time>2026-05-17T12:01:53.000Z</time>
      </trkpt>
      <trkpt lat="43.64761" lon="3.34706">
        <ele>183.1</ele>
        <time>2026-05-17T12:01:54.000Z</time>
      </trkpt>
      <trkpt lat="43.64761" lon="3.34706">
        <ele>182.9</ele>
        <time>2026-05-17T12:01:55.000Z</time>
      </trkpt>
      <trkpt lat="43.64761" lon="3.34706">
        <ele>182.4</ele>
        <time>2026-05-17T12:01:56.000Z</time>
      </trkpt>
      <trkpt lat="43.64761" lon="3.34706">
        <ele>182.2</ele>
        <time>2026-05-17T12:01:57.000Z</time>
      </trkpt>
      <trkpt lat="43.64761" lon="3.34706">
        <ele>182.4</ele>
        <time>2026-05-17T12:01:58.000Z</time>
      </trkpt>
      <trkpt lat="43.64761" lon="3.34706">
        <ele>182.2</ele>
        <time>2026-05-17T12:01:59.000Z</time>
      </trkpt>
      <trkpt lat="43.64761" lon="3.34706">
        <ele>181.9</ele>
        <time>2026-05-17T12:02:00.000Z</time>
      </trkpt>
      <trkpt lat="43.64761" lon="3.34706">
        <ele>182.3</ele>
        <time>2026-05-17T12:02:01.000Z</time>
      </trkpt>
      <trkpt lat="43.64761" lon="3.34706">
        <ele>182.2</ele>
        <time>2026-05-17T12:02:02.000Z</time>
      </trkpt>
      <trkpt lat="43.64761" lon="3.34706">
        <ele>182.3</ele>
        <time>2026-05-17T12:02:03.000Z</time>
      </trkpt>
      <trkpt lat="43.64761" lon="3.34706">
        <ele>182.2</ele>
        <time>2026-05-17T12:02:04.000Z</time>
      </trkpt>
      <trkpt lat="43.64761" lon="3.34706">
        <ele>181.9</ele>
        <time>2026-05-17T12:02:05.000Z</time>
      </trkpt>
      <trkpt lat="43.64761" lon="3.34706">
        <ele>182</ele>
        <time>2026-05-17T12:02:06.000Z</time>
      </trkpt>
      <trkpt lat="43.64761" lon="3.34706">
        <ele>182.1</ele>
        <time>2026-05-17T12:02:07.000Z</time>
      </trkpt>
      <trkpt lat="43.64761" lon="3.34706">
        <ele>182.3</ele>
        <time>2026-05-17T12:02:08.000Z</time>
      </trkpt>
      <trkpt lat="43.64761" lon="3.34706">
        <ele>182.6</ele>
        <time>2026-05-17T12:02:09.000Z</time>
      </trkpt>
      <trkpt lat="43.64761" lon="3.34706">
        <ele>182.4</ele>
        <time>2026-05-17T12:02:10.000Z</time>
      </trkpt>
      <trkpt lat="43.64761" lon="3.34706">
        <ele>182.4</ele>
        <time>2026-05-17T12:02:11.000Z</time>
      </trkpt>
      <trkpt lat="43.64761" lon="3.34706">
        <ele>182.8</ele>
        <time>2026-05-17T12:02:12.000Z</time>
      </trkpt>
      <trkpt lat="43.64761" lon="3.34705">
        <ele>183</ele>
        <time>2026-05-17T12:02:13.000Z</time>
      </trkpt>
      <trkpt lat="43.64761" lon="3.34705">
        <ele>183.1</ele>
        <time>2026-05-17T12:02:14.000Z</time>
      </trkpt>
      <trkpt lat="43.64761" lon="3.34703">
        <ele>183.6</ele>
        <time>2026-05-17T12:02:15.000Z</time>
      </trkpt>
      <trkpt lat="43.6476" lon="3.34702">
        <ele>183.6</ele>
        <time>2026-05-17T12:02:16.000Z</time>
      </trkpt>
      <trkpt lat="43.6476" lon="3.34701">
        <ele>183.5</ele>
        <time>2026-05-17T12:02:17.000Z</time>
      </trkpt>
      <trkpt lat="43.6476" lon="3.347">
        <ele>183.2</ele>
        <time>2026-05-17T12:02:18.000Z</time>
      </trkpt>
      <trkpt lat="43.6476" lon="3.34695">
        <ele>183.6</ele>
        <time>2026-05-17T12:02:20.000Z</time>
      </trkpt>
      <trkpt lat="43.6476" lon="3.34692">
        <ele>183.7</ele>
        <time>2026-05-17T12:02:21.000Z</time>
      </trkpt>
      <trkpt lat="43.6476" lon="3.34691">
        <ele>183.7</ele>
        <time>2026-05-17T12:02:22.000Z</time>
      </trkpt>
      <trkpt lat="43.64759" lon="3.3469">
        <ele>183.3</ele>
        <time>2026-05-17T12:02:23.000Z</time>
      </trkpt>
      <trkpt lat="43.64759" lon="3.34689">
        <ele>184</ele>
        <time>2026-05-17T12:02:24.000Z</time>
      </trkpt>
      <trkpt lat="43.64758" lon="3.34687">
        <ele>184.2</ele>
        <time>2026-05-17T12:02:25.000Z</time>
      </trkpt>
      <trkpt lat="43.64759" lon="3.34687">
        <ele>184.6</ele>
        <time>2026-05-17T12:02:26.000Z</time>
      </trkpt>
      <trkpt lat="43.64759" lon="3.34686">
        <ele>184.5</ele>
        <time>2026-05-17T12:02:27.000Z</time>
      </trkpt>
      <trkpt lat="43.64759" lon="3.34685">
        <ele>184.7</ele>
        <time>2026-05-17T12:02:28.000Z</time>
      </trkpt>
      <trkpt lat="43.64758" lon="3.34684">
        <ele>185.4</ele>
        <time>2026-05-17T12:02:29.000Z</time>
      </trkpt>
      <trkpt lat="43.64758" lon="3.34683">
        <ele>185.8</ele>
        <time>2026-05-17T12:02:30.000Z</time>
      </trkpt>
      <trkpt lat="43.64758" lon="3.34683">
        <ele>184.6</ele>
        <time>2026-05-17T12:02:31.000Z</time>
      </trkpt>
      <trkpt lat="43.64758" lon="3.34683">
        <ele>184.3</ele>
        <time>2026-05-17T12:02:32.000Z</time>
      </trkpt>
      <trkpt lat="43.64758" lon="3.34683">
        <ele>184.2</ele>
        <time>2026-05-17T12:02:33.000Z</time>
      </trkpt>
      <trkpt lat="43.64758" lon="3.34683">
        <ele>184.1</ele>
        <time>2026-05-17T12:02:34.000Z</time>
      </trkpt>
      <trkpt lat="43.64758" lon="3.34683">
        <ele>183.8</ele>
        <time>2026-05-17T12:02:35.000Z</time>
      </trkpt>
      <trkpt lat="43.64758" lon="3.34683">
        <ele>183.8</ele>
        <time>2026-05-17T12:02:36.000Z</time>
      </trkpt>
      <trkpt lat="43.64757" lon="3.34682">
        <ele>183.7</ele>
        <time>2026-05-17T12:02:37.000Z</time>
      </trkpt>
      <trkpt lat="43.64757" lon="3.34681">
        <ele>183.5</ele>
        <time>2026-05-17T12:02:38.000Z</time>
      </trkpt>
      <trkpt lat="43.64757" lon="3.3468">
        <ele>183.4</ele>
        <time>2026-05-17T12:02:39.000Z</time>
      </trkpt>
      <trkpt lat="43.64756" lon="3.34679">
        <ele>183.2</ele>
        <time>2026-05-17T12:02:40.000Z</time>
      </trkpt>
      <trkpt lat="43.64756" lon="3.34679">
        <ele>184.2</ele>
        <time>2026-05-17T12:02:41.000Z</time>
      </trkpt>
      <trkpt lat="43.64756" lon="3.34678">
        <ele>184.1</ele>
        <time>2026-05-17T12:02:42.000Z</time>
      </trkpt>
      <trkpt lat="43.64756" lon="3.34678">
        <ele>184.1</ele>
        <time>2026-05-17T12:02:43.000Z</time>
      </trkpt>
      <trkpt lat="43.64755" lon="3.34678">
        <ele>183.9</ele>
        <time>2026-05-17T12:02:44.000Z</time>
      </trkpt>
      <trkpt lat="43.64754" lon="3.34678">
        <ele>183.7</ele>
        <time>2026-05-17T12:02:45.000Z</time>
      </trkpt>
      <trkpt lat="43.64754" lon="3.34678">
        <ele>183.7</ele>
        <time>2026-05-17T12:02:46.000Z</time>
      </trkpt>
      <trkpt lat="43.64754" lon="3.34678">
        <ele>183.8</ele>
        <time>2026-05-17T12:02:47.000Z</time>
      </trkpt>
      <trkpt lat="43.64754" lon="3.34678">
        <ele>183.6</ele>
        <time>2026-05-17T12:02:48.000Z</time>
      </trkpt>
      <trkpt lat="43.64754" lon="3.34677">
        <ele>183.4</ele>
        <time>2026-05-17T12:02:49.000Z</time>
      </trkpt>
      <trkpt lat="43.64754" lon="3.34676">
        <ele>183</ele>
        <time>2026-05-17T12:02:50.000Z</time>
      </trkpt>
      <trkpt lat="43.64753" lon="3.34675">
        <ele>182.7</ele>
        <time>2026-05-17T12:02:51.000Z</time>
      </trkpt>
      <trkpt lat="43.64753" lon="3.34673">
        <ele>182.2</ele>
        <time>2026-05-17T12:02:52.000Z</time>
      </trkpt>
      <trkpt lat="43.64753" lon="3.3467">
        <ele>181.7</ele>
        <time>2026-05-17T12:02:53.000Z</time>
      </trkpt>
      <trkpt lat="43.64752" lon="3.34668">
        <ele>181.8</ele>
        <time>2026-05-17T12:02:54.000Z</time>
      </trkpt>
      <trkpt lat="43.64751" lon="3.34667">
        <ele>182</ele>
        <time>2026-05-17T12:02:55.000Z</time>
      </trkpt>
      <trkpt lat="43.6475" lon="3.34665">
        <ele>181.8</ele>
        <time>2026-05-17T12:02:56.000Z</time>
      </trkpt>
      <trkpt lat="43.64749" lon="3.34663">
        <ele>182</ele>
        <time>2026-05-17T12:02:57.000Z</time>
      </trkpt>
      <trkpt lat="43.64748" lon="3.3466">
        <ele>182.1</ele>
        <time>2026-05-17T12:02:58.000Z</time>
      </trkpt>
      <trkpt lat="43.64747" lon="3.34658">
        <ele>182.3</ele>
        <time>2026-05-17T12:02:59.000Z</time>
      </trkpt>
      <trkpt lat="43.64745" lon="3.34656">
        <ele>182.3</ele>
        <time>2026-05-17T12:03:00.000Z</time>
      </trkpt>
      <trkpt lat="43.64744" lon="3.34654">
        <ele>183</ele>
        <time>2026-05-17T12:03:01.000Z</time>
      </trkpt>
      <trkpt lat="43.64743" lon="3.34654">
        <ele>182.9</ele>
        <time>2026-05-17T12:03:02.000Z</time>
      </trkpt>
      <trkpt lat="43.64743" lon="3.34653">
        <ele>182.8</ele>
        <time>2026-05-17T12:03:03.000Z</time>
      </trkpt>
      <trkpt lat="43.64742" lon="3.34653">
        <ele>182.6</ele>
        <time>2026-05-17T12:03:04.000Z</time>
      </trkpt>
      <trkpt lat="43.64742" lon="3.34651">
        <ele>182.7</ele>
        <time>2026-05-17T12:03:05.000Z</time>
      </trkpt>
      <trkpt lat="43.64741" lon="3.3465">
        <ele>183.1</ele>
        <time>2026-05-17T12:03:06.000Z</time>
      </trkpt>
      <trkpt lat="43.6474" lon="3.34648">
        <ele>183.1</ele>
        <time>2026-05-17T12:03:07.000Z</time>
      </trkpt>
      <trkpt lat="43.6474" lon="3.34647">
        <ele>183</ele>
        <time>2026-05-17T12:03:08.000Z</time>
      </trkpt>
      <trkpt lat="43.64739" lon="3.34645">
        <ele>182.9</ele>
        <time>2026-05-17T12:03:09.000Z</time>
      </trkpt>
      <trkpt lat="43.64739" lon="3.34643">
        <ele>182.9</ele>
        <time>2026-05-17T12:03:10.000Z</time>
      </trkpt>
      <trkpt lat="43.64738" lon="3.34641">
        <ele>183</ele>
        <time>2026-05-17T12:03:11.000Z</time>
      </trkpt>
      <trkpt lat="43.64738" lon="3.3464">
        <ele>183.4</ele>
        <time>2026-05-17T12:03:12.000Z</time>
      </trkpt>
      <trkpt lat="43.64738" lon="3.34639">
        <ele>183.6</ele>
        <time>2026-05-17T12:03:13.000Z</time>
      </trkpt>
      <trkpt lat="43.64737" lon="3.34638">
        <ele>183.6</ele>
        <time>2026-05-17T12:03:14.000Z</time>
      </trkpt>
      <trkpt lat="43.64737" lon="3.34637">
        <ele>183.4</ele>
        <time>2026-05-17T12:03:15.000Z</time>
      </trkpt>
      <trkpt lat="43.64737" lon="3.34635">
        <ele>183</ele>
        <time>2026-05-17T12:03:16.000Z</time>
      </trkpt>
      <trkpt lat="43.64737" lon="3.34634">
        <ele>182.8</ele>
        <time>2026-05-17T12:03:17.000Z</time>
      </trkpt>
      <trkpt lat="43.64738" lon="3.34632">
        <ele>182.9</ele>
        <time>2026-05-17T12:03:18.000Z</time>
      </trkpt>
      <trkpt lat="43.64738" lon="3.34631">
        <ele>182.5</ele>
        <time>2026-05-17T12:03:19.000Z</time>
      </trkpt>
      <trkpt lat="43.64737" lon="3.3463">
        <ele>182.2</ele>
        <time>2026-05-17T12:03:20.000Z</time>
      </trkpt>
      <trkpt lat="43.64737" lon="3.34628">
        <ele>181.6</ele>
        <time>2026-05-17T12:03:21.000Z</time>
      </trkpt>
      <trkpt lat="43.64737" lon="3.34627">
        <ele>181.7</ele>
        <time>2026-05-17T12:03:22.000Z</time>
      </trkpt>
      <trkpt lat="43.64737" lon="3.34626">
        <ele>182.1</ele>
        <time>2026-05-17T12:03:23.000Z</time>
      </trkpt>
      <trkpt lat="43.64737" lon="3.34624">
        <ele>182.5</ele>
        <time>2026-05-17T12:03:24.000Z</time>
      </trkpt>
      <trkpt lat="43.64737" lon="3.34623">
        <ele>182.6</ele>
        <time>2026-05-17T12:03:25.000Z</time>
      </trkpt>
      <trkpt lat="43.64737" lon="3.34622">
        <ele>182.5</ele>
        <time>2026-05-17T12:03:26.000Z</time>
      </trkpt>
      <trkpt lat="43.64737" lon="3.34621">
        <ele>182.3</ele>
        <time>2026-05-17T12:03:27.000Z</time>
      </trkpt>
      <trkpt lat="43.64737" lon="3.34619">
        <ele>182.2</ele>
        <time>2026-05-17T12:03:28.000Z</time>
      </trkpt>
      <trkpt lat="43.64736" lon="3.34617">
        <ele>181.9</ele>
        <time>2026-05-17T12:03:29.000Z</time>
      </trkpt>
      <trkpt lat="43.64736" lon="3.34617">
        <ele>182</ele>
        <time>2026-05-17T12:03:30.000Z</time>
      </trkpt>
      <trkpt lat="43.64737" lon="3.34616">
        <ele>182.1</ele>
        <time>2026-05-17T12:03:31.000Z</time>
      </trkpt>
      <trkpt lat="43.64737" lon="3.34614">
        <ele>181.9</ele>
        <time>2026-05-17T12:03:32.000Z</time>
      </trkpt>
      <trkpt lat="43.64737" lon="3.34612">
        <ele>181.8</ele>
        <time>2026-05-17T12:03:33.000Z</time>
      </trkpt>
      <trkpt lat="43.64737" lon="3.34611">
        <ele>182.1</ele>
        <time>2026-05-17T12:03:34.000Z</time>
      </trkpt>
      <trkpt lat="43.64737" lon="3.3461">
        <ele>182.6</ele>
        <time>2026-05-17T12:03:35.000Z</time>
      </trkpt>
      <trkpt lat="43.64736" lon="3.34609">
        <ele>182.9</ele>
        <time>2026-05-17T12:03:36.000Z</time>
      </trkpt>
      <trkpt lat="43.64735" lon="3.34606">
        <ele>182.8</ele>
        <time>2026-05-17T12:03:37.000Z</time>
      </trkpt>
      <trkpt lat="43.64734" lon="3.34605">
        <ele>182.7</ele>
        <time>2026-05-17T12:03:38.000Z</time>
      </trkpt>
      <trkpt lat="43.64733" lon="3.34604">
        <ele>182.5</ele>
        <time>2026-05-17T12:03:39.000Z</time>
      </trkpt>
      <trkpt lat="43.64732" lon="3.34603">
        <ele>182.4</ele>
        <time>2026-05-17T12:03:40.000Z</time>
      </trkpt>
      <trkpt lat="43.64731" lon="3.34602">
        <ele>182.4</ele>
        <time>2026-05-17T12:03:41.000Z</time>
      </trkpt>
      <trkpt lat="43.6473" lon="3.346">
        <ele>182.4</ele>
        <time>2026-05-17T12:03:42.000Z</time>
      </trkpt>
      <trkpt lat="43.6473" lon="3.34599">
        <ele>182.4</ele>
        <time>2026-05-17T12:03:43.000Z</time>
      </trkpt>
      <trkpt lat="43.64729" lon="3.34598">
        <ele>182.5</ele>
        <time>2026-05-17T12:03:44.000Z</time>
      </trkpt>
      <trkpt lat="43.64728" lon="3.34597">
        <ele>182.7</ele>
        <time>2026-05-17T12:03:45.000Z</time>
      </trkpt>
      <trkpt lat="43.64728" lon="3.34595">
        <ele>183.1</ele>
        <time>2026-05-17T12:03:46.000Z</time>
      </trkpt>
      <trkpt lat="43.64728" lon="3.34594">
        <ele>182.9</ele>
        <time>2026-05-17T12:03:47.000Z</time>
      </trkpt>
      <trkpt lat="43.64729" lon="3.34592">
        <ele>183.1</ele>
        <time>2026-05-17T12:03:48.000Z</time>
      </trkpt>
      <trkpt lat="43.6473" lon="3.34591">
        <ele>183.5</ele>
        <time>2026-05-17T12:03:49.000Z</time>
      </trkpt>
      <trkpt lat="43.6473" lon="3.34589">
        <ele>183.5</ele>
        <time>2026-05-17T12:03:50.000Z</time>
      </trkpt>
      <trkpt lat="43.6473" lon="3.34587">
        <ele>183.4</ele>
        <time>2026-05-17T12:03:51.000Z</time>
      </trkpt>
      <trkpt lat="43.6473" lon="3.34586">
        <ele>183.3</ele>
        <time>2026-05-17T12:03:52.000Z</time>
      </trkpt>
      <trkpt lat="43.64729" lon="3.34584">
        <ele>183.6</ele>
        <time>2026-05-17T12:03:53.000Z</time>
      </trkpt>
      <trkpt lat="43.64729" lon="3.34582">
        <ele>184.1</ele>
        <time>2026-05-17T12:03:54.000Z</time>
      </trkpt>
      <trkpt lat="43.64729" lon="3.34581">
        <ele>183.9</ele>
        <time>2026-05-17T12:03:55.000Z</time>
      </trkpt>
      <trkpt lat="43.64729" lon="3.3458">
        <ele>184.3</ele>
        <time>2026-05-17T12:03:56.000Z</time>
      </trkpt>
      <trkpt lat="43.64729" lon="3.34579">
        <ele>184.4</ele>
        <time>2026-05-17T12:03:57.000Z</time>
      </trkpt>
      <trkpt lat="43.6473" lon="3.34578">
        <ele>184.8</ele>
        <time>2026-05-17T12:03:58.000Z</time>
      </trkpt>
      <trkpt lat="43.6473" lon="3.34576">
        <ele>184.9</ele>
        <time>2026-05-17T12:03:59.000Z</time>
      </trkpt>
      <trkpt lat="43.6473" lon="3.34576">
        <ele>184.6</ele>
        <time>2026-05-17T12:04:00.000Z</time>
      </trkpt>
      <trkpt lat="43.6473" lon="3.34575">
        <ele>184.7</ele>
        <time>2026-05-17T12:04:01.000Z</time>
      </trkpt>
      <trkpt lat="43.6473" lon="3.34574">
        <ele>185</ele>
        <time>2026-05-17T12:04:02.000Z</time>
      </trkpt>
      <trkpt lat="43.64731" lon="3.34573">
        <ele>185.2</ele>
        <time>2026-05-17T12:04:03.000Z</time>
      </trkpt>
      <trkpt lat="43.64731" lon="3.34572">
        <ele>185.4</ele>
        <time>2026-05-17T12:04:04.000Z</time>
      </trkpt>
      <trkpt lat="43.64732" lon="3.3457">
        <ele>185.4</ele>
        <time>2026-05-17T12:04:05.000Z</time>
      </trkpt>
      <trkpt lat="43.64732" lon="3.34569">
        <ele>184.9</ele>
        <time>2026-05-17T12:04:06.000Z</time>
      </trkpt>
      <trkpt lat="43.64732" lon="3.34568">
        <ele>184.7</ele>
        <time>2026-05-17T12:04:07.000Z</time>
      </trkpt>
      <trkpt lat="43.64732" lon="3.34566">
        <ele>184.6</ele>
        <time>2026-05-17T12:04:08.000Z</time>
      </trkpt>
      <trkpt lat="43.64733" lon="3.34565">
        <ele>184.4</ele>
        <time>2026-05-17T12:04:09.000Z</time>
      </trkpt>
      <trkpt lat="43.64733" lon="3.34564">
        <ele>184.2</ele>
        <time>2026-05-17T12:04:10.000Z</time>
      </trkpt>
      <trkpt lat="43.64733" lon="3.34563">
        <ele>184.3</ele>
        <time>2026-05-17T12:04:11.000Z</time>
      </trkpt>
      <trkpt lat="43.64733" lon="3.34562">
        <ele>184.2</ele>
        <time>2026-05-17T12:04:12.000Z</time>
      </trkpt>
      <trkpt lat="43.64732" lon="3.34563">
        <ele>184</ele>
        <time>2026-05-17T12:04:13.000Z</time>
      </trkpt>
      <trkpt lat="43.64731" lon="3.34563">
        <ele>183.4</ele>
        <time>2026-05-17T12:04:14.000Z</time>
      </trkpt>
      <trkpt lat="43.64731" lon="3.34563">
        <ele>183.2</ele>
        <time>2026-05-17T12:04:15.000Z</time>
      </trkpt>
      <trkpt lat="43.64731" lon="3.34563">
        <ele>182.9</ele>
        <time>2026-05-17T12:04:16.000Z</time>
      </trkpt>
      <trkpt lat="43.64731" lon="3.34563">
        <ele>183.1</ele>
        <time>2026-05-17T12:04:17.000Z</time>
      </trkpt>
      <trkpt lat="43.64731" lon="3.34563">
        <ele>183.5</ele>
        <time>2026-05-17T12:04:18.000Z</time>
      </trkpt>
      <trkpt lat="43.64731" lon="3.34563">
        <ele>183.6</ele>
        <time>2026-05-17T12:04:19.000Z</time>
      </trkpt>
      <trkpt lat="43.64731" lon="3.34563">
        <ele>183.6</ele>
        <time>2026-05-17T12:04:20.000Z</time>
      </trkpt>
      <trkpt lat="43.64731" lon="3.34563">
        <ele>183.7</ele>
        <time>2026-05-17T12:04:21.000Z</time>
      </trkpt>
      <trkpt lat="43.64731" lon="3.34561">
        <ele>183.9</ele>
        <time>2026-05-17T12:04:22.000Z</time>
      </trkpt>
      <trkpt lat="43.64731" lon="3.34561">
        <ele>183.8</ele>
        <time>2026-05-17T12:04:23.000Z</time>
      </trkpt>
      <trkpt lat="43.64732" lon="3.34559">
        <ele>183.9</ele>
        <time>2026-05-17T12:04:24.000Z</time>
      </trkpt>
      <trkpt lat="43.64732" lon="3.34558">
        <ele>183.9</ele>
        <time>2026-05-17T12:04:25.000Z</time>
      </trkpt>
      <trkpt lat="43.64732" lon="3.34556">
        <ele>183.8</ele>
        <time>2026-05-17T12:04:26.000Z</time>
      </trkpt>
      <trkpt lat="43.64733" lon="3.34556">
        <ele>183.8</ele>
        <time>2026-05-17T12:04:27.000Z</time>
      </trkpt>
      <trkpt lat="43.64734" lon="3.34554">
        <ele>184</ele>
        <time>2026-05-17T12:04:28.000Z</time>
      </trkpt>
      <trkpt lat="43.64734" lon="3.34553">
        <ele>184.1</ele>
        <time>2026-05-17T12:04:29.000Z</time>
      </trkpt>
      <trkpt lat="43.64734" lon="3.34552">
        <ele>184.3</ele>
        <time>2026-05-17T12:04:30.000Z</time>
      </trkpt>
      <trkpt lat="43.64735" lon="3.3455">
        <ele>184.6</ele>
        <time>2026-05-17T12:04:31.000Z</time>
      </trkpt>
      <trkpt lat="43.64736" lon="3.34548">
        <ele>184.7</ele>
        <time>2026-05-17T12:04:32.000Z</time>
      </trkpt>
      <trkpt lat="43.64736" lon="3.34546">
        <ele>184.9</ele>
        <time>2026-05-17T12:04:33.000Z</time>
      </trkpt>
      <trkpt lat="43.64737" lon="3.34545">
        <ele>185</ele>
        <time>2026-05-17T12:04:34.000Z</time>
      </trkpt>
      <trkpt lat="43.64737" lon="3.34544">
        <ele>184.9</ele>
        <time>2026-05-17T12:04:35.000Z</time>
      </trkpt>
      <trkpt lat="43.64738" lon="3.34543">
        <ele>185</ele>
        <time>2026-05-17T12:04:36.000Z</time>
      </trkpt>
      <trkpt lat="43.64738" lon="3.34541">
        <ele>185.1</ele>
        <time>2026-05-17T12:04:37.000Z</time>
      </trkpt>
      <trkpt lat="43.64739" lon="3.34541">
        <ele>185.4</ele>
        <time>2026-05-17T12:04:38.000Z</time>
      </trkpt>
      <trkpt lat="43.64739" lon="3.3454">
        <ele>185.7</ele>
        <time>2026-05-17T12:04:39.000Z</time>
      </trkpt>
      <trkpt lat="43.64739" lon="3.34539">
        <ele>186.1</ele>
        <time>2026-05-17T12:04:40.000Z</time>
      </trkpt>
      <trkpt lat="43.64739" lon="3.34538">
        <ele>186.4</ele>
        <time>2026-05-17T12:04:41.000Z</time>
      </trkpt>
      <trkpt lat="43.64739" lon="3.34537">
        <ele>186.5</ele>
        <time>2026-05-17T12:04:42.000Z</time>
      </trkpt>
      <trkpt lat="43.64739" lon="3.34536">
        <ele>186.5</ele>
        <time>2026-05-17T12:04:43.000Z</time>
      </trkpt>
      <trkpt lat="43.64739" lon="3.34535">
        <ele>186.5</ele>
        <time>2026-05-17T12:04:44.000Z</time>
      </trkpt>
      <trkpt lat="43.64739" lon="3.34534">
        <ele>186.4</ele>
        <time>2026-05-17T12:04:45.000Z</time>
      </trkpt>
      <trkpt lat="43.64739" lon="3.34532">
        <ele>186.5</ele>
        <time>2026-05-17T12:04:46.000Z</time>
      </trkpt>
      <trkpt lat="43.64738" lon="3.3453">
        <ele>186.5</ele>
        <time>2026-05-17T12:04:47.000Z</time>
      </trkpt>
      <trkpt lat="43.64738" lon="3.34529">
        <ele>186.6</ele>
        <time>2026-05-17T12:04:48.000Z</time>
      </trkpt>
      <trkpt lat="43.64738" lon="3.34529">
        <ele>186.5</ele>
        <time>2026-05-17T12:04:49.000Z</time>
      </trkpt>
      <trkpt lat="43.64738" lon="3.34528">
        <ele>186.5</ele>
        <time>2026-05-17T12:04:50.000Z</time>
      </trkpt>
      <trkpt lat="43.64737" lon="3.34527">
        <ele>186.6</ele>
        <time>2026-05-17T12:04:51.000Z</time>
      </trkpt>
      <trkpt lat="43.64737" lon="3.34526">
        <ele>186.9</ele>
        <time>2026-05-17T12:04:52.000Z</time>
      </trkpt>
      <trkpt lat="43.64737" lon="3.34525">
        <ele>187.1</ele>
        <time>2026-05-17T12:04:53.000Z</time>
      </trkpt>
      <trkpt lat="43.64737" lon="3.34523">
        <ele>187.5</ele>
        <time>2026-05-17T12:04:54.000Z</time>
      </trkpt>
      <trkpt lat="43.64736" lon="3.34522">
        <ele>187.2</ele>
        <time>2026-05-17T12:04:55.000Z</time>
      </trkpt>
      <trkpt lat="43.64736" lon="3.3452">
        <ele>186.8</ele>
        <time>2026-05-17T12:04:56.000Z</time>
      </trkpt>
      <trkpt lat="43.64736" lon="3.34518">
        <ele>187</ele>
        <time>2026-05-17T12:04:57.000Z</time>
      </trkpt>
      <trkpt lat="43.64736" lon="3.34516">
        <ele>187.2</ele>
        <time>2026-05-17T12:04:58.000Z</time>
      </trkpt>
      <trkpt lat="43.64736" lon="3.34514">
        <ele>187.6</ele>
        <time>2026-05-17T12:04:59.000Z</time>
      </trkpt>
      <trkpt lat="43.64736" lon="3.34512">
        <ele>187.8</ele>
        <time>2026-05-17T12:05:00.000Z</time>
      </trkpt>
      <trkpt lat="43.64736" lon="3.34511">
        <ele>188</ele>
        <time>2026-05-17T12:05:01.000Z</time>
      </trkpt>
      <trkpt lat="43.64736" lon="3.34509">
        <ele>188</ele>
        <time>2026-05-17T12:05:02.000Z</time>
      </trkpt>
      <trkpt lat="43.64737" lon="3.34507">
        <ele>187.8</ele>
        <time>2026-05-17T12:05:03.000Z</time>
      </trkpt>
      <trkpt lat="43.64737" lon="3.34505">
        <ele>187.6</ele>
        <time>2026-05-17T12:05:04.000Z</time>
      </trkpt>
      <trkpt lat="43.64737" lon="3.34504">
        <ele>187.6</ele>
        <time>2026-05-17T12:05:05.000Z</time>
      </trkpt>
      <trkpt lat="43.64737" lon="3.34503">
        <ele>187.7</ele>
        <time>2026-05-17T12:05:06.000Z</time>
      </trkpt>
      <trkpt lat="43.64737" lon="3.34502">
        <ele>187.8</ele>
        <time>2026-05-17T12:05:07.000Z</time>
      </trkpt>
      <trkpt lat="43.64738" lon="3.34501">
        <ele>187.6</ele>
        <time>2026-05-17T12:05:08.000Z</time>
      </trkpt>
      <trkpt lat="43.64737" lon="3.34499">
        <ele>187.6</ele>
        <time>2026-05-17T12:05:09.000Z</time>
      </trkpt>
      <trkpt lat="43.64738" lon="3.34497">
        <ele>187.5</ele>
        <time>2026-05-17T12:05:10.000Z</time>
      </trkpt>
      <trkpt lat="43.64737" lon="3.34497">
        <ele>187.6</ele>
        <time>2026-05-17T12:05:11.000Z</time>
      </trkpt>
      <trkpt lat="43.64737" lon="3.34496">
        <ele>187.6</ele>
        <time>2026-05-17T12:05:12.000Z</time>
      </trkpt>
      <trkpt lat="43.64736" lon="3.34494">
        <ele>188.2</ele>
        <time>2026-05-17T12:05:13.000Z</time>
      </trkpt>
      <trkpt lat="43.64737" lon="3.34493">
        <ele>188.2</ele>
        <time>2026-05-17T12:05:14.000Z</time>
      </trkpt>
      <trkpt lat="43.64737" lon="3.34492">
        <ele>188.8</ele>
        <time>2026-05-17T12:05:15.000Z</time>
      </trkpt>
      <trkpt lat="43.64737" lon="3.34491">
        <ele>189.1</ele>
        <time>2026-05-17T12:05:16.000Z</time>
      </trkpt>
      <trkpt lat="43.64737" lon="3.3449">
        <ele>189.1</ele>
        <time>2026-05-17T12:05:17.000Z</time>
      </trkpt>
      <trkpt lat="43.64738" lon="3.34489">
        <ele>189.3</ele>
        <time>2026-05-17T12:05:18.000Z</time>
      </trkpt>
      <trkpt lat="43.64738" lon="3.34488">
        <ele>189.3</ele>
        <time>2026-05-17T12:05:19.000Z</time>
      </trkpt>
      <trkpt lat="43.64738" lon="3.34486">
        <ele>189.5</ele>
        <time>2026-05-17T12:05:20.000Z</time>
      </trkpt>
      <trkpt lat="43.64739" lon="3.34484">
        <ele>189.6</ele>
        <time>2026-05-17T12:05:21.000Z</time>
      </trkpt>
      <trkpt lat="43.64739" lon="3.34482">
        <ele>189.5</ele>
        <time>2026-05-17T12:05:22.000Z</time>
      </trkpt>
      <trkpt lat="43.64739" lon="3.34481">
        <ele>189.6</ele>
        <time>2026-05-17T12:05:23.000Z</time>
      </trkpt>
      <trkpt lat="43.64739" lon="3.34479">
        <ele>189.5</ele>
        <time>2026-05-17T12:05:24.000Z</time>
      </trkpt>
      <trkpt lat="43.64738" lon="3.34478">
        <ele>189.7</ele>
        <time>2026-05-17T12:05:25.000Z</time>
      </trkpt>
      <trkpt lat="43.64738" lon="3.34476">
        <ele>189.6</ele>
        <time>2026-05-17T12:05:26.000Z</time>
      </trkpt>
      <trkpt lat="43.64738" lon="3.34474">
        <ele>189.1</ele>
        <time>2026-05-17T12:05:27.000Z</time>
      </trkpt>
      <trkpt lat="43.64738" lon="3.34472">
        <ele>188.9</ele>
        <time>2026-05-17T12:05:28.000Z</time>
      </trkpt>
      <trkpt lat="43.64738" lon="3.34471">
        <ele>188.8</ele>
        <time>2026-05-17T12:05:29.000Z</time>
      </trkpt>
      <trkpt lat="43.64738" lon="3.34469">
        <ele>188.6</ele>
        <time>2026-05-17T12:05:30.000Z</time>
      </trkpt>
      <trkpt lat="43.64738" lon="3.34467">
        <ele>188.4</ele>
        <time>2026-05-17T12:05:31.000Z</time>
      </trkpt>
      <trkpt lat="43.64738" lon="3.34464">
        <ele>188.4</ele>
        <time>2026-05-17T12:05:32.000Z</time>
      </trkpt>
      <trkpt lat="43.64739" lon="3.34462">
        <ele>188.5</ele>
        <time>2026-05-17T12:05:33.000Z</time>
      </trkpt>
      <trkpt lat="43.64739" lon="3.3446">
        <ele>188.6</ele>
        <time>2026-05-17T12:05:34.000Z</time>
      </trkpt>
      <trkpt lat="43.64739" lon="3.34458">
        <ele>188.4</ele>
        <time>2026-05-17T12:05:35.000Z</time>
      </trkpt>
      <trkpt lat="43.6474" lon="3.34456">
        <ele>188.5</ele>
        <time>2026-05-17T12:05:36.000Z</time>
      </trkpt>
      <trkpt lat="43.6474" lon="3.34455">
        <ele>188.5</ele>
        <time>2026-05-17T12:05:37.000Z</time>
      </trkpt>
      <trkpt lat="43.6474" lon="3.34454">
        <ele>188.5</ele>
        <time>2026-05-17T12:05:38.000Z</time>
      </trkpt>
      <trkpt lat="43.6474" lon="3.34452">
        <ele>188.6</ele>
        <time>2026-05-17T12:05:39.000Z</time>
      </trkpt>
      <trkpt lat="43.64741" lon="3.3445">
        <ele>188.6</ele>
        <time>2026-05-17T12:05:40.000Z</time>
      </trkpt>
      <trkpt lat="43.6474" lon="3.34448">
        <ele>188.5</ele>
        <time>2026-05-17T12:05:41.000Z</time>
      </trkpt>
      <trkpt lat="43.64741" lon="3.34446">
        <ele>188.9</ele>
        <time>2026-05-17T12:05:42.000Z</time>
      </trkpt>
      <trkpt lat="43.64741" lon="3.34445">
        <ele>189</ele>
        <time>2026-05-17T12:05:43.000Z</time>
      </trkpt>
      <trkpt lat="43.64741" lon="3.34445">
        <ele>188.9</ele>
        <time>2026-05-17T12:05:44.000Z</time>
      </trkpt>
      <trkpt lat="43.64741" lon="3.34443">
        <ele>188.8</ele>
        <time>2026-05-17T12:05:45.000Z</time>
      </trkpt>
      <trkpt lat="43.64741" lon="3.34441">
        <ele>188.7</ele>
        <time>2026-05-17T12:05:46.000Z</time>
      </trkpt>
      <trkpt lat="43.64741" lon="3.34438">
        <ele>188.2</ele>
        <time>2026-05-17T12:05:47.000Z</time>
      </trkpt>
      <trkpt lat="43.64741" lon="3.34436">
        <ele>187.7</ele>
        <time>2026-05-17T12:05:48.000Z</time>
      </trkpt>
      <trkpt lat="43.64741" lon="3.34435">
        <ele>187.2</ele>
        <time>2026-05-17T12:05:49.000Z</time>
      </trkpt>
      <trkpt lat="43.6474" lon="3.34434">
        <ele>186.9</ele>
        <time>2026-05-17T12:05:50.000Z</time>
      </trkpt>
      <trkpt lat="43.6474" lon="3.34433">
        <ele>187.1</ele>
        <time>2026-05-17T12:05:51.000Z</time>
      </trkpt>
      <trkpt lat="43.64741" lon="3.3443">
        <ele>186.9</ele>
        <time>2026-05-17T12:05:52.000Z</time>
      </trkpt>
      <trkpt lat="43.64741" lon="3.34428">
        <ele>186.6</ele>
        <time>2026-05-17T12:05:53.000Z</time>
      </trkpt>
      <trkpt lat="43.64741" lon="3.34426">
        <ele>186.8</ele>
        <time>2026-05-17T12:05:54.000Z</time>
      </trkpt>
      <trkpt lat="43.64741" lon="3.34425">
        <ele>186.8</ele>
        <time>2026-05-17T12:05:55.000Z</time>
      </trkpt>
      <trkpt lat="43.64741" lon="3.34424">
        <ele>186.8</ele>
        <time>2026-05-17T12:05:56.000Z</time>
      </trkpt>
      <trkpt lat="43.64741" lon="3.34423">
        <ele>186.9</ele>
        <time>2026-05-17T12:05:57.000Z</time>
      </trkpt>
      <trkpt lat="43.64741" lon="3.34421">
        <ele>186.8</ele>
        <time>2026-05-17T12:05:58.000Z</time>
      </trkpt>
      <trkpt lat="43.64741" lon="3.34419">
        <ele>187</ele>
        <time>2026-05-17T12:05:59.000Z</time>
      </trkpt>
      <trkpt lat="43.64741" lon="3.34417">
        <ele>187.5</ele>
        <time>2026-05-17T12:06:00.000Z</time>
      </trkpt>
      <trkpt lat="43.64741" lon="3.34416">
        <ele>187.8</ele>
        <time>2026-05-17T12:06:01.000Z</time>
      </trkpt>
      <trkpt lat="43.64741" lon="3.34415">
        <ele>188</ele>
        <time>2026-05-17T12:06:02.000Z</time>
      </trkpt>
      <trkpt lat="43.64742" lon="3.34413">
        <ele>188.2</ele>
        <time>2026-05-17T12:06:03.000Z</time>
      </trkpt>
      <trkpt lat="43.64742" lon="3.34412">
        <ele>188.4</ele>
        <time>2026-05-17T12:06:04.000Z</time>
      </trkpt>
      <trkpt lat="43.64743" lon="3.3441">
        <ele>188.5</ele>
        <time>2026-05-17T12:06:05.000Z</time>
      </trkpt>
      <trkpt lat="43.64743" lon="3.34407">
        <ele>188.7</ele>
        <time>2026-05-17T12:06:06.000Z</time>
      </trkpt>
      <trkpt lat="43.64744" lon="3.34404">
        <ele>189.1</ele>
        <time>2026-05-17T12:06:07.000Z</time>
      </trkpt>
      <trkpt lat="43.64743" lon="3.34403">
        <ele>189.3</ele>
        <time>2026-05-17T12:06:08.000Z</time>
      </trkpt>
      <trkpt lat="43.64743" lon="3.34402">
        <ele>189.2</ele>
        <time>2026-05-17T12:06:09.000Z</time>
      </trkpt>
      <trkpt lat="43.64743" lon="3.34401">
        <ele>189</ele>
        <time>2026-05-17T12:06:10.000Z</time>
      </trkpt>
      <trkpt lat="43.64743" lon="3.34401">
        <ele>189.1</ele>
        <time>2026-05-17T12:06:11.000Z</time>
      </trkpt>
      <trkpt lat="43.64743" lon="3.344">
        <ele>189.2</ele>
        <time>2026-05-17T12:06:12.000Z</time>
      </trkpt>
      <trkpt lat="43.64743" lon="3.34397">
        <ele>189</ele>
        <time>2026-05-17T12:06:13.000Z</time>
      </trkpt>
      <trkpt lat="43.64743" lon="3.34395">
        <ele>188.9</ele>
        <time>2026-05-17T12:06:14.000Z</time>
      </trkpt>
      <trkpt lat="43.64743" lon="3.34393">
        <ele>189</ele>
        <time>2026-05-17T12:06:15.000Z</time>
      </trkpt>
      <trkpt lat="43.64743" lon="3.34392">
        <ele>189.1</ele>
        <time>2026-05-17T12:06:16.000Z</time>
      </trkpt>
      <trkpt lat="43.64743" lon="3.3439">
        <ele>189.7</ele>
        <time>2026-05-17T12:06:17.000Z</time>
      </trkpt>
      <trkpt lat="43.6474" lon="3.3439">
        <ele>192</ele>
        <time>2026-05-17T12:06:18.000Z</time>
      </trkpt>
      <trkpt lat="43.64739" lon="3.3439">
        <ele>193.4</ele>
        <time>2026-05-17T12:06:19.000Z</time>
      </trkpt>
      <trkpt lat="43.64739" lon="3.34389">
        <ele>193.9</ele>
        <time>2026-05-17T12:06:20.000Z</time>
      </trkpt>
      <trkpt lat="43.64739" lon="3.34388">
        <ele>194.1</ele>
        <time>2026-05-17T12:06:21.000Z</time>
      </trkpt>
      <trkpt lat="43.64738" lon="3.34386">
        <ele>194.4</ele>
        <time>2026-05-17T12:06:22.000Z</time>
      </trkpt>
      <trkpt lat="43.64738" lon="3.34385">
        <ele>194.4</ele>
        <time>2026-05-17T12:06:23.000Z</time>
      </trkpt>
      <trkpt lat="43.64739" lon="3.34382">
        <ele>194.7</ele>
        <time>2026-05-17T12:06:24.000Z</time>
      </trkpt>
      <trkpt lat="43.64739" lon="3.3438">
        <ele>195.3</ele>
        <time>2026-05-17T12:06:25.000Z</time>
      </trkpt>
      <trkpt lat="43.64739" lon="3.34377">
        <ele>195.3</ele>
        <time>2026-05-17T12:06:26.000Z</time>
      </trkpt>
      <trkpt lat="43.64739" lon="3.34376">
        <ele>195.4</ele>
        <time>2026-05-17T12:06:27.000Z</time>
      </trkpt>
      <trkpt lat="43.64739" lon="3.34376">
        <ele>195.3</ele>
        <time>2026-05-17T12:06:28.000Z</time>
      </trkpt>
      <trkpt lat="43.6474" lon="3.34374">
        <ele>195.2</ele>
        <time>2026-05-17T12:06:29.000Z</time>
      </trkpt>
      <trkpt lat="43.64741" lon="3.34373">
        <ele>195.1</ele>
        <time>2026-05-17T12:06:30.000Z</time>
      </trkpt>
      <trkpt lat="43.64741" lon="3.34371">
        <ele>194.9</ele>
        <time>2026-05-17T12:06:31.000Z</time>
      </trkpt>
      <trkpt lat="43.6474" lon="3.34371">
        <ele>194.6</ele>
        <time>2026-05-17T12:06:32.000Z</time>
      </trkpt>
      <trkpt lat="43.6474" lon="3.3437">
        <ele>194.5</ele>
        <time>2026-05-17T12:06:33.000Z</time>
      </trkpt>
      <trkpt lat="43.64739" lon="3.34367">
        <ele>194.7</ele>
        <time>2026-05-17T12:06:34.000Z</time>
      </trkpt>
      <trkpt lat="43.64738" lon="3.34365">
        <ele>194.8</ele>
        <time>2026-05-17T12:06:35.000Z</time>
      </trkpt>
      <trkpt lat="43.64738" lon="3.34362">
        <ele>195.1</ele>
        <time>2026-05-17T12:06:36.000Z</time>
      </trkpt>
      <trkpt lat="43.64738" lon="3.34361">
        <ele>195.4</ele>
        <time>2026-05-17T12:06:37.000Z</time>
      </trkpt>
      <trkpt lat="43.64738" lon="3.3436">
        <ele>195.5</ele>
        <time>2026-05-17T12:06:38.000Z</time>
      </trkpt>
      <trkpt lat="43.64739" lon="3.3436">
        <ele>195.3</ele>
        <time>2026-05-17T12:06:39.000Z</time>
      </trkpt>
      <trkpt lat="43.6474" lon="3.3436">
        <ele>195.5</ele>
        <time>2026-05-17T12:06:40.000Z</time>
      </trkpt>
      <trkpt lat="43.64741" lon="3.34358">
        <ele>195.8</ele>
        <time>2026-05-17T12:06:41.000Z</time>
      </trkpt>
      <trkpt lat="43.64742" lon="3.34357">
        <ele>195.9</ele>
        <time>2026-05-17T12:06:42.000Z</time>
      </trkpt>
      <trkpt lat="43.64742" lon="3.34356">
        <ele>196.3</ele>
        <time>2026-05-17T12:06:43.000Z</time>
      </trkpt>
      <trkpt lat="43.64743" lon="3.34354">
        <ele>196.3</ele>
        <time>2026-05-17T12:06:44.000Z</time>
      </trkpt>
      <trkpt lat="43.64743" lon="3.34353">
        <ele>196.4</ele>
        <time>2026-05-17T12:06:45.000Z</time>
      </trkpt>
      <trkpt lat="43.64744" lon="3.34351">
        <ele>196.5</ele>
        <time>2026-05-17T12:06:46.000Z</time>
      </trkpt>
      <trkpt lat="43.64745" lon="3.3435">
        <ele>196.6</ele>
        <time>2026-05-17T12:06:47.000Z</time>
      </trkpt>
      <trkpt lat="43.64746" lon="3.34348">
        <ele>196.6</ele>
        <time>2026-05-17T12:06:48.000Z</time>
      </trkpt>
      <trkpt lat="43.64746" lon="3.34347">
        <ele>196.5</ele>
        <time>2026-05-17T12:06:49.000Z</time>
      </trkpt>
      <trkpt lat="43.64747" lon="3.34345">
        <ele>196.4</ele>
        <time>2026-05-17T12:06:50.000Z</time>
      </trkpt>
      <trkpt lat="43.64747" lon="3.34344">
        <ele>196.4</ele>
        <time>2026-05-17T12:06:51.000Z</time>
      </trkpt>
      <trkpt lat="43.64748" lon="3.34342">
        <ele>196.3</ele>
        <time>2026-05-17T12:06:52.000Z</time>
      </trkpt>
      <trkpt lat="43.64748" lon="3.3434">
        <ele>196.1</ele>
        <time>2026-05-17T12:06:53.000Z</time>
      </trkpt>
      <trkpt lat="43.64749" lon="3.34339">
        <ele>195.9</ele>
        <time>2026-05-17T12:06:54.000Z</time>
      </trkpt>
      <trkpt lat="43.6475" lon="3.34337">
        <ele>195.9</ele>
        <time>2026-05-17T12:06:55.000Z</time>
      </trkpt>
      <trkpt lat="43.64751" lon="3.34335">
        <ele>195.9</ele>
        <time>2026-05-17T12:06:56.000Z</time>
      </trkpt>
      <trkpt lat="43.64751" lon="3.34334">
        <ele>196</ele>
        <time>2026-05-17T12:06:57.000Z</time>
      </trkpt>
      <trkpt lat="43.64752" lon="3.34333">
        <ele>196</ele>
        <time>2026-05-17T12:06:58.000Z</time>
      </trkpt>
      <trkpt lat="43.64752" lon="3.34331">
        <ele>196.1</ele>
        <time>2026-05-17T12:06:59.000Z</time>
      </trkpt>
      <trkpt lat="43.64753" lon="3.3433">
        <ele>196.1</ele>
        <time>2026-05-17T12:07:00.000Z</time>
      </trkpt>
      <trkpt lat="43.64753" lon="3.34329">
        <ele>196.3</ele>
        <time>2026-05-17T12:07:01.000Z</time>
      </trkpt>
      <trkpt lat="43.64754" lon="3.34327">
        <ele>196.5</ele>
        <time>2026-05-17T12:07:02.000Z</time>
      </trkpt>
      <trkpt lat="43.64754" lon="3.34325">
        <ele>196.3</ele>
        <time>2026-05-17T12:07:03.000Z</time>
      </trkpt>
      <trkpt lat="43.64755" lon="3.34322">
        <ele>196.2</ele>
        <time>2026-05-17T12:07:04.000Z</time>
      </trkpt>
      <trkpt lat="43.64755" lon="3.34321">
        <ele>196.2</ele>
        <time>2026-05-17T12:07:05.000Z</time>
      </trkpt>
      <trkpt lat="43.64756" lon="3.3432">
        <ele>196.4</ele>
        <time>2026-05-17T12:07:06.000Z</time>
      </trkpt>
      <trkpt lat="43.64756" lon="3.34319">
        <ele>196.5</ele>
        <time>2026-05-17T12:07:07.000Z</time>
      </trkpt>
      <trkpt lat="43.64756" lon="3.34318">
        <ele>196.6</ele>
        <time>2026-05-17T12:07:08.000Z</time>
      </trkpt>
      <trkpt lat="43.64757" lon="3.34316">
        <ele>196.4</ele>
        <time>2026-05-17T12:07:09.000Z</time>
      </trkpt>
      <trkpt lat="43.64758" lon="3.34315">
        <ele>196.2</ele>
        <time>2026-05-17T12:07:10.000Z</time>
      </trkpt>
      <trkpt lat="43.64758" lon="3.34314">
        <ele>196</ele>
        <time>2026-05-17T12:07:11.000Z</time>
      </trkpt>
      <trkpt lat="43.64759" lon="3.34313">
        <ele>196</ele>
        <time>2026-05-17T12:07:12.000Z</time>
      </trkpt>
      <trkpt lat="43.64759" lon="3.34312">
        <ele>196.1</ele>
        <time>2026-05-17T12:07:13.000Z</time>
      </trkpt>
      <trkpt lat="43.64759" lon="3.34311">
        <ele>195.8</ele>
        <time>2026-05-17T12:07:14.000Z</time>
      </trkpt>
      <trkpt lat="43.64759" lon="3.3431">
        <ele>195.6</ele>
        <time>2026-05-17T12:07:15.000Z</time>
      </trkpt>
      <trkpt lat="43.64757" lon="3.34309">
        <ele>195.6</ele>
        <time>2026-05-17T12:07:16.000Z</time>
      </trkpt>
      <trkpt lat="43.64757" lon="3.34308">
        <ele>195.4</ele>
        <time>2026-05-17T12:07:17.000Z</time>
      </trkpt>
      <trkpt lat="43.64756" lon="3.34306">
        <ele>195.3</ele>
        <time>2026-05-17T12:07:18.000Z</time>
      </trkpt>
      <trkpt lat="43.64755" lon="3.34305">
        <ele>195.3</ele>
        <time>2026-05-17T12:07:19.000Z</time>
      </trkpt>
      <trkpt lat="43.64755" lon="3.34303">
        <ele>195.3</ele>
        <time>2026-05-17T12:07:20.000Z</time>
      </trkpt>
      <trkpt lat="43.64754" lon="3.34302">
        <ele>195.1</ele>
        <time>2026-05-17T12:07:21.000Z</time>
      </trkpt>
      <trkpt lat="43.64754" lon="3.343">
        <ele>195.1</ele>
        <time>2026-05-17T12:07:22.000Z</time>
      </trkpt>
      <trkpt lat="43.64753" lon="3.34299">
        <ele>195.5</ele>
        <time>2026-05-17T12:07:23.000Z</time>
      </trkpt>
      <trkpt lat="43.64753" lon="3.34298">
        <ele>195.8</ele>
        <time>2026-05-17T12:07:24.000Z</time>
      </trkpt>
      <trkpt lat="43.64752" lon="3.34297">
        <ele>195.9</ele>
        <time>2026-05-17T12:07:25.000Z</time>
      </trkpt>
      <trkpt lat="43.64752" lon="3.34296">
        <ele>195.6</ele>
        <time>2026-05-17T12:07:26.000Z</time>
      </trkpt>
      <trkpt lat="43.64751" lon="3.34295">
        <ele>196.2</ele>
        <time>2026-05-17T12:07:27.000Z</time>
      </trkpt>
      <trkpt lat="43.6475" lon="3.34295">
        <ele>196.4</ele>
        <time>2026-05-17T12:07:28.000Z</time>
      </trkpt>
      <trkpt lat="43.64749" lon="3.34291">
        <ele>195.8</ele>
        <time>2026-05-17T12:07:29.000Z</time>
      </trkpt>
      <trkpt lat="43.64749" lon="3.34289">
        <ele>196.2</ele>
        <time>2026-05-17T12:07:30.000Z</time>
      </trkpt>
      <trkpt lat="43.64749" lon="3.34288">
        <ele>196.2</ele>
        <time>2026-05-17T12:07:31.000Z</time>
      </trkpt>
      <trkpt lat="43.64748" lon="3.34287">
        <ele>197</ele>
        <time>2026-05-17T12:07:32.000Z</time>
      </trkpt>
      <trkpt lat="43.64748" lon="3.34286">
        <ele>196.7</ele>
        <time>2026-05-17T12:07:33.000Z</time>
      </trkpt>
      <trkpt lat="43.64748" lon="3.34285">
        <ele>196.6</ele>
        <time>2026-05-17T12:07:34.000Z</time>
      </trkpt>
      <trkpt lat="43.64747" lon="3.34284">
        <ele>196.8</ele>
        <time>2026-05-17T12:07:35.000Z</time>
      </trkpt>
      <trkpt lat="43.64747" lon="3.34282">
        <ele>196.5</ele>
        <time>2026-05-17T12:07:36.000Z</time>
      </trkpt>
      <trkpt lat="43.64747" lon="3.34278">
        <ele>197.6</ele>
        <time>2026-05-17T12:07:38.000Z</time>
      </trkpt>
      <trkpt lat="43.64748" lon="3.34277">
        <ele>196.6</ele>
        <time>2026-05-17T12:07:39.000Z</time>
      </trkpt>
      <trkpt lat="43.64748" lon="3.34275">
        <ele>196.2</ele>
        <time>2026-05-17T12:07:40.000Z</time>
      </trkpt>
      <trkpt lat="43.64748" lon="3.34275">
        <ele>195.9</ele>
        <time>2026-05-17T12:07:41.000Z</time>
      </trkpt>
      <trkpt lat="43.64749" lon="3.34273">
        <ele>194.9</ele>
        <time>2026-05-17T12:07:42.000Z</time>
      </trkpt>
      <trkpt lat="43.64749" lon="3.34272">
        <ele>194.4</ele>
        <time>2026-05-17T12:07:43.000Z</time>
      </trkpt>
      <trkpt lat="43.64748" lon="3.3427">
        <ele>194.3</ele>
        <time>2026-05-17T12:07:44.000Z</time>
      </trkpt>
      <trkpt lat="43.64748" lon="3.34269">
        <ele>193.8</ele>
        <time>2026-05-17T12:07:45.000Z</time>
      </trkpt>
      <trkpt lat="43.64747" lon="3.34267">
        <ele>193.8</ele>
        <time>2026-05-17T12:07:46.000Z</time>
      </trkpt>
      <trkpt lat="43.64746" lon="3.34266">
        <ele>193.6</ele>
        <time>2026-05-17T12:07:47.000Z</time>
      </trkpt>
      <trkpt lat="43.64745" lon="3.34264">
        <ele>193.1</ele>
        <time>2026-05-17T12:07:48.000Z</time>
      </trkpt>
      <trkpt lat="43.64745" lon="3.34263">
        <ele>192.9</ele>
        <time>2026-05-17T12:07:49.000Z</time>
      </trkpt>
      <trkpt lat="43.64744" lon="3.34261">
        <ele>193.3</ele>
        <time>2026-05-17T12:07:50.000Z</time>
      </trkpt>
      <trkpt lat="43.64744" lon="3.34259">
        <ele>193.9</ele>
        <time>2026-05-17T12:07:51.000Z</time>
      </trkpt>
      <trkpt lat="43.64744" lon="3.34259">
        <ele>193.9</ele>
        <time>2026-05-17T12:07:52.000Z</time>
      </trkpt>
      <trkpt lat="43.64744" lon="3.34258">
        <ele>193.4</ele>
        <time>2026-05-17T12:07:53.000Z</time>
      </trkpt>
      <trkpt lat="43.64744" lon="3.34256">
        <ele>193.6</ele>
        <time>2026-05-17T12:07:54.000Z</time>
      </trkpt>
      <trkpt lat="43.64743" lon="3.34254">
        <ele>193.4</ele>
        <time>2026-05-17T12:07:55.000Z</time>
      </trkpt>
      <trkpt lat="43.64743" lon="3.34252">
        <ele>193.4</ele>
        <time>2026-05-17T12:07:56.000Z</time>
      </trkpt>
      <trkpt lat="43.64743" lon="3.34251">
        <ele>193.4</ele>
        <time>2026-05-17T12:07:57.000Z</time>
      </trkpt>
      <trkpt lat="43.64743" lon="3.3425">
        <ele>193.4</ele>
        <time>2026-05-17T12:07:58.000Z</time>
      </trkpt>
      <trkpt lat="43.64743" lon="3.34249">
        <ele>193.4</ele>
        <time>2026-05-17T12:07:59.000Z</time>
      </trkpt>
      <trkpt lat="43.64743" lon="3.34247">
        <ele>193.6</ele>
        <time>2026-05-17T12:08:00.000Z</time>
      </trkpt>
      <trkpt lat="43.64743" lon="3.34245">
        <ele>193.8</ele>
        <time>2026-05-17T12:08:01.000Z</time>
      </trkpt>
      <trkpt lat="43.64744" lon="3.34243">
        <ele>193.9</ele>
        <time>2026-05-17T12:08:02.000Z</time>
      </trkpt>
      <trkpt lat="43.64744" lon="3.34242">
        <ele>193.9</ele>
        <time>2026-05-17T12:08:03.000Z</time>
      </trkpt>
      <trkpt lat="43.64743" lon="3.34242">
        <ele>193.5</ele>
        <time>2026-05-17T12:08:04.000Z</time>
      </trkpt>
      <trkpt lat="43.64743" lon="3.34241">
        <ele>193.1</ele>
        <time>2026-05-17T12:08:05.000Z</time>
      </trkpt>
      <trkpt lat="43.64744" lon="3.34239">
        <ele>193.3</ele>
        <time>2026-05-17T12:08:06.000Z</time>
      </trkpt>
      <trkpt lat="43.64744" lon="3.34237">
        <ele>193.7</ele>
        <time>2026-05-17T12:08:07.000Z</time>
      </trkpt>
      <trkpt lat="43.64744" lon="3.34236">
        <ele>193.5</ele>
        <time>2026-05-17T12:08:08.000Z</time>
      </trkpt>
      <trkpt lat="43.64745" lon="3.34235">
        <ele>193.2</ele>
        <time>2026-05-17T12:08:09.000Z</time>
      </trkpt>
      <trkpt lat="43.64744" lon="3.34234">
        <ele>193.1</ele>
        <time>2026-05-17T12:08:10.000Z</time>
      </trkpt>
      <trkpt lat="43.64745" lon="3.34231">
        <ele>193.4</ele>
        <time>2026-05-17T12:08:11.000Z</time>
      </trkpt>
      <trkpt lat="43.64745" lon="3.34229">
        <ele>194.1</ele>
        <time>2026-05-17T12:08:12.000Z</time>
      </trkpt>
      <trkpt lat="43.64746" lon="3.34228">
        <ele>194.7</ele>
        <time>2026-05-17T12:08:13.000Z</time>
      </trkpt>
      <trkpt lat="43.64747" lon="3.34227">
        <ele>195.3</ele>
        <time>2026-05-17T12:08:14.000Z</time>
      </trkpt>
      <trkpt lat="43.64747" lon="3.34225">
        <ele>195.8</ele>
        <time>2026-05-17T12:08:15.000Z</time>
      </trkpt>
      <trkpt lat="43.64748" lon="3.34223">
        <ele>196.3</ele>
        <time>2026-05-17T12:08:16.000Z</time>
      </trkpt>
      <trkpt lat="43.64748" lon="3.34221">
        <ele>196.9</ele>
        <time>2026-05-17T12:08:17.000Z</time>
      </trkpt>
      <trkpt lat="43.64748" lon="3.3422">
        <ele>197.8</ele>
        <time>2026-05-17T12:08:18.000Z</time>
      </trkpt>
      <trkpt lat="43.64748" lon="3.34219">
        <ele>197.8</ele>
        <time>2026-05-17T12:08:19.000Z</time>
      </trkpt>
      <trkpt lat="43.64748" lon="3.34219">
        <ele>197.6</ele>
        <time>2026-05-17T12:08:20.000Z</time>
      </trkpt>
      <trkpt lat="43.64748" lon="3.34218">
        <ele>197.4</ele>
        <time>2026-05-17T12:08:21.000Z</time>
      </trkpt>
      <trkpt lat="43.64748" lon="3.34216">
        <ele>197.1</ele>
        <time>2026-05-17T12:08:22.000Z</time>
      </trkpt>
      <trkpt lat="43.64748" lon="3.34214">
        <ele>197.1</ele>
        <time>2026-05-17T12:08:23.000Z</time>
      </trkpt>
      <trkpt lat="43.64747" lon="3.34212">
        <ele>196.9</ele>
        <time>2026-05-17T12:08:24.000Z</time>
      </trkpt>
      <trkpt lat="43.64747" lon="3.3421">
        <ele>197</ele>
        <time>2026-05-17T12:08:25.000Z</time>
      </trkpt>
      <trkpt lat="43.64746" lon="3.34209">
        <ele>196.9</ele>
        <time>2026-05-17T12:08:26.000Z</time>
      </trkpt>
      <trkpt lat="43.64746" lon="3.34208">
        <ele>197.2</ele>
        <time>2026-05-17T12:08:27.000Z</time>
      </trkpt>
      <trkpt lat="43.64746" lon="3.34207">
        <ele>197.6</ele>
        <time>2026-05-17T12:08:28.000Z</time>
      </trkpt>
      <trkpt lat="43.64746" lon="3.34205">
        <ele>197.9</ele>
        <time>2026-05-17T12:08:29.000Z</time>
      </trkpt>
      <trkpt lat="43.64746" lon="3.34203">
        <ele>198.5</ele>
        <time>2026-05-17T12:08:30.000Z</time>
      </trkpt>
      <trkpt lat="43.64746" lon="3.34201">
        <ele>198.6</ele>
        <time>2026-05-17T12:08:31.000Z</time>
      </trkpt>
      <trkpt lat="43.64746" lon="3.34201">
        <ele>198.4</ele>
        <time>2026-05-17T12:08:32.000Z</time>
      </trkpt>
      <trkpt lat="43.64746" lon="3.34199">
        <ele>198.8</ele>
        <time>2026-05-17T12:08:33.000Z</time>
      </trkpt>
      <trkpt lat="43.64747" lon="3.34198">
        <ele>199.6</ele>
        <time>2026-05-17T12:08:34.000Z</time>
      </trkpt>
      <trkpt lat="43.64747" lon="3.34197">
        <ele>199.5</ele>
        <time>2026-05-17T12:08:35.000Z</time>
      </trkpt>
      <trkpt lat="43.64747" lon="3.34196">
        <ele>199.9</ele>
        <time>2026-05-17T12:08:36.000Z</time>
      </trkpt>
      <trkpt lat="43.64748" lon="3.34195">
        <ele>200.2</ele>
        <time>2026-05-17T12:08:37.000Z</time>
      </trkpt>
      <trkpt lat="43.64748" lon="3.34194">
        <ele>200.6</ele>
        <time>2026-05-17T12:08:38.000Z</time>
      </trkpt>
      <trkpt lat="43.64749" lon="3.34192">
        <ele>200.7</ele>
        <time>2026-05-17T12:08:39.000Z</time>
      </trkpt>
      <trkpt lat="43.6475" lon="3.34191">
        <ele>200.7</ele>
        <time>2026-05-17T12:08:40.000Z</time>
      </trkpt>
      <trkpt lat="43.6475" lon="3.3419">
        <ele>200.9</ele>
        <time>2026-05-17T12:08:41.000Z</time>
      </trkpt>
      <trkpt lat="43.6475" lon="3.34188">
        <ele>200.9</ele>
        <time>2026-05-17T12:08:42.000Z</time>
      </trkpt>
      <trkpt lat="43.64751" lon="3.34187">
        <ele>201</ele>
        <time>2026-05-17T12:08:43.000Z</time>
      </trkpt>
      <trkpt lat="43.64751" lon="3.34185">
        <ele>201</ele>
        <time>2026-05-17T12:08:44.000Z</time>
      </trkpt>
      <trkpt lat="43.64751" lon="3.34183">
        <ele>202.5</ele>
        <time>2026-05-17T12:08:45.000Z</time>
      </trkpt>
      <trkpt lat="43.64751" lon="3.34181">
        <ele>202.7</ele>
        <time>2026-05-17T12:08:46.000Z</time>
      </trkpt>
      <trkpt lat="43.64752" lon="3.34179">
        <ele>203</ele>
        <time>2026-05-17T12:08:47.000Z</time>
      </trkpt>
      <trkpt lat="43.64753" lon="3.34178">
        <ele>203.2</ele>
        <time>2026-05-17T12:08:48.000Z</time>
      </trkpt>
      <trkpt lat="43.64753" lon="3.34177">
        <ele>203.2</ele>
        <time>2026-05-17T12:08:49.000Z</time>
      </trkpt>
      <trkpt lat="43.64754" lon="3.34176">
        <ele>204</ele>
        <time>2026-05-17T12:08:50.000Z</time>
      </trkpt>
      <trkpt lat="43.64754" lon="3.34174">
        <ele>204.5</ele>
        <time>2026-05-17T12:08:51.000Z</time>
      </trkpt>
      <trkpt lat="43.64753" lon="3.34173">
        <ele>205</ele>
        <time>2026-05-17T12:08:52.000Z</time>
      </trkpt>
      <trkpt lat="43.64753" lon="3.34172">
        <ele>205.4</ele>
        <time>2026-05-17T12:08:53.000Z</time>
      </trkpt>
      <trkpt lat="43.64753" lon="3.34171">
        <ele>205.6</ele>
        <time>2026-05-17T12:08:54.000Z</time>
      </trkpt>
      <trkpt lat="43.64752" lon="3.34171">
        <ele>206.1</ele>
        <time>2026-05-17T12:08:55.000Z</time>
      </trkpt>
      <trkpt lat="43.64753" lon="3.3417">
        <ele>206.5</ele>
        <time>2026-05-17T12:08:56.000Z</time>
      </trkpt>
      <trkpt lat="43.64753" lon="3.34169">
        <ele>207.1</ele>
        <time>2026-05-17T12:08:57.000Z</time>
      </trkpt>
      <trkpt lat="43.64753" lon="3.34168">
        <ele>207.2</ele>
        <time>2026-05-17T12:08:58.000Z</time>
      </trkpt>
      <trkpt lat="43.64754" lon="3.34167">
        <ele>207.1</ele>
        <time>2026-05-17T12:08:59.000Z</time>
      </trkpt>
      <trkpt lat="43.64754" lon="3.34166">
        <ele>206.6</ele>
        <time>2026-05-17T12:09:00.000Z</time>
      </trkpt>
      <trkpt lat="43.64755" lon="3.34165">
        <ele>206.2</ele>
        <time>2026-05-17T12:09:01.000Z</time>
      </trkpt>
      <trkpt lat="43.64756" lon="3.34163">
        <ele>206.3</ele>
        <time>2026-05-17T12:09:02.000Z</time>
      </trkpt>
      <trkpt lat="43.64757" lon="3.34161">
        <ele>206.5</ele>
        <time>2026-05-17T12:09:03.000Z</time>
      </trkpt>
      <trkpt lat="43.64757" lon="3.34159">
        <ele>206.8</ele>
        <time>2026-05-17T12:09:04.000Z</time>
      </trkpt>
      <trkpt lat="43.64757" lon="3.34157">
        <ele>206.9</ele>
        <time>2026-05-17T12:09:05.000Z</time>
      </trkpt>
      <trkpt lat="43.64756" lon="3.34156">
        <ele>207.2</ele>
        <time>2026-05-17T12:09:06.000Z</time>
      </trkpt>
      <trkpt lat="43.64757" lon="3.34155">
        <ele>207.4</ele>
        <time>2026-05-17T12:09:07.000Z</time>
      </trkpt>
      <trkpt lat="43.64757" lon="3.34153">
        <ele>207.5</ele>
        <time>2026-05-17T12:09:08.000Z</time>
      </trkpt>
      <trkpt lat="43.64757" lon="3.34151">
        <ele>207.5</ele>
        <time>2026-05-17T12:09:09.000Z</time>
      </trkpt>
      <trkpt lat="43.64757" lon="3.3415">
        <ele>207.7</ele>
        <time>2026-05-17T12:09:10.000Z</time>
      </trkpt>
      <trkpt lat="43.64759" lon="3.34148">
        <ele>208</ele>
        <time>2026-05-17T12:09:11.000Z</time>
      </trkpt>
      <trkpt lat="43.6476" lon="3.34146">
        <ele>208.2</ele>
        <time>2026-05-17T12:09:12.000Z</time>
      </trkpt>
      <trkpt lat="43.64761" lon="3.34144">
        <ele>208.4</ele>
        <time>2026-05-17T12:09:13.000Z</time>
      </trkpt>
      <trkpt lat="43.64761" lon="3.34141">
        <ele>208.1</ele>
        <time>2026-05-17T12:09:14.000Z</time>
      </trkpt>
      <trkpt lat="43.64761" lon="3.34139">
        <ele>207.9</ele>
        <time>2026-05-17T12:09:15.000Z</time>
      </trkpt>
      <trkpt lat="43.64762" lon="3.34138">
        <ele>207.7</ele>
        <time>2026-05-17T12:09:16.000Z</time>
      </trkpt>
      <trkpt lat="43.64762" lon="3.34137">
        <ele>208.1</ele>
        <time>2026-05-17T12:09:17.000Z</time>
      </trkpt>
      <trkpt lat="43.64763" lon="3.34137">
        <ele>208.2</ele>
        <time>2026-05-17T12:09:18.000Z</time>
      </trkpt>
      <trkpt lat="43.64765" lon="3.34136">
        <ele>208.3</ele>
        <time>2026-05-17T12:09:19.000Z</time>
      </trkpt>
      <trkpt lat="43.64765" lon="3.34135">
        <ele>208.3</ele>
        <time>2026-05-17T12:09:20.000Z</time>
      </trkpt>
      <trkpt lat="43.64765" lon="3.34135">
        <ele>208.1</ele>
        <time>2026-05-17T12:09:21.000Z</time>
      </trkpt>
      <trkpt lat="43.64766" lon="3.34134">
        <ele>207.9</ele>
        <time>2026-05-17T12:09:22.000Z</time>
      </trkpt>
      <trkpt lat="43.64766" lon="3.34132">
        <ele>208</ele>
        <time>2026-05-17T12:09:23.000Z</time>
      </trkpt>
      <trkpt lat="43.64766" lon="3.3413">
        <ele>208.3</ele>
        <time>2026-05-17T12:09:24.000Z</time>
      </trkpt>
      <trkpt lat="43.64766" lon="3.34128">
        <ele>208.6</ele>
        <time>2026-05-17T12:09:25.000Z</time>
      </trkpt>
      <trkpt lat="43.64766" lon="3.34126">
        <ele>208.9</ele>
        <time>2026-05-17T12:09:26.000Z</time>
      </trkpt>
      <trkpt lat="43.64766" lon="3.34125">
        <ele>208.9</ele>
        <time>2026-05-17T12:09:27.000Z</time>
      </trkpt>
      <trkpt lat="43.64767" lon="3.34124">
        <ele>209.2</ele>
        <time>2026-05-17T12:09:28.000Z</time>
      </trkpt>
      <trkpt lat="43.64768" lon="3.34121">
        <ele>209.3</ele>
        <time>2026-05-17T12:09:29.000Z</time>
      </trkpt>
      <trkpt lat="43.64769" lon="3.34119">
        <ele>209</ele>
        <time>2026-05-17T12:09:30.000Z</time>
      </trkpt>
      <trkpt lat="43.64769" lon="3.34117">
        <ele>208.6</ele>
        <time>2026-05-17T12:09:31.000Z</time>
      </trkpt>
      <trkpt lat="43.6477" lon="3.34116">
        <ele>208.2</ele>
        <time>2026-05-17T12:09:32.000Z</time>
      </trkpt>
      <trkpt lat="43.64771" lon="3.34115">
        <ele>208</ele>
        <time>2026-05-17T12:09:33.000Z</time>
      </trkpt>
      <trkpt lat="43.64771" lon="3.34113">
        <ele>207.6</ele>
        <time>2026-05-17T12:09:34.000Z</time>
      </trkpt>
      <trkpt lat="43.64772" lon="3.34112">
        <ele>207.6</ele>
        <time>2026-05-17T12:09:35.000Z</time>
      </trkpt>
      <trkpt lat="43.64772" lon="3.3411">
        <ele>207.7</ele>
        <time>2026-05-17T12:09:36.000Z</time>
      </trkpt>
      <trkpt lat="43.64773" lon="3.34109">
        <ele>207.7</ele>
        <time>2026-05-17T12:09:37.000Z</time>
      </trkpt>
      <trkpt lat="43.64772" lon="3.34108">
        <ele>207.4</ele>
        <time>2026-05-17T12:09:38.000Z</time>
      </trkpt>
      <trkpt lat="43.64772" lon="3.34107">
        <ele>207.2</ele>
        <time>2026-05-17T12:09:39.000Z</time>
      </trkpt>
      <trkpt lat="43.64772" lon="3.34105">
        <ele>207.2</ele>
        <time>2026-05-17T12:09:40.000Z</time>
      </trkpt>
      <trkpt lat="43.64772" lon="3.34104">
        <ele>207.5</ele>
        <time>2026-05-17T12:09:41.000Z</time>
      </trkpt>
      <trkpt lat="43.64773" lon="3.34102">
        <ele>207.7</ele>
        <time>2026-05-17T12:09:42.000Z</time>
      </trkpt>
      <trkpt lat="43.64773" lon="3.341">
        <ele>208</ele>
        <time>2026-05-17T12:09:43.000Z</time>
      </trkpt>
      <trkpt lat="43.64774" lon="3.34098">
        <ele>207.8</ele>
        <time>2026-05-17T12:09:44.000Z</time>
      </trkpt>
      <trkpt lat="43.64774" lon="3.34097">
        <ele>207.9</ele>
        <time>2026-05-17T12:09:45.000Z</time>
      </trkpt>
      <trkpt lat="43.64775" lon="3.34097">
        <ele>208</ele>
        <time>2026-05-17T12:09:46.000Z</time>
      </trkpt>
      <trkpt lat="43.64776" lon="3.34095">
        <ele>207.9</ele>
        <time>2026-05-17T12:09:47.000Z</time>
      </trkpt>
      <trkpt lat="43.64777" lon="3.34093">
        <ele>207.8</ele>
        <time>2026-05-17T12:09:48.000Z</time>
      </trkpt>
      <trkpt lat="43.64777" lon="3.34091">
        <ele>207.6</ele>
        <time>2026-05-17T12:09:49.000Z</time>
      </trkpt>
      <trkpt lat="43.64778" lon="3.34089">
        <ele>207.6</ele>
        <time>2026-05-17T12:09:50.000Z</time>
      </trkpt>
      <trkpt lat="43.64778" lon="3.34088">
        <ele>208.1</ele>
        <time>2026-05-17T12:09:51.000Z</time>
      </trkpt>
      <trkpt lat="43.64778" lon="3.34087">
        <ele>208.4</ele>
        <time>2026-05-17T12:09:52.000Z</time>
      </trkpt>
      <trkpt lat="43.64779" lon="3.34086">
        <ele>208.5</ele>
        <time>2026-05-17T12:09:53.000Z</time>
      </trkpt>
      <trkpt lat="43.64779" lon="3.34085">
        <ele>208.7</ele>
        <time>2026-05-17T12:09:54.000Z</time>
      </trkpt>
      <trkpt lat="43.6478" lon="3.34083">
        <ele>208.9</ele>
        <time>2026-05-17T12:09:55.000Z</time>
      </trkpt>
      <trkpt lat="43.6478" lon="3.34081">
        <ele>209.2</ele>
        <time>2026-05-17T12:09:56.000Z</time>
      </trkpt>
      <trkpt lat="43.64779" lon="3.34079">
        <ele>208.9</ele>
        <time>2026-05-17T12:09:57.000Z</time>
      </trkpt>
      <trkpt lat="43.6478" lon="3.34079">
        <ele>209.2</ele>
        <time>2026-05-17T12:09:58.000Z</time>
      </trkpt>
      <trkpt lat="43.64781" lon="3.34078">
        <ele>209.1</ele>
        <time>2026-05-17T12:09:59.000Z</time>
      </trkpt>
      <trkpt lat="43.64782" lon="3.34077">
        <ele>208.9</ele>
        <time>2026-05-17T12:10:00.000Z</time>
      </trkpt>
      <trkpt lat="43.64782" lon="3.34077">
        <ele>208.7</ele>
        <time>2026-05-17T12:10:01.000Z</time>
      </trkpt>
      <trkpt lat="43.64782" lon="3.34077">
        <ele>208.6</ele>
        <time>2026-05-17T12:10:02.000Z</time>
      </trkpt>
      <trkpt lat="43.64782" lon="3.34077">
        <ele>208.3</ele>
        <time>2026-05-17T12:10:03.000Z</time>
      </trkpt>
      <trkpt lat="43.64782" lon="3.34077">
        <ele>208.3</ele>
        <time>2026-05-17T12:10:04.000Z</time>
      </trkpt>
      <trkpt lat="43.64782" lon="3.34077">
        <ele>208.1</ele>
        <time>2026-05-17T12:10:05.000Z</time>
      </trkpt>
      <trkpt lat="43.64782" lon="3.34077">
        <ele>208</ele>
        <time>2026-05-17T12:10:06.000Z</time>
      </trkpt>
      <trkpt lat="43.64781" lon="3.34077">
        <ele>208</ele>
        <time>2026-05-17T12:10:07.000Z</time>
      </trkpt>
      <trkpt lat="43.64781" lon="3.34077">
        <ele>207.6</ele>
        <time>2026-05-17T12:10:08.000Z</time>
      </trkpt>
      <trkpt lat="43.64781" lon="3.34077">
        <ele>207.4</ele>
        <time>2026-05-17T12:10:09.000Z</time>
      </trkpt>
      <trkpt lat="43.64781" lon="3.34077">
        <ele>207.3</ele>
        <time>2026-05-17T12:10:10.000Z</time>
      </trkpt>
      <trkpt lat="43.64781" lon="3.34077">
        <ele>207.2</ele>
        <time>2026-05-17T12:10:11.000Z</time>
      </trkpt>
      <trkpt lat="43.64781" lon="3.34077">
        <ele>207.3</ele>
        <time>2026-05-17T12:10:12.000Z</time>
      </trkpt>
      <trkpt lat="43.64781" lon="3.34077">
        <ele>207.1</ele>
        <time>2026-05-17T12:10:13.000Z</time>
      </trkpt>
      <trkpt lat="43.64781" lon="3.34076">
        <ele>206.9</ele>
        <time>2026-05-17T12:10:14.000Z</time>
      </trkpt>
      <trkpt lat="43.64781" lon="3.34076">
        <ele>206.7</ele>
        <time>2026-05-17T12:10:15.000Z</time>
      </trkpt>
      <trkpt lat="43.64781" lon="3.34077">
        <ele>206.3</ele>
        <time>2026-05-17T12:10:16.000Z</time>
      </trkpt>
      <trkpt lat="43.64781" lon="3.34077">
        <ele>206.3</ele>
        <time>2026-05-17T12:10:17.000Z</time>
      </trkpt>
      <trkpt lat="43.64781" lon="3.34077">
        <ele>206.7</ele>
        <time>2026-05-17T12:10:18.000Z</time>
      </trkpt>
      <trkpt lat="43.64781" lon="3.34076">
        <ele>206.7</ele>
        <time>2026-05-17T12:10:19.000Z</time>
      </trkpt>
      <trkpt lat="43.64781" lon="3.34076">
        <ele>206.9</ele>
        <time>2026-05-17T12:10:20.000Z</time>
      </trkpt>
      <trkpt lat="43.64782" lon="3.34076">
        <ele>206.9</ele>
        <time>2026-05-17T12:10:21.000Z</time>
      </trkpt>
      <trkpt lat="43.64782" lon="3.34074">
        <ele>207</ele>
        <time>2026-05-17T12:10:22.000Z</time>
      </trkpt>
      <trkpt lat="43.64783" lon="3.34073">
        <ele>207</ele>
        <time>2026-05-17T12:10:23.000Z</time>
      </trkpt>
      <trkpt lat="43.64783" lon="3.34072">
        <ele>207.2</ele>
        <time>2026-05-17T12:10:24.000Z</time>
      </trkpt>
      <trkpt lat="43.64783" lon="3.3407">
        <ele>207.4</ele>
        <time>2026-05-17T12:10:25.000Z</time>
      </trkpt>
      <trkpt lat="43.64783" lon="3.34069">
        <ele>207.4</ele>
        <time>2026-05-17T12:10:26.000Z</time>
      </trkpt>
      <trkpt lat="43.64783" lon="3.34068">
        <ele>207.8</ele>
        <time>2026-05-17T12:10:27.000Z</time>
      </trkpt>
      <trkpt lat="43.64782" lon="3.34067">
        <ele>208.4</ele>
        <time>2026-05-17T12:10:28.000Z</time>
      </trkpt>
      <trkpt lat="43.64783" lon="3.34066">
        <ele>209</ele>
        <time>2026-05-17T12:10:29.000Z</time>
      </trkpt>
      <trkpt lat="43.64784" lon="3.34065">
        <ele>209.1</ele>
        <time>2026-05-17T12:10:30.000Z</time>
      </trkpt>
      <trkpt lat="43.64784" lon="3.34064">
        <ele>209.2</ele>
        <time>2026-05-17T12:10:31.000Z</time>
      </trkpt>
      <trkpt lat="43.64785" lon="3.34062">
        <ele>209.3</ele>
        <time>2026-05-17T12:10:32.000Z</time>
      </trkpt>
      <trkpt lat="43.64785" lon="3.34061">
        <ele>209.3</ele>
        <time>2026-05-17T12:10:33.000Z</time>
      </trkpt>
      <trkpt lat="43.64786" lon="3.34059">
        <ele>209.4</ele>
        <time>2026-05-17T12:10:34.000Z</time>
      </trkpt>
      <trkpt lat="43.64786" lon="3.34058">
        <ele>209.3</ele>
        <time>2026-05-17T12:10:35.000Z</time>
      </trkpt>
      <trkpt lat="43.64786" lon="3.34057">
        <ele>209.3</ele>
        <time>2026-05-17T12:10:36.000Z</time>
      </trkpt>
      <trkpt lat="43.64787" lon="3.34056">
        <ele>209.1</ele>
        <time>2026-05-17T12:10:37.000Z</time>
      </trkpt>
      <trkpt lat="43.64787" lon="3.34055">
        <ele>209.2</ele>
        <time>2026-05-17T12:10:38.000Z</time>
      </trkpt>
      <trkpt lat="43.64787" lon="3.34055">
        <ele>209.1</ele>
        <time>2026-05-17T12:10:39.000Z</time>
      </trkpt>
      <trkpt lat="43.64788" lon="3.34054">
        <ele>209.3</ele>
        <time>2026-05-17T12:10:40.000Z</time>
      </trkpt>
      <trkpt lat="43.64789" lon="3.34054">
        <ele>209.8</ele>
        <time>2026-05-17T12:10:41.000Z</time>
      </trkpt>
      <trkpt lat="43.64789" lon="3.34053">
        <ele>210</ele>
        <time>2026-05-17T12:10:42.000Z</time>
      </trkpt>
      <trkpt lat="43.6479" lon="3.34051">
        <ele>210.2</ele>
        <time>2026-05-17T12:10:43.000Z</time>
      </trkpt>
      <trkpt lat="43.6479" lon="3.34049">
        <ele>209.9</ele>
        <time>2026-05-17T12:10:44.000Z</time>
      </trkpt>
      <trkpt lat="43.6479" lon="3.34048">
        <ele>210</ele>
        <time>2026-05-17T12:10:45.000Z</time>
      </trkpt>
      <trkpt lat="43.64789" lon="3.34047">
        <ele>209.7</ele>
        <time>2026-05-17T12:10:46.000Z</time>
      </trkpt>
      <trkpt lat="43.64789" lon="3.34046">
        <ele>209.8</ele>
        <time>2026-05-17T12:10:47.000Z</time>
      </trkpt>
      <trkpt lat="43.6479" lon="3.34045">
        <ele>209.7</ele>
        <time>2026-05-17T12:10:48.000Z</time>
      </trkpt>
      <trkpt lat="43.6479" lon="3.34043">
        <ele>209.6</ele>
        <time>2026-05-17T12:10:49.000Z</time>
      </trkpt>
      <trkpt lat="43.6479" lon="3.34042">
        <ele>209.3</ele>
        <time>2026-05-17T12:10:50.000Z</time>
      </trkpt>
      <trkpt lat="43.6479" lon="3.34041">
        <ele>208.8</ele>
        <time>2026-05-17T12:10:51.000Z</time>
      </trkpt>
      <trkpt lat="43.64791" lon="3.34041">
        <ele>208.5</ele>
        <time>2026-05-17T12:10:52.000Z</time>
      </trkpt>
      <trkpt lat="43.64791" lon="3.34039">
        <ele>208.2</ele>
        <time>2026-05-17T12:10:53.000Z</time>
      </trkpt>
      <trkpt lat="43.64792" lon="3.34038">
        <ele>208.1</ele>
        <time>2026-05-17T12:10:54.000Z</time>
      </trkpt>
      <trkpt lat="43.64793" lon="3.34036">
        <ele>208.3</ele>
        <time>2026-05-17T12:10:55.000Z</time>
      </trkpt>
      <trkpt lat="43.64793" lon="3.34034">
        <ele>208.6</ele>
        <time>2026-05-17T12:10:56.000Z</time>
      </trkpt>
      <trkpt lat="43.64794" lon="3.34034">
        <ele>208.5</ele>
        <time>2026-05-17T12:10:57.000Z</time>
      </trkpt>
      <trkpt lat="43.64794" lon="3.34032">
        <ele>208.5</ele>
        <time>2026-05-17T12:10:58.000Z</time>
      </trkpt>
      <trkpt lat="43.64795" lon="3.3403">
        <ele>208.2</ele>
        <time>2026-05-17T12:10:59.000Z</time>
      </trkpt>
      <trkpt lat="43.64795" lon="3.34028">
        <ele>207.9</ele>
        <time>2026-05-17T12:11:00.000Z</time>
      </trkpt>
      <trkpt lat="43.64795" lon="3.34026">
        <ele>207.7</ele>
        <time>2026-05-17T12:11:01.000Z</time>
      </trkpt>
      <trkpt lat="43.64795" lon="3.34025">
        <ele>207.6</ele>
        <time>2026-05-17T12:11:02.000Z</time>
      </trkpt>
      <trkpt lat="43.64795" lon="3.34024">
        <ele>207.5</ele>
        <time>2026-05-17T12:11:03.000Z</time>
      </trkpt>
      <trkpt lat="43.64795" lon="3.34023">
        <ele>207.7</ele>
        <time>2026-05-17T12:11:04.000Z</time>
      </trkpt>
      <trkpt lat="43.64796" lon="3.34021">
        <ele>208</ele>
        <time>2026-05-17T12:11:05.000Z</time>
      </trkpt>
      <trkpt lat="43.64797" lon="3.3402">
        <ele>208.3</ele>
        <time>2026-05-17T12:11:06.000Z</time>
      </trkpt>
      <trkpt lat="43.64798" lon="3.34018">
        <ele>208.4</ele>
        <time>2026-05-17T12:11:07.000Z</time>
      </trkpt>
      <trkpt lat="43.64798" lon="3.34016">
        <ele>208.6</ele>
        <time>2026-05-17T12:11:08.000Z</time>
      </trkpt>
      <trkpt lat="43.64799" lon="3.34015">
        <ele>209.1</ele>
        <time>2026-05-17T12:11:09.000Z</time>
      </trkpt>
      <trkpt lat="43.64799" lon="3.34013">
        <ele>209.4</ele>
        <time>2026-05-17T12:11:10.000Z</time>
      </trkpt>
      <trkpt lat="43.648" lon="3.34012">
        <ele>209.3</ele>
        <time>2026-05-17T12:11:11.000Z</time>
      </trkpt>
      <trkpt lat="43.64801" lon="3.34012">
        <ele>209.6</ele>
        <time>2026-05-17T12:11:12.000Z</time>
      </trkpt>
      <trkpt lat="43.64802" lon="3.34013">
        <ele>209.9</ele>
        <time>2026-05-17T12:11:13.000Z</time>
      </trkpt>
      <trkpt lat="43.64802" lon="3.34014">
        <ele>209.9</ele>
        <time>2026-05-17T12:11:14.000Z</time>
      </trkpt>
      <trkpt lat="43.64803" lon="3.34013">
        <ele>210.4</ele>
        <time>2026-05-17T12:11:15.000Z</time>
      </trkpt>
      <trkpt lat="43.64803" lon="3.3401">
        <ele>210.8</ele>
        <time>2026-05-17T12:11:16.000Z</time>
      </trkpt>
      <trkpt lat="43.64803" lon="3.34007">
        <ele>210.8</ele>
        <time>2026-05-17T12:11:17.000Z</time>
      </trkpt>
      <trkpt lat="43.64804" lon="3.34005">
        <ele>210.8</ele>
        <time>2026-05-17T12:11:18.000Z</time>
      </trkpt>
      <trkpt lat="43.64804" lon="3.34003">
        <ele>210.7</ele>
        <time>2026-05-17T12:11:19.000Z</time>
      </trkpt>
      <trkpt lat="43.64804" lon="3.34001">
        <ele>210.4</ele>
        <time>2026-05-17T12:11:20.000Z</time>
      </trkpt>
      <trkpt lat="43.64804" lon="3.34">
        <ele>210.1</ele>
        <time>2026-05-17T12:11:21.000Z</time>
      </trkpt>
      <trkpt lat="43.64804" lon="3.33998">
        <ele>209.8</ele>
        <time>2026-05-17T12:11:22.000Z</time>
      </trkpt>
      <trkpt lat="43.64804" lon="3.33996">
        <ele>210</ele>
        <time>2026-05-17T12:11:23.000Z</time>
      </trkpt>
      <trkpt lat="43.64805" lon="3.33994">
        <ele>210</ele>
        <time>2026-05-17T12:11:24.000Z</time>
      </trkpt>
      <trkpt lat="43.64805" lon="3.33992">
        <ele>209.9</ele>
        <time>2026-05-17T12:11:25.000Z</time>
      </trkpt>
      <trkpt lat="43.64806" lon="3.33989">
        <ele>210</ele>
        <time>2026-05-17T12:11:26.000Z</time>
      </trkpt>
      <trkpt lat="43.64806" lon="3.33987">
        <ele>210.2</ele>
        <time>2026-05-17T12:11:27.000Z</time>
      </trkpt>
      <trkpt lat="43.64806" lon="3.33986">
        <ele>210.2</ele>
        <time>2026-05-17T12:11:28.000Z</time>
      </trkpt>
      <trkpt lat="43.64806" lon="3.33985">
        <ele>210.1</ele>
        <time>2026-05-17T12:11:29.000Z</time>
      </trkpt>
      <trkpt lat="43.64806" lon="3.33984">
        <ele>209.8</ele>
        <time>2026-05-17T12:11:30.000Z</time>
      </trkpt>
      <trkpt lat="43.64807" lon="3.33983">
        <ele>209.4</ele>
        <time>2026-05-17T12:11:31.000Z</time>
      </trkpt>
      <trkpt lat="43.64807" lon="3.33982">
        <ele>209.2</ele>
        <time>2026-05-17T12:11:32.000Z</time>
      </trkpt>
      <trkpt lat="43.64807" lon="3.33981">
        <ele>209.6</ele>
        <time>2026-05-17T12:11:33.000Z</time>
      </trkpt>
      <trkpt lat="43.64807" lon="3.33979">
        <ele>209.6</ele>
        <time>2026-05-17T12:11:34.000Z</time>
      </trkpt>
      <trkpt lat="43.64807" lon="3.33976">
        <ele>209.7</ele>
        <time>2026-05-17T12:11:35.000Z</time>
      </trkpt>
      <trkpt lat="43.64807" lon="3.33974">
        <ele>209.5</ele>
        <time>2026-05-17T12:11:36.000Z</time>
      </trkpt>
      <trkpt lat="43.64807" lon="3.33972">
        <ele>209.1</ele>
        <time>2026-05-17T12:11:37.000Z</time>
      </trkpt>
      <trkpt lat="43.64807" lon="3.33971">
        <ele>208.8</ele>
        <time>2026-05-17T12:11:38.000Z</time>
      </trkpt>
      <trkpt lat="43.64807" lon="3.33969">
        <ele>208.5</ele>
        <time>2026-05-17T12:11:39.000Z</time>
      </trkpt>
      <trkpt lat="43.64807" lon="3.33968">
        <ele>207.9</ele>
        <time>2026-05-17T12:11:40.000Z</time>
      </trkpt>
      <trkpt lat="43.64808" lon="3.33967">
        <ele>207.4</ele>
        <time>2026-05-17T12:11:41.000Z</time>
      </trkpt>
      <trkpt lat="43.64808" lon="3.33965">
        <ele>207</ele>
        <time>2026-05-17T12:11:42.000Z</time>
      </trkpt>
      <trkpt lat="43.64808" lon="3.33963">
        <ele>206.7</ele>
        <time>2026-05-17T12:11:43.000Z</time>
      </trkpt>
      <trkpt lat="43.64808" lon="3.33961">
        <ele>206.4</ele>
        <time>2026-05-17T12:11:44.000Z</time>
      </trkpt>
      <trkpt lat="43.64809" lon="3.3396">
        <ele>206.3</ele>
        <time>2026-05-17T12:11:45.000Z</time>
      </trkpt>
      <trkpt lat="43.64809" lon="3.33959">
        <ele>206.1</ele>
        <time>2026-05-17T12:11:46.000Z</time>
      </trkpt>
      <trkpt lat="43.64809" lon="3.33957">
        <ele>206</ele>
        <time>2026-05-17T12:11:47.000Z</time>
      </trkpt>
      <trkpt lat="43.64809" lon="3.33955">
        <ele>205.8</ele>
        <time>2026-05-17T12:11:48.000Z</time>
      </trkpt>
      <trkpt lat="43.6481" lon="3.33953">
        <ele>205.7</ele>
        <time>2026-05-17T12:11:49.000Z</time>
      </trkpt>
      <trkpt lat="43.6481" lon="3.33952">
        <ele>205.9</ele>
        <time>2026-05-17T12:11:50.000Z</time>
      </trkpt>
      <trkpt lat="43.64811" lon="3.33951">
        <ele>205.5</ele>
        <time>2026-05-17T12:11:51.000Z</time>
      </trkpt>
      <trkpt lat="43.64812" lon="3.33949">
        <ele>205.3</ele>
        <time>2026-05-17T12:11:52.000Z</time>
      </trkpt>
      <trkpt lat="43.64812" lon="3.33947">
        <ele>205.4</ele>
        <time>2026-05-17T12:11:53.000Z</time>
      </trkpt>
      <trkpt lat="43.64813" lon="3.33945">
        <ele>205.9</ele>
        <time>2026-05-17T12:11:54.000Z</time>
      </trkpt>
      <trkpt lat="43.64813" lon="3.33943">
        <ele>205.7</ele>
        <time>2026-05-17T12:11:55.000Z</time>
      </trkpt>
      <trkpt lat="43.64813" lon="3.33942">
        <ele>205.6</ele>
        <time>2026-05-17T12:11:56.000Z</time>
      </trkpt>
      <trkpt lat="43.64814" lon="3.3394">
        <ele>205.6</ele>
        <time>2026-05-17T12:11:57.000Z</time>
      </trkpt>
      <trkpt lat="43.64814" lon="3.3394">
        <ele>205.4</ele>
        <time>2026-05-17T12:11:58.000Z</time>
      </trkpt>
      <trkpt lat="43.64815" lon="3.3394">
        <ele>205.3</ele>
        <time>2026-05-17T12:11:59.000Z</time>
      </trkpt>
      <trkpt lat="43.64815" lon="3.3394">
        <ele>205.4</ele>
        <time>2026-05-17T12:12:00.000Z</time>
      </trkpt>
      <trkpt lat="43.64816" lon="3.3394">
        <ele>205.2</ele>
        <time>2026-05-17T12:12:01.000Z</time>
      </trkpt>
      <trkpt lat="43.64816" lon="3.33939">
        <ele>204.9</ele>
        <time>2026-05-17T12:12:02.000Z</time>
      </trkpt>
      <trkpt lat="43.64817" lon="3.33938">
        <ele>204.3</ele>
        <time>2026-05-17T12:12:03.000Z</time>
      </trkpt>
      <trkpt lat="43.64818" lon="3.33938">
        <ele>203.8</ele>
        <time>2026-05-17T12:12:04.000Z</time>
      </trkpt>
      <trkpt lat="43.64818" lon="3.33936">
        <ele>203.3</ele>
        <time>2026-05-17T12:12:05.000Z</time>
      </trkpt>
      <trkpt lat="43.64819" lon="3.33935">
        <ele>202.7</ele>
        <time>2026-05-17T12:12:06.000Z</time>
      </trkpt>
      <trkpt lat="43.64819" lon="3.33935">
        <ele>202.3</ele>
        <time>2026-05-17T12:12:07.000Z</time>
      </trkpt>
      <trkpt lat="43.64819" lon="3.33934">
        <ele>201.8</ele>
        <time>2026-05-17T12:12:08.000Z</time>
      </trkpt>
      <trkpt lat="43.64819" lon="3.33933">
        <ele>201.7</ele>
        <time>2026-05-17T12:12:09.000Z</time>
      </trkpt>
      <trkpt lat="43.64819" lon="3.33932">
        <ele>201.6</ele>
        <time>2026-05-17T12:12:10.000Z</time>
      </trkpt>
      <trkpt lat="43.6482" lon="3.33931">
        <ele>201.7</ele>
        <time>2026-05-17T12:12:11.000Z</time>
      </trkpt>
      <trkpt lat="43.64821" lon="3.3393">
        <ele>201.6</ele>
        <time>2026-05-17T12:12:12.000Z</time>
      </trkpt>
      <trkpt lat="43.64821" lon="3.33929">
        <ele>201.4</ele>
        <time>2026-05-17T12:12:13.000Z</time>
      </trkpt>
      <trkpt lat="43.64822" lon="3.33927">
        <ele>201</ele>
        <time>2026-05-17T12:12:14.000Z</time>
      </trkpt>
      <trkpt lat="43.64822" lon="3.33926">
        <ele>200.8</ele>
        <time>2026-05-17T12:12:15.000Z</time>
      </trkpt>
      <trkpt lat="43.64822" lon="3.33925">
        <ele>200.5</ele>
        <time>2026-05-17T12:12:16.000Z</time>
      </trkpt>
      <trkpt lat="43.64822" lon="3.33922">
        <ele>200.7</ele>
        <time>2026-05-17T12:12:17.000Z</time>
      </trkpt>
      <trkpt lat="43.64822" lon="3.3392">
        <ele>200.8</ele>
        <time>2026-05-17T12:12:18.000Z</time>
      </trkpt>
      <trkpt lat="43.64822" lon="3.33917">
        <ele>201</ele>
        <time>2026-05-17T12:12:19.000Z</time>
      </trkpt>
      <trkpt lat="43.64822" lon="3.33916">
        <ele>201.2</ele>
        <time>2026-05-17T12:12:20.000Z</time>
      </trkpt>
      <trkpt lat="43.64822" lon="3.33914">
        <ele>201.4</ele>
        <time>2026-05-17T12:12:21.000Z</time>
      </trkpt>
      <trkpt lat="43.64821" lon="3.33913">
        <ele>201.4</ele>
        <time>2026-05-17T12:12:22.000Z</time>
      </trkpt>
      <trkpt lat="43.6482" lon="3.33912">
        <ele>201.4</ele>
        <time>2026-05-17T12:12:23.000Z</time>
      </trkpt>
      <trkpt lat="43.64821" lon="3.33911">
        <ele>201.4</ele>
        <time>2026-05-17T12:12:24.000Z</time>
      </trkpt>
      <trkpt lat="43.64821" lon="3.33911">
        <ele>200.9</ele>
        <time>2026-05-17T12:12:25.000Z</time>
      </trkpt>
      <trkpt lat="43.64822" lon="3.3391">
        <ele>200.4</ele>
        <time>2026-05-17T12:12:26.000Z</time>
      </trkpt>
      <trkpt lat="43.64823" lon="3.3391">
        <ele>200.2</ele>
        <time>2026-05-17T12:12:27.000Z</time>
      </trkpt>
      <trkpt lat="43.64825" lon="3.3391">
        <ele>200.4</ele>
        <time>2026-05-17T12:12:28.000Z</time>
      </trkpt>
      <trkpt lat="43.64825" lon="3.33909">
        <ele>200.3</ele>
        <time>2026-05-17T12:12:29.000Z</time>
      </trkpt>
      <trkpt lat="43.64826" lon="3.33908">
        <ele>200.2</ele>
        <time>2026-05-17T12:12:30.000Z</time>
      </trkpt>
      <trkpt lat="43.64827" lon="3.33907">
        <ele>200.3</ele>
        <time>2026-05-17T12:12:31.000Z</time>
      </trkpt>
      <trkpt lat="43.64828" lon="3.33906">
        <ele>200.3</ele>
        <time>2026-05-17T12:12:32.000Z</time>
      </trkpt>
      <trkpt lat="43.64829" lon="3.33906">
        <ele>200.3</ele>
        <time>2026-05-17T12:12:33.000Z</time>
      </trkpt>
      <trkpt lat="43.64829" lon="3.33905">
        <ele>200.5</ele>
        <time>2026-05-17T12:12:34.000Z</time>
      </trkpt>
      <trkpt lat="43.6483" lon="3.33905">
        <ele>200.5</ele>
        <time>2026-05-17T12:12:35.000Z</time>
      </trkpt>
      <trkpt lat="43.6483" lon="3.33904">
        <ele>200.4</ele>
        <time>2026-05-17T12:12:36.000Z</time>
      </trkpt>
      <trkpt lat="43.6483" lon="3.33902">
        <ele>199.9</ele>
        <time>2026-05-17T12:12:37.000Z</time>
      </trkpt>
      <trkpt lat="43.6483" lon="3.33901">
        <ele>199.7</ele>
        <time>2026-05-17T12:12:38.000Z</time>
      </trkpt>
      <trkpt lat="43.64831" lon="3.339">
        <ele>199.8</ele>
        <time>2026-05-17T12:12:39.000Z</time>
      </trkpt>
      <trkpt lat="43.64831" lon="3.33898">
        <ele>200.2</ele>
        <time>2026-05-17T12:12:40.000Z</time>
      </trkpt>
      <trkpt lat="43.64831" lon="3.33897">
        <ele>200.4</ele>
        <time>2026-05-17T12:12:41.000Z</time>
      </trkpt>
      <trkpt lat="43.64831" lon="3.33896">
        <ele>200.8</ele>
        <time>2026-05-17T12:12:42.000Z</time>
      </trkpt>
      <trkpt lat="43.64832" lon="3.33894">
        <ele>200.8</ele>
        <time>2026-05-17T12:12:43.000Z</time>
      </trkpt>
      <trkpt lat="43.64832" lon="3.33893">
        <ele>200.7</ele>
        <time>2026-05-17T12:12:44.000Z</time>
      </trkpt>
      <trkpt lat="43.64832" lon="3.33892">
        <ele>200.5</ele>
        <time>2026-05-17T12:12:45.000Z</time>
      </trkpt>
      <trkpt lat="43.64832" lon="3.33891">
        <ele>200</ele>
        <time>2026-05-17T12:12:46.000Z</time>
      </trkpt>
      <trkpt lat="43.64833" lon="3.3389">
        <ele>200</ele>
        <time>2026-05-17T12:12:47.000Z</time>
      </trkpt>
      <trkpt lat="43.64834" lon="3.33887">
        <ele>200.2</ele>
        <time>2026-05-17T12:12:48.000Z</time>
      </trkpt>
      <trkpt lat="43.64835" lon="3.33886">
        <ele>200.4</ele>
        <time>2026-05-17T12:12:49.000Z</time>
      </trkpt>
      <trkpt lat="43.64835" lon="3.33885">
        <ele>200.7</ele>
        <time>2026-05-17T12:12:50.000Z</time>
      </trkpt>
      <trkpt lat="43.64836" lon="3.33882">
        <ele>201</ele>
        <time>2026-05-17T12:12:51.000Z</time>
      </trkpt>
      <trkpt lat="43.64836" lon="3.33882">
        <ele>201.2</ele>
        <time>2026-05-17T12:12:52.000Z</time>
      </trkpt>
      <trkpt lat="43.64836" lon="3.3388">
        <ele>201.2</ele>
        <time>2026-05-17T12:12:53.000Z</time>
      </trkpt>
      <trkpt lat="43.64836" lon="3.3388">
        <ele>201.9</ele>
        <time>2026-05-17T12:12:54.000Z</time>
      </trkpt>
      <trkpt lat="43.64837" lon="3.33879">
        <ele>202.1</ele>
        <time>2026-05-17T12:12:55.000Z</time>
      </trkpt>
      <trkpt lat="43.64838" lon="3.33878">
        <ele>202.3</ele>
        <time>2026-05-17T12:12:56.000Z</time>
      </trkpt>
      <trkpt lat="43.64837" lon="3.33877">
        <ele>202.2</ele>
        <time>2026-05-17T12:12:57.000Z</time>
      </trkpt>
      <trkpt lat="43.64837" lon="3.33877">
        <ele>202.4</ele>
        <time>2026-05-17T12:12:58.000Z</time>
      </trkpt>
      <trkpt lat="43.64837" lon="3.33875">
        <ele>202.7</ele>
        <time>2026-05-17T12:12:59.000Z</time>
      </trkpt>
      <trkpt lat="43.64838" lon="3.33873">
        <ele>202.9</ele>
        <time>2026-05-17T12:13:00.000Z</time>
      </trkpt>
      <trkpt lat="43.64839" lon="3.33871">
        <ele>202.9</ele>
        <time>2026-05-17T12:13:01.000Z</time>
      </trkpt>
      <trkpt lat="43.6484" lon="3.3387">
        <ele>203.2</ele>
        <time>2026-05-17T12:13:02.000Z</time>
      </trkpt>
      <trkpt lat="43.6484" lon="3.33869">
        <ele>202.8</ele>
        <time>2026-05-17T12:13:03.000Z</time>
      </trkpt>
      <trkpt lat="43.6484" lon="3.33868">
        <ele>202.9</ele>
        <time>2026-05-17T12:13:04.000Z</time>
      </trkpt>
      <trkpt lat="43.6484" lon="3.33867">
        <ele>203.1</ele>
        <time>2026-05-17T12:13:05.000Z</time>
      </trkpt>
      <trkpt lat="43.6484" lon="3.33865">
        <ele>203.6</ele>
        <time>2026-05-17T12:13:06.000Z</time>
      </trkpt>
      <trkpt lat="43.6484" lon="3.33863">
        <ele>203.8</ele>
        <time>2026-05-17T12:13:07.000Z</time>
      </trkpt>
      <trkpt lat="43.6484" lon="3.33862">
        <ele>204.2</ele>
        <time>2026-05-17T12:13:08.000Z</time>
      </trkpt>
      <trkpt lat="43.6484" lon="3.3386">
        <ele>204</ele>
        <time>2026-05-17T12:13:09.000Z</time>
      </trkpt>
      <trkpt lat="43.6484" lon="3.33859">
        <ele>203.7</ele>
        <time>2026-05-17T12:13:10.000Z</time>
      </trkpt>
      <trkpt lat="43.6484" lon="3.33857">
        <ele>203.5</ele>
        <time>2026-05-17T12:13:11.000Z</time>
      </trkpt>
      <trkpt lat="43.6484" lon="3.33856">
        <ele>203.4</ele>
        <time>2026-05-17T12:13:12.000Z</time>
      </trkpt>
      <trkpt lat="43.64841" lon="3.33855">
        <ele>203.8</ele>
        <time>2026-05-17T12:13:13.000Z</time>
      </trkpt>
      <trkpt lat="43.64841" lon="3.33853">
        <ele>204</ele>
        <time>2026-05-17T12:13:14.000Z</time>
      </trkpt>
      <trkpt lat="43.64842" lon="3.33852">
        <ele>204.2</ele>
        <time>2026-05-17T12:13:15.000Z</time>
      </trkpt>
      <trkpt lat="43.64843" lon="3.3385">
        <ele>204.3</ele>
        <time>2026-05-17T12:13:16.000Z</time>
      </trkpt>
      <trkpt lat="43.64842" lon="3.33848">
        <ele>203.7</ele>
        <time>2026-05-17T12:13:17.000Z</time>
      </trkpt>
      <trkpt lat="43.64843" lon="3.33847">
        <ele>203.5</ele>
        <time>2026-05-17T12:13:18.000Z</time>
      </trkpt>
      <trkpt lat="43.64844" lon="3.33845">
        <ele>203.5</ele>
        <time>2026-05-17T12:13:19.000Z</time>
      </trkpt>
      <trkpt lat="43.64844" lon="3.33844">
        <ele>204</ele>
        <time>2026-05-17T12:13:20.000Z</time>
      </trkpt>
      <trkpt lat="43.64845" lon="3.33843">
        <ele>203.9</ele>
        <time>2026-05-17T12:13:21.000Z</time>
      </trkpt>
      <trkpt lat="43.64845" lon="3.33841">
        <ele>203.5</ele>
        <time>2026-05-17T12:13:22.000Z</time>
      </trkpt>
      <trkpt lat="43.64845" lon="3.3384">
        <ele>203.3</ele>
        <time>2026-05-17T12:13:23.000Z</time>
      </trkpt>
      <trkpt lat="43.64846" lon="3.33838">
        <ele>203.4</ele>
        <time>2026-05-17T12:13:24.000Z</time>
      </trkpt>
      <trkpt lat="43.64846" lon="3.33837">
        <ele>203.5</ele>
        <time>2026-05-17T12:13:25.000Z</time>
      </trkpt>
      <trkpt lat="43.64847" lon="3.33834">
        <ele>203.8</ele>
        <time>2026-05-17T12:13:26.000Z</time>
      </trkpt>
      <trkpt lat="43.64847" lon="3.33833">
        <ele>204.2</ele>
        <time>2026-05-17T12:13:27.000Z</time>
      </trkpt>
      <trkpt lat="43.64848" lon="3.33831">
        <ele>204.3</ele>
        <time>2026-05-17T12:13:28.000Z</time>
      </trkpt>
      <trkpt lat="43.64848" lon="3.3383">
        <ele>204.3</ele>
        <time>2026-05-17T12:13:29.000Z</time>
      </trkpt>
      <trkpt lat="43.64848" lon="3.33828">
        <ele>203.9</ele>
        <time>2026-05-17T12:13:30.000Z</time>
      </trkpt>
      <trkpt lat="43.64848" lon="3.33826">
        <ele>203.6</ele>
        <time>2026-05-17T12:13:31.000Z</time>
      </trkpt>
      <trkpt lat="43.64848" lon="3.33825">
        <ele>203.4</ele>
        <time>2026-05-17T12:13:32.000Z</time>
      </trkpt>
      <trkpt lat="43.64849" lon="3.33823">
        <ele>203.3</ele>
        <time>2026-05-17T12:13:33.000Z</time>
      </trkpt>
      <trkpt lat="43.64849" lon="3.33821">
        <ele>203.3</ele>
        <time>2026-05-17T12:13:34.000Z</time>
      </trkpt>
      <trkpt lat="43.64849" lon="3.33818">
        <ele>202.7</ele>
        <time>2026-05-17T12:13:35.000Z</time>
      </trkpt>
      <trkpt lat="43.64849" lon="3.33816">
        <ele>202.6</ele>
        <time>2026-05-17T12:13:36.000Z</time>
      </trkpt>
      <trkpt lat="43.64849" lon="3.33814">
        <ele>202.7</ele>
        <time>2026-05-17T12:13:37.000Z</time>
      </trkpt>
      <trkpt lat="43.64849" lon="3.33813">
        <ele>202.6</ele>
        <time>2026-05-17T12:13:38.000Z</time>
      </trkpt>
      <trkpt lat="43.6485" lon="3.33812">
        <ele>202.4</ele>
        <time>2026-05-17T12:13:39.000Z</time>
      </trkpt>
      <trkpt lat="43.6485" lon="3.33811">
        <ele>201.9</ele>
        <time>2026-05-17T12:13:40.000Z</time>
      </trkpt>
      <trkpt lat="43.64851" lon="3.3381">
        <ele>202.2</ele>
        <time>2026-05-17T12:13:41.000Z</time>
      </trkpt>
      <trkpt lat="43.64851" lon="3.33808">
        <ele>202.1</ele>
        <time>2026-05-17T12:13:42.000Z</time>
      </trkpt>
      <trkpt lat="43.64852" lon="3.33806">
        <ele>202.4</ele>
        <time>2026-05-17T12:13:43.000Z</time>
      </trkpt>
      <trkpt lat="43.64852" lon="3.33804">
        <ele>202.6</ele>
        <time>2026-05-17T12:13:44.000Z</time>
      </trkpt>
      <trkpt lat="43.64852" lon="3.33801">
        <ele>203</ele>
        <time>2026-05-17T12:13:45.000Z</time>
      </trkpt>
      <trkpt lat="43.64852" lon="3.33799">
        <ele>203.4</ele>
        <time>2026-05-17T12:13:46.000Z</time>
      </trkpt>
      <trkpt lat="43.64853" lon="3.33797">
        <ele>203.3</ele>
        <time>2026-05-17T12:13:47.000Z</time>
      </trkpt>
      <trkpt lat="43.64853" lon="3.33796">
        <ele>203.3</ele>
        <time>2026-05-17T12:13:48.000Z</time>
      </trkpt>
      <trkpt lat="43.64853" lon="3.33795">
        <ele>203.2</ele>
        <time>2026-05-17T12:13:49.000Z</time>
      </trkpt>
      <trkpt lat="43.64853" lon="3.33793">
        <ele>202.8</ele>
        <time>2026-05-17T12:13:50.000Z</time>
      </trkpt>
      <trkpt lat="43.64853" lon="3.33791">
        <ele>202.4</ele>
        <time>2026-05-17T12:13:51.000Z</time>
      </trkpt>
      <trkpt lat="43.64853" lon="3.33789">
        <ele>202</ele>
        <time>2026-05-17T12:13:52.000Z</time>
      </trkpt>
      <trkpt lat="43.64853" lon="3.33787">
        <ele>201.9</ele>
        <time>2026-05-17T12:13:53.000Z</time>
      </trkpt>
      <trkpt lat="43.64852" lon="3.33785">
        <ele>201.8</ele>
        <time>2026-05-17T12:13:54.000Z</time>
      </trkpt>
      <trkpt lat="43.64852" lon="3.33783">
        <ele>201.7</ele>
        <time>2026-05-17T12:13:55.000Z</time>
      </trkpt>
      <trkpt lat="43.64853" lon="3.33781">
        <ele>201.6</ele>
        <time>2026-05-17T12:13:56.000Z</time>
      </trkpt>
      <trkpt lat="43.64853" lon="3.3378">
        <ele>201.3</ele>
        <time>2026-05-17T12:13:57.000Z</time>
      </trkpt>
      <trkpt lat="43.64854" lon="3.33779">
        <ele>201.3</ele>
        <time>2026-05-17T12:13:58.000Z</time>
      </trkpt>
      <trkpt lat="43.64854" lon="3.33778">
        <ele>201</ele>
        <time>2026-05-17T12:13:59.000Z</time>
      </trkpt>
      <trkpt lat="43.64854" lon="3.33777">
        <ele>200.4</ele>
        <time>2026-05-17T12:14:00.000Z</time>
      </trkpt>
      <trkpt lat="43.64854" lon="3.33775">
        <ele>200.4</ele>
        <time>2026-05-17T12:14:01.000Z</time>
      </trkpt>
      <trkpt lat="43.64854" lon="3.33772">
        <ele>200.1</ele>
        <time>2026-05-17T12:14:02.000Z</time>
      </trkpt>
      <trkpt lat="43.64855" lon="3.33771">
        <ele>200</ele>
        <time>2026-05-17T12:14:03.000Z</time>
      </trkpt>
      <trkpt lat="43.64856" lon="3.33769">
        <ele>199.8</ele>
        <time>2026-05-17T12:14:04.000Z</time>
      </trkpt>
      <trkpt lat="43.64857" lon="3.33769">
        <ele>199.8</ele>
        <time>2026-05-17T12:14:05.000Z</time>
      </trkpt>
      <trkpt lat="43.64858" lon="3.33768">
        <ele>199.6</ele>
        <time>2026-05-17T12:14:06.000Z</time>
      </trkpt>
      <trkpt lat="43.64858" lon="3.33767">
        <ele>199.7</ele>
        <time>2026-05-17T12:14:07.000Z</time>
      </trkpt>
      <trkpt lat="43.64858" lon="3.33766">
        <ele>199.8</ele>
        <time>2026-05-17T12:14:08.000Z</time>
      </trkpt>
      <trkpt lat="43.64857" lon="3.33764">
        <ele>199.7</ele>
        <time>2026-05-17T12:14:09.000Z</time>
      </trkpt>
      <trkpt lat="43.64857" lon="3.33762">
        <ele>200</ele>
        <time>2026-05-17T12:14:10.000Z</time>
      </trkpt>
      <trkpt lat="43.64857" lon="3.3376">
        <ele>200.3</ele>
        <time>2026-05-17T12:14:11.000Z</time>
      </trkpt>
      <trkpt lat="43.64857" lon="3.33759">
        <ele>200.4</ele>
        <time>2026-05-17T12:14:12.000Z</time>
      </trkpt>
      <trkpt lat="43.64857" lon="3.33757">
        <ele>200.2</ele>
        <time>2026-05-17T12:14:13.000Z</time>
      </trkpt>
      <trkpt lat="43.64857" lon="3.33756">
        <ele>200.2</ele>
        <time>2026-05-17T12:14:14.000Z</time>
      </trkpt>
      <trkpt lat="43.64857" lon="3.33755">
        <ele>200</ele>
        <time>2026-05-17T12:14:15.000Z</time>
      </trkpt>
      <trkpt lat="43.64858" lon="3.33754">
        <ele>199.8</ele>
        <time>2026-05-17T12:14:16.000Z</time>
      </trkpt>
      <trkpt lat="43.64858" lon="3.33753">
        <ele>200.3</ele>
        <time>2026-05-17T12:14:17.000Z</time>
      </trkpt>
      <trkpt lat="43.64858" lon="3.33751">
        <ele>200.4</ele>
        <time>2026-05-17T12:14:18.000Z</time>
      </trkpt>
      <trkpt lat="43.64858" lon="3.33749">
        <ele>200.2</ele>
        <time>2026-05-17T12:14:19.000Z</time>
      </trkpt>
      <trkpt lat="43.64857" lon="3.33749">
        <ele>200</ele>
        <time>2026-05-17T12:14:20.000Z</time>
      </trkpt>
      <trkpt lat="43.64858" lon="3.33747">
        <ele>199.7</ele>
        <time>2026-05-17T12:14:21.000Z</time>
      </trkpt>
      <trkpt lat="43.64858" lon="3.33746">
        <ele>199.2</ele>
        <time>2026-05-17T12:14:22.000Z</time>
      </trkpt>
      <trkpt lat="43.64857" lon="3.33744">
        <ele>199.2</ele>
        <time>2026-05-17T12:14:23.000Z</time>
      </trkpt>
      <trkpt lat="43.64857" lon="3.33742">
        <ele>199.2</ele>
        <time>2026-05-17T12:14:24.000Z</time>
      </trkpt>
      <trkpt lat="43.64857" lon="3.3374">
        <ele>199.5</ele>
        <time>2026-05-17T12:14:25.000Z</time>
      </trkpt>
      <trkpt lat="43.64856" lon="3.33738">
        <ele>199.4</ele>
        <time>2026-05-17T12:14:26.000Z</time>
      </trkpt>
      <trkpt lat="43.64856" lon="3.33737">
        <ele>199</ele>
        <time>2026-05-17T12:14:27.000Z</time>
      </trkpt>
      <trkpt lat="43.64856" lon="3.33736">
        <ele>198.7</ele>
        <time>2026-05-17T12:14:28.000Z</time>
      </trkpt>
      <trkpt lat="43.64856" lon="3.33734">
        <ele>198.3</ele>
        <time>2026-05-17T12:14:29.000Z</time>
      </trkpt>
      <trkpt lat="43.64856" lon="3.33733">
        <ele>197.9</ele>
        <time>2026-05-17T12:14:30.000Z</time>
      </trkpt>
      <trkpt lat="43.64857" lon="3.33731">
        <ele>197.8</ele>
        <time>2026-05-17T12:14:31.000Z</time>
      </trkpt>
      <trkpt lat="43.64857" lon="3.3373">
        <ele>198.2</ele>
        <time>2026-05-17T12:14:32.000Z</time>
      </trkpt>
      <trkpt lat="43.64857" lon="3.33729">
        <ele>197.8</ele>
        <time>2026-05-17T12:14:33.000Z</time>
      </trkpt>
      <trkpt lat="43.64858" lon="3.33728">
        <ele>198.1</ele>
        <time>2026-05-17T12:14:34.000Z</time>
      </trkpt>
      <trkpt lat="43.64858" lon="3.33726">
        <ele>198.2</ele>
        <time>2026-05-17T12:14:35.000Z</time>
      </trkpt>
      <trkpt lat="43.64858" lon="3.33724">
        <ele>198.3</ele>
        <time>2026-05-17T12:14:36.000Z</time>
      </trkpt>
      <trkpt lat="43.64857" lon="3.33722">
        <ele>198.3</ele>
        <time>2026-05-17T12:14:37.000Z</time>
      </trkpt>
      <trkpt lat="43.64856" lon="3.33718">
        <ele>197.5</ele>
        <time>2026-05-17T12:14:38.999Z</time>
      </trkpt>
      <trkpt lat="43.64856" lon="3.33715">
        <ele>197.3</ele>
        <time>2026-05-17T12:14:39.999Z</time>
      </trkpt>
      <trkpt lat="43.64856" lon="3.33713">
        <ele>196.6</ele>
        <time>2026-05-17T12:14:40.999Z</time>
      </trkpt>
      <trkpt lat="43.64856" lon="3.33712">
        <ele>196.2</ele>
        <time>2026-05-17T12:14:41.999Z</time>
      </trkpt>
      <trkpt lat="43.64857" lon="3.3371">
        <ele>195.8</ele>
        <time>2026-05-17T12:14:42.999Z</time>
      </trkpt>
      <trkpt lat="43.64857" lon="3.33709">
        <ele>195.8</ele>
        <time>2026-05-17T12:14:43.999Z</time>
      </trkpt>
      <trkpt lat="43.64858" lon="3.33708">
        <ele>195.7</ele>
        <time>2026-05-17T12:14:44.999Z</time>
      </trkpt>
      <trkpt lat="43.64858" lon="3.33707">
        <ele>195.5</ele>
        <time>2026-05-17T12:14:45.999Z</time>
      </trkpt>
      <trkpt lat="43.64858" lon="3.33706">
        <ele>195.2</ele>
        <time>2026-05-17T12:14:46.999Z</time>
      </trkpt>
      <trkpt lat="43.64858" lon="3.33703">
        <ele>195.1</ele>
        <time>2026-05-17T12:14:47.999Z</time>
      </trkpt>
      <trkpt lat="43.64858" lon="3.33701">
        <ele>194.9</ele>
        <time>2026-05-17T12:14:48.999Z</time>
      </trkpt>
      <trkpt lat="43.64858" lon="3.337">
        <ele>194.6</ele>
        <time>2026-05-17T12:14:49.999Z</time>
      </trkpt>
      <trkpt lat="43.64857" lon="3.33698">
        <ele>194.1</ele>
        <time>2026-05-17T12:14:50.999Z</time>
      </trkpt>
      <trkpt lat="43.64856" lon="3.33696">
        <ele>193.6</ele>
        <time>2026-05-17T12:14:51.999Z</time>
      </trkpt>
      <trkpt lat="43.64855" lon="3.33695">
        <ele>193.3</ele>
        <time>2026-05-17T12:14:52.999Z</time>
      </trkpt>
      <trkpt lat="43.64854" lon="3.33694">
        <ele>193</ele>
        <time>2026-05-17T12:14:53.999Z</time>
      </trkpt>
      <trkpt lat="43.64854" lon="3.33694">
        <ele>192.6</ele>
        <time>2026-05-17T12:14:54.999Z</time>
      </trkpt>
      <trkpt lat="43.64855" lon="3.33693">
        <ele>192.6</ele>
        <time>2026-05-17T12:14:55.999Z</time>
      </trkpt>
      <trkpt lat="43.64856" lon="3.33692">
        <ele>192.5</ele>
        <time>2026-05-17T12:14:56.999Z</time>
      </trkpt>
      <trkpt lat="43.64856" lon="3.3369">
        <ele>192.4</ele>
        <time>2026-05-17T12:14:57.999Z</time>
      </trkpt>
      <trkpt lat="43.64857" lon="3.33688">
        <ele>192.4</ele>
        <time>2026-05-17T12:14:58.999Z</time>
      </trkpt>
      <trkpt lat="43.64857" lon="3.33687">
        <ele>192.7</ele>
        <time>2026-05-17T12:14:59.999Z</time>
      </trkpt>
      <trkpt lat="43.64857" lon="3.33685">
        <ele>192.8</ele>
        <time>2026-05-17T12:15:00.999Z</time>
      </trkpt>
      <trkpt lat="43.64858" lon="3.33684">
        <ele>192.4</ele>
        <time>2026-05-17T12:15:01.999Z</time>
      </trkpt>
      <trkpt lat="43.64858" lon="3.33682">
        <ele>192.2</ele>
        <time>2026-05-17T12:15:02.999Z</time>
      </trkpt>
      <trkpt lat="43.64858" lon="3.3368">
        <ele>192</ele>
        <time>2026-05-17T12:15:03.999Z</time>
      </trkpt>
      <trkpt lat="43.64858" lon="3.33679">
        <ele>191.3</ele>
        <time>2026-05-17T12:15:04.999Z</time>
      </trkpt>
      <trkpt lat="43.64859" lon="3.33677">
        <ele>191.4</ele>
        <time>2026-05-17T12:15:05.999Z</time>
      </trkpt>
      <trkpt lat="43.6486" lon="3.33677">
        <ele>191.5</ele>
        <time>2026-05-17T12:15:06.999Z</time>
      </trkpt>
      <trkpt lat="43.6486" lon="3.33676">
        <ele>191.6</ele>
        <time>2026-05-17T12:15:07.999Z</time>
      </trkpt>
      <trkpt lat="43.64861" lon="3.33675">
        <ele>191.8</ele>
        <time>2026-05-17T12:15:08.999Z</time>
      </trkpt>
      <trkpt lat="43.64861" lon="3.33674">
        <ele>191.9</ele>
        <time>2026-05-17T12:15:09.999Z</time>
      </trkpt>
      <trkpt lat="43.64862" lon="3.33673">
        <ele>192.1</ele>
        <time>2026-05-17T12:15:10.999Z</time>
      </trkpt>
      <trkpt lat="43.64861" lon="3.33671">
        <ele>192.3</ele>
        <time>2026-05-17T12:15:11.999Z</time>
      </trkpt>
      <trkpt lat="43.64862" lon="3.33669">
        <ele>192.5</ele>
        <time>2026-05-17T12:15:12.999Z</time>
      </trkpt>
      <trkpt lat="43.64862" lon="3.33666">
        <ele>192.8</ele>
        <time>2026-05-17T12:15:13.999Z</time>
      </trkpt>
      <trkpt lat="43.64863" lon="3.33664">
        <ele>192.6</ele>
        <time>2026-05-17T12:15:14.999Z</time>
      </trkpt>
      <trkpt lat="43.64863" lon="3.33662">
        <ele>192.5</ele>
        <time>2026-05-17T12:15:15.999Z</time>
      </trkpt>
      <trkpt lat="43.64863" lon="3.33661">
        <ele>192.4</ele>
        <time>2026-05-17T12:15:16.999Z</time>
      </trkpt>
      <trkpt lat="43.64863" lon="3.3366">
        <ele>191.9</ele>
        <time>2026-05-17T12:15:17.999Z</time>
      </trkpt>
      <trkpt lat="43.64862" lon="3.33657">
        <ele>191.9</ele>
        <time>2026-05-17T12:15:18.999Z</time>
      </trkpt>
      <trkpt lat="43.64861" lon="3.33656">
        <ele>191.6</ele>
        <time>2026-05-17T12:15:19.999Z</time>
      </trkpt>
      <trkpt lat="43.6486" lon="3.33655">
        <ele>191.4</ele>
        <time>2026-05-17T12:15:20.999Z</time>
      </trkpt>
      <trkpt lat="43.6486" lon="3.33654">
        <ele>191.5</ele>
        <time>2026-05-17T12:15:21.999Z</time>
      </trkpt>
      <trkpt lat="43.6486" lon="3.33652">
        <ele>191.5</ele>
        <time>2026-05-17T12:15:22.999Z</time>
      </trkpt>
      <trkpt lat="43.6486" lon="3.3365">
        <ele>191.3</ele>
        <time>2026-05-17T12:15:23.999Z</time>
      </trkpt>
      <trkpt lat="43.64859" lon="3.33649">
        <ele>191.4</ele>
        <time>2026-05-17T12:15:24.999Z</time>
      </trkpt>
      <trkpt lat="43.64858" lon="3.33647">
        <ele>191</ele>
        <time>2026-05-17T12:15:25.999Z</time>
      </trkpt>
      <trkpt lat="43.64857" lon="3.33646">
        <ele>191.2</ele>
        <time>2026-05-17T12:15:26.999Z</time>
      </trkpt>
      <trkpt lat="43.64857" lon="3.33645">
        <ele>191.4</ele>
        <time>2026-05-17T12:15:27.999Z</time>
      </trkpt>
      <trkpt lat="43.64857" lon="3.33644">
        <ele>191.5</ele>
        <time>2026-05-17T12:15:28.999Z</time>
      </trkpt>
      <trkpt lat="43.64856" lon="3.33643">
        <ele>191.6</ele>
        <time>2026-05-17T12:15:29.999Z</time>
      </trkpt>
      <trkpt lat="43.64856" lon="3.33641">
        <ele>191.6</ele>
        <time>2026-05-17T12:15:30.999Z</time>
      </trkpt>
      <trkpt lat="43.64855" lon="3.3364">
        <ele>191.5</ele>
        <time>2026-05-17T12:15:31.999Z</time>
      </trkpt>
      <trkpt lat="43.64855" lon="3.33637">
        <ele>191.5</ele>
        <time>2026-05-17T12:15:32.999Z</time>
      </trkpt>
      <trkpt lat="43.64855" lon="3.33635">
        <ele>191.2</ele>
        <time>2026-05-17T12:15:33.999Z</time>
      </trkpt>
      <trkpt lat="43.64855" lon="3.33634">
        <ele>191</ele>
        <time>2026-05-17T12:15:34.999Z</time>
      </trkpt>
      <trkpt lat="43.64855" lon="3.33633">
        <ele>190.9</ele>
        <time>2026-05-17T12:15:35.999Z</time>
      </trkpt>
      <trkpt lat="43.64854" lon="3.33632">
        <ele>190.9</ele>
        <time>2026-05-17T12:15:36.999Z</time>
      </trkpt>
      <trkpt lat="43.64854" lon="3.33631">
        <ele>191</ele>
        <time>2026-05-17T12:15:37.999Z</time>
      </trkpt>
      <trkpt lat="43.64853" lon="3.33629">
        <ele>191.5</ele>
        <time>2026-05-17T12:15:38.999Z</time>
      </trkpt>
      <trkpt lat="43.64853" lon="3.33627">
        <ele>191.7</ele>
        <time>2026-05-17T12:15:39.999Z</time>
      </trkpt>
      <trkpt lat="43.64852" lon="3.33625">
        <ele>191.9</ele>
        <time>2026-05-17T12:15:40.999Z</time>
      </trkpt>
      <trkpt lat="43.64852" lon="3.33624">
        <ele>192.3</ele>
        <time>2026-05-17T12:15:41.999Z</time>
      </trkpt>
      <trkpt lat="43.64852" lon="3.33623">
        <ele>192.4</ele>
        <time>2026-05-17T12:15:42.999Z</time>
      </trkpt>
      <trkpt lat="43.64852" lon="3.33622">
        <ele>192.4</ele>
        <time>2026-05-17T12:15:43.999Z</time>
      </trkpt>
      <trkpt lat="43.64852" lon="3.3362">
        <ele>192.3</ele>
        <time>2026-05-17T12:15:44.999Z</time>
      </trkpt>
      <trkpt lat="43.64853" lon="3.33619">
        <ele>192.1</ele>
        <time>2026-05-17T12:15:45.999Z</time>
      </trkpt>
      <trkpt lat="43.64852" lon="3.33616">
        <ele>192</ele>
        <time>2026-05-17T12:15:46.999Z</time>
      </trkpt>
      <trkpt lat="43.64852" lon="3.33614">
        <ele>192.1</ele>
        <time>2026-05-17T12:15:47.999Z</time>
      </trkpt>
      <trkpt lat="43.64852" lon="3.33613">
        <ele>192.2</ele>
        <time>2026-05-17T12:15:48.999Z</time>
      </trkpt>
      <trkpt lat="43.64852" lon="3.33612">
        <ele>192.1</ele>
        <time>2026-05-17T12:15:49.999Z</time>
      </trkpt>
      <trkpt lat="43.64852" lon="3.3361">
        <ele>192.3</ele>
        <time>2026-05-17T12:15:50.999Z</time>
      </trkpt>
      <trkpt lat="43.64852" lon="3.33609">
        <ele>192.2</ele>
        <time>2026-05-17T12:15:51.999Z</time>
      </trkpt>
      <trkpt lat="43.64853" lon="3.33607">
        <ele>192.2</ele>
        <time>2026-05-17T12:15:52.999Z</time>
      </trkpt>
      <trkpt lat="43.64853" lon="3.33606">
        <ele>191.9</ele>
        <time>2026-05-17T12:15:53.999Z</time>
      </trkpt>
      <trkpt lat="43.64853" lon="3.33605">
        <ele>191.6</ele>
        <time>2026-05-17T12:15:54.999Z</time>
      </trkpt>
      <trkpt lat="43.64853" lon="3.33603">
        <ele>191</ele>
        <time>2026-05-17T12:15:55.999Z</time>
      </trkpt>
      <trkpt lat="43.64853" lon="3.33602">
        <ele>190.6</ele>
        <time>2026-05-17T12:15:56.999Z</time>
      </trkpt>
      <trkpt lat="43.64854" lon="3.336">
        <ele>190.7</ele>
        <time>2026-05-17T12:15:57.999Z</time>
      </trkpt>
      <trkpt lat="43.64854" lon="3.33599">
        <ele>190.7</ele>
        <time>2026-05-17T12:15:58.999Z</time>
      </trkpt>
      <trkpt lat="43.64855" lon="3.33597">
        <ele>191.3</ele>
        <time>2026-05-17T12:15:59.999Z</time>
      </trkpt>
      <trkpt lat="43.64854" lon="3.33595">
        <ele>191.3</ele>
        <time>2026-05-17T12:16:00.999Z</time>
      </trkpt>
      <trkpt lat="43.64854" lon="3.33593">
        <ele>191.6</ele>
        <time>2026-05-17T12:16:01.999Z</time>
      </trkpt>
      <trkpt lat="43.64853" lon="3.33591">
        <ele>191.5</ele>
        <time>2026-05-17T12:16:02.999Z</time>
      </trkpt>
      <trkpt lat="43.64854" lon="3.3359">
        <ele>191.4</ele>
        <time>2026-05-17T12:16:03.999Z</time>
      </trkpt>
      <trkpt lat="43.64854" lon="3.33588">
        <ele>191.1</ele>
        <time>2026-05-17T12:16:04.999Z</time>
      </trkpt>
      <trkpt lat="43.64855" lon="3.33586">
        <ele>191</ele>
        <time>2026-05-17T12:16:05.999Z</time>
      </trkpt>
      <trkpt lat="43.64855" lon="3.33584">
        <ele>190.7</ele>
        <time>2026-05-17T12:16:06.999Z</time>
      </trkpt>
      <trkpt lat="43.64856" lon="3.33582">
        <ele>190</ele>
        <time>2026-05-17T12:16:07.999Z</time>
      </trkpt>
      <trkpt lat="43.64856" lon="3.33581">
        <ele>189.7</ele>
        <time>2026-05-17T12:16:08.999Z</time>
      </trkpt>
      <trkpt lat="43.64856" lon="3.3358">
        <ele>190</ele>
        <time>2026-05-17T12:16:09.999Z</time>
      </trkpt>
      <trkpt lat="43.64856" lon="3.33578">
        <ele>190</ele>
        <time>2026-05-17T12:16:10.999Z</time>
      </trkpt>
      <trkpt lat="43.64856" lon="3.33576">
        <ele>189.8</ele>
        <time>2026-05-17T12:16:11.999Z</time>
      </trkpt>
      <trkpt lat="43.64855" lon="3.33574">
        <ele>189.6</ele>
        <time>2026-05-17T12:16:12.999Z</time>
      </trkpt>
      <trkpt lat="43.64855" lon="3.33572">
        <ele>189.4</ele>
        <time>2026-05-17T12:16:13.999Z</time>
      </trkpt>
      <trkpt lat="43.64855" lon="3.33571">
        <ele>189.1</ele>
        <time>2026-05-17T12:16:14.999Z</time>
      </trkpt>
      <trkpt lat="43.64855" lon="3.33569">
        <ele>189.1</ele>
        <time>2026-05-17T12:16:15.999Z</time>
      </trkpt>
      <trkpt lat="43.64855" lon="3.33568">
        <ele>189</ele>
        <time>2026-05-17T12:16:16.999Z</time>
      </trkpt>
      <trkpt lat="43.64855" lon="3.33567">
        <ele>188.4</ele>
        <time>2026-05-17T12:16:17.999Z</time>
      </trkpt>
      <trkpt lat="43.64855" lon="3.33566">
        <ele>188.1</ele>
        <time>2026-05-17T12:16:18.999Z</time>
      </trkpt>
      <trkpt lat="43.64854" lon="3.33565">
        <ele>187.7</ele>
        <time>2026-05-17T12:16:19.999Z</time>
      </trkpt>
      <trkpt lat="43.64854" lon="3.33564">
        <ele>187.7</ele>
        <time>2026-05-17T12:16:20.999Z</time>
      </trkpt>
      <trkpt lat="43.64854" lon="3.33562">
        <ele>187.9</ele>
        <time>2026-05-17T12:16:21.999Z</time>
      </trkpt>
      <trkpt lat="43.64854" lon="3.3356">
        <ele>187.9</ele>
        <time>2026-05-17T12:16:22.999Z</time>
      </trkpt>
      <trkpt lat="43.64854" lon="3.33558">
        <ele>187.8</ele>
        <time>2026-05-17T12:16:23.999Z</time>
      </trkpt>
      <trkpt lat="43.64853" lon="3.33556">
        <ele>187.8</ele>
        <time>2026-05-17T12:16:24.999Z</time>
      </trkpt>
      <trkpt lat="43.64853" lon="3.33555">
        <ele>187.5</ele>
        <time>2026-05-17T12:16:25.999Z</time>
      </trkpt>
      <trkpt lat="43.64853" lon="3.33553">
        <ele>186.9</ele>
        <time>2026-05-17T12:16:26.999Z</time>
      </trkpt>
      <trkpt lat="43.64852" lon="3.33551">
        <ele>186.8</ele>
        <time>2026-05-17T12:16:27.999Z</time>
      </trkpt>
      <trkpt lat="43.64852" lon="3.3355">
        <ele>186.3</ele>
        <time>2026-05-17T12:16:28.999Z</time>
      </trkpt>
      <trkpt lat="43.64852" lon="3.33549">
        <ele>186</ele>
        <time>2026-05-17T12:16:29.999Z</time>
      </trkpt>
      <trkpt lat="43.64851" lon="3.33548">
        <ele>186</ele>
        <time>2026-05-17T12:16:30.999Z</time>
      </trkpt>
      <trkpt lat="43.64851" lon="3.33547">
        <ele>186.1</ele>
        <time>2026-05-17T12:16:31.999Z</time>
      </trkpt>
      <trkpt lat="43.64851" lon="3.33547">
        <ele>186.6</ele>
        <time>2026-05-17T12:16:32.999Z</time>
      </trkpt>
      <trkpt lat="43.64851" lon="3.33547">
        <ele>186.9</ele>
        <time>2026-05-17T12:16:33.999Z</time>
      </trkpt>
      <trkpt lat="43.64852" lon="3.33545">
        <ele>187.3</ele>
        <time>2026-05-17T12:16:34.999Z</time>
      </trkpt>
      <trkpt lat="43.64853" lon="3.33543">
        <ele>187.5</ele>
        <time>2026-05-17T12:16:35.999Z</time>
      </trkpt>
      <trkpt lat="43.64854" lon="3.33542">
        <ele>187.7</ele>
        <time>2026-05-17T12:16:36.999Z</time>
      </trkpt>
      <trkpt lat="43.64854" lon="3.3354">
        <ele>188</ele>
        <time>2026-05-17T12:16:37.999Z</time>
      </trkpt>
      <trkpt lat="43.64854" lon="3.3354">
        <ele>188.2</ele>
        <time>2026-05-17T12:16:38.999Z</time>
      </trkpt>
      <trkpt lat="43.64854" lon="3.33539">
        <ele>188.3</ele>
        <time>2026-05-17T12:16:39.999Z</time>
      </trkpt>
      <trkpt lat="43.64854" lon="3.33538">
        <ele>188.7</ele>
        <time>2026-05-17T12:16:40.999Z</time>
      </trkpt>
      <trkpt lat="43.64854" lon="3.33537">
        <ele>188.5</ele>
        <time>2026-05-17T12:16:41.999Z</time>
      </trkpt>
      <trkpt lat="43.64854" lon="3.33536">
        <ele>188.6</ele>
        <time>2026-05-17T12:16:42.999Z</time>
      </trkpt>
      <trkpt lat="43.64854" lon="3.33535">
        <ele>188.7</ele>
        <time>2026-05-17T12:16:43.999Z</time>
      </trkpt>
      <trkpt lat="43.64854" lon="3.33534">
        <ele>188.3</ele>
        <time>2026-05-17T12:16:44.999Z</time>
      </trkpt>
      <trkpt lat="43.64854" lon="3.33533">
        <ele>187.9</ele>
        <time>2026-05-17T12:16:45.999Z</time>
      </trkpt>
      <trkpt lat="43.64854" lon="3.33531">
        <ele>187.9</ele>
        <time>2026-05-17T12:16:46.999Z</time>
      </trkpt>
      <trkpt lat="43.64854" lon="3.33529">
        <ele>188</ele>
        <time>2026-05-17T12:16:47.999Z</time>
      </trkpt>
      <trkpt lat="43.64854" lon="3.33527">
        <ele>188.2</ele>
        <time>2026-05-17T12:16:48.999Z</time>
      </trkpt>
      <trkpt lat="43.64854" lon="3.33525">
        <ele>188.1</ele>
        <time>2026-05-17T12:16:49.999Z</time>
      </trkpt>
      <trkpt lat="43.64854" lon="3.33524">
        <ele>188</ele>
        <time>2026-05-17T12:16:50.999Z</time>
      </trkpt>
      <trkpt lat="43.64854" lon="3.33522">
        <ele>188</ele>
        <time>2026-05-17T12:16:51.999Z</time>
      </trkpt>
      <trkpt lat="43.64853" lon="3.33522">
        <ele>187.9</ele>
        <time>2026-05-17T12:16:52.999Z</time>
      </trkpt>
      <trkpt lat="43.64854" lon="3.33521">
        <ele>188.2</ele>
        <time>2026-05-17T12:16:53.999Z</time>
      </trkpt>
      <trkpt lat="43.64854" lon="3.33519">
        <ele>188.3</ele>
        <time>2026-05-17T12:16:54.999Z</time>
      </trkpt>
      <trkpt lat="43.64853" lon="3.33517">
        <ele>188.3</ele>
        <time>2026-05-17T12:16:55.999Z</time>
      </trkpt>
      <trkpt lat="43.64852" lon="3.33516">
        <ele>188.4</ele>
        <time>2026-05-17T12:16:56.999Z</time>
      </trkpt>
      <trkpt lat="43.64852" lon="3.33514">
        <ele>188.3</ele>
        <time>2026-05-17T12:16:57.999Z</time>
      </trkpt>
      <trkpt lat="43.64852" lon="3.33513">
        <ele>188.1</ele>
        <time>2026-05-17T12:16:58.999Z</time>
      </trkpt>
      <trkpt lat="43.64851" lon="3.33512">
        <ele>188.2</ele>
        <time>2026-05-17T12:16:59.999Z</time>
      </trkpt>
      <trkpt lat="43.6485" lon="3.3351">
        <ele>188</ele>
        <time>2026-05-17T12:17:00.999Z</time>
      </trkpt>
      <trkpt lat="43.6485" lon="3.33508">
        <ele>188.1</ele>
        <time>2026-05-17T12:17:01.999Z</time>
      </trkpt>
      <trkpt lat="43.6485" lon="3.33507">
        <ele>188.4</ele>
        <time>2026-05-17T12:17:02.999Z</time>
      </trkpt>
      <trkpt lat="43.6485" lon="3.33506">
        <ele>188.7</ele>
        <time>2026-05-17T12:17:03.999Z</time>
      </trkpt>
      <trkpt lat="43.6485" lon="3.33505">
        <ele>188.9</ele>
        <time>2026-05-17T12:17:04.999Z</time>
      </trkpt>
      <trkpt lat="43.64849" lon="3.33504">
        <ele>188.6</ele>
        <time>2026-05-17T12:17:05.999Z</time>
      </trkpt>
      <trkpt lat="43.64849" lon="3.33503">
        <ele>188</ele>
        <time>2026-05-17T12:17:06.999Z</time>
      </trkpt>
      <trkpt lat="43.64848" lon="3.33501">
        <ele>187.6</ele>
        <time>2026-05-17T12:17:07.999Z</time>
      </trkpt>
      <trkpt lat="43.64847" lon="3.33499">
        <ele>187.2</ele>
        <time>2026-05-17T12:17:08.999Z</time>
      </trkpt>
      <trkpt lat="43.64846" lon="3.33497">
        <ele>187</ele>
        <time>2026-05-17T12:17:09.999Z</time>
      </trkpt>
      <trkpt lat="43.64846" lon="3.33495">
        <ele>187.2</ele>
        <time>2026-05-17T12:17:10.999Z</time>
      </trkpt>
      <trkpt lat="43.64846" lon="3.33493">
        <ele>187.4</ele>
        <time>2026-05-17T12:17:11.999Z</time>
      </trkpt>
      <trkpt lat="43.64846" lon="3.33492">
        <ele>187.6</ele>
        <time>2026-05-17T12:17:12.999Z</time>
      </trkpt>
      <trkpt lat="43.64846" lon="3.3349">
        <ele>188</ele>
        <time>2026-05-17T12:17:13.999Z</time>
      </trkpt>
      <trkpt lat="43.64846" lon="3.33489">
        <ele>188.1</ele>
        <time>2026-05-17T12:17:14.999Z</time>
      </trkpt>
      <trkpt lat="43.64846" lon="3.33487">
        <ele>187.8</ele>
        <time>2026-05-17T12:17:15.999Z</time>
      </trkpt>
      <trkpt lat="43.64845" lon="3.33485">
        <ele>187.8</ele>
        <time>2026-05-17T12:17:16.999Z</time>
      </trkpt>
      <trkpt lat="43.64846" lon="3.33483">
        <ele>187.7</ele>
        <time>2026-05-17T12:17:17.999Z</time>
      </trkpt>
      <trkpt lat="43.64846" lon="3.33482">
        <ele>188.1</ele>
        <time>2026-05-17T12:17:18.999Z</time>
      </trkpt>
      <trkpt lat="43.64845" lon="3.3348">
        <ele>188.1</ele>
        <time>2026-05-17T12:17:19.999Z</time>
      </trkpt>
      <trkpt lat="43.64845" lon="3.33478">
        <ele>188.3</ele>
        <time>2026-05-17T12:17:20.999Z</time>
      </trkpt>
      <trkpt lat="43.64845" lon="3.33477">
        <ele>188.3</ele>
        <time>2026-05-17T12:17:21.999Z</time>
      </trkpt>
      <trkpt lat="43.64845" lon="3.33476">
        <ele>188.2</ele>
        <time>2026-05-17T12:17:22.999Z</time>
      </trkpt>
      <trkpt lat="43.64845" lon="3.33474">
        <ele>188.2</ele>
        <time>2026-05-17T12:17:23.999Z</time>
      </trkpt>
      <trkpt lat="43.64844" lon="3.33472">
        <ele>188.6</ele>
        <time>2026-05-17T12:17:24.999Z</time>
      </trkpt>
      <trkpt lat="43.64844" lon="3.3347">
        <ele>189.2</ele>
        <time>2026-05-17T12:17:25.999Z</time>
      </trkpt>
      <trkpt lat="43.64844" lon="3.33468">
        <ele>189.4</ele>
        <time>2026-05-17T12:17:26.999Z</time>
      </trkpt>
      <trkpt lat="43.64844" lon="3.33467">
        <ele>189.6</ele>
        <time>2026-05-17T12:17:27.999Z</time>
      </trkpt>
      <trkpt lat="43.64844" lon="3.33465">
        <ele>190</ele>
        <time>2026-05-17T12:17:28.999Z</time>
      </trkpt>
      <trkpt lat="43.64845" lon="3.33464">
        <ele>190.2</ele>
        <time>2026-05-17T12:17:29.999Z</time>
      </trkpt>
      <trkpt lat="43.64844" lon="3.33463">
        <ele>190.1</ele>
        <time>2026-05-17T12:17:30.999Z</time>
      </trkpt>
      <trkpt lat="43.64844" lon="3.33461">
        <ele>190</ele>
        <time>2026-05-17T12:17:31.999Z</time>
      </trkpt>
      <trkpt lat="43.64843" lon="3.3346">
        <ele>189.8</ele>
        <time>2026-05-17T12:17:32.999Z</time>
      </trkpt>
      <trkpt lat="43.64843" lon="3.33459">
        <ele>189.5</ele>
        <time>2026-05-17T12:17:33.999Z</time>
      </trkpt>
      <trkpt lat="43.64843" lon="3.33458">
        <ele>189.4</ele>
        <time>2026-05-17T12:17:34.999Z</time>
      </trkpt>
      <trkpt lat="43.64842" lon="3.33457">
        <ele>189.3</ele>
        <time>2026-05-17T12:17:35.999Z</time>
      </trkpt>
      <trkpt lat="43.64842" lon="3.33456">
        <ele>189.2</ele>
        <time>2026-05-17T12:17:36.999Z</time>
      </trkpt>
      <trkpt lat="43.64842" lon="3.33455">
        <ele>188.9</ele>
        <time>2026-05-17T12:17:37.999Z</time>
      </trkpt>
      <trkpt lat="43.64842" lon="3.33452">
        <ele>188.8</ele>
        <time>2026-05-17T12:17:38.999Z</time>
      </trkpt>
      <trkpt lat="43.64842" lon="3.33451">
        <ele>189</ele>
        <time>2026-05-17T12:17:39.999Z</time>
      </trkpt>
      <trkpt lat="43.64842" lon="3.33449">
        <ele>189.1</ele>
        <time>2026-05-17T12:17:40.999Z</time>
      </trkpt>
      <trkpt lat="43.64843" lon="3.33448">
        <ele>188.9</ele>
        <time>2026-05-17T12:17:41.999Z</time>
      </trkpt>
      <trkpt lat="43.64844" lon="3.33448">
        <ele>188.7</ele>
        <time>2026-05-17T12:17:42.999Z</time>
      </trkpt>
      <trkpt lat="43.64844" lon="3.33447">
        <ele>188.5</ele>
        <time>2026-05-17T12:17:43.999Z</time>
      </trkpt>
      <trkpt lat="43.64844" lon="3.33446">
        <ele>188.4</ele>
        <time>2026-05-17T12:17:44.999Z</time>
      </trkpt>
      <trkpt lat="43.64844" lon="3.33445">
        <ele>188.1</ele>
        <time>2026-05-17T12:17:45.999Z</time>
      </trkpt>
      <trkpt lat="43.64844" lon="3.33443">
        <ele>188</ele>
        <time>2026-05-17T12:17:46.999Z</time>
      </trkpt>
      <trkpt lat="43.64844" lon="3.33442">
        <ele>188</ele>
        <time>2026-05-17T12:17:47.999Z</time>
      </trkpt>
      <trkpt lat="43.64844" lon="3.3344">
        <ele>188.3</ele>
        <time>2026-05-17T12:17:48.999Z</time>
      </trkpt>
      <trkpt lat="43.64844" lon="3.33438">
        <ele>188.7</ele>
        <time>2026-05-17T12:17:49.999Z</time>
      </trkpt>
      <trkpt lat="43.64844" lon="3.33436">
        <ele>188.9</ele>
        <time>2026-05-17T12:17:50.999Z</time>
      </trkpt>
      <trkpt lat="43.64843" lon="3.33435">
        <ele>189.1</ele>
        <time>2026-05-17T12:17:51.999Z</time>
      </trkpt>
      <trkpt lat="43.64843" lon="3.33433">
        <ele>189.2</ele>
        <time>2026-05-17T12:17:52.999Z</time>
      </trkpt>
      <trkpt lat="43.64843" lon="3.33432">
        <ele>189.4</ele>
        <time>2026-05-17T12:17:53.999Z</time>
      </trkpt>
      <trkpt lat="43.64843" lon="3.3343">
        <ele>189.7</ele>
        <time>2026-05-17T12:17:54.999Z</time>
      </trkpt>
      <trkpt lat="43.64843" lon="3.3343">
        <ele>189.3</ele>
        <time>2026-05-17T12:17:55.999Z</time>
      </trkpt>
      <trkpt lat="43.64843" lon="3.33428">
        <ele>189.6</ele>
        <time>2026-05-17T12:17:56.999Z</time>
      </trkpt>
      <trkpt lat="43.64843" lon="3.33429">
        <ele>189.6</ele>
        <time>2026-05-17T12:17:57.999Z</time>
      </trkpt>
      <trkpt lat="43.64843" lon="3.33427">
        <ele>190.2</ele>
        <time>2026-05-17T12:17:58.999Z</time>
      </trkpt>
      <trkpt lat="43.64843" lon="3.33428">
        <ele>189.7</ele>
        <time>2026-05-17T12:17:59.999Z</time>
      </trkpt>
      <trkpt lat="43.64843" lon="3.33429">
        <ele>189.2</ele>
        <time>2026-05-17T12:18:00.999Z</time>
      </trkpt>
      <trkpt lat="43.64843" lon="3.33428">
        <ele>188.3</ele>
        <time>2026-05-17T12:18:01.999Z</time>
      </trkpt>
      <trkpt lat="43.64843" lon="3.33429">
        <ele>188.1</ele>
        <time>2026-05-17T12:18:02.999Z</time>
      </trkpt>
      <trkpt lat="43.64843" lon="3.33429">
        <ele>188.3</ele>
        <time>2026-05-17T12:18:03.999Z</time>
      </trkpt>
      <trkpt lat="43.64843" lon="3.33429">
        <ele>188.5</ele>
        <time>2026-05-17T12:18:04.999Z</time>
      </trkpt>
      <trkpt lat="43.64843" lon="3.33429">
        <ele>188.6</ele>
        <time>2026-05-17T12:18:05.999Z</time>
      </trkpt>
      <trkpt lat="43.64843" lon="3.33429">
        <ele>188.9</ele>
        <time>2026-05-17T12:18:06.999Z</time>
      </trkpt>
      <trkpt lat="43.64843" lon="3.33429">
        <ele>189</ele>
        <time>2026-05-17T12:18:07.999Z</time>
      </trkpt>
      <trkpt lat="43.64843" lon="3.33429">
        <ele>189.1</ele>
        <time>2026-05-17T12:18:08.999Z</time>
      </trkpt>
      <trkpt lat="43.64843" lon="3.33429">
        <ele>189.4</ele>
        <time>2026-05-17T12:18:09.999Z</time>
      </trkpt>
      <trkpt lat="43.64843" lon="3.33429">
        <ele>189.4</ele>
        <time>2026-05-17T12:18:10.999Z</time>
      </trkpt>
      <trkpt lat="43.64844" lon="3.33429">
        <ele>189.6</ele>
        <time>2026-05-17T12:18:11.999Z</time>
      </trkpt>
      <trkpt lat="43.64844" lon="3.3343">
        <ele>189.7</ele>
        <time>2026-05-17T12:18:12.999Z</time>
      </trkpt>
      <trkpt lat="43.64844" lon="3.33432">
        <ele>189.9</ele>
        <time>2026-05-17T12:18:13.999Z</time>
      </trkpt>
      <trkpt lat="43.64845" lon="3.33433">
        <ele>189.7</ele>
        <time>2026-05-17T12:18:14.999Z</time>
      </trkpt>
      <trkpt lat="43.64845" lon="3.33434">
        <ele>189.7</ele>
        <time>2026-05-17T12:18:15.999Z</time>
      </trkpt>
      <trkpt lat="43.64846" lon="3.33435">
        <ele>189.7</ele>
        <time>2026-05-17T12:18:16.999Z</time>
      </trkpt>
      <trkpt lat="43.64846" lon="3.33435">
        <ele>189.6</ele>
        <time>2026-05-17T12:18:17.999Z</time>
      </trkpt>
      <trkpt lat="43.64846" lon="3.33435">
        <ele>188.7</ele>
        <time>2026-05-17T12:18:18.999Z</time>
      </trkpt>
      <trkpt lat="43.64846" lon="3.33435">
        <ele>188.6</ele>
        <time>2026-05-17T12:18:19.999Z</time>
      </trkpt>
      <trkpt lat="43.64846" lon="3.33435">
        <ele>188.7</ele>
        <time>2026-05-17T12:18:20.999Z</time>
      </trkpt>
      <trkpt lat="43.64846" lon="3.33435">
        <ele>188.7</ele>
        <time>2026-05-17T12:18:21.999Z</time>
      </trkpt>
      <trkpt lat="43.64846" lon="3.33435">
        <ele>188.7</ele>
        <time>2026-05-17T12:18:22.999Z</time>
      </trkpt>
      <trkpt lat="43.64847" lon="3.33435">
        <ele>188.6</ele>
        <time>2026-05-17T12:18:23.999Z</time>
      </trkpt>
      <trkpt lat="43.64847" lon="3.33436">
        <ele>188.7</ele>
        <time>2026-05-17T12:18:24.999Z</time>
      </trkpt>
      <trkpt lat="43.64848" lon="3.33435">
        <ele>188.7</ele>
        <time>2026-05-17T12:18:25.999Z</time>
      </trkpt>
      <trkpt lat="43.64849" lon="3.33435">
        <ele>188.6</ele>
        <time>2026-05-17T12:18:26.999Z</time>
      </trkpt>
      <trkpt lat="43.6485" lon="3.33435">
        <ele>188.6</ele>
        <time>2026-05-17T12:18:27.999Z</time>
      </trkpt>
      <trkpt lat="43.64852" lon="3.33434">
        <ele>188.5</ele>
        <time>2026-05-17T12:18:28.999Z</time>
      </trkpt>
      <trkpt lat="43.64854" lon="3.33434">
        <ele>188.4</ele>
        <time>2026-05-17T12:18:29.999Z</time>
      </trkpt>
      <trkpt lat="43.64856" lon="3.33435">
        <ele>188.3</ele>
        <time>2026-05-17T12:18:30.999Z</time>
      </trkpt>
      <trkpt lat="43.64857" lon="3.33435">
        <ele>188.2</ele>
        <time>2026-05-17T12:18:31.999Z</time>
      </trkpt>
      <trkpt lat="43.64859" lon="3.33436">
        <ele>187.9</ele>
        <time>2026-05-17T12:18:32.999Z</time>
      </trkpt>
      <trkpt lat="43.64859" lon="3.33436">
        <ele>187.5</ele>
        <time>2026-05-17T12:18:33.999Z</time>
      </trkpt>
      <trkpt lat="43.64859" lon="3.33437">
        <ele>187.4</ele>
        <time>2026-05-17T12:18:34.999Z</time>
      </trkpt>
      <trkpt lat="43.64859" lon="3.33439">
        <ele>187.3</ele>
        <time>2026-05-17T12:18:35.999Z</time>
      </trkpt>
      <trkpt lat="43.6486" lon="3.3344">
        <ele>187.1</ele>
        <time>2026-05-17T12:18:36.999Z</time>
      </trkpt>
      <trkpt lat="43.6486" lon="3.33441">
        <ele>186.9</ele>
        <time>2026-05-17T12:18:37.999Z</time>
      </trkpt>
      <trkpt lat="43.64861" lon="3.33442">
        <ele>187</ele>
        <time>2026-05-17T12:18:38.999Z</time>
      </trkpt>
      <trkpt lat="43.64862" lon="3.33443">
        <ele>186.7</ele>
        <time>2026-05-17T12:18:39.999Z</time>
      </trkpt>
      <trkpt lat="43.64864" lon="3.33443">
        <ele>186.6</ele>
        <time>2026-05-17T12:18:40.999Z</time>
      </trkpt>
      <trkpt lat="43.64865" lon="3.33443">
        <ele>186.7</ele>
        <time>2026-05-17T12:18:41.999Z</time>
      </trkpt>
      <trkpt lat="43.64867" lon="3.33443">
        <ele>186.9</ele>
        <time>2026-05-17T12:18:42.999Z</time>
      </trkpt>
      <trkpt lat="43.64868" lon="3.33444">
        <ele>186.5</ele>
        <time>2026-05-17T12:18:43.999Z</time>
      </trkpt>
      <trkpt lat="43.6487" lon="3.33444">
        <ele>185.9</ele>
        <time>2026-05-17T12:18:44.999Z</time>
      </trkpt>
      <trkpt lat="43.64872" lon="3.33445">
        <ele>185.5</ele>
        <time>2026-05-17T12:18:45.999Z</time>
      </trkpt>
      <trkpt lat="43.64873" lon="3.33445">
        <ele>185.2</ele>
        <time>2026-05-17T12:18:46.999Z</time>
      </trkpt>
      <trkpt lat="43.64874" lon="3.33446">
        <ele>185</ele>
        <time>2026-05-17T12:18:47.999Z</time>
      </trkpt>
      <trkpt lat="43.64875" lon="3.33446">
        <ele>184.9</ele>
        <time>2026-05-17T12:18:48.999Z</time>
      </trkpt>
      <trkpt lat="43.64877" lon="3.33447">
        <ele>184.8</ele>
        <time>2026-05-17T12:18:49.999Z</time>
      </trkpt>
      <trkpt lat="43.64878" lon="3.33448">
        <ele>184.3</ele>
        <time>2026-05-17T12:18:50.999Z</time>
      </trkpt>
      <trkpt lat="43.64879" lon="3.33448">
        <ele>184.3</ele>
        <time>2026-05-17T12:18:51.999Z</time>
      </trkpt>
      <trkpt lat="43.64879" lon="3.33449">
        <ele>184.8</ele>
        <time>2026-05-17T12:18:52.999Z</time>
      </trkpt>
      <trkpt lat="43.64879" lon="3.3345">
        <ele>185.1</ele>
        <time>2026-05-17T12:18:53.999Z</time>
      </trkpt>
      <trkpt lat="43.6488" lon="3.3345">
        <ele>185.2</ele>
        <time>2026-05-17T12:18:54.999Z</time>
      </trkpt>
      <trkpt lat="43.64881" lon="3.33451">
        <ele>185.5</ele>
        <time>2026-05-17T12:18:55.999Z</time>
      </trkpt>
      <trkpt lat="43.64882" lon="3.33451">
        <ele>185.6</ele>
        <time>2026-05-17T12:18:56.999Z</time>
      </trkpt>
      <trkpt lat="43.64882" lon="3.33451">
        <ele>185.6</ele>
        <time>2026-05-17T12:18:57.999Z</time>
      </trkpt>
      <trkpt lat="43.64884" lon="3.33452">
        <ele>186</ele>
        <time>2026-05-17T12:18:58.999Z</time>
      </trkpt>
      <trkpt lat="43.64885" lon="3.33453">
        <ele>186.2</ele>
        <time>2026-05-17T12:18:59.999Z</time>
      </trkpt>
      <trkpt lat="43.64886" lon="3.33453">
        <ele>186.2</ele>
        <time>2026-05-17T12:19:00.999Z</time>
      </trkpt>
      <trkpt lat="43.64886" lon="3.33454">
        <ele>186.5</ele>
        <time>2026-05-17T12:19:01.999Z</time>
      </trkpt>
      <trkpt lat="43.64886" lon="3.33455">
        <ele>186.5</ele>
        <time>2026-05-17T12:19:02.999Z</time>
      </trkpt>
      <trkpt lat="43.64887" lon="3.33456">
        <ele>186.5</ele>
        <time>2026-05-17T12:19:03.999Z</time>
      </trkpt>
      <trkpt lat="43.64888" lon="3.33456">
        <ele>186.5</ele>
        <time>2026-05-17T12:19:04.999Z</time>
      </trkpt>
      <trkpt lat="43.64889" lon="3.33457">
        <ele>186.2</ele>
        <time>2026-05-17T12:19:05.999Z</time>
      </trkpt>
      <trkpt lat="43.6489" lon="3.33458">
        <ele>186</ele>
        <time>2026-05-17T12:19:06.999Z</time>
      </trkpt>
      <trkpt lat="43.64891" lon="3.33458">
        <ele>185.7</ele>
        <time>2026-05-17T12:19:07.999Z</time>
      </trkpt>
      <trkpt lat="43.64892" lon="3.33458">
        <ele>185.7</ele>
        <time>2026-05-17T12:19:08.999Z</time>
      </trkpt>
      <trkpt lat="43.64893" lon="3.33458">
        <ele>185.5</ele>
        <time>2026-05-17T12:19:09.999Z</time>
      </trkpt>
      <trkpt lat="43.64894" lon="3.33458">
        <ele>185.6</ele>
        <time>2026-05-17T12:19:10.999Z</time>
      </trkpt>
      <trkpt lat="43.64895" lon="3.33459">
        <ele>185.6</ele>
        <time>2026-05-17T12:19:11.999Z</time>
      </trkpt>
      <trkpt lat="43.64897" lon="3.33459">
        <ele>185.5</ele>
        <time>2026-05-17T12:19:12.999Z</time>
      </trkpt>
      <trkpt lat="43.64898" lon="3.33459">
        <ele>185.3</ele>
        <time>2026-05-17T12:19:13.999Z</time>
      </trkpt>
      <trkpt lat="43.64899" lon="3.33459">
        <ele>185</ele>
        <time>2026-05-17T12:19:14.999Z</time>
      </trkpt>
      <trkpt lat="43.64901" lon="3.33459">
        <ele>184.9</ele>
        <time>2026-05-17T12:19:15.999Z</time>
      </trkpt>
      <trkpt lat="43.64902" lon="3.33459">
        <ele>184.9</ele>
        <time>2026-05-17T12:19:16.999Z</time>
      </trkpt>
      <trkpt lat="43.64903" lon="3.33459">
        <ele>184.8</ele>
        <time>2026-05-17T12:19:17.999Z</time>
      </trkpt>
      <trkpt lat="43.64905" lon="3.33459">
        <ele>184.7</ele>
        <time>2026-05-17T12:19:18.999Z</time>
      </trkpt>
      <trkpt lat="43.64905" lon="3.33458">
        <ele>184</ele>
        <time>2026-05-17T12:19:19.999Z</time>
      </trkpt>
      <trkpt lat="43.64906" lon="3.33458">
        <ele>183.7</ele>
        <time>2026-05-17T12:19:20.999Z</time>
      </trkpt>
      <trkpt lat="43.64907" lon="3.33457">
        <ele>183.6</ele>
        <time>2026-05-17T12:19:21.999Z</time>
      </trkpt>
      <trkpt lat="43.64908" lon="3.33457">
        <ele>183.6</ele>
        <time>2026-05-17T12:19:22.999Z</time>
      </trkpt>
      <trkpt lat="43.64909" lon="3.33457">
        <ele>183.7</ele>
        <time>2026-05-17T12:19:23.999Z</time>
      </trkpt>
      <trkpt lat="43.6491" lon="3.33457">
        <ele>183.7</ele>
        <time>2026-05-17T12:19:24.999Z</time>
      </trkpt>
      <trkpt lat="43.64911" lon="3.33457">
        <ele>183.8</ele>
        <time>2026-05-17T12:19:25.999Z</time>
      </trkpt>
      <trkpt lat="43.64912" lon="3.33457">
        <ele>183.8</ele>
        <time>2026-05-17T12:19:26.999Z</time>
      </trkpt>
      <trkpt lat="43.64913" lon="3.33457">
        <ele>183.6</ele>
        <time>2026-05-17T12:19:27.999Z</time>
      </trkpt>
      <trkpt lat="43.64914" lon="3.33456">
        <ele>183.5</ele>
        <time>2026-05-17T12:19:28.999Z</time>
      </trkpt>
      <trkpt lat="43.64914" lon="3.33456">
        <ele>183.3</ele>
        <time>2026-05-17T12:19:29.999Z</time>
      </trkpt>
      <trkpt lat="43.64914" lon="3.33457">
        <ele>183.1</ele>
        <time>2026-05-17T12:19:30.999Z</time>
      </trkpt>
      <trkpt lat="43.64914" lon="3.33457">
        <ele>183</ele>
        <time>2026-05-17T12:19:31.999Z</time>
      </trkpt>
      <trkpt lat="43.64914" lon="3.33457">
        <ele>182.9</ele>
        <time>2026-05-17T12:19:32.999Z</time>
      </trkpt>
      <trkpt lat="43.64914" lon="3.33457">
        <ele>182.7</ele>
        <time>2026-05-17T12:19:33.999Z</time>
      </trkpt>
      <trkpt lat="43.64913" lon="3.33458">
        <ele>182.8</ele>
        <time>2026-05-17T12:19:34.999Z</time>
      </trkpt>
      <trkpt lat="43.64913" lon="3.33458">
        <ele>182.8</ele>
        <time>2026-05-17T12:19:35.999Z</time>
      </trkpt>
      <trkpt lat="43.64913" lon="3.3346">
        <ele>182.8</ele>
        <time>2026-05-17T12:19:36.999Z</time>
      </trkpt>
      <trkpt lat="43.64912" lon="3.33463">
        <ele>182.9</ele>
        <time>2026-05-17T12:19:37.999Z</time>
      </trkpt>
      <trkpt lat="43.64912" lon="3.33465">
        <ele>182.8</ele>
        <time>2026-05-17T12:19:38.999Z</time>
      </trkpt>
      <trkpt lat="43.64912" lon="3.33467">
        <ele>182.7</ele>
        <time>2026-05-17T12:19:39.999Z</time>
      </trkpt>
      <trkpt lat="43.64912" lon="3.33469">
        <ele>182.4</ele>
        <time>2026-05-17T12:19:40.999Z</time>
      </trkpt>
      <trkpt lat="43.64912" lon="3.3347">
        <ele>183.1</ele>
        <time>2026-05-17T12:19:41.999Z</time>
      </trkpt>
      <trkpt lat="43.64912" lon="3.33471">
        <ele>183.4</ele>
        <time>2026-05-17T12:19:42.999Z</time>
      </trkpt>
      <trkpt lat="43.64913" lon="3.33471">
        <ele>183.4</ele>
        <time>2026-05-17T12:19:43.999Z</time>
      </trkpt>
      <trkpt lat="43.64914" lon="3.33472">
        <ele>183.4</ele>
        <time>2026-05-17T12:19:44.999Z</time>
      </trkpt>
      <trkpt lat="43.64915" lon="3.33473">
        <ele>183.5</ele>
        <time>2026-05-17T12:19:45.999Z</time>
      </trkpt>
      <trkpt lat="43.64916" lon="3.33474">
        <ele>183.8</ele>
        <time>2026-05-17T12:19:46.999Z</time>
      </trkpt>
      <trkpt lat="43.64917" lon="3.33474">
        <ele>184.1</ele>
        <time>2026-05-17T12:19:47.999Z</time>
      </trkpt>
      <trkpt lat="43.64918" lon="3.33475">
        <ele>184.4</ele>
        <time>2026-05-17T12:19:48.999Z</time>
      </trkpt>
      <trkpt lat="43.6492" lon="3.33475">
        <ele>184.3</ele>
        <time>2026-05-17T12:19:49.999Z</time>
      </trkpt>
      <trkpt lat="43.64921" lon="3.33474">
        <ele>184.2</ele>
        <time>2026-05-17T12:19:50.999Z</time>
      </trkpt>
      <trkpt lat="43.64922" lon="3.33474">
        <ele>183.8</ele>
        <time>2026-05-17T12:19:51.999Z</time>
      </trkpt>
      <trkpt lat="43.64923" lon="3.33474">
        <ele>183.8</ele>
        <time>2026-05-17T12:19:52.999Z</time>
      </trkpt>
      <trkpt lat="43.64924" lon="3.33474">
        <ele>183.6</ele>
        <time>2026-05-17T12:19:53.999Z</time>
      </trkpt>
      <trkpt lat="43.64925" lon="3.33474">
        <ele>183.2</ele>
        <time>2026-05-17T12:19:54.999Z</time>
      </trkpt>
      <trkpt lat="43.64926" lon="3.33474">
        <ele>182.7</ele>
        <time>2026-05-17T12:19:55.999Z</time>
      </trkpt>
      <trkpt lat="43.64926" lon="3.33473">
        <ele>182.4</ele>
        <time>2026-05-17T12:19:56.999Z</time>
      </trkpt>
      <trkpt lat="43.64927" lon="3.33473">
        <ele>181.9</ele>
        <time>2026-05-17T12:19:57.999Z</time>
      </trkpt>
      <trkpt lat="43.64928" lon="3.33473">
        <ele>181.6</ele>
        <time>2026-05-17T12:19:58.999Z</time>
      </trkpt>
      <trkpt lat="43.64929" lon="3.33473">
        <ele>181.1</ele>
        <time>2026-05-17T12:19:59.999Z</time>
      </trkpt>
      <trkpt lat="43.64929" lon="3.33473">
        <ele>180.7</ele>
        <time>2026-05-17T12:20:00.999Z</time>
      </trkpt>
      <trkpt lat="43.6493" lon="3.33473">
        <ele>180.4</ele>
        <time>2026-05-17T12:20:01.999Z</time>
      </trkpt>
      <trkpt lat="43.6493" lon="3.33473">
        <ele>180</ele>
        <time>2026-05-17T12:20:02.999Z</time>
      </trkpt>
      <trkpt lat="43.64931" lon="3.33473">
        <ele>179.9</ele>
        <time>2026-05-17T12:20:03.999Z</time>
      </trkpt>
      <trkpt lat="43.64932" lon="3.33473">
        <ele>179.6</ele>
        <time>2026-05-17T12:20:04.999Z</time>
      </trkpt>
      <trkpt lat="43.64933" lon="3.33473">
        <ele>179.6</ele>
        <time>2026-05-17T12:20:05.999Z</time>
      </trkpt>
      <trkpt lat="43.64933" lon="3.33473">
        <ele>180</ele>
        <time>2026-05-17T12:20:06.999Z</time>
      </trkpt>
      <trkpt lat="43.64934" lon="3.33474">
        <ele>180.3</ele>
        <time>2026-05-17T12:20:07.999Z</time>
      </trkpt>
      <trkpt lat="43.64935" lon="3.33474">
        <ele>180.9</ele>
        <time>2026-05-17T12:20:08.999Z</time>
      </trkpt>
      <trkpt lat="43.64935" lon="3.33473">
        <ele>181.5</ele>
        <time>2026-05-17T12:20:09.999Z</time>
      </trkpt>
      <trkpt lat="43.64936" lon="3.33471">
        <ele>181.4</ele>
        <time>2026-05-17T12:20:10.999Z</time>
      </trkpt>
      <trkpt lat="43.64936" lon="3.3347">
        <ele>181.7</ele>
        <time>2026-05-17T12:20:11.999Z</time>
      </trkpt>
      <trkpt lat="43.64936" lon="3.33469">
        <ele>181.5</ele>
        <time>2026-05-17T12:20:12.999Z</time>
      </trkpt>
      <trkpt lat="43.64936" lon="3.33468">
        <ele>181.1</ele>
        <time>2026-05-17T12:20:13.999Z</time>
      </trkpt>
      <trkpt lat="43.64937" lon="3.33466">
        <ele>181.1</ele>
        <time>2026-05-17T12:20:14.999Z</time>
      </trkpt>
      <trkpt lat="43.64937" lon="3.33464">
        <ele>180.8</ele>
        <time>2026-05-17T12:20:15.999Z</time>
      </trkpt>
      <trkpt lat="43.64937" lon="3.33463">
        <ele>180.5</ele>
        <time>2026-05-17T12:20:16.999Z</time>
      </trkpt>
      <trkpt lat="43.64937" lon="3.33461">
        <ele>180.8</ele>
        <time>2026-05-17T12:20:17.999Z</time>
      </trkpt>
      <trkpt lat="43.64937" lon="3.3346">
        <ele>180.8</ele>
        <time>2026-05-17T12:20:18.999Z</time>
      </trkpt>
      <trkpt lat="43.64938" lon="3.33458">
        <ele>180.8</ele>
        <time>2026-05-17T12:20:19.999Z</time>
      </trkpt>
      <trkpt lat="43.64938" lon="3.33457">
        <ele>180.8</ele>
        <time>2026-05-17T12:20:20.999Z</time>
      </trkpt>
      <trkpt lat="43.64939" lon="3.33456">
        <ele>180.7</ele>
        <time>2026-05-17T12:20:21.999Z</time>
      </trkpt>
      <trkpt lat="43.64939" lon="3.33455">
        <ele>181</ele>
        <time>2026-05-17T12:20:22.999Z</time>
      </trkpt>
      <trkpt lat="43.6494" lon="3.33453">
        <ele>181.1</ele>
        <time>2026-05-17T12:20:23.999Z</time>
      </trkpt>
      <trkpt lat="43.64941" lon="3.33451">
        <ele>181.1</ele>
        <time>2026-05-17T12:20:24.999Z</time>
      </trkpt>
      <trkpt lat="43.64942" lon="3.3345">
        <ele>180.9</ele>
        <time>2026-05-17T12:20:25.999Z</time>
      </trkpt>
      <trkpt lat="43.64943" lon="3.33448">
        <ele>180.4</ele>
        <time>2026-05-17T12:20:26.999Z</time>
      </trkpt>
      <trkpt lat="43.64944" lon="3.33447">
        <ele>180.3</ele>
        <time>2026-05-17T12:20:27.999Z</time>
      </trkpt>
      <trkpt lat="43.64945" lon="3.33447">
        <ele>180.1</ele>
        <time>2026-05-17T12:20:28.999Z</time>
      </trkpt>
      <trkpt lat="43.64947" lon="3.33447">
        <ele>180.1</ele>
        <time>2026-05-17T12:20:29.999Z</time>
      </trkpt>
      <trkpt lat="43.64949" lon="3.33448">
        <ele>180.1</ele>
        <time>2026-05-17T12:20:30.999Z</time>
      </trkpt>
      <trkpt lat="43.6495" lon="3.33448">
        <ele>179.7</ele>
        <time>2026-05-17T12:20:31.999Z</time>
      </trkpt>
      <trkpt lat="43.64951" lon="3.33447">
        <ele>179.4</ele>
        <time>2026-05-17T12:20:32.999Z</time>
      </trkpt>
      <trkpt lat="43.64951" lon="3.33447">
        <ele>179.7</ele>
        <time>2026-05-17T12:20:33.999Z</time>
      </trkpt>
      <trkpt lat="43.64952" lon="3.33446">
        <ele>179.9</ele>
        <time>2026-05-17T12:20:34.999Z</time>
      </trkpt>
      <trkpt lat="43.64953" lon="3.33445">
        <ele>179.7</ele>
        <time>2026-05-17T12:20:35.999Z</time>
      </trkpt>
      <trkpt lat="43.64954" lon="3.33444">
        <ele>179.7</ele>
        <time>2026-05-17T12:20:36.999Z</time>
      </trkpt>
      <trkpt lat="43.64954" lon="3.33442">
        <ele>179.9</ele>
        <time>2026-05-17T12:20:37.999Z</time>
      </trkpt>
      <trkpt lat="43.64955" lon="3.33441">
        <ele>179.9</ele>
        <time>2026-05-17T12:20:38.999Z</time>
      </trkpt>
      <trkpt lat="43.64955" lon="3.3344">
        <ele>180.3</ele>
        <time>2026-05-17T12:20:39.999Z</time>
      </trkpt>
      <trkpt lat="43.64955" lon="3.33439">
        <ele>180.9</ele>
        <time>2026-05-17T12:20:40.999Z</time>
      </trkpt>
      <trkpt lat="43.64956" lon="3.33438">
        <ele>180.7</ele>
        <time>2026-05-17T12:20:41.999Z</time>
      </trkpt>
      <trkpt lat="43.64957" lon="3.33436">
        <ele>181</ele>
        <time>2026-05-17T12:20:42.999Z</time>
      </trkpt>
      <trkpt lat="43.64958" lon="3.33434">
        <ele>181</ele>
        <time>2026-05-17T12:20:43.999Z</time>
      </trkpt>
      <trkpt lat="43.64959" lon="3.33433">
        <ele>181.3</ele>
        <time>2026-05-17T12:20:44.999Z</time>
      </trkpt>
      <trkpt lat="43.64959" lon="3.33432">
        <ele>181.4</ele>
        <time>2026-05-17T12:20:45.999Z</time>
      </trkpt>
      <trkpt lat="43.64959" lon="3.33431">
        <ele>181.4</ele>
        <time>2026-05-17T12:20:46.999Z</time>
      </trkpt>
      <trkpt lat="43.6496" lon="3.3343">
        <ele>181.2</ele>
        <time>2026-05-17T12:20:47.999Z</time>
      </trkpt>
      <trkpt lat="43.64961" lon="3.33429">
        <ele>181.2</ele>
        <time>2026-05-17T12:20:48.999Z</time>
      </trkpt>
      <trkpt lat="43.64962" lon="3.33428">
        <ele>180.7</ele>
        <time>2026-05-17T12:20:49.999Z</time>
      </trkpt>
      <trkpt lat="43.64963" lon="3.33427">
        <ele>180.7</ele>
        <time>2026-05-17T12:20:50.999Z</time>
      </trkpt>
      <trkpt lat="43.64964" lon="3.33426">
        <ele>181.1</ele>
        <time>2026-05-17T12:20:51.999Z</time>
      </trkpt>
      <trkpt lat="43.64965" lon="3.33426">
        <ele>181.5</ele>
        <time>2026-05-17T12:20:52.999Z</time>
      </trkpt>
      <trkpt lat="43.64966" lon="3.33425">
        <ele>181.4</ele>
        <time>2026-05-17T12:20:53.999Z</time>
      </trkpt>
      <trkpt lat="43.64967" lon="3.33425">
        <ele>181.6</ele>
        <time>2026-05-17T12:20:54.999Z</time>
      </trkpt>
      <trkpt lat="43.64968" lon="3.33424">
        <ele>181.5</ele>
        <time>2026-05-17T12:20:55.999Z</time>
      </trkpt>
      <trkpt lat="43.64969" lon="3.33424">
        <ele>181.6</ele>
        <time>2026-05-17T12:20:56.999Z</time>
      </trkpt>
      <trkpt lat="43.64969" lon="3.33422">
        <ele>182</ele>
        <time>2026-05-17T12:20:57.999Z</time>
      </trkpt>
      <trkpt lat="43.6497" lon="3.33421">
        <ele>182.3</ele>
        <time>2026-05-17T12:20:58.999Z</time>
      </trkpt>
      <trkpt lat="43.6497" lon="3.33421">
        <ele>182.3</ele>
        <time>2026-05-17T12:20:59.999Z</time>
      </trkpt>
      <trkpt lat="43.64971" lon="3.3342">
        <ele>182.4</ele>
        <time>2026-05-17T12:21:00.999Z</time>
      </trkpt>
      <trkpt lat="43.64972" lon="3.3342">
        <ele>182.2</ele>
        <time>2026-05-17T12:21:01.999Z</time>
      </trkpt>
      <trkpt lat="43.64973" lon="3.3342">
        <ele>182.5</ele>
        <time>2026-05-17T12:21:02.999Z</time>
      </trkpt>
      <trkpt lat="43.64974" lon="3.3342">
        <ele>182.4</ele>
        <time>2026-05-17T12:21:03.999Z</time>
      </trkpt>
      <trkpt lat="43.64975" lon="3.3342">
        <ele>182.4</ele>
        <time>2026-05-17T12:21:04.999Z</time>
      </trkpt>
      <trkpt lat="43.64977" lon="3.3342">
        <ele>182.6</ele>
        <time>2026-05-17T12:21:05.999Z</time>
      </trkpt>
      <trkpt lat="43.64979" lon="3.33419">
        <ele>182.8</ele>
        <time>2026-05-17T12:21:06.999Z</time>
      </trkpt>
      <trkpt lat="43.6498" lon="3.33419">
        <ele>182.7</ele>
        <time>2026-05-17T12:21:07.999Z</time>
      </trkpt>
      <trkpt lat="43.64981" lon="3.33418">
        <ele>182.8</ele>
        <time>2026-05-17T12:21:08.999Z</time>
      </trkpt>
      <trkpt lat="43.64981" lon="3.33418">
        <ele>182.9</ele>
        <time>2026-05-17T12:21:09.999Z</time>
      </trkpt>
      <trkpt lat="43.64981" lon="3.33417">
        <ele>182.6</ele>
        <time>2026-05-17T12:21:10.999Z</time>
      </trkpt>
      <trkpt lat="43.64982" lon="3.33417">
        <ele>182.3</ele>
        <time>2026-05-17T12:21:11.999Z</time>
      </trkpt>
      <trkpt lat="43.64982" lon="3.33415">
        <ele>182.2</ele>
        <time>2026-05-17T12:21:12.999Z</time>
      </trkpt>
      <trkpt lat="43.64983" lon="3.33414">
        <ele>182.5</ele>
        <time>2026-05-17T12:21:13.999Z</time>
      </trkpt>
      <trkpt lat="43.64983" lon="3.33414">
        <ele>183</ele>
        <time>2026-05-17T12:21:14.999Z</time>
      </trkpt>
      <trkpt lat="43.64983" lon="3.33413">
        <ele>182.8</ele>
        <time>2026-05-17T12:21:15.999Z</time>
      </trkpt>
      <trkpt lat="43.64982" lon="3.33411">
        <ele>182.8</ele>
        <time>2026-05-17T12:21:16.999Z</time>
      </trkpt>
      <trkpt lat="43.64983" lon="3.3341">
        <ele>183.2</ele>
        <time>2026-05-17T12:21:17.999Z</time>
      </trkpt>
      <trkpt lat="43.64983" lon="3.3341">
        <ele>183.4</ele>
        <time>2026-05-17T12:21:18.999Z</time>
      </trkpt>
      <trkpt lat="43.64983" lon="3.33409">
        <ele>183.2</ele>
        <time>2026-05-17T12:21:19.999Z</time>
      </trkpt>
      <trkpt lat="43.64983" lon="3.3341">
        <ele>183.7</ele>
        <time>2026-05-17T12:21:20.999Z</time>
      </trkpt>
      <trkpt lat="43.64983" lon="3.3341">
        <ele>183.4</ele>
        <time>2026-05-17T12:21:21.999Z</time>
      </trkpt>
      <trkpt lat="43.64983" lon="3.3341">
        <ele>183.4</ele>
        <time>2026-05-17T12:21:22.999Z</time>
      </trkpt>
      <trkpt lat="43.64983" lon="3.33411">
        <ele>183.9</ele>
        <time>2026-05-17T12:21:23.999Z</time>
      </trkpt>
      <trkpt lat="43.64983" lon="3.33409">
        <ele>183.8</ele>
        <time>2026-05-17T12:21:24.999Z</time>
      </trkpt>
      <trkpt lat="43.64983" lon="3.33408">
        <ele>183.9</ele>
        <time>2026-05-17T12:21:25.999Z</time>
      </trkpt>
      <trkpt lat="43.64982" lon="3.33407">
        <ele>183.6</ele>
        <time>2026-05-17T12:21:26.999Z</time>
      </trkpt>
      <trkpt lat="43.64982" lon="3.33406">
        <ele>183.5</ele>
        <time>2026-05-17T12:21:27.999Z</time>
      </trkpt>
      <trkpt lat="43.64982" lon="3.33404">
        <ele>183.2</ele>
        <time>2026-05-17T12:21:28.999Z</time>
      </trkpt>
      <trkpt lat="43.64982" lon="3.33402">
        <ele>183.1</ele>
        <time>2026-05-17T12:21:29.999Z</time>
      </trkpt>
      <trkpt lat="43.64983" lon="3.334">
        <ele>183.3</ele>
        <time>2026-05-17T12:21:30.999Z</time>
      </trkpt>
      <trkpt lat="43.64983" lon="3.33399">
        <ele>183.2</ele>
        <time>2026-05-17T12:21:31.999Z</time>
      </trkpt>
      <trkpt lat="43.64983" lon="3.33398">
        <ele>183</ele>
        <time>2026-05-17T12:21:32.999Z</time>
      </trkpt>
      <trkpt lat="43.64983" lon="3.33396">
        <ele>182.8</ele>
        <time>2026-05-17T12:21:33.999Z</time>
      </trkpt>
      <trkpt lat="43.64983" lon="3.33395">
        <ele>183.2</ele>
        <time>2026-05-17T12:21:34.999Z</time>
      </trkpt>
      <trkpt lat="43.64983" lon="3.33393">
        <ele>183.9</ele>
        <time>2026-05-17T12:21:35.999Z</time>
      </trkpt>
      <trkpt lat="43.64984" lon="3.33391">
        <ele>184.7</ele>
        <time>2026-05-17T12:21:36.999Z</time>
      </trkpt>
      <trkpt lat="43.64984" lon="3.33391">
        <ele>185</ele>
        <time>2026-05-17T12:21:37.999Z</time>
      </trkpt>
      <trkpt lat="43.64985" lon="3.3339">
        <ele>184.7</ele>
        <time>2026-05-17T12:21:38.999Z</time>
      </trkpt>
      <trkpt lat="43.64987" lon="3.33389">
        <ele>184.3</ele>
        <time>2026-05-17T12:21:39.999Z</time>
      </trkpt>
      <trkpt lat="43.64987" lon="3.33389">
        <ele>184.2</ele>
        <time>2026-05-17T12:21:40.999Z</time>
      </trkpt>
      <trkpt lat="43.64988" lon="3.33388">
        <ele>184.5</ele>
        <time>2026-05-17T12:21:41.999Z</time>
      </trkpt>
      <trkpt lat="43.64988" lon="3.33387">
        <ele>184.6</ele>
        <time>2026-05-17T12:21:42.999Z</time>
      </trkpt>
      <trkpt lat="43.64989" lon="3.33387">
        <ele>184.9</ele>
        <time>2026-05-17T12:21:43.999Z</time>
      </trkpt>
      <trkpt lat="43.64989" lon="3.33386">
        <ele>185.2</ele>
        <time>2026-05-17T12:21:44.999Z</time>
      </trkpt>
      <trkpt lat="43.6499" lon="3.33385">
        <ele>185.6</ele>
        <time>2026-05-17T12:21:45.999Z</time>
      </trkpt>
      <trkpt lat="43.6499" lon="3.33385">
        <ele>185.8</ele>
        <time>2026-05-17T12:21:46.999Z</time>
      </trkpt>
      <trkpt lat="43.6499" lon="3.33383">
        <ele>186</ele>
        <time>2026-05-17T12:21:47.999Z</time>
      </trkpt>
      <trkpt lat="43.64991" lon="3.33381">
        <ele>186</ele>
        <time>2026-05-17T12:21:48.999Z</time>
      </trkpt>
      <trkpt lat="43.64992" lon="3.3338">
        <ele>186.3</ele>
        <time>2026-05-17T12:21:49.999Z</time>
      </trkpt>
      <trkpt lat="43.64992" lon="3.33379">
        <ele>186.4</ele>
        <time>2026-05-17T12:21:50.999Z</time>
      </trkpt>
      <trkpt lat="43.64993" lon="3.33378">
        <ele>186.2</ele>
        <time>2026-05-17T12:21:51.999Z</time>
      </trkpt>
      <trkpt lat="43.64993" lon="3.33377">
        <ele>186.3</ele>
        <time>2026-05-17T12:21:52.999Z</time>
      </trkpt>
      <trkpt lat="43.64994" lon="3.33376">
        <ele>186.5</ele>
        <time>2026-05-17T12:21:53.999Z</time>
      </trkpt>
      <trkpt lat="43.64995" lon="3.33375">
        <ele>186.5</ele>
        <time>2026-05-17T12:21:54.999Z</time>
      </trkpt>
      <trkpt lat="43.64995" lon="3.33374">
        <ele>187</ele>
        <time>2026-05-17T12:21:55.999Z</time>
      </trkpt>
      <trkpt lat="43.64996" lon="3.33373">
        <ele>187.5</ele>
        <time>2026-05-17T12:21:56.999Z</time>
      </trkpt>
      <trkpt lat="43.64997" lon="3.33373">
        <ele>187.5</ele>
        <time>2026-05-17T12:21:57.999Z</time>
      </trkpt>
      <trkpt lat="43.64997" lon="3.33372">
        <ele>187.8</ele>
        <time>2026-05-17T12:21:58.999Z</time>
      </trkpt>
      <trkpt lat="43.64998" lon="3.33372">
        <ele>188</ele>
        <time>2026-05-17T12:21:59.999Z</time>
      </trkpt>
      <trkpt lat="43.64998" lon="3.33372">
        <ele>187.9</ele>
        <time>2026-05-17T12:22:00.999Z</time>
      </trkpt>
      <trkpt lat="43.64998" lon="3.33372">
        <ele>187.6</ele>
        <time>2026-05-17T12:22:01.999Z</time>
      </trkpt>
      <trkpt lat="43.64998" lon="3.33372">
        <ele>187.8</ele>
        <time>2026-05-17T12:22:02.999Z</time>
      </trkpt>
      <trkpt lat="43.64998" lon="3.33372">
        <ele>188.2</ele>
        <time>2026-05-17T12:22:03.999Z</time>
      </trkpt>
      <trkpt lat="43.64998" lon="3.33373">
        <ele>188.7</ele>
        <time>2026-05-17T12:22:04.999Z</time>
      </trkpt>
      <trkpt lat="43.64998" lon="3.33373">
        <ele>189.1</ele>
        <time>2026-05-17T12:22:05.999Z</time>
      </trkpt>
      <trkpt lat="43.64998" lon="3.33373">
        <ele>189.1</ele>
        <time>2026-05-17T12:22:06.999Z</time>
      </trkpt>
      <trkpt lat="43.64998" lon="3.33372">
        <ele>189.1</ele>
        <time>2026-05-17T12:22:07.999Z</time>
      </trkpt>
      <trkpt lat="43.64999" lon="3.33372">
        <ele>189</ele>
        <time>2026-05-17T12:22:08.999Z</time>
      </trkpt>
      <trkpt lat="43.65" lon="3.3337">
        <ele>188.9</ele>
        <time>2026-05-17T12:22:09.999Z</time>
      </trkpt>
      <trkpt lat="43.65001" lon="3.33368">
        <ele>188.8</ele>
        <time>2026-05-17T12:22:10.999Z</time>
      </trkpt>
      <trkpt lat="43.65002" lon="3.33366">
        <ele>189.1</ele>
        <time>2026-05-17T12:22:11.999Z</time>
      </trkpt>
      <trkpt lat="43.65002" lon="3.33365">
        <ele>188.9</ele>
        <time>2026-05-17T12:22:12.999Z</time>
      </trkpt>
      <trkpt lat="43.65003" lon="3.33363">
        <ele>188.6</ele>
        <time>2026-05-17T12:22:13.999Z</time>
      </trkpt>
      <trkpt lat="43.65003" lon="3.33362">
        <ele>188.5</ele>
        <time>2026-05-17T12:22:14.999Z</time>
      </trkpt>
      <trkpt lat="43.65003" lon="3.3336">
        <ele>188.5</ele>
        <time>2026-05-17T12:22:15.999Z</time>
      </trkpt>
      <trkpt lat="43.65004" lon="3.33359">
        <ele>188.4</ele>
        <time>2026-05-17T12:22:16.999Z</time>
      </trkpt>
      <trkpt lat="43.65005" lon="3.33358">
        <ele>188.6</ele>
        <time>2026-05-17T12:22:17.999Z</time>
      </trkpt>
      <trkpt lat="43.65006" lon="3.33358">
        <ele>188.8</ele>
        <time>2026-05-17T12:22:18.999Z</time>
      </trkpt>
      <trkpt lat="43.65008" lon="3.33357">
        <ele>188.5</ele>
        <time>2026-05-17T12:22:19.999Z</time>
      </trkpt>
      <trkpt lat="43.65009" lon="3.33356">
        <ele>188.3</ele>
        <time>2026-05-17T12:22:20.999Z</time>
      </trkpt>
      <trkpt lat="43.65011" lon="3.33355">
        <ele>188.1</ele>
        <time>2026-05-17T12:22:21.999Z</time>
      </trkpt>
      <trkpt lat="43.65012" lon="3.33354">
        <ele>188.1</ele>
        <time>2026-05-17T12:22:22.999Z</time>
      </trkpt>
      <trkpt lat="43.65014" lon="3.33354">
        <ele>188.2</ele>
        <time>2026-05-17T12:22:23.999Z</time>
      </trkpt>
      <trkpt lat="43.65015" lon="3.33353">
        <ele>188.1</ele>
        <time>2026-05-17T12:22:24.999Z</time>
      </trkpt>
      <trkpt lat="43.65016" lon="3.33352">
        <ele>188.1</ele>
        <time>2026-05-17T12:22:25.999Z</time>
      </trkpt>
      <trkpt lat="43.65017" lon="3.33351">
        <ele>188.1</ele>
        <time>2026-05-17T12:22:26.999Z</time>
      </trkpt>
      <trkpt lat="43.65018" lon="3.33351">
        <ele>188</ele>
        <time>2026-05-17T12:22:27.999Z</time>
      </trkpt>
      <trkpt lat="43.65019" lon="3.3335">
        <ele>187.6</ele>
        <time>2026-05-17T12:22:28.999Z</time>
      </trkpt>
      <trkpt lat="43.65019" lon="3.33349">
        <ele>187.2</ele>
        <time>2026-05-17T12:22:29.999Z</time>
      </trkpt>
      <trkpt lat="43.65019" lon="3.33348">
        <ele>186.9</ele>
        <time>2026-05-17T12:22:30.999Z</time>
      </trkpt>
      <trkpt lat="43.65019" lon="3.33347">
        <ele>186.9</ele>
        <time>2026-05-17T12:22:31.999Z</time>
      </trkpt>
      <trkpt lat="43.65018" lon="3.33347">
        <ele>186.8</ele>
        <time>2026-05-17T12:22:32.999Z</time>
      </trkpt>
      <trkpt lat="43.65018" lon="3.33347">
        <ele>186.1</ele>
        <time>2026-05-17T12:22:33.999Z</time>
      </trkpt>
      <trkpt lat="43.65018" lon="3.33347">
        <ele>185.6</ele>
        <time>2026-05-17T12:22:34.999Z</time>
      </trkpt>
      <trkpt lat="43.65018" lon="3.33347">
        <ele>185.4</ele>
        <time>2026-05-17T12:22:35.999Z</time>
      </trkpt>
      <trkpt lat="43.65018" lon="3.33347">
        <ele>185.3</ele>
        <time>2026-05-17T12:22:36.999Z</time>
      </trkpt>
      <trkpt lat="43.65018" lon="3.33347">
        <ele>185.3</ele>
        <time>2026-05-17T12:22:37.999Z</time>
      </trkpt>
      <trkpt lat="43.65018" lon="3.33347">
        <ele>185</ele>
        <time>2026-05-17T12:22:38.999Z</time>
      </trkpt>
      <trkpt lat="43.65019" lon="3.33346">
        <ele>184.8</ele>
        <time>2026-05-17T12:22:39.999Z</time>
      </trkpt>
      <trkpt lat="43.65019" lon="3.33344">
        <ele>184.8</ele>
        <time>2026-05-17T12:22:40.999Z</time>
      </trkpt>
      <trkpt lat="43.6502" lon="3.33343">
        <ele>184.8</ele>
        <time>2026-05-17T12:22:41.999Z</time>
      </trkpt>
      <trkpt lat="43.6502" lon="3.33343">
        <ele>184.4</ele>
        <time>2026-05-17T12:22:42.999Z</time>
      </trkpt>
      <trkpt lat="43.65021" lon="3.33342">
        <ele>184.1</ele>
        <time>2026-05-17T12:22:43.999Z</time>
      </trkpt>
      <trkpt lat="43.65021" lon="3.33344">
        <ele>184.3</ele>
        <time>2026-05-17T12:22:44.999Z</time>
      </trkpt>
      <trkpt lat="43.65022" lon="3.33344">
        <ele>184.9</ele>
        <time>2026-05-17T12:22:45.999Z</time>
      </trkpt>
      <trkpt lat="43.65023" lon="3.33344">
        <ele>184.8</ele>
        <time>2026-05-17T12:22:46.999Z</time>
      </trkpt>
      <trkpt lat="43.65024" lon="3.33343">
        <ele>184.6</ele>
        <time>2026-05-17T12:22:47.999Z</time>
      </trkpt>
      <trkpt lat="43.65025" lon="3.33342">
        <ele>184.6</ele>
        <time>2026-05-17T12:22:48.999Z</time>
      </trkpt>
      <trkpt lat="43.65026" lon="3.33342">
        <ele>184.9</ele>
        <time>2026-05-17T12:22:49.999Z</time>
      </trkpt>
      <trkpt lat="43.65026" lon="3.33342">
        <ele>185</ele>
        <time>2026-05-17T12:22:50.999Z</time>
      </trkpt>
      <trkpt lat="43.65027" lon="3.33341">
        <ele>185</ele>
        <time>2026-05-17T12:22:51.999Z</time>
      </trkpt>
      <trkpt lat="43.65028" lon="3.3334">
        <ele>185</ele>
        <time>2026-05-17T12:22:52.999Z</time>
      </trkpt>
      <trkpt lat="43.65029" lon="3.3334">
        <ele>185.4</ele>
        <time>2026-05-17T12:22:53.999Z</time>
      </trkpt>
      <trkpt lat="43.6503" lon="3.33339">
        <ele>185.9</ele>
        <time>2026-05-17T12:22:54.999Z</time>
      </trkpt>
      <trkpt lat="43.65031" lon="3.33339">
        <ele>186.4</ele>
        <time>2026-05-17T12:22:55.999Z</time>
      </trkpt>
      <trkpt lat="43.65032" lon="3.33338">
        <ele>186.4</ele>
        <time>2026-05-17T12:22:56.999Z</time>
      </trkpt>
      <trkpt lat="43.65032" lon="3.33337">
        <ele>186.4</ele>
        <time>2026-05-17T12:22:57.999Z</time>
      </trkpt>
      <trkpt lat="43.65033" lon="3.33336">
        <ele>186.1</ele>
        <time>2026-05-17T12:22:58.999Z</time>
      </trkpt>
      <trkpt lat="43.65034" lon="3.33335">
        <ele>185.9</ele>
        <time>2026-05-17T12:22:59.999Z</time>
      </trkpt>
      <trkpt lat="43.65033" lon="3.33334">
        <ele>185.9</ele>
        <time>2026-05-17T12:23:00.999Z</time>
      </trkpt>
      <trkpt lat="43.65033" lon="3.33334">
        <ele>186.2</ele>
        <time>2026-05-17T12:23:01.999Z</time>
      </trkpt>
      <trkpt lat="43.65033" lon="3.33333">
        <ele>186.7</ele>
        <time>2026-05-17T12:23:02.999Z</time>
      </trkpt>
      <trkpt lat="43.65032" lon="3.33333">
        <ele>186.9</ele>
        <time>2026-05-17T12:23:03.999Z</time>
      </trkpt>
      <trkpt lat="43.65032" lon="3.33333">
        <ele>187.5</ele>
        <time>2026-05-17T12:23:04.999Z</time>
      </trkpt>
      <trkpt lat="43.65032" lon="3.33333">
        <ele>187.3</ele>
        <time>2026-05-17T12:23:05.999Z</time>
      </trkpt>
      <trkpt lat="43.65032" lon="3.33333">
        <ele>187.2</ele>
        <time>2026-05-17T12:23:06.999Z</time>
      </trkpt>
      <trkpt lat="43.65032" lon="3.33333">
        <ele>187.5</ele>
        <time>2026-05-17T12:23:07.999Z</time>
      </trkpt>
      <trkpt lat="43.65032" lon="3.33333">
        <ele>187.7</ele>
        <time>2026-05-17T12:23:08.999Z</time>
      </trkpt>
      <trkpt lat="43.65032" lon="3.33333">
        <ele>188.1</ele>
        <time>2026-05-17T12:23:09.999Z</time>
      </trkpt>
      <trkpt lat="43.65032" lon="3.33333">
        <ele>188.5</ele>
        <time>2026-05-17T12:23:10.999Z</time>
      </trkpt>
      <trkpt lat="43.65032" lon="3.33333">
        <ele>188.8</ele>
        <time>2026-05-17T12:23:11.999Z</time>
      </trkpt>
      <trkpt lat="43.65032" lon="3.33333">
        <ele>189.4</ele>
        <time>2026-05-17T12:23:12.999Z</time>
      </trkpt>
      <trkpt lat="43.65032" lon="3.33333">
        <ele>189.6</ele>
        <time>2026-05-17T12:23:13.999Z</time>
      </trkpt>
      <trkpt lat="43.65032" lon="3.33333">
        <ele>189.8</ele>
        <time>2026-05-17T12:23:14.999Z</time>
      </trkpt>
      <trkpt lat="43.65032" lon="3.33333">
        <ele>189.9</ele>
        <time>2026-05-17T12:23:15.999Z</time>
      </trkpt>
      <trkpt lat="43.65032" lon="3.33333">
        <ele>190</ele>
        <time>2026-05-17T12:23:16.999Z</time>
      </trkpt>
      <trkpt lat="43.65032" lon="3.33333">
        <ele>190.4</ele>
        <time>2026-05-17T12:23:17.999Z</time>
      </trkpt>
      <trkpt lat="43.65032" lon="3.33333">
        <ele>190.8</ele>
        <time>2026-05-17T12:23:18.999Z</time>
      </trkpt>
      <trkpt lat="43.65032" lon="3.33333">
        <ele>190.9</ele>
        <time>2026-05-17T12:23:19.999Z</time>
      </trkpt>
      <trkpt lat="43.65032" lon="3.33332">
        <ele>191.2</ele>
        <time>2026-05-17T12:23:20.999Z</time>
      </trkpt>
      <trkpt lat="43.65033" lon="3.3333">
        <ele>191.3</ele>
        <time>2026-05-17T12:23:21.999Z</time>
      </trkpt>
      <trkpt lat="43.65034" lon="3.33329">
        <ele>191.4</ele>
        <time>2026-05-17T12:23:22.999Z</time>
      </trkpt>
      <trkpt lat="43.65035" lon="3.33329">
        <ele>191.5</ele>
        <time>2026-05-17T12:23:23.999Z</time>
      </trkpt>
      <trkpt lat="43.65036" lon="3.33328">
        <ele>191.4</ele>
        <time>2026-05-17T12:23:24.999Z</time>
      </trkpt>
      <trkpt lat="43.65038" lon="3.33327">
        <ele>191.3</ele>
        <time>2026-05-17T12:23:25.999Z</time>
      </trkpt>
      <trkpt lat="43.6504" lon="3.33325">
        <ele>191.3</ele>
        <time>2026-05-17T12:23:26.999Z</time>
      </trkpt>
      <trkpt lat="43.65042" lon="3.33324">
        <ele>191.4</ele>
        <time>2026-05-17T12:23:27.999Z</time>
      </trkpt>
      <trkpt lat="43.65045" lon="3.33323">
        <ele>192</ele>
        <time>2026-05-17T12:23:28.999Z</time>
      </trkpt>
      <trkpt lat="43.65046" lon="3.33322">
        <ele>192.2</ele>
        <time>2026-05-17T12:23:29.999Z</time>
      </trkpt>
      <trkpt lat="43.65048" lon="3.33321">
        <ele>193.2</ele>
        <time>2026-05-17T12:23:30.999Z</time>
      </trkpt>
      <trkpt lat="43.65048" lon="3.33321">
        <ele>193</ele>
        <time>2026-05-17T12:23:31.999Z</time>
      </trkpt>
      <trkpt lat="43.65049" lon="3.3332">
        <ele>193.9</ele>
        <time>2026-05-17T12:23:32.999Z</time>
      </trkpt>
      <trkpt lat="43.6505" lon="3.3332">
        <ele>193.9</ele>
        <time>2026-05-17T12:23:33.999Z</time>
      </trkpt>
      <trkpt lat="43.65046" lon="3.3332">
        <ele>192</ele>
        <time>2026-05-17T12:23:34.999Z</time>
      </trkpt>
      <trkpt lat="43.65045" lon="3.33319">
        <ele>190.4</ele>
        <time>2026-05-17T12:23:35.999Z</time>
      </trkpt>
      <trkpt lat="43.65045" lon="3.33318">
        <ele>189.2</ele>
        <time>2026-05-17T12:23:36.999Z</time>
      </trkpt>
      <trkpt lat="43.65045" lon="3.33317">
        <ele>188.5</ele>
        <time>2026-05-17T12:23:37.999Z</time>
      </trkpt>
      <trkpt lat="43.65044" lon="3.33317">
        <ele>188.4</ele>
        <time>2026-05-17T12:23:38.999Z</time>
      </trkpt>
      <trkpt lat="43.65041" lon="3.33315">
        <ele>187.7</ele>
        <time>2026-05-17T12:23:39.999Z</time>
      </trkpt>
      <trkpt lat="43.65039" lon="3.33314">
        <ele>187.6</ele>
        <time>2026-05-17T12:23:40.999Z</time>
      </trkpt>
      <trkpt lat="43.65039" lon="3.33314">
        <ele>187.3</ele>
        <time>2026-05-17T12:23:41.999Z</time>
      </trkpt>
      <trkpt lat="43.65039" lon="3.33314">
        <ele>187.6</ele>
        <time>2026-05-17T12:23:42.999Z</time>
      </trkpt>
      <trkpt lat="43.65039" lon="3.33314">
        <ele>185.7</ele>
        <time>2026-05-17T12:23:43.999Z</time>
      </trkpt>
      <trkpt lat="43.65039" lon="3.33314">
        <ele>185.9</ele>
        <time>2026-05-17T12:23:44.999Z</time>
      </trkpt>
      <trkpt lat="43.65039" lon="3.33314">
        <ele>186</ele>
        <time>2026-05-17T12:23:45.999Z</time>
      </trkpt>
      <trkpt lat="43.65039" lon="3.33314">
        <ele>186</ele>
        <time>2026-05-17T12:23:46.999Z</time>
      </trkpt>
      <trkpt lat="43.65039" lon="3.33314">
        <ele>186.1</ele>
        <time>2026-05-17T12:23:47.999Z</time>
      </trkpt>
      <trkpt lat="43.65039" lon="3.33314">
        <ele>186.4</ele>
        <time>2026-05-17T12:23:48.999Z</time>
      </trkpt>
      <trkpt lat="43.65039" lon="3.33314">
        <ele>186.7</ele>
        <time>2026-05-17T12:23:49.999Z</time>
      </trkpt>
      <trkpt lat="43.65039" lon="3.33314">
        <ele>186.5</ele>
        <time>2026-05-17T12:23:50.999Z</time>
      </trkpt>
      <trkpt lat="43.65039" lon="3.33314">
        <ele>186.5</ele>
        <time>2026-05-17T12:23:51.999Z</time>
      </trkpt>
      <trkpt lat="43.65039" lon="3.33314">
        <ele>186.6</ele>
        <time>2026-05-17T12:23:52.999Z</time>
      </trkpt>
      <trkpt lat="43.65038" lon="3.33312">
        <ele>186.8</ele>
        <time>2026-05-17T12:23:53.999Z</time>
      </trkpt>
      <trkpt lat="43.65037" lon="3.33311">
        <ele>186.7</ele>
        <time>2026-05-17T12:23:54.999Z</time>
      </trkpt>
      <trkpt lat="43.65036" lon="3.33309">
        <ele>187.1</ele>
        <time>2026-05-17T12:23:55.999Z</time>
      </trkpt>
      <trkpt lat="43.65035" lon="3.33308">
        <ele>187.3</ele>
        <time>2026-05-17T12:23:56.999Z</time>
      </trkpt>
      <trkpt lat="43.65035" lon="3.33306">
        <ele>187.7</ele>
        <time>2026-05-17T12:23:57.999Z</time>
      </trkpt>
      <trkpt lat="43.65035" lon="3.33305">
        <ele>188</ele>
        <time>2026-05-17T12:23:58.999Z</time>
      </trkpt>
      <trkpt lat="43.65035" lon="3.33305">
        <ele>188.1</ele>
        <time>2026-05-17T12:23:59.999Z</time>
      </trkpt>
      <trkpt lat="43.65035" lon="3.33304">
        <ele>188</ele>
        <time>2026-05-17T12:24:00.999Z</time>
      </trkpt>
      <trkpt lat="43.65034" lon="3.33303">
        <ele>187.5</ele>
        <time>2026-05-17T12:24:01.999Z</time>
      </trkpt>
      <trkpt lat="43.65034" lon="3.33301">
        <ele>187.3</ele>
        <time>2026-05-17T12:24:02.999Z</time>
      </trkpt>
      <trkpt lat="43.65034" lon="3.333">
        <ele>187</ele>
        <time>2026-05-17T12:24:03.999Z</time>
      </trkpt>
      <trkpt lat="43.65034" lon="3.33299">
        <ele>186.9</ele>
        <time>2026-05-17T12:24:04.999Z</time>
      </trkpt>
      <trkpt lat="43.65034" lon="3.33297">
        <ele>187.1</ele>
        <time>2026-05-17T12:24:05.999Z</time>
      </trkpt>
      <trkpt lat="43.65034" lon="3.33296">
        <ele>187.1</ele>
        <time>2026-05-17T12:24:06.999Z</time>
      </trkpt>
      <trkpt lat="43.65034" lon="3.33295">
        <ele>187.2</ele>
        <time>2026-05-17T12:24:07.999Z</time>
      </trkpt>
      <trkpt lat="43.65034" lon="3.33293">
        <ele>187.2</ele>
        <time>2026-05-17T12:24:08.999Z</time>
      </trkpt>
      <trkpt lat="43.65034" lon="3.33291">
        <ele>187</ele>
        <time>2026-05-17T12:24:09.999Z</time>
      </trkpt>
      <trkpt lat="43.65035" lon="3.3329">
        <ele>187</ele>
        <time>2026-05-17T12:24:10.999Z</time>
      </trkpt>
      <trkpt lat="43.65035" lon="3.33289">
        <ele>187.2</ele>
        <time>2026-05-17T12:24:11.999Z</time>
      </trkpt>
      <trkpt lat="43.65035" lon="3.33288">
        <ele>187.2</ele>
        <time>2026-05-17T12:24:12.999Z</time>
      </trkpt>
      <trkpt lat="43.65036" lon="3.33286">
        <ele>186.9</ele>
        <time>2026-05-17T12:24:13.999Z</time>
      </trkpt>
      <trkpt lat="43.65036" lon="3.33284">
        <ele>187.2</ele>
        <time>2026-05-17T12:24:14.999Z</time>
      </trkpt>
      <trkpt lat="43.65037" lon="3.33283">
        <ele>187.6</ele>
        <time>2026-05-17T12:24:15.999Z</time>
      </trkpt>
      <trkpt lat="43.65037" lon="3.33282">
        <ele>187.6</ele>
        <time>2026-05-17T12:24:16.999Z</time>
      </trkpt>
      <trkpt lat="43.65037" lon="3.3328">
        <ele>187.4</ele>
        <time>2026-05-17T12:24:17.999Z</time>
      </trkpt>
      <trkpt lat="43.65038" lon="3.33279">
        <ele>187.3</ele>
        <time>2026-05-17T12:24:18.999Z</time>
      </trkpt>
      <trkpt lat="43.65038" lon="3.33276">
        <ele>187.3</ele>
        <time>2026-05-17T12:24:19.999Z</time>
      </trkpt>
      <trkpt lat="43.65039" lon="3.33274">
        <ele>187.2</ele>
        <time>2026-05-17T12:24:20.999Z</time>
      </trkpt>
      <trkpt lat="43.65039" lon="3.33273">
        <ele>187.5</ele>
        <time>2026-05-17T12:24:21.999Z</time>
      </trkpt>
      <trkpt lat="43.6504" lon="3.33272">
        <ele>187.1</ele>
        <time>2026-05-17T12:24:22.999Z</time>
      </trkpt>
      <trkpt lat="43.6504" lon="3.3327">
        <ele>187.3</ele>
        <time>2026-05-17T12:24:23.999Z</time>
      </trkpt>
      <trkpt lat="43.65041" lon="3.33269">
        <ele>187.5</ele>
        <time>2026-05-17T12:24:24.999Z</time>
      </trkpt>
      <trkpt lat="43.65041" lon="3.33268">
        <ele>187.6</ele>
        <time>2026-05-17T12:24:25.999Z</time>
      </trkpt>
      <trkpt lat="43.65041" lon="3.33267">
        <ele>187.1</ele>
        <time>2026-05-17T12:24:26.999Z</time>
      </trkpt>
      <trkpt lat="43.65041" lon="3.33265">
        <ele>186.5</ele>
        <time>2026-05-17T12:24:27.999Z</time>
      </trkpt>
      <trkpt lat="43.65041" lon="3.33264">
        <ele>186.1</ele>
        <time>2026-05-17T12:24:28.999Z</time>
      </trkpt>
      <trkpt lat="43.65042" lon="3.33262">
        <ele>186.3</ele>
        <time>2026-05-17T12:24:29.999Z</time>
      </trkpt>
      <trkpt lat="43.65042" lon="3.33261">
        <ele>186.4</ele>
        <time>2026-05-17T12:24:30.999Z</time>
      </trkpt>
      <trkpt lat="43.65042" lon="3.3326">
        <ele>186</ele>
        <time>2026-05-17T12:24:31.999Z</time>
      </trkpt>
      <trkpt lat="43.65042" lon="3.33258">
        <ele>185.7</ele>
        <time>2026-05-17T12:24:32.999Z</time>
      </trkpt>
      <trkpt lat="43.65043" lon="3.33256">
        <ele>185.7</ele>
        <time>2026-05-17T12:24:33.999Z</time>
      </trkpt>
      <trkpt lat="43.65043" lon="3.33254">
        <ele>186</ele>
        <time>2026-05-17T12:24:34.999Z</time>
      </trkpt>
      <trkpt lat="43.65043" lon="3.33252">
        <ele>186.4</ele>
        <time>2026-05-17T12:24:35.999Z</time>
      </trkpt>
      <trkpt lat="43.65043" lon="3.3325">
        <ele>186.6</ele>
        <time>2026-05-17T12:24:36.999Z</time>
      </trkpt>
      <trkpt lat="43.65043" lon="3.33248">
        <ele>186.6</ele>
        <time>2026-05-17T12:24:37.999Z</time>
      </trkpt>
      <trkpt lat="43.65044" lon="3.33247">
        <ele>186.6</ele>
        <time>2026-05-17T12:24:38.999Z</time>
      </trkpt>
      <trkpt lat="43.65044" lon="3.33245">
        <ele>186.9</ele>
        <time>2026-05-17T12:24:39.999Z</time>
      </trkpt>
      <trkpt lat="43.65044" lon="3.33244">
        <ele>187.2</ele>
        <time>2026-05-17T12:24:40.999Z</time>
      </trkpt>
      <trkpt lat="43.65044" lon="3.33243">
        <ele>187</ele>
        <time>2026-05-17T12:24:41.999Z</time>
      </trkpt>
      <trkpt lat="43.65044" lon="3.33242">
        <ele>186.7</ele>
        <time>2026-05-17T12:24:42.999Z</time>
      </trkpt>
      <trkpt lat="43.65044" lon="3.3324">
        <ele>186.2</ele>
        <time>2026-05-17T12:24:43.999Z</time>
      </trkpt>
      <trkpt lat="43.65044" lon="3.33239">
        <ele>186</ele>
        <time>2026-05-17T12:24:44.999Z</time>
      </trkpt>
      <trkpt lat="43.65044" lon="3.33238">
        <ele>186</ele>
        <time>2026-05-17T12:24:45.999Z</time>
      </trkpt>
      <trkpt lat="43.65044" lon="3.33237">
        <ele>185.9</ele>
        <time>2026-05-17T12:24:46.999Z</time>
      </trkpt>
      <trkpt lat="43.65044" lon="3.33236">
        <ele>186.2</ele>
        <time>2026-05-17T12:24:47.999Z</time>
      </trkpt>
      <trkpt lat="43.65044" lon="3.33234">
        <ele>186.3</ele>
        <time>2026-05-17T12:24:48.999Z</time>
      </trkpt>
      <trkpt lat="43.65043" lon="3.33232">
        <ele>186</ele>
        <time>2026-05-17T12:24:49.999Z</time>
      </trkpt>
      <trkpt lat="43.65042" lon="3.3323">
        <ele>186.2</ele>
        <time>2026-05-17T12:24:50.999Z</time>
      </trkpt>
      <trkpt lat="43.65042" lon="3.33229">
        <ele>186.5</ele>
        <time>2026-05-17T12:24:51.999Z</time>
      </trkpt>
      <trkpt lat="43.65042" lon="3.33228">
        <ele>186.7</ele>
        <time>2026-05-17T12:24:52.999Z</time>
      </trkpt>
      <trkpt lat="43.65042" lon="3.33227">
        <ele>186.6</ele>
        <time>2026-05-17T12:24:53.999Z</time>
      </trkpt>
      <trkpt lat="43.65043" lon="3.33225">
        <ele>186.6</ele>
        <time>2026-05-17T12:24:54.999Z</time>
      </trkpt>
      <trkpt lat="43.65043" lon="3.33224">
        <ele>186.6</ele>
        <time>2026-05-17T12:24:55.999Z</time>
      </trkpt>
      <trkpt lat="43.65044" lon="3.33223">
        <ele>186.5</ele>
        <time>2026-05-17T12:24:56.999Z</time>
      </trkpt>
      <trkpt lat="43.65044" lon="3.33221">
        <ele>186.7</ele>
        <time>2026-05-17T12:24:57.999Z</time>
      </trkpt>
      <trkpt lat="43.65044" lon="3.33219">
        <ele>187</ele>
        <time>2026-05-17T12:24:58.999Z</time>
      </trkpt>
      <trkpt lat="43.65044" lon="3.33218">
        <ele>187.7</ele>
        <time>2026-05-17T12:24:59.999Z</time>
      </trkpt>
      <trkpt lat="43.65045" lon="3.33217">
        <ele>188</ele>
        <time>2026-05-17T12:25:00.999Z</time>
      </trkpt>
      <trkpt lat="43.65045" lon="3.33215">
        <ele>187.8</ele>
        <time>2026-05-17T12:25:01.999Z</time>
      </trkpt>
      <trkpt lat="43.65046" lon="3.33213">
        <ele>187.9</ele>
        <time>2026-05-17T12:25:02.999Z</time>
      </trkpt>
      <trkpt lat="43.65046" lon="3.33212">
        <ele>188.2</ele>
        <time>2026-05-17T12:25:03.999Z</time>
      </trkpt>
      <trkpt lat="43.65046" lon="3.33211">
        <ele>188.7</ele>
        <time>2026-05-17T12:25:04.999Z</time>
      </trkpt>
      <trkpt lat="43.65047" lon="3.3321">
        <ele>189</ele>
        <time>2026-05-17T12:25:05.999Z</time>
      </trkpt>
      <trkpt lat="43.65047" lon="3.33209">
        <ele>189.1</ele>
        <time>2026-05-17T12:25:06.999Z</time>
      </trkpt>
      <trkpt lat="43.65048" lon="3.33208">
        <ele>189.4</ele>
        <time>2026-05-17T12:25:07.999Z</time>
      </trkpt>
      <trkpt lat="43.65048" lon="3.33206">
        <ele>189.5</ele>
        <time>2026-05-17T12:25:08.999Z</time>
      </trkpt>
      <trkpt lat="43.65048" lon="3.33205">
        <ele>189.1</ele>
        <time>2026-05-17T12:25:09.999Z</time>
      </trkpt>
      <trkpt lat="43.65048" lon="3.33203">
        <ele>188.7</ele>
        <time>2026-05-17T12:25:10.999Z</time>
      </trkpt>
      <trkpt lat="43.65047" lon="3.33201">
        <ele>188.2</ele>
        <time>2026-05-17T12:25:11.999Z</time>
      </trkpt>
      <trkpt lat="43.65047" lon="3.33199">
        <ele>188.3</ele>
        <time>2026-05-17T12:25:12.999Z</time>
      </trkpt>
      <trkpt lat="43.65046" lon="3.33197">
        <ele>188.2</ele>
        <time>2026-05-17T12:25:13.999Z</time>
      </trkpt>
      <trkpt lat="43.65046" lon="3.33196">
        <ele>188.3</ele>
        <time>2026-05-17T12:25:14.999Z</time>
      </trkpt>
      <trkpt lat="43.65046" lon="3.33194">
        <ele>188.3</ele>
        <time>2026-05-17T12:25:15.999Z</time>
      </trkpt>
      <trkpt lat="43.65047" lon="3.33193">
        <ele>188.4</ele>
        <time>2026-05-17T12:25:16.999Z</time>
      </trkpt>
      <trkpt lat="43.65047" lon="3.33191">
        <ele>188.3</ele>
        <time>2026-05-17T12:25:17.999Z</time>
      </trkpt>
      <trkpt lat="43.65048" lon="3.3319">
        <ele>188.5</ele>
        <time>2026-05-17T12:25:18.999Z</time>
      </trkpt>
      <trkpt lat="43.65049" lon="3.33189">
        <ele>188.6</ele>
        <time>2026-05-17T12:25:19.999Z</time>
      </trkpt>
      <trkpt lat="43.65049" lon="3.33188">
        <ele>188.7</ele>
        <time>2026-05-17T12:25:20.999Z</time>
      </trkpt>
      <trkpt lat="43.65051" lon="3.33188">
        <ele>188.5</ele>
        <time>2026-05-17T12:25:21.999Z</time>
      </trkpt>
      <trkpt lat="43.65052" lon="3.33188">
        <ele>188.9</ele>
        <time>2026-05-17T12:25:22.999Z</time>
      </trkpt>
      <trkpt lat="43.65053" lon="3.33188">
        <ele>189</ele>
        <time>2026-05-17T12:25:23.999Z</time>
      </trkpt>
      <trkpt lat="43.65054" lon="3.33188">
        <ele>189</ele>
        <time>2026-05-17T12:25:24.999Z</time>
      </trkpt>
      <trkpt lat="43.65055" lon="3.33187">
        <ele>189.2</ele>
        <time>2026-05-17T12:25:25.999Z</time>
      </trkpt>
      <trkpt lat="43.65057" lon="3.33186">
        <ele>189</ele>
        <time>2026-05-17T12:25:26.999Z</time>
      </trkpt>
      <trkpt lat="43.65058" lon="3.33185">
        <ele>188.5</ele>
        <time>2026-05-17T12:25:27.999Z</time>
      </trkpt>
      <trkpt lat="43.65059" lon="3.33185">
        <ele>188.5</ele>
        <time>2026-05-17T12:25:28.999Z</time>
      </trkpt>
      <trkpt lat="43.65059" lon="3.33184">
        <ele>188.5</ele>
        <time>2026-05-17T12:25:29.999Z</time>
      </trkpt>
      <trkpt lat="43.65059" lon="3.33184">
        <ele>188.3</ele>
        <time>2026-05-17T12:25:30.999Z</time>
      </trkpt>
      <trkpt lat="43.65059" lon="3.33183">
        <ele>188.3</ele>
        <time>2026-05-17T12:25:31.999Z</time>
      </trkpt>
      <trkpt lat="43.65058" lon="3.33183">
        <ele>188.4</ele>
        <time>2026-05-17T12:25:32.999Z</time>
      </trkpt>
      <trkpt lat="43.65058" lon="3.33183">
        <ele>188.8</ele>
        <time>2026-05-17T12:25:33.999Z</time>
      </trkpt>
      <trkpt lat="43.65059" lon="3.33183">
        <ele>189.3</ele>
        <time>2026-05-17T12:25:34.999Z</time>
      </trkpt>
      <trkpt lat="43.65059" lon="3.33183">
        <ele>189.4</ele>
        <time>2026-05-17T12:25:35.999Z</time>
      </trkpt>
      <trkpt lat="43.65059" lon="3.33183">
        <ele>189.6</ele>
        <time>2026-05-17T12:25:36.999Z</time>
      </trkpt>
      <trkpt lat="43.65059" lon="3.33183">
        <ele>189.7</ele>
        <time>2026-05-17T12:25:37.999Z</time>
      </trkpt>
      <trkpt lat="43.65061" lon="3.33182">
        <ele>189.8</ele>
        <time>2026-05-17T12:25:38.999Z</time>
      </trkpt>
      <trkpt lat="43.65062" lon="3.33181">
        <ele>190</ele>
        <time>2026-05-17T12:25:39.999Z</time>
      </trkpt>
      <trkpt lat="43.65063" lon="3.3318">
        <ele>189.9</ele>
        <time>2026-05-17T12:25:40.999Z</time>
      </trkpt>
      <trkpt lat="43.65063" lon="3.3318">
        <ele>189.6</ele>
        <time>2026-05-17T12:25:41.999Z</time>
      </trkpt>
      <trkpt lat="43.65065" lon="3.33179">
        <ele>189.5</ele>
        <time>2026-05-17T12:25:42.999Z</time>
      </trkpt>
      <trkpt lat="43.65066" lon="3.33179">
        <ele>189.4</ele>
        <time>2026-05-17T12:25:43.999Z</time>
      </trkpt>
      <trkpt lat="43.65067" lon="3.33178">
        <ele>189.5</ele>
        <time>2026-05-17T12:25:44.999Z</time>
      </trkpt>
      <trkpt lat="43.65068" lon="3.33178">
        <ele>189.4</ele>
        <time>2026-05-17T12:25:45.999Z</time>
      </trkpt>
      <trkpt lat="43.6507" lon="3.33177">
        <ele>189.4</ele>
        <time>2026-05-17T12:25:46.999Z</time>
      </trkpt>
      <trkpt lat="43.65071" lon="3.33176">
        <ele>189.6</ele>
        <time>2026-05-17T12:25:47.999Z</time>
      </trkpt>
      <trkpt lat="43.65072" lon="3.33176">
        <ele>189.7</ele>
        <time>2026-05-17T12:25:48.999Z</time>
      </trkpt>
      <trkpt lat="43.65073" lon="3.33175">
        <ele>189.8</ele>
        <time>2026-05-17T12:25:49.999Z</time>
      </trkpt>
      <trkpt lat="43.65075" lon="3.33174">
        <ele>189.8</ele>
        <time>2026-05-17T12:25:50.999Z</time>
      </trkpt>
      <trkpt lat="43.65076" lon="3.33174">
        <ele>189.8</ele>
        <time>2026-05-17T12:25:51.999Z</time>
      </trkpt>
      <trkpt lat="43.65078" lon="3.33173">
        <ele>190.1</ele>
        <time>2026-05-17T12:25:52.999Z</time>
      </trkpt>
      <trkpt lat="43.65079" lon="3.33172">
        <ele>190.3</ele>
        <time>2026-05-17T12:25:53.999Z</time>
      </trkpt>
      <trkpt lat="43.6508" lon="3.33172">
        <ele>190.3</ele>
        <time>2026-05-17T12:25:54.999Z</time>
      </trkpt>
      <trkpt lat="43.65081" lon="3.33171">
        <ele>190.2</ele>
        <time>2026-05-17T12:25:55.999Z</time>
      </trkpt>
      <trkpt lat="43.65081" lon="3.33171">
        <ele>190.2</ele>
        <time>2026-05-17T12:25:56.999Z</time>
      </trkpt>
      <trkpt lat="43.65082" lon="3.33171">
        <ele>190.1</ele>
        <time>2026-05-17T12:25:57.999Z</time>
      </trkpt>
      <trkpt lat="43.65082" lon="3.3317">
        <ele>190.1</ele>
        <time>2026-05-17T12:25:58.999Z</time>
      </trkpt>
      <trkpt lat="43.65083" lon="3.3317">
        <ele>189.8</ele>
        <time>2026-05-17T12:25:59.999Z</time>
      </trkpt>
      <trkpt lat="43.65084" lon="3.33169">
        <ele>189.7</ele>
        <time>2026-05-17T12:26:00.999Z</time>
      </trkpt>
      <trkpt lat="43.65085" lon="3.33168">
        <ele>189.9</ele>
        <time>2026-05-17T12:26:01.999Z</time>
      </trkpt>
      <trkpt lat="43.65086" lon="3.33166">
        <ele>190.1</ele>
        <time>2026-05-17T12:26:02.999Z</time>
      </trkpt>
      <trkpt lat="43.65087" lon="3.33166">
        <ele>190.2</ele>
        <time>2026-05-17T12:26:03.999Z</time>
      </trkpt>
      <trkpt lat="43.65088" lon="3.33165">
        <ele>190.3</ele>
        <time>2026-05-17T12:26:04.999Z</time>
      </trkpt>
      <trkpt lat="43.65089" lon="3.33165">
        <ele>190</ele>
        <time>2026-05-17T12:26:05.999Z</time>
      </trkpt>
      <trkpt lat="43.65091" lon="3.33164">
        <ele>190.2</ele>
        <time>2026-05-17T12:26:06.999Z</time>
      </trkpt>
      <trkpt lat="43.65092" lon="3.33164">
        <ele>190.1</ele>
        <time>2026-05-17T12:26:07.999Z</time>
      </trkpt>
      <trkpt lat="43.65092" lon="3.33163">
        <ele>190.2</ele>
        <time>2026-05-17T12:26:08.999Z</time>
      </trkpt>
      <trkpt lat="43.65093" lon="3.33163">
        <ele>190.5</ele>
        <time>2026-05-17T12:26:09.999Z</time>
      </trkpt>
      <trkpt lat="43.65094" lon="3.33162">
        <ele>190.8</ele>
        <time>2026-05-17T12:26:10.999Z</time>
      </trkpt>
      <trkpt lat="43.65096" lon="3.33162">
        <ele>191</ele>
        <time>2026-05-17T12:26:11.999Z</time>
      </trkpt>
      <trkpt lat="43.65097" lon="3.33161">
        <ele>191.2</ele>
        <time>2026-05-17T12:26:12.999Z</time>
      </trkpt>
      <trkpt lat="43.65098" lon="3.3316">
        <ele>191</ele>
        <time>2026-05-17T12:26:13.999Z</time>
      </trkpt>
      <trkpt lat="43.65098" lon="3.3316">
        <ele>191</ele>
        <time>2026-05-17T12:26:14.999Z</time>
      </trkpt>
      <trkpt lat="43.65099" lon="3.33159">
        <ele>190.4</ele>
        <time>2026-05-17T12:26:15.999Z</time>
      </trkpt>
      <trkpt lat="43.65099" lon="3.33158">
        <ele>190.3</ele>
        <time>2026-05-17T12:26:16.999Z</time>
      </trkpt>
      <trkpt lat="43.65099" lon="3.33156">
        <ele>190.5</ele>
        <time>2026-05-17T12:26:17.999Z</time>
      </trkpt>
      <trkpt lat="43.65099" lon="3.33154">
        <ele>190.8</ele>
        <time>2026-05-17T12:26:18.999Z</time>
      </trkpt>
      <trkpt lat="43.65098" lon="3.33154">
        <ele>191.4</ele>
        <time>2026-05-17T12:26:19.999Z</time>
      </trkpt>
      <trkpt lat="43.65098" lon="3.33155">
        <ele>192.1</ele>
        <time>2026-05-17T12:26:20.999Z</time>
      </trkpt>
      <trkpt lat="43.65098" lon="3.33155">
        <ele>192.5</ele>
        <time>2026-05-17T12:26:21.999Z</time>
      </trkpt>
      <trkpt lat="43.65098" lon="3.33155">
        <ele>193.2</ele>
        <time>2026-05-17T12:26:22.999Z</time>
      </trkpt>
      <trkpt lat="43.65098" lon="3.33155">
        <ele>193.8</ele>
        <time>2026-05-17T12:26:23.999Z</time>
      </trkpt>
      <trkpt lat="43.65098" lon="3.33155">
        <ele>194.3</ele>
        <time>2026-05-17T12:26:24.999Z</time>
      </trkpt>
      <trkpt lat="43.65098" lon="3.33155">
        <ele>194.2</ele>
        <time>2026-05-17T12:26:25.999Z</time>
      </trkpt>
      <trkpt lat="43.65098" lon="3.33155">
        <ele>194.5</ele>
        <time>2026-05-17T12:26:26.999Z</time>
      </trkpt>
      <trkpt lat="43.65098" lon="3.33155">
        <ele>194.6</ele>
        <time>2026-05-17T12:26:27.999Z</time>
      </trkpt>
      <trkpt lat="43.65098" lon="3.33155">
        <ele>194.5</ele>
        <time>2026-05-17T12:26:28.999Z</time>
      </trkpt>
      <trkpt lat="43.65098" lon="3.33155">
        <ele>194.5</ele>
        <time>2026-05-17T12:26:29.999Z</time>
      </trkpt>
      <trkpt lat="43.65098" lon="3.33155">
        <ele>194.7</ele>
        <time>2026-05-17T12:26:30.999Z</time>
      </trkpt>
      <trkpt lat="43.65098" lon="3.33155">
        <ele>194.9</ele>
        <time>2026-05-17T12:26:31.999Z</time>
      </trkpt>
      <trkpt lat="43.65097" lon="3.33156">
        <ele>195.5</ele>
        <time>2026-05-17T12:26:32.999Z</time>
      </trkpt>
      <trkpt lat="43.65097" lon="3.33156">
        <ele>195.8</ele>
        <time>2026-05-17T12:26:33.999Z</time>
      </trkpt>
      <trkpt lat="43.65097" lon="3.33156">
        <ele>196.1</ele>
        <time>2026-05-17T12:26:34.999Z</time>
      </trkpt>
      <trkpt lat="43.65097" lon="3.33156">
        <ele>196.7</ele>
        <time>2026-05-17T12:26:35.999Z</time>
      </trkpt>
      <trkpt lat="43.65097" lon="3.33156">
        <ele>197.2</ele>
        <time>2026-05-17T12:26:36.999Z</time>
      </trkpt>
      <trkpt lat="43.65097" lon="3.33157">
        <ele>198.2</ele>
        <time>2026-05-17T12:26:37.999Z</time>
      </trkpt>
      <trkpt lat="43.65097" lon="3.33157">
        <ele>198.2</ele>
        <time>2026-05-17T12:26:38.999Z</time>
      </trkpt>
      <trkpt lat="43.65097" lon="3.33157">
        <ele>197.9</ele>
        <time>2026-05-17T12:26:39.999Z</time>
      </trkpt>
      <trkpt lat="43.65098" lon="3.33158">
        <ele>197.8</ele>
        <time>2026-05-17T12:26:40.999Z</time>
      </trkpt>
      <trkpt lat="43.65099" lon="3.33157">
        <ele>198.4</ele>
        <time>2026-05-17T12:26:41.999Z</time>
      </trkpt>
      <trkpt lat="43.65103" lon="3.33157">
        <ele>198.8</ele>
        <time>2026-05-17T12:26:43.999Z</time>
      </trkpt>
      <trkpt lat="43.65104" lon="3.33158">
        <ele>199.2</ele>
        <time>2026-05-17T12:26:44.999Z</time>
      </trkpt>
      <trkpt lat="43.65105" lon="3.33158">
        <ele>198.8</ele>
        <time>2026-05-17T12:26:45.999Z</time>
      </trkpt>
      <trkpt lat="43.65107" lon="3.33158">
        <ele>198.9</ele>
        <time>2026-05-17T12:26:46.999Z</time>
      </trkpt>
      <trkpt lat="43.65108" lon="3.33158">
        <ele>199.1</ele>
        <time>2026-05-17T12:26:47.999Z</time>
      </trkpt>
      <trkpt lat="43.65109" lon="3.33158">
        <ele>198.8</ele>
        <time>2026-05-17T12:26:48.999Z</time>
      </trkpt>
      <trkpt lat="43.65111" lon="3.33158">
        <ele>198.7</ele>
        <time>2026-05-17T12:26:49.999Z</time>
      </trkpt>
      <trkpt lat="43.65111" lon="3.33158">
        <ele>198.6</ele>
        <time>2026-05-17T12:26:50.999Z</time>
      </trkpt>
      <trkpt lat="43.65112" lon="3.33158">
        <ele>198.4</ele>
        <time>2026-05-17T12:26:51.999Z</time>
      </trkpt>
      <trkpt lat="43.65114" lon="3.33158">
        <ele>197.8</ele>
        <time>2026-05-17T12:26:52.999Z</time>
      </trkpt>
      <trkpt lat="43.65115" lon="3.33156">
        <ele>197.5</ele>
        <time>2026-05-17T12:26:53.999Z</time>
      </trkpt>
      <trkpt lat="43.65116" lon="3.33155">
        <ele>197</ele>
        <time>2026-05-17T12:26:54.999Z</time>
      </trkpt>
      <trkpt lat="43.65117" lon="3.33155">
        <ele>197</ele>
        <time>2026-05-17T12:26:55.999Z</time>
      </trkpt>
      <trkpt lat="43.65118" lon="3.33154">
        <ele>196.8</ele>
        <time>2026-05-17T12:26:56.999Z</time>
      </trkpt>
      <trkpt lat="43.65119" lon="3.33154">
        <ele>196.6</ele>
        <time>2026-05-17T12:26:57.999Z</time>
      </trkpt>
      <trkpt lat="43.65119" lon="3.33153">
        <ele>196.1</ele>
        <time>2026-05-17T12:26:58.999Z</time>
      </trkpt>
      <trkpt lat="43.6512" lon="3.33152">
        <ele>195.7</ele>
        <time>2026-05-17T12:26:59.999Z</time>
      </trkpt>
      <trkpt lat="43.65122" lon="3.33151">
        <ele>195.5</ele>
        <time>2026-05-17T12:27:00.999Z</time>
      </trkpt>
      <trkpt lat="43.65123" lon="3.33149">
        <ele>195.5</ele>
        <time>2026-05-17T12:27:01.999Z</time>
      </trkpt>
      <trkpt lat="43.65124" lon="3.33147">
        <ele>195.4</ele>
        <time>2026-05-17T12:27:02.999Z</time>
      </trkpt>
      <trkpt lat="43.65124" lon="3.33147">
        <ele>196.2</ele>
        <time>2026-05-17T12:27:03.999Z</time>
      </trkpt>
      <trkpt lat="43.65124" lon="3.33145">
        <ele>196.6</ele>
        <time>2026-05-17T12:27:04.999Z</time>
      </trkpt>
      <trkpt lat="43.65124" lon="3.33144">
        <ele>196.6</ele>
        <time>2026-05-17T12:27:05.999Z</time>
      </trkpt>
      <trkpt lat="43.65124" lon="3.33144">
        <ele>196.4</ele>
        <time>2026-05-17T12:27:06.999Z</time>
      </trkpt>
      <trkpt lat="43.65124" lon="3.33142">
        <ele>196.4</ele>
        <time>2026-05-17T12:27:07.999Z</time>
      </trkpt>
      <trkpt lat="43.65124" lon="3.33141">
        <ele>197</ele>
        <time>2026-05-17T12:27:08.999Z</time>
      </trkpt>
      <trkpt lat="43.65124" lon="3.33139">
        <ele>197.3</ele>
        <time>2026-05-17T12:27:09.999Z</time>
      </trkpt>
      <trkpt lat="43.65125" lon="3.33137">
        <ele>197.2</ele>
        <time>2026-05-17T12:27:10.999Z</time>
      </trkpt>
      <trkpt lat="43.65125" lon="3.33135">
        <ele>197.3</ele>
        <time>2026-05-17T12:27:11.999Z</time>
      </trkpt>
      <trkpt lat="43.65126" lon="3.33133">
        <ele>197.3</ele>
        <time>2026-05-17T12:27:12.999Z</time>
      </trkpt>
      <trkpt lat="43.65126" lon="3.33131">
        <ele>197.3</ele>
        <time>2026-05-17T12:27:13.999Z</time>
      </trkpt>
      <trkpt lat="43.65126" lon="3.33127">
        <ele>197</ele>
        <time>2026-05-17T12:27:14.999Z</time>
      </trkpt>
      <trkpt lat="43.65125" lon="3.33124">
        <ele>196.9</ele>
        <time>2026-05-17T12:27:15.999Z</time>
      </trkpt>
      <trkpt lat="43.65125" lon="3.33122">
        <ele>197</ele>
        <time>2026-05-17T12:27:16.999Z</time>
      </trkpt>
      <trkpt lat="43.65125" lon="3.3312">
        <ele>196.8</ele>
        <time>2026-05-17T12:27:17.999Z</time>
      </trkpt>
      <trkpt lat="43.65126" lon="3.33118">
        <ele>196.5</ele>
        <time>2026-05-17T12:27:18.999Z</time>
      </trkpt>
      <trkpt lat="43.65126" lon="3.33116">
        <ele>196.1</ele>
        <time>2026-05-17T12:27:19.999Z</time>
      </trkpt>
      <trkpt lat="43.65126" lon="3.33114">
        <ele>195.6</ele>
        <time>2026-05-17T12:27:20.999Z</time>
      </trkpt>
      <trkpt lat="43.65126" lon="3.33112">
        <ele>195.1</ele>
        <time>2026-05-17T12:27:21.999Z</time>
      </trkpt>
      <trkpt lat="43.65126" lon="3.3311">
        <ele>194.9</ele>
        <time>2026-05-17T12:27:22.999Z</time>
      </trkpt>
      <trkpt lat="43.65126" lon="3.33107">
        <ele>194.7</ele>
        <time>2026-05-17T12:27:23.999Z</time>
      </trkpt>
      <trkpt lat="43.65125" lon="3.33104">
        <ele>194.7</ele>
        <time>2026-05-17T12:27:24.999Z</time>
      </trkpt>
      <trkpt lat="43.65125" lon="3.331">
        <ele>194.4</ele>
        <time>2026-05-17T12:27:25.999Z</time>
      </trkpt>
      <trkpt lat="43.65124" lon="3.33098">
        <ele>194.1</ele>
        <time>2026-05-17T12:27:26.999Z</time>
      </trkpt>
      <trkpt lat="43.65124" lon="3.33095">
        <ele>193.7</ele>
        <time>2026-05-17T12:27:27.999Z</time>
      </trkpt>
      <trkpt lat="43.65123" lon="3.33092">
        <ele>193.4</ele>
        <time>2026-05-17T12:27:28.999Z</time>
      </trkpt>
      <trkpt lat="43.65122" lon="3.33091">
        <ele>193</ele>
        <time>2026-05-17T12:27:29.999Z</time>
      </trkpt>
      <trkpt lat="43.65122" lon="3.3309">
        <ele>192.7</ele>
        <time>2026-05-17T12:27:30.999Z</time>
      </trkpt>
      <trkpt lat="43.65121" lon="3.33088">
        <ele>192.5</ele>
        <time>2026-05-17T12:27:31.999Z</time>
      </trkpt>
      <trkpt lat="43.65121" lon="3.33088">
        <ele>192.1</ele>
        <time>2026-05-17T12:27:32.999Z</time>
      </trkpt>
      <trkpt lat="43.65121" lon="3.33087">
        <ele>191.8</ele>
        <time>2026-05-17T12:27:33.999Z</time>
      </trkpt>
      <trkpt lat="43.65121" lon="3.33086">
        <ele>191.8</ele>
        <time>2026-05-17T12:27:34.999Z</time>
      </trkpt>
      <trkpt lat="43.65121" lon="3.33086">
        <ele>191.9</ele>
        <time>2026-05-17T12:27:35.999Z</time>
      </trkpt>
      <trkpt lat="43.65121" lon="3.33085">
        <ele>191.5</ele>
        <time>2026-05-17T12:27:36.999Z</time>
      </trkpt>
      <trkpt lat="43.65121" lon="3.33084">
        <ele>191.6</ele>
        <time>2026-05-17T12:27:37.999Z</time>
      </trkpt>
      <trkpt lat="43.65121" lon="3.33084">
        <ele>191.8</ele>
        <time>2026-05-17T12:27:38.999Z</time>
      </trkpt>
      <trkpt lat="43.65121" lon="3.33083">
        <ele>191.2</ele>
        <time>2026-05-17T12:27:39.999Z</time>
      </trkpt>
      <trkpt lat="43.6512" lon="3.33082">
        <ele>191.6</ele>
        <time>2026-05-17T12:27:40.999Z</time>
      </trkpt>
      <trkpt lat="43.65119" lon="3.33082">
        <ele>191.9</ele>
        <time>2026-05-17T12:27:41.999Z</time>
      </trkpt>
      <trkpt lat="43.65118" lon="3.33082">
        <ele>191.9</ele>
        <time>2026-05-17T12:27:42.999Z</time>
      </trkpt>
      <trkpt lat="43.65118" lon="3.33083">
        <ele>191.6</ele>
        <time>2026-05-17T12:27:43.999Z</time>
      </trkpt>
      <trkpt lat="43.65118" lon="3.33082">
        <ele>192.9</ele>
        <time>2026-05-17T12:27:44.999Z</time>
      </trkpt>
      <trkpt lat="43.65118" lon="3.33082">
        <ele>192.9</ele>
        <time>2026-05-17T12:27:45.999Z</time>
      </trkpt>
      <trkpt lat="43.65118" lon="3.33081">
        <ele>192.8</ele>
        <time>2026-05-17T12:27:46.999Z</time>
      </trkpt>
      <trkpt lat="43.65118" lon="3.33081">
        <ele>193</ele>
        <time>2026-05-17T12:27:47.999Z</time>
      </trkpt>
      <trkpt lat="43.65118" lon="3.33081">
        <ele>193.2</ele>
        <time>2026-05-17T12:27:48.999Z</time>
      </trkpt>
      <trkpt lat="43.65118" lon="3.33081">
        <ele>193.4</ele>
        <time>2026-05-17T12:27:49.999Z</time>
      </trkpt>
      <trkpt lat="43.65118" lon="3.33081">
        <ele>193.5</ele>
        <time>2026-05-17T12:27:50.999Z</time>
      </trkpt>
      <trkpt lat="43.65118" lon="3.33081">
        <ele>193.4</ele>
        <time>2026-05-17T12:27:51.999Z</time>
      </trkpt>
      <trkpt lat="43.65118" lon="3.33081">
        <ele>193.1</ele>
        <time>2026-05-17T12:27:52.999Z</time>
      </trkpt>
      <trkpt lat="43.65118" lon="3.33081">
        <ele>192.8</ele>
        <time>2026-05-17T12:27:53.999Z</time>
      </trkpt>
      <trkpt lat="43.65119" lon="3.33081">
        <ele>192.4</ele>
        <time>2026-05-17T12:27:54.999Z</time>
      </trkpt>
      <trkpt lat="43.65118" lon="3.3308">
        <ele>192.6</ele>
        <time>2026-05-17T12:27:55.999Z</time>
      </trkpt>
      <trkpt lat="43.65118" lon="3.3308">
        <ele>192.1</ele>
        <time>2026-05-17T12:27:56.999Z</time>
      </trkpt>
      <trkpt lat="43.65119" lon="3.3308">
        <ele>191.7</ele>
        <time>2026-05-17T12:27:57.999Z</time>
      </trkpt>
      <trkpt lat="43.6512" lon="3.3308">
        <ele>191.3</ele>
        <time>2026-05-17T12:27:58.999Z</time>
      </trkpt>
      <trkpt lat="43.6512" lon="3.33081">
        <ele>191</ele>
        <time>2026-05-17T12:27:59.999Z</time>
      </trkpt>
      <trkpt lat="43.6512" lon="3.33081">
        <ele>190.6</ele>
        <time>2026-05-17T12:28:00.999Z</time>
      </trkpt>
      <trkpt lat="43.6512" lon="3.33081">
        <ele>191.5</ele>
        <time>2026-05-17T12:28:01.999Z</time>
      </trkpt>
      <trkpt lat="43.6512" lon="3.33081">
        <ele>191.6</ele>
        <time>2026-05-17T12:28:02.999Z</time>
      </trkpt>
      <trkpt lat="43.6512" lon="3.33081">
        <ele>191.2</ele>
        <time>2026-05-17T12:28:03.999Z</time>
      </trkpt>
      <trkpt lat="43.6512" lon="3.33081">
        <ele>190.8</ele>
        <time>2026-05-17T12:28:04.999Z</time>
      </trkpt>
      <trkpt lat="43.6512" lon="3.33081">
        <ele>190.3</ele>
        <time>2026-05-17T12:28:05.999Z</time>
      </trkpt>
      <trkpt lat="43.6512" lon="3.33081">
        <ele>190.1</ele>
        <time>2026-05-17T12:28:06.999Z</time>
      </trkpt>
      <trkpt lat="43.6512" lon="3.33081">
        <ele>189.9</ele>
        <time>2026-05-17T12:28:07.999Z</time>
      </trkpt>
      <trkpt lat="43.6512" lon="3.33081">
        <ele>189.8</ele>
        <time>2026-05-17T12:28:08.999Z</time>
      </trkpt>
      <trkpt lat="43.6512" lon="3.33081">
        <ele>189.5</ele>
        <time>2026-05-17T12:28:09.999Z</time>
      </trkpt>
      <trkpt lat="43.6512" lon="3.33081">
        <ele>189.3</ele>
        <time>2026-05-17T12:28:10.999Z</time>
      </trkpt>
      <trkpt lat="43.6512" lon="3.33081">
        <ele>189.1</ele>
        <time>2026-05-17T12:28:11.999Z</time>
      </trkpt>
      <trkpt lat="43.6512" lon="3.33081">
        <ele>189</ele>
        <time>2026-05-17T12:28:12.999Z</time>
      </trkpt>
      <trkpt lat="43.6512" lon="3.33081">
        <ele>189</ele>
        <time>2026-05-17T12:28:13.999Z</time>
      </trkpt>
      <trkpt lat="43.6512" lon="3.33081">
        <ele>189.3</ele>
        <time>2026-05-17T12:28:14.999Z</time>
      </trkpt>
      <trkpt lat="43.6512" lon="3.33081">
        <ele>189.3</ele>
        <time>2026-05-17T12:28:15.999Z</time>
      </trkpt>
      <trkpt lat="43.6512" lon="3.33081">
        <ele>189.3</ele>
        <time>2026-05-17T12:28:16.999Z</time>
      </trkpt>
      <trkpt lat="43.6512" lon="3.33081">
        <ele>188.9</ele>
        <time>2026-05-17T12:28:17.999Z</time>
      </trkpt>
      <trkpt lat="43.6512" lon="3.33081">
        <ele>188.8</ele>
        <time>2026-05-17T12:28:18.999Z</time>
      </trkpt>
      <trkpt lat="43.6512" lon="3.33081">
        <ele>189</ele>
        <time>2026-05-17T12:28:19.999Z</time>
      </trkpt>
      <trkpt lat="43.6512" lon="3.33081">
        <ele>189.1</ele>
        <time>2026-05-17T12:28:20.999Z</time>
      </trkpt>
      <trkpt lat="43.6512" lon="3.33081">
        <ele>189.3</ele>
        <time>2026-05-17T12:28:21.999Z</time>
      </trkpt>
      <trkpt lat="43.6512" lon="3.33081">
        <ele>189.4</ele>
        <time>2026-05-17T12:28:22.999Z</time>
      </trkpt>
      <trkpt lat="43.6512" lon="3.33081">
        <ele>189.2</ele>
        <time>2026-05-17T12:28:23.999Z</time>
      </trkpt>
      <trkpt lat="43.6512" lon="3.33081">
        <ele>189</ele>
        <time>2026-05-17T12:28:24.999Z</time>
      </trkpt>
      <trkpt lat="43.65121" lon="3.33081">
        <ele>188.9</ele>
        <time>2026-05-17T12:28:25.999Z</time>
      </trkpt>
      <trkpt lat="43.65121" lon="3.33081">
        <ele>188.7</ele>
        <time>2026-05-17T12:28:26.999Z</time>
      </trkpt>
      <trkpt lat="43.6512" lon="3.33081">
        <ele>188.7</ele>
        <time>2026-05-17T12:28:27.999Z</time>
      </trkpt>
      <trkpt lat="43.6512" lon="3.33081">
        <ele>188.9</ele>
        <time>2026-05-17T12:28:28.999Z</time>
      </trkpt>
      <trkpt lat="43.65121" lon="3.33081">
        <ele>189.1</ele>
        <time>2026-05-17T12:28:29.999Z</time>
      </trkpt>
      <trkpt lat="43.6512" lon="3.33081">
        <ele>189.6</ele>
        <time>2026-05-17T12:28:30.999Z</time>
      </trkpt>
      <trkpt lat="43.6512" lon="3.33081">
        <ele>190.5</ele>
        <time>2026-05-17T12:28:31.999Z</time>
      </trkpt>
      <trkpt lat="43.6512" lon="3.33081">
        <ele>191.3</ele>
        <time>2026-05-17T12:28:32.999Z</time>
      </trkpt>
      <trkpt lat="43.65121" lon="3.33081">
        <ele>191.7</ele>
        <time>2026-05-17T12:28:33.999Z</time>
      </trkpt>
      <trkpt lat="43.65121" lon="3.33081">
        <ele>192.3</ele>
        <time>2026-05-17T12:28:34.999Z</time>
      </trkpt>
      <trkpt lat="43.65121" lon="3.33081">
        <ele>192.6</ele>
        <time>2026-05-17T12:28:35.999Z</time>
      </trkpt>
      <trkpt lat="43.65121" lon="3.33081">
        <ele>193.1</ele>
        <time>2026-05-17T12:28:36.999Z</time>
      </trkpt>
      <trkpt lat="43.65121" lon="3.33081">
        <ele>193.5</ele>
        <time>2026-05-17T12:28:38.000Z</time>
      </trkpt>
      <trkpt lat="43.65121" lon="3.33081">
        <ele>193.8</ele>
        <time>2026-05-17T12:28:39.000Z</time>
      </trkpt>
      <trkpt lat="43.65121" lon="3.33081">
        <ele>194.2</ele>
        <time>2026-05-17T12:28:40.000Z</time>
      </trkpt>
      <trkpt lat="43.65121" lon="3.33081">
        <ele>194.3</ele>
        <time>2026-05-17T12:28:41.000Z</time>
      </trkpt>
      <trkpt lat="43.65121" lon="3.33081">
        <ele>194.4</ele>
        <time>2026-05-17T12:28:42.000Z</time>
      </trkpt>
      <trkpt lat="43.65121" lon="3.33081">
        <ele>194.7</ele>
        <time>2026-05-17T12:28:43.000Z</time>
      </trkpt>
      <trkpt lat="43.65121" lon="3.33081">
        <ele>194.8</ele>
        <time>2026-05-17T12:28:44.000Z</time>
      </trkpt>
      <trkpt lat="43.65121" lon="3.33081">
        <ele>194.7</ele>
        <time>2026-05-17T12:28:45.000Z</time>
      </trkpt>
      <trkpt lat="43.65121" lon="3.33081">
        <ele>194.6</ele>
        <time>2026-05-17T12:28:46.000Z</time>
      </trkpt>
      <trkpt lat="43.65121" lon="3.33081">
        <ele>194.6</ele>
        <time>2026-05-17T12:28:47.000Z</time>
      </trkpt>
      <trkpt lat="43.65121" lon="3.33081">
        <ele>194.6</ele>
        <time>2026-05-17T12:28:48.000Z</time>
      </trkpt>
      <trkpt lat="43.65121" lon="3.33081">
        <ele>194.8</ele>
        <time>2026-05-17T12:28:49.000Z</time>
      </trkpt>
      <trkpt lat="43.65121" lon="3.33081">
        <ele>195</ele>
        <time>2026-05-17T12:28:50.000Z</time>
      </trkpt>
      <trkpt lat="43.65121" lon="3.33081">
        <ele>194.7</ele>
        <time>2026-05-17T12:28:51.000Z</time>
      </trkpt>
      <trkpt lat="43.65121" lon="3.33081">
        <ele>194.8</ele>
        <time>2026-05-17T12:28:52.000Z</time>
      </trkpt>
      <trkpt lat="43.65121" lon="3.33081">
        <ele>194.9</ele>
        <time>2026-05-17T12:28:53.000Z</time>
      </trkpt>
      <trkpt lat="43.65121" lon="3.33081">
        <ele>194.8</ele>
        <time>2026-05-17T12:28:54.000Z</time>
      </trkpt>
      <trkpt lat="43.65121" lon="3.33081">
        <ele>194.5</ele>
        <time>2026-05-17T12:28:55.000Z</time>
      </trkpt>
      <trkpt lat="43.65121" lon="3.33081">
        <ele>194.8</ele>
        <time>2026-05-17T12:28:56.000Z</time>
      </trkpt>
      <trkpt lat="43.65121" lon="3.33081">
        <ele>194.9</ele>
        <time>2026-05-17T12:28:57.000Z</time>
      </trkpt>
      <trkpt lat="43.65122" lon="3.33081">
        <ele>195.1</ele>
        <time>2026-05-17T12:28:58.000Z</time>
      </trkpt>
      <trkpt lat="43.65122" lon="3.33081">
        <ele>195.2</ele>
        <time>2026-05-17T12:28:59.000Z</time>
      </trkpt>
      <trkpt lat="43.65122" lon="3.33081">
        <ele>195.3</ele>
        <time>2026-05-17T12:29:00.000Z</time>
      </trkpt>
      <trkpt lat="43.65122" lon="3.33081">
        <ele>195.5</ele>
        <time>2026-05-17T12:29:01.000Z</time>
      </trkpt>
      <trkpt lat="43.65122" lon="3.33081">
        <ele>196</ele>
        <time>2026-05-17T12:29:02.000Z</time>
      </trkpt>
      <trkpt lat="43.65122" lon="3.33081">
        <ele>196.6</ele>
        <time>2026-05-17T12:29:03.000Z</time>
      </trkpt>
      <trkpt lat="43.65122" lon="3.33081">
        <ele>197.1</ele>
        <time>2026-05-17T12:29:04.000Z</time>
      </trkpt>
      <trkpt lat="43.65122" lon="3.33081">
        <ele>197.4</ele>
        <time>2026-05-17T12:29:05.000Z</time>
      </trkpt>
      <trkpt lat="43.65122" lon="3.33082">
        <ele>197.9</ele>
        <time>2026-05-17T12:29:06.000Z</time>
      </trkpt>
      <trkpt lat="43.65122" lon="3.33082">
        <ele>198.3</ele>
        <time>2026-05-17T12:29:07.000Z</time>
      </trkpt>
      <trkpt lat="43.65122" lon="3.33082">
        <ele>198.5</ele>
        <time>2026-05-17T12:29:08.000Z</time>
      </trkpt>
      <trkpt lat="43.65122" lon="3.33082">
        <ele>198.6</ele>
        <time>2026-05-17T12:29:09.000Z</time>
      </trkpt>
      <trkpt lat="43.65122" lon="3.33082">
        <ele>198.8</ele>
        <time>2026-05-17T12:29:10.000Z</time>
      </trkpt>
      <trkpt lat="43.65122" lon="3.33082">
        <ele>199</ele>
        <time>2026-05-17T12:29:11.000Z</time>
      </trkpt>
      <trkpt lat="43.65122" lon="3.33082">
        <ele>199.2</ele>
        <time>2026-05-17T12:29:12.000Z</time>
      </trkpt>
      <trkpt lat="43.65122" lon="3.33082">
        <ele>199.4</ele>
        <time>2026-05-17T12:29:13.000Z</time>
      </trkpt>
      <trkpt lat="43.65122" lon="3.33082">
        <ele>199.4</ele>
        <time>2026-05-17T12:29:14.000Z</time>
      </trkpt>
      <trkpt lat="43.65122" lon="3.33082">
        <ele>199.4</ele>
        <time>2026-05-17T12:29:15.000Z</time>
      </trkpt>
      <trkpt lat="43.65122" lon="3.33082">
        <ele>199.4</ele>
        <time>2026-05-17T12:29:16.000Z</time>
      </trkpt>
      <trkpt lat="43.65122" lon="3.33082">
        <ele>199.4</ele>
        <time>2026-05-17T12:29:17.000Z</time>
      </trkpt>
      <trkpt lat="43.65122" lon="3.33082">
        <ele>199.5</ele>
        <time>2026-05-17T12:29:18.000Z</time>
      </trkpt>
      <trkpt lat="43.65122" lon="3.33082">
        <ele>199.7</ele>
        <time>2026-05-17T12:29:19.000Z</time>
      </trkpt>
      <trkpt lat="43.65122" lon="3.33082">
        <ele>199.8</ele>
        <time>2026-05-17T12:29:20.000Z</time>
      </trkpt>
      <trkpt lat="43.65122" lon="3.33082">
        <ele>199.9</ele>
        <time>2026-05-17T12:29:21.000Z</time>
      </trkpt>
      <trkpt lat="43.65122" lon="3.33082">
        <ele>199.9</ele>
        <time>2026-05-17T12:29:22.000Z</time>
      </trkpt>
      <trkpt lat="43.65122" lon="3.33082">
        <ele>199.6</ele>
        <time>2026-05-17T12:29:23.000Z</time>
      </trkpt>
      <trkpt lat="43.65122" lon="3.33082">
        <ele>199.6</ele>
        <time>2026-05-17T12:29:24.000Z</time>
      </trkpt>
      <trkpt lat="43.65122" lon="3.33083">
        <ele>199.7</ele>
        <time>2026-05-17T12:29:25.000Z</time>
      </trkpt>
      <trkpt lat="43.65122" lon="3.33083">
        <ele>199.8</ele>
        <time>2026-05-17T12:29:26.000Z</time>
      </trkpt>
      <trkpt lat="43.65122" lon="3.33083">
        <ele>199.9</ele>
        <time>2026-05-17T12:29:27.000Z</time>
      </trkpt>
      <trkpt lat="43.65122" lon="3.33083">
        <ele>199.9</ele>
        <time>2026-05-17T12:29:28.000Z</time>
      </trkpt>
      <trkpt lat="43.65122" lon="3.33083">
        <ele>199.8</ele>
        <time>2026-05-17T12:29:29.000Z</time>
      </trkpt>
      <trkpt lat="43.65122" lon="3.33083">
        <ele>200</ele>
        <time>2026-05-17T12:29:30.000Z</time>
      </trkpt>
      <trkpt lat="43.65122" lon="3.33083">
        <ele>200.3</ele>
        <time>2026-05-17T12:29:31.000Z</time>
      </trkpt>
      <trkpt lat="43.65122" lon="3.33083">
        <ele>200.7</ele>
        <time>2026-05-17T12:29:32.000Z</time>
      </trkpt>
      <trkpt lat="43.65122" lon="3.33083">
        <ele>200.9</ele>
        <time>2026-05-17T12:29:33.000Z</time>
      </trkpt>
      <trkpt lat="43.65122" lon="3.33083">
        <ele>200.9</ele>
        <time>2026-05-17T12:29:34.000Z</time>
      </trkpt>
      <trkpt lat="43.65122" lon="3.33084">
        <ele>200.9</ele>
        <time>2026-05-17T12:29:35.000Z</time>
      </trkpt>
      <trkpt lat="43.65122" lon="3.33084">
        <ele>200.6</ele>
        <time>2026-05-17T12:29:36.000Z</time>
      </trkpt>
      <trkpt lat="43.65122" lon="3.33084">
        <ele>200.2</ele>
        <time>2026-05-17T12:29:37.000Z</time>
      </trkpt>
      <trkpt lat="43.65122" lon="3.33084">
        <ele>200.1</ele>
        <time>2026-05-17T12:29:38.000Z</time>
      </trkpt>
      <trkpt lat="43.65121" lon="3.33084">
        <ele>199.9</ele>
        <time>2026-05-17T12:29:39.000Z</time>
      </trkpt>
      <trkpt lat="43.65121" lon="3.33084">
        <ele>199.9</ele>
        <time>2026-05-17T12:29:40.000Z</time>
      </trkpt>
      <trkpt lat="43.65121" lon="3.33083">
        <ele>199.9</ele>
        <time>2026-05-17T12:29:41.000Z</time>
      </trkpt>
      <trkpt lat="43.6512" lon="3.33083">
        <ele>201.1</ele>
        <time>2026-05-17T12:29:42.000Z</time>
      </trkpt>
      <trkpt lat="43.6512" lon="3.33083">
        <ele>201.3</ele>
        <time>2026-05-17T12:29:43.000Z</time>
      </trkpt>
      <trkpt lat="43.65119" lon="3.33083">
        <ele>201.5</ele>
        <time>2026-05-17T12:29:44.000Z</time>
      </trkpt>
      <trkpt lat="43.65119" lon="3.33082">
        <ele>201.7</ele>
        <time>2026-05-17T12:29:45.000Z</time>
      </trkpt>
      <trkpt lat="43.65118" lon="3.33081">
        <ele>201.6</ele>
        <time>2026-05-17T12:29:46.000Z</time>
      </trkpt>
      <trkpt lat="43.65118" lon="3.3308">
        <ele>201.5</ele>
        <time>2026-05-17T12:29:47.000Z</time>
      </trkpt>
      <trkpt lat="43.65119" lon="3.3308">
        <ele>200.2</ele>
        <time>2026-05-17T12:29:49.000Z</time>
      </trkpt>
      <trkpt lat="43.65119" lon="3.3308">
        <ele>198.8</ele>
        <time>2026-05-17T12:29:50.000Z</time>
      </trkpt>
      <trkpt lat="43.65119" lon="3.3308">
        <ele>198.6</ele>
        <time>2026-05-17T12:29:51.000Z</time>
      </trkpt>
      <trkpt lat="43.65119" lon="3.3308">
        <ele>198.5</ele>
        <time>2026-05-17T12:29:52.000Z</time>
      </trkpt>
      <trkpt lat="43.65119" lon="3.3308">
        <ele>198.3</ele>
        <time>2026-05-17T12:29:53.000Z</time>
      </trkpt>
      <trkpt lat="43.65119" lon="3.3308">
        <ele>198.1</ele>
        <time>2026-05-17T12:29:54.000Z</time>
      </trkpt>
      <trkpt lat="43.65119" lon="3.3308">
        <ele>197.9</ele>
        <time>2026-05-17T12:29:55.000Z</time>
      </trkpt>
      <trkpt lat="43.65119" lon="3.3308">
        <ele>197.6</ele>
        <time>2026-05-17T12:29:56.000Z</time>
      </trkpt>
      <trkpt lat="43.65119" lon="3.3308">
        <ele>197.3</ele>
        <time>2026-05-17T12:29:57.000Z</time>
      </trkpt>
      <trkpt lat="43.65119" lon="3.3308">
        <ele>197.6</ele>
        <time>2026-05-17T12:29:58.000Z</time>
      </trkpt>
      <trkpt lat="43.65119" lon="3.3308">
        <ele>197.6</ele>
        <time>2026-05-17T12:29:59.000Z</time>
      </trkpt>
      <trkpt lat="43.6512" lon="3.3308">
        <ele>197.8</ele>
        <time>2026-05-17T12:30:00.000Z</time>
      </trkpt>
      <trkpt lat="43.6512" lon="3.3308">
        <ele>197.8</ele>
        <time>2026-05-17T12:30:01.000Z</time>
      </trkpt>
      <trkpt lat="43.6512" lon="3.33079">
        <ele>197.6</ele>
        <time>2026-05-17T12:30:02.000Z</time>
      </trkpt>
      <trkpt lat="43.6512" lon="3.33079">
        <ele>197.7</ele>
        <time>2026-05-17T12:30:03.000Z</time>
      </trkpt>
      <trkpt lat="43.6512" lon="3.33078">
        <ele>197.6</ele>
        <time>2026-05-17T12:30:04.000Z</time>
      </trkpt>
      <trkpt lat="43.65119" lon="3.33078">
        <ele>197.5</ele>
        <time>2026-05-17T12:30:05.000Z</time>
      </trkpt>
      <trkpt lat="43.65119" lon="3.33078">
        <ele>197.4</ele>
        <time>2026-05-17T12:30:06.000Z</time>
      </trkpt>
      <trkpt lat="43.65119" lon="3.33078">
        <ele>196.9</ele>
        <time>2026-05-17T12:30:07.000Z</time>
      </trkpt>
      <trkpt lat="43.65119" lon="3.33076">
        <ele>196.7</ele>
        <time>2026-05-17T12:30:08.000Z</time>
      </trkpt>
      <trkpt lat="43.65119" lon="3.33075">
        <ele>196.5</ele>
        <time>2026-05-17T12:30:09.000Z</time>
      </trkpt>
      <trkpt lat="43.65119" lon="3.33073">
        <ele>196.4</ele>
        <time>2026-05-17T12:30:10.000Z</time>
      </trkpt>
      <trkpt lat="43.65119" lon="3.33071">
        <ele>196.5</ele>
        <time>2026-05-17T12:30:11.000Z</time>
      </trkpt>
      <trkpt lat="43.65119" lon="3.33069">
        <ele>196.4</ele>
        <time>2026-05-17T12:30:12.000Z</time>
      </trkpt>
      <trkpt lat="43.65118" lon="3.33068">
        <ele>196.3</ele>
        <time>2026-05-17T12:30:13.000Z</time>
      </trkpt>
      <trkpt lat="43.65118" lon="3.33067">
        <ele>196.1</ele>
        <time>2026-05-17T12:30:14.000Z</time>
      </trkpt>
      <trkpt lat="43.65118" lon="3.33067">
        <ele>196</ele>
        <time>2026-05-17T12:30:15.000Z</time>
      </trkpt>
      <trkpt lat="43.65117" lon="3.33066">
        <ele>196.1</ele>
        <time>2026-05-17T12:30:16.000Z</time>
      </trkpt>
      <trkpt lat="43.65117" lon="3.33065">
        <ele>196.2</ele>
        <time>2026-05-17T12:30:17.000Z</time>
      </trkpt>
      <trkpt lat="43.65117" lon="3.33063">
        <ele>196.1</ele>
        <time>2026-05-17T12:30:18.000Z</time>
      </trkpt>
      <trkpt lat="43.65116" lon="3.33062">
        <ele>196.2</ele>
        <time>2026-05-17T12:30:19.000Z</time>
      </trkpt>
      <trkpt lat="43.65116" lon="3.33061">
        <ele>196.1</ele>
        <time>2026-05-17T12:30:20.000Z</time>
      </trkpt>
      <trkpt lat="43.65116" lon="3.3306">
        <ele>196</ele>
        <time>2026-05-17T12:30:21.000Z</time>
      </trkpt>
      <trkpt lat="43.65116" lon="3.3306">
        <ele>195.9</ele>
        <time>2026-05-17T12:30:22.000Z</time>
      </trkpt>
      <trkpt lat="43.65116" lon="3.33059">
        <ele>195.9</ele>
        <time>2026-05-17T12:30:23.000Z</time>
      </trkpt>
      <trkpt lat="43.65116" lon="3.33057">
        <ele>196.1</ele>
        <time>2026-05-17T12:30:24.000Z</time>
      </trkpt>
      <trkpt lat="43.65115" lon="3.33056">
        <ele>196</ele>
        <time>2026-05-17T12:30:25.000Z</time>
      </trkpt>
      <trkpt lat="43.65115" lon="3.33055">
        <ele>196.2</ele>
        <time>2026-05-17T12:30:26.000Z</time>
      </trkpt>
      <trkpt lat="43.65114" lon="3.33055">
        <ele>196.1</ele>
        <time>2026-05-17T12:30:27.000Z</time>
      </trkpt>
      <trkpt lat="43.65114" lon="3.33054">
        <ele>195.9</ele>
        <time>2026-05-17T12:30:28.000Z</time>
      </trkpt>
      <trkpt lat="43.65114" lon="3.33054">
        <ele>195.9</ele>
        <time>2026-05-17T12:30:29.000Z</time>
      </trkpt>
      <trkpt lat="43.65113" lon="3.33054">
        <ele>196.5</ele>
        <time>2026-05-17T12:30:30.000Z</time>
      </trkpt>
      <trkpt lat="43.65113" lon="3.33054">
        <ele>196.5</ele>
        <time>2026-05-17T12:30:31.000Z</time>
      </trkpt>
      <trkpt lat="43.65113" lon="3.33054">
        <ele>196.3</ele>
        <time>2026-05-17T12:30:32.000Z</time>
      </trkpt>
      <trkpt lat="43.65113" lon="3.33054">
        <ele>196.3</ele>
        <time>2026-05-17T12:30:33.000Z</time>
      </trkpt>
      <trkpt lat="43.65113" lon="3.33054">
        <ele>196.4</ele>
        <time>2026-05-17T12:30:34.000Z</time>
      </trkpt>
      <trkpt lat="43.65113" lon="3.33053">
        <ele>196.3</ele>
        <time>2026-05-17T12:30:35.000Z</time>
      </trkpt>
      <trkpt lat="43.65113" lon="3.33053">
        <ele>196.3</ele>
        <time>2026-05-17T12:30:36.000Z</time>
      </trkpt>
      <trkpt lat="43.65113" lon="3.33053">
        <ele>196.4</ele>
        <time>2026-05-17T12:30:37.000Z</time>
      </trkpt>
      <trkpt lat="43.65113" lon="3.33053">
        <ele>196.4</ele>
        <time>2026-05-17T12:30:38.000Z</time>
      </trkpt>
      <trkpt lat="43.65112" lon="3.33053">
        <ele>196.2</ele>
        <time>2026-05-17T12:30:39.000Z</time>
      </trkpt>
      <trkpt lat="43.65112" lon="3.33053">
        <ele>196.2</ele>
        <time>2026-05-17T12:30:40.000Z</time>
      </trkpt>
      <trkpt lat="43.65112" lon="3.33053">
        <ele>196.3</ele>
        <time>2026-05-17T12:30:41.000Z</time>
      </trkpt>
      <trkpt lat="43.65111" lon="3.33052">
        <ele>196.5</ele>
        <time>2026-05-17T12:30:42.000Z</time>
      </trkpt>
      <trkpt lat="43.65111" lon="3.33052">
        <ele>196.5</ele>
        <time>2026-05-17T12:30:43.000Z</time>
      </trkpt>
      <trkpt lat="43.65111" lon="3.33052">
        <ele>196.4</ele>
        <time>2026-05-17T12:30:44.000Z</time>
      </trkpt>
      <trkpt lat="43.65111" lon="3.33052">
        <ele>196.6</ele>
        <time>2026-05-17T12:30:45.000Z</time>
      </trkpt>
      <trkpt lat="43.65111" lon="3.33052">
        <ele>196.7</ele>
        <time>2026-05-17T12:30:46.000Z</time>
      </trkpt>
      <trkpt lat="43.65111" lon="3.33052">
        <ele>196.8</ele>
        <time>2026-05-17T12:30:47.000Z</time>
      </trkpt>
      <trkpt lat="43.65111" lon="3.33052">
        <ele>196.7</ele>
        <time>2026-05-17T12:30:48.000Z</time>
      </trkpt>
      <trkpt lat="43.6511" lon="3.33052">
        <ele>196.5</ele>
        <time>2026-05-17T12:30:49.000Z</time>
      </trkpt>
      <trkpt lat="43.6511" lon="3.33052">
        <ele>196.5</ele>
        <time>2026-05-17T12:30:50.000Z</time>
      </trkpt>
      <trkpt lat="43.6511" lon="3.33052">
        <ele>196.4</ele>
        <time>2026-05-17T12:30:51.000Z</time>
      </trkpt>
      <trkpt lat="43.6511" lon="3.33052">
        <ele>196.4</ele>
        <time>2026-05-17T12:30:52.000Z</time>
      </trkpt>
      <trkpt lat="43.6511" lon="3.33052">
        <ele>196.4</ele>
        <time>2026-05-17T12:30:53.000Z</time>
      </trkpt>
      <trkpt lat="43.6511" lon="3.33052">
        <ele>196.4</ele>
        <time>2026-05-17T12:30:54.000Z</time>
      </trkpt>
      <trkpt lat="43.6511" lon="3.33051">
        <ele>196.3</ele>
        <time>2026-05-17T12:30:55.000Z</time>
      </trkpt>
      <trkpt lat="43.6511" lon="3.33051">
        <ele>196.3</ele>
        <time>2026-05-17T12:30:56.000Z</time>
      </trkpt>
      <trkpt lat="43.65109" lon="3.3305">
        <ele>196.2</ele>
        <time>2026-05-17T12:30:57.000Z</time>
      </trkpt>
      <trkpt lat="43.65109" lon="3.33049">
        <ele>196.2</ele>
        <time>2026-05-17T12:30:58.000Z</time>
      </trkpt>
      <trkpt lat="43.65107" lon="3.33047">
        <ele>195.9</ele>
        <time>2026-05-17T12:30:59.000Z</time>
      </trkpt>
      <trkpt lat="43.65107" lon="3.33046">
        <ele>195.6</ele>
        <time>2026-05-17T12:31:00.000Z</time>
      </trkpt>
      <trkpt lat="43.65107" lon="3.33046">
        <ele>195.5</ele>
        <time>2026-05-17T12:31:01.000Z</time>
      </trkpt>
      <trkpt lat="43.65106" lon="3.33045">
        <ele>195.5</ele>
        <time>2026-05-17T12:31:02.000Z</time>
      </trkpt>
      <trkpt lat="43.65106" lon="3.33044">
        <ele>195.5</ele>
        <time>2026-05-17T12:31:03.000Z</time>
      </trkpt>
      <trkpt lat="43.65105" lon="3.33044">
        <ele>195.8</ele>
        <time>2026-05-17T12:31:04.000Z</time>
      </trkpt>
      <trkpt lat="43.65105" lon="3.33043">
        <ele>196.1</ele>
        <time>2026-05-17T12:31:05.000Z</time>
      </trkpt>
      <trkpt lat="43.65104" lon="3.33042">
        <ele>196.5</ele>
        <time>2026-05-17T12:31:06.000Z</time>
      </trkpt>
      <trkpt lat="43.65104" lon="3.33042">
        <ele>196.5</ele>
        <time>2026-05-17T12:31:07.000Z</time>
      </trkpt>
      <trkpt lat="43.65104" lon="3.33042">
        <ele>196.4</ele>
        <time>2026-05-17T12:31:08.000Z</time>
      </trkpt>
      <trkpt lat="43.65103" lon="3.33042">
        <ele>196.4</ele>
        <time>2026-05-17T12:31:09.000Z</time>
      </trkpt>
      <trkpt lat="43.65103" lon="3.33042">
        <ele>196.4</ele>
        <time>2026-05-17T12:31:10.000Z</time>
      </trkpt>
      <trkpt lat="43.65102" lon="3.33041">
        <ele>196.6</ele>
        <time>2026-05-17T12:31:11.000Z</time>
      </trkpt>
      <trkpt lat="43.65102" lon="3.33041">
        <ele>196.7</ele>
        <time>2026-05-17T12:31:12.000Z</time>
      </trkpt>
      <trkpt lat="43.65101" lon="3.3304">
        <ele>196.8</ele>
        <time>2026-05-17T12:31:13.000Z</time>
      </trkpt>
      <trkpt lat="43.65101" lon="3.3304">
        <ele>196.9</ele>
        <time>2026-05-17T12:31:14.000Z</time>
      </trkpt>
      <trkpt lat="43.65101" lon="3.3304">
        <ele>197</ele>
        <time>2026-05-17T12:31:15.000Z</time>
      </trkpt>
      <trkpt lat="43.651" lon="3.33039">
        <ele>197.2</ele>
        <time>2026-05-17T12:31:16.000Z</time>
      </trkpt>
      <trkpt lat="43.651" lon="3.33039">
        <ele>197.5</ele>
        <time>2026-05-17T12:31:17.000Z</time>
      </trkpt>
      <trkpt lat="43.651" lon="3.33037">
        <ele>197.9</ele>
        <time>2026-05-17T12:31:18.000Z</time>
      </trkpt>
      <trkpt lat="43.651" lon="3.33037">
        <ele>198.2</ele>
        <time>2026-05-17T12:31:19.000Z</time>
      </trkpt>
      <trkpt lat="43.651" lon="3.33036">
        <ele>198.6</ele>
        <time>2026-05-17T12:31:20.000Z</time>
      </trkpt>
      <trkpt lat="43.651" lon="3.33035">
        <ele>198.9</ele>
        <time>2026-05-17T12:31:21.000Z</time>
      </trkpt>
      <trkpt lat="43.651" lon="3.33035">
        <ele>199.1</ele>
        <time>2026-05-17T12:31:22.000Z</time>
      </trkpt>
      <trkpt lat="43.651" lon="3.33034">
        <ele>199.3</ele>
        <time>2026-05-17T12:31:23.000Z</time>
      </trkpt>
      <trkpt lat="43.651" lon="3.33033">
        <ele>199.2</ele>
        <time>2026-05-17T12:31:24.000Z</time>
      </trkpt>
      <trkpt lat="43.65099" lon="3.33032">
        <ele>199.4</ele>
        <time>2026-05-17T12:31:25.000Z</time>
      </trkpt>
      <trkpt lat="43.65099" lon="3.33031">
        <ele>199.3</ele>
        <time>2026-05-17T12:31:26.000Z</time>
      </trkpt>
      <trkpt lat="43.65099" lon="3.3303">
        <ele>199.4</ele>
        <time>2026-05-17T12:31:27.000Z</time>
      </trkpt>
      <trkpt lat="43.65099" lon="3.33029">
        <ele>199.5</ele>
        <time>2026-05-17T12:31:28.000Z</time>
      </trkpt>
      <trkpt lat="43.65099" lon="3.3303">
        <ele>199.4</ele>
        <time>2026-05-17T12:31:29.000Z</time>
      </trkpt>
      <trkpt lat="43.65099" lon="3.3303">
        <ele>199.3</ele>
        <time>2026-05-17T12:31:30.000Z</time>
      </trkpt>
      <trkpt lat="43.65099" lon="3.33029">
        <ele>199.4</ele>
        <time>2026-05-17T12:31:31.000Z</time>
      </trkpt>
      <trkpt lat="43.65099" lon="3.33029">
        <ele>199.6</ele>
        <time>2026-05-17T12:31:32.000Z</time>
      </trkpt>
      <trkpt lat="43.65099" lon="3.33029">
        <ele>199.8</ele>
        <time>2026-05-17T12:31:33.000Z</time>
      </trkpt>
      <trkpt lat="43.65099" lon="3.33029">
        <ele>199.9</ele>
        <time>2026-05-17T12:31:34.000Z</time>
      </trkpt>
      <trkpt lat="43.65098" lon="3.33028">
        <ele>199.7</ele>
        <time>2026-05-17T12:31:35.000Z</time>
      </trkpt>
      <trkpt lat="43.65098" lon="3.33027">
        <ele>199.7</ele>
        <time>2026-05-17T12:31:36.000Z</time>
      </trkpt>
      <trkpt lat="43.65098" lon="3.33026">
        <ele>199.8</ele>
        <time>2026-05-17T12:31:37.000Z</time>
      </trkpt>
      <trkpt lat="43.65098" lon="3.33025">
        <ele>199.8</ele>
        <time>2026-05-17T12:31:38.000Z</time>
      </trkpt>
      <trkpt lat="43.65098" lon="3.33025">
        <ele>199.9</ele>
        <time>2026-05-17T12:31:39.000Z</time>
      </trkpt>
      <trkpt lat="43.65098" lon="3.33026">
        <ele>199.9</ele>
        <time>2026-05-17T12:31:40.000Z</time>
      </trkpt>
      <trkpt lat="43.65099" lon="3.33026">
        <ele>199.9</ele>
        <time>2026-05-17T12:31:41.000Z</time>
      </trkpt>
      <trkpt lat="43.65099" lon="3.33026">
        <ele>199.9</ele>
        <time>2026-05-17T12:31:42.000Z</time>
      </trkpt>
      <trkpt lat="43.65099" lon="3.33026">
        <ele>200.1</ele>
        <time>2026-05-17T12:31:43.000Z</time>
      </trkpt>
      <trkpt lat="43.65099" lon="3.33026">
        <ele>200.3</ele>
        <time>2026-05-17T12:31:44.000Z</time>
      </trkpt>
      <trkpt lat="43.65099" lon="3.33026">
        <ele>200.6</ele>
        <time>2026-05-17T12:31:45.000Z</time>
      </trkpt>
      <trkpt lat="43.65099" lon="3.33026">
        <ele>200.8</ele>
        <time>2026-05-17T12:31:46.000Z</time>
      </trkpt>
      <trkpt lat="43.651" lon="3.33026">
        <ele>200.9</ele>
        <time>2026-05-17T12:31:47.000Z</time>
      </trkpt>
      <trkpt lat="43.65101" lon="3.33026">
        <ele>201.1</ele>
        <time>2026-05-17T12:31:48.000Z</time>
      </trkpt>
      <trkpt lat="43.65102" lon="3.33026">
        <ele>201.3</ele>
        <time>2026-05-17T12:31:49.000Z</time>
      </trkpt>
      <trkpt lat="43.65103" lon="3.33026">
        <ele>201.4</ele>
        <time>2026-05-17T12:31:50.000Z</time>
      </trkpt>
      <trkpt lat="43.65103" lon="3.33026">
        <ele>201.3</ele>
        <time>2026-05-17T12:31:51.000Z</time>
      </trkpt>
      <trkpt lat="43.65103" lon="3.33026">
        <ele>201.1</ele>
        <time>2026-05-17T12:31:52.000Z</time>
      </trkpt>
      <trkpt lat="43.65104" lon="3.33026">
        <ele>201.1</ele>
        <time>2026-05-17T12:31:53.000Z</time>
      </trkpt>
      <trkpt lat="43.65104" lon="3.33025">
        <ele>201.1</ele>
        <time>2026-05-17T12:31:54.000Z</time>
      </trkpt>
      <trkpt lat="43.65104" lon="3.33025">
        <ele>201.1</ele>
        <time>2026-05-17T12:31:55.000Z</time>
      </trkpt>
      <trkpt lat="43.65105" lon="3.33025">
        <ele>201.3</ele>
        <time>2026-05-17T12:31:56.000Z</time>
      </trkpt>
      <trkpt lat="43.65105" lon="3.33024">
        <ele>201.1</ele>
        <time>2026-05-17T12:31:57.000Z</time>
      </trkpt>
      <trkpt lat="43.65105" lon="3.33024">
        <ele>201.3</ele>
        <time>2026-05-17T12:31:58.000Z</time>
      </trkpt>
      <trkpt lat="43.65105" lon="3.33024">
        <ele>201.5</ele>
        <time>2026-05-17T12:31:59.000Z</time>
      </trkpt>
      <trkpt lat="43.65106" lon="3.33024">
        <ele>201.4</ele>
        <time>2026-05-17T12:32:00.000Z</time>
      </trkpt>
      <trkpt lat="43.65106" lon="3.33023">
        <ele>201.6</ele>
        <time>2026-05-17T12:32:01.000Z</time>
      </trkpt>
      <trkpt lat="43.65107" lon="3.33023">
        <ele>201.8</ele>
        <time>2026-05-17T12:32:02.000Z</time>
      </trkpt>
      <trkpt lat="43.65107" lon="3.33022">
        <ele>202</ele>
        <time>2026-05-17T12:32:03.000Z</time>
      </trkpt>
      <trkpt lat="43.65108" lon="3.33021">
        <ele>202.2</ele>
        <time>2026-05-17T12:32:04.000Z</time>
      </trkpt>
      <trkpt lat="43.65108" lon="3.33021">
        <ele>202.3</ele>
        <time>2026-05-17T12:32:05.000Z</time>
      </trkpt>
      <trkpt lat="43.65107" lon="3.33021">
        <ele>202.3</ele>
        <time>2026-05-17T12:32:06.000Z</time>
      </trkpt>
      <trkpt lat="43.65107" lon="3.3302">
        <ele>202.2</ele>
        <time>2026-05-17T12:32:07.000Z</time>
      </trkpt>
      <trkpt lat="43.65107" lon="3.33019">
        <ele>202.3</ele>
        <time>2026-05-17T12:32:08.000Z</time>
      </trkpt>
      <trkpt lat="43.65107" lon="3.33018">
        <ele>202.4</ele>
        <time>2026-05-17T12:32:09.000Z</time>
      </trkpt>
      <trkpt lat="43.65107" lon="3.33018">
        <ele>202.3</ele>
        <time>2026-05-17T12:32:10.000Z</time>
      </trkpt>
      <trkpt lat="43.65107" lon="3.33018">
        <ele>202.3</ele>
        <time>2026-05-17T12:32:11.000Z</time>
      </trkpt>
      <trkpt lat="43.65107" lon="3.33018">
        <ele>202.3</ele>
        <time>2026-05-17T12:32:12.000Z</time>
      </trkpt>
      <trkpt lat="43.65107" lon="3.33018">
        <ele>202.4</ele>
        <time>2026-05-17T12:32:13.000Z</time>
      </trkpt>
      <trkpt lat="43.65107" lon="3.33018">
        <ele>202.4</ele>
        <time>2026-05-17T12:32:14.000Z</time>
      </trkpt>
      <trkpt lat="43.65107" lon="3.33018">
        <ele>202.6</ele>
        <time>2026-05-17T12:32:15.000Z</time>
      </trkpt>
      <trkpt lat="43.65107" lon="3.33018">
        <ele>202.6</ele>
        <time>2026-05-17T12:32:16.000Z</time>
      </trkpt>
      <trkpt lat="43.65107" lon="3.33017">
        <ele>202.7</ele>
        <time>2026-05-17T12:32:17.000Z</time>
      </trkpt>
      <trkpt lat="43.65107" lon="3.33017">
        <ele>202.9</ele>
        <time>2026-05-17T12:32:18.000Z</time>
      </trkpt>
      <trkpt lat="43.65107" lon="3.33017">
        <ele>202.9</ele>
        <time>2026-05-17T12:32:19.000Z</time>
      </trkpt>
      <trkpt lat="43.65107" lon="3.33017">
        <ele>202.9</ele>
        <time>2026-05-17T12:32:20.000Z</time>
      </trkpt>
      <trkpt lat="43.65107" lon="3.33017">
        <ele>203</ele>
        <time>2026-05-17T12:32:21.000Z</time>
      </trkpt>
      <trkpt lat="43.65107" lon="3.33017">
        <ele>203.2</ele>
        <time>2026-05-17T12:32:22.000Z</time>
      </trkpt>
      <trkpt lat="43.65107" lon="3.33016">
        <ele>203.5</ele>
        <time>2026-05-17T12:32:23.000Z</time>
      </trkpt>
      <trkpt lat="43.65107" lon="3.33016">
        <ele>203.8</ele>
        <time>2026-05-17T12:32:24.000Z</time>
      </trkpt>
      <trkpt lat="43.65107" lon="3.33015">
        <ele>204</ele>
        <time>2026-05-17T12:32:25.000Z</time>
      </trkpt>
      <trkpt lat="43.65107" lon="3.33015">
        <ele>204.1</ele>
        <time>2026-05-17T12:32:26.000Z</time>
      </trkpt>
      <trkpt lat="43.65107" lon="3.33015">
        <ele>204.2</ele>
        <time>2026-05-17T12:32:27.000Z</time>
      </trkpt>
      <trkpt lat="43.65107" lon="3.33015">
        <ele>204.7</ele>
        <time>2026-05-17T12:32:28.000Z</time>
      </trkpt>
      <trkpt lat="43.65107" lon="3.33015">
        <ele>205</ele>
        <time>2026-05-17T12:32:29.000Z</time>
      </trkpt>
      <trkpt lat="43.65107" lon="3.33015">
        <ele>205.3</ele>
        <time>2026-05-17T12:32:30.000Z</time>
      </trkpt>
      <trkpt lat="43.65107" lon="3.33015">
        <ele>205.4</ele>
        <time>2026-05-17T12:32:31.000Z</time>
      </trkpt>
      <trkpt lat="43.65107" lon="3.33014">
        <ele>205.4</ele>
        <time>2026-05-17T12:32:32.000Z</time>
      </trkpt>
      <trkpt lat="43.65107" lon="3.33014">
        <ele>205.6</ele>
        <time>2026-05-17T12:32:33.000Z</time>
      </trkpt>
      <trkpt lat="43.65107" lon="3.33014">
        <ele>205.8</ele>
        <time>2026-05-17T12:32:34.000Z</time>
      </trkpt>
      <trkpt lat="43.65107" lon="3.33014">
        <ele>205.8</ele>
        <time>2026-05-17T12:32:35.000Z</time>
      </trkpt>
      <trkpt lat="43.65107" lon="3.33013">
        <ele>205.9</ele>
        <time>2026-05-17T12:32:36.000Z</time>
      </trkpt>
      <trkpt lat="43.65107" lon="3.33012">
        <ele>206.1</ele>
        <time>2026-05-17T12:32:37.000Z</time>
      </trkpt>
      <trkpt lat="43.65107" lon="3.33012">
        <ele>206.4</ele>
        <time>2026-05-17T12:32:38.000Z</time>
      </trkpt>
      <trkpt lat="43.65108" lon="3.33012">
        <ele>206.5</ele>
        <time>2026-05-17T12:32:39.000Z</time>
      </trkpt>
      <trkpt lat="43.65109" lon="3.33013">
        <ele>206.9</ele>
        <time>2026-05-17T12:32:40.000Z</time>
      </trkpt>
      <trkpt lat="43.65109" lon="3.33013">
        <ele>207.2</ele>
        <time>2026-05-17T12:32:41.000Z</time>
      </trkpt>
      <trkpt lat="43.65109" lon="3.33014">
        <ele>207.7</ele>
        <time>2026-05-17T12:32:42.000Z</time>
      </trkpt>
      <trkpt lat="43.65109" lon="3.33016">
        <ele>208.1</ele>
        <time>2026-05-17T12:32:43.000Z</time>
      </trkpt>
      <trkpt lat="43.65109" lon="3.33017">
        <ele>208.3</ele>
        <time>2026-05-17T12:32:44.000Z</time>
      </trkpt>
      <trkpt lat="43.65109" lon="3.33017">
        <ele>208.4</ele>
        <time>2026-05-17T12:32:45.000Z</time>
      </trkpt>
      <trkpt lat="43.65108" lon="3.33016">
        <ele>208.4</ele>
        <time>2026-05-17T12:32:46.000Z</time>
      </trkpt>
      <trkpt lat="43.65107" lon="3.33017">
        <ele>209.1</ele>
        <time>2026-05-17T12:32:47.000Z</time>
      </trkpt>
      <trkpt lat="43.65108" lon="3.33017">
        <ele>209.6</ele>
        <time>2026-05-17T12:32:48.000Z</time>
      </trkpt>
      <trkpt lat="43.65108" lon="3.33018">
        <ele>209.9</ele>
        <time>2026-05-17T12:32:49.000Z</time>
      </trkpt>
      <trkpt lat="43.65108" lon="3.33017">
        <ele>209.6</ele>
        <time>2026-05-17T12:32:50.000Z</time>
      </trkpt>
      <trkpt lat="43.65108" lon="3.33016">
        <ele>209.1</ele>
        <time>2026-05-17T12:32:51.000Z</time>
      </trkpt>
      <trkpt lat="43.65109" lon="3.33016">
        <ele>208.9</ele>
        <time>2026-05-17T12:32:52.000Z</time>
      </trkpt>
      <trkpt lat="43.65109" lon="3.33015">
        <ele>208.9</ele>
        <time>2026-05-17T12:32:53.000Z</time>
      </trkpt>
      <trkpt lat="43.65109" lon="3.33015">
        <ele>209</ele>
        <time>2026-05-17T12:32:54.000Z</time>
      </trkpt>
      <trkpt lat="43.65109" lon="3.33016">
        <ele>206.8</ele>
        <time>2026-05-17T12:32:55.000Z</time>
      </trkpt>
      <trkpt lat="43.65109" lon="3.33015">
        <ele>206.5</ele>
        <time>2026-05-17T12:32:56.000Z</time>
      </trkpt>
      <trkpt lat="43.65109" lon="3.33015">
        <ele>206.4</ele>
        <time>2026-05-17T12:32:57.000Z</time>
      </trkpt>
      <trkpt lat="43.65109" lon="3.33015">
        <ele>206.4</ele>
        <time>2026-05-17T12:32:58.000Z</time>
      </trkpt>
      <trkpt lat="43.65109" lon="3.33015">
        <ele>206.3</ele>
        <time>2026-05-17T12:32:59.000Z</time>
      </trkpt>
      <trkpt lat="43.65109" lon="3.33015">
        <ele>206.2</ele>
        <time>2026-05-17T12:33:00.000Z</time>
      </trkpt>
      <trkpt lat="43.65109" lon="3.33015">
        <ele>206.3</ele>
        <time>2026-05-17T12:33:01.000Z</time>
      </trkpt>
      <trkpt lat="43.65109" lon="3.33015">
        <ele>206.6</ele>
        <time>2026-05-17T12:33:02.000Z</time>
      </trkpt>
      <trkpt lat="43.6511" lon="3.33015">
        <ele>206.8</ele>
        <time>2026-05-17T12:33:03.000Z</time>
      </trkpt>
      <trkpt lat="43.6511" lon="3.33015">
        <ele>206.9</ele>
        <time>2026-05-17T12:33:04.000Z</time>
      </trkpt>
      <trkpt lat="43.6511" lon="3.33014">
        <ele>206.9</ele>
        <time>2026-05-17T12:33:05.000Z</time>
      </trkpt>
      <trkpt lat="43.6511" lon="3.33014">
        <ele>207</ele>
        <time>2026-05-17T12:33:06.000Z</time>
      </trkpt>
      <trkpt lat="43.6511" lon="3.33014">
        <ele>206.9</ele>
        <time>2026-05-17T12:33:07.000Z</time>
      </trkpt>
      <trkpt lat="43.65111" lon="3.33014">
        <ele>206.8</ele>
        <time>2026-05-17T12:33:08.000Z</time>
      </trkpt>
      <trkpt lat="43.65111" lon="3.33013">
        <ele>206.7</ele>
        <time>2026-05-17T12:33:09.000Z</time>
      </trkpt>
      <trkpt lat="43.65111" lon="3.33012">
        <ele>206.7</ele>
        <time>2026-05-17T12:33:10.000Z</time>
      </trkpt>
      <trkpt lat="43.65111" lon="3.33012">
        <ele>206.7</ele>
        <time>2026-05-17T12:33:11.000Z</time>
      </trkpt>
      <trkpt lat="43.65111" lon="3.33013">
        <ele>206.6</ele>
        <time>2026-05-17T12:33:12.000Z</time>
      </trkpt>
      <trkpt lat="43.65111" lon="3.33013">
        <ele>206.5</ele>
        <time>2026-05-17T12:33:13.000Z</time>
      </trkpt>
      <trkpt lat="43.65111" lon="3.33015">
        <ele>206.7</ele>
        <time>2026-05-17T12:33:14.000Z</time>
      </trkpt>
      <trkpt lat="43.65111" lon="3.33015">
        <ele>206.9</ele>
        <time>2026-05-17T12:33:15.000Z</time>
      </trkpt>
      <trkpt lat="43.6511" lon="3.33017">
        <ele>207.2</ele>
        <time>2026-05-17T12:33:16.000Z</time>
      </trkpt>
      <trkpt lat="43.6511" lon="3.33018">
        <ele>207.3</ele>
        <time>2026-05-17T12:33:17.000Z</time>
      </trkpt>
      <trkpt lat="43.6511" lon="3.33019">
        <ele>207.5</ele>
        <time>2026-05-17T12:33:18.000Z</time>
      </trkpt>
      <trkpt lat="43.65109" lon="3.3302">
        <ele>207.8</ele>
        <time>2026-05-17T12:33:19.000Z</time>
      </trkpt>
      <trkpt lat="43.65109" lon="3.3302">
        <ele>207.8</ele>
        <time>2026-05-17T12:33:20.000Z</time>
      </trkpt>
      <trkpt lat="43.65109" lon="3.3302">
        <ele>207.9</ele>
        <time>2026-05-17T12:33:21.000Z</time>
      </trkpt>
      <trkpt lat="43.65108" lon="3.33021">
        <ele>208</ele>
        <time>2026-05-17T12:33:22.000Z</time>
      </trkpt>
      <trkpt lat="43.65109" lon="3.3302">
        <ele>208.4</ele>
        <time>2026-05-17T12:33:23.000Z</time>
      </trkpt>
      <trkpt lat="43.65108" lon="3.33021">
        <ele>209.1</ele>
        <time>2026-05-17T12:33:24.000Z</time>
      </trkpt>
      <trkpt lat="43.65108" lon="3.33021">
        <ele>209.8</ele>
        <time>2026-05-17T12:33:25.000Z</time>
      </trkpt>
      <trkpt lat="43.65108" lon="3.33021">
        <ele>208.6</ele>
        <time>2026-05-17T12:33:26.000Z</time>
      </trkpt>
      <trkpt lat="43.65108" lon="3.33021">
        <ele>209.4</ele>
        <time>2026-05-17T12:33:27.000Z</time>
      </trkpt>
      <trkpt lat="43.65108" lon="3.33022">
        <ele>210.1</ele>
        <time>2026-05-17T12:33:28.000Z</time>
      </trkpt>
      <trkpt lat="43.65107" lon="3.33022">
        <ele>210.5</ele>
        <time>2026-05-17T12:33:29.000Z</time>
      </trkpt>
      <trkpt lat="43.65107" lon="3.33022">
        <ele>210.7</ele>
        <time>2026-05-17T12:33:30.000Z</time>
      </trkpt>
      <trkpt lat="43.65107" lon="3.33022">
        <ele>211</ele>
        <time>2026-05-17T12:33:31.000Z</time>
      </trkpt>
      <trkpt lat="43.65107" lon="3.33022">
        <ele>211.1</ele>
        <time>2026-05-17T12:33:32.000Z</time>
      </trkpt>
      <trkpt lat="43.65107" lon="3.33022">
        <ele>211.4</ele>
        <time>2026-05-17T12:33:33.000Z</time>
      </trkpt>
      <trkpt lat="43.65107" lon="3.33021">
        <ele>211.3</ele>
        <time>2026-05-17T12:33:34.000Z</time>
      </trkpt>
      <trkpt lat="43.65107" lon="3.33021">
        <ele>211.3</ele>
        <time>2026-05-17T12:33:35.000Z</time>
      </trkpt>
      <trkpt lat="43.65107" lon="3.33021">
        <ele>211</ele>
        <time>2026-05-17T12:33:36.000Z</time>
      </trkpt>
      <trkpt lat="43.65107" lon="3.33021">
        <ele>210.8</ele>
        <time>2026-05-17T12:33:37.000Z</time>
      </trkpt>
      <trkpt lat="43.65106" lon="3.33022">
        <ele>210.7</ele>
        <time>2026-05-17T12:33:38.000Z</time>
      </trkpt>
      <trkpt lat="43.65105" lon="3.33022">
        <ele>211</ele>
        <time>2026-05-17T12:33:39.000Z</time>
      </trkpt>
      <trkpt lat="43.65104" lon="3.33022">
        <ele>211.4</ele>
        <time>2026-05-17T12:33:40.000Z</time>
      </trkpt>
      <trkpt lat="43.65103" lon="3.33022">
        <ele>211.4</ele>
        <time>2026-05-17T12:33:41.000Z</time>
      </trkpt>
      <trkpt lat="43.65102" lon="3.33022">
        <ele>211.2</ele>
        <time>2026-05-17T12:33:42.000Z</time>
      </trkpt>
      <trkpt lat="43.65101" lon="3.33021">
        <ele>210.6</ele>
        <time>2026-05-17T12:33:43.000Z</time>
      </trkpt>
      <trkpt lat="43.651" lon="3.3302">
        <ele>210.3</ele>
        <time>2026-05-17T12:33:44.000Z</time>
      </trkpt>
      <trkpt lat="43.651" lon="3.3302">
        <ele>210.1</ele>
        <time>2026-05-17T12:33:45.000Z</time>
      </trkpt>
      <trkpt lat="43.65099" lon="3.33019">
        <ele>210.1</ele>
        <time>2026-05-17T12:33:46.000Z</time>
      </trkpt>
      <trkpt lat="43.65099" lon="3.33019">
        <ele>209.9</ele>
        <time>2026-05-17T12:33:48.000Z</time>
      </trkpt>
      <trkpt lat="43.65099" lon="3.33019">
        <ele>209.9</ele>
        <time>2026-05-17T12:33:49.000Z</time>
      </trkpt>
      <trkpt lat="43.65099" lon="3.33019">
        <ele>210.1</ele>
        <time>2026-05-17T12:33:50.000Z</time>
      </trkpt>
      <trkpt lat="43.65101" lon="3.33019">
        <ele>210</ele>
        <time>2026-05-17T12:33:51.000Z</time>
      </trkpt>
      <trkpt lat="43.65103" lon="3.33018">
        <ele>210.1</ele>
        <time>2026-05-17T12:33:52.000Z</time>
      </trkpt>
      <trkpt lat="43.65104" lon="3.33017">
        <ele>210</ele>
        <time>2026-05-17T12:33:53.000Z</time>
      </trkpt>
      <trkpt lat="43.65105" lon="3.33017">
        <ele>210.1</ele>
        <time>2026-05-17T12:33:54.000Z</time>
      </trkpt>
      <trkpt lat="43.65106" lon="3.33017">
        <ele>209.8</ele>
        <time>2026-05-17T12:33:55.000Z</time>
      </trkpt>
      <trkpt lat="43.65107" lon="3.33017">
        <ele>209.4</ele>
        <time>2026-05-17T12:33:56.000Z</time>
      </trkpt>
      <trkpt lat="43.65108" lon="3.33017">
        <ele>209.3</ele>
        <time>2026-05-17T12:33:57.000Z</time>
      </trkpt>
      <trkpt lat="43.65109" lon="3.33017">
        <ele>209.2</ele>
        <time>2026-05-17T12:33:58.000Z</time>
      </trkpt>
      <trkpt lat="43.6511" lon="3.33016">
        <ele>209.5</ele>
        <time>2026-05-17T12:33:59.000Z</time>
      </trkpt>
      <trkpt lat="43.6511" lon="3.33016">
        <ele>209.9</ele>
        <time>2026-05-17T12:34:00.000Z</time>
      </trkpt>
      <trkpt lat="43.65111" lon="3.33015">
        <ele>210.4</ele>
        <time>2026-05-17T12:34:01.000Z</time>
      </trkpt>
      <trkpt lat="43.65111" lon="3.33015">
        <ele>210.5</ele>
        <time>2026-05-17T12:34:02.000Z</time>
      </trkpt>
      <trkpt lat="43.65112" lon="3.33015">
        <ele>210.8</ele>
        <time>2026-05-17T12:34:03.000Z</time>
      </trkpt>
      <trkpt lat="43.65113" lon="3.33015">
        <ele>211</ele>
        <time>2026-05-17T12:34:04.000Z</time>
      </trkpt>
      <trkpt lat="43.65113" lon="3.33014">
        <ele>210.6</ele>
        <time>2026-05-17T12:34:05.000Z</time>
      </trkpt>
      <trkpt lat="43.65112" lon="3.33014">
        <ele>210.1</ele>
        <time>2026-05-17T12:34:06.000Z</time>
      </trkpt>
      <trkpt lat="43.65111" lon="3.33014">
        <ele>210.4</ele>
        <time>2026-05-17T12:34:07.000Z</time>
      </trkpt>
      <trkpt lat="43.6511" lon="3.33015">
        <ele>210.5</ele>
        <time>2026-05-17T12:34:08.000Z</time>
      </trkpt>
      <trkpt lat="43.6511" lon="3.33015">
        <ele>210.4</ele>
        <time>2026-05-17T12:34:09.000Z</time>
      </trkpt>
      <trkpt lat="43.65109" lon="3.33015">
        <ele>210.5</ele>
        <time>2026-05-17T12:34:10.000Z</time>
      </trkpt>
      <trkpt lat="43.6511" lon="3.33015">
        <ele>210.6</ele>
        <time>2026-05-17T12:34:11.000Z</time>
      </trkpt>
      <trkpt lat="43.6511" lon="3.33014">
        <ele>212.2</ele>
        <time>2026-05-17T12:34:12.000Z</time>
      </trkpt>
      <trkpt lat="43.65111" lon="3.33014">
        <ele>212</ele>
        <time>2026-05-17T12:34:13.000Z</time>
      </trkpt>
      <trkpt lat="43.65111" lon="3.33013">
        <ele>212</ele>
        <time>2026-05-17T12:34:14.000Z</time>
      </trkpt>
      <trkpt lat="43.65111" lon="3.33013">
        <ele>212.3</ele>
        <time>2026-05-17T12:34:15.000Z</time>
      </trkpt>
      <trkpt lat="43.65111" lon="3.33013">
        <ele>212.9</ele>
        <time>2026-05-17T12:34:16.000Z</time>
      </trkpt>
      <trkpt lat="43.65111" lon="3.33013">
        <ele>213.1</ele>
        <time>2026-05-17T12:34:17.000Z</time>
      </trkpt>
      <trkpt lat="43.65111" lon="3.33013">
        <ele>213.1</ele>
        <time>2026-05-17T12:34:18.000Z</time>
      </trkpt>
      <trkpt lat="43.65111" lon="3.33012">
        <ele>213.2</ele>
        <time>2026-05-17T12:34:19.000Z</time>
      </trkpt>
      <trkpt lat="43.65111" lon="3.33012">
        <ele>213.3</ele>
        <time>2026-05-17T12:34:20.000Z</time>
      </trkpt>
      <trkpt lat="43.65111" lon="3.33012">
        <ele>213.3</ele>
        <time>2026-05-17T12:34:21.000Z</time>
      </trkpt>
      <trkpt lat="43.65111" lon="3.33012">
        <ele>213.2</ele>
        <time>2026-05-17T12:34:22.000Z</time>
      </trkpt>
      <trkpt lat="43.65111" lon="3.33012">
        <ele>213.3</ele>
        <time>2026-05-17T12:34:23.000Z</time>
      </trkpt>
      <trkpt lat="43.65111" lon="3.33012">
        <ele>213.5</ele>
        <time>2026-05-17T12:34:24.000Z</time>
      </trkpt>
      <trkpt lat="43.65112" lon="3.33013">
        <ele>213.6</ele>
        <time>2026-05-17T12:34:25.000Z</time>
      </trkpt>
      <trkpt lat="43.65112" lon="3.33013">
        <ele>213.7</ele>
        <time>2026-05-17T12:34:26.000Z</time>
      </trkpt>
      <trkpt lat="43.65112" lon="3.33013">
        <ele>213.6</ele>
        <time>2026-05-17T12:34:27.000Z</time>
      </trkpt>
      <trkpt lat="43.65112" lon="3.33013">
        <ele>213.5</ele>
        <time>2026-05-17T12:34:28.000Z</time>
      </trkpt>
      <trkpt lat="43.65112" lon="3.33013">
        <ele>213.3</ele>
        <time>2026-05-17T12:34:29.000Z</time>
      </trkpt>
      <trkpt lat="43.65112" lon="3.33012">
        <ele>213.4</ele>
        <time>2026-05-17T12:34:30.000Z</time>
      </trkpt>
      <trkpt lat="43.65112" lon="3.33012">
        <ele>213.5</ele>
        <time>2026-05-17T12:34:31.000Z</time>
      </trkpt>
      <trkpt lat="43.65112" lon="3.33013">
        <ele>213.6</ele>
        <time>2026-05-17T12:34:32.000Z</time>
      </trkpt>
      <trkpt lat="43.65112" lon="3.33013">
        <ele>214</ele>
        <time>2026-05-17T12:34:33.000Z</time>
      </trkpt>
      <trkpt lat="43.65112" lon="3.33013">
        <ele>214.2</ele>
        <time>2026-05-17T12:34:34.000Z</time>
      </trkpt>
      <trkpt lat="43.65112" lon="3.33013">
        <ele>214.2</ele>
        <time>2026-05-17T12:34:35.000Z</time>
      </trkpt>
      <trkpt lat="43.65112" lon="3.33013">
        <ele>214.2</ele>
        <time>2026-05-17T12:34:36.000Z</time>
      </trkpt>
      <trkpt lat="43.65112" lon="3.33012">
        <ele>214.2</ele>
        <time>2026-05-17T12:34:37.000Z</time>
      </trkpt>
      <trkpt lat="43.65112" lon="3.33012">
        <ele>213.9</ele>
        <time>2026-05-17T12:34:38.000Z</time>
      </trkpt>
      <trkpt lat="43.65113" lon="3.33012">
        <ele>213.8</ele>
        <time>2026-05-17T12:34:39.000Z</time>
      </trkpt>
      <trkpt lat="43.65113" lon="3.33013">
        <ele>213.8</ele>
        <time>2026-05-17T12:34:40.000Z</time>
      </trkpt>
      <trkpt lat="43.65113" lon="3.33013">
        <ele>213.5</ele>
        <time>2026-05-17T12:34:41.000Z</time>
      </trkpt>
      <trkpt lat="43.65113" lon="3.33013">
        <ele>213.4</ele>
        <time>2026-05-17T12:34:42.000Z</time>
      </trkpt>
      <trkpt lat="43.65113" lon="3.33013">
        <ele>213.4</ele>
        <time>2026-05-17T12:34:43.000Z</time>
      </trkpt>
      <trkpt lat="43.65113" lon="3.33013">
        <ele>213.3</ele>
        <time>2026-05-17T12:34:44.000Z</time>
      </trkpt>
      <trkpt lat="43.65114" lon="3.33013">
        <ele>213.1</ele>
        <time>2026-05-17T12:34:45.000Z</time>
      </trkpt>
      <trkpt lat="43.65114" lon="3.33012">
        <ele>212.9</ele>
        <time>2026-05-17T12:34:46.000Z</time>
      </trkpt>
      <trkpt lat="43.65114" lon="3.33013">
        <ele>213</ele>
        <time>2026-05-17T12:34:47.000Z</time>
      </trkpt>
      <trkpt lat="43.65114" lon="3.33012">
        <ele>213.3</ele>
        <time>2026-05-17T12:34:48.000Z</time>
      </trkpt>
      <trkpt lat="43.65114" lon="3.33012">
        <ele>213.5</ele>
        <time>2026-05-17T12:34:49.000Z</time>
      </trkpt>
      <trkpt lat="43.65114" lon="3.33012">
        <ele>213.7</ele>
        <time>2026-05-17T12:34:50.000Z</time>
      </trkpt>
      <trkpt lat="43.65114" lon="3.33013">
        <ele>214</ele>
        <time>2026-05-17T12:34:51.000Z</time>
      </trkpt>
      <trkpt lat="43.65114" lon="3.33012">
        <ele>214</ele>
        <time>2026-05-17T12:34:52.000Z</time>
      </trkpt>
      <trkpt lat="43.65114" lon="3.33012">
        <ele>213.4</ele>
        <time>2026-05-17T12:34:53.000Z</time>
      </trkpt>
      <trkpt lat="43.65114" lon="3.33012">
        <ele>213</ele>
        <time>2026-05-17T12:34:54.000Z</time>
      </trkpt>
      <trkpt lat="43.65114" lon="3.33012">
        <ele>212.6</ele>
        <time>2026-05-17T12:34:55.000Z</time>
      </trkpt>
      <trkpt lat="43.65114" lon="3.33012">
        <ele>212.1</ele>
        <time>2026-05-17T12:34:56.000Z</time>
      </trkpt>
      <trkpt lat="43.65114" lon="3.33012">
        <ele>211.8</ele>
        <time>2026-05-17T12:34:57.000Z</time>
      </trkpt>
      <trkpt lat="43.65114" lon="3.33012">
        <ele>211.8</ele>
        <time>2026-05-17T12:34:58.000Z</time>
      </trkpt>
      <trkpt lat="43.65114" lon="3.33012">
        <ele>211.4</ele>
        <time>2026-05-17T12:34:59.000Z</time>
      </trkpt>
      <trkpt lat="43.65114" lon="3.33011">
        <ele>211.2</ele>
        <time>2026-05-17T12:35:00.000Z</time>
      </trkpt>
      <trkpt lat="43.65114" lon="3.33011">
        <ele>210.9</ele>
        <time>2026-05-17T12:35:01.000Z</time>
      </trkpt>
      <trkpt lat="43.65114" lon="3.33011">
        <ele>210.8</ele>
        <time>2026-05-17T12:35:02.000Z</time>
      </trkpt>
      <trkpt lat="43.65114" lon="3.33011">
        <ele>210.7</ele>
        <time>2026-05-17T12:35:03.000Z</time>
      </trkpt>
      <trkpt lat="43.65113" lon="3.33011">
        <ele>210.3</ele>
        <time>2026-05-17T12:35:04.000Z</time>
      </trkpt>
      <trkpt lat="43.65113" lon="3.33011">
        <ele>210</ele>
        <time>2026-05-17T12:35:05.000Z</time>
      </trkpt>
      <trkpt lat="43.65113" lon="3.33011">
        <ele>209.9</ele>
        <time>2026-05-17T12:35:06.000Z</time>
      </trkpt>
      <trkpt lat="43.65113" lon="3.33011">
        <ele>209.8</ele>
        <time>2026-05-17T12:35:07.000Z</time>
      </trkpt>
      <trkpt lat="43.65113" lon="3.3301">
        <ele>209.4</ele>
        <time>2026-05-17T12:35:08.000Z</time>
      </trkpt>
      <trkpt lat="43.65113" lon="3.3301">
        <ele>209</ele>
        <time>2026-05-17T12:35:09.000Z</time>
      </trkpt>
      <trkpt lat="43.65113" lon="3.3301">
        <ele>208.9</ele>
        <time>2026-05-17T12:35:10.000Z</time>
      </trkpt>
      <trkpt lat="43.65113" lon="3.3301">
        <ele>208.6</ele>
        <time>2026-05-17T12:35:11.000Z</time>
      </trkpt>
      <trkpt lat="43.65113" lon="3.3301">
        <ele>208.2</ele>
        <time>2026-05-17T12:35:12.000Z</time>
      </trkpt>
      <trkpt lat="43.65113" lon="3.3301">
        <ele>208</ele>
        <time>2026-05-17T12:35:13.000Z</time>
      </trkpt>
      <trkpt lat="43.65113" lon="3.3301">
        <ele>208</ele>
        <time>2026-05-17T12:35:14.000Z</time>
      </trkpt>
      <trkpt lat="43.65113" lon="3.3301">
        <ele>208</ele>
        <time>2026-05-17T12:35:15.000Z</time>
      </trkpt>
      <trkpt lat="43.65113" lon="3.3301">
        <ele>207.6</ele>
        <time>2026-05-17T12:35:16.000Z</time>
      </trkpt>
      <trkpt lat="43.65112" lon="3.33009">
        <ele>207.2</ele>
        <time>2026-05-17T12:35:17.000Z</time>
      </trkpt>
      <trkpt lat="43.65112" lon="3.33009">
        <ele>207.2</ele>
        <time>2026-05-17T12:35:18.000Z</time>
      </trkpt>
      <trkpt lat="43.65112" lon="3.33009">
        <ele>207.4</ele>
        <time>2026-05-17T12:35:19.000Z</time>
      </trkpt>
      <trkpt lat="43.65112" lon="3.33009">
        <ele>207.6</ele>
        <time>2026-05-17T12:35:20.000Z</time>
      </trkpt>
      <trkpt lat="43.65112" lon="3.33009">
        <ele>207.5</ele>
        <time>2026-05-17T12:35:21.000Z</time>
      </trkpt>
      <trkpt lat="43.65112" lon="3.33009">
        <ele>207.4</ele>
        <time>2026-05-17T12:35:22.000Z</time>
      </trkpt>
      <trkpt lat="43.65112" lon="3.33009">
        <ele>207.4</ele>
        <time>2026-05-17T12:35:23.000Z</time>
      </trkpt>
      <trkpt lat="43.65112" lon="3.33009">
        <ele>207.4</ele>
        <time>2026-05-17T12:35:24.000Z</time>
      </trkpt>
      <trkpt lat="43.65112" lon="3.33009">
        <ele>207.4</ele>
        <time>2026-05-17T12:35:25.000Z</time>
      </trkpt>
      <trkpt lat="43.65112" lon="3.33009">
        <ele>207.4</ele>
        <time>2026-05-17T12:35:26.000Z</time>
      </trkpt>
      <trkpt lat="43.65112" lon="3.33009">
        <ele>207.4</ele>
        <time>2026-05-17T12:35:27.000Z</time>
      </trkpt>
      <trkpt lat="43.65112" lon="3.33009">
        <ele>207.4</ele>
        <time>2026-05-17T12:35:28.000Z</time>
      </trkpt>
      <trkpt lat="43.65112" lon="3.33009">
        <ele>207.3</ele>
        <time>2026-05-17T12:35:29.000Z</time>
      </trkpt>
      <trkpt lat="43.65112" lon="3.33009">
        <ele>207.4</ele>
        <time>2026-05-17T12:35:30.000Z</time>
      </trkpt>
      <trkpt lat="43.65112" lon="3.33009">
        <ele>207.6</ele>
        <time>2026-05-17T12:35:31.000Z</time>
      </trkpt>
      <trkpt lat="43.65112" lon="3.33009">
        <ele>207.9</ele>
        <time>2026-05-17T12:35:32.000Z</time>
      </trkpt>
      <trkpt lat="43.65112" lon="3.33008">
        <ele>208</ele>
        <time>2026-05-17T12:35:33.000Z</time>
      </trkpt>
      <trkpt lat="43.65112" lon="3.33008">
        <ele>208.1</ele>
        <time>2026-05-17T12:35:34.000Z</time>
      </trkpt>
      <trkpt lat="43.65112" lon="3.33008">
        <ele>208.3</ele>
        <time>2026-05-17T12:35:35.000Z</time>
      </trkpt>
      <trkpt lat="43.65112" lon="3.33008">
        <ele>208.1</ele>
        <time>2026-05-17T12:35:36.000Z</time>
      </trkpt>
      <trkpt lat="43.65111" lon="3.33008">
        <ele>208.2</ele>
        <time>2026-05-17T12:35:37.000Z</time>
      </trkpt>
      <trkpt lat="43.65111" lon="3.33007">
        <ele>208.5</ele>
        <time>2026-05-17T12:35:38.000Z</time>
      </trkpt>
      <trkpt lat="43.65111" lon="3.33007">
        <ele>208.7</ele>
        <time>2026-05-17T12:35:39.000Z</time>
      </trkpt>
      <trkpt lat="43.65112" lon="3.33007">
        <ele>208.7</ele>
        <time>2026-05-17T12:35:40.000Z</time>
      </trkpt>
      <trkpt lat="43.65112" lon="3.33007">
        <ele>208.6</ele>
        <time>2026-05-17T12:35:41.000Z</time>
      </trkpt>
      <trkpt lat="43.65111" lon="3.33007">
        <ele>208.7</ele>
        <time>2026-05-17T12:35:42.000Z</time>
      </trkpt>
      <trkpt lat="43.65111" lon="3.33006">
        <ele>208.6</ele>
        <time>2026-05-17T12:35:43.000Z</time>
      </trkpt>
      <trkpt lat="43.65112" lon="3.33006">
        <ele>208.7</ele>
        <time>2026-05-17T12:35:44.000Z</time>
      </trkpt>
      <trkpt lat="43.65112" lon="3.33005">
        <ele>208.6</ele>
        <time>2026-05-17T12:35:45.000Z</time>
      </trkpt>
      <trkpt lat="43.65112" lon="3.33005">
        <ele>208.3</ele>
        <time>2026-05-17T12:35:46.000Z</time>
      </trkpt>
      <trkpt lat="43.65112" lon="3.33005">
        <ele>208.1</ele>
        <time>2026-05-17T12:35:47.000Z</time>
      </trkpt>
      <trkpt lat="43.65112" lon="3.33005">
        <ele>207.7</ele>
        <time>2026-05-17T12:35:48.000Z</time>
      </trkpt>
      <trkpt lat="43.65112" lon="3.33005">
        <ele>207.5</ele>
        <time>2026-05-17T12:35:49.000Z</time>
      </trkpt>
      <trkpt lat="43.65112" lon="3.33004">
        <ele>207.4</ele>
        <time>2026-05-17T12:35:50.000Z</time>
      </trkpt>
      <trkpt lat="43.65112" lon="3.33004">
        <ele>207.2</ele>
        <time>2026-05-17T12:35:51.000Z</time>
      </trkpt>
      <trkpt lat="43.65112" lon="3.33004">
        <ele>206.9</ele>
        <time>2026-05-17T12:35:52.000Z</time>
      </trkpt>
      <trkpt lat="43.65112" lon="3.33004">
        <ele>206.6</ele>
        <time>2026-05-17T12:35:53.000Z</time>
      </trkpt>
      <trkpt lat="43.65112" lon="3.33004">
        <ele>206.2</ele>
        <time>2026-05-17T12:35:54.000Z</time>
      </trkpt>
      <trkpt lat="43.65112" lon="3.33004">
        <ele>206.2</ele>
        <time>2026-05-17T12:35:55.000Z</time>
      </trkpt>
      <trkpt lat="43.65112" lon="3.33004">
        <ele>206.1</ele>
        <time>2026-05-17T12:35:56.000Z</time>
      </trkpt>
      <trkpt lat="43.65112" lon="3.33004">
        <ele>206.2</ele>
        <time>2026-05-17T12:35:57.000Z</time>
      </trkpt>
      <trkpt lat="43.65112" lon="3.33004">
        <ele>206.1</ele>
        <time>2026-05-17T12:35:58.000Z</time>
      </trkpt>
      <trkpt lat="43.65112" lon="3.33004">
        <ele>205.8</ele>
        <time>2026-05-17T12:35:59.000Z</time>
      </trkpt>
      <trkpt lat="43.65112" lon="3.33004">
        <ele>205.7</ele>
        <time>2026-05-17T12:36:00.000Z</time>
      </trkpt>
      <trkpt lat="43.65111" lon="3.33003">
        <ele>205.4</ele>
        <time>2026-05-17T12:36:01.000Z</time>
      </trkpt>
      <trkpt lat="43.65111" lon="3.33003">
        <ele>205.2</ele>
        <time>2026-05-17T12:36:02.000Z</time>
      </trkpt>
      <trkpt lat="43.65111" lon="3.33003">
        <ele>205.5</ele>
        <time>2026-05-17T12:36:03.000Z</time>
      </trkpt>
      <trkpt lat="43.65111" lon="3.33003">
        <ele>205.5</ele>
        <time>2026-05-17T12:36:04.000Z</time>
      </trkpt>
      <trkpt lat="43.65111" lon="3.33002">
        <ele>205.4</ele>
        <time>2026-05-17T12:36:05.000Z</time>
      </trkpt>
      <trkpt lat="43.65112" lon="3.33001">
        <ele>205.5</ele>
        <time>2026-05-17T12:36:06.000Z</time>
      </trkpt>
      <trkpt lat="43.65111" lon="3.33">
        <ele>205.2</ele>
        <time>2026-05-17T12:36:07.000Z</time>
      </trkpt>
      <trkpt lat="43.6511" lon="3.33">
        <ele>205</ele>
        <time>2026-05-17T12:36:08.000Z</time>
      </trkpt>
      <trkpt lat="43.6511" lon="3.32998">
        <ele>204.9</ele>
        <time>2026-05-17T12:36:09.000Z</time>
      </trkpt>
      <trkpt lat="43.65109" lon="3.32997">
        <ele>205</ele>
        <time>2026-05-17T12:36:10.000Z</time>
      </trkpt>
      <trkpt lat="43.65109" lon="3.32996">
        <ele>204.8</ele>
        <time>2026-05-17T12:36:11.000Z</time>
      </trkpt>
      <trkpt lat="43.65109" lon="3.32995">
        <ele>204.7</ele>
        <time>2026-05-17T12:36:12.000Z</time>
      </trkpt>
      <trkpt lat="43.65108" lon="3.32994">
        <ele>204.4</ele>
        <time>2026-05-17T12:36:13.000Z</time>
      </trkpt>
      <trkpt lat="43.65107" lon="3.32994">
        <ele>204.3</ele>
        <time>2026-05-17T12:36:14.000Z</time>
      </trkpt>
      <trkpt lat="43.65107" lon="3.32992">
        <ele>204</ele>
        <time>2026-05-17T12:36:15.000Z</time>
      </trkpt>
      <trkpt lat="43.65108" lon="3.32992">
        <ele>203.8</ele>
        <time>2026-05-17T12:36:16.000Z</time>
      </trkpt>
      <trkpt lat="43.65108" lon="3.32992">
        <ele>203.9</ele>
        <time>2026-05-17T12:36:17.000Z</time>
      </trkpt>
      <trkpt lat="43.65108" lon="3.32992">
        <ele>204.9</ele>
        <time>2026-05-17T12:36:18.000Z</time>
      </trkpt>
      <trkpt lat="43.65108" lon="3.32992">
        <ele>204.7</ele>
        <time>2026-05-17T12:36:19.000Z</time>
      </trkpt>
      <trkpt lat="43.65108" lon="3.32991">
        <ele>204.3</ele>
        <time>2026-05-17T12:36:20.000Z</time>
      </trkpt>
      <trkpt lat="43.65108" lon="3.32991">
        <ele>204.1</ele>
        <time>2026-05-17T12:36:21.000Z</time>
      </trkpt>
      <trkpt lat="43.65108" lon="3.32991">
        <ele>203.8</ele>
        <time>2026-05-17T12:36:22.000Z</time>
      </trkpt>
      <trkpt lat="43.65108" lon="3.32991">
        <ele>203.5</ele>
        <time>2026-05-17T12:36:23.000Z</time>
      </trkpt>
      <trkpt lat="43.65108" lon="3.32991">
        <ele>203.1</ele>
        <time>2026-05-17T12:36:24.000Z</time>
      </trkpt>
      <trkpt lat="43.65108" lon="3.32991">
        <ele>202.8</ele>
        <time>2026-05-17T12:36:25.000Z</time>
      </trkpt>
      <trkpt lat="43.65108" lon="3.32991">
        <ele>202.4</ele>
        <time>2026-05-17T12:36:26.000Z</time>
      </trkpt>
      <trkpt lat="43.65108" lon="3.32991">
        <ele>202.1</ele>
        <time>2026-05-17T12:36:27.000Z</time>
      </trkpt>
      <trkpt lat="43.65108" lon="3.32991">
        <ele>201.8</ele>
        <time>2026-05-17T12:36:28.000Z</time>
      </trkpt>
      <trkpt lat="43.65108" lon="3.32991">
        <ele>201.4</ele>
        <time>2026-05-17T12:36:29.000Z</time>
      </trkpt>
      <trkpt lat="43.65108" lon="3.32991">
        <ele>201.1</ele>
        <time>2026-05-17T12:36:30.000Z</time>
      </trkpt>
      <trkpt lat="43.65109" lon="3.32991">
        <ele>200.7</ele>
        <time>2026-05-17T12:36:31.000Z</time>
      </trkpt>
      <trkpt lat="43.65109" lon="3.32991">
        <ele>200.4</ele>
        <time>2026-05-17T12:36:32.000Z</time>
      </trkpt>
      <trkpt lat="43.65109" lon="3.32991">
        <ele>200</ele>
        <time>2026-05-17T12:36:33.000Z</time>
      </trkpt>
      <trkpt lat="43.65109" lon="3.3299">
        <ele>199.8</ele>
        <time>2026-05-17T12:36:34.000Z</time>
      </trkpt>
      <trkpt lat="43.6511" lon="3.3299">
        <ele>200</ele>
        <time>2026-05-17T12:36:35.000Z</time>
      </trkpt>
      <trkpt lat="43.6511" lon="3.3299">
        <ele>199.9</ele>
        <time>2026-05-17T12:36:36.000Z</time>
      </trkpt>
      <trkpt lat="43.6511" lon="3.3299">
        <ele>200</ele>
        <time>2026-05-17T12:36:37.000Z</time>
      </trkpt>
      <trkpt lat="43.6511" lon="3.3299">
        <ele>200.2</ele>
        <time>2026-05-17T12:36:38.000Z</time>
      </trkpt>
      <trkpt lat="43.65111" lon="3.3299">
        <ele>200</ele>
        <time>2026-05-17T12:36:39.000Z</time>
      </trkpt>
      <trkpt lat="43.65111" lon="3.3299">
        <ele>199.9</ele>
        <time>2026-05-17T12:36:40.000Z</time>
      </trkpt>
      <trkpt lat="43.65111" lon="3.3299">
        <ele>199.9</ele>
        <time>2026-05-17T12:36:41.000Z</time>
      </trkpt>
      <trkpt lat="43.65111" lon="3.3299">
        <ele>199.8</ele>
        <time>2026-05-17T12:36:42.000Z</time>
      </trkpt>
      <trkpt lat="43.65111" lon="3.3299">
        <ele>199.6</ele>
        <time>2026-05-17T12:36:43.000Z</time>
      </trkpt>
      <trkpt lat="43.65111" lon="3.3299">
        <ele>199.3</ele>
        <time>2026-05-17T12:36:44.000Z</time>
      </trkpt>
      <trkpt lat="43.65111" lon="3.3299">
        <ele>199.1</ele>
        <time>2026-05-17T12:36:45.000Z</time>
      </trkpt>
      <trkpt lat="43.65112" lon="3.3299">
        <ele>199</ele>
        <time>2026-05-17T12:36:46.000Z</time>
      </trkpt>
      <trkpt lat="43.65112" lon="3.3299">
        <ele>199</ele>
        <time>2026-05-17T12:36:47.000Z</time>
      </trkpt>
      <trkpt lat="43.65112" lon="3.32989">
        <ele>198.8</ele>
        <time>2026-05-17T12:36:48.000Z</time>
      </trkpt>
      <trkpt lat="43.65112" lon="3.32989">
        <ele>198.6</ele>
        <time>2026-05-17T12:36:49.000Z</time>
      </trkpt>
      <trkpt lat="43.65112" lon="3.32989">
        <ele>198.3</ele>
        <time>2026-05-17T12:36:50.000Z</time>
      </trkpt>
      <trkpt lat="43.65112" lon="3.32989">
        <ele>198.4</ele>
        <time>2026-05-17T12:36:51.000Z</time>
      </trkpt>
      <trkpt lat="43.65112" lon="3.32989">
        <ele>198.4</ele>
        <time>2026-05-17T12:36:52.000Z</time>
      </trkpt>
      <trkpt lat="43.65113" lon="3.32989">
        <ele>198.7</ele>
        <time>2026-05-17T12:36:53.000Z</time>
      </trkpt>
      <trkpt lat="43.65114" lon="3.32988">
        <ele>198.7</ele>
        <time>2026-05-17T12:36:54.000Z</time>
      </trkpt>
      <trkpt lat="43.65115" lon="3.32988">
        <ele>198.8</ele>
        <time>2026-05-17T12:36:55.000Z</time>
      </trkpt>
      <trkpt lat="43.65116" lon="3.32988">
        <ele>198.8</ele>
        <time>2026-05-17T12:36:56.000Z</time>
      </trkpt>
      <trkpt lat="43.65118" lon="3.32989">
        <ele>198.7</ele>
        <time>2026-05-17T12:36:57.000Z</time>
      </trkpt>
      <trkpt lat="43.6512" lon="3.32989">
        <ele>198.6</ele>
        <time>2026-05-17T12:36:58.000Z</time>
      </trkpt>
      <trkpt lat="43.65121" lon="3.32989">
        <ele>198.5</ele>
        <time>2026-05-17T12:36:59.000Z</time>
      </trkpt>
      <trkpt lat="43.65123" lon="3.32989">
        <ele>198.2</ele>
        <time>2026-05-17T12:37:00.000Z</time>
      </trkpt>
      <trkpt lat="43.65124" lon="3.32989">
        <ele>198</ele>
        <time>2026-05-17T12:37:01.000Z</time>
      </trkpt>
      <trkpt lat="43.65124" lon="3.32989">
        <ele>197.7</ele>
        <time>2026-05-17T12:37:02.000Z</time>
      </trkpt>
      <trkpt lat="43.65125" lon="3.32989">
        <ele>197.6</ele>
        <time>2026-05-17T12:37:03.000Z</time>
      </trkpt>
      <trkpt lat="43.65126" lon="3.32989">
        <ele>197.6</ele>
        <time>2026-05-17T12:37:04.000Z</time>
      </trkpt>
      <trkpt lat="43.65127" lon="3.32989">
        <ele>197.5</ele>
        <time>2026-05-17T12:37:05.000Z</time>
      </trkpt>
      <trkpt lat="43.65128" lon="3.32989">
        <ele>197.2</ele>
        <time>2026-05-17T12:37:06.000Z</time>
      </trkpt>
      <trkpt lat="43.65129" lon="3.3299">
        <ele>197.3</ele>
        <time>2026-05-17T12:37:07.000Z</time>
      </trkpt>
      <trkpt lat="43.65129" lon="3.3299">
        <ele>197.6</ele>
        <time>2026-05-17T12:37:08.000Z</time>
      </trkpt>
      <trkpt lat="43.6513" lon="3.3299">
        <ele>197.5</ele>
        <time>2026-05-17T12:37:09.000Z</time>
      </trkpt>
      <trkpt lat="43.6513" lon="3.3299">
        <ele>197.6</ele>
        <time>2026-05-17T12:37:10.000Z</time>
      </trkpt>
      <trkpt lat="43.6513" lon="3.3299">
        <ele>197.6</ele>
        <time>2026-05-17T12:37:11.000Z</time>
      </trkpt>
      <trkpt lat="43.6513" lon="3.3299">
        <ele>198</ele>
        <time>2026-05-17T12:37:12.000Z</time>
      </trkpt>
      <trkpt lat="43.6513" lon="3.3299">
        <ele>198.1</ele>
        <time>2026-05-17T12:37:13.000Z</time>
      </trkpt>
      <trkpt lat="43.6513" lon="3.3299">
        <ele>198.1</ele>
        <time>2026-05-17T12:37:14.000Z</time>
      </trkpt>
      <trkpt lat="43.65131" lon="3.32991">
        <ele>198.2</ele>
        <time>2026-05-17T12:37:15.000Z</time>
      </trkpt>
      <trkpt lat="43.65131" lon="3.32993">
        <ele>198.8</ele>
        <time>2026-05-17T12:37:16.000Z</time>
      </trkpt>
      <trkpt lat="43.65131" lon="3.32994">
        <ele>198.7</ele>
        <time>2026-05-17T12:37:17.000Z</time>
      </trkpt>
      <trkpt lat="43.65131" lon="3.32995">
        <ele>198.5</ele>
        <time>2026-05-17T12:37:18.000Z</time>
      </trkpt>
      <trkpt lat="43.6513" lon="3.32996">
        <ele>198.1</ele>
        <time>2026-05-17T12:37:19.000Z</time>
      </trkpt>
      <trkpt lat="43.6513" lon="3.32997">
        <ele>198.1</ele>
        <time>2026-05-17T12:37:20.000Z</time>
      </trkpt>
      <trkpt lat="43.6513" lon="3.32998">
        <ele>197.4</ele>
        <time>2026-05-17T12:37:21.000Z</time>
      </trkpt>
      <trkpt lat="43.65131" lon="3.32999">
        <ele>197.3</ele>
        <time>2026-05-17T12:37:22.000Z</time>
      </trkpt>
      <trkpt lat="43.65132" lon="3.33">
        <ele>197.1</ele>
        <time>2026-05-17T12:37:23.000Z</time>
      </trkpt>
      <trkpt lat="43.65132" lon="3.33001">
        <ele>196.6</ele>
        <time>2026-05-17T12:37:24.000Z</time>
      </trkpt>
      <trkpt lat="43.65133" lon="3.33002">
        <ele>196.1</ele>
        <time>2026-05-17T12:37:25.000Z</time>
      </trkpt>
      <trkpt lat="43.65133" lon="3.33003">
        <ele>195.6</ele>
        <time>2026-05-17T12:37:26.000Z</time>
      </trkpt>
      <trkpt lat="43.65133" lon="3.33003">
        <ele>195.7</ele>
        <time>2026-05-17T12:37:27.000Z</time>
      </trkpt>
      <trkpt lat="43.65134" lon="3.33004">
        <ele>195.4</ele>
        <time>2026-05-17T12:37:28.000Z</time>
      </trkpt>
      <trkpt lat="43.65135" lon="3.33004">
        <ele>195.5</ele>
        <time>2026-05-17T12:37:29.000Z</time>
      </trkpt>
      <trkpt lat="43.65135" lon="3.33005">
        <ele>195.3</ele>
        <time>2026-05-17T12:37:30.000Z</time>
      </trkpt>
      <trkpt lat="43.65136" lon="3.33006">
        <ele>195.2</ele>
        <time>2026-05-17T12:37:31.000Z</time>
      </trkpt>
      <trkpt lat="43.65137" lon="3.33007">
        <ele>194.9</ele>
        <time>2026-05-17T12:37:32.000Z</time>
      </trkpt>
      <trkpt lat="43.65137" lon="3.33008">
        <ele>194.8</ele>
        <time>2026-05-17T12:37:33.000Z</time>
      </trkpt>
      <trkpt lat="43.65138" lon="3.33008">
        <ele>194.7</ele>
        <time>2026-05-17T12:37:34.000Z</time>
      </trkpt>
      <trkpt lat="43.65138" lon="3.33008">
        <ele>194.1</ele>
        <time>2026-05-17T12:37:35.000Z</time>
      </trkpt>
      <trkpt lat="43.65139" lon="3.3301">
        <ele>193.4</ele>
        <time>2026-05-17T12:37:36.000Z</time>
      </trkpt>
      <trkpt lat="43.6514" lon="3.3301">
        <ele>192.9</ele>
        <time>2026-05-17T12:37:37.000Z</time>
      </trkpt>
      <trkpt lat="43.6514" lon="3.33011">
        <ele>192.7</ele>
        <time>2026-05-17T12:37:38.000Z</time>
      </trkpt>
      <trkpt lat="43.65141" lon="3.33012">
        <ele>192.6</ele>
        <time>2026-05-17T12:37:39.000Z</time>
      </trkpt>
      <trkpt lat="43.65142" lon="3.33013">
        <ele>192.4</ele>
        <time>2026-05-17T12:37:40.000Z</time>
      </trkpt>
      <trkpt lat="43.65142" lon="3.33013">
        <ele>191.9</ele>
        <time>2026-05-17T12:37:41.000Z</time>
      </trkpt>
      <trkpt lat="43.65142" lon="3.33014">
        <ele>191.8</ele>
        <time>2026-05-17T12:37:42.000Z</time>
      </trkpt>
      <trkpt lat="43.65142" lon="3.33015">
        <ele>191.4</ele>
        <time>2026-05-17T12:37:43.000Z</time>
      </trkpt>
      <trkpt lat="43.65143" lon="3.33016">
        <ele>191.4</ele>
        <time>2026-05-17T12:37:44.000Z</time>
      </trkpt>
      <trkpt lat="43.65144" lon="3.33017">
        <ele>191.4</ele>
        <time>2026-05-17T12:37:45.000Z</time>
      </trkpt>
      <trkpt lat="43.65145" lon="3.33017">
        <ele>191.2</ele>
        <time>2026-05-17T12:37:46.000Z</time>
      </trkpt>
      <trkpt lat="43.65145" lon="3.33018">
        <ele>191</ele>
        <time>2026-05-17T12:37:47.000Z</time>
      </trkpt>
      <trkpt lat="43.65145" lon="3.33019">
        <ele>190.6</ele>
        <time>2026-05-17T12:37:48.000Z</time>
      </trkpt>
      <trkpt lat="43.65145" lon="3.3302">
        <ele>190.2</ele>
        <time>2026-05-17T12:37:49.000Z</time>
      </trkpt>
      <trkpt lat="43.65146" lon="3.33021">
        <ele>189.7</ele>
        <time>2026-05-17T12:37:50.000Z</time>
      </trkpt>
      <trkpt lat="43.65146" lon="3.33022">
        <ele>189.6</ele>
        <time>2026-05-17T12:37:51.000Z</time>
      </trkpt>
      <trkpt lat="43.65146" lon="3.33022">
        <ele>189.2</ele>
        <time>2026-05-17T12:37:52.000Z</time>
      </trkpt>
      <trkpt lat="43.65147" lon="3.33023">
        <ele>188.8</ele>
        <time>2026-05-17T12:37:53.000Z</time>
      </trkpt>
      <trkpt lat="43.65147" lon="3.33024">
        <ele>188.6</ele>
        <time>2026-05-17T12:37:54.000Z</time>
      </trkpt>
      <trkpt lat="43.65147" lon="3.33026">
        <ele>188.9</ele>
        <time>2026-05-17T12:37:55.000Z</time>
      </trkpt>
      <trkpt lat="43.65148" lon="3.33027">
        <ele>188.8</ele>
        <time>2026-05-17T12:37:56.000Z</time>
      </trkpt>
      <trkpt lat="43.65148" lon="3.33028">
        <ele>188.8</ele>
        <time>2026-05-17T12:37:57.000Z</time>
      </trkpt>
      <trkpt lat="43.65148" lon="3.33029">
        <ele>188.7</ele>
        <time>2026-05-17T12:37:58.000Z</time>
      </trkpt>
      <trkpt lat="43.65147" lon="3.3303">
        <ele>188.7</ele>
        <time>2026-05-17T12:37:59.000Z</time>
      </trkpt>
      <trkpt lat="43.65147" lon="3.33031">
        <ele>188.7</ele>
        <time>2026-05-17T12:38:00.000Z</time>
      </trkpt>
      <trkpt lat="43.65147" lon="3.33033">
        <ele>188.5</ele>
        <time>2026-05-17T12:38:01.000Z</time>
      </trkpt>
      <trkpt lat="43.65147" lon="3.33034">
        <ele>188.2</ele>
        <time>2026-05-17T12:38:02.000Z</time>
      </trkpt>
      <trkpt lat="43.65148" lon="3.33036">
        <ele>187.9</ele>
        <time>2026-05-17T12:38:03.000Z</time>
      </trkpt>
      <trkpt lat="43.65148" lon="3.33038">
        <ele>188</ele>
        <time>2026-05-17T12:38:04.000Z</time>
      </trkpt>
      <trkpt lat="43.65148" lon="3.3304">
        <ele>187.9</ele>
        <time>2026-05-17T12:38:05.000Z</time>
      </trkpt>
      <trkpt lat="43.65149" lon="3.33042">
        <ele>188</ele>
        <time>2026-05-17T12:38:06.000Z</time>
      </trkpt>
      <trkpt lat="43.65149" lon="3.33044">
        <ele>188</ele>
        <time>2026-05-17T12:38:07.000Z</time>
      </trkpt>
      <trkpt lat="43.65149" lon="3.33045">
        <ele>187.9</ele>
        <time>2026-05-17T12:38:08.000Z</time>
      </trkpt>
      <trkpt lat="43.65149" lon="3.33046">
        <ele>187.8</ele>
        <time>2026-05-17T12:38:09.000Z</time>
      </trkpt>
      <trkpt lat="43.65149" lon="3.33047">
        <ele>187.6</ele>
        <time>2026-05-17T12:38:10.000Z</time>
      </trkpt>
      <trkpt lat="43.65148" lon="3.33048">
        <ele>187.3</ele>
        <time>2026-05-17T12:38:11.000Z</time>
      </trkpt>
      <trkpt lat="43.65148" lon="3.3305">
        <ele>187.3</ele>
        <time>2026-05-17T12:38:12.000Z</time>
      </trkpt>
      <trkpt lat="43.65148" lon="3.33052">
        <ele>187.5</ele>
        <time>2026-05-17T12:38:13.000Z</time>
      </trkpt>
      <trkpt lat="43.65148" lon="3.33054">
        <ele>187.4</ele>
        <time>2026-05-17T12:38:14.000Z</time>
      </trkpt>
      <trkpt lat="43.65147" lon="3.33054">
        <ele>187.2</ele>
        <time>2026-05-17T12:38:15.000Z</time>
      </trkpt>
      <trkpt lat="43.65147" lon="3.33056">
        <ele>186.9</ele>
        <time>2026-05-17T12:38:16.000Z</time>
      </trkpt>
      <trkpt lat="43.65146" lon="3.33057">
        <ele>186.6</ele>
        <time>2026-05-17T12:38:17.000Z</time>
      </trkpt>
      <trkpt lat="43.65145" lon="3.33059">
        <ele>186.5</ele>
        <time>2026-05-17T12:38:18.000Z</time>
      </trkpt>
      <trkpt lat="43.65145" lon="3.33061">
        <ele>186.1</ele>
        <time>2026-05-17T12:38:19.000Z</time>
      </trkpt>
      <trkpt lat="43.65145" lon="3.33062">
        <ele>185.9</ele>
        <time>2026-05-17T12:38:20.000Z</time>
      </trkpt>
      <trkpt lat="43.65145" lon="3.33063">
        <ele>186</ele>
        <time>2026-05-17T12:38:21.000Z</time>
      </trkpt>
      <trkpt lat="43.65144" lon="3.33064">
        <ele>186</ele>
        <time>2026-05-17T12:38:22.000Z</time>
      </trkpt>
      <trkpt lat="43.65143" lon="3.33066">
        <ele>185.6</ele>
        <time>2026-05-17T12:38:23.000Z</time>
      </trkpt>
      <trkpt lat="43.65142" lon="3.33068">
        <ele>185.5</ele>
        <time>2026-05-17T12:38:24.000Z</time>
      </trkpt>
      <trkpt lat="43.65141" lon="3.3307">
        <ele>185.4</ele>
        <time>2026-05-17T12:38:25.000Z</time>
      </trkpt>
      <trkpt lat="43.6514" lon="3.33072">
        <ele>185.4</ele>
        <time>2026-05-17T12:38:26.000Z</time>
      </trkpt>
      <trkpt lat="43.6514" lon="3.33075">
        <ele>185.2</ele>
        <time>2026-05-17T12:38:27.000Z</time>
      </trkpt>
      <trkpt lat="43.65139" lon="3.33076">
        <ele>184.9</ele>
        <time>2026-05-17T12:38:28.000Z</time>
      </trkpt>
      <trkpt lat="43.65139" lon="3.33078">
        <ele>184.4</ele>
        <time>2026-05-17T12:38:29.000Z</time>
      </trkpt>
      <trkpt lat="43.65139" lon="3.33079">
        <ele>183.7</ele>
        <time>2026-05-17T12:38:30.000Z</time>
      </trkpt>
      <trkpt lat="43.65138" lon="3.33081">
        <ele>183.5</ele>
        <time>2026-05-17T12:38:31.000Z</time>
      </trkpt>
      <trkpt lat="43.65138" lon="3.33082">
        <ele>183.6</ele>
        <time>2026-05-17T12:38:32.000Z</time>
      </trkpt>
      <trkpt lat="43.65138" lon="3.33084">
        <ele>183.5</ele>
        <time>2026-05-17T12:38:33.000Z</time>
      </trkpt>
      <trkpt lat="43.65138" lon="3.33086">
        <ele>183.3</ele>
        <time>2026-05-17T12:38:34.000Z</time>
      </trkpt>
      <trkpt lat="43.65138" lon="3.33087">
        <ele>183.1</ele>
        <time>2026-05-17T12:38:35.000Z</time>
      </trkpt>
      <trkpt lat="43.65137" lon="3.33089">
        <ele>182.9</ele>
        <time>2026-05-17T12:38:36.000Z</time>
      </trkpt>
      <trkpt lat="43.65137" lon="3.33091">
        <ele>182.9</ele>
        <time>2026-05-17T12:38:37.000Z</time>
      </trkpt>
      <trkpt lat="43.65138" lon="3.33092">
        <ele>182.9</ele>
        <time>2026-05-17T12:38:38.000Z</time>
      </trkpt>
      <trkpt lat="43.65138" lon="3.33093">
        <ele>182.6</ele>
        <time>2026-05-17T12:38:39.000Z</time>
      </trkpt>
      <trkpt lat="43.65138" lon="3.33094">
        <ele>182.6</ele>
        <time>2026-05-17T12:38:40.000Z</time>
      </trkpt>
      <trkpt lat="43.65137" lon="3.33095">
        <ele>182.5</ele>
        <time>2026-05-17T12:38:41.000Z</time>
      </trkpt>
      <trkpt lat="43.65137" lon="3.33097">
        <ele>182.5</ele>
        <time>2026-05-17T12:38:42.000Z</time>
      </trkpt>
      <trkpt lat="43.65137" lon="3.33099">
        <ele>182.3</ele>
        <time>2026-05-17T12:38:43.000Z</time>
      </trkpt>
      <trkpt lat="43.65137" lon="3.33101">
        <ele>182</ele>
        <time>2026-05-17T12:38:44.000Z</time>
      </trkpt>
      <trkpt lat="43.65138" lon="3.33102">
        <ele>182.1</ele>
        <time>2026-05-17T12:38:45.000Z</time>
      </trkpt>
      <trkpt lat="43.65138" lon="3.33103">
        <ele>182.2</ele>
        <time>2026-05-17T12:38:46.000Z</time>
      </trkpt>
      <trkpt lat="43.65138" lon="3.33104">
        <ele>182.2</ele>
        <time>2026-05-17T12:38:47.000Z</time>
      </trkpt>
      <trkpt lat="43.65139" lon="3.33106">
        <ele>181.8</ele>
        <time>2026-05-17T12:38:48.000Z</time>
      </trkpt>
      <trkpt lat="43.6514" lon="3.33108">
        <ele>181.4</ele>
        <time>2026-05-17T12:38:49.000Z</time>
      </trkpt>
      <trkpt lat="43.65141" lon="3.3311">
        <ele>181</ele>
        <time>2026-05-17T12:38:50.000Z</time>
      </trkpt>
      <trkpt lat="43.65141" lon="3.33111">
        <ele>180.8</ele>
        <time>2026-05-17T12:38:51.000Z</time>
      </trkpt>
      <trkpt lat="43.65142" lon="3.33112">
        <ele>180.7</ele>
        <time>2026-05-17T12:38:52.000Z</time>
      </trkpt>
      <trkpt lat="43.65143" lon="3.33113">
        <ele>180.8</ele>
        <time>2026-05-17T12:38:53.000Z</time>
      </trkpt>
      <trkpt lat="43.65143" lon="3.33114">
        <ele>180.7</ele>
        <time>2026-05-17T12:38:54.000Z</time>
      </trkpt>
      <trkpt lat="43.65144" lon="3.33115">
        <ele>180.9</ele>
        <time>2026-05-17T12:38:55.000Z</time>
      </trkpt>
      <trkpt lat="43.65144" lon="3.33117">
        <ele>181.3</ele>
        <time>2026-05-17T12:38:56.000Z</time>
      </trkpt>
      <trkpt lat="43.65144" lon="3.33118">
        <ele>181.5</ele>
        <time>2026-05-17T12:38:57.000Z</time>
      </trkpt>
      <trkpt lat="43.65144" lon="3.33119">
        <ele>181.3</ele>
        <time>2026-05-17T12:38:58.000Z</time>
      </trkpt>
      <trkpt lat="43.65145" lon="3.33119">
        <ele>181.2</ele>
        <time>2026-05-17T12:38:59.000Z</time>
      </trkpt>
      <trkpt lat="43.65146" lon="3.33121">
        <ele>181.9</ele>
        <time>2026-05-17T12:39:00.000Z</time>
      </trkpt>
      <trkpt lat="43.65147" lon="3.33122">
        <ele>182.5</ele>
        <time>2026-05-17T12:39:01.000Z</time>
      </trkpt>
      <trkpt lat="43.65148" lon="3.33124">
        <ele>182.3</ele>
        <time>2026-05-17T12:39:02.000Z</time>
      </trkpt>
      <trkpt lat="43.65148" lon="3.33125">
        <ele>182.2</ele>
        <time>2026-05-17T12:39:03.000Z</time>
      </trkpt>
      <trkpt lat="43.65149" lon="3.33126">
        <ele>182.2</ele>
        <time>2026-05-17T12:39:04.000Z</time>
      </trkpt>
      <trkpt lat="43.65149" lon="3.33127">
        <ele>182.9</ele>
        <time>2026-05-17T12:39:05.000Z</time>
      </trkpt>
      <trkpt lat="43.6515" lon="3.33128">
        <ele>183.2</ele>
        <time>2026-05-17T12:39:06.000Z</time>
      </trkpt>
      <trkpt lat="43.65151" lon="3.33129">
        <ele>183.8</ele>
        <time>2026-05-17T12:39:07.000Z</time>
      </trkpt>
      <trkpt lat="43.65151" lon="3.3313">
        <ele>183.6</ele>
        <time>2026-05-17T12:39:08.000Z</time>
      </trkpt>
      <trkpt lat="43.65152" lon="3.3313">
        <ele>183.9</ele>
        <time>2026-05-17T12:39:09.000Z</time>
      </trkpt>
      <trkpt lat="43.65152" lon="3.33131">
        <ele>184.1</ele>
        <time>2026-05-17T12:39:10.000Z</time>
      </trkpt>
      <trkpt lat="43.65151" lon="3.33133">
        <ele>184.1</ele>
        <time>2026-05-17T12:39:11.000Z</time>
      </trkpt>
      <trkpt lat="43.65151" lon="3.33134">
        <ele>184.3</ele>
        <time>2026-05-17T12:39:12.000Z</time>
      </trkpt>
      <trkpt lat="43.65151" lon="3.33135">
        <ele>184.2</ele>
        <time>2026-05-17T12:39:13.000Z</time>
      </trkpt>
      <trkpt lat="43.65151" lon="3.33137">
        <ele>184.3</ele>
        <time>2026-05-17T12:39:14.000Z</time>
      </trkpt>
      <trkpt lat="43.65151" lon="3.33138">
        <ele>184.8</ele>
        <time>2026-05-17T12:39:15.000Z</time>
      </trkpt>
      <trkpt lat="43.65151" lon="3.33139">
        <ele>185.4</ele>
        <time>2026-05-17T12:39:16.000Z</time>
      </trkpt>
      <trkpt lat="43.6515" lon="3.3314">
        <ele>185.9</ele>
        <time>2026-05-17T12:39:17.000Z</time>
      </trkpt>
      <trkpt lat="43.6515" lon="3.3314">
        <ele>186</ele>
        <time>2026-05-17T12:39:18.000Z</time>
      </trkpt>
      <trkpt lat="43.6515" lon="3.33141">
        <ele>186</ele>
        <time>2026-05-17T12:39:19.000Z</time>
      </trkpt>
      <trkpt lat="43.65149" lon="3.33142">
        <ele>186.2</ele>
        <time>2026-05-17T12:39:20.000Z</time>
      </trkpt>
      <trkpt lat="43.65149" lon="3.33143">
        <ele>186.2</ele>
        <time>2026-05-17T12:39:21.000Z</time>
      </trkpt>
      <trkpt lat="43.65148" lon="3.33145">
        <ele>186.3</ele>
        <time>2026-05-17T12:39:22.000Z</time>
      </trkpt>
      <trkpt lat="43.65148" lon="3.33146">
        <ele>186.4</ele>
        <time>2026-05-17T12:39:23.000Z</time>
      </trkpt>
      <trkpt lat="43.65147" lon="3.33147">
        <ele>186.4</ele>
        <time>2026-05-17T12:39:24.000Z</time>
      </trkpt>
      <trkpt lat="43.65147" lon="3.33148">
        <ele>186.5</ele>
        <time>2026-05-17T12:39:25.000Z</time>
      </trkpt>
      <trkpt lat="43.65146" lon="3.33149">
        <ele>186.7</ele>
        <time>2026-05-17T12:39:26.000Z</time>
      </trkpt>
      <trkpt lat="43.65145" lon="3.33151">
        <ele>186.6</ele>
        <time>2026-05-17T12:39:27.000Z</time>
      </trkpt>
      <trkpt lat="43.65144" lon="3.33154">
        <ele>186.5</ele>
        <time>2026-05-17T12:39:28.000Z</time>
      </trkpt>
      <trkpt lat="43.65144" lon="3.33156">
        <ele>186.5</ele>
        <time>2026-05-17T12:39:29.000Z</time>
      </trkpt>
      <trkpt lat="43.65143" lon="3.33158">
        <ele>186.5</ele>
        <time>2026-05-17T12:39:30.000Z</time>
      </trkpt>
      <trkpt lat="43.65143" lon="3.3316">
        <ele>186.5</ele>
        <time>2026-05-17T12:39:31.000Z</time>
      </trkpt>
      <trkpt lat="43.65142" lon="3.33161">
        <ele>186.6</ele>
        <time>2026-05-17T12:39:32.000Z</time>
      </trkpt>
      <trkpt lat="43.65142" lon="3.33163">
        <ele>186.3</ele>
        <time>2026-05-17T12:39:33.000Z</time>
      </trkpt>
      <trkpt lat="43.65141" lon="3.33164">
        <ele>186.1</ele>
        <time>2026-05-17T12:39:34.000Z</time>
      </trkpt>
      <trkpt lat="43.6514" lon="3.33166">
        <ele>186</ele>
        <time>2026-05-17T12:39:35.000Z</time>
      </trkpt>
      <trkpt lat="43.6514" lon="3.33168">
        <ele>186.1</ele>
        <time>2026-05-17T12:39:36.000Z</time>
      </trkpt>
      <trkpt lat="43.6514" lon="3.33169">
        <ele>186.1</ele>
        <time>2026-05-17T12:39:37.000Z</time>
      </trkpt>
      <trkpt lat="43.65139" lon="3.33171">
        <ele>186.1</ele>
        <time>2026-05-17T12:39:38.000Z</time>
      </trkpt>
      <trkpt lat="43.65139" lon="3.33173">
        <ele>186.2</ele>
        <time>2026-05-17T12:39:39.000Z</time>
      </trkpt>
      <trkpt lat="43.65138" lon="3.33176">
        <ele>186.2</ele>
        <time>2026-05-17T12:39:40.000Z</time>
      </trkpt>
      <trkpt lat="43.65138" lon="3.33178">
        <ele>186.5</ele>
        <time>2026-05-17T12:39:41.000Z</time>
      </trkpt>
      <trkpt lat="43.65138" lon="3.3318">
        <ele>186.4</ele>
        <time>2026-05-17T12:39:42.000Z</time>
      </trkpt>
      <trkpt lat="43.65137" lon="3.33182">
        <ele>186.7</ele>
        <time>2026-05-17T12:39:43.000Z</time>
      </trkpt>
      <trkpt lat="43.65137" lon="3.33183">
        <ele>187</ele>
        <time>2026-05-17T12:39:44.000Z</time>
      </trkpt>
      <trkpt lat="43.65136" lon="3.33184">
        <ele>186.9</ele>
        <time>2026-05-17T12:39:45.000Z</time>
      </trkpt>
      <trkpt lat="43.65136" lon="3.33185">
        <ele>187</ele>
        <time>2026-05-17T12:39:46.000Z</time>
      </trkpt>
      <trkpt lat="43.65135" lon="3.33187">
        <ele>187.1</ele>
        <time>2026-05-17T12:39:47.000Z</time>
      </trkpt>
      <trkpt lat="43.65134" lon="3.33188">
        <ele>187.1</ele>
        <time>2026-05-17T12:39:48.000Z</time>
      </trkpt>
      <trkpt lat="43.65134" lon="3.3319">
        <ele>187.2</ele>
        <time>2026-05-17T12:39:49.000Z</time>
      </trkpt>
      <trkpt lat="43.65133" lon="3.33192">
        <ele>187</ele>
        <time>2026-05-17T12:39:50.000Z</time>
      </trkpt>
      <trkpt lat="43.65133" lon="3.33195">
        <ele>186.7</ele>
        <time>2026-05-17T12:39:51.000Z</time>
      </trkpt>
      <trkpt lat="43.65132" lon="3.33197">
        <ele>186.6</ele>
        <time>2026-05-17T12:39:52.000Z</time>
      </trkpt>
      <trkpt lat="43.65132" lon="3.332">
        <ele>186.7</ele>
        <time>2026-05-17T12:39:53.000Z</time>
      </trkpt>
      <trkpt lat="43.65131" lon="3.33202">
        <ele>186.7</ele>
        <time>2026-05-17T12:39:54.000Z</time>
      </trkpt>
      <trkpt lat="43.65131" lon="3.33204">
        <ele>186.5</ele>
        <time>2026-05-17T12:39:55.000Z</time>
      </trkpt>
      <trkpt lat="43.6513" lon="3.33206">
        <ele>186.1</ele>
        <time>2026-05-17T12:39:56.000Z</time>
      </trkpt>
      <trkpt lat="43.6513" lon="3.33207">
        <ele>185.9</ele>
        <time>2026-05-17T12:39:57.000Z</time>
      </trkpt>
      <trkpt lat="43.6513" lon="3.33208">
        <ele>186.3</ele>
        <time>2026-05-17T12:39:58.000Z</time>
      </trkpt>
      <trkpt lat="43.6513" lon="3.33209">
        <ele>186.1</ele>
        <time>2026-05-17T12:39:59.000Z</time>
      </trkpt>
      <trkpt lat="43.6513" lon="3.33211">
        <ele>186</ele>
        <time>2026-05-17T12:40:00.000Z</time>
      </trkpt>
      <trkpt lat="43.65131" lon="3.33214">
        <ele>185.7</ele>
        <time>2026-05-17T12:40:01.000Z</time>
      </trkpt>
      <trkpt lat="43.6513" lon="3.33216">
        <ele>185.7</ele>
        <time>2026-05-17T12:40:02.000Z</time>
      </trkpt>
      <trkpt lat="43.6513" lon="3.33218">
        <ele>185.7</ele>
        <time>2026-05-17T12:40:03.000Z</time>
      </trkpt>
      <trkpt lat="43.65129" lon="3.3322">
        <ele>185.9</ele>
        <time>2026-05-17T12:40:04.000Z</time>
      </trkpt>
      <trkpt lat="43.65129" lon="3.33221">
        <ele>185.7</ele>
        <time>2026-05-17T12:40:05.000Z</time>
      </trkpt>
      <trkpt lat="43.65129" lon="3.33223">
        <ele>185.4</ele>
        <time>2026-05-17T12:40:06.000Z</time>
      </trkpt>
      <trkpt lat="43.65128" lon="3.33224">
        <ele>185.3</ele>
        <time>2026-05-17T12:40:07.000Z</time>
      </trkpt>
      <trkpt lat="43.65128" lon="3.33225">
        <ele>185.2</ele>
        <time>2026-05-17T12:40:08.000Z</time>
      </trkpt>
      <trkpt lat="43.65128" lon="3.33226">
        <ele>185</ele>
        <time>2026-05-17T12:40:09.000Z</time>
      </trkpt>
      <trkpt lat="43.65128" lon="3.33227">
        <ele>185</ele>
        <time>2026-05-17T12:40:10.000Z</time>
      </trkpt>
      <trkpt lat="43.65128" lon="3.33228">
        <ele>184.9</ele>
        <time>2026-05-17T12:40:11.000Z</time>
      </trkpt>
      <trkpt lat="43.65128" lon="3.33229">
        <ele>184.9</ele>
        <time>2026-05-17T12:40:12.000Z</time>
      </trkpt>
      <trkpt lat="43.65127" lon="3.33231">
        <ele>184.7</ele>
        <time>2026-05-17T12:40:13.000Z</time>
      </trkpt>
      <trkpt lat="43.65127" lon="3.33233">
        <ele>184</ele>
        <time>2026-05-17T12:40:14.000Z</time>
      </trkpt>
      <trkpt lat="43.65126" lon="3.33235">
        <ele>183.5</ele>
        <time>2026-05-17T12:40:15.000Z</time>
      </trkpt>
      <trkpt lat="43.65125" lon="3.33237">
        <ele>183.3</ele>
        <time>2026-05-17T12:40:16.000Z</time>
      </trkpt>
      <trkpt lat="43.65125" lon="3.33238">
        <ele>182.9</ele>
        <time>2026-05-17T12:40:17.000Z</time>
      </trkpt>
      <trkpt lat="43.65124" lon="3.33239">
        <ele>182.8</ele>
        <time>2026-05-17T12:40:18.000Z</time>
      </trkpt>
      <trkpt lat="43.65123" lon="3.3324">
        <ele>182.7</ele>
        <time>2026-05-17T12:40:19.000Z</time>
      </trkpt>
      <trkpt lat="43.65123" lon="3.33242">
        <ele>182.5</ele>
        <time>2026-05-17T12:40:20.000Z</time>
      </trkpt>
      <trkpt lat="43.65122" lon="3.33244">
        <ele>182.6</ele>
        <time>2026-05-17T12:40:21.000Z</time>
      </trkpt>
      <trkpt lat="43.65121" lon="3.33246">
        <ele>182.7</ele>
        <time>2026-05-17T12:40:22.000Z</time>
      </trkpt>
      <trkpt lat="43.65121" lon="3.33247">
        <ele>182.8</ele>
        <time>2026-05-17T12:40:23.000Z</time>
      </trkpt>
      <trkpt lat="43.6512" lon="3.33248">
        <ele>183</ele>
        <time>2026-05-17T12:40:24.000Z</time>
      </trkpt>
      <trkpt lat="43.6512" lon="3.3325">
        <ele>183.4</ele>
        <time>2026-05-17T12:40:25.000Z</time>
      </trkpt>
      <trkpt lat="43.65119" lon="3.33252">
        <ele>183.4</ele>
        <time>2026-05-17T12:40:26.000Z</time>
      </trkpt>
      <trkpt lat="43.65118" lon="3.33253">
        <ele>183.6</ele>
        <time>2026-05-17T12:40:27.000Z</time>
      </trkpt>
      <trkpt lat="43.65117" lon="3.33255">
        <ele>183.4</ele>
        <time>2026-05-17T12:40:28.000Z</time>
      </trkpt>
      <trkpt lat="43.65116" lon="3.33257">
        <ele>183.4</ele>
        <time>2026-05-17T12:40:29.000Z</time>
      </trkpt>
      <trkpt lat="43.65115" lon="3.33259">
        <ele>183.4</ele>
        <time>2026-05-17T12:40:30.000Z</time>
      </trkpt>
      <trkpt lat="43.65115" lon="3.33261">
        <ele>183.4</ele>
        <time>2026-05-17T12:40:31.000Z</time>
      </trkpt>
      <trkpt lat="43.65114" lon="3.33263">
        <ele>183.4</ele>
        <time>2026-05-17T12:40:32.000Z</time>
      </trkpt>
      <trkpt lat="43.65113" lon="3.33265">
        <ele>183.2</ele>
        <time>2026-05-17T12:40:33.000Z</time>
      </trkpt>
      <trkpt lat="43.65113" lon="3.33266">
        <ele>183.4</ele>
        <time>2026-05-17T12:40:34.000Z</time>
      </trkpt>
      <trkpt lat="43.65112" lon="3.33268">
        <ele>183.5</ele>
        <time>2026-05-17T12:40:35.000Z</time>
      </trkpt>
      <trkpt lat="43.65111" lon="3.3327">
        <ele>183.6</ele>
        <time>2026-05-17T12:40:36.000Z</time>
      </trkpt>
      <trkpt lat="43.65111" lon="3.33271">
        <ele>183.8</ele>
        <time>2026-05-17T12:40:37.000Z</time>
      </trkpt>
      <trkpt lat="43.65111" lon="3.33273">
        <ele>183.8</ele>
        <time>2026-05-17T12:40:38.000Z</time>
      </trkpt>
      <trkpt lat="43.6511" lon="3.33275">
        <ele>183.6</ele>
        <time>2026-05-17T12:40:39.000Z</time>
      </trkpt>
      <trkpt lat="43.6511" lon="3.33278">
        <ele>183.4</ele>
        <time>2026-05-17T12:40:40.000Z</time>
      </trkpt>
      <trkpt lat="43.6511" lon="3.3328">
        <ele>183.4</ele>
        <time>2026-05-17T12:40:41.000Z</time>
      </trkpt>
      <trkpt lat="43.6511" lon="3.33282">
        <ele>183.3</ele>
        <time>2026-05-17T12:40:42.000Z</time>
      </trkpt>
      <trkpt lat="43.6511" lon="3.33284">
        <ele>183.1</ele>
        <time>2026-05-17T12:40:43.000Z</time>
      </trkpt>
      <trkpt lat="43.6511" lon="3.33286">
        <ele>182.8</ele>
        <time>2026-05-17T12:40:44.000Z</time>
      </trkpt>
      <trkpt lat="43.6511" lon="3.33287">
        <ele>182.4</ele>
        <time>2026-05-17T12:40:45.000Z</time>
      </trkpt>
      <trkpt lat="43.65111" lon="3.33289">
        <ele>181.6</ele>
        <time>2026-05-17T12:40:46.000Z</time>
      </trkpt>
      <trkpt lat="43.65111" lon="3.33291">
        <ele>181.4</ele>
        <time>2026-05-17T12:40:47.000Z</time>
      </trkpt>
      <trkpt lat="43.65111" lon="3.33292">
        <ele>181.3</ele>
        <time>2026-05-17T12:40:48.000Z</time>
      </trkpt>
      <trkpt lat="43.65112" lon="3.33294">
        <ele>181.1</ele>
        <time>2026-05-17T12:40:49.000Z</time>
      </trkpt>
      <trkpt lat="43.65112" lon="3.33296">
        <ele>180.7</ele>
        <time>2026-05-17T12:40:50.000Z</time>
      </trkpt>
      <trkpt lat="43.65113" lon="3.33298">
        <ele>180.7</ele>
        <time>2026-05-17T12:40:51.000Z</time>
      </trkpt>
      <trkpt lat="43.65113" lon="3.333">
        <ele>180.4</ele>
        <time>2026-05-17T12:40:52.000Z</time>
      </trkpt>
      <trkpt lat="43.65114" lon="3.33302">
        <ele>180</ele>
        <time>2026-05-17T12:40:53.000Z</time>
      </trkpt>
      <trkpt lat="43.65114" lon="3.33303">
        <ele>179.8</ele>
        <time>2026-05-17T12:40:54.000Z</time>
      </trkpt>
      <trkpt lat="43.65114" lon="3.33304">
        <ele>179.9</ele>
        <time>2026-05-17T12:40:55.000Z</time>
      </trkpt>
      <trkpt lat="43.65114" lon="3.33305">
        <ele>180</ele>
        <time>2026-05-17T12:40:56.000Z</time>
      </trkpt>
      <trkpt lat="43.65114" lon="3.33306">
        <ele>180</ele>
        <time>2026-05-17T12:40:57.000Z</time>
      </trkpt>
      <trkpt lat="43.65114" lon="3.33307">
        <ele>179.4</ele>
        <time>2026-05-17T12:40:58.000Z</time>
      </trkpt>
      <trkpt lat="43.65114" lon="3.33308">
        <ele>178.8</ele>
        <time>2026-05-17T12:40:59.000Z</time>
      </trkpt>
      <trkpt lat="43.65114" lon="3.33309">
        <ele>178.3</ele>
        <time>2026-05-17T12:41:00.000Z</time>
      </trkpt>
      <trkpt lat="43.65115" lon="3.3331">
        <ele>178.1</ele>
        <time>2026-05-17T12:41:01.000Z</time>
      </trkpt>
      <trkpt lat="43.65115" lon="3.33311">
        <ele>178.3</ele>
        <time>2026-05-17T12:41:02.000Z</time>
      </trkpt>
      <trkpt lat="43.65116" lon="3.33312">
        <ele>178.2</ele>
        <time>2026-05-17T12:41:03.000Z</time>
      </trkpt>
      <trkpt lat="43.65116" lon="3.33313">
        <ele>178.2</ele>
        <time>2026-05-17T12:41:04.000Z</time>
      </trkpt>
      <trkpt lat="43.65117" lon="3.33313">
        <ele>178.2</ele>
        <time>2026-05-17T12:41:05.000Z</time>
      </trkpt>
      <trkpt lat="43.65116" lon="3.33313">
        <ele>178.6</ele>
        <time>2026-05-17T12:41:06.000Z</time>
      </trkpt>
      <trkpt lat="43.65117" lon="3.33314">
        <ele>178.6</ele>
        <time>2026-05-17T12:41:07.000Z</time>
      </trkpt>
      <trkpt lat="43.65117" lon="3.33316">
        <ele>178.7</ele>
        <time>2026-05-17T12:41:08.000Z</time>
      </trkpt>
      <trkpt lat="43.65118" lon="3.33317">
        <ele>178.7</ele>
        <time>2026-05-17T12:41:09.000Z</time>
      </trkpt>
      <trkpt lat="43.65119" lon="3.33318">
        <ele>178.8</ele>
        <time>2026-05-17T12:41:10.000Z</time>
      </trkpt>
      <trkpt lat="43.6512" lon="3.3332">
        <ele>179.3</ele>
        <time>2026-05-17T12:41:11.000Z</time>
      </trkpt>
      <trkpt lat="43.6512" lon="3.33321">
        <ele>179.5</ele>
        <time>2026-05-17T12:41:12.000Z</time>
      </trkpt>
      <trkpt lat="43.65121" lon="3.33323">
        <ele>179.6</ele>
        <time>2026-05-17T12:41:13.000Z</time>
      </trkpt>
      <trkpt lat="43.65121" lon="3.33325">
        <ele>179.4</ele>
        <time>2026-05-17T12:41:14.000Z</time>
      </trkpt>
      <trkpt lat="43.65121" lon="3.33327">
        <ele>179.4</ele>
        <time>2026-05-17T12:41:15.000Z</time>
      </trkpt>
      <trkpt lat="43.65121" lon="3.33329">
        <ele>179.2</ele>
        <time>2026-05-17T12:41:16.000Z</time>
      </trkpt>
      <trkpt lat="43.65122" lon="3.33331">
        <ele>179</ele>
        <time>2026-05-17T12:41:17.000Z</time>
      </trkpt>
      <trkpt lat="43.65123" lon="3.33333">
        <ele>178.6</ele>
        <time>2026-05-17T12:41:18.000Z</time>
      </trkpt>
      <trkpt lat="43.65123" lon="3.33335">
        <ele>178.7</ele>
        <time>2026-05-17T12:41:19.000Z</time>
      </trkpt>
      <trkpt lat="43.65124" lon="3.33336">
        <ele>178.9</ele>
        <time>2026-05-17T12:41:20.000Z</time>
      </trkpt>
      <trkpt lat="43.65125" lon="3.33336">
        <ele>178.8</ele>
        <time>2026-05-17T12:41:21.000Z</time>
      </trkpt>
      <trkpt lat="43.65126" lon="3.33337">
        <ele>178.7</ele>
        <time>2026-05-17T12:41:22.000Z</time>
      </trkpt>
      <trkpt lat="43.65126" lon="3.33337">
        <ele>178.6</ele>
        <time>2026-05-17T12:41:23.000Z</time>
      </trkpt>
      <trkpt lat="43.65126" lon="3.33337">
        <ele>178.6</ele>
        <time>2026-05-17T12:41:24.000Z</time>
      </trkpt>
      <trkpt lat="43.65126" lon="3.33337">
        <ele>178.7</ele>
        <time>2026-05-17T12:41:25.000Z</time>
      </trkpt>
      <trkpt lat="43.65126" lon="3.33337">
        <ele>179</ele>
        <time>2026-05-17T12:41:26.000Z</time>
      </trkpt>
      <trkpt lat="43.65126" lon="3.33337">
        <ele>179</ele>
        <time>2026-05-17T12:41:27.000Z</time>
      </trkpt>
      <trkpt lat="43.65126" lon="3.33337">
        <ele>179</ele>
        <time>2026-05-17T12:41:28.000Z</time>
      </trkpt>
      <trkpt lat="43.65126" lon="3.33337">
        <ele>179.2</ele>
        <time>2026-05-17T12:41:29.000Z</time>
      </trkpt>
      <trkpt lat="43.65126" lon="3.33337">
        <ele>179.3</ele>
        <time>2026-05-17T12:41:30.000Z</time>
      </trkpt>
      <trkpt lat="43.65126" lon="3.33336">
        <ele>179.3</ele>
        <time>2026-05-17T12:41:31.000Z</time>
      </trkpt>
      <trkpt lat="43.65126" lon="3.33336">
        <ele>179.2</ele>
        <time>2026-05-17T12:41:32.000Z</time>
      </trkpt>
      <trkpt lat="43.65126" lon="3.33337">
        <ele>179.1</ele>
        <time>2026-05-17T12:41:33.000Z</time>
      </trkpt>
      <trkpt lat="43.65126" lon="3.33338">
        <ele>179.3</ele>
        <time>2026-05-17T12:41:34.000Z</time>
      </trkpt>
      <trkpt lat="43.65126" lon="3.33339">
        <ele>179.4</ele>
        <time>2026-05-17T12:41:35.000Z</time>
      </trkpt>
      <trkpt lat="43.65127" lon="3.33339">
        <ele>179.5</ele>
        <time>2026-05-17T12:41:36.000Z</time>
      </trkpt>
      <trkpt lat="43.65128" lon="3.3334">
        <ele>179.6</ele>
        <time>2026-05-17T12:41:37.000Z</time>
      </trkpt>
      <trkpt lat="43.65129" lon="3.33342">
        <ele>179.6</ele>
        <time>2026-05-17T12:41:38.000Z</time>
      </trkpt>
      <trkpt lat="43.65129" lon="3.33343">
        <ele>179.5</ele>
        <time>2026-05-17T12:41:39.000Z</time>
      </trkpt>
      <trkpt lat="43.6513" lon="3.33344">
        <ele>179.5</ele>
        <time>2026-05-17T12:41:40.000Z</time>
      </trkpt>
      <trkpt lat="43.65132" lon="3.33345">
        <ele>180.1</ele>
        <time>2026-05-17T12:41:41.000Z</time>
      </trkpt>
      <trkpt lat="43.65132" lon="3.33346">
        <ele>180.3</ele>
        <time>2026-05-17T12:41:42.000Z</time>
      </trkpt>
      <trkpt lat="43.65133" lon="3.33347">
        <ele>180.7</ele>
        <time>2026-05-17T12:41:43.000Z</time>
      </trkpt>
      <trkpt lat="43.65134" lon="3.33348">
        <ele>180.9</ele>
        <time>2026-05-17T12:41:44.000Z</time>
      </trkpt>
      <trkpt lat="43.65135" lon="3.33349">
        <ele>181.4</ele>
        <time>2026-05-17T12:41:45.000Z</time>
      </trkpt>
      <trkpt lat="43.65136" lon="3.3335">
        <ele>181.6</ele>
        <time>2026-05-17T12:41:46.000Z</time>
      </trkpt>
      <trkpt lat="43.65137" lon="3.33351">
        <ele>181.9</ele>
        <time>2026-05-17T12:41:47.000Z</time>
      </trkpt>
      <trkpt lat="43.65138" lon="3.33353">
        <ele>182</ele>
        <time>2026-05-17T12:41:48.000Z</time>
      </trkpt>
      <trkpt lat="43.65139" lon="3.33354">
        <ele>181.7</ele>
        <time>2026-05-17T12:41:49.000Z</time>
      </trkpt>
      <trkpt lat="43.65139" lon="3.33355">
        <ele>181.5</ele>
        <time>2026-05-17T12:41:50.000Z</time>
      </trkpt>
      <trkpt lat="43.6514" lon="3.33356">
        <ele>181.4</ele>
        <time>2026-05-17T12:41:51.000Z</time>
      </trkpt>
      <trkpt lat="43.65141" lon="3.33357">
        <ele>181.2</ele>
        <time>2026-05-17T12:41:52.000Z</time>
      </trkpt>
      <trkpt lat="43.65141" lon="3.33359">
        <ele>180.8</ele>
        <time>2026-05-17T12:41:53.000Z</time>
      </trkpt>
      <trkpt lat="43.65142" lon="3.33359">
        <ele>180.9</ele>
        <time>2026-05-17T12:41:54.000Z</time>
      </trkpt>
      <trkpt lat="43.65143" lon="3.3336">
        <ele>181.1</ele>
        <time>2026-05-17T12:41:55.000Z</time>
      </trkpt>
      <trkpt lat="43.65144" lon="3.33361">
        <ele>181.1</ele>
        <time>2026-05-17T12:41:56.000Z</time>
      </trkpt>
      <trkpt lat="43.65145" lon="3.33362">
        <ele>181.3</ele>
        <time>2026-05-17T12:41:57.000Z</time>
      </trkpt>
      <trkpt lat="43.65147" lon="3.33363">
        <ele>181.6</ele>
        <time>2026-05-17T12:41:58.000Z</time>
      </trkpt>
      <trkpt lat="43.65149" lon="3.33365">
        <ele>181.8</ele>
        <time>2026-05-17T12:41:59.000Z</time>
      </trkpt>
      <trkpt lat="43.6515" lon="3.33366">
        <ele>181.7</ele>
        <time>2026-05-17T12:42:00.000Z</time>
      </trkpt>
      <trkpt lat="43.65151" lon="3.33367">
        <ele>181.7</ele>
        <time>2026-05-17T12:42:01.000Z</time>
      </trkpt>
      <trkpt lat="43.65151" lon="3.33367">
        <ele>181.6</ele>
        <time>2026-05-17T12:42:02.000Z</time>
      </trkpt>
      <trkpt lat="43.65152" lon="3.33367">
        <ele>181.6</ele>
        <time>2026-05-17T12:42:03.000Z</time>
      </trkpt>
      <trkpt lat="43.65153" lon="3.33368">
        <ele>181.6</ele>
        <time>2026-05-17T12:42:04.000Z</time>
      </trkpt>
      <trkpt lat="43.65153" lon="3.33369">
        <ele>181.6</ele>
        <time>2026-05-17T12:42:05.000Z</time>
      </trkpt>
      <trkpt lat="43.65154" lon="3.3337">
        <ele>181.7</ele>
        <time>2026-05-17T12:42:06.000Z</time>
      </trkpt>
      <trkpt lat="43.65155" lon="3.33371">
        <ele>181.8</ele>
        <time>2026-05-17T12:42:07.000Z</time>
      </trkpt>
      <trkpt lat="43.65156" lon="3.33372">
        <ele>181.8</ele>
        <time>2026-05-17T12:42:08.000Z</time>
      </trkpt>
      <trkpt lat="43.65158" lon="3.33373">
        <ele>181.7</ele>
        <time>2026-05-17T12:42:09.000Z</time>
      </trkpt>
      <trkpt lat="43.65159" lon="3.33375">
        <ele>181.8</ele>
        <time>2026-05-17T12:42:10.000Z</time>
      </trkpt>
      <trkpt lat="43.6516" lon="3.33376">
        <ele>181.5</ele>
        <time>2026-05-17T12:42:11.000Z</time>
      </trkpt>
      <trkpt lat="43.65162" lon="3.33377">
        <ele>181.4</ele>
        <time>2026-05-17T12:42:12.000Z</time>
      </trkpt>
      <trkpt lat="43.65163" lon="3.33378">
        <ele>181.2</ele>
        <time>2026-05-17T12:42:13.000Z</time>
      </trkpt>
      <trkpt lat="43.65164" lon="3.33378">
        <ele>181.1</ele>
        <time>2026-05-17T12:42:14.000Z</time>
      </trkpt>
      <trkpt lat="43.65166" lon="3.33379">
        <ele>180.9</ele>
        <time>2026-05-17T12:42:15.000Z</time>
      </trkpt>
      <trkpt lat="43.65167" lon="3.3338">
        <ele>180.8</ele>
        <time>2026-05-17T12:42:16.000Z</time>
      </trkpt>
      <trkpt lat="43.65169" lon="3.33381">
        <ele>181</ele>
        <time>2026-05-17T12:42:17.000Z</time>
      </trkpt>
      <trkpt lat="43.6517" lon="3.33382">
        <ele>181.5</ele>
        <time>2026-05-17T12:42:18.000Z</time>
      </trkpt>
      <trkpt lat="43.65171" lon="3.33384">
        <ele>181.7</ele>
        <time>2026-05-17T12:42:19.999Z</time>
      </trkpt>
      <trkpt lat="43.65172" lon="3.33385">
        <ele>181.5</ele>
        <time>2026-05-17T12:42:20.999Z</time>
      </trkpt>
      <trkpt lat="43.65173" lon="3.33386">
        <ele>181.1</ele>
        <time>2026-05-17T12:42:21.999Z</time>
      </trkpt>
      <trkpt lat="43.65173" lon="3.33387">
        <ele>181.1</ele>
        <time>2026-05-17T12:42:22.999Z</time>
      </trkpt>
      <trkpt lat="43.65174" lon="3.33388">
        <ele>181</ele>
        <time>2026-05-17T12:42:23.999Z</time>
      </trkpt>
      <trkpt lat="43.65174" lon="3.33388">
        <ele>180.8</ele>
        <time>2026-05-17T12:42:24.999Z</time>
      </trkpt>
      <trkpt lat="43.65175" lon="3.33389">
        <ele>180.4</ele>
        <time>2026-05-17T12:42:25.999Z</time>
      </trkpt>
      <trkpt lat="43.65175" lon="3.33389">
        <ele>180.3</ele>
        <time>2026-05-17T12:42:26.999Z</time>
      </trkpt>
      <trkpt lat="43.65176" lon="3.3339">
        <ele>180</ele>
        <time>2026-05-17T12:42:27.999Z</time>
      </trkpt>
      <trkpt lat="43.65177" lon="3.33391">
        <ele>179.9</ele>
        <time>2026-05-17T12:42:28.999Z</time>
      </trkpt>
      <trkpt lat="43.65177" lon="3.33392">
        <ele>179.6</ele>
        <time>2026-05-17T12:42:29.999Z</time>
      </trkpt>
      <trkpt lat="43.65178" lon="3.33393">
        <ele>179.7</ele>
        <time>2026-05-17T12:42:30.999Z</time>
      </trkpt>
      <trkpt lat="43.65178" lon="3.33394">
        <ele>179.8</ele>
        <time>2026-05-17T12:42:31.999Z</time>
      </trkpt>
      <trkpt lat="43.65179" lon="3.33395">
        <ele>179.8</ele>
        <time>2026-05-17T12:42:32.999Z</time>
      </trkpt>
      <trkpt lat="43.6518" lon="3.33396">
        <ele>179.8</ele>
        <time>2026-05-17T12:42:33.999Z</time>
      </trkpt>
      <trkpt lat="43.6518" lon="3.33397">
        <ele>179.8</ele>
        <time>2026-05-17T12:42:34.999Z</time>
      </trkpt>
      <trkpt lat="43.65181" lon="3.33399">
        <ele>180.4</ele>
        <time>2026-05-17T12:42:35.999Z</time>
      </trkpt>
      <trkpt lat="43.65183" lon="3.334">
        <ele>180.7</ele>
        <time>2026-05-17T12:42:36.999Z</time>
      </trkpt>
      <trkpt lat="43.65184" lon="3.33401">
        <ele>181</ele>
        <time>2026-05-17T12:42:37.999Z</time>
      </trkpt>
      <trkpt lat="43.65185" lon="3.33402">
        <ele>181.1</ele>
        <time>2026-05-17T12:42:38.999Z</time>
      </trkpt>
      <trkpt lat="43.65186" lon="3.33403">
        <ele>181.3</ele>
        <time>2026-05-17T12:42:39.999Z</time>
      </trkpt>
      <trkpt lat="43.65187" lon="3.33404">
        <ele>181</ele>
        <time>2026-05-17T12:42:40.999Z</time>
      </trkpt>
      <trkpt lat="43.65188" lon="3.33406">
        <ele>180.9</ele>
        <time>2026-05-17T12:42:41.999Z</time>
      </trkpt>
      <trkpt lat="43.65189" lon="3.33407">
        <ele>180.7</ele>
        <time>2026-05-17T12:42:42.999Z</time>
      </trkpt>
      <trkpt lat="43.65191" lon="3.33409">
        <ele>180.6</ele>
        <time>2026-05-17T12:42:43.999Z</time>
      </trkpt>
      <trkpt lat="43.65192" lon="3.3341">
        <ele>180.6</ele>
        <time>2026-05-17T12:42:44.999Z</time>
      </trkpt>
      <trkpt lat="43.65193" lon="3.33412">
        <ele>180.5</ele>
        <time>2026-05-17T12:42:45.999Z</time>
      </trkpt>
      <trkpt lat="43.65194" lon="3.33413">
        <ele>180.6</ele>
        <time>2026-05-17T12:42:46.999Z</time>
      </trkpt>
      <trkpt lat="43.65194" lon="3.33414">
        <ele>180.6</ele>
        <time>2026-05-17T12:42:47.999Z</time>
      </trkpt>
      <trkpt lat="43.65195" lon="3.33414">
        <ele>180.4</ele>
        <time>2026-05-17T12:42:48.999Z</time>
      </trkpt>
      <trkpt lat="43.65196" lon="3.33415">
        <ele>180.5</ele>
        <time>2026-05-17T12:42:49.999Z</time>
      </trkpt>
      <trkpt lat="43.65198" lon="3.33416">
        <ele>180.4</ele>
        <time>2026-05-17T12:42:50.999Z</time>
      </trkpt>
      <trkpt lat="43.65199" lon="3.33418">
        <ele>180.3</ele>
        <time>2026-05-17T12:42:51.999Z</time>
      </trkpt>
      <trkpt lat="43.652" lon="3.33419">
        <ele>180.2</ele>
        <time>2026-05-17T12:42:52.999Z</time>
      </trkpt>
      <trkpt lat="43.65201" lon="3.33421">
        <ele>180.5</ele>
        <time>2026-05-17T12:42:53.999Z</time>
      </trkpt>
      <trkpt lat="43.65203" lon="3.33422">
        <ele>180.7</ele>
        <time>2026-05-17T12:42:54.999Z</time>
      </trkpt>
      <trkpt lat="43.65204" lon="3.33424">
        <ele>180.4</ele>
        <time>2026-05-17T12:42:55.999Z</time>
      </trkpt>
      <trkpt lat="43.65204" lon="3.33425">
        <ele>180.2</ele>
        <time>2026-05-17T12:42:56.999Z</time>
      </trkpt>
      <trkpt lat="43.65205" lon="3.33425">
        <ele>180.2</ele>
        <time>2026-05-17T12:42:57.999Z</time>
      </trkpt>
      <trkpt lat="43.65206" lon="3.33426">
        <ele>180.3</ele>
        <time>2026-05-17T12:42:58.999Z</time>
      </trkpt>
      <trkpt lat="43.65207" lon="3.33427">
        <ele>180</ele>
        <time>2026-05-17T12:42:59.999Z</time>
      </trkpt>
      <trkpt lat="43.65208" lon="3.33428">
        <ele>179.8</ele>
        <time>2026-05-17T12:43:00.999Z</time>
      </trkpt>
      <trkpt lat="43.65208" lon="3.33428">
        <ele>179.6</ele>
        <time>2026-05-17T12:43:01.999Z</time>
      </trkpt>
      <trkpt lat="43.65209" lon="3.33429">
        <ele>179.8</ele>
        <time>2026-05-17T12:43:02.999Z</time>
      </trkpt>
      <trkpt lat="43.65211" lon="3.33431">
        <ele>180</ele>
        <time>2026-05-17T12:43:03.999Z</time>
      </trkpt>
      <trkpt lat="43.65212" lon="3.33432">
        <ele>179.9</ele>
        <time>2026-05-17T12:43:04.999Z</time>
      </trkpt>
      <trkpt lat="43.65213" lon="3.33433">
        <ele>179.6</ele>
        <time>2026-05-17T12:43:05.999Z</time>
      </trkpt>
      <trkpt lat="43.65214" lon="3.33434">
        <ele>179.7</ele>
        <time>2026-05-17T12:43:06.999Z</time>
      </trkpt>
      <trkpt lat="43.65216" lon="3.33435">
        <ele>179.5</ele>
        <time>2026-05-17T12:43:07.999Z</time>
      </trkpt>
      <trkpt lat="43.65217" lon="3.33437">
        <ele>179.7</ele>
        <time>2026-05-17T12:43:08.999Z</time>
      </trkpt>
      <trkpt lat="43.65218" lon="3.33438">
        <ele>179.5</ele>
        <time>2026-05-17T12:43:09.999Z</time>
      </trkpt>
      <trkpt lat="43.65219" lon="3.33439">
        <ele>179.5</ele>
        <time>2026-05-17T12:43:10.999Z</time>
      </trkpt>
      <trkpt lat="43.6522" lon="3.3344">
        <ele>179.4</ele>
        <time>2026-05-17T12:43:11.999Z</time>
      </trkpt>
      <trkpt lat="43.65221" lon="3.33441">
        <ele>179.6</ele>
        <time>2026-05-17T12:43:12.999Z</time>
      </trkpt>
      <trkpt lat="43.65222" lon="3.33443">
        <ele>179.8</ele>
        <time>2026-05-17T12:43:13.999Z</time>
      </trkpt>
      <trkpt lat="43.65223" lon="3.33444">
        <ele>179.6</ele>
        <time>2026-05-17T12:43:14.999Z</time>
      </trkpt>
      <trkpt lat="43.65225" lon="3.33445">
        <ele>179.5</ele>
        <time>2026-05-17T12:43:15.999Z</time>
      </trkpt>
      <trkpt lat="43.65225" lon="3.33446">
        <ele>179.8</ele>
        <time>2026-05-17T12:43:16.999Z</time>
      </trkpt>
      <trkpt lat="43.65225" lon="3.33447">
        <ele>179.8</ele>
        <time>2026-05-17T12:43:17.999Z</time>
      </trkpt>
      <trkpt lat="43.65226" lon="3.33448">
        <ele>179.8</ele>
        <time>2026-05-17T12:43:18.999Z</time>
      </trkpt>
      <trkpt lat="43.65226" lon="3.33449">
        <ele>179.8</ele>
        <time>2026-05-17T12:43:19.999Z</time>
      </trkpt>
      <trkpt lat="43.65227" lon="3.3345">
        <ele>180</ele>
        <time>2026-05-17T12:43:20.999Z</time>
      </trkpt>
      <trkpt lat="43.65227" lon="3.33451">
        <ele>179.8</ele>
        <time>2026-05-17T12:43:21.999Z</time>
      </trkpt>
      <trkpt lat="43.65228" lon="3.33451">
        <ele>179.6</ele>
        <time>2026-05-17T12:43:22.999Z</time>
      </trkpt>
      <trkpt lat="43.65229" lon="3.33453">
        <ele>179.7</ele>
        <time>2026-05-17T12:43:23.999Z</time>
      </trkpt>
      <trkpt lat="43.6523" lon="3.33454">
        <ele>179.7</ele>
        <time>2026-05-17T12:43:24.999Z</time>
      </trkpt>
      <trkpt lat="43.65231" lon="3.33456">
        <ele>180.2</ele>
        <time>2026-05-17T12:43:25.999Z</time>
      </trkpt>
      <trkpt lat="43.65231" lon="3.33457">
        <ele>180.4</ele>
        <time>2026-05-17T12:43:26.999Z</time>
      </trkpt>
      <trkpt lat="43.65232" lon="3.33457">
        <ele>180.6</ele>
        <time>2026-05-17T12:43:27.999Z</time>
      </trkpt>
      <trkpt lat="43.65233" lon="3.33458">
        <ele>180.8</ele>
        <time>2026-05-17T12:43:28.999Z</time>
      </trkpt>
      <trkpt lat="43.65234" lon="3.33459">
        <ele>180.9</ele>
        <time>2026-05-17T12:43:29.999Z</time>
      </trkpt>
      <trkpt lat="43.65235" lon="3.33459">
        <ele>181.5</ele>
        <time>2026-05-17T12:43:30.999Z</time>
      </trkpt>
      <trkpt lat="43.65236" lon="3.3346">
        <ele>182</ele>
        <time>2026-05-17T12:43:31.999Z</time>
      </trkpt>
      <trkpt lat="43.65237" lon="3.33462">
        <ele>182.1</ele>
        <time>2026-05-17T12:43:32.999Z</time>
      </trkpt>
      <trkpt lat="43.65238" lon="3.33463">
        <ele>182.4</ele>
        <time>2026-05-17T12:43:33.999Z</time>
      </trkpt>
      <trkpt lat="43.65239" lon="3.33464">
        <ele>182.6</ele>
        <time>2026-05-17T12:43:34.999Z</time>
      </trkpt>
      <trkpt lat="43.65239" lon="3.33465">
        <ele>182.8</ele>
        <time>2026-05-17T12:43:35.999Z</time>
      </trkpt>
      <trkpt lat="43.65241" lon="3.33466">
        <ele>183.1</ele>
        <time>2026-05-17T12:43:36.999Z</time>
      </trkpt>
      <trkpt lat="43.65242" lon="3.33467">
        <ele>183.5</ele>
        <time>2026-05-17T12:43:37.999Z</time>
      </trkpt>
      <trkpt lat="43.65242" lon="3.33469">
        <ele>183.5</ele>
        <time>2026-05-17T12:43:38.999Z</time>
      </trkpt>
      <trkpt lat="43.65243" lon="3.33471">
        <ele>183.3</ele>
        <time>2026-05-17T12:43:39.999Z</time>
      </trkpt>
      <trkpt lat="43.65244" lon="3.33472">
        <ele>183.3</ele>
        <time>2026-05-17T12:43:40.999Z</time>
      </trkpt>
      <trkpt lat="43.65244" lon="3.33473">
        <ele>183.4</ele>
        <time>2026-05-17T12:43:41.999Z</time>
      </trkpt>
      <trkpt lat="43.65245" lon="3.33474">
        <ele>183.4</ele>
        <time>2026-05-17T12:43:42.999Z</time>
      </trkpt>
      <trkpt lat="43.65245" lon="3.33475">
        <ele>183.3</ele>
        <time>2026-05-17T12:43:43.999Z</time>
      </trkpt>
      <trkpt lat="43.65246" lon="3.33476">
        <ele>183.4</ele>
        <time>2026-05-17T12:43:44.999Z</time>
      </trkpt>
      <trkpt lat="43.65246" lon="3.33477">
        <ele>183.4</ele>
        <time>2026-05-17T12:43:45.999Z</time>
      </trkpt>
      <trkpt lat="43.65247" lon="3.33477">
        <ele>183</ele>
        <time>2026-05-17T12:43:46.999Z</time>
      </trkpt>
      <trkpt lat="43.65248" lon="3.33478">
        <ele>182.8</ele>
        <time>2026-05-17T12:43:47.999Z</time>
      </trkpt>
      <trkpt lat="43.65249" lon="3.33478">
        <ele>182.7</ele>
        <time>2026-05-17T12:43:48.999Z</time>
      </trkpt>
      <trkpt lat="43.6525" lon="3.33479">
        <ele>182.5</ele>
        <time>2026-05-17T12:43:49.999Z</time>
      </trkpt>
      <trkpt lat="43.65252" lon="3.3348">
        <ele>182.7</ele>
        <time>2026-05-17T12:43:50.999Z</time>
      </trkpt>
      <trkpt lat="43.65254" lon="3.33482">
        <ele>182.9</ele>
        <time>2026-05-17T12:43:51.999Z</time>
      </trkpt>
      <trkpt lat="43.65256" lon="3.33483">
        <ele>182.9</ele>
        <time>2026-05-17T12:43:52.999Z</time>
      </trkpt>
      <trkpt lat="43.65257" lon="3.33484">
        <ele>182.6</ele>
        <time>2026-05-17T12:43:53.999Z</time>
      </trkpt>
      <trkpt lat="43.65258" lon="3.33485">
        <ele>182.1</ele>
        <time>2026-05-17T12:43:54.999Z</time>
      </trkpt>
      <trkpt lat="43.65258" lon="3.33486">
        <ele>182.9</ele>
        <time>2026-05-17T12:43:55.999Z</time>
      </trkpt>
      <trkpt lat="43.65259" lon="3.33487">
        <ele>182.9</ele>
        <time>2026-05-17T12:43:56.999Z</time>
      </trkpt>
      <trkpt lat="43.6526" lon="3.33487">
        <ele>182.6</ele>
        <time>2026-05-17T12:43:57.999Z</time>
      </trkpt>
      <trkpt lat="43.65261" lon="3.33488">
        <ele>182.5</ele>
        <time>2026-05-17T12:43:58.999Z</time>
      </trkpt>
      <trkpt lat="43.65261" lon="3.33489">
        <ele>182.6</ele>
        <time>2026-05-17T12:43:59.999Z</time>
      </trkpt>
      <trkpt lat="43.65262" lon="3.3349">
        <ele>182.7</ele>
        <time>2026-05-17T12:44:00.999Z</time>
      </trkpt>
      <trkpt lat="43.65264" lon="3.3349">
        <ele>183.1</ele>
        <time>2026-05-17T12:44:01.999Z</time>
      </trkpt>
      <trkpt lat="43.65265" lon="3.33491">
        <ele>182.9</ele>
        <time>2026-05-17T12:44:02.999Z</time>
      </trkpt>
      <trkpt lat="43.65266" lon="3.33491">
        <ele>182.8</ele>
        <time>2026-05-17T12:44:03.999Z</time>
      </trkpt>
      <trkpt lat="43.65267" lon="3.33491">
        <ele>182.4</ele>
        <time>2026-05-17T12:44:04.999Z</time>
      </trkpt>
      <trkpt lat="43.65268" lon="3.33491">
        <ele>182.2</ele>
        <time>2026-05-17T12:44:05.999Z</time>
      </trkpt>
      <trkpt lat="43.6527" lon="3.33491">
        <ele>181.9</ele>
        <time>2026-05-17T12:44:06.999Z</time>
      </trkpt>
      <trkpt lat="43.65272" lon="3.33491">
        <ele>182.2</ele>
        <time>2026-05-17T12:44:07.999Z</time>
      </trkpt>
      <trkpt lat="43.65273" lon="3.33491">
        <ele>182.2</ele>
        <time>2026-05-17T12:44:08.999Z</time>
      </trkpt>
      <trkpt lat="43.65274" lon="3.33491">
        <ele>182.4</ele>
        <time>2026-05-17T12:44:09.999Z</time>
      </trkpt>
      <trkpt lat="43.65275" lon="3.33491">
        <ele>182.6</ele>
        <time>2026-05-17T12:44:10.999Z</time>
      </trkpt>
      <trkpt lat="43.65276" lon="3.3349">
        <ele>182.6</ele>
        <time>2026-05-17T12:44:11.999Z</time>
      </trkpt>
      <trkpt lat="43.65277" lon="3.33491">
        <ele>182.5</ele>
        <time>2026-05-17T12:44:12.999Z</time>
      </trkpt>
      <trkpt lat="43.65278" lon="3.3349">
        <ele>182.6</ele>
        <time>2026-05-17T12:44:13.999Z</time>
      </trkpt>
      <trkpt lat="43.65279" lon="3.3349">
        <ele>182.6</ele>
        <time>2026-05-17T12:44:14.999Z</time>
      </trkpt>
      <trkpt lat="43.65279" lon="3.33489">
        <ele>182.5</ele>
        <time>2026-05-17T12:44:15.999Z</time>
      </trkpt>
      <trkpt lat="43.6528" lon="3.33489">
        <ele>182.3</ele>
        <time>2026-05-17T12:44:16.999Z</time>
      </trkpt>
      <trkpt lat="43.65281" lon="3.33489">
        <ele>182</ele>
        <time>2026-05-17T12:44:17.999Z</time>
      </trkpt>
      <trkpt lat="43.65282" lon="3.33488">
        <ele>181.8</ele>
        <time>2026-05-17T12:44:18.999Z</time>
      </trkpt>
      <trkpt lat="43.65283" lon="3.33488">
        <ele>181.6</ele>
        <time>2026-05-17T12:44:19.999Z</time>
      </trkpt>
      <trkpt lat="43.65284" lon="3.33488">
        <ele>181.3</ele>
        <time>2026-05-17T12:44:20.999Z</time>
      </trkpt>
      <trkpt lat="43.65284" lon="3.33489">
        <ele>180.6</ele>
        <time>2026-05-17T12:44:21.999Z</time>
      </trkpt>
      <trkpt lat="43.65285" lon="3.3349">
        <ele>179.7</ele>
        <time>2026-05-17T12:44:22.999Z</time>
      </trkpt>
      <trkpt lat="43.65285" lon="3.3349">
        <ele>178.9</ele>
        <time>2026-05-17T12:44:23.999Z</time>
      </trkpt>
      <trkpt lat="43.65286" lon="3.33491">
        <ele>178.9</ele>
        <time>2026-05-17T12:44:24.999Z</time>
      </trkpt>
      <trkpt lat="43.65286" lon="3.33491">
        <ele>178.8</ele>
        <time>2026-05-17T12:44:25.999Z</time>
      </trkpt>
      <trkpt lat="43.65286" lon="3.33492">
        <ele>178.6</ele>
        <time>2026-05-17T12:44:26.999Z</time>
      </trkpt>
      <trkpt lat="43.65287" lon="3.33493">
        <ele>178.8</ele>
        <time>2026-05-17T12:44:27.999Z</time>
      </trkpt>
      <trkpt lat="43.65287" lon="3.33495">
        <ele>178.5</ele>
        <time>2026-05-17T12:44:28.999Z</time>
      </trkpt>
      <trkpt lat="43.65288" lon="3.33496">
        <ele>178.5</ele>
        <time>2026-05-17T12:44:29.999Z</time>
      </trkpt>
      <trkpt lat="43.65288" lon="3.33497">
        <ele>178.6</ele>
        <time>2026-05-17T12:44:30.999Z</time>
      </trkpt>
      <trkpt lat="43.65289" lon="3.33497">
        <ele>178.4</ele>
        <time>2026-05-17T12:44:31.999Z</time>
      </trkpt>
      <trkpt lat="43.65289" lon="3.33498">
        <ele>178.3</ele>
        <time>2026-05-17T12:44:32.999Z</time>
      </trkpt>
      <trkpt lat="43.6529" lon="3.33499">
        <ele>178.6</ele>
        <time>2026-05-17T12:44:33.999Z</time>
      </trkpt>
      <trkpt lat="43.6529" lon="3.335">
        <ele>179</ele>
        <time>2026-05-17T12:44:34.999Z</time>
      </trkpt>
      <trkpt lat="43.6529" lon="3.33501">
        <ele>178.9</ele>
        <time>2026-05-17T12:44:35.999Z</time>
      </trkpt>
      <trkpt lat="43.65291" lon="3.33502">
        <ele>178.7</ele>
        <time>2026-05-17T12:44:36.999Z</time>
      </trkpt>
      <trkpt lat="43.65292" lon="3.33503">
        <ele>178.7</ele>
        <time>2026-05-17T12:44:37.999Z</time>
      </trkpt>
      <trkpt lat="43.65292" lon="3.33505">
        <ele>179.1</ele>
        <time>2026-05-17T12:44:38.999Z</time>
      </trkpt>
      <trkpt lat="43.65293" lon="3.33506">
        <ele>179.3</ele>
        <time>2026-05-17T12:44:39.999Z</time>
      </trkpt>
      <trkpt lat="43.65294" lon="3.33508">
        <ele>179.3</ele>
        <time>2026-05-17T12:44:40.999Z</time>
      </trkpt>
      <trkpt lat="43.65294" lon="3.3351">
        <ele>179.4</ele>
        <time>2026-05-17T12:44:41.999Z</time>
      </trkpt>
      <trkpt lat="43.65294" lon="3.33511">
        <ele>179.3</ele>
        <time>2026-05-17T12:44:42.999Z</time>
      </trkpt>
      <trkpt lat="43.65295" lon="3.33512">
        <ele>179.6</ele>
        <time>2026-05-17T12:44:43.999Z</time>
      </trkpt>
      <trkpt lat="43.65295" lon="3.33514">
        <ele>180.1</ele>
        <time>2026-05-17T12:44:44.999Z</time>
      </trkpt>
      <trkpt lat="43.65296" lon="3.33515">
        <ele>180</ele>
        <time>2026-05-17T12:44:45.999Z</time>
      </trkpt>
      <trkpt lat="43.65297" lon="3.33517">
        <ele>180.2</ele>
        <time>2026-05-17T12:44:46.999Z</time>
      </trkpt>
      <trkpt lat="43.65298" lon="3.33519">
        <ele>180.2</ele>
        <time>2026-05-17T12:44:47.999Z</time>
      </trkpt>
      <trkpt lat="43.65298" lon="3.33522">
        <ele>180.3</ele>
        <time>2026-05-17T12:44:48.999Z</time>
      </trkpt>
      <trkpt lat="43.65299" lon="3.33525">
        <ele>181.3</ele>
        <time>2026-05-17T12:44:49.999Z</time>
      </trkpt>
      <trkpt lat="43.653" lon="3.33527">
        <ele>181.6</ele>
        <time>2026-05-17T12:44:50.999Z</time>
      </trkpt>
      <trkpt lat="43.653" lon="3.33527">
        <ele>182.3</ele>
        <time>2026-05-17T12:44:51.999Z</time>
      </trkpt>
      <trkpt lat="43.65301" lon="3.33528">
        <ele>182.4</ele>
        <time>2026-05-17T12:44:52.999Z</time>
      </trkpt>
      <trkpt lat="43.65302" lon="3.33529">
        <ele>182.6</ele>
        <time>2026-05-17T12:44:53.999Z</time>
      </trkpt>
      <trkpt lat="43.65302" lon="3.3353">
        <ele>183.5</ele>
        <time>2026-05-17T12:44:54.999Z</time>
      </trkpt>
      <trkpt lat="43.65303" lon="3.33531">
        <ele>183.6</ele>
        <time>2026-05-17T12:44:55.999Z</time>
      </trkpt>
      <trkpt lat="43.65303" lon="3.33531">
        <ele>184</ele>
        <time>2026-05-17T12:44:56.999Z</time>
      </trkpt>
      <trkpt lat="43.65304" lon="3.33531">
        <ele>183.9</ele>
        <time>2026-05-17T12:44:57.999Z</time>
      </trkpt>
      <trkpt lat="43.65305" lon="3.33532">
        <ele>184</ele>
        <time>2026-05-17T12:44:58.999Z</time>
      </trkpt>
      <trkpt lat="43.65306" lon="3.33533">
        <ele>184.1</ele>
        <time>2026-05-17T12:44:59.999Z</time>
      </trkpt>
      <trkpt lat="43.65308" lon="3.33534">
        <ele>184.5</ele>
        <time>2026-05-17T12:45:00.999Z</time>
      </trkpt>
      <trkpt lat="43.65309" lon="3.33534">
        <ele>184.5</ele>
        <time>2026-05-17T12:45:01.999Z</time>
      </trkpt>
      <trkpt lat="43.6531" lon="3.33535">
        <ele>184.4</ele>
        <time>2026-05-17T12:45:02.999Z</time>
      </trkpt>
      <trkpt lat="43.6531" lon="3.33535">
        <ele>184.1</ele>
        <time>2026-05-17T12:45:03.999Z</time>
      </trkpt>
      <trkpt lat="43.65311" lon="3.33535">
        <ele>183.7</ele>
        <time>2026-05-17T12:45:04.999Z</time>
      </trkpt>
      <trkpt lat="43.65311" lon="3.33536">
        <ele>183.3</ele>
        <time>2026-05-17T12:45:05.999Z</time>
      </trkpt>
      <trkpt lat="43.65312" lon="3.33537">
        <ele>182.8</ele>
        <time>2026-05-17T12:45:06.999Z</time>
      </trkpt>
      <trkpt lat="43.65312" lon="3.33538">
        <ele>182.6</ele>
        <time>2026-05-17T12:45:07.999Z</time>
      </trkpt>
      <trkpt lat="43.65312" lon="3.33538">
        <ele>182.1</ele>
        <time>2026-05-17T12:45:08.999Z</time>
      </trkpt>
      <trkpt lat="43.65312" lon="3.33538">
        <ele>181.7</ele>
        <time>2026-05-17T12:45:09.999Z</time>
      </trkpt>
      <trkpt lat="43.65312" lon="3.33539">
        <ele>182.4</ele>
        <time>2026-05-17T12:45:10.999Z</time>
      </trkpt>
      <trkpt lat="43.65312" lon="3.3354">
        <ele>182.9</ele>
        <time>2026-05-17T12:45:11.999Z</time>
      </trkpt>
      <trkpt lat="43.65312" lon="3.33541">
        <ele>182.9</ele>
        <time>2026-05-17T12:45:12.999Z</time>
      </trkpt>
      <trkpt lat="43.65313" lon="3.33542">
        <ele>182.5</ele>
        <time>2026-05-17T12:45:13.999Z</time>
      </trkpt>
      <trkpt lat="43.65313" lon="3.33543">
        <ele>182</ele>
        <time>2026-05-17T12:45:14.999Z</time>
      </trkpt>
      <trkpt lat="43.65314" lon="3.33544">
        <ele>181.2</ele>
        <time>2026-05-17T12:45:15.999Z</time>
      </trkpt>
      <trkpt lat="43.65314" lon="3.33545">
        <ele>180.9</ele>
        <time>2026-05-17T12:45:16.999Z</time>
      </trkpt>
      <trkpt lat="43.65314" lon="3.33545">
        <ele>180.5</ele>
        <time>2026-05-17T12:45:17.999Z</time>
      </trkpt>
      <trkpt lat="43.65314" lon="3.33545">
        <ele>180.4</ele>
        <time>2026-05-17T12:45:18.999Z</time>
      </trkpt>
      <trkpt lat="43.65314" lon="3.33545">
        <ele>180.1</ele>
        <time>2026-05-17T12:45:19.999Z</time>
      </trkpt>
      <trkpt lat="43.65315" lon="3.33545">
        <ele>179.6</ele>
        <time>2026-05-17T12:45:20.999Z</time>
      </trkpt>
      <trkpt lat="43.65315" lon="3.33546">
        <ele>179.4</ele>
        <time>2026-05-17T12:45:21.999Z</time>
      </trkpt>
      <trkpt lat="43.65317" lon="3.33548">
        <ele>178.7</ele>
        <time>2026-05-17T12:45:22.999Z</time>
      </trkpt>
      <trkpt lat="43.65318" lon="3.33549">
        <ele>178.6</ele>
        <time>2026-05-17T12:45:23.999Z</time>
      </trkpt>
      <trkpt lat="43.6532" lon="3.3355">
        <ele>178.5</ele>
        <time>2026-05-17T12:45:24.999Z</time>
      </trkpt>
      <trkpt lat="43.65322" lon="3.3355">
        <ele>178.4</ele>
        <time>2026-05-17T12:45:25.999Z</time>
      </trkpt>
      <trkpt lat="43.65323" lon="3.3355">
        <ele>178.5</ele>
        <time>2026-05-17T12:45:26.999Z</time>
      </trkpt>
      <trkpt lat="43.65324" lon="3.3355">
        <ele>178.8</ele>
        <time>2026-05-17T12:45:27.999Z</time>
      </trkpt>
      <trkpt lat="43.65325" lon="3.33549">
        <ele>178.8</ele>
        <time>2026-05-17T12:45:28.999Z</time>
      </trkpt>
      <trkpt lat="43.65327" lon="3.33548">
        <ele>178.9</ele>
        <time>2026-05-17T12:45:29.999Z</time>
      </trkpt>
      <trkpt lat="43.65328" lon="3.33546">
        <ele>179.1</ele>
        <time>2026-05-17T12:45:30.999Z</time>
      </trkpt>
      <trkpt lat="43.65329" lon="3.33545">
        <ele>179</ele>
        <time>2026-05-17T12:45:31.999Z</time>
      </trkpt>
      <trkpt lat="43.6533" lon="3.33545">
        <ele>178.9</ele>
        <time>2026-05-17T12:45:32.999Z</time>
      </trkpt>
      <trkpt lat="43.65331" lon="3.33543">
        <ele>178.6</ele>
        <time>2026-05-17T12:45:33.999Z</time>
      </trkpt>
      <trkpt lat="43.65332" lon="3.33542">
        <ele>178.4</ele>
        <time>2026-05-17T12:45:34.999Z</time>
      </trkpt>
      <trkpt lat="43.65333" lon="3.33541">
        <ele>178.6</ele>
        <time>2026-05-17T12:45:35.999Z</time>
      </trkpt>
      <trkpt lat="43.65333" lon="3.33541">
        <ele>178.4</ele>
        <time>2026-05-17T12:45:36.999Z</time>
      </trkpt>
      <trkpt lat="43.65335" lon="3.3354">
        <ele>178.2</ele>
        <time>2026-05-17T12:45:37.999Z</time>
      </trkpt>
      <trkpt lat="43.65336" lon="3.33539">
        <ele>178.1</ele>
        <time>2026-05-17T12:45:38.999Z</time>
      </trkpt>
      <trkpt lat="43.65338" lon="3.33538">
        <ele>178.1</ele>
        <time>2026-05-17T12:45:39.999Z</time>
      </trkpt>
      <trkpt lat="43.65339" lon="3.33538">
        <ele>178.2</ele>
        <time>2026-05-17T12:45:40.999Z</time>
      </trkpt>
      <trkpt lat="43.6534" lon="3.33538">
        <ele>178.2</ele>
        <time>2026-05-17T12:45:41.999Z</time>
      </trkpt>
      <trkpt lat="43.6534" lon="3.33537">
        <ele>177.6</ele>
        <time>2026-05-17T12:45:42.999Z</time>
      </trkpt>
      <trkpt lat="43.65341" lon="3.33536">
        <ele>177.7</ele>
        <time>2026-05-17T12:45:43.999Z</time>
      </trkpt>
      <trkpt lat="43.65342" lon="3.33535">
        <ele>177.8</ele>
        <time>2026-05-17T12:45:44.999Z</time>
      </trkpt>
      <trkpt lat="43.65343" lon="3.33534">
        <ele>177.8</ele>
        <time>2026-05-17T12:45:45.999Z</time>
      </trkpt>
      <trkpt lat="43.65344" lon="3.33534">
        <ele>178</ele>
        <time>2026-05-17T12:45:46.999Z</time>
      </trkpt>
      <trkpt lat="43.65346" lon="3.33534">
        <ele>177.8</ele>
        <time>2026-05-17T12:45:47.999Z</time>
      </trkpt>
      <trkpt lat="43.65347" lon="3.33533">
        <ele>177.5</ele>
        <time>2026-05-17T12:45:48.999Z</time>
      </trkpt>
      <trkpt lat="43.65348" lon="3.33533">
        <ele>177.6</ele>
        <time>2026-05-17T12:45:49.999Z</time>
      </trkpt>
      <trkpt lat="43.6535" lon="3.33533">
        <ele>177.6</ele>
        <time>2026-05-17T12:45:50.999Z</time>
      </trkpt>
      <trkpt lat="43.65351" lon="3.33534">
        <ele>177.7</ele>
        <time>2026-05-17T12:45:51.999Z</time>
      </trkpt>
      <trkpt lat="43.65352" lon="3.33534">
        <ele>177.8</ele>
        <time>2026-05-17T12:45:52.999Z</time>
      </trkpt>
      <trkpt lat="43.65354" lon="3.33534">
        <ele>177.7</ele>
        <time>2026-05-17T12:45:53.999Z</time>
      </trkpt>
      <trkpt lat="43.65355" lon="3.33534">
        <ele>177.9</ele>
        <time>2026-05-17T12:45:54.999Z</time>
      </trkpt>
      <trkpt lat="43.65356" lon="3.33534">
        <ele>178.3</ele>
        <time>2026-05-17T12:45:55.999Z</time>
      </trkpt>
      <trkpt lat="43.65357" lon="3.33535">
        <ele>178.5</ele>
        <time>2026-05-17T12:45:56.999Z</time>
      </trkpt>
      <trkpt lat="43.65359" lon="3.33535">
        <ele>178.7</ele>
        <time>2026-05-17T12:45:57.999Z</time>
      </trkpt>
      <trkpt lat="43.6536" lon="3.33535">
        <ele>178.6</ele>
        <time>2026-05-17T12:45:58.999Z</time>
      </trkpt>
      <trkpt lat="43.65362" lon="3.33536">
        <ele>178.5</ele>
        <time>2026-05-17T12:45:59.999Z</time>
      </trkpt>
      <trkpt lat="43.65363" lon="3.33536">
        <ele>178.3</ele>
        <time>2026-05-17T12:46:00.999Z</time>
      </trkpt>
      <trkpt lat="43.65365" lon="3.33537">
        <ele>178.3</ele>
        <time>2026-05-17T12:46:01.999Z</time>
      </trkpt>
      <trkpt lat="43.65366" lon="3.33537">
        <ele>178.4</ele>
        <time>2026-05-17T12:46:02.999Z</time>
      </trkpt>
      <trkpt lat="43.65366" lon="3.33537">
        <ele>178.1</ele>
        <time>2026-05-17T12:46:03.999Z</time>
      </trkpt>
      <trkpt lat="43.65367" lon="3.33537">
        <ele>178.1</ele>
        <time>2026-05-17T12:46:04.999Z</time>
      </trkpt>
      <trkpt lat="43.65368" lon="3.33537">
        <ele>178.3</ele>
        <time>2026-05-17T12:46:05.999Z</time>
      </trkpt>
      <trkpt lat="43.65369" lon="3.33537">
        <ele>178.6</ele>
        <time>2026-05-17T12:46:06.999Z</time>
      </trkpt>
      <trkpt lat="43.65371" lon="3.33538">
        <ele>178.5</ele>
        <time>2026-05-17T12:46:07.999Z</time>
      </trkpt>
      <trkpt lat="43.65372" lon="3.33538">
        <ele>178.3</ele>
        <time>2026-05-17T12:46:08.999Z</time>
      </trkpt>
      <trkpt lat="43.65373" lon="3.33538">
        <ele>178.2</ele>
        <time>2026-05-17T12:46:09.999Z</time>
      </trkpt>
      <trkpt lat="43.65376" lon="3.33539">
        <ele>178.3</ele>
        <time>2026-05-17T12:46:10.999Z</time>
      </trkpt>
      <trkpt lat="43.65378" lon="3.33539">
        <ele>178.7</ele>
        <time>2026-05-17T12:46:11.999Z</time>
      </trkpt>
      <trkpt lat="43.65379" lon="3.33539">
        <ele>179.1</ele>
        <time>2026-05-17T12:46:12.999Z</time>
      </trkpt>
      <trkpt lat="43.65381" lon="3.33539">
        <ele>179.2</ele>
        <time>2026-05-17T12:46:13.999Z</time>
      </trkpt>
      <trkpt lat="43.65381" lon="3.33539">
        <ele>179.4</ele>
        <time>2026-05-17T12:46:14.999Z</time>
      </trkpt>
      <trkpt lat="43.65382" lon="3.33539">
        <ele>179.2</ele>
        <time>2026-05-17T12:46:15.999Z</time>
      </trkpt>
      <trkpt lat="43.65383" lon="3.3354">
        <ele>179</ele>
        <time>2026-05-17T12:46:16.999Z</time>
      </trkpt>
      <trkpt lat="43.65383" lon="3.3354">
        <ele>178.9</ele>
        <time>2026-05-17T12:46:17.999Z</time>
      </trkpt>
      <trkpt lat="43.65385" lon="3.33541">
        <ele>179</ele>
        <time>2026-05-17T12:46:18.999Z</time>
      </trkpt>
      <trkpt lat="43.65386" lon="3.33541">
        <ele>179.2</ele>
        <time>2026-05-17T12:46:19.999Z</time>
      </trkpt>
      <trkpt lat="43.65388" lon="3.33541">
        <ele>179.3</ele>
        <time>2026-05-17T12:46:20.999Z</time>
      </trkpt>
      <trkpt lat="43.65388" lon="3.33541">
        <ele>179.2</ele>
        <time>2026-05-17T12:46:21.999Z</time>
      </trkpt>
      <trkpt lat="43.6539" lon="3.33542">
        <ele>179.3</ele>
        <time>2026-05-17T12:46:22.999Z</time>
      </trkpt>
      <trkpt lat="43.65392" lon="3.33543">
        <ele>179.1</ele>
        <time>2026-05-17T12:46:23.999Z</time>
      </trkpt>
      <trkpt lat="43.65393" lon="3.33544">
        <ele>179.2</ele>
        <time>2026-05-17T12:46:24.999Z</time>
      </trkpt>
      <trkpt lat="43.65395" lon="3.33544">
        <ele>179.1</ele>
        <time>2026-05-17T12:46:25.999Z</time>
      </trkpt>
      <trkpt lat="43.65396" lon="3.33544">
        <ele>179.1</ele>
        <time>2026-05-17T12:46:26.999Z</time>
      </trkpt>
      <trkpt lat="43.65398" lon="3.33544">
        <ele>179.1</ele>
        <time>2026-05-17T12:46:27.999Z</time>
      </trkpt>
      <trkpt lat="43.65399" lon="3.33544">
        <ele>179</ele>
        <time>2026-05-17T12:46:28.999Z</time>
      </trkpt>
      <trkpt lat="43.654" lon="3.33545">
        <ele>178.9</ele>
        <time>2026-05-17T12:46:29.999Z</time>
      </trkpt>
      <trkpt lat="43.65401" lon="3.33545">
        <ele>178.9</ele>
        <time>2026-05-17T12:46:30.999Z</time>
      </trkpt>
      <trkpt lat="43.65402" lon="3.33546">
        <ele>178.8</ele>
        <time>2026-05-17T12:46:31.999Z</time>
      </trkpt>
      <trkpt lat="43.65403" lon="3.33546">
        <ele>178.6</ele>
        <time>2026-05-17T12:46:32.999Z</time>
      </trkpt>
      <trkpt lat="43.65405" lon="3.33547">
        <ele>178.8</ele>
        <time>2026-05-17T12:46:33.999Z</time>
      </trkpt>
      <trkpt lat="43.65406" lon="3.33547">
        <ele>178.8</ele>
        <time>2026-05-17T12:46:34.999Z</time>
      </trkpt>
      <trkpt lat="43.65407" lon="3.33548">
        <ele>178.9</ele>
        <time>2026-05-17T12:46:35.999Z</time>
      </trkpt>
      <trkpt lat="43.65408" lon="3.33549">
        <ele>179.1</ele>
        <time>2026-05-17T12:46:36.999Z</time>
      </trkpt>
      <trkpt lat="43.65409" lon="3.3355">
        <ele>179.4</ele>
        <time>2026-05-17T12:46:37.999Z</time>
      </trkpt>
      <trkpt lat="43.65409" lon="3.3355">
        <ele>179.3</ele>
        <time>2026-05-17T12:46:38.999Z</time>
      </trkpt>
      <trkpt lat="43.6541" lon="3.33551">
        <ele>179.3</ele>
        <time>2026-05-17T12:46:39.999Z</time>
      </trkpt>
      <trkpt lat="43.65411" lon="3.33552">
        <ele>179.5</ele>
        <time>2026-05-17T12:46:40.999Z</time>
      </trkpt>
      <trkpt lat="43.65412" lon="3.33552">
        <ele>179.7</ele>
        <time>2026-05-17T12:46:41.999Z</time>
      </trkpt>
      <trkpt lat="43.65413" lon="3.33553">
        <ele>179.7</ele>
        <time>2026-05-17T12:46:42.999Z</time>
      </trkpt>
      <trkpt lat="43.65414" lon="3.33555">
        <ele>179.7</ele>
        <time>2026-05-17T12:46:43.999Z</time>
      </trkpt>
      <trkpt lat="43.65415" lon="3.33556">
        <ele>179.7</ele>
        <time>2026-05-17T12:46:44.999Z</time>
      </trkpt>
      <trkpt lat="43.65416" lon="3.33557">
        <ele>179.3</ele>
        <time>2026-05-17T12:46:45.999Z</time>
      </trkpt>
      <trkpt lat="43.65417" lon="3.33558">
        <ele>179.3</ele>
        <time>2026-05-17T12:46:46.999Z</time>
      </trkpt>
      <trkpt lat="43.65418" lon="3.33559">
        <ele>179.2</ele>
        <time>2026-05-17T12:46:47.999Z</time>
      </trkpt>
      <trkpt lat="43.65419" lon="3.3356">
        <ele>179</ele>
        <time>2026-05-17T12:46:48.999Z</time>
      </trkpt>
      <trkpt lat="43.6542" lon="3.33561">
        <ele>178.7</ele>
        <time>2026-05-17T12:46:49.999Z</time>
      </trkpt>
      <trkpt lat="43.6542" lon="3.33562">
        <ele>179</ele>
        <time>2026-05-17T12:46:50.999Z</time>
      </trkpt>
      <trkpt lat="43.65421" lon="3.33563">
        <ele>178.8</ele>
        <time>2026-05-17T12:46:51.999Z</time>
      </trkpt>
      <trkpt lat="43.65421" lon="3.33564">
        <ele>178.8</ele>
        <time>2026-05-17T12:46:52.999Z</time>
      </trkpt>
      <trkpt lat="43.65422" lon="3.33565">
        <ele>178.5</ele>
        <time>2026-05-17T12:46:53.999Z</time>
      </trkpt>
      <trkpt lat="43.65423" lon="3.33566">
        <ele>178.5</ele>
        <time>2026-05-17T12:46:54.999Z</time>
      </trkpt>
      <trkpt lat="43.65424" lon="3.33566">
        <ele>178.5</ele>
        <time>2026-05-17T12:46:55.999Z</time>
      </trkpt>
      <trkpt lat="43.65425" lon="3.33567">
        <ele>178.1</ele>
        <time>2026-05-17T12:46:56.999Z</time>
      </trkpt>
      <trkpt lat="43.65427" lon="3.33568">
        <ele>177.8</ele>
        <time>2026-05-17T12:46:57.999Z</time>
      </trkpt>
      <trkpt lat="43.65428" lon="3.33569">
        <ele>177.6</ele>
        <time>2026-05-17T12:46:58.999Z</time>
      </trkpt>
      <trkpt lat="43.65429" lon="3.3357">
        <ele>177.7</ele>
        <time>2026-05-17T12:46:59.999Z</time>
      </trkpt>
      <trkpt lat="43.6543" lon="3.33571">
        <ele>177.6</ele>
        <time>2026-05-17T12:47:00.999Z</time>
      </trkpt>
      <trkpt lat="43.6543" lon="3.33572">
        <ele>177.5</ele>
        <time>2026-05-17T12:47:01.999Z</time>
      </trkpt>
      <trkpt lat="43.65431" lon="3.33573">
        <ele>177.4</ele>
        <time>2026-05-17T12:47:02.999Z</time>
      </trkpt>
      <trkpt lat="43.65432" lon="3.33574">
        <ele>177.1</ele>
        <time>2026-05-17T12:47:03.999Z</time>
      </trkpt>
      <trkpt lat="43.65433" lon="3.33575">
        <ele>177.1</ele>
        <time>2026-05-17T12:47:04.999Z</time>
      </trkpt>
      <trkpt lat="43.65434" lon="3.33576">
        <ele>177.1</ele>
        <time>2026-05-17T12:47:05.999Z</time>
      </trkpt>
      <trkpt lat="43.65434" lon="3.33576">
        <ele>177</ele>
        <time>2026-05-17T12:47:06.999Z</time>
      </trkpt>
      <trkpt lat="43.65435" lon="3.33577">
        <ele>176.7</ele>
        <time>2026-05-17T12:47:07.999Z</time>
      </trkpt>
      <trkpt lat="43.65436" lon="3.33578">
        <ele>176.3</ele>
        <time>2026-05-17T12:47:08.999Z</time>
      </trkpt>
      <trkpt lat="43.65437" lon="3.33578">
        <ele>176</ele>
        <time>2026-05-17T12:47:09.999Z</time>
      </trkpt>
      <trkpt lat="43.65438" lon="3.33579">
        <ele>176.1</ele>
        <time>2026-05-17T12:47:10.999Z</time>
      </trkpt>
      <trkpt lat="43.65439" lon="3.3358">
        <ele>176.1</ele>
        <time>2026-05-17T12:47:11.999Z</time>
      </trkpt>
      <trkpt lat="43.6544" lon="3.33581">
        <ele>175.9</ele>
        <time>2026-05-17T12:47:12.999Z</time>
      </trkpt>
      <trkpt lat="43.6544" lon="3.33583">
        <ele>175.8</ele>
        <time>2026-05-17T12:47:13.999Z</time>
      </trkpt>
      <trkpt lat="43.65441" lon="3.33585">
        <ele>175.9</ele>
        <time>2026-05-17T12:47:14.999Z</time>
      </trkpt>
      <trkpt lat="43.65442" lon="3.33587">
        <ele>176.2</ele>
        <time>2026-05-17T12:47:15.999Z</time>
      </trkpt>
      <trkpt lat="43.65442" lon="3.33588">
        <ele>175.9</ele>
        <time>2026-05-17T12:47:16.999Z</time>
      </trkpt>
      <trkpt lat="43.65442" lon="3.33588">
        <ele>175.6</ele>
        <time>2026-05-17T12:47:17.999Z</time>
      </trkpt>
      <trkpt lat="43.65443" lon="3.33589">
        <ele>175.3</ele>
        <time>2026-05-17T12:47:18.999Z</time>
      </trkpt>
      <trkpt lat="43.65444" lon="3.3359">
        <ele>174.9</ele>
        <time>2026-05-17T12:47:19.999Z</time>
      </trkpt>
      <trkpt lat="43.65445" lon="3.33591">
        <ele>174.6</ele>
        <time>2026-05-17T12:47:20.999Z</time>
      </trkpt>
      <trkpt lat="43.65447" lon="3.33592">
        <ele>174.6</ele>
        <time>2026-05-17T12:47:21.999Z</time>
      </trkpt>
      <trkpt lat="43.65448" lon="3.33594">
        <ele>174.4</ele>
        <time>2026-05-17T12:47:22.999Z</time>
      </trkpt>
      <trkpt lat="43.6545" lon="3.33596">
        <ele>174.6</ele>
        <time>2026-05-17T12:47:23.999Z</time>
      </trkpt>
      <trkpt lat="43.65451" lon="3.33597">
        <ele>174.5</ele>
        <time>2026-05-17T12:47:24.999Z</time>
      </trkpt>
      <trkpt lat="43.65452" lon="3.33598">
        <ele>174.5</ele>
        <time>2026-05-17T12:47:25.999Z</time>
      </trkpt>
      <trkpt lat="43.65452" lon="3.33598">
        <ele>174.2</ele>
        <time>2026-05-17T12:47:26.999Z</time>
      </trkpt>
      <trkpt lat="43.65453" lon="3.33599">
        <ele>173.9</ele>
        <time>2026-05-17T12:47:27.999Z</time>
      </trkpt>
      <trkpt lat="43.65454" lon="3.33601">
        <ele>173.2</ele>
        <time>2026-05-17T12:47:28.999Z</time>
      </trkpt>
      <trkpt lat="43.65454" lon="3.33603">
        <ele>172.8</ele>
        <time>2026-05-17T12:47:29.999Z</time>
      </trkpt>
      <trkpt lat="43.65454" lon="3.33604">
        <ele>172.6</ele>
        <time>2026-05-17T12:47:30.999Z</time>
      </trkpt>
      <trkpt lat="43.65454" lon="3.33605">
        <ele>172.7</ele>
        <time>2026-05-17T12:47:31.999Z</time>
      </trkpt>
      <trkpt lat="43.65454" lon="3.33606">
        <ele>172.7</ele>
        <time>2026-05-17T12:47:32.999Z</time>
      </trkpt>
      <trkpt lat="43.65454" lon="3.33608">
        <ele>172.5</ele>
        <time>2026-05-17T12:47:33.999Z</time>
      </trkpt>
      <trkpt lat="43.65454" lon="3.3361">
        <ele>172.3</ele>
        <time>2026-05-17T12:47:34.999Z</time>
      </trkpt>
      <trkpt lat="43.65454" lon="3.33613">
        <ele>172.3</ele>
        <time>2026-05-17T12:47:35.999Z</time>
      </trkpt>
      <trkpt lat="43.65454" lon="3.33615">
        <ele>172.6</ele>
        <time>2026-05-17T12:47:36.999Z</time>
      </trkpt>
      <trkpt lat="43.65454" lon="3.33617">
        <ele>172.4</ele>
        <time>2026-05-17T12:47:37.999Z</time>
      </trkpt>
      <trkpt lat="43.65454" lon="3.33618">
        <ele>172.1</ele>
        <time>2026-05-17T12:47:38.999Z</time>
      </trkpt>
      <trkpt lat="43.65454" lon="3.33619">
        <ele>171.8</ele>
        <time>2026-05-17T12:47:39.999Z</time>
      </trkpt>
      <trkpt lat="43.65455" lon="3.33621">
        <ele>171.6</ele>
        <time>2026-05-17T12:47:40.999Z</time>
      </trkpt>
      <trkpt lat="43.65456" lon="3.33622">
        <ele>171.5</ele>
        <time>2026-05-17T12:47:41.999Z</time>
      </trkpt>
      <trkpt lat="43.65457" lon="3.33623">
        <ele>171.2</ele>
        <time>2026-05-17T12:47:42.999Z</time>
      </trkpt>
      <trkpt lat="43.65459" lon="3.33624">
        <ele>171.3</ele>
        <time>2026-05-17T12:47:43.999Z</time>
      </trkpt>
      <trkpt lat="43.6546" lon="3.33625">
        <ele>171.8</ele>
        <time>2026-05-17T12:47:44.999Z</time>
      </trkpt>
      <trkpt lat="43.65461" lon="3.33626">
        <ele>172.3</ele>
        <time>2026-05-17T12:47:45.999Z</time>
      </trkpt>
      <trkpt lat="43.65461" lon="3.33627">
        <ele>172.5</ele>
        <time>2026-05-17T12:47:46.999Z</time>
      </trkpt>
      <trkpt lat="43.65462" lon="3.33628">
        <ele>172.4</ele>
        <time>2026-05-17T12:47:47.999Z</time>
      </trkpt>
      <trkpt lat="43.65463" lon="3.3363">
        <ele>172.5</ele>
        <time>2026-05-17T12:47:48.999Z</time>
      </trkpt>
      <trkpt lat="43.65463" lon="3.33631">
        <ele>172.5</ele>
        <time>2026-05-17T12:47:49.999Z</time>
      </trkpt>
      <trkpt lat="43.65463" lon="3.33632">
        <ele>172.5</ele>
        <time>2026-05-17T12:47:50.999Z</time>
      </trkpt>
      <trkpt lat="43.65463" lon="3.33634">
        <ele>172.6</ele>
        <time>2026-05-17T12:47:51.999Z</time>
      </trkpt>
      <trkpt lat="43.65463" lon="3.33637">
        <ele>172.6</ele>
        <time>2026-05-17T12:47:52.999Z</time>
      </trkpt>
      <trkpt lat="43.65463" lon="3.33638">
        <ele>172.9</ele>
        <time>2026-05-17T12:47:53.999Z</time>
      </trkpt>
      <trkpt lat="43.65463" lon="3.33639">
        <ele>172.5</ele>
        <time>2026-05-17T12:47:54.999Z</time>
      </trkpt>
      <trkpt lat="43.65464" lon="3.3364">
        <ele>172.4</ele>
        <time>2026-05-17T12:47:55.999Z</time>
      </trkpt>
      <trkpt lat="43.65464" lon="3.33641">
        <ele>172.2</ele>
        <time>2026-05-17T12:47:56.999Z</time>
      </trkpt>
      <trkpt lat="43.65465" lon="3.33641">
        <ele>172</ele>
        <time>2026-05-17T12:47:57.999Z</time>
      </trkpt>
      <trkpt lat="43.65466" lon="3.33642">
        <ele>172</ele>
        <time>2026-05-17T12:47:58.999Z</time>
      </trkpt>
      <trkpt lat="43.65469" lon="3.33643">
        <ele>171.5</ele>
        <time>2026-05-17T12:47:59.999Z</time>
      </trkpt>
      <trkpt lat="43.6547" lon="3.33642">
        <ele>171.7</ele>
        <time>2026-05-17T12:48:00.999Z</time>
      </trkpt>
      <trkpt lat="43.65471" lon="3.33642">
        <ele>171.7</ele>
        <time>2026-05-17T12:48:01.999Z</time>
      </trkpt>
      <trkpt lat="43.65472" lon="3.3364">
        <ele>171.9</ele>
        <time>2026-05-17T12:48:02.999Z</time>
      </trkpt>
      <trkpt lat="43.65472" lon="3.33639">
        <ele>172</ele>
        <time>2026-05-17T12:48:03.999Z</time>
      </trkpt>
      <trkpt lat="43.65473" lon="3.33639">
        <ele>172.3</ele>
        <time>2026-05-17T12:48:04.999Z</time>
      </trkpt>
      <trkpt lat="43.65473" lon="3.33638">
        <ele>172.3</ele>
        <time>2026-05-17T12:48:05.999Z</time>
      </trkpt>
      <trkpt lat="43.65474" lon="3.33636">
        <ele>172.2</ele>
        <time>2026-05-17T12:48:06.999Z</time>
      </trkpt>
      <trkpt lat="43.65475" lon="3.33635">
        <ele>172.3</ele>
        <time>2026-05-17T12:48:07.999Z</time>
      </trkpt>
      <trkpt lat="43.65476" lon="3.33634">
        <ele>172.5</ele>
        <time>2026-05-17T12:48:08.999Z</time>
      </trkpt>
      <trkpt lat="43.65477" lon="3.33632">
        <ele>172.5</ele>
        <time>2026-05-17T12:48:09.999Z</time>
      </trkpt>
      <trkpt lat="43.65478" lon="3.33631">
        <ele>172.6</ele>
        <time>2026-05-17T12:48:10.999Z</time>
      </trkpt>
      <trkpt lat="43.65478" lon="3.33631">
        <ele>172.7</ele>
        <time>2026-05-17T12:48:11.999Z</time>
      </trkpt>
      <trkpt lat="43.65479" lon="3.3363">
        <ele>172.6</ele>
        <time>2026-05-17T12:48:12.999Z</time>
      </trkpt>
      <trkpt lat="43.6548" lon="3.33629">
        <ele>172.9</ele>
        <time>2026-05-17T12:48:13.999Z</time>
      </trkpt>
      <trkpt lat="43.65481" lon="3.33627">
        <ele>172.7</ele>
        <time>2026-05-17T12:48:14.999Z</time>
      </trkpt>
      <trkpt lat="43.65482" lon="3.33626">
        <ele>172.8</ele>
        <time>2026-05-17T12:48:15.999Z</time>
      </trkpt>
      <trkpt lat="43.65483" lon="3.33625">
        <ele>173</ele>
        <time>2026-05-17T12:48:16.999Z</time>
      </trkpt>
      <trkpt lat="43.65484" lon="3.33625">
        <ele>173.3</ele>
        <time>2026-05-17T12:48:17.999Z</time>
      </trkpt>
      <trkpt lat="43.65486" lon="3.33625">
        <ele>173.8</ele>
        <time>2026-05-17T12:48:18.999Z</time>
      </trkpt>
      <trkpt lat="43.65487" lon="3.33626">
        <ele>174.2</ele>
        <time>2026-05-17T12:48:19.999Z</time>
      </trkpt>
      <trkpt lat="43.65488" lon="3.33626">
        <ele>174.2</ele>
        <time>2026-05-17T12:48:20.999Z</time>
      </trkpt>
      <trkpt lat="43.65489" lon="3.33626">
        <ele>173.8</ele>
        <time>2026-05-17T12:48:21.999Z</time>
      </trkpt>
      <trkpt lat="43.6549" lon="3.33626">
        <ele>173.4</ele>
        <time>2026-05-17T12:48:22.999Z</time>
      </trkpt>
      <trkpt lat="43.65492" lon="3.33627">
        <ele>173.4</ele>
        <time>2026-05-17T12:48:23.999Z</time>
      </trkpt>
      <trkpt lat="43.65493" lon="3.33627">
        <ele>173.6</ele>
        <time>2026-05-17T12:48:24.999Z</time>
      </trkpt>
      <trkpt lat="43.65494" lon="3.33627">
        <ele>173.7</ele>
        <time>2026-05-17T12:48:25.999Z</time>
      </trkpt>
      <trkpt lat="43.65495" lon="3.33627">
        <ele>174.1</ele>
        <time>2026-05-17T12:48:26.999Z</time>
      </trkpt>
      <trkpt lat="43.65496" lon="3.33628">
        <ele>174</ele>
        <time>2026-05-17T12:48:27.999Z</time>
      </trkpt>
      <trkpt lat="43.65496" lon="3.33628">
        <ele>174.4</ele>
        <time>2026-05-17T12:48:28.999Z</time>
      </trkpt>
      <trkpt lat="43.65498" lon="3.33628">
        <ele>174.9</ele>
        <time>2026-05-17T12:48:29.999Z</time>
      </trkpt>
      <trkpt lat="43.655" lon="3.33628">
        <ele>174.9</ele>
        <time>2026-05-17T12:48:30.999Z</time>
      </trkpt>
      <trkpt lat="43.65501" lon="3.33627">
        <ele>174.9</ele>
        <time>2026-05-17T12:48:31.999Z</time>
      </trkpt>
      <trkpt lat="43.65503" lon="3.33627">
        <ele>175</ele>
        <time>2026-05-17T12:48:32.999Z</time>
      </trkpt>
      <trkpt lat="43.65505" lon="3.33625">
        <ele>174.8</ele>
        <time>2026-05-17T12:48:33.999Z</time>
      </trkpt>
      <trkpt lat="43.65506" lon="3.33625">
        <ele>174.9</ele>
        <time>2026-05-17T12:48:34.999Z</time>
      </trkpt>
      <trkpt lat="43.65506" lon="3.33625">
        <ele>174.7</ele>
        <time>2026-05-17T12:48:35.999Z</time>
      </trkpt>
      <trkpt lat="43.65507" lon="3.33625">
        <ele>174.4</ele>
        <time>2026-05-17T12:48:36.999Z</time>
      </trkpt>
      <trkpt lat="43.65509" lon="3.33625">
        <ele>174.5</ele>
        <time>2026-05-17T12:48:37.999Z</time>
      </trkpt>
      <trkpt lat="43.6551" lon="3.33626">
        <ele>174.4</ele>
        <time>2026-05-17T12:48:38.999Z</time>
      </trkpt>
      <trkpt lat="43.65511" lon="3.33626">
        <ele>174.1</ele>
        <time>2026-05-17T12:48:39.999Z</time>
      </trkpt>
      <trkpt lat="43.65512" lon="3.33625">
        <ele>173.7</ele>
        <time>2026-05-17T12:48:40.999Z</time>
      </trkpt>
      <trkpt lat="43.65512" lon="3.33625">
        <ele>173.7</ele>
        <time>2026-05-17T12:48:41.999Z</time>
      </trkpt>
      <trkpt lat="43.65513" lon="3.33625">
        <ele>173.6</ele>
        <time>2026-05-17T12:48:42.999Z</time>
      </trkpt>
      <trkpt lat="43.65513" lon="3.33626">
        <ele>173.2</ele>
        <time>2026-05-17T12:48:43.999Z</time>
      </trkpt>
      <trkpt lat="43.65514" lon="3.33626">
        <ele>172.9</ele>
        <time>2026-05-17T12:48:44.999Z</time>
      </trkpt>
      <trkpt lat="43.65515" lon="3.33627">
        <ele>173.1</ele>
        <time>2026-05-17T12:48:45.999Z</time>
      </trkpt>
      <trkpt lat="43.65516" lon="3.33627">
        <ele>173.4</ele>
        <time>2026-05-17T12:48:46.999Z</time>
      </trkpt>
      <trkpt lat="43.65517" lon="3.33628">
        <ele>173.6</ele>
        <time>2026-05-17T12:48:47.999Z</time>
      </trkpt>
      <trkpt lat="43.65518" lon="3.33629">
        <ele>173.5</ele>
        <time>2026-05-17T12:48:48.999Z</time>
      </trkpt>
      <trkpt lat="43.65518" lon="3.3363">
        <ele>173.6</ele>
        <time>2026-05-17T12:48:49.999Z</time>
      </trkpt>
      <trkpt lat="43.6552" lon="3.33631">
        <ele>173.8</ele>
        <time>2026-05-17T12:48:50.999Z</time>
      </trkpt>
      <trkpt lat="43.65521" lon="3.33631">
        <ele>174.1</ele>
        <time>2026-05-17T12:48:51.999Z</time>
      </trkpt>
      <trkpt lat="43.65522" lon="3.33632">
        <ele>174.4</ele>
        <time>2026-05-17T12:48:52.999Z</time>
      </trkpt>
      <trkpt lat="43.65523" lon="3.33633">
        <ele>174.7</ele>
        <time>2026-05-17T12:48:53.999Z</time>
      </trkpt>
      <trkpt lat="43.65523" lon="3.33634">
        <ele>174.8</ele>
        <time>2026-05-17T12:48:54.999Z</time>
      </trkpt>
      <trkpt lat="43.65524" lon="3.33634">
        <ele>174.8</ele>
        <time>2026-05-17T12:48:55.999Z</time>
      </trkpt>
      <trkpt lat="43.65525" lon="3.33635">
        <ele>175</ele>
        <time>2026-05-17T12:48:56.999Z</time>
      </trkpt>
      <trkpt lat="43.65526" lon="3.33636">
        <ele>174.9</ele>
        <time>2026-05-17T12:48:57.999Z</time>
      </trkpt>
      <trkpt lat="43.65527" lon="3.33637">
        <ele>174.9</ele>
        <time>2026-05-17T12:48:58.999Z</time>
      </trkpt>
      <trkpt lat="43.65529" lon="3.33638">
        <ele>174.6</ele>
        <time>2026-05-17T12:48:59.999Z</time>
      </trkpt>
      <trkpt lat="43.6553" lon="3.33638">
        <ele>174.3</ele>
        <time>2026-05-17T12:49:00.999Z</time>
      </trkpt>
      <trkpt lat="43.65531" lon="3.33639">
        <ele>174.3</ele>
        <time>2026-05-17T12:49:01.999Z</time>
      </trkpt>
      <trkpt lat="43.65532" lon="3.3364">
        <ele>174.3</ele>
        <time>2026-05-17T12:49:02.999Z</time>
      </trkpt>
      <trkpt lat="43.65533" lon="3.3364">
        <ele>174</ele>
        <time>2026-05-17T12:49:03.999Z</time>
      </trkpt>
      <trkpt lat="43.65534" lon="3.33641">
        <ele>173.8</ele>
        <time>2026-05-17T12:49:04.999Z</time>
      </trkpt>
      <trkpt lat="43.65535" lon="3.33642">
        <ele>173.7</ele>
        <time>2026-05-17T12:49:05.999Z</time>
      </trkpt>
      <trkpt lat="43.65536" lon="3.33642">
        <ele>173.7</ele>
        <time>2026-05-17T12:49:06.999Z</time>
      </trkpt>
      <trkpt lat="43.65537" lon="3.33644">
        <ele>173.8</ele>
        <time>2026-05-17T12:49:07.999Z</time>
      </trkpt>
      <trkpt lat="43.65538" lon="3.33644">
        <ele>173.9</ele>
        <time>2026-05-17T12:49:08.999Z</time>
      </trkpt>
      <trkpt lat="43.65539" lon="3.33645">
        <ele>174.1</ele>
        <time>2026-05-17T12:49:09.999Z</time>
      </trkpt>
      <trkpt lat="43.6554" lon="3.33646">
        <ele>174</ele>
        <time>2026-05-17T12:49:10.999Z</time>
      </trkpt>
      <trkpt lat="43.65541" lon="3.33646">
        <ele>174.1</ele>
        <time>2026-05-17T12:49:11.999Z</time>
      </trkpt>
      <trkpt lat="43.65542" lon="3.33647">
        <ele>173.9</ele>
        <time>2026-05-17T12:49:12.999Z</time>
      </trkpt>
      <trkpt lat="43.65543" lon="3.33647">
        <ele>173.5</ele>
        <time>2026-05-17T12:49:13.999Z</time>
      </trkpt>
      <trkpt lat="43.65544" lon="3.33648">
        <ele>173.5</ele>
        <time>2026-05-17T12:49:14.999Z</time>
      </trkpt>
      <trkpt lat="43.65545" lon="3.33649">
        <ele>173.5</ele>
        <time>2026-05-17T12:49:15.999Z</time>
      </trkpt>
      <trkpt lat="43.65546" lon="3.3365">
        <ele>173.8</ele>
        <time>2026-05-17T12:49:16.999Z</time>
      </trkpt>
      <trkpt lat="43.65547" lon="3.33651">
        <ele>173.8</ele>
        <time>2026-05-17T12:49:17.999Z</time>
      </trkpt>
      <trkpt lat="43.65548" lon="3.33651">
        <ele>173.4</ele>
        <time>2026-05-17T12:49:18.999Z</time>
      </trkpt>
      <trkpt lat="43.65549" lon="3.33652">
        <ele>173.6</ele>
        <time>2026-05-17T12:49:19.999Z</time>
      </trkpt>
      <trkpt lat="43.6555" lon="3.33652">
        <ele>173.4</ele>
        <time>2026-05-17T12:49:20.999Z</time>
      </trkpt>
      <trkpt lat="43.65551" lon="3.33652">
        <ele>173.8</ele>
        <time>2026-05-17T12:49:21.999Z</time>
      </trkpt>
      <trkpt lat="43.65552" lon="3.33652">
        <ele>173.7</ele>
        <time>2026-05-17T12:49:22.999Z</time>
      </trkpt>
      <trkpt lat="43.65553" lon="3.33654">
        <ele>173.7</ele>
        <time>2026-05-17T12:49:23.999Z</time>
      </trkpt>
      <trkpt lat="43.65555" lon="3.33655">
        <ele>173.5</ele>
        <time>2026-05-17T12:49:24.999Z</time>
      </trkpt>
      <trkpt lat="43.65556" lon="3.33656">
        <ele>173.1</ele>
        <time>2026-05-17T12:49:25.999Z</time>
      </trkpt>
      <trkpt lat="43.65557" lon="3.33657">
        <ele>172.9</ele>
        <time>2026-05-17T12:49:26.999Z</time>
      </trkpt>
      <trkpt lat="43.65558" lon="3.33657">
        <ele>173</ele>
        <time>2026-05-17T12:49:27.999Z</time>
      </trkpt>
      <trkpt lat="43.65558" lon="3.33658">
        <ele>172.9</ele>
        <time>2026-05-17T12:49:28.999Z</time>
      </trkpt>
      <trkpt lat="43.65559" lon="3.33659">
        <ele>172.7</ele>
        <time>2026-05-17T12:49:29.999Z</time>
      </trkpt>
      <trkpt lat="43.6556" lon="3.33659">
        <ele>172.5</ele>
        <time>2026-05-17T12:49:30.999Z</time>
      </trkpt>
      <trkpt lat="43.65561" lon="3.3366">
        <ele>172.4</ele>
        <time>2026-05-17T12:49:31.999Z</time>
      </trkpt>
      <trkpt lat="43.65562" lon="3.33661">
        <ele>172.5</ele>
        <time>2026-05-17T12:49:32.999Z</time>
      </trkpt>
      <trkpt lat="43.65564" lon="3.33662">
        <ele>172.5</ele>
        <time>2026-05-17T12:49:33.999Z</time>
      </trkpt>
      <trkpt lat="43.65565" lon="3.33663">
        <ele>172.5</ele>
        <time>2026-05-17T12:49:34.999Z</time>
      </trkpt>
      <trkpt lat="43.65566" lon="3.33664">
        <ele>172.5</ele>
        <time>2026-05-17T12:49:35.999Z</time>
      </trkpt>
      <trkpt lat="43.65566" lon="3.33664">
        <ele>172.5</ele>
        <time>2026-05-17T12:49:36.999Z</time>
      </trkpt>
      <trkpt lat="43.65567" lon="3.33665">
        <ele>172.6</ele>
        <time>2026-05-17T12:49:37.999Z</time>
      </trkpt>
      <trkpt lat="43.65567" lon="3.33666">
        <ele>172.7</ele>
        <time>2026-05-17T12:49:38.999Z</time>
      </trkpt>
      <trkpt lat="43.65568" lon="3.33667">
        <ele>172.6</ele>
        <time>2026-05-17T12:49:39.999Z</time>
      </trkpt>
      <trkpt lat="43.65569" lon="3.33669">
        <ele>172.5</ele>
        <time>2026-05-17T12:49:40.999Z</time>
      </trkpt>
      <trkpt lat="43.65569" lon="3.33671">
        <ele>172.4</ele>
        <time>2026-05-17T12:49:41.999Z</time>
      </trkpt>
      <trkpt lat="43.6557" lon="3.33673">
        <ele>172.3</ele>
        <time>2026-05-17T12:49:42.999Z</time>
      </trkpt>
      <trkpt lat="43.65571" lon="3.33675">
        <ele>172.3</ele>
        <time>2026-05-17T12:49:43.999Z</time>
      </trkpt>
      <trkpt lat="43.65571" lon="3.33677">
        <ele>172</ele>
        <time>2026-05-17T12:49:44.999Z</time>
      </trkpt>
      <trkpt lat="43.65571" lon="3.33678">
        <ele>171.8</ele>
        <time>2026-05-17T12:49:45.999Z</time>
      </trkpt>
      <trkpt lat="43.65571" lon="3.33679">
        <ele>171.7</ele>
        <time>2026-05-17T12:49:46.999Z</time>
      </trkpt>
      <trkpt lat="43.65572" lon="3.3368">
        <ele>172.1</ele>
        <time>2026-05-17T12:49:47.999Z</time>
      </trkpt>
      <trkpt lat="43.65573" lon="3.33682">
        <ele>171.9</ele>
        <time>2026-05-17T12:49:48.999Z</time>
      </trkpt>
      <trkpt lat="43.65574" lon="3.33684">
        <ele>171.9</ele>
        <time>2026-05-17T12:49:49.999Z</time>
      </trkpt>
      <trkpt lat="43.65576" lon="3.33685">
        <ele>171.8</ele>
        <time>2026-05-17T12:49:50.999Z</time>
      </trkpt>
      <trkpt lat="43.65576" lon="3.33687">
        <ele>171.4</ele>
        <time>2026-05-17T12:49:51.999Z</time>
      </trkpt>
      <trkpt lat="43.65577" lon="3.33688">
        <ele>171.2</ele>
        <time>2026-05-17T12:49:52.999Z</time>
      </trkpt>
      <trkpt lat="43.65577" lon="3.33689">
        <ele>170.9</ele>
        <time>2026-05-17T12:49:53.999Z</time>
      </trkpt>
      <trkpt lat="43.65578" lon="3.33689">
        <ele>170.7</ele>
        <time>2026-05-17T12:49:54.999Z</time>
      </trkpt>
      <trkpt lat="43.65578" lon="3.3369">
        <ele>170.4</ele>
        <time>2026-05-17T12:49:55.999Z</time>
      </trkpt>
      <trkpt lat="43.65579" lon="3.33692">
        <ele>170</ele>
        <time>2026-05-17T12:49:56.999Z</time>
      </trkpt>
      <trkpt lat="43.6558" lon="3.33693">
        <ele>169.8</ele>
        <time>2026-05-17T12:49:57.999Z</time>
      </trkpt>
      <trkpt lat="43.6558" lon="3.33694">
        <ele>169.8</ele>
        <time>2026-05-17T12:49:58.999Z</time>
      </trkpt>
      <trkpt lat="43.65581" lon="3.33696">
        <ele>170</ele>
        <time>2026-05-17T12:49:59.999Z</time>
      </trkpt>
      <trkpt lat="43.65581" lon="3.33698">
        <ele>170.6</ele>
        <time>2026-05-17T12:50:00.999Z</time>
      </trkpt>
      <trkpt lat="43.65581" lon="3.33699">
        <ele>171.3</ele>
        <time>2026-05-17T12:50:01.999Z</time>
      </trkpt>
      <trkpt lat="43.65581" lon="3.337">
        <ele>171.8</ele>
        <time>2026-05-17T12:50:02.999Z</time>
      </trkpt>
      <trkpt lat="43.65581" lon="3.33702">
        <ele>171.8</ele>
        <time>2026-05-17T12:50:03.999Z</time>
      </trkpt>
      <trkpt lat="43.65581" lon="3.33703">
        <ele>171.7</ele>
        <time>2026-05-17T12:50:04.999Z</time>
      </trkpt>
      <trkpt lat="43.65581" lon="3.33705">
        <ele>171.5</ele>
        <time>2026-05-17T12:50:05.999Z</time>
      </trkpt>
      <trkpt lat="43.65581" lon="3.33707">
        <ele>171.6</ele>
        <time>2026-05-17T12:50:06.999Z</time>
      </trkpt>
      <trkpt lat="43.6558" lon="3.33708">
        <ele>171.9</ele>
        <time>2026-05-17T12:50:07.999Z</time>
      </trkpt>
      <trkpt lat="43.6558" lon="3.33709">
        <ele>171.9</ele>
        <time>2026-05-17T12:50:08.999Z</time>
      </trkpt>
      <trkpt lat="43.65579" lon="3.33711">
        <ele>172</ele>
        <time>2026-05-17T12:50:09.999Z</time>
      </trkpt>
      <trkpt lat="43.65578" lon="3.33712">
        <ele>171.7</ele>
        <time>2026-05-17T12:50:10.999Z</time>
      </trkpt>
      <trkpt lat="43.65577" lon="3.33714">
        <ele>171.6</ele>
        <time>2026-05-17T12:50:11.999Z</time>
      </trkpt>
      <trkpt lat="43.65577" lon="3.33716">
        <ele>171.5</ele>
        <time>2026-05-17T12:50:12.999Z</time>
      </trkpt>
      <trkpt lat="43.65577" lon="3.33718">
        <ele>171.4</ele>
        <time>2026-05-17T12:50:13.999Z</time>
      </trkpt>
      <trkpt lat="43.65577" lon="3.3372">
        <ele>171.2</ele>
        <time>2026-05-17T12:50:14.999Z</time>
      </trkpt>
      <trkpt lat="43.65577" lon="3.33721">
        <ele>171.4</ele>
        <time>2026-05-17T12:50:15.999Z</time>
      </trkpt>
      <trkpt lat="43.65577" lon="3.33723">
        <ele>171.6</ele>
        <time>2026-05-17T12:50:16.999Z</time>
      </trkpt>
      <trkpt lat="43.65577" lon="3.33725">
        <ele>172</ele>
        <time>2026-05-17T12:50:17.999Z</time>
      </trkpt>
      <trkpt lat="43.65577" lon="3.33728">
        <ele>172.6</ele>
        <time>2026-05-17T12:50:18.999Z</time>
      </trkpt>
      <trkpt lat="43.65577" lon="3.3373">
        <ele>172.8</ele>
        <time>2026-05-17T12:50:19.999Z</time>
      </trkpt>
      <trkpt lat="43.65577" lon="3.33731">
        <ele>172.9</ele>
        <time>2026-05-17T12:50:20.999Z</time>
      </trkpt>
      <trkpt lat="43.65577" lon="3.33733">
        <ele>172.4</ele>
        <time>2026-05-17T12:50:21.999Z</time>
      </trkpt>
      <trkpt lat="43.65577" lon="3.33734">
        <ele>172.1</ele>
        <time>2026-05-17T12:50:22.999Z</time>
      </trkpt>
      <trkpt lat="43.65577" lon="3.33735">
        <ele>172.1</ele>
        <time>2026-05-17T12:50:23.999Z</time>
      </trkpt>
      <trkpt lat="43.65577" lon="3.33736">
        <ele>172</ele>
        <time>2026-05-17T12:50:24.999Z</time>
      </trkpt>
      <trkpt lat="43.65577" lon="3.33737">
        <ele>172.3</ele>
        <time>2026-05-17T12:50:25.999Z</time>
      </trkpt>
      <trkpt lat="43.65577" lon="3.33738">
        <ele>172.4</ele>
        <time>2026-05-17T12:50:26.999Z</time>
      </trkpt>
      <trkpt lat="43.65576" lon="3.3374">
        <ele>172.7</ele>
        <time>2026-05-17T12:50:27.999Z</time>
      </trkpt>
      <trkpt lat="43.65576" lon="3.3374">
        <ele>172.8</ele>
        <time>2026-05-17T12:50:28.999Z</time>
      </trkpt>
      <trkpt lat="43.65575" lon="3.3374">
        <ele>172.5</ele>
        <time>2026-05-17T12:50:29.999Z</time>
      </trkpt>
      <trkpt lat="43.65575" lon="3.33742">
        <ele>171.9</ele>
        <time>2026-05-17T12:50:30.999Z</time>
      </trkpt>
      <trkpt lat="43.65574" lon="3.33743">
        <ele>171.7</ele>
        <time>2026-05-17T12:50:31.999Z</time>
      </trkpt>
      <trkpt lat="43.65573" lon="3.33744">
        <ele>172</ele>
        <time>2026-05-17T12:50:32.999Z</time>
      </trkpt>
      <trkpt lat="43.65573" lon="3.33746">
        <ele>172</ele>
        <time>2026-05-17T12:50:33.999Z</time>
      </trkpt>
      <trkpt lat="43.65572" lon="3.33747">
        <ele>171.6</ele>
        <time>2026-05-17T12:50:34.999Z</time>
      </trkpt>
      <trkpt lat="43.65572" lon="3.33749">
        <ele>171.9</ele>
        <time>2026-05-17T12:50:35.999Z</time>
      </trkpt>
      <trkpt lat="43.65572" lon="3.33751">
        <ele>172.6</ele>
        <time>2026-05-17T12:50:36.999Z</time>
      </trkpt>
      <trkpt lat="43.65572" lon="3.33753">
        <ele>172.9</ele>
        <time>2026-05-17T12:50:37.999Z</time>
      </trkpt>
      <trkpt lat="43.65573" lon="3.33754">
        <ele>173.1</ele>
        <time>2026-05-17T12:50:38.999Z</time>
      </trkpt>
      <trkpt lat="43.65574" lon="3.33756">
        <ele>173.1</ele>
        <time>2026-05-17T12:50:39.999Z</time>
      </trkpt>
      <trkpt lat="43.65576" lon="3.33757">
        <ele>173.1</ele>
        <time>2026-05-17T12:50:40.999Z</time>
      </trkpt>
      <trkpt lat="43.65577" lon="3.33759">
        <ele>173.4</ele>
        <time>2026-05-17T12:50:41.999Z</time>
      </trkpt>
      <trkpt lat="43.65578" lon="3.3376">
        <ele>173.5</ele>
        <time>2026-05-17T12:50:42.999Z</time>
      </trkpt>
      <trkpt lat="43.6558" lon="3.33762">
        <ele>173</ele>
        <time>2026-05-17T12:50:43.999Z</time>
      </trkpt>
      <trkpt lat="43.65581" lon="3.33763">
        <ele>172.8</ele>
        <time>2026-05-17T12:50:44.999Z</time>
      </trkpt>
      <trkpt lat="43.65582" lon="3.33763">
        <ele>172.8</ele>
        <time>2026-05-17T12:50:45.999Z</time>
      </trkpt>
      <trkpt lat="43.65583" lon="3.33764">
        <ele>172.6</ele>
        <time>2026-05-17T12:50:46.999Z</time>
      </trkpt>
      <trkpt lat="43.65584" lon="3.33764">
        <ele>172.8</ele>
        <time>2026-05-17T12:50:47.999Z</time>
      </trkpt>
      <trkpt lat="43.65586" lon="3.33766">
        <ele>172.8</ele>
        <time>2026-05-17T12:50:48.999Z</time>
      </trkpt>
      <trkpt lat="43.65587" lon="3.33767">
        <ele>173.2</ele>
        <time>2026-05-17T12:50:49.999Z</time>
      </trkpt>
      <trkpt lat="43.65588" lon="3.33769">
        <ele>173.3</ele>
        <time>2026-05-17T12:50:50.999Z</time>
      </trkpt>
      <trkpt lat="43.65589" lon="3.3377">
        <ele>173.1</ele>
        <time>2026-05-17T12:50:51.999Z</time>
      </trkpt>
      <trkpt lat="43.65589" lon="3.3377">
        <ele>172.8</ele>
        <time>2026-05-17T12:50:52.999Z</time>
      </trkpt>
      <trkpt lat="43.65591" lon="3.33771">
        <ele>172.7</ele>
        <time>2026-05-17T12:50:53.999Z</time>
      </trkpt>
      <trkpt lat="43.65591" lon="3.33772">
        <ele>172.8</ele>
        <time>2026-05-17T12:50:54.999Z</time>
      </trkpt>
      <trkpt lat="43.65592" lon="3.33774">
        <ele>173.1</ele>
        <time>2026-05-17T12:50:55.999Z</time>
      </trkpt>
      <trkpt lat="43.65592" lon="3.33776">
        <ele>173.4</ele>
        <time>2026-05-17T12:50:56.999Z</time>
      </trkpt>
      <trkpt lat="43.65592" lon="3.33777">
        <ele>173.3</ele>
        <time>2026-05-17T12:50:57.999Z</time>
      </trkpt>
      <trkpt lat="43.65591" lon="3.33778">
        <ele>173.5</ele>
        <time>2026-05-17T12:50:58.999Z</time>
      </trkpt>
      <trkpt lat="43.65591" lon="3.3378">
        <ele>173.4</ele>
        <time>2026-05-17T12:50:59.999Z</time>
      </trkpt>
      <trkpt lat="43.65591" lon="3.33783">
        <ele>173.2</ele>
        <time>2026-05-17T12:51:00.999Z</time>
      </trkpt>
      <trkpt lat="43.65591" lon="3.33784">
        <ele>173.1</ele>
        <time>2026-05-17T12:51:01.999Z</time>
      </trkpt>
      <trkpt lat="43.6559" lon="3.33785">
        <ele>173</ele>
        <time>2026-05-17T12:51:02.999Z</time>
      </trkpt>
      <trkpt lat="43.65589" lon="3.33786">
        <ele>173.1</ele>
        <time>2026-05-17T12:51:03.999Z</time>
      </trkpt>
      <trkpt lat="43.65589" lon="3.33788">
        <ele>174</ele>
        <time>2026-05-17T12:51:04.999Z</time>
      </trkpt>
      <trkpt lat="43.65588" lon="3.3379">
        <ele>174.9</ele>
        <time>2026-05-17T12:51:05.999Z</time>
      </trkpt>
      <trkpt lat="43.65588" lon="3.33791">
        <ele>175.2</ele>
        <time>2026-05-17T12:51:06.999Z</time>
      </trkpt>
      <trkpt lat="43.65588" lon="3.33792">
        <ele>175.5</ele>
        <time>2026-05-17T12:51:07.999Z</time>
      </trkpt>
      <trkpt lat="43.65589" lon="3.33792">
        <ele>175.7</ele>
        <time>2026-05-17T12:51:08.999Z</time>
      </trkpt>
      <trkpt lat="43.65589" lon="3.33793">
        <ele>175.8</ele>
        <time>2026-05-17T12:51:09.999Z</time>
      </trkpt>
      <trkpt lat="43.65589" lon="3.33793">
        <ele>176</ele>
        <time>2026-05-17T12:51:10.999Z</time>
      </trkpt>
      <trkpt lat="43.65589" lon="3.33793">
        <ele>176.1</ele>
        <time>2026-05-17T12:51:11.999Z</time>
      </trkpt>
      <trkpt lat="43.65589" lon="3.33794">
        <ele>176.1</ele>
        <time>2026-05-17T12:51:12.999Z</time>
      </trkpt>
      <trkpt lat="43.6559" lon="3.33794">
        <ele>176.3</ele>
        <time>2026-05-17T12:51:13.999Z</time>
      </trkpt>
      <trkpt lat="43.6559" lon="3.33795">
        <ele>176.3</ele>
        <time>2026-05-17T12:51:14.999Z</time>
      </trkpt>
      <trkpt lat="43.65591" lon="3.33796">
        <ele>176.3</ele>
        <time>2026-05-17T12:51:15.999Z</time>
      </trkpt>
      <trkpt lat="43.65592" lon="3.33797">
        <ele>176.1</ele>
        <time>2026-05-17T12:51:16.999Z</time>
      </trkpt>
      <trkpt lat="43.65593" lon="3.33798">
        <ele>175.8</ele>
        <time>2026-05-17T12:51:17.999Z</time>
      </trkpt>
      <trkpt lat="43.65594" lon="3.33798">
        <ele>175.7</ele>
        <time>2026-05-17T12:51:18.999Z</time>
      </trkpt>
      <trkpt lat="43.65595" lon="3.33799">
        <ele>175.8</ele>
        <time>2026-05-17T12:51:19.999Z</time>
      </trkpt>
      <trkpt lat="43.65597" lon="3.338">
        <ele>176</ele>
        <time>2026-05-17T12:51:20.999Z</time>
      </trkpt>
      <trkpt lat="43.65598" lon="3.33801">
        <ele>176.1</ele>
        <time>2026-05-17T12:51:21.999Z</time>
      </trkpt>
      <trkpt lat="43.65599" lon="3.33802">
        <ele>176.4</ele>
        <time>2026-05-17T12:51:22.999Z</time>
      </trkpt>
      <trkpt lat="43.656" lon="3.33803">
        <ele>176.7</ele>
        <time>2026-05-17T12:51:23.999Z</time>
      </trkpt>
      <trkpt lat="43.65602" lon="3.33804">
        <ele>176.7</ele>
        <time>2026-05-17T12:51:24.999Z</time>
      </trkpt>
      <trkpt lat="43.65603" lon="3.33804">
        <ele>177.2</ele>
        <time>2026-05-17T12:51:25.999Z</time>
      </trkpt>
      <trkpt lat="43.65603" lon="3.33805">
        <ele>177</ele>
        <time>2026-05-17T12:51:26.999Z</time>
      </trkpt>
      <trkpt lat="43.65604" lon="3.33805">
        <ele>176.9</ele>
        <time>2026-05-17T12:51:27.999Z</time>
      </trkpt>
      <trkpt lat="43.65605" lon="3.33805">
        <ele>177.2</ele>
        <time>2026-05-17T12:51:28.999Z</time>
      </trkpt>
      <trkpt lat="43.65606" lon="3.33805">
        <ele>177.4</ele>
        <time>2026-05-17T12:51:29.999Z</time>
      </trkpt>
      <trkpt lat="43.65607" lon="3.33805">
        <ele>177.6</ele>
        <time>2026-05-17T12:51:30.999Z</time>
      </trkpt>
      <trkpt lat="43.65608" lon="3.33805">
        <ele>177.8</ele>
        <time>2026-05-17T12:51:31.999Z</time>
      </trkpt>
      <trkpt lat="43.65609" lon="3.33806">
        <ele>178</ele>
        <time>2026-05-17T12:51:32.999Z</time>
      </trkpt>
      <trkpt lat="43.6561" lon="3.33807">
        <ele>178.3</ele>
        <time>2026-05-17T12:51:33.999Z</time>
      </trkpt>
      <trkpt lat="43.6561" lon="3.33808">
        <ele>178.4</ele>
        <time>2026-05-17T12:51:34.999Z</time>
      </trkpt>
      <trkpt lat="43.65611" lon="3.33809">
        <ele>178.7</ele>
        <time>2026-05-17T12:51:35.999Z</time>
      </trkpt>
      <trkpt lat="43.65612" lon="3.33809">
        <ele>179.1</ele>
        <time>2026-05-17T12:51:36.999Z</time>
      </trkpt>
      <trkpt lat="43.65613" lon="3.3381">
        <ele>179.2</ele>
        <time>2026-05-17T12:51:37.999Z</time>
      </trkpt>
      <trkpt lat="43.65613" lon="3.3381">
        <ele>179.7</ele>
        <time>2026-05-17T12:51:38.999Z</time>
      </trkpt>
      <trkpt lat="43.65614" lon="3.33811">
        <ele>179.9</ele>
        <time>2026-05-17T12:51:39.999Z</time>
      </trkpt>
      <trkpt lat="43.65615" lon="3.33812">
        <ele>180.1</ele>
        <time>2026-05-17T12:51:40.999Z</time>
      </trkpt>
      <trkpt lat="43.65616" lon="3.33813">
        <ele>180.1</ele>
        <time>2026-05-17T12:51:41.999Z</time>
      </trkpt>
      <trkpt lat="43.65616" lon="3.33813">
        <ele>179.9</ele>
        <time>2026-05-17T12:51:42.999Z</time>
      </trkpt>
      <trkpt lat="43.65617" lon="3.33814">
        <ele>179.4</ele>
        <time>2026-05-17T12:51:43.999Z</time>
      </trkpt>
      <trkpt lat="43.65618" lon="3.33814">
        <ele>179.3</ele>
        <time>2026-05-17T12:51:44.999Z</time>
      </trkpt>
      <trkpt lat="43.65618" lon="3.33815">
        <ele>179.1</ele>
        <time>2026-05-17T12:51:45.999Z</time>
      </trkpt>
      <trkpt lat="43.65619" lon="3.33816">
        <ele>179.1</ele>
        <time>2026-05-17T12:51:46.999Z</time>
      </trkpt>
      <trkpt lat="43.6562" lon="3.33816">
        <ele>178.9</ele>
        <time>2026-05-17T12:51:47.999Z</time>
      </trkpt>
      <trkpt lat="43.6562" lon="3.33818">
        <ele>178.4</ele>
        <time>2026-05-17T12:51:48.999Z</time>
      </trkpt>
      <trkpt lat="43.6562" lon="3.33819">
        <ele>178</ele>
        <time>2026-05-17T12:51:49.999Z</time>
      </trkpt>
      <trkpt lat="43.65621" lon="3.33821">
        <ele>177.5</ele>
        <time>2026-05-17T12:51:50.999Z</time>
      </trkpt>
      <trkpt lat="43.65621" lon="3.33822">
        <ele>177.4</ele>
        <time>2026-05-17T12:51:51.999Z</time>
      </trkpt>
      <trkpt lat="43.65622" lon="3.33822">
        <ele>177.4</ele>
        <time>2026-05-17T12:51:52.999Z</time>
      </trkpt>
      <trkpt lat="43.65623" lon="3.33824">
        <ele>177.2</ele>
        <time>2026-05-17T12:51:53.999Z</time>
      </trkpt>
      <trkpt lat="43.65623" lon="3.33826">
        <ele>177.1</ele>
        <time>2026-05-17T12:51:54.999Z</time>
      </trkpt>
      <trkpt lat="43.65624" lon="3.33828">
        <ele>177.1</ele>
        <time>2026-05-17T12:51:55.999Z</time>
      </trkpt>
      <trkpt lat="43.65624" lon="3.33831">
        <ele>177.1</ele>
        <time>2026-05-17T12:51:56.999Z</time>
      </trkpt>
      <trkpt lat="43.65624" lon="3.33833">
        <ele>177</ele>
        <time>2026-05-17T12:51:57.999Z</time>
      </trkpt>
      <trkpt lat="43.65625" lon="3.33835">
        <ele>176.9</ele>
        <time>2026-05-17T12:51:58.999Z</time>
      </trkpt>
      <trkpt lat="43.65626" lon="3.33836">
        <ele>176.9</ele>
        <time>2026-05-17T12:51:59.999Z</time>
      </trkpt>
      <trkpt lat="43.65626" lon="3.33838">
        <ele>176.8</ele>
        <time>2026-05-17T12:52:00.999Z</time>
      </trkpt>
      <trkpt lat="43.65627" lon="3.33839">
        <ele>176.3</ele>
        <time>2026-05-17T12:52:01.999Z</time>
      </trkpt>
      <trkpt lat="43.65627" lon="3.3384">
        <ele>175.6</ele>
        <time>2026-05-17T12:52:02.999Z</time>
      </trkpt>
      <trkpt lat="43.65627" lon="3.33842">
        <ele>175.1</ele>
        <time>2026-05-17T12:52:03.999Z</time>
      </trkpt>
      <trkpt lat="43.65627" lon="3.33843">
        <ele>175.3</ele>
        <time>2026-05-17T12:52:04.999Z</time>
      </trkpt>
      <trkpt lat="43.65627" lon="3.33844">
        <ele>175.4</ele>
        <time>2026-05-17T12:52:05.999Z</time>
      </trkpt>
      <trkpt lat="43.65627" lon="3.33846">
        <ele>175.3</ele>
        <time>2026-05-17T12:52:06.999Z</time>
      </trkpt>
      <trkpt lat="43.65628" lon="3.33849">
        <ele>175.3</ele>
        <time>2026-05-17T12:52:07.999Z</time>
      </trkpt>
      <trkpt lat="43.65629" lon="3.3385">
        <ele>175.1</ele>
        <time>2026-05-17T12:52:08.999Z</time>
      </trkpt>
      <trkpt lat="43.65629" lon="3.33852">
        <ele>174.7</ele>
        <time>2026-05-17T12:52:09.999Z</time>
      </trkpt>
      <trkpt lat="43.6563" lon="3.33854">
        <ele>174.7</ele>
        <time>2026-05-17T12:52:10.999Z</time>
      </trkpt>
      <trkpt lat="43.65631" lon="3.33855">
        <ele>174.7</ele>
        <time>2026-05-17T12:52:11.999Z</time>
      </trkpt>
      <trkpt lat="43.65631" lon="3.33856">
        <ele>174.9</ele>
        <time>2026-05-17T12:52:12.999Z</time>
      </trkpt>
      <trkpt lat="43.65632" lon="3.33857">
        <ele>174.8</ele>
        <time>2026-05-17T12:52:13.999Z</time>
      </trkpt>
      <trkpt lat="43.65632" lon="3.33859">
        <ele>174.8</ele>
        <time>2026-05-17T12:52:14.999Z</time>
      </trkpt>
      <trkpt lat="43.65633" lon="3.3386">
        <ele>174.7</ele>
        <time>2026-05-17T12:52:15.999Z</time>
      </trkpt>
      <trkpt lat="43.65632" lon="3.33862">
        <ele>174.7</ele>
        <time>2026-05-17T12:52:16.999Z</time>
      </trkpt>
      <trkpt lat="43.65632" lon="3.33863">
        <ele>174.8</ele>
        <time>2026-05-17T12:52:17.999Z</time>
      </trkpt>
      <trkpt lat="43.65632" lon="3.33865">
        <ele>174.4</ele>
        <time>2026-05-17T12:52:18.999Z</time>
      </trkpt>
      <trkpt lat="43.65632" lon="3.33868">
        <ele>174.7</ele>
        <time>2026-05-17T12:52:19.999Z</time>
      </trkpt>
      <trkpt lat="43.65632" lon="3.33869">
        <ele>174.6</ele>
        <time>2026-05-17T12:52:20.999Z</time>
      </trkpt>
      <trkpt lat="43.65633" lon="3.33871">
        <ele>174.4</ele>
        <time>2026-05-17T12:52:21.999Z</time>
      </trkpt>
      <trkpt lat="43.65633" lon="3.33872">
        <ele>173.9</ele>
        <time>2026-05-17T12:52:22.999Z</time>
      </trkpt>
      <trkpt lat="43.65634" lon="3.33873">
        <ele>173.7</ele>
        <time>2026-05-17T12:52:23.999Z</time>
      </trkpt>
      <trkpt lat="43.65633" lon="3.33874">
        <ele>173.9</ele>
        <time>2026-05-17T12:52:24.999Z</time>
      </trkpt>
      <trkpt lat="43.65633" lon="3.33875">
        <ele>173.7</ele>
        <time>2026-05-17T12:52:25.999Z</time>
      </trkpt>
      <trkpt lat="43.65633" lon="3.33877">
        <ele>173.3</ele>
        <time>2026-05-17T12:52:26.999Z</time>
      </trkpt>
      <trkpt lat="43.65632" lon="3.33878">
        <ele>173.1</ele>
        <time>2026-05-17T12:52:27.999Z</time>
      </trkpt>
      <trkpt lat="43.65633" lon="3.33879">
        <ele>173.3</ele>
        <time>2026-05-17T12:52:28.999Z</time>
      </trkpt>
      <trkpt lat="43.65633" lon="3.33881">
        <ele>173.1</ele>
        <time>2026-05-17T12:52:29.999Z</time>
      </trkpt>
      <trkpt lat="43.65633" lon="3.33882">
        <ele>173.3</ele>
        <time>2026-05-17T12:52:30.999Z</time>
      </trkpt>
      <trkpt lat="43.65633" lon="3.33884">
        <ele>173.7</ele>
        <time>2026-05-17T12:52:31.999Z</time>
      </trkpt>
      <trkpt lat="43.65633" lon="3.33885">
        <ele>173.6</ele>
        <time>2026-05-17T12:52:32.999Z</time>
      </trkpt>
      <trkpt lat="43.65634" lon="3.33886">
        <ele>173.4</ele>
        <time>2026-05-17T12:52:33.999Z</time>
      </trkpt>
      <trkpt lat="43.65634" lon="3.33888">
        <ele>173.4</ele>
        <time>2026-05-17T12:52:34.999Z</time>
      </trkpt>
      <trkpt lat="43.65634" lon="3.3389">
        <ele>173.4</ele>
        <time>2026-05-17T12:52:35.999Z</time>
      </trkpt>
      <trkpt lat="43.65634" lon="3.33892">
        <ele>173.2</ele>
        <time>2026-05-17T12:52:36.999Z</time>
      </trkpt>
      <trkpt lat="43.65635" lon="3.33893">
        <ele>172.8</ele>
        <time>2026-05-17T12:52:37.999Z</time>
      </trkpt>
      <trkpt lat="43.65635" lon="3.33894">
        <ele>172.4</ele>
        <time>2026-05-17T12:52:38.999Z</time>
      </trkpt>
      <trkpt lat="43.65635" lon="3.33896">
        <ele>171.7</ele>
        <time>2026-05-17T12:52:39.999Z</time>
      </trkpt>
      <trkpt lat="43.65635" lon="3.33898">
        <ele>171.3</ele>
        <time>2026-05-17T12:52:40.999Z</time>
      </trkpt>
      <trkpt lat="43.65635" lon="3.33901">
        <ele>170.9</ele>
        <time>2026-05-17T12:52:41.999Z</time>
      </trkpt>
      <trkpt lat="43.65635" lon="3.33903">
        <ele>170.7</ele>
        <time>2026-05-17T12:52:42.999Z</time>
      </trkpt>
      <trkpt lat="43.65634" lon="3.33905">
        <ele>170.7</ele>
        <time>2026-05-17T12:52:43.999Z</time>
      </trkpt>
      <trkpt lat="43.65634" lon="3.33906">
        <ele>171</ele>
        <time>2026-05-17T12:52:44.999Z</time>
      </trkpt>
      <trkpt lat="43.65633" lon="3.33908">
        <ele>170.8</ele>
        <time>2026-05-17T12:52:45.999Z</time>
      </trkpt>
      <trkpt lat="43.65634" lon="3.33909">
        <ele>170.7</ele>
        <time>2026-05-17T12:52:46.999Z</time>
      </trkpt>
      <trkpt lat="43.65634" lon="3.33911">
        <ele>171</ele>
        <time>2026-05-17T12:52:47.999Z</time>
      </trkpt>
      <trkpt lat="43.65635" lon="3.33912">
        <ele>171.3</ele>
        <time>2026-05-17T12:52:48.999Z</time>
      </trkpt>
      <trkpt lat="43.65635" lon="3.33913">
        <ele>171.6</ele>
        <time>2026-05-17T12:52:49.999Z</time>
      </trkpt>
      <trkpt lat="43.65635" lon="3.33913">
        <ele>171.5</ele>
        <time>2026-05-17T12:52:50.999Z</time>
      </trkpt>
      <trkpt lat="43.65635" lon="3.33912">
        <ele>171.4</ele>
        <time>2026-05-17T12:52:51.999Z</time>
      </trkpt>
      <trkpt lat="43.65635" lon="3.33912">
        <ele>171.5</ele>
        <time>2026-05-17T12:52:52.999Z</time>
      </trkpt>
      <trkpt lat="43.65635" lon="3.33912">
        <ele>171.4</ele>
        <time>2026-05-17T12:52:53.999Z</time>
      </trkpt>
      <trkpt lat="43.65635" lon="3.33912">
        <ele>171.3</ele>
        <time>2026-05-17T12:52:54.999Z</time>
      </trkpt>
      <trkpt lat="43.65635" lon="3.33912">
        <ele>171.1</ele>
        <time>2026-05-17T12:52:55.999Z</time>
      </trkpt>
      <trkpt lat="43.65635" lon="3.33912">
        <ele>171.2</ele>
        <time>2026-05-17T12:52:56.999Z</time>
      </trkpt>
      <trkpt lat="43.65634" lon="3.33911">
        <ele>171.2</ele>
        <time>2026-05-17T12:52:57.999Z</time>
      </trkpt>
      <trkpt lat="43.65634" lon="3.33911">
        <ele>171.2</ele>
        <time>2026-05-17T12:52:58.999Z</time>
      </trkpt>
      <trkpt lat="43.65634" lon="3.33911">
        <ele>171.1</ele>
        <time>2026-05-17T12:52:59.999Z</time>
      </trkpt>
      <trkpt lat="43.65634" lon="3.33911">
        <ele>171</ele>
        <time>2026-05-17T12:53:00.999Z</time>
      </trkpt>
      <trkpt lat="43.65634" lon="3.33911">
        <ele>171.1</ele>
        <time>2026-05-17T12:53:01.999Z</time>
      </trkpt>
      <trkpt lat="43.65634" lon="3.33911">
        <ele>171.2</ele>
        <time>2026-05-17T12:53:02.999Z</time>
      </trkpt>
      <trkpt lat="43.65634" lon="3.33911">
        <ele>171.4</ele>
        <time>2026-05-17T12:53:03.999Z</time>
      </trkpt>
      <trkpt lat="43.65634" lon="3.33911">
        <ele>171.4</ele>
        <time>2026-05-17T12:53:04.999Z</time>
      </trkpt>
      <trkpt lat="43.65634" lon="3.33911">
        <ele>171.5</ele>
        <time>2026-05-17T12:53:05.999Z</time>
      </trkpt>
      <trkpt lat="43.65634" lon="3.33911">
        <ele>171.6</ele>
        <time>2026-05-17T12:53:06.999Z</time>
      </trkpt>
      <trkpt lat="43.65634" lon="3.33911">
        <ele>171.7</ele>
        <time>2026-05-17T12:53:07.999Z</time>
      </trkpt>
      <trkpt lat="43.65634" lon="3.33911">
        <ele>171.7</ele>
        <time>2026-05-17T12:53:08.999Z</time>
      </trkpt>
      <trkpt lat="43.65634" lon="3.33911">
        <ele>171.7</ele>
        <time>2026-05-17T12:53:09.999Z</time>
      </trkpt>
      <trkpt lat="43.65634" lon="3.33911">
        <ele>171.8</ele>
        <time>2026-05-17T12:53:10.999Z</time>
      </trkpt>
      <trkpt lat="43.65634" lon="3.33911">
        <ele>171.9</ele>
        <time>2026-05-17T12:53:11.999Z</time>
      </trkpt>
      <trkpt lat="43.65634" lon="3.33911">
        <ele>172.1</ele>
        <time>2026-05-17T12:53:12.999Z</time>
      </trkpt>
      <trkpt lat="43.65634" lon="3.33911">
        <ele>172.2</ele>
        <time>2026-05-17T12:53:13.999Z</time>
      </trkpt>
      <trkpt lat="43.65634" lon="3.33911">
        <ele>172.4</ele>
        <time>2026-05-17T12:53:14.999Z</time>
      </trkpt>
      <trkpt lat="43.65634" lon="3.33911">
        <ele>172.6</ele>
        <time>2026-05-17T12:53:15.999Z</time>
      </trkpt>
      <trkpt lat="43.65634" lon="3.33911">
        <ele>172.7</ele>
        <time>2026-05-17T12:53:16.999Z</time>
      </trkpt>
      <trkpt lat="43.65634" lon="3.33911">
        <ele>172.8</ele>
        <time>2026-05-17T12:53:17.999Z</time>
      </trkpt>
      <trkpt lat="43.65634" lon="3.33911">
        <ele>173</ele>
        <time>2026-05-17T12:53:18.999Z</time>
      </trkpt>
      <trkpt lat="43.65634" lon="3.33911">
        <ele>173</ele>
        <time>2026-05-17T12:53:19.999Z</time>
      </trkpt>
      <trkpt lat="43.65634" lon="3.33911">
        <ele>172.9</ele>
        <time>2026-05-17T12:53:20.999Z</time>
      </trkpt>
      <trkpt lat="43.65634" lon="3.33912">
        <ele>172.8</ele>
        <time>2026-05-17T12:53:21.999Z</time>
      </trkpt>
      <trkpt lat="43.65634" lon="3.33912">
        <ele>172.9</ele>
        <time>2026-05-17T12:53:22.999Z</time>
      </trkpt>
      <trkpt lat="43.65634" lon="3.33912">
        <ele>172.9</ele>
        <time>2026-05-17T12:53:23.999Z</time>
      </trkpt>
      <trkpt lat="43.65634" lon="3.33912">
        <ele>172.9</ele>
        <time>2026-05-17T12:53:24.999Z</time>
      </trkpt>
      <trkpt lat="43.65634" lon="3.33912">
        <ele>173</ele>
        <time>2026-05-17T12:53:25.999Z</time>
      </trkpt>
      <trkpt lat="43.65634" lon="3.33912">
        <ele>173.1</ele>
        <time>2026-05-17T12:53:26.999Z</time>
      </trkpt>
      <trkpt lat="43.65634" lon="3.33912">
        <ele>173.4</ele>
        <time>2026-05-17T12:53:27.999Z</time>
      </trkpt>
      <trkpt lat="43.65634" lon="3.33912">
        <ele>173.6</ele>
        <time>2026-05-17T12:53:28.999Z</time>
      </trkpt>
      <trkpt lat="43.65634" lon="3.33912">
        <ele>173.8</ele>
        <time>2026-05-17T12:53:29.999Z</time>
      </trkpt>
      <trkpt lat="43.65634" lon="3.33912">
        <ele>173.9</ele>
        <time>2026-05-17T12:53:30.999Z</time>
      </trkpt>
      <trkpt lat="43.65634" lon="3.33912">
        <ele>173.9</ele>
        <time>2026-05-17T12:53:31.999Z</time>
      </trkpt>
      <trkpt lat="43.65634" lon="3.33912">
        <ele>173.9</ele>
        <time>2026-05-17T12:53:32.999Z</time>
      </trkpt>
      <trkpt lat="43.65634" lon="3.33912">
        <ele>174.2</ele>
        <time>2026-05-17T12:53:33.999Z</time>
      </trkpt>
      <trkpt lat="43.65634" lon="3.33912">
        <ele>174.2</ele>
        <time>2026-05-17T12:53:34.999Z</time>
      </trkpt>
      <trkpt lat="43.65634" lon="3.33912">
        <ele>174.5</ele>
        <time>2026-05-17T12:53:35.999Z</time>
      </trkpt>
      <trkpt lat="43.65634" lon="3.33912">
        <ele>174.6</ele>
        <time>2026-05-17T12:53:36.999Z</time>
      </trkpt>
      <trkpt lat="43.65634" lon="3.33912">
        <ele>174.9</ele>
        <time>2026-05-17T12:53:37.999Z</time>
      </trkpt>
      <trkpt lat="43.65634" lon="3.33912">
        <ele>175.2</ele>
        <time>2026-05-17T12:53:38.999Z</time>
      </trkpt>
      <trkpt lat="43.65634" lon="3.33912">
        <ele>175.3</ele>
        <time>2026-05-17T12:53:39.999Z</time>
      </trkpt>
      <trkpt lat="43.65634" lon="3.33912">
        <ele>175.4</ele>
        <time>2026-05-17T12:53:40.999Z</time>
      </trkpt>
      <trkpt lat="43.65634" lon="3.33912">
        <ele>175.7</ele>
        <time>2026-05-17T12:53:41.999Z</time>
      </trkpt>
      <trkpt lat="43.65634" lon="3.33912">
        <ele>175.7</ele>
        <time>2026-05-17T12:53:42.999Z</time>
      </trkpt>
      <trkpt lat="43.65634" lon="3.33912">
        <ele>175.7</ele>
        <time>2026-05-17T12:53:43.999Z</time>
      </trkpt>
      <trkpt lat="43.65634" lon="3.33913">
        <ele>175.7</ele>
        <time>2026-05-17T12:53:44.999Z</time>
      </trkpt>
      <trkpt lat="43.65634" lon="3.33913">
        <ele>175.7</ele>
        <time>2026-05-17T12:53:45.999Z</time>
      </trkpt>
      <trkpt lat="43.65634" lon="3.33913">
        <ele>175.6</ele>
        <time>2026-05-17T12:53:46.999Z</time>
      </trkpt>
      <trkpt lat="43.65634" lon="3.33913">
        <ele>175.6</ele>
        <time>2026-05-17T12:53:47.999Z</time>
      </trkpt>
      <trkpt lat="43.65634" lon="3.33913">
        <ele>175.6</ele>
        <time>2026-05-17T12:53:48.999Z</time>
      </trkpt>
      <trkpt lat="43.65634" lon="3.33913">
        <ele>175.7</ele>
        <time>2026-05-17T12:53:49.999Z</time>
      </trkpt>
      <trkpt lat="43.65634" lon="3.33913">
        <ele>175.8</ele>
        <time>2026-05-17T12:53:50.999Z</time>
      </trkpt>
      <trkpt lat="43.65634" lon="3.33912">
        <ele>175.9</ele>
        <time>2026-05-17T12:53:51.999Z</time>
      </trkpt>
      <trkpt lat="43.65634" lon="3.33912">
        <ele>176</ele>
        <time>2026-05-17T12:53:52.999Z</time>
      </trkpt>
      <trkpt lat="43.65634" lon="3.33912">
        <ele>175.9</ele>
        <time>2026-05-17T12:53:53.999Z</time>
      </trkpt>
      <trkpt lat="43.65634" lon="3.33912">
        <ele>176</ele>
        <time>2026-05-17T12:53:54.999Z</time>
      </trkpt>
      <trkpt lat="43.65634" lon="3.33912">
        <ele>176</ele>
        <time>2026-05-17T12:53:55.999Z</time>
      </trkpt>
      <trkpt lat="43.65634" lon="3.33912">
        <ele>176</ele>
        <time>2026-05-17T12:53:56.999Z</time>
      </trkpt>
      <trkpt lat="43.65634" lon="3.33912">
        <ele>176.1</ele>
        <time>2026-05-17T12:53:57.999Z</time>
      </trkpt>
      <trkpt lat="43.65634" lon="3.33912">
        <ele>176.1</ele>
        <time>2026-05-17T12:53:58.999Z</time>
      </trkpt>
      <trkpt lat="43.65634" lon="3.33912">
        <ele>176.2</ele>
        <time>2026-05-17T12:53:59.999Z</time>
      </trkpt>
      <trkpt lat="43.65634" lon="3.33912">
        <ele>176.2</ele>
        <time>2026-05-17T12:54:00.999Z</time>
      </trkpt>
      <trkpt lat="43.65634" lon="3.33912">
        <ele>176.2</ele>
        <time>2026-05-17T12:54:01.999Z</time>
      </trkpt>
      <trkpt lat="43.65634" lon="3.33912">
        <ele>176.2</ele>
        <time>2026-05-17T12:54:02.999Z</time>
      </trkpt>
      <trkpt lat="43.65634" lon="3.33912">
        <ele>176.3</ele>
        <time>2026-05-17T12:54:03.999Z</time>
      </trkpt>
      <trkpt lat="43.65634" lon="3.33912">
        <ele>176.5</ele>
        <time>2026-05-17T12:54:04.999Z</time>
      </trkpt>
      <trkpt lat="43.65634" lon="3.33912">
        <ele>176.5</ele>
        <time>2026-05-17T12:54:05.999Z</time>
      </trkpt>
      <trkpt lat="43.65634" lon="3.33912">
        <ele>176.6</ele>
        <time>2026-05-17T12:54:06.999Z</time>
      </trkpt>
      <trkpt lat="43.65634" lon="3.33912">
        <ele>176.8</ele>
        <time>2026-05-17T12:54:07.999Z</time>
      </trkpt>
      <trkpt lat="43.65634" lon="3.33912">
        <ele>176.9</ele>
        <time>2026-05-17T12:54:08.999Z</time>
      </trkpt>
      <trkpt lat="43.65634" lon="3.33912">
        <ele>176.9</ele>
        <time>2026-05-17T12:54:09.999Z</time>
      </trkpt>
      <trkpt lat="43.65634" lon="3.33912">
        <ele>176.9</ele>
        <time>2026-05-17T12:54:10.999Z</time>
      </trkpt>
      <trkpt lat="43.65634" lon="3.33912">
        <ele>176.8</ele>
        <time>2026-05-17T12:54:11.999Z</time>
      </trkpt>
      <trkpt lat="43.65635" lon="3.33912">
        <ele>176.7</ele>
        <time>2026-05-17T12:54:12.999Z</time>
      </trkpt>
      <trkpt lat="43.65635" lon="3.33912">
        <ele>176.5</ele>
        <time>2026-05-17T12:54:13.999Z</time>
      </trkpt>
      <trkpt lat="43.65635" lon="3.33913">
        <ele>176.5</ele>
        <time>2026-05-17T12:54:14.999Z</time>
      </trkpt>
      <trkpt lat="43.65635" lon="3.33913">
        <ele>176.5</ele>
        <time>2026-05-17T12:54:15.999Z</time>
      </trkpt>
      <trkpt lat="43.65635" lon="3.33913">
        <ele>176.3</ele>
        <time>2026-05-17T12:54:16.999Z</time>
      </trkpt>
      <trkpt lat="43.65635" lon="3.33913">
        <ele>176.4</ele>
        <time>2026-05-17T12:54:17.999Z</time>
      </trkpt>
      <trkpt lat="43.65635" lon="3.33913">
        <ele>176.2</ele>
        <time>2026-05-17T12:54:18.999Z</time>
      </trkpt>
      <trkpt lat="43.65635" lon="3.33914">
        <ele>176</ele>
        <time>2026-05-17T12:54:19.999Z</time>
      </trkpt>
      <trkpt lat="43.65635" lon="3.33914">
        <ele>175.8</ele>
        <time>2026-05-17T12:54:20.999Z</time>
      </trkpt>
      <trkpt lat="43.65635" lon="3.33914">
        <ele>175.5</ele>
        <time>2026-05-17T12:54:21.999Z</time>
      </trkpt>
      <trkpt lat="43.65635" lon="3.33914">
        <ele>175.6</ele>
        <time>2026-05-17T12:54:22.999Z</time>
      </trkpt>
      <trkpt lat="43.65635" lon="3.33914">
        <ele>175.6</ele>
        <time>2026-05-17T12:54:23.999Z</time>
      </trkpt>
      <trkpt lat="43.65635" lon="3.33914">
        <ele>175.8</ele>
        <time>2026-05-17T12:54:24.999Z</time>
      </trkpt>
      <trkpt lat="43.65635" lon="3.33914">
        <ele>175.8</ele>
        <time>2026-05-17T12:54:25.999Z</time>
      </trkpt>
      <trkpt lat="43.65635" lon="3.33914">
        <ele>176</ele>
        <time>2026-05-17T12:54:26.999Z</time>
      </trkpt>
      <trkpt lat="43.65635" lon="3.33915">
        <ele>176.2</ele>
        <time>2026-05-17T12:54:27.999Z</time>
      </trkpt>
      <trkpt lat="43.65635" lon="3.33915">
        <ele>176.2</ele>
        <time>2026-05-17T12:54:28.999Z</time>
      </trkpt>
      <trkpt lat="43.65635" lon="3.33915">
        <ele>176.4</ele>
        <time>2026-05-17T12:54:29.999Z</time>
      </trkpt>
      <trkpt lat="43.65635" lon="3.33915">
        <ele>176.5</ele>
        <time>2026-05-17T12:54:30.999Z</time>
      </trkpt>
      <trkpt lat="43.65635" lon="3.33915">
        <ele>176.2</ele>
        <time>2026-05-17T12:54:31.999Z</time>
      </trkpt>
      <trkpt lat="43.65635" lon="3.33915">
        <ele>176.1</ele>
        <time>2026-05-17T12:54:32.999Z</time>
      </trkpt>
      <trkpt lat="43.65635" lon="3.33915">
        <ele>176.1</ele>
        <time>2026-05-17T12:54:33.999Z</time>
      </trkpt>
      <trkpt lat="43.65635" lon="3.33916">
        <ele>175.9</ele>
        <time>2026-05-17T12:54:34.999Z</time>
      </trkpt>
      <trkpt lat="43.65635" lon="3.33917">
        <ele>176</ele>
        <time>2026-05-17T12:54:35.999Z</time>
      </trkpt>
      <trkpt lat="43.65636" lon="3.33918">
        <ele>176.2</ele>
        <time>2026-05-17T12:54:36.999Z</time>
      </trkpt>
      <trkpt lat="43.65636" lon="3.33919">
        <ele>176.2</ele>
        <time>2026-05-17T12:54:37.999Z</time>
      </trkpt>
      <trkpt lat="43.65637" lon="3.3392">
        <ele>176.2</ele>
        <time>2026-05-17T12:54:38.999Z</time>
      </trkpt>
      <trkpt lat="43.65638" lon="3.33922">
        <ele>176.4</ele>
        <time>2026-05-17T12:54:39.999Z</time>
      </trkpt>
      <trkpt lat="43.65638" lon="3.33924">
        <ele>176.5</ele>
        <time>2026-05-17T12:54:40.999Z</time>
      </trkpt>
      <trkpt lat="43.65639" lon="3.33926">
        <ele>176.7</ele>
        <time>2026-05-17T12:54:41.999Z</time>
      </trkpt>
      <trkpt lat="43.65639" lon="3.33927">
        <ele>176.5</ele>
        <time>2026-05-17T12:54:42.999Z</time>
      </trkpt>
      <trkpt lat="43.65639" lon="3.33927">
        <ele>176.2</ele>
        <time>2026-05-17T12:54:43.999Z</time>
      </trkpt>
      <trkpt lat="43.65639" lon="3.33928">
        <ele>175.7</ele>
        <time>2026-05-17T12:54:44.999Z</time>
      </trkpt>
      <trkpt lat="43.65639" lon="3.33929">
        <ele>175.5</ele>
        <time>2026-05-17T12:54:45.999Z</time>
      </trkpt>
      <trkpt lat="43.65638" lon="3.33931">
        <ele>175.6</ele>
        <time>2026-05-17T12:54:46.999Z</time>
      </trkpt>
      <trkpt lat="43.65638" lon="3.33933">
        <ele>175.9</ele>
        <time>2026-05-17T12:54:47.999Z</time>
      </trkpt>
      <trkpt lat="43.65639" lon="3.33935">
        <ele>176.1</ele>
        <time>2026-05-17T12:54:48.999Z</time>
      </trkpt>
      <trkpt lat="43.65639" lon="3.33937">
        <ele>176.2</ele>
        <time>2026-05-17T12:54:49.999Z</time>
      </trkpt>
      <trkpt lat="43.65639" lon="3.33938">
        <ele>175.8</ele>
        <time>2026-05-17T12:54:50.999Z</time>
      </trkpt>
      <trkpt lat="43.65639" lon="3.3394">
        <ele>175.9</ele>
        <time>2026-05-17T12:54:51.999Z</time>
      </trkpt>
      <trkpt lat="43.6564" lon="3.33943">
        <ele>175.9</ele>
        <time>2026-05-17T12:54:53.999Z</time>
      </trkpt>
      <trkpt lat="43.65641" lon="3.33944">
        <ele>175.6</ele>
        <time>2026-05-17T12:54:54.999Z</time>
      </trkpt>
      <trkpt lat="43.65641" lon="3.33945">
        <ele>175.7</ele>
        <time>2026-05-17T12:54:55.999Z</time>
      </trkpt>
      <trkpt lat="43.65641" lon="3.33946">
        <ele>175.8</ele>
        <time>2026-05-17T12:54:56.999Z</time>
      </trkpt>
      <trkpt lat="43.65642" lon="3.33947">
        <ele>176</ele>
        <time>2026-05-17T12:54:57.999Z</time>
      </trkpt>
      <trkpt lat="43.65643" lon="3.33948">
        <ele>176.1</ele>
        <time>2026-05-17T12:54:58.999Z</time>
      </trkpt>
      <trkpt lat="43.65643" lon="3.33949">
        <ele>175.9</ele>
        <time>2026-05-17T12:54:59.999Z</time>
      </trkpt>
      <trkpt lat="43.65644" lon="3.3395">
        <ele>175.7</ele>
        <time>2026-05-17T12:55:00.999Z</time>
      </trkpt>
      <trkpt lat="43.65645" lon="3.33951">
        <ele>175.8</ele>
        <time>2026-05-17T12:55:01.999Z</time>
      </trkpt>
      <trkpt lat="43.65645" lon="3.33952">
        <ele>175.8</ele>
        <time>2026-05-17T12:55:02.999Z</time>
      </trkpt>
      <trkpt lat="43.65646" lon="3.33954">
        <ele>175.7</ele>
        <time>2026-05-17T12:55:03.999Z</time>
      </trkpt>
      <trkpt lat="43.65647" lon="3.33955">
        <ele>175.4</ele>
        <time>2026-05-17T12:55:04.999Z</time>
      </trkpt>
      <trkpt lat="43.65647" lon="3.33957">
        <ele>175.2</ele>
        <time>2026-05-17T12:55:05.999Z</time>
      </trkpt>
      <trkpt lat="43.65648" lon="3.3396">
        <ele>174.4</ele>
        <time>2026-05-17T12:55:06.999Z</time>
      </trkpt>
      <trkpt lat="43.65648" lon="3.33961">
        <ele>174.1</ele>
        <time>2026-05-17T12:55:07.999Z</time>
      </trkpt>
      <trkpt lat="43.65648" lon="3.33963">
        <ele>174.5</ele>
        <time>2026-05-17T12:55:08.999Z</time>
      </trkpt>
      <trkpt lat="43.65648" lon="3.33963">
        <ele>174.7</ele>
        <time>2026-05-17T12:55:09.999Z</time>
      </trkpt>
      <trkpt lat="43.65649" lon="3.33964">
        <ele>174.6</ele>
        <time>2026-05-17T12:55:10.999Z</time>
      </trkpt>
      <trkpt lat="43.65649" lon="3.33965">
        <ele>174.5</ele>
        <time>2026-05-17T12:55:11.999Z</time>
      </trkpt>
      <trkpt lat="43.65649" lon="3.33967">
        <ele>174.7</ele>
        <time>2026-05-17T12:55:12.999Z</time>
      </trkpt>
      <trkpt lat="43.65649" lon="3.33968">
        <ele>174.8</ele>
        <time>2026-05-17T12:55:13.999Z</time>
      </trkpt>
      <trkpt lat="43.65649" lon="3.33969">
        <ele>174.7</ele>
        <time>2026-05-17T12:55:14.999Z</time>
      </trkpt>
      <trkpt lat="43.6565" lon="3.3397">
        <ele>174.4</ele>
        <time>2026-05-17T12:55:15.999Z</time>
      </trkpt>
      <trkpt lat="43.6565" lon="3.33971">
        <ele>174.5</ele>
        <time>2026-05-17T12:55:16.999Z</time>
      </trkpt>
      <trkpt lat="43.6565" lon="3.33972">
        <ele>174.6</ele>
        <time>2026-05-17T12:55:17.999Z</time>
      </trkpt>
      <trkpt lat="43.6565" lon="3.33972">
        <ele>174.6</ele>
        <time>2026-05-17T12:55:18.999Z</time>
      </trkpt>
      <trkpt lat="43.6565" lon="3.33973">
        <ele>174.3</ele>
        <time>2026-05-17T12:55:19.999Z</time>
      </trkpt>
      <trkpt lat="43.65651" lon="3.33975">
        <ele>174.4</ele>
        <time>2026-05-17T12:55:20.999Z</time>
      </trkpt>
      <trkpt lat="43.65651" lon="3.33977">
        <ele>174.3</ele>
        <time>2026-05-17T12:55:21.999Z</time>
      </trkpt>
      <trkpt lat="43.65652" lon="3.33978">
        <ele>174.2</ele>
        <time>2026-05-17T12:55:22.999Z</time>
      </trkpt>
      <trkpt lat="43.65652" lon="3.33979">
        <ele>174.3</ele>
        <time>2026-05-17T12:55:23.999Z</time>
      </trkpt>
      <trkpt lat="43.65653" lon="3.3398">
        <ele>174.4</ele>
        <time>2026-05-17T12:55:24.999Z</time>
      </trkpt>
      <trkpt lat="43.65653" lon="3.33981">
        <ele>174.4</ele>
        <time>2026-05-17T12:55:25.999Z</time>
      </trkpt>
      <trkpt lat="43.65653" lon="3.33983">
        <ele>174.8</ele>
        <time>2026-05-17T12:55:26.999Z</time>
      </trkpt>
      <trkpt lat="43.65654" lon="3.33984">
        <ele>174.7</ele>
        <time>2026-05-17T12:55:27.999Z</time>
      </trkpt>
      <trkpt lat="43.65654" lon="3.33985">
        <ele>174.8</ele>
        <time>2026-05-17T12:55:28.999Z</time>
      </trkpt>
      <trkpt lat="43.65655" lon="3.33986">
        <ele>174.4</ele>
        <time>2026-05-17T12:55:29.999Z</time>
      </trkpt>
      <trkpt lat="43.65656" lon="3.33988">
        <ele>174.7</ele>
        <time>2026-05-17T12:55:30.999Z</time>
      </trkpt>
      <trkpt lat="43.65656" lon="3.3399">
        <ele>174.9</ele>
        <time>2026-05-17T12:55:31.999Z</time>
      </trkpt>
      <trkpt lat="43.65657" lon="3.33992">
        <ele>175</ele>
        <time>2026-05-17T12:55:32.999Z</time>
      </trkpt>
      <trkpt lat="43.65658" lon="3.33995">
        <ele>175</ele>
        <time>2026-05-17T12:55:33.999Z</time>
      </trkpt>
      <trkpt lat="43.65658" lon="3.33997">
        <ele>174.9</ele>
        <time>2026-05-17T12:55:34.999Z</time>
      </trkpt>
      <trkpt lat="43.65659" lon="3.33998">
        <ele>174.6</ele>
        <time>2026-05-17T12:55:35.999Z</time>
      </trkpt>
      <trkpt lat="43.65659" lon="3.34001">
        <ele>174.7</ele>
        <time>2026-05-17T12:55:36.999Z</time>
      </trkpt>
      <trkpt lat="43.65659" lon="3.34003">
        <ele>174.6</ele>
        <time>2026-05-17T12:55:37.999Z</time>
      </trkpt>
      <trkpt lat="43.65659" lon="3.34004">
        <ele>174.4</ele>
        <time>2026-05-17T12:55:38.999Z</time>
      </trkpt>
      <trkpt lat="43.65659" lon="3.34005">
        <ele>174.5</ele>
        <time>2026-05-17T12:55:39.999Z</time>
      </trkpt>
      <trkpt lat="43.65659" lon="3.34007">
        <ele>174.6</ele>
        <time>2026-05-17T12:55:40.999Z</time>
      </trkpt>
      <trkpt lat="43.6566" lon="3.34009">
        <ele>174.8</ele>
        <time>2026-05-17T12:55:41.999Z</time>
      </trkpt>
      <trkpt lat="43.6566" lon="3.3401">
        <ele>175</ele>
        <time>2026-05-17T12:55:42.999Z</time>
      </trkpt>
      <trkpt lat="43.6566" lon="3.34011">
        <ele>174.9</ele>
        <time>2026-05-17T12:55:43.999Z</time>
      </trkpt>
      <trkpt lat="43.6566" lon="3.34013">
        <ele>174.8</ele>
        <time>2026-05-17T12:55:44.999Z</time>
      </trkpt>
      <trkpt lat="43.6566" lon="3.34015">
        <ele>174.6</ele>
        <time>2026-05-17T12:55:45.999Z</time>
      </trkpt>
      <trkpt lat="43.6566" lon="3.34016">
        <ele>174.6</ele>
        <time>2026-05-17T12:55:46.999Z</time>
      </trkpt>
      <trkpt lat="43.6566" lon="3.34017">
        <ele>174.8</ele>
        <time>2026-05-17T12:55:47.999Z</time>
      </trkpt>
      <trkpt lat="43.6566" lon="3.34018">
        <ele>174.6</ele>
        <time>2026-05-17T12:55:48.999Z</time>
      </trkpt>
      <trkpt lat="43.65661" lon="3.3402">
        <ele>174.3</ele>
        <time>2026-05-17T12:55:49.999Z</time>
      </trkpt>
      <trkpt lat="43.65661" lon="3.34021">
        <ele>174.5</ele>
        <time>2026-05-17T12:55:50.999Z</time>
      </trkpt>
      <trkpt lat="43.65661" lon="3.34022">
        <ele>175.1</ele>
        <time>2026-05-17T12:55:51.999Z</time>
      </trkpt>
      <trkpt lat="43.65661" lon="3.34022">
        <ele>175.1</ele>
        <time>2026-05-17T12:55:52.999Z</time>
      </trkpt>
      <trkpt lat="43.65661" lon="3.34024">
        <ele>175.3</ele>
        <time>2026-05-17T12:55:53.999Z</time>
      </trkpt>
      <trkpt lat="43.65661" lon="3.34025">
        <ele>175.6</ele>
        <time>2026-05-17T12:55:54.999Z</time>
      </trkpt>
      <trkpt lat="43.65661" lon="3.34027">
        <ele>176.1</ele>
        <time>2026-05-17T12:55:55.999Z</time>
      </trkpt>
      <trkpt lat="43.65661" lon="3.34028">
        <ele>176.4</ele>
        <time>2026-05-17T12:55:56.999Z</time>
      </trkpt>
      <trkpt lat="43.65661" lon="3.34029">
        <ele>176.6</ele>
        <time>2026-05-17T12:55:57.999Z</time>
      </trkpt>
      <trkpt lat="43.65661" lon="3.3403">
        <ele>176.3</ele>
        <time>2026-05-17T12:55:58.999Z</time>
      </trkpt>
      <trkpt lat="43.65661" lon="3.34032">
        <ele>176.4</ele>
        <time>2026-05-17T12:55:59.999Z</time>
      </trkpt>
      <trkpt lat="43.65661" lon="3.34035">
        <ele>177</ele>
        <time>2026-05-17T12:56:00.999Z</time>
      </trkpt>
      <trkpt lat="43.65661" lon="3.34036">
        <ele>176.9</ele>
        <time>2026-05-17T12:56:01.999Z</time>
      </trkpt>
      <trkpt lat="43.65661" lon="3.34038">
        <ele>177.1</ele>
        <time>2026-05-17T12:56:02.999Z</time>
      </trkpt>
      <trkpt lat="43.65661" lon="3.3404">
        <ele>177.2</ele>
        <time>2026-05-17T12:56:03.999Z</time>
      </trkpt>
      <trkpt lat="43.65661" lon="3.34042">
        <ele>177.1</ele>
        <time>2026-05-17T12:56:04.999Z</time>
      </trkpt>
      <trkpt lat="43.65662" lon="3.34043">
        <ele>176.9</ele>
        <time>2026-05-17T12:56:05.999Z</time>
      </trkpt>
      <trkpt lat="43.65662" lon="3.34044">
        <ele>176.3</ele>
        <time>2026-05-17T12:56:06.999Z</time>
      </trkpt>
      <trkpt lat="43.65662" lon="3.34045">
        <ele>176.1</ele>
        <time>2026-05-17T12:56:07.999Z</time>
      </trkpt>
      <trkpt lat="43.65662" lon="3.34048">
        <ele>176.2</ele>
        <time>2026-05-17T12:56:08.999Z</time>
      </trkpt>
      <trkpt lat="43.65662" lon="3.3405">
        <ele>176.4</ele>
        <time>2026-05-17T12:56:09.999Z</time>
      </trkpt>
      <trkpt lat="43.65662" lon="3.34051">
        <ele>176.5</ele>
        <time>2026-05-17T12:56:10.999Z</time>
      </trkpt>
      <trkpt lat="43.65662" lon="3.34052">
        <ele>176.1</ele>
        <time>2026-05-17T12:56:11.999Z</time>
      </trkpt>
      <trkpt lat="43.65662" lon="3.34054">
        <ele>175.8</ele>
        <time>2026-05-17T12:56:12.999Z</time>
      </trkpt>
      <trkpt lat="43.65662" lon="3.34055">
        <ele>175.6</ele>
        <time>2026-05-17T12:56:13.999Z</time>
      </trkpt>
      <trkpt lat="43.65662" lon="3.34058">
        <ele>175.2</ele>
        <time>2026-05-17T12:56:14.999Z</time>
      </trkpt>
      <trkpt lat="43.65662" lon="3.3406">
        <ele>175</ele>
        <time>2026-05-17T12:56:15.999Z</time>
      </trkpt>
      <trkpt lat="43.65662" lon="3.34061">
        <ele>174.7</ele>
        <time>2026-05-17T12:56:16.999Z</time>
      </trkpt>
      <trkpt lat="43.65663" lon="3.34062">
        <ele>174.6</ele>
        <time>2026-05-17T12:56:17.999Z</time>
      </trkpt>
      <trkpt lat="43.65663" lon="3.34062">
        <ele>174.5</ele>
        <time>2026-05-17T12:56:18.999Z</time>
      </trkpt>
      <trkpt lat="43.65664" lon="3.34064">
        <ele>174.6</ele>
        <time>2026-05-17T12:56:19.999Z</time>
      </trkpt>
      <trkpt lat="43.65664" lon="3.34066">
        <ele>174.6</ele>
        <time>2026-05-17T12:56:20.999Z</time>
      </trkpt>
      <trkpt lat="43.65664" lon="3.34067">
        <ele>174.6</ele>
        <time>2026-05-17T12:56:21.999Z</time>
      </trkpt>
      <trkpt lat="43.65664" lon="3.34068">
        <ele>174.3</ele>
        <time>2026-05-17T12:56:22.999Z</time>
      </trkpt>
      <trkpt lat="43.65664" lon="3.34069">
        <ele>173.9</ele>
        <time>2026-05-17T12:56:23.999Z</time>
      </trkpt>
      <trkpt lat="43.65665" lon="3.3407">
        <ele>173.6</ele>
        <time>2026-05-17T12:56:24.999Z</time>
      </trkpt>
      <trkpt lat="43.65665" lon="3.34071">
        <ele>173.6</ele>
        <time>2026-05-17T12:56:25.999Z</time>
      </trkpt>
      <trkpt lat="43.65665" lon="3.34073">
        <ele>173.5</ele>
        <time>2026-05-17T12:56:26.999Z</time>
      </trkpt>
      <trkpt lat="43.65665" lon="3.34074">
        <ele>173.2</ele>
        <time>2026-05-17T12:56:27.999Z</time>
      </trkpt>
      <trkpt lat="43.65666" lon="3.34075">
        <ele>172.7</ele>
        <time>2026-05-17T12:56:28.999Z</time>
      </trkpt>
      <trkpt lat="43.65666" lon="3.34076">
        <ele>172</ele>
        <time>2026-05-17T12:56:29.999Z</time>
      </trkpt>
      <trkpt lat="43.65666" lon="3.34076">
        <ele>171.4</ele>
        <time>2026-05-17T12:56:30.999Z</time>
      </trkpt>
      <trkpt lat="43.65666" lon="3.34077">
        <ele>171.8</ele>
        <time>2026-05-17T12:56:31.999Z</time>
      </trkpt>
      <trkpt lat="43.65666" lon="3.34077">
        <ele>171.5</ele>
        <time>2026-05-17T12:56:32.999Z</time>
      </trkpt>
      <trkpt lat="43.65667" lon="3.34078">
        <ele>171.5</ele>
        <time>2026-05-17T12:56:33.999Z</time>
      </trkpt>
      <trkpt lat="43.65667" lon="3.34079">
        <ele>171.7</ele>
        <time>2026-05-17T12:56:34.999Z</time>
      </trkpt>
      <trkpt lat="43.65667" lon="3.3408">
        <ele>171.8</ele>
        <time>2026-05-17T12:56:35.999Z</time>
      </trkpt>
      <trkpt lat="43.65669" lon="3.34082">
        <ele>172</ele>
        <time>2026-05-17T12:56:36.999Z</time>
      </trkpt>
      <trkpt lat="43.6567" lon="3.34084">
        <ele>172.1</ele>
        <time>2026-05-17T12:56:37.999Z</time>
      </trkpt>
      <trkpt lat="43.65671" lon="3.34085">
        <ele>172.2</ele>
        <time>2026-05-17T12:56:38.999Z</time>
      </trkpt>
      <trkpt lat="43.65672" lon="3.34086">
        <ele>172.2</ele>
        <time>2026-05-17T12:56:39.999Z</time>
      </trkpt>
      <trkpt lat="43.65672" lon="3.34086">
        <ele>172.7</ele>
        <time>2026-05-17T12:56:40.999Z</time>
      </trkpt>
      <trkpt lat="43.65673" lon="3.34086">
        <ele>172.9</ele>
        <time>2026-05-17T12:56:41.999Z</time>
      </trkpt>
      <trkpt lat="43.65675" lon="3.34087">
        <ele>172.8</ele>
        <time>2026-05-17T12:56:42.999Z</time>
      </trkpt>
      <trkpt lat="43.65676" lon="3.34087">
        <ele>172.8</ele>
        <time>2026-05-17T12:56:43.999Z</time>
      </trkpt>
      <trkpt lat="43.65676" lon="3.34088">
        <ele>173</ele>
        <time>2026-05-17T12:56:44.999Z</time>
      </trkpt>
      <trkpt lat="43.65677" lon="3.34089">
        <ele>173</ele>
        <time>2026-05-17T12:56:45.999Z</time>
      </trkpt>
      <trkpt lat="43.65678" lon="3.3409">
        <ele>172.5</ele>
        <time>2026-05-17T12:56:46.999Z</time>
      </trkpt>
      <trkpt lat="43.65678" lon="3.34091">
        <ele>172.5</ele>
        <time>2026-05-17T12:56:47.999Z</time>
      </trkpt>
      <trkpt lat="43.65679" lon="3.34092">
        <ele>172.6</ele>
        <time>2026-05-17T12:56:48.999Z</time>
      </trkpt>
      <trkpt lat="43.65679" lon="3.34093">
        <ele>172.8</ele>
        <time>2026-05-17T12:56:49.999Z</time>
      </trkpt>
      <trkpt lat="43.6568" lon="3.34095">
        <ele>172.6</ele>
        <time>2026-05-17T12:56:51.000Z</time>
      </trkpt>
      <trkpt lat="43.65679" lon="3.34095">
        <ele>172.4</ele>
        <time>2026-05-17T12:56:52.000Z</time>
      </trkpt>
      <trkpt lat="43.6568" lon="3.34095">
        <ele>172.4</ele>
        <time>2026-05-17T12:56:53.000Z</time>
      </trkpt>
      <trkpt lat="43.65679" lon="3.34095">
        <ele>172.4</ele>
        <time>2026-05-17T12:56:54.000Z</time>
      </trkpt>
      <trkpt lat="43.65679" lon="3.34095">
        <ele>172.4</ele>
        <time>2026-05-17T12:56:55.000Z</time>
      </trkpt>
      <trkpt lat="43.65679" lon="3.34095">
        <ele>172.6</ele>
        <time>2026-05-17T12:56:56.000Z</time>
      </trkpt>
      <trkpt lat="43.65679" lon="3.34095">
        <ele>172.5</ele>
        <time>2026-05-17T12:56:57.000Z</time>
      </trkpt>
      <trkpt lat="43.65679" lon="3.34095">
        <ele>172.3</ele>
        <time>2026-05-17T12:56:58.000Z</time>
      </trkpt>
      <trkpt lat="43.65679" lon="3.34095">
        <ele>172.2</ele>
        <time>2026-05-17T12:56:59.000Z</time>
      </trkpt>
      <trkpt lat="43.65678" lon="3.34094">
        <ele>172</ele>
        <time>2026-05-17T12:57:00.000Z</time>
      </trkpt>
      <trkpt lat="43.65677" lon="3.34094">
        <ele>171.9</ele>
        <time>2026-05-17T12:57:01.000Z</time>
      </trkpt>
      <trkpt lat="43.65677" lon="3.34094">
        <ele>171.7</ele>
        <time>2026-05-17T12:57:02.000Z</time>
      </trkpt>
      <trkpt lat="43.65677" lon="3.34094">
        <ele>171.7</ele>
        <time>2026-05-17T12:57:03.000Z</time>
      </trkpt>
      <trkpt lat="43.65677" lon="3.34095">
        <ele>171.8</ele>
        <time>2026-05-17T12:57:04.000Z</time>
      </trkpt>
      <trkpt lat="43.65677" lon="3.34095">
        <ele>171.9</ele>
        <time>2026-05-17T12:57:05.000Z</time>
      </trkpt>
      <trkpt lat="43.65677" lon="3.34095">
        <ele>171.6</ele>
        <time>2026-05-17T12:57:06.000Z</time>
      </trkpt>
      <trkpt lat="43.65677" lon="3.34095">
        <ele>171.6</ele>
        <time>2026-05-17T12:57:07.000Z</time>
      </trkpt>
      <trkpt lat="43.65677" lon="3.34095">
        <ele>171.9</ele>
        <time>2026-05-17T12:57:08.000Z</time>
      </trkpt>
      <trkpt lat="43.65677" lon="3.34096">
        <ele>171.7</ele>
        <time>2026-05-17T12:57:09.000Z</time>
      </trkpt>
      <trkpt lat="43.65677" lon="3.34096">
        <ele>171.7</ele>
        <time>2026-05-17T12:57:10.000Z</time>
      </trkpt>
      <trkpt lat="43.65676" lon="3.34097">
        <ele>171.8</ele>
        <time>2026-05-17T12:57:11.000Z</time>
      </trkpt>
      <trkpt lat="43.65676" lon="3.34098">
        <ele>172.1</ele>
        <time>2026-05-17T12:57:12.000Z</time>
      </trkpt>
      <trkpt lat="43.65676" lon="3.34099">
        <ele>172.1</ele>
        <time>2026-05-17T12:57:13.000Z</time>
      </trkpt>
      <trkpt lat="43.65677" lon="3.341">
        <ele>172.1</ele>
        <time>2026-05-17T12:57:14.000Z</time>
      </trkpt>
      <trkpt lat="43.65677" lon="3.34101">
        <ele>172.1</ele>
        <time>2026-05-17T12:57:15.000Z</time>
      </trkpt>
      <trkpt lat="43.65677" lon="3.34102">
        <ele>172.2</ele>
        <time>2026-05-17T12:57:16.000Z</time>
      </trkpt>
      <trkpt lat="43.65677" lon="3.34103">
        <ele>172.4</ele>
        <time>2026-05-17T12:57:17.000Z</time>
      </trkpt>
      <trkpt lat="43.65678" lon="3.34104">
        <ele>172.5</ele>
        <time>2026-05-17T12:57:18.000Z</time>
      </trkpt>
      <trkpt lat="43.65678" lon="3.34104">
        <ele>172.5</ele>
        <time>2026-05-17T12:57:19.000Z</time>
      </trkpt>
      <trkpt lat="43.65678" lon="3.34105">
        <ele>172.5</ele>
        <time>2026-05-17T12:57:20.000Z</time>
      </trkpt>
      <trkpt lat="43.65678" lon="3.34106">
        <ele>172.4</ele>
        <time>2026-05-17T12:57:21.000Z</time>
      </trkpt>
      <trkpt lat="43.65678" lon="3.34107">
        <ele>172.4</ele>
        <time>2026-05-17T12:57:22.000Z</time>
      </trkpt>
      <trkpt lat="43.65678" lon="3.34108">
        <ele>172.7</ele>
        <time>2026-05-17T12:57:23.000Z</time>
      </trkpt>
      <trkpt lat="43.65678" lon="3.34108">
        <ele>172.8</ele>
        <time>2026-05-17T12:57:24.000Z</time>
      </trkpt>
      <trkpt lat="43.65677" lon="3.34109">
        <ele>173</ele>
        <time>2026-05-17T12:57:25.000Z</time>
      </trkpt>
      <trkpt lat="43.65678" lon="3.3411">
        <ele>173.4</ele>
        <time>2026-05-17T12:57:26.000Z</time>
      </trkpt>
      <trkpt lat="43.65677" lon="3.34111">
        <ele>173.5</ele>
        <time>2026-05-17T12:57:27.000Z</time>
      </trkpt>
      <trkpt lat="43.65677" lon="3.34113">
        <ele>173.7</ele>
        <time>2026-05-17T12:57:28.000Z</time>
      </trkpt>
      <trkpt lat="43.65677" lon="3.34114">
        <ele>173.9</ele>
        <time>2026-05-17T12:57:29.000Z</time>
      </trkpt>
      <trkpt lat="43.65677" lon="3.34115">
        <ele>173.8</ele>
        <time>2026-05-17T12:57:30.000Z</time>
      </trkpt>
      <trkpt lat="43.65677" lon="3.34116">
        <ele>174.1</ele>
        <time>2026-05-17T12:57:31.000Z</time>
      </trkpt>
      <trkpt lat="43.65677" lon="3.34116">
        <ele>174.1</ele>
        <time>2026-05-17T12:57:32.000Z</time>
      </trkpt>
      <trkpt lat="43.65677" lon="3.34117">
        <ele>174.3</ele>
        <time>2026-05-17T12:57:33.000Z</time>
      </trkpt>
      <trkpt lat="43.65678" lon="3.34118">
        <ele>174.7</ele>
        <time>2026-05-17T12:57:34.000Z</time>
      </trkpt>
      <trkpt lat="43.65677" lon="3.3412">
        <ele>175</ele>
        <time>2026-05-17T12:57:35.000Z</time>
      </trkpt>
      <trkpt lat="43.65677" lon="3.3412">
        <ele>175.3</ele>
        <time>2026-05-17T12:57:36.000Z</time>
      </trkpt>
      <trkpt lat="43.65677" lon="3.34121">
        <ele>175.6</ele>
        <time>2026-05-17T12:57:37.000Z</time>
      </trkpt>
      <trkpt lat="43.65677" lon="3.34122">
        <ele>176.2</ele>
        <time>2026-05-17T12:57:38.000Z</time>
      </trkpt>
      <trkpt lat="43.65677" lon="3.34123">
        <ele>176.4</ele>
        <time>2026-05-17T12:57:39.000Z</time>
      </trkpt>
      <trkpt lat="43.65677" lon="3.34123">
        <ele>176.2</ele>
        <time>2026-05-17T12:57:40.000Z</time>
      </trkpt>
      <trkpt lat="43.65677" lon="3.34123">
        <ele>176.1</ele>
        <time>2026-05-17T12:57:41.000Z</time>
      </trkpt>
      <trkpt lat="43.65677" lon="3.34123">
        <ele>176.4</ele>
        <time>2026-05-17T12:57:42.000Z</time>
      </trkpt>
      <trkpt lat="43.65677" lon="3.34123">
        <ele>176.2</ele>
        <time>2026-05-17T12:57:43.000Z</time>
      </trkpt>
      <trkpt lat="43.65677" lon="3.34123">
        <ele>176.2</ele>
        <time>2026-05-17T12:57:44.000Z</time>
      </trkpt>
      <trkpt lat="43.65678" lon="3.34123">
        <ele>176.1</ele>
        <time>2026-05-17T12:57:45.000Z</time>
      </trkpt>
      <trkpt lat="43.65679" lon="3.34124">
        <ele>176.2</ele>
        <time>2026-05-17T12:57:46.000Z</time>
      </trkpt>
      <trkpt lat="43.6568" lon="3.34125">
        <ele>176.3</ele>
        <time>2026-05-17T12:57:47.000Z</time>
      </trkpt>
      <trkpt lat="43.6568" lon="3.34126">
        <ele>176.5</ele>
        <time>2026-05-17T12:57:48.000Z</time>
      </trkpt>
      <trkpt lat="43.6568" lon="3.34127">
        <ele>176.5</ele>
        <time>2026-05-17T12:57:49.000Z</time>
      </trkpt>
      <trkpt lat="43.6568" lon="3.34128">
        <ele>176.5</ele>
        <time>2026-05-17T12:57:50.000Z</time>
      </trkpt>
      <trkpt lat="43.6568" lon="3.34128">
        <ele>176.5</ele>
        <time>2026-05-17T12:57:51.000Z</time>
      </trkpt>
      <trkpt lat="43.6568" lon="3.34129">
        <ele>176.5</ele>
        <time>2026-05-17T12:57:52.000Z</time>
      </trkpt>
      <trkpt lat="43.65681" lon="3.34129">
        <ele>176.5</ele>
        <time>2026-05-17T12:57:53.000Z</time>
      </trkpt>
      <trkpt lat="43.65681" lon="3.3413">
        <ele>176.5</ele>
        <time>2026-05-17T12:57:54.000Z</time>
      </trkpt>
      <trkpt lat="43.65682" lon="3.3413">
        <ele>176.6</ele>
        <time>2026-05-17T12:57:55.000Z</time>
      </trkpt>
      <trkpt lat="43.65682" lon="3.34131">
        <ele>176.7</ele>
        <time>2026-05-17T12:57:56.000Z</time>
      </trkpt>
      <trkpt lat="43.65683" lon="3.34131">
        <ele>176.7</ele>
        <time>2026-05-17T12:57:57.000Z</time>
      </trkpt>
      <trkpt lat="43.65684" lon="3.34132">
        <ele>176.7</ele>
        <time>2026-05-17T12:57:58.000Z</time>
      </trkpt>
      <trkpt lat="43.65684" lon="3.34133">
        <ele>176.7</ele>
        <time>2026-05-17T12:57:59.000Z</time>
      </trkpt>
      <trkpt lat="43.65685" lon="3.34134">
        <ele>176.7</ele>
        <time>2026-05-17T12:58:00.000Z</time>
      </trkpt>
      <trkpt lat="43.65685" lon="3.34135">
        <ele>176.8</ele>
        <time>2026-05-17T12:58:01.000Z</time>
      </trkpt>
      <trkpt lat="43.65686" lon="3.34136">
        <ele>176.7</ele>
        <time>2026-05-17T12:58:02.000Z</time>
      </trkpt>
      <trkpt lat="43.65687" lon="3.34138">
        <ele>176.4</ele>
        <time>2026-05-17T12:58:03.000Z</time>
      </trkpt>
      <trkpt lat="43.65688" lon="3.34139">
        <ele>176.3</ele>
        <time>2026-05-17T12:58:04.000Z</time>
      </trkpt>
      <trkpt lat="43.65688" lon="3.3414">
        <ele>176.2</ele>
        <time>2026-05-17T12:58:05.000Z</time>
      </trkpt>
      <trkpt lat="43.65689" lon="3.34141">
        <ele>176.1</ele>
        <time>2026-05-17T12:58:06.000Z</time>
      </trkpt>
      <trkpt lat="43.6569" lon="3.34142">
        <ele>176.2</ele>
        <time>2026-05-17T12:58:07.000Z</time>
      </trkpt>
      <trkpt lat="43.65691" lon="3.34143">
        <ele>176.2</ele>
        <time>2026-05-17T12:58:08.000Z</time>
      </trkpt>
      <trkpt lat="43.65691" lon="3.34144">
        <ele>176.2</ele>
        <time>2026-05-17T12:58:09.000Z</time>
      </trkpt>
      <trkpt lat="43.65692" lon="3.34144">
        <ele>176.2</ele>
        <time>2026-05-17T12:58:10.000Z</time>
      </trkpt>
      <trkpt lat="43.65692" lon="3.34145">
        <ele>175.9</ele>
        <time>2026-05-17T12:58:11.000Z</time>
      </trkpt>
      <trkpt lat="43.65692" lon="3.34146">
        <ele>175.6</ele>
        <time>2026-05-17T12:58:12.000Z</time>
      </trkpt>
      <trkpt lat="43.65693" lon="3.34147">
        <ele>175.3</ele>
        <time>2026-05-17T12:58:13.000Z</time>
      </trkpt>
      <trkpt lat="43.65693" lon="3.34148">
        <ele>175.6</ele>
        <time>2026-05-17T12:58:14.000Z</time>
      </trkpt>
      <trkpt lat="43.65693" lon="3.34149">
        <ele>175.7</ele>
        <time>2026-05-17T12:58:15.000Z</time>
      </trkpt>
      <trkpt lat="43.65694" lon="3.3415">
        <ele>175.6</ele>
        <time>2026-05-17T12:58:16.000Z</time>
      </trkpt>
      <trkpt lat="43.65694" lon="3.34151">
        <ele>175.5</ele>
        <time>2026-05-17T12:58:17.000Z</time>
      </trkpt>
      <trkpt lat="43.65694" lon="3.34153">
        <ele>175.4</ele>
        <time>2026-05-17T12:58:18.000Z</time>
      </trkpt>
      <trkpt lat="43.65694" lon="3.34155">
        <ele>175.2</ele>
        <time>2026-05-17T12:58:19.000Z</time>
      </trkpt>
      <trkpt lat="43.65694" lon="3.34156">
        <ele>175</ele>
        <time>2026-05-17T12:58:20.000Z</time>
      </trkpt>
      <trkpt lat="43.65694" lon="3.34158">
        <ele>174.8</ele>
        <time>2026-05-17T12:58:21.000Z</time>
      </trkpt>
      <trkpt lat="43.65693" lon="3.3416">
        <ele>174.8</ele>
        <time>2026-05-17T12:58:22.000Z</time>
      </trkpt>
      <trkpt lat="43.65693" lon="3.34161">
        <ele>174.5</ele>
        <time>2026-05-17T12:58:23.000Z</time>
      </trkpt>
      <trkpt lat="43.65694" lon="3.34162">
        <ele>174.3</ele>
        <time>2026-05-17T12:58:24.000Z</time>
      </trkpt>
      <trkpt lat="43.65694" lon="3.34163">
        <ele>174</ele>
        <time>2026-05-17T12:58:25.000Z</time>
      </trkpt>
      <trkpt lat="43.65694" lon="3.34163">
        <ele>173.6</ele>
        <time>2026-05-17T12:58:26.000Z</time>
      </trkpt>
      <trkpt lat="43.65695" lon="3.34164">
        <ele>173.3</ele>
        <time>2026-05-17T12:58:27.000Z</time>
      </trkpt>
      <trkpt lat="43.65694" lon="3.34166">
        <ele>173.1</ele>
        <time>2026-05-17T12:58:28.000Z</time>
      </trkpt>
      <trkpt lat="43.65694" lon="3.34169">
        <ele>173.6</ele>
        <time>2026-05-17T12:58:29.000Z</time>
      </trkpt>
      <trkpt lat="43.65694" lon="3.34171">
        <ele>173.4</ele>
        <time>2026-05-17T12:58:30.000Z</time>
      </trkpt>
      <trkpt lat="43.65693" lon="3.34172">
        <ele>173.3</ele>
        <time>2026-05-17T12:58:31.000Z</time>
      </trkpt>
      <trkpt lat="43.65693" lon="3.34173">
        <ele>173.1</ele>
        <time>2026-05-17T12:58:32.000Z</time>
      </trkpt>
      <trkpt lat="43.65693" lon="3.34174">
        <ele>172.4</ele>
        <time>2026-05-17T12:58:33.000Z</time>
      </trkpt>
      <trkpt lat="43.65693" lon="3.34175">
        <ele>171.9</ele>
        <time>2026-05-17T12:58:34.000Z</time>
      </trkpt>
      <trkpt lat="43.65694" lon="3.34176">
        <ele>172</ele>
        <time>2026-05-17T12:58:35.000Z</time>
      </trkpt>
      <trkpt lat="43.65694" lon="3.34178">
        <ele>171.9</ele>
        <time>2026-05-17T12:58:36.000Z</time>
      </trkpt>
      <trkpt lat="43.65694" lon="3.34179">
        <ele>171.6</ele>
        <time>2026-05-17T12:58:37.000Z</time>
      </trkpt>
      <trkpt lat="43.65694" lon="3.3418">
        <ele>171.8</ele>
        <time>2026-05-17T12:58:38.000Z</time>
      </trkpt>
      <trkpt lat="43.65694" lon="3.34182">
        <ele>171.8</ele>
        <time>2026-05-17T12:58:39.000Z</time>
      </trkpt>
      <trkpt lat="43.65695" lon="3.34184">
        <ele>171.8</ele>
        <time>2026-05-17T12:58:40.000Z</time>
      </trkpt>
      <trkpt lat="43.65695" lon="3.34185">
        <ele>171.6</ele>
        <time>2026-05-17T12:58:41.000Z</time>
      </trkpt>
      <trkpt lat="43.65695" lon="3.34186">
        <ele>171.3</ele>
        <time>2026-05-17T12:58:42.000Z</time>
      </trkpt>
      <trkpt lat="43.65696" lon="3.34188">
        <ele>171.4</ele>
        <time>2026-05-17T12:58:43.000Z</time>
      </trkpt>
      <trkpt lat="43.65696" lon="3.34189">
        <ele>171.7</ele>
        <time>2026-05-17T12:58:44.000Z</time>
      </trkpt>
      <trkpt lat="43.65696" lon="3.34191">
        <ele>172</ele>
        <time>2026-05-17T12:58:45.000Z</time>
      </trkpt>
      <trkpt lat="43.65696" lon="3.34192">
        <ele>172.1</ele>
        <time>2026-05-17T12:58:46.000Z</time>
      </trkpt>
      <trkpt lat="43.65696" lon="3.34192">
        <ele>172</ele>
        <time>2026-05-17T12:58:47.000Z</time>
      </trkpt>
      <trkpt lat="43.65697" lon="3.34193">
        <ele>171.9</ele>
        <time>2026-05-17T12:58:48.000Z</time>
      </trkpt>
      <trkpt lat="43.65698" lon="3.34194">
        <ele>172.2</ele>
        <time>2026-05-17T12:58:49.000Z</time>
      </trkpt>
      <trkpt lat="43.65699" lon="3.34195">
        <ele>172.5</ele>
        <time>2026-05-17T12:58:50.000Z</time>
      </trkpt>
      <trkpt lat="43.657" lon="3.34196">
        <ele>172.5</ele>
        <time>2026-05-17T12:58:51.000Z</time>
      </trkpt>
      <trkpt lat="43.657" lon="3.34196">
        <ele>172.4</ele>
        <time>2026-05-17T12:58:52.000Z</time>
      </trkpt>
      <trkpt lat="43.657" lon="3.34197">
        <ele>172.1</ele>
        <time>2026-05-17T12:58:53.000Z</time>
      </trkpt>
      <trkpt lat="43.65699" lon="3.34198">
        <ele>172.4</ele>
        <time>2026-05-17T12:58:54.000Z</time>
      </trkpt>
      <trkpt lat="43.65699" lon="3.34198">
        <ele>172.3</ele>
        <time>2026-05-17T12:58:55.000Z</time>
      </trkpt>
      <trkpt lat="43.65698" lon="3.34198">
        <ele>172.4</ele>
        <time>2026-05-17T12:58:56.000Z</time>
      </trkpt>
      <trkpt lat="43.65698" lon="3.34199">
        <ele>172.4</ele>
        <time>2026-05-17T12:58:57.000Z</time>
      </trkpt>
      <trkpt lat="43.65698" lon="3.34199">
        <ele>172.5</ele>
        <time>2026-05-17T12:58:58.000Z</time>
      </trkpt>
      <trkpt lat="43.65698" lon="3.34199">
        <ele>172.6</ele>
        <time>2026-05-17T12:58:59.000Z</time>
      </trkpt>
      <trkpt lat="43.65698" lon="3.342">
        <ele>172.7</ele>
        <time>2026-05-17T12:59:00.000Z</time>
      </trkpt>
      <trkpt lat="43.65699" lon="3.34201">
        <ele>172.8</ele>
        <time>2026-05-17T12:59:01.000Z</time>
      </trkpt>
      <trkpt lat="43.65699" lon="3.34202">
        <ele>172.8</ele>
        <time>2026-05-17T12:59:02.000Z</time>
      </trkpt>
      <trkpt lat="43.65699" lon="3.34204">
        <ele>172.8</ele>
        <time>2026-05-17T12:59:03.000Z</time>
      </trkpt>
      <trkpt lat="43.65699" lon="3.34205">
        <ele>172.8</ele>
        <time>2026-05-17T12:59:04.000Z</time>
      </trkpt>
      <trkpt lat="43.65699" lon="3.34206">
        <ele>172.6</ele>
        <time>2026-05-17T12:59:05.000Z</time>
      </trkpt>
      <trkpt lat="43.65699" lon="3.34207">
        <ele>172.7</ele>
        <time>2026-05-17T12:59:06.000Z</time>
      </trkpt>
      <trkpt lat="43.657" lon="3.34209">
        <ele>172.6</ele>
        <time>2026-05-17T12:59:07.000Z</time>
      </trkpt>
      <trkpt lat="43.657" lon="3.3421">
        <ele>172.6</ele>
        <time>2026-05-17T12:59:08.000Z</time>
      </trkpt>
      <trkpt lat="43.65699" lon="3.34211">
        <ele>172.4</ele>
        <time>2026-05-17T12:59:09.000Z</time>
      </trkpt>
      <trkpt lat="43.65699" lon="3.34212">
        <ele>172.4</ele>
        <time>2026-05-17T12:59:10.000Z</time>
      </trkpt>
      <trkpt lat="43.65699" lon="3.34213">
        <ele>172.5</ele>
        <time>2026-05-17T12:59:11.000Z</time>
      </trkpt>
      <trkpt lat="43.65699" lon="3.34213">
        <ele>172.8</ele>
        <time>2026-05-17T12:59:12.000Z</time>
      </trkpt>
      <trkpt lat="43.65698" lon="3.34214">
        <ele>172.9</ele>
        <time>2026-05-17T12:59:13.000Z</time>
      </trkpt>
      <trkpt lat="43.65698" lon="3.34215">
        <ele>172.7</ele>
        <time>2026-05-17T12:59:14.000Z</time>
      </trkpt>
      <trkpt lat="43.65698" lon="3.34216">
        <ele>172.7</ele>
        <time>2026-05-17T12:59:15.000Z</time>
      </trkpt>
      <trkpt lat="43.65698" lon="3.34218">
        <ele>173</ele>
        <time>2026-05-17T12:59:16.000Z</time>
      </trkpt>
      <trkpt lat="43.65698" lon="3.34219">
        <ele>173.3</ele>
        <time>2026-05-17T12:59:17.000Z</time>
      </trkpt>
      <trkpt lat="43.65698" lon="3.34221">
        <ele>173.7</ele>
        <time>2026-05-17T12:59:18.000Z</time>
      </trkpt>
      <trkpt lat="43.65698" lon="3.34222">
        <ele>174.2</ele>
        <time>2026-05-17T12:59:19.000Z</time>
      </trkpt>
      <trkpt lat="43.65698" lon="3.34223">
        <ele>174.1</ele>
        <time>2026-05-17T12:59:20.000Z</time>
      </trkpt>
      <trkpt lat="43.65698" lon="3.34224">
        <ele>174.3</ele>
        <time>2026-05-17T12:59:21.000Z</time>
      </trkpt>
      <trkpt lat="43.65698" lon="3.34225">
        <ele>174.8</ele>
        <time>2026-05-17T12:59:22.000Z</time>
      </trkpt>
      <trkpt lat="43.65698" lon="3.34227">
        <ele>175.3</ele>
        <time>2026-05-17T12:59:23.000Z</time>
      </trkpt>
      <trkpt lat="43.65698" lon="3.34228">
        <ele>175.5</ele>
        <time>2026-05-17T12:59:24.000Z</time>
      </trkpt>
      <trkpt lat="43.65698" lon="3.34229">
        <ele>175.6</ele>
        <time>2026-05-17T12:59:25.000Z</time>
      </trkpt>
      <trkpt lat="43.65697" lon="3.34231">
        <ele>175.4</ele>
        <time>2026-05-17T12:59:26.000Z</time>
      </trkpt>
      <trkpt lat="43.65697" lon="3.34234">
        <ele>175.5</ele>
        <time>2026-05-17T12:59:27.000Z</time>
      </trkpt>
      <trkpt lat="43.65696" lon="3.34236">
        <ele>176.2</ele>
        <time>2026-05-17T12:59:28.000Z</time>
      </trkpt>
      <trkpt lat="43.65696" lon="3.34239">
        <ele>176.8</ele>
        <time>2026-05-17T12:59:29.000Z</time>
      </trkpt>
      <trkpt lat="43.65696" lon="3.3424">
        <ele>176.6</ele>
        <time>2026-05-17T12:59:30.000Z</time>
      </trkpt>
      <trkpt lat="43.65696" lon="3.34242">
        <ele>176.7</ele>
        <time>2026-05-17T12:59:31.000Z</time>
      </trkpt>
      <trkpt lat="43.65696" lon="3.34243">
        <ele>176.6</ele>
        <time>2026-05-17T12:59:32.000Z</time>
      </trkpt>
      <trkpt lat="43.65696" lon="3.34244">
        <ele>176.3</ele>
        <time>2026-05-17T12:59:33.000Z</time>
      </trkpt>
      <trkpt lat="43.65696" lon="3.34245">
        <ele>176.2</ele>
        <time>2026-05-17T12:59:34.000Z</time>
      </trkpt>
      <trkpt lat="43.65697" lon="3.34245">
        <ele>176.3</ele>
        <time>2026-05-17T12:59:35.000Z</time>
      </trkpt>
      <trkpt lat="43.65698" lon="3.34246">
        <ele>176</ele>
        <time>2026-05-17T12:59:36.000Z</time>
      </trkpt>
      <trkpt lat="43.65699" lon="3.34248">
        <ele>175.7</ele>
        <time>2026-05-17T12:59:37.000Z</time>
      </trkpt>
      <trkpt lat="43.657" lon="3.34248">
        <ele>175.5</ele>
        <time>2026-05-17T12:59:38.000Z</time>
      </trkpt>
      <trkpt lat="43.657" lon="3.34249">
        <ele>175</ele>
        <time>2026-05-17T12:59:39.000Z</time>
      </trkpt>
      <trkpt lat="43.657" lon="3.34249">
        <ele>174.7</ele>
        <time>2026-05-17T12:59:40.000Z</time>
      </trkpt>
      <trkpt lat="43.657" lon="3.3425">
        <ele>174.5</ele>
        <time>2026-05-17T12:59:41.000Z</time>
      </trkpt>
      <trkpt lat="43.65701" lon="3.34251">
        <ele>174.5</ele>
        <time>2026-05-17T12:59:42.000Z</time>
      </trkpt>
      <trkpt lat="43.65701" lon="3.34252">
        <ele>174.5</ele>
        <time>2026-05-17T12:59:43.000Z</time>
      </trkpt>
      <trkpt lat="43.65701" lon="3.34253">
        <ele>174.2</ele>
        <time>2026-05-17T12:59:44.000Z</time>
      </trkpt>
      <trkpt lat="43.65701" lon="3.34253">
        <ele>173.9</ele>
        <time>2026-05-17T12:59:45.000Z</time>
      </trkpt>
      <trkpt lat="43.65701" lon="3.34254">
        <ele>173.7</ele>
        <time>2026-05-17T12:59:46.000Z</time>
      </trkpt>
      <trkpt lat="43.65701" lon="3.34254">
        <ele>174</ele>
        <time>2026-05-17T12:59:47.000Z</time>
      </trkpt>
      <trkpt lat="43.657" lon="3.34256">
        <ele>174.3</ele>
        <time>2026-05-17T12:59:48.000Z</time>
      </trkpt>
      <trkpt lat="43.657" lon="3.34257">
        <ele>173.8</ele>
        <time>2026-05-17T12:59:49.000Z</time>
      </trkpt>
      <trkpt lat="43.657" lon="3.34257">
        <ele>173.6</ele>
        <time>2026-05-17T12:59:50.000Z</time>
      </trkpt>
      <trkpt lat="43.657" lon="3.34258">
        <ele>173.4</ele>
        <time>2026-05-17T12:59:51.000Z</time>
      </trkpt>
      <trkpt lat="43.657" lon="3.3426">
        <ele>173.1</ele>
        <time>2026-05-17T12:59:52.000Z</time>
      </trkpt>
      <trkpt lat="43.657" lon="3.34261">
        <ele>173.1</ele>
        <time>2026-05-17T12:59:53.000Z</time>
      </trkpt>
      <trkpt lat="43.65701" lon="3.34263">
        <ele>172.8</ele>
        <time>2026-05-17T12:59:54.000Z</time>
      </trkpt>
      <trkpt lat="43.65701" lon="3.34263">
        <ele>172.4</ele>
        <time>2026-05-17T12:59:55.000Z</time>
      </trkpt>
      <trkpt lat="43.65701" lon="3.34264">
        <ele>172.4</ele>
        <time>2026-05-17T12:59:56.000Z</time>
      </trkpt>
      <trkpt lat="43.65701" lon="3.34265">
        <ele>172.8</ele>
        <time>2026-05-17T12:59:57.000Z</time>
      </trkpt>
      <trkpt lat="43.65702" lon="3.34266">
        <ele>172.8</ele>
        <time>2026-05-17T12:59:58.000Z</time>
      </trkpt>
      <trkpt lat="43.65702" lon="3.34267">
        <ele>172.9</ele>
        <time>2026-05-17T12:59:59.000Z</time>
      </trkpt>
      <trkpt lat="43.65703" lon="3.34268">
        <ele>172.9</ele>
        <time>2026-05-17T13:00:00.000Z</time>
      </trkpt>
      <trkpt lat="43.65703" lon="3.34268">
        <ele>173</ele>
        <time>2026-05-17T13:00:01.000Z</time>
      </trkpt>
      <trkpt lat="43.65704" lon="3.34269">
        <ele>173.1</ele>
        <time>2026-05-17T13:00:02.000Z</time>
      </trkpt>
      <trkpt lat="43.65705" lon="3.3427">
        <ele>173.4</ele>
        <time>2026-05-17T13:00:03.000Z</time>
      </trkpt>
      <trkpt lat="43.65706" lon="3.34271">
        <ele>173.7</ele>
        <time>2026-05-17T13:00:04.000Z</time>
      </trkpt>
      <trkpt lat="43.65706" lon="3.34272">
        <ele>173.8</ele>
        <time>2026-05-17T13:00:05.000Z</time>
      </trkpt>
      <trkpt lat="43.65707" lon="3.34272">
        <ele>174</ele>
        <time>2026-05-17T13:00:06.000Z</time>
      </trkpt>
      <trkpt lat="43.65707" lon="3.34274">
        <ele>174.2</ele>
        <time>2026-05-17T13:00:07.000Z</time>
      </trkpt>
      <trkpt lat="43.65708" lon="3.34275">
        <ele>174.3</ele>
        <time>2026-05-17T13:00:08.000Z</time>
      </trkpt>
      <trkpt lat="43.65708" lon="3.34276">
        <ele>174.7</ele>
        <time>2026-05-17T13:00:09.000Z</time>
      </trkpt>
      <trkpt lat="43.65709" lon="3.34278">
        <ele>174.8</ele>
        <time>2026-05-17T13:00:10.000Z</time>
      </trkpt>
      <trkpt lat="43.65709" lon="3.34279">
        <ele>174.9</ele>
        <time>2026-05-17T13:00:11.000Z</time>
      </trkpt>
      <trkpt lat="43.65709" lon="3.34281">
        <ele>174.7</ele>
        <time>2026-05-17T13:00:12.000Z</time>
      </trkpt>
      <trkpt lat="43.65709" lon="3.34282">
        <ele>174.4</ele>
        <time>2026-05-17T13:00:13.000Z</time>
      </trkpt>
      <trkpt lat="43.65709" lon="3.34283">
        <ele>174.5</ele>
        <time>2026-05-17T13:00:14.000Z</time>
      </trkpt>
      <trkpt lat="43.65709" lon="3.34284">
        <ele>174.4</ele>
        <time>2026-05-17T13:00:15.000Z</time>
      </trkpt>
      <trkpt lat="43.65709" lon="3.34285">
        <ele>174.4</ele>
        <time>2026-05-17T13:00:16.000Z</time>
      </trkpt>
      <trkpt lat="43.65709" lon="3.34285">
        <ele>174.5</ele>
        <time>2026-05-17T13:00:17.000Z</time>
      </trkpt>
      <trkpt lat="43.65709" lon="3.34287">
        <ele>174.4</ele>
        <time>2026-05-17T13:00:18.000Z</time>
      </trkpt>
      <trkpt lat="43.65709" lon="3.34289">
        <ele>174.4</ele>
        <time>2026-05-17T13:00:19.000Z</time>
      </trkpt>
      <trkpt lat="43.65709" lon="3.3429">
        <ele>174.4</ele>
        <time>2026-05-17T13:00:20.000Z</time>
      </trkpt>
      <trkpt lat="43.65709" lon="3.34291">
        <ele>174.6</ele>
        <time>2026-05-17T13:00:21.000Z</time>
      </trkpt>
      <trkpt lat="43.65709" lon="3.34293">
        <ele>174.8</ele>
        <time>2026-05-17T13:00:22.000Z</time>
      </trkpt>
      <trkpt lat="43.6571" lon="3.34294">
        <ele>174.9</ele>
        <time>2026-05-17T13:00:23.000Z</time>
      </trkpt>
      <trkpt lat="43.6571" lon="3.34297">
        <ele>174.9</ele>
        <time>2026-05-17T13:00:24.000Z</time>
      </trkpt>
      <trkpt lat="43.6571" lon="3.34298">
        <ele>174.8</ele>
        <time>2026-05-17T13:00:25.000Z</time>
      </trkpt>
      <trkpt lat="43.6571" lon="3.343">
        <ele>174.6</ele>
        <time>2026-05-17T13:00:26.000Z</time>
      </trkpt>
      <trkpt lat="43.65711" lon="3.34301">
        <ele>174.3</ele>
        <time>2026-05-17T13:00:27.000Z</time>
      </trkpt>
      <trkpt lat="43.65711" lon="3.34302">
        <ele>174.2</ele>
        <time>2026-05-17T13:00:28.000Z</time>
      </trkpt>
      <trkpt lat="43.65712" lon="3.34303">
        <ele>174</ele>
        <time>2026-05-17T13:00:29.000Z</time>
      </trkpt>
      <trkpt lat="43.65713" lon="3.34304">
        <ele>173.8</ele>
        <time>2026-05-17T13:00:30.000Z</time>
      </trkpt>
      <trkpt lat="43.65713" lon="3.34305">
        <ele>173.9</ele>
        <time>2026-05-17T13:00:31.000Z</time>
      </trkpt>
      <trkpt lat="43.65713" lon="3.34306">
        <ele>174</ele>
        <time>2026-05-17T13:00:32.000Z</time>
      </trkpt>
      <trkpt lat="43.65714" lon="3.34308">
        <ele>174.2</ele>
        <time>2026-05-17T13:00:33.000Z</time>
      </trkpt>
      <trkpt lat="43.65715" lon="3.34309">
        <ele>174</ele>
        <time>2026-05-17T13:00:34.000Z</time>
      </trkpt>
      <trkpt lat="43.65716" lon="3.34311">
        <ele>173.9</ele>
        <time>2026-05-17T13:00:35.000Z</time>
      </trkpt>
      <trkpt lat="43.65715" lon="3.34313">
        <ele>173.9</ele>
        <time>2026-05-17T13:00:36.000Z</time>
      </trkpt>
      <trkpt lat="43.65715" lon="3.34313">
        <ele>173.7</ele>
        <time>2026-05-17T13:00:37.000Z</time>
      </trkpt>
      <trkpt lat="43.65715" lon="3.34314">
        <ele>174</ele>
        <time>2026-05-17T13:00:38.000Z</time>
      </trkpt>
      <trkpt lat="43.65714" lon="3.34314">
        <ele>174.3</ele>
        <time>2026-05-17T13:00:39.000Z</time>
      </trkpt>
      <trkpt lat="43.65713" lon="3.34315">
        <ele>174.2</ele>
        <time>2026-05-17T13:00:40.000Z</time>
      </trkpt>
      <trkpt lat="43.65712" lon="3.34316">
        <ele>174.1</ele>
        <time>2026-05-17T13:00:41.000Z</time>
      </trkpt>
      <trkpt lat="43.65712" lon="3.34318">
        <ele>174</ele>
        <time>2026-05-17T13:00:42.000Z</time>
      </trkpt>
      <trkpt lat="43.65712" lon="3.3432">
        <ele>174.1</ele>
        <time>2026-05-17T13:00:43.000Z</time>
      </trkpt>
      <trkpt lat="43.65712" lon="3.34321">
        <ele>174.1</ele>
        <time>2026-05-17T13:00:44.000Z</time>
      </trkpt>
      <trkpt lat="43.65713" lon="3.34322">
        <ele>174.2</ele>
        <time>2026-05-17T13:00:45.000Z</time>
      </trkpt>
      <trkpt lat="43.65713" lon="3.34322">
        <ele>174</ele>
        <time>2026-05-17T13:00:46.000Z</time>
      </trkpt>
      <trkpt lat="43.65714" lon="3.34324">
        <ele>173.7</ele>
        <time>2026-05-17T13:00:47.000Z</time>
      </trkpt>
      <trkpt lat="43.65714" lon="3.34325">
        <ele>173.8</ele>
        <time>2026-05-17T13:00:48.000Z</time>
      </trkpt>
      <trkpt lat="43.65715" lon="3.34326">
        <ele>174.1</ele>
        <time>2026-05-17T13:00:49.000Z</time>
      </trkpt>
      <trkpt lat="43.65715" lon="3.34326">
        <ele>174.3</ele>
        <time>2026-05-17T13:00:50.000Z</time>
      </trkpt>
      <trkpt lat="43.65716" lon="3.34327">
        <ele>174.2</ele>
        <time>2026-05-17T13:00:51.000Z</time>
      </trkpt>
      <trkpt lat="43.65716" lon="3.34328">
        <ele>174.3</ele>
        <time>2026-05-17T13:00:52.000Z</time>
      </trkpt>
      <trkpt lat="43.65717" lon="3.3433">
        <ele>174.8</ele>
        <time>2026-05-17T13:00:53.000Z</time>
      </trkpt>
      <trkpt lat="43.65716" lon="3.3433">
        <ele>174.8</ele>
        <time>2026-05-17T13:00:54.000Z</time>
      </trkpt>
      <trkpt lat="43.65717" lon="3.34331">
        <ele>174.9</ele>
        <time>2026-05-17T13:00:55.000Z</time>
      </trkpt>
      <trkpt lat="43.65718" lon="3.34331">
        <ele>175.1</ele>
        <time>2026-05-17T13:00:56.000Z</time>
      </trkpt>
      <trkpt lat="43.65718" lon="3.34332">
        <ele>175.4</ele>
        <time>2026-05-17T13:00:57.000Z</time>
      </trkpt>
      <trkpt lat="43.65719" lon="3.34332">
        <ele>175.5</ele>
        <time>2026-05-17T13:00:58.000Z</time>
      </trkpt>
      <trkpt lat="43.6572" lon="3.34333">
        <ele>175.9</ele>
        <time>2026-05-17T13:00:59.000Z</time>
      </trkpt>
      <trkpt lat="43.65721" lon="3.34333">
        <ele>176.2</ele>
        <time>2026-05-17T13:01:00.000Z</time>
      </trkpt>
      <trkpt lat="43.65722" lon="3.34333">
        <ele>176.3</ele>
        <time>2026-05-17T13:01:01.000Z</time>
      </trkpt>
      <trkpt lat="43.65723" lon="3.34334">
        <ele>176.5</ele>
        <time>2026-05-17T13:01:02.000Z</time>
      </trkpt>
      <trkpt lat="43.65724" lon="3.34335">
        <ele>176.8</ele>
        <time>2026-05-17T13:01:03.000Z</time>
      </trkpt>
      <trkpt lat="43.65725" lon="3.34336">
        <ele>176.9</ele>
        <time>2026-05-17T13:01:04.000Z</time>
      </trkpt>
      <trkpt lat="43.65726" lon="3.34338">
        <ele>176.7</ele>
        <time>2026-05-17T13:01:05.000Z</time>
      </trkpt>
      <trkpt lat="43.65726" lon="3.3434">
        <ele>176.9</ele>
        <time>2026-05-17T13:01:06.000Z</time>
      </trkpt>
      <trkpt lat="43.65727" lon="3.34341">
        <ele>176.8</ele>
        <time>2026-05-17T13:01:07.000Z</time>
      </trkpt>
      <trkpt lat="43.65728" lon="3.34342">
        <ele>176.7</ele>
        <time>2026-05-17T13:01:08.000Z</time>
      </trkpt>
      <trkpt lat="43.65728" lon="3.34342">
        <ele>176.6</ele>
        <time>2026-05-17T13:01:09.000Z</time>
      </trkpt>
      <trkpt lat="43.65728" lon="3.34342">
        <ele>176.8</ele>
        <time>2026-05-17T13:01:10.000Z</time>
      </trkpt>
      <trkpt lat="43.65728" lon="3.34343">
        <ele>177</ele>
        <time>2026-05-17T13:01:11.000Z</time>
      </trkpt>
      <trkpt lat="43.65729" lon="3.34344">
        <ele>177.5</ele>
        <time>2026-05-17T13:01:12.000Z</time>
      </trkpt>
      <trkpt lat="43.65729" lon="3.34344">
        <ele>177.7</ele>
        <time>2026-05-17T13:01:13.000Z</time>
      </trkpt>
      <trkpt lat="43.65729" lon="3.34345">
        <ele>178</ele>
        <time>2026-05-17T13:01:14.000Z</time>
      </trkpt>
      <trkpt lat="43.6573" lon="3.34345">
        <ele>178.1</ele>
        <time>2026-05-17T13:01:15.000Z</time>
      </trkpt>
      <trkpt lat="43.6573" lon="3.34345">
        <ele>178.1</ele>
        <time>2026-05-17T13:01:16.000Z</time>
      </trkpt>
      <trkpt lat="43.6573" lon="3.34346">
        <ele>178.2</ele>
        <time>2026-05-17T13:01:17.000Z</time>
      </trkpt>
      <trkpt lat="43.6573" lon="3.34347">
        <ele>178.3</ele>
        <time>2026-05-17T13:01:18.000Z</time>
      </trkpt>
      <trkpt lat="43.65731" lon="3.34347">
        <ele>178.3</ele>
        <time>2026-05-17T13:01:19.000Z</time>
      </trkpt>
      <trkpt lat="43.65732" lon="3.34348">
        <ele>178.2</ele>
        <time>2026-05-17T13:01:20.000Z</time>
      </trkpt>
      <trkpt lat="43.65732" lon="3.34348">
        <ele>178.4</ele>
        <time>2026-05-17T13:01:21.000Z</time>
      </trkpt>
      <trkpt lat="43.65733" lon="3.34349">
        <ele>178.4</ele>
        <time>2026-05-17T13:01:22.000Z</time>
      </trkpt>
      <trkpt lat="43.65734" lon="3.34351">
        <ele>178.7</ele>
        <time>2026-05-17T13:01:23.000Z</time>
      </trkpt>
      <trkpt lat="43.65735" lon="3.34353">
        <ele>179</ele>
        <time>2026-05-17T13:01:24.000Z</time>
      </trkpt>
      <trkpt lat="43.65735" lon="3.34353">
        <ele>179.1</ele>
        <time>2026-05-17T13:01:25.000Z</time>
      </trkpt>
      <trkpt lat="43.65736" lon="3.34354">
        <ele>178.9</ele>
        <time>2026-05-17T13:01:26.000Z</time>
      </trkpt>
      <trkpt lat="43.65736" lon="3.34355">
        <ele>179</ele>
        <time>2026-05-17T13:01:27.000Z</time>
      </trkpt>
      <trkpt lat="43.65736" lon="3.34356">
        <ele>179.2</ele>
        <time>2026-05-17T13:01:28.000Z</time>
      </trkpt>
      <trkpt lat="43.65737" lon="3.34357">
        <ele>179.5</ele>
        <time>2026-05-17T13:01:29.000Z</time>
      </trkpt>
      <trkpt lat="43.65737" lon="3.34358">
        <ele>179.3</ele>
        <time>2026-05-17T13:01:30.000Z</time>
      </trkpt>
      <trkpt lat="43.65737" lon="3.34358">
        <ele>179.4</ele>
        <time>2026-05-17T13:01:31.000Z</time>
      </trkpt>
      <trkpt lat="43.65737" lon="3.34359">
        <ele>179.5</ele>
        <time>2026-05-17T13:01:32.000Z</time>
      </trkpt>
      <trkpt lat="43.65737" lon="3.3436">
        <ele>179.5</ele>
        <time>2026-05-17T13:01:33.000Z</time>
      </trkpt>
      <trkpt lat="43.65738" lon="3.34361">
        <ele>179.6</ele>
        <time>2026-05-17T13:01:34.000Z</time>
      </trkpt>
      <trkpt lat="43.65738" lon="3.34362">
        <ele>179.6</ele>
        <time>2026-05-17T13:01:35.000Z</time>
      </trkpt>
      <trkpt lat="43.65738" lon="3.34362">
        <ele>179.5</ele>
        <time>2026-05-17T13:01:36.000Z</time>
      </trkpt>
      <trkpt lat="43.65738" lon="3.34363">
        <ele>179.5</ele>
        <time>2026-05-17T13:01:37.000Z</time>
      </trkpt>
      <trkpt lat="43.65739" lon="3.34364">
        <ele>179.2</ele>
        <time>2026-05-17T13:01:38.000Z</time>
      </trkpt>
      <trkpt lat="43.65739" lon="3.34364">
        <ele>179.7</ele>
        <time>2026-05-17T13:01:39.000Z</time>
      </trkpt>
      <trkpt lat="43.65738" lon="3.34365">
        <ele>180.2</ele>
        <time>2026-05-17T13:01:40.000Z</time>
      </trkpt>
      <trkpt lat="43.65738" lon="3.34366">
        <ele>180</ele>
        <time>2026-05-17T13:01:41.000Z</time>
      </trkpt>
      <trkpt lat="43.65739" lon="3.34367">
        <ele>179.8</ele>
        <time>2026-05-17T13:01:42.000Z</time>
      </trkpt>
      <trkpt lat="43.65739" lon="3.34368">
        <ele>179.6</ele>
        <time>2026-05-17T13:01:43.000Z</time>
      </trkpt>
      <trkpt lat="43.65739" lon="3.34368">
        <ele>179.5</ele>
        <time>2026-05-17T13:01:44.000Z</time>
      </trkpt>
      <trkpt lat="43.65738" lon="3.34371">
        <ele>180.1</ele>
        <time>2026-05-17T13:01:45.000Z</time>
      </trkpt>
      <trkpt lat="43.65737" lon="3.34372">
        <ele>180.4</ele>
        <time>2026-05-17T13:01:46.000Z</time>
      </trkpt>
      <trkpt lat="43.65736" lon="3.34373">
        <ele>180.6</ele>
        <time>2026-05-17T13:01:47.000Z</time>
      </trkpt>
      <trkpt lat="43.65735" lon="3.34374">
        <ele>180.8</ele>
        <time>2026-05-17T13:01:48.000Z</time>
      </trkpt>
      <trkpt lat="43.65735" lon="3.34374">
        <ele>180.6</ele>
        <time>2026-05-17T13:01:49.000Z</time>
      </trkpt>
      <trkpt lat="43.65733" lon="3.34377">
        <ele>181.2</ele>
        <time>2026-05-17T13:01:50.000Z</time>
      </trkpt>
      <trkpt lat="43.65733" lon="3.34379">
        <ele>181.6</ele>
        <time>2026-05-17T13:01:51.000Z</time>
      </trkpt>
      <trkpt lat="43.65733" lon="3.3438">
        <ele>181.9</ele>
        <time>2026-05-17T13:01:52.000Z</time>
      </trkpt>
      <trkpt lat="43.65733" lon="3.34382">
        <ele>182.2</ele>
        <time>2026-05-17T13:01:53.000Z</time>
      </trkpt>
      <trkpt lat="43.65733" lon="3.34383">
        <ele>182.7</ele>
        <time>2026-05-17T13:01:54.000Z</time>
      </trkpt>
      <trkpt lat="43.65734" lon="3.34384">
        <ele>182.8</ele>
        <time>2026-05-17T13:01:55.000Z</time>
      </trkpt>
      <trkpt lat="43.65734" lon="3.34386">
        <ele>183.2</ele>
        <time>2026-05-17T13:01:56.000Z</time>
      </trkpt>
      <trkpt lat="43.65735" lon="3.34387">
        <ele>183.4</ele>
        <time>2026-05-17T13:01:57.000Z</time>
      </trkpt>
      <trkpt lat="43.65735" lon="3.34388">
        <ele>183.5</ele>
        <time>2026-05-17T13:01:58.000Z</time>
      </trkpt>
      <trkpt lat="43.65736" lon="3.34389">
        <ele>183.4</ele>
        <time>2026-05-17T13:01:59.000Z</time>
      </trkpt>
      <trkpt lat="43.65736" lon="3.3439">
        <ele>183.3</ele>
        <time>2026-05-17T13:02:00.000Z</time>
      </trkpt>
      <trkpt lat="43.65736" lon="3.34391">
        <ele>183</ele>
        <time>2026-05-17T13:02:01.000Z</time>
      </trkpt>
      <trkpt lat="43.65736" lon="3.34392">
        <ele>182.7</ele>
        <time>2026-05-17T13:02:02.000Z</time>
      </trkpt>
      <trkpt lat="43.65736" lon="3.34393">
        <ele>183.2</ele>
        <time>2026-05-17T13:02:03.000Z</time>
      </trkpt>
      <trkpt lat="43.65736" lon="3.34395">
        <ele>183.7</ele>
        <time>2026-05-17T13:02:04.000Z</time>
      </trkpt>
      <trkpt lat="43.65736" lon="3.34396">
        <ele>184.1</ele>
        <time>2026-05-17T13:02:05.000Z</time>
      </trkpt>
      <trkpt lat="43.65736" lon="3.34397">
        <ele>184.5</ele>
        <time>2026-05-17T13:02:06.000Z</time>
      </trkpt>
      <trkpt lat="43.65736" lon="3.34398">
        <ele>184.6</ele>
        <time>2026-05-17T13:02:07.000Z</time>
      </trkpt>
      <trkpt lat="43.65736" lon="3.34399">
        <ele>184.7</ele>
        <time>2026-05-17T13:02:08.000Z</time>
      </trkpt>
      <trkpt lat="43.65737" lon="3.344">
        <ele>184.6</ele>
        <time>2026-05-17T13:02:09.000Z</time>
      </trkpt>
      <trkpt lat="43.65737" lon="3.34401">
        <ele>184.6</ele>
        <time>2026-05-17T13:02:10.000Z</time>
      </trkpt>
      <trkpt lat="43.65738" lon="3.34402">
        <ele>184.9</ele>
        <time>2026-05-17T13:02:11.000Z</time>
      </trkpt>
      <trkpt lat="43.65739" lon="3.34403">
        <ele>184.7</ele>
        <time>2026-05-17T13:02:12.000Z</time>
      </trkpt>
      <trkpt lat="43.65739" lon="3.34404">
        <ele>184.3</ele>
        <time>2026-05-17T13:02:13.000Z</time>
      </trkpt>
      <trkpt lat="43.6574" lon="3.34405">
        <ele>184.4</ele>
        <time>2026-05-17T13:02:14.000Z</time>
      </trkpt>
      <trkpt lat="43.6574" lon="3.34407">
        <ele>184.6</ele>
        <time>2026-05-17T13:02:15.000Z</time>
      </trkpt>
      <trkpt lat="43.6574" lon="3.34408">
        <ele>184.9</ele>
        <time>2026-05-17T13:02:16.000Z</time>
      </trkpt>
      <trkpt lat="43.65741" lon="3.3441">
        <ele>185.1</ele>
        <time>2026-05-17T13:02:17.000Z</time>
      </trkpt>
      <trkpt lat="43.65741" lon="3.34412">
        <ele>185.4</ele>
        <time>2026-05-17T13:02:18.000Z</time>
      </trkpt>
      <trkpt lat="43.65742" lon="3.34413">
        <ele>185.4</ele>
        <time>2026-05-17T13:02:19.000Z</time>
      </trkpt>
      <trkpt lat="43.65742" lon="3.34415">
        <ele>185.2</ele>
        <time>2026-05-17T13:02:20.000Z</time>
      </trkpt>
      <trkpt lat="43.65742" lon="3.34417">
        <ele>185.3</ele>
        <time>2026-05-17T13:02:21.000Z</time>
      </trkpt>
      <trkpt lat="43.65743" lon="3.34418">
        <ele>185.1</ele>
        <time>2026-05-17T13:02:22.000Z</time>
      </trkpt>
      <trkpt lat="43.65743" lon="3.34419">
        <ele>184.9</ele>
        <time>2026-05-17T13:02:23.000Z</time>
      </trkpt>
      <trkpt lat="43.65744" lon="3.3442">
        <ele>184.7</ele>
        <time>2026-05-17T13:02:24.000Z</time>
      </trkpt>
      <trkpt lat="43.65744" lon="3.34421">
        <ele>184.7</ele>
        <time>2026-05-17T13:02:25.000Z</time>
      </trkpt>
      <trkpt lat="43.65744" lon="3.34422">
        <ele>184.7</ele>
        <time>2026-05-17T13:02:26.000Z</time>
      </trkpt>
      <trkpt lat="43.65744" lon="3.34423">
        <ele>184.4</ele>
        <time>2026-05-17T13:02:27.000Z</time>
      </trkpt>
      <trkpt lat="43.65744" lon="3.34424">
        <ele>184.1</ele>
        <time>2026-05-17T13:02:28.000Z</time>
      </trkpt>
      <trkpt lat="43.65744" lon="3.34425">
        <ele>184.2</ele>
        <time>2026-05-17T13:02:29.000Z</time>
      </trkpt>
      <trkpt lat="43.65745" lon="3.34426">
        <ele>184.2</ele>
        <time>2026-05-17T13:02:30.000Z</time>
      </trkpt>
      <trkpt lat="43.65745" lon="3.34427">
        <ele>184.2</ele>
        <time>2026-05-17T13:02:31.000Z</time>
      </trkpt>
      <trkpt lat="43.65745" lon="3.34428">
        <ele>184.3</ele>
        <time>2026-05-17T13:02:32.000Z</time>
      </trkpt>
      <trkpt lat="43.65745" lon="3.34429">
        <ele>184.6</ele>
        <time>2026-05-17T13:02:33.000Z</time>
      </trkpt>
      <trkpt lat="43.65745" lon="3.3443">
        <ele>184.2</ele>
        <time>2026-05-17T13:02:34.000Z</time>
      </trkpt>
      <trkpt lat="43.65745" lon="3.3443">
        <ele>183.9</ele>
        <time>2026-05-17T13:02:35.000Z</time>
      </trkpt>
      <trkpt lat="43.65745" lon="3.34431">
        <ele>183.8</ele>
        <time>2026-05-17T13:02:36.000Z</time>
      </trkpt>
      <trkpt lat="43.65745" lon="3.34431">
        <ele>183.7</ele>
        <time>2026-05-17T13:02:37.000Z</time>
      </trkpt>
      <trkpt lat="43.65745" lon="3.34432">
        <ele>183.7</ele>
        <time>2026-05-17T13:02:38.000Z</time>
      </trkpt>
      <trkpt lat="43.65745" lon="3.34433">
        <ele>183.7</ele>
        <time>2026-05-17T13:02:39.000Z</time>
      </trkpt>
      <trkpt lat="43.65745" lon="3.34434">
        <ele>183.8</ele>
        <time>2026-05-17T13:02:40.000Z</time>
      </trkpt>
      <trkpt lat="43.65744" lon="3.34435">
        <ele>183.8</ele>
        <time>2026-05-17T13:02:41.000Z</time>
      </trkpt>
      <trkpt lat="43.65743" lon="3.34435">
        <ele>183.6</ele>
        <time>2026-05-17T13:02:42.000Z</time>
      </trkpt>
      <trkpt lat="43.65743" lon="3.34435">
        <ele>183.5</ele>
        <time>2026-05-17T13:02:43.000Z</time>
      </trkpt>
      <trkpt lat="43.65743" lon="3.34435">
        <ele>183.4</ele>
        <time>2026-05-17T13:02:44.000Z</time>
      </trkpt>
      <trkpt lat="43.65743" lon="3.34435">
        <ele>183.4</ele>
        <time>2026-05-17T13:02:45.000Z</time>
      </trkpt>
      <trkpt lat="43.65742" lon="3.34436">
        <ele>183.5</ele>
        <time>2026-05-17T13:02:46.000Z</time>
      </trkpt>
      <trkpt lat="43.65741" lon="3.34437">
        <ele>183.6</ele>
        <time>2026-05-17T13:02:47.000Z</time>
      </trkpt>
      <trkpt lat="43.6574" lon="3.34437">
        <ele>183.7</ele>
        <time>2026-05-17T13:02:48.000Z</time>
      </trkpt>
      <trkpt lat="43.65739" lon="3.34437">
        <ele>183.7</ele>
        <time>2026-05-17T13:02:49.000Z</time>
      </trkpt>
      <trkpt lat="43.65738" lon="3.34438">
        <ele>183.8</ele>
        <time>2026-05-17T13:02:50.000Z</time>
      </trkpt>
      <trkpt lat="43.65737" lon="3.34439">
        <ele>183.8</ele>
        <time>2026-05-17T13:02:51.000Z</time>
      </trkpt>
      <trkpt lat="43.65737" lon="3.3444">
        <ele>183.6</ele>
        <time>2026-05-17T13:02:52.000Z</time>
      </trkpt>
      <trkpt lat="43.65736" lon="3.3444">
        <ele>183.5</ele>
        <time>2026-05-17T13:02:53.000Z</time>
      </trkpt>
      <trkpt lat="43.65735" lon="3.34441">
        <ele>183.5</ele>
        <time>2026-05-17T13:02:54.000Z</time>
      </trkpt>
      <trkpt lat="43.65734" lon="3.34442">
        <ele>183.5</ele>
        <time>2026-05-17T13:02:55.000Z</time>
      </trkpt>
      <trkpt lat="43.65733" lon="3.34443">
        <ele>183.2</ele>
        <time>2026-05-17T13:02:56.000Z</time>
      </trkpt>
      <trkpt lat="43.65732" lon="3.34444">
        <ele>183.1</ele>
        <time>2026-05-17T13:02:57.000Z</time>
      </trkpt>
      <trkpt lat="43.65732" lon="3.34444">
        <ele>182.5</ele>
        <time>2026-05-17T13:02:58.000Z</time>
      </trkpt>
      <trkpt lat="43.65732" lon="3.34446">
        <ele>182.1</ele>
        <time>2026-05-17T13:02:59.000Z</time>
      </trkpt>
      <trkpt lat="43.65732" lon="3.34447">
        <ele>182.2</ele>
        <time>2026-05-17T13:03:00.000Z</time>
      </trkpt>
      <trkpt lat="43.65732" lon="3.34448">
        <ele>182.3</ele>
        <time>2026-05-17T13:03:01.000Z</time>
      </trkpt>
      <trkpt lat="43.65732" lon="3.3445">
        <ele>182.4</ele>
        <time>2026-05-17T13:03:02.000Z</time>
      </trkpt>
      <trkpt lat="43.65732" lon="3.34451">
        <ele>182.5</ele>
        <time>2026-05-17T13:03:03.000Z</time>
      </trkpt>
      <trkpt lat="43.65733" lon="3.34452">
        <ele>182.6</ele>
        <time>2026-05-17T13:03:04.000Z</time>
      </trkpt>
      <trkpt lat="43.65734" lon="3.34453">
        <ele>182.9</ele>
        <time>2026-05-17T13:03:05.000Z</time>
      </trkpt>
      <trkpt lat="43.65735" lon="3.34454">
        <ele>183.3</ele>
        <time>2026-05-17T13:03:06.000Z</time>
      </trkpt>
      <trkpt lat="43.65735" lon="3.34455">
        <ele>183.6</ele>
        <time>2026-05-17T13:03:07.000Z</time>
      </trkpt>
      <trkpt lat="43.65736" lon="3.34456">
        <ele>183.7</ele>
        <time>2026-05-17T13:03:08.000Z</time>
      </trkpt>
      <trkpt lat="43.65736" lon="3.34457">
        <ele>183.8</ele>
        <time>2026-05-17T13:03:09.000Z</time>
      </trkpt>
      <trkpt lat="43.65737" lon="3.34458">
        <ele>183.9</ele>
        <time>2026-05-17T13:03:10.000Z</time>
      </trkpt>
      <trkpt lat="43.65737" lon="3.34459">
        <ele>183.7</ele>
        <time>2026-05-17T13:03:11.000Z</time>
      </trkpt>
      <trkpt lat="43.65737" lon="3.34461">
        <ele>183.5</ele>
        <time>2026-05-17T13:03:12.000Z</time>
      </trkpt>
      <trkpt lat="43.65738" lon="3.34462">
        <ele>183.4</ele>
        <time>2026-05-17T13:03:13.000Z</time>
      </trkpt>
      <trkpt lat="43.65738" lon="3.34463">
        <ele>183.4</ele>
        <time>2026-05-17T13:03:14.000Z</time>
      </trkpt>
      <trkpt lat="43.65739" lon="3.34464">
        <ele>183.7</ele>
        <time>2026-05-17T13:03:15.000Z</time>
      </trkpt>
      <trkpt lat="43.65739" lon="3.34466">
        <ele>183.7</ele>
        <time>2026-05-17T13:03:16.000Z</time>
      </trkpt>
      <trkpt lat="43.65739" lon="3.34467">
        <ele>184.3</ele>
        <time>2026-05-17T13:03:17.000Z</time>
      </trkpt>
      <trkpt lat="43.65739" lon="3.34468">
        <ele>184.2</ele>
        <time>2026-05-17T13:03:18.000Z</time>
      </trkpt>
      <trkpt lat="43.65739" lon="3.34468">
        <ele>184.2</ele>
        <time>2026-05-17T13:03:19.000Z</time>
      </trkpt>
      <trkpt lat="43.65739" lon="3.34469">
        <ele>184.3</ele>
        <time>2026-05-17T13:03:20.000Z</time>
      </trkpt>
      <trkpt lat="43.6574" lon="3.3447">
        <ele>184.2</ele>
        <time>2026-05-17T13:03:21.000Z</time>
      </trkpt>
      <trkpt lat="43.65741" lon="3.34471">
        <ele>184.3</ele>
        <time>2026-05-17T13:03:22.000Z</time>
      </trkpt>
      <trkpt lat="43.65742" lon="3.34471">
        <ele>184</ele>
        <time>2026-05-17T13:03:23.000Z</time>
      </trkpt>
      <trkpt lat="43.65743" lon="3.34472">
        <ele>184</ele>
        <time>2026-05-17T13:03:24.000Z</time>
      </trkpt>
      <trkpt lat="43.65743" lon="3.34473">
        <ele>184.2</ele>
        <time>2026-05-17T13:03:25.000Z</time>
      </trkpt>
      <trkpt lat="43.65744" lon="3.34473">
        <ele>184.2</ele>
        <time>2026-05-17T13:03:26.000Z</time>
      </trkpt>
      <trkpt lat="43.65744" lon="3.34474">
        <ele>184.3</ele>
        <time>2026-05-17T13:03:27.000Z</time>
      </trkpt>
      <trkpt lat="43.65745" lon="3.34476">
        <ele>184.2</ele>
        <time>2026-05-17T13:03:28.000Z</time>
      </trkpt>
      <trkpt lat="43.65746" lon="3.34477">
        <ele>184.5</ele>
        <time>2026-05-17T13:03:29.000Z</time>
      </trkpt>
      <trkpt lat="43.65746" lon="3.34478">
        <ele>184.7</ele>
        <time>2026-05-17T13:03:30.000Z</time>
      </trkpt>
      <trkpt lat="43.65746" lon="3.34479">
        <ele>185</ele>
        <time>2026-05-17T13:03:31.000Z</time>
      </trkpt>
      <trkpt lat="43.65746" lon="3.3448">
        <ele>184.8</ele>
        <time>2026-05-17T13:03:32.000Z</time>
      </trkpt>
      <trkpt lat="43.65746" lon="3.34481">
        <ele>184.9</ele>
        <time>2026-05-17T13:03:33.000Z</time>
      </trkpt>
      <trkpt lat="43.65746" lon="3.34482">
        <ele>184.9</ele>
        <time>2026-05-17T13:03:34.000Z</time>
      </trkpt>
      <trkpt lat="43.65746" lon="3.34482">
        <ele>185</ele>
        <time>2026-05-17T13:03:35.000Z</time>
      </trkpt>
      <trkpt lat="43.65746" lon="3.34484">
        <ele>185.2</ele>
        <time>2026-05-17T13:03:36.000Z</time>
      </trkpt>
      <trkpt lat="43.65746" lon="3.34484">
        <ele>185.1</ele>
        <time>2026-05-17T13:03:37.000Z</time>
      </trkpt>
      <trkpt lat="43.65746" lon="3.34486">
        <ele>184.8</ele>
        <time>2026-05-17T13:03:38.000Z</time>
      </trkpt>
      <trkpt lat="43.65746" lon="3.34487">
        <ele>184.7</ele>
        <time>2026-05-17T13:03:39.000Z</time>
      </trkpt>
      <trkpt lat="43.65746" lon="3.34488">
        <ele>184.8</ele>
        <time>2026-05-17T13:03:40.000Z</time>
      </trkpt>
      <trkpt lat="43.65747" lon="3.3449">
        <ele>184.8</ele>
        <time>2026-05-17T13:03:41.000Z</time>
      </trkpt>
      <trkpt lat="43.65747" lon="3.34491">
        <ele>184.3</ele>
        <time>2026-05-17T13:03:42.000Z</time>
      </trkpt>
      <trkpt lat="43.65747" lon="3.34492">
        <ele>184.2</ele>
        <time>2026-05-17T13:03:43.000Z</time>
      </trkpt>
      <trkpt lat="43.65746" lon="3.34494">
        <ele>184.2</ele>
        <time>2026-05-17T13:03:44.000Z</time>
      </trkpt>
      <trkpt lat="43.65746" lon="3.34495">
        <ele>184</ele>
        <time>2026-05-17T13:03:45.000Z</time>
      </trkpt>
      <trkpt lat="43.65745" lon="3.34497">
        <ele>184</ele>
        <time>2026-05-17T13:03:46.000Z</time>
      </trkpt>
      <trkpt lat="43.65744" lon="3.34498">
        <ele>183.6</ele>
        <time>2026-05-17T13:03:47.000Z</time>
      </trkpt>
      <trkpt lat="43.65744" lon="3.34499">
        <ele>183.5</ele>
        <time>2026-05-17T13:03:48.000Z</time>
      </trkpt>
      <trkpt lat="43.65743" lon="3.34501">
        <ele>183.9</ele>
        <time>2026-05-17T13:03:49.000Z</time>
      </trkpt>
      <trkpt lat="43.65743" lon="3.34502">
        <ele>183.9</ele>
        <time>2026-05-17T13:03:50.000Z</time>
      </trkpt>
      <trkpt lat="43.65742" lon="3.34503">
        <ele>184.4</ele>
        <time>2026-05-17T13:03:51.000Z</time>
      </trkpt>
      <trkpt lat="43.65741" lon="3.34504">
        <ele>184.8</ele>
        <time>2026-05-17T13:03:52.000Z</time>
      </trkpt>
      <trkpt lat="43.65739" lon="3.34505">
        <ele>185.3</ele>
        <time>2026-05-17T13:03:53.000Z</time>
      </trkpt>
      <trkpt lat="43.65738" lon="3.34506">
        <ele>185.2</ele>
        <time>2026-05-17T13:03:54.000Z</time>
      </trkpt>
      <trkpt lat="43.65737" lon="3.34506">
        <ele>185.4</ele>
        <time>2026-05-17T13:03:55.000Z</time>
      </trkpt>
      <trkpt lat="43.65737" lon="3.34506">
        <ele>185.4</ele>
        <time>2026-05-17T13:03:56.000Z</time>
      </trkpt>
      <trkpt lat="43.65737" lon="3.34505">
        <ele>185.7</ele>
        <time>2026-05-17T13:03:57.000Z</time>
      </trkpt>
      <trkpt lat="43.65736" lon="3.34505">
        <ele>185.3</ele>
        <time>2026-05-17T13:03:58.000Z</time>
      </trkpt>
      <trkpt lat="43.65735" lon="3.34505">
        <ele>185.1</ele>
        <time>2026-05-17T13:03:59.000Z</time>
      </trkpt>
      <trkpt lat="43.65734" lon="3.34505">
        <ele>184.8</ele>
        <time>2026-05-17T13:04:00.000Z</time>
      </trkpt>
      <trkpt lat="43.65734" lon="3.34505">
        <ele>184.5</ele>
        <time>2026-05-17T13:04:01.000Z</time>
      </trkpt>
      <trkpt lat="43.65734" lon="3.34505">
        <ele>184.3</ele>
        <time>2026-05-17T13:04:02.000Z</time>
      </trkpt>
      <trkpt lat="43.65733" lon="3.34505">
        <ele>184.3</ele>
        <time>2026-05-17T13:04:03.000Z</time>
      </trkpt>
      <trkpt lat="43.65732" lon="3.34506">
        <ele>184.1</ele>
        <time>2026-05-17T13:04:04.000Z</time>
      </trkpt>
      <trkpt lat="43.65731" lon="3.34507">
        <ele>184.5</ele>
        <time>2026-05-17T13:04:05.000Z</time>
      </trkpt>
      <trkpt lat="43.65731" lon="3.34508">
        <ele>184.6</ele>
        <time>2026-05-17T13:04:06.000Z</time>
      </trkpt>
      <trkpt lat="43.6573" lon="3.34508">
        <ele>184.9</ele>
        <time>2026-05-17T13:04:07.000Z</time>
      </trkpt>
      <trkpt lat="43.6573" lon="3.34509">
        <ele>185.5</ele>
        <time>2026-05-17T13:04:08.000Z</time>
      </trkpt>
      <trkpt lat="43.65729" lon="3.3451">
        <ele>185.9</ele>
        <time>2026-05-17T13:04:09.000Z</time>
      </trkpt>
      <trkpt lat="43.65729" lon="3.3451">
        <ele>186.2</ele>
        <time>2026-05-17T13:04:10.000Z</time>
      </trkpt>
      <trkpt lat="43.65728" lon="3.34511">
        <ele>186.2</ele>
        <time>2026-05-17T13:04:11.000Z</time>
      </trkpt>
      <trkpt lat="43.65728" lon="3.34511">
        <ele>186.1</ele>
        <time>2026-05-17T13:04:12.000Z</time>
      </trkpt>
      <trkpt lat="43.65728" lon="3.34512">
        <ele>186.1</ele>
        <time>2026-05-17T13:04:13.000Z</time>
      </trkpt>
      <trkpt lat="43.65728" lon="3.34513">
        <ele>186</ele>
        <time>2026-05-17T13:04:14.000Z</time>
      </trkpt>
      <trkpt lat="43.65727" lon="3.34513">
        <ele>186.2</ele>
        <time>2026-05-17T13:04:15.000Z</time>
      </trkpt>
      <trkpt lat="43.65727" lon="3.34515">
        <ele>186.8</ele>
        <time>2026-05-17T13:04:16.000Z</time>
      </trkpt>
      <trkpt lat="43.65727" lon="3.34516">
        <ele>187.7</ele>
        <time>2026-05-17T13:04:17.000Z</time>
      </trkpt>
      <trkpt lat="43.65728" lon="3.34517">
        <ele>188.3</ele>
        <time>2026-05-17T13:04:18.000Z</time>
      </trkpt>
      <trkpt lat="43.65728" lon="3.34517">
        <ele>188.5</ele>
        <time>2026-05-17T13:04:19.000Z</time>
      </trkpt>
      <trkpt lat="43.65729" lon="3.34518">
        <ele>189</ele>
        <time>2026-05-17T13:04:20.000Z</time>
      </trkpt>
      <trkpt lat="43.65729" lon="3.34519">
        <ele>189.5</ele>
        <time>2026-05-17T13:04:21.000Z</time>
      </trkpt>
      <trkpt lat="43.6573" lon="3.34519">
        <ele>189.6</ele>
        <time>2026-05-17T13:04:22.000Z</time>
      </trkpt>
      <trkpt lat="43.6573" lon="3.34519">
        <ele>189.5</ele>
        <time>2026-05-17T13:04:23.000Z</time>
      </trkpt>
      <trkpt lat="43.6573" lon="3.3452">
        <ele>189.5</ele>
        <time>2026-05-17T13:04:24.000Z</time>
      </trkpt>
      <trkpt lat="43.65731" lon="3.3452">
        <ele>189.2</ele>
        <time>2026-05-17T13:04:25.000Z</time>
      </trkpt>
      <trkpt lat="43.65731" lon="3.34521">
        <ele>189.2</ele>
        <time>2026-05-17T13:04:26.000Z</time>
      </trkpt>
      <trkpt lat="43.65732" lon="3.34522">
        <ele>189.3</ele>
        <time>2026-05-17T13:04:27.000Z</time>
      </trkpt>
      <trkpt lat="43.65733" lon="3.34522">
        <ele>189.3</ele>
        <time>2026-05-17T13:04:28.000Z</time>
      </trkpt>
      <trkpt lat="43.65734" lon="3.34523">
        <ele>189.7</ele>
        <time>2026-05-17T13:04:29.000Z</time>
      </trkpt>
      <trkpt lat="43.65735" lon="3.34524">
        <ele>189.9</ele>
        <time>2026-05-17T13:04:30.000Z</time>
      </trkpt>
      <trkpt lat="43.65736" lon="3.34524">
        <ele>190.2</ele>
        <time>2026-05-17T13:04:31.000Z</time>
      </trkpt>
      <trkpt lat="43.65737" lon="3.34525">
        <ele>190.2</ele>
        <time>2026-05-17T13:04:32.000Z</time>
      </trkpt>
      <trkpt lat="43.65738" lon="3.34526">
        <ele>190.3</ele>
        <time>2026-05-17T13:04:33.000Z</time>
      </trkpt>
      <trkpt lat="43.65738" lon="3.34527">
        <ele>190.4</ele>
        <time>2026-05-17T13:04:34.000Z</time>
      </trkpt>
      <trkpt lat="43.65738" lon="3.34528">
        <ele>190.4</ele>
        <time>2026-05-17T13:04:35.000Z</time>
      </trkpt>
      <trkpt lat="43.65739" lon="3.3453">
        <ele>190.4</ele>
        <time>2026-05-17T13:04:36.000Z</time>
      </trkpt>
      <trkpt lat="43.6574" lon="3.3453">
        <ele>190.7</ele>
        <time>2026-05-17T13:04:37.000Z</time>
      </trkpt>
      <trkpt lat="43.6574" lon="3.34533">
        <ele>190.9</ele>
        <time>2026-05-17T13:04:38.000Z</time>
      </trkpt>
      <trkpt lat="43.65742" lon="3.34535">
        <ele>190.7</ele>
        <time>2026-05-17T13:04:39.000Z</time>
      </trkpt>
      <trkpt lat="43.65743" lon="3.34537">
        <ele>191.1</ele>
        <time>2026-05-17T13:04:40.000Z</time>
      </trkpt>
      <trkpt lat="43.65743" lon="3.34539">
        <ele>191</ele>
        <time>2026-05-17T13:04:41.000Z</time>
      </trkpt>
      <trkpt lat="43.65742" lon="3.34541">
        <ele>190.7</ele>
        <time>2026-05-17T13:04:42.000Z</time>
      </trkpt>
      <trkpt lat="43.65741" lon="3.34541">
        <ele>190</ele>
        <time>2026-05-17T13:04:43.000Z</time>
      </trkpt>
      <trkpt lat="43.6574" lon="3.34542">
        <ele>189.7</ele>
        <time>2026-05-17T13:04:44.000Z</time>
      </trkpt>
      <trkpt lat="43.65739" lon="3.34542">
        <ele>189.7</ele>
        <time>2026-05-17T13:04:45.000Z</time>
      </trkpt>
      <trkpt lat="43.65739" lon="3.34543">
        <ele>189.8</ele>
        <time>2026-05-17T13:04:46.000Z</time>
      </trkpt>
      <trkpt lat="43.65738" lon="3.34544">
        <ele>190</ele>
        <time>2026-05-17T13:04:47.000Z</time>
      </trkpt>
      <trkpt lat="43.65737" lon="3.34546">
        <ele>190</ele>
        <time>2026-05-17T13:04:48.000Z</time>
      </trkpt>
      <trkpt lat="43.65736" lon="3.34546">
        <ele>190.1</ele>
        <time>2026-05-17T13:04:49.000Z</time>
      </trkpt>
      <trkpt lat="43.65735" lon="3.34548">
        <ele>190.2</ele>
        <time>2026-05-17T13:04:50.000Z</time>
      </trkpt>
      <trkpt lat="43.65735" lon="3.34548">
        <ele>190.4</ele>
        <time>2026-05-17T13:04:51.000Z</time>
      </trkpt>
      <trkpt lat="43.65734" lon="3.34549">
        <ele>190.4</ele>
        <time>2026-05-17T13:04:52.000Z</time>
      </trkpt>
      <trkpt lat="43.65734" lon="3.34552">
        <ele>191.7</ele>
        <time>2026-05-17T13:04:54.000Z</time>
      </trkpt>
      <trkpt lat="43.65734" lon="3.34552">
        <ele>191.9</ele>
        <time>2026-05-17T13:04:55.000Z</time>
      </trkpt>
      <trkpt lat="43.65734" lon="3.34554">
        <ele>192.3</ele>
        <time>2026-05-17T13:04:56.000Z</time>
      </trkpt>
      <trkpt lat="43.65735" lon="3.34554">
        <ele>192.5</ele>
        <time>2026-05-17T13:04:57.000Z</time>
      </trkpt>
      <trkpt lat="43.65735" lon="3.34555">
        <ele>192.3</ele>
        <time>2026-05-17T13:04:58.000Z</time>
      </trkpt>
      <trkpt lat="43.65735" lon="3.34555">
        <ele>192.6</ele>
        <time>2026-05-17T13:04:59.000Z</time>
      </trkpt>
      <trkpt lat="43.65735" lon="3.34555">
        <ele>193</ele>
        <time>2026-05-17T13:05:00.000Z</time>
      </trkpt>
      <trkpt lat="43.65735" lon="3.34555">
        <ele>192.9</ele>
        <time>2026-05-17T13:05:01.000Z</time>
      </trkpt>
      <trkpt lat="43.65736" lon="3.34554">
        <ele>192.8</ele>
        <time>2026-05-17T13:05:02.000Z</time>
      </trkpt>
      <trkpt lat="43.65736" lon="3.34554">
        <ele>192.4</ele>
        <time>2026-05-17T13:05:03.000Z</time>
      </trkpt>
      <trkpt lat="43.65737" lon="3.34554">
        <ele>192.6</ele>
        <time>2026-05-17T13:05:04.000Z</time>
      </trkpt>
      <trkpt lat="43.65738" lon="3.34554">
        <ele>192.6</ele>
        <time>2026-05-17T13:05:05.000Z</time>
      </trkpt>
      <trkpt lat="43.65739" lon="3.34554">
        <ele>192.6</ele>
        <time>2026-05-17T13:05:06.000Z</time>
      </trkpt>
      <trkpt lat="43.65741" lon="3.34556">
        <ele>192.9</ele>
        <time>2026-05-17T13:05:07.000Z</time>
      </trkpt>
      <trkpt lat="43.65742" lon="3.34558">
        <ele>192.6</ele>
        <time>2026-05-17T13:05:08.000Z</time>
      </trkpt>
      <trkpt lat="43.65743" lon="3.34558">
        <ele>192.4</ele>
        <time>2026-05-17T13:05:09.000Z</time>
      </trkpt>
      <trkpt lat="43.65744" lon="3.34559">
        <ele>192.6</ele>
        <time>2026-05-17T13:05:10.000Z</time>
      </trkpt>
      <trkpt lat="43.65746" lon="3.3456">
        <ele>192.6</ele>
        <time>2026-05-17T13:05:11.000Z</time>
      </trkpt>
      <trkpt lat="43.65747" lon="3.3456">
        <ele>192.4</ele>
        <time>2026-05-17T13:05:12.000Z</time>
      </trkpt>
      <trkpt lat="43.65748" lon="3.3456">
        <ele>192</ele>
        <time>2026-05-17T13:05:13.000Z</time>
      </trkpt>
      <trkpt lat="43.6575" lon="3.3456">
        <ele>191.9</ele>
        <time>2026-05-17T13:05:14.000Z</time>
      </trkpt>
      <trkpt lat="43.65751" lon="3.3456">
        <ele>191.8</ele>
        <time>2026-05-17T13:05:15.000Z</time>
      </trkpt>
      <trkpt lat="43.65752" lon="3.34561">
        <ele>191.2</ele>
        <time>2026-05-17T13:05:16.000Z</time>
      </trkpt>
      <trkpt lat="43.65753" lon="3.34562">
        <ele>191</ele>
        <time>2026-05-17T13:05:17.000Z</time>
      </trkpt>
      <trkpt lat="43.65754" lon="3.34562">
        <ele>190.7</ele>
        <time>2026-05-17T13:05:18.000Z</time>
      </trkpt>
      <trkpt lat="43.65755" lon="3.34563">
        <ele>190.6</ele>
        <time>2026-05-17T13:05:19.000Z</time>
      </trkpt>
      <trkpt lat="43.65756" lon="3.34563">
        <ele>190.5</ele>
        <time>2026-05-17T13:05:20.000Z</time>
      </trkpt>
      <trkpt lat="43.65757" lon="3.34563">
        <ele>190.3</ele>
        <time>2026-05-17T13:05:21.000Z</time>
      </trkpt>
      <trkpt lat="43.65758" lon="3.34563">
        <ele>190.1</ele>
        <time>2026-05-17T13:05:22.000Z</time>
      </trkpt>
      <trkpt lat="43.65758" lon="3.34564">
        <ele>190.1</ele>
        <time>2026-05-17T13:05:23.000Z</time>
      </trkpt>
      <trkpt lat="43.6576" lon="3.34564">
        <ele>190</ele>
        <time>2026-05-17T13:05:24.000Z</time>
      </trkpt>
      <trkpt lat="43.65761" lon="3.34565">
        <ele>189.8</ele>
        <time>2026-05-17T13:05:25.000Z</time>
      </trkpt>
      <trkpt lat="43.65762" lon="3.34566">
        <ele>189.8</ele>
        <time>2026-05-17T13:05:26.000Z</time>
      </trkpt>
      <trkpt lat="43.65762" lon="3.34567">
        <ele>189.5</ele>
        <time>2026-05-17T13:05:27.000Z</time>
      </trkpt>
      <trkpt lat="43.65762" lon="3.34568">
        <ele>189</ele>
        <time>2026-05-17T13:05:28.000Z</time>
      </trkpt>
      <trkpt lat="43.65762" lon="3.34569">
        <ele>188.8</ele>
        <time>2026-05-17T13:05:29.000Z</time>
      </trkpt>
      <trkpt lat="43.65762" lon="3.3457">
        <ele>188.8</ele>
        <time>2026-05-17T13:05:30.000Z</time>
      </trkpt>
      <trkpt lat="43.65762" lon="3.3457">
        <ele>188.9</ele>
        <time>2026-05-17T13:05:31.000Z</time>
      </trkpt>
      <trkpt lat="43.65762" lon="3.34571">
        <ele>188.8</ele>
        <time>2026-05-17T13:05:32.000Z</time>
      </trkpt>
      <trkpt lat="43.65763" lon="3.34571">
        <ele>188.6</ele>
        <time>2026-05-17T13:05:33.000Z</time>
      </trkpt>
      <trkpt lat="43.65763" lon="3.34572">
        <ele>188.4</ele>
        <time>2026-05-17T13:05:34.000Z</time>
      </trkpt>
      <trkpt lat="43.65764" lon="3.34573">
        <ele>188.4</ele>
        <time>2026-05-17T13:05:35.000Z</time>
      </trkpt>
      <trkpt lat="43.65764" lon="3.34574">
        <ele>188.5</ele>
        <time>2026-05-17T13:05:36.000Z</time>
      </trkpt>
      <trkpt lat="43.65765" lon="3.34576">
        <ele>188.7</ele>
        <time>2026-05-17T13:05:37.000Z</time>
      </trkpt>
      <trkpt lat="43.65765" lon="3.34577">
        <ele>188.5</ele>
        <time>2026-05-17T13:05:38.000Z</time>
      </trkpt>
      <trkpt lat="43.65765" lon="3.34578">
        <ele>188.3</ele>
        <time>2026-05-17T13:05:39.000Z</time>
      </trkpt>
      <trkpt lat="43.65765" lon="3.34579">
        <ele>187.8</ele>
        <time>2026-05-17T13:05:40.000Z</time>
      </trkpt>
      <trkpt lat="43.65766" lon="3.3458">
        <ele>187.3</ele>
        <time>2026-05-17T13:05:41.000Z</time>
      </trkpt>
      <trkpt lat="43.65766" lon="3.34582">
        <ele>187</ele>
        <time>2026-05-17T13:05:42.000Z</time>
      </trkpt>
      <trkpt lat="43.65766" lon="3.34584">
        <ele>186.9</ele>
        <time>2026-05-17T13:05:43.000Z</time>
      </trkpt>
      <trkpt lat="43.65766" lon="3.34585">
        <ele>186.9</ele>
        <time>2026-05-17T13:05:44.000Z</time>
      </trkpt>
      <trkpt lat="43.65766" lon="3.34586">
        <ele>187</ele>
        <time>2026-05-17T13:05:45.000Z</time>
      </trkpt>
      <trkpt lat="43.65766" lon="3.34586">
        <ele>187</ele>
        <time>2026-05-17T13:05:46.000Z</time>
      </trkpt>
      <trkpt lat="43.65766" lon="3.34587">
        <ele>186.9</ele>
        <time>2026-05-17T13:05:47.000Z</time>
      </trkpt>
      <trkpt lat="43.65766" lon="3.34588">
        <ele>186.7</ele>
        <time>2026-05-17T13:05:48.000Z</time>
      </trkpt>
      <trkpt lat="43.65767" lon="3.34589">
        <ele>186.7</ele>
        <time>2026-05-17T13:05:49.000Z</time>
      </trkpt>
      <trkpt lat="43.65767" lon="3.34591">
        <ele>185.9</ele>
        <time>2026-05-17T13:05:50.000Z</time>
      </trkpt>
      <trkpt lat="43.65767" lon="3.34592">
        <ele>185.6</ele>
        <time>2026-05-17T13:05:51.000Z</time>
      </trkpt>
      <trkpt lat="43.65766" lon="3.34594">
        <ele>185.3</ele>
        <time>2026-05-17T13:05:52.000Z</time>
      </trkpt>
      <trkpt lat="43.65765" lon="3.34595">
        <ele>185.1</ele>
        <time>2026-05-17T13:05:53.000Z</time>
      </trkpt>
      <trkpt lat="43.65764" lon="3.34596">
        <ele>185</ele>
        <time>2026-05-17T13:05:54.000Z</time>
      </trkpt>
      <trkpt lat="43.65764" lon="3.34598">
        <ele>185</ele>
        <time>2026-05-17T13:05:55.000Z</time>
      </trkpt>
      <trkpt lat="43.65763" lon="3.34599">
        <ele>184.8</ele>
        <time>2026-05-17T13:05:56.000Z</time>
      </trkpt>
      <trkpt lat="43.65763" lon="3.34601">
        <ele>184.3</ele>
        <time>2026-05-17T13:05:57.000Z</time>
      </trkpt>
      <trkpt lat="43.65763" lon="3.34602">
        <ele>183.9</ele>
        <time>2026-05-17T13:05:58.000Z</time>
      </trkpt>
      <trkpt lat="43.65763" lon="3.34603">
        <ele>183.9</ele>
        <time>2026-05-17T13:05:59.000Z</time>
      </trkpt>
      <trkpt lat="43.65762" lon="3.34605">
        <ele>183.9</ele>
        <time>2026-05-17T13:06:00.000Z</time>
      </trkpt>
      <trkpt lat="43.65762" lon="3.34605">
        <ele>183.8</ele>
        <time>2026-05-17T13:06:01.000Z</time>
      </trkpt>
      <trkpt lat="43.65762" lon="3.34606">
        <ele>183.8</ele>
        <time>2026-05-17T13:06:02.000Z</time>
      </trkpt>
      <trkpt lat="43.65761" lon="3.34609">
        <ele>184.4</ele>
        <time>2026-05-17T13:06:03.000Z</time>
      </trkpt>
      <trkpt lat="43.65761" lon="3.3461">
        <ele>184.3</ele>
        <time>2026-05-17T13:06:04.000Z</time>
      </trkpt>
      <trkpt lat="43.65761" lon="3.34612">
        <ele>184.5</ele>
        <time>2026-05-17T13:06:05.000Z</time>
      </trkpt>
      <trkpt lat="43.65761" lon="3.34613">
        <ele>184.1</ele>
        <time>2026-05-17T13:06:06.000Z</time>
      </trkpt>
      <trkpt lat="43.65761" lon="3.34614">
        <ele>184</ele>
        <time>2026-05-17T13:06:07.000Z</time>
      </trkpt>
      <trkpt lat="43.65761" lon="3.34615">
        <ele>184.2</ele>
        <time>2026-05-17T13:06:08.000Z</time>
      </trkpt>
      <trkpt lat="43.65761" lon="3.34617">
        <ele>184.6</ele>
        <time>2026-05-17T13:06:09.000Z</time>
      </trkpt>
      <trkpt lat="43.65761" lon="3.34619">
        <ele>185</ele>
        <time>2026-05-17T13:06:10.000Z</time>
      </trkpt>
      <trkpt lat="43.65761" lon="3.34621">
        <ele>185.4</ele>
        <time>2026-05-17T13:06:11.000Z</time>
      </trkpt>
      <trkpt lat="43.6576" lon="3.34622">
        <ele>185.4</ele>
        <time>2026-05-17T13:06:12.000Z</time>
      </trkpt>
      <trkpt lat="43.6576" lon="3.34623">
        <ele>185.4</ele>
        <time>2026-05-17T13:06:13.000Z</time>
      </trkpt>
      <trkpt lat="43.6576" lon="3.34624">
        <ele>185.4</ele>
        <time>2026-05-17T13:06:14.000Z</time>
      </trkpt>
      <trkpt lat="43.6576" lon="3.34627">
        <ele>186.1</ele>
        <time>2026-05-17T13:06:15.000Z</time>
      </trkpt>
      <trkpt lat="43.65759" lon="3.3463">
        <ele>187.1</ele>
        <time>2026-05-17T13:06:16.000Z</time>
      </trkpt>
      <trkpt lat="43.65759" lon="3.34632">
        <ele>187.3</ele>
        <time>2026-05-17T13:06:17.000Z</time>
      </trkpt>
      <trkpt lat="43.65758" lon="3.34635">
        <ele>188.5</ele>
        <time>2026-05-17T13:06:18.000Z</time>
      </trkpt>
      <trkpt lat="43.65758" lon="3.34636">
        <ele>188.7</ele>
        <time>2026-05-17T13:06:19.000Z</time>
      </trkpt>
      <trkpt lat="43.65758" lon="3.34637">
        <ele>188.9</ele>
        <time>2026-05-17T13:06:20.000Z</time>
      </trkpt>
      <trkpt lat="43.65758" lon="3.34639">
        <ele>188.3</ele>
        <time>2026-05-17T13:06:21.000Z</time>
      </trkpt>
      <trkpt lat="43.65757" lon="3.34642">
        <ele>189</ele>
        <time>2026-05-17T13:06:22.000Z</time>
      </trkpt>
      <trkpt lat="43.65757" lon="3.34644">
        <ele>189</ele>
        <time>2026-05-17T13:06:23.000Z</time>
      </trkpt>
      <trkpt lat="43.65756" lon="3.34645">
        <ele>189.1</ele>
        <time>2026-05-17T13:06:24.000Z</time>
      </trkpt>
      <trkpt lat="43.65756" lon="3.34646">
        <ele>188.8</ele>
        <time>2026-05-17T13:06:25.000Z</time>
      </trkpt>
      <trkpt lat="43.65755" lon="3.34647">
        <ele>188.8</ele>
        <time>2026-05-17T13:06:26.000Z</time>
      </trkpt>
      <trkpt lat="43.65754" lon="3.34648">
        <ele>188.9</ele>
        <time>2026-05-17T13:06:27.000Z</time>
      </trkpt>
      <trkpt lat="43.65753" lon="3.3465">
        <ele>189.2</ele>
        <time>2026-05-17T13:06:28.000Z</time>
      </trkpt>
      <trkpt lat="43.65752" lon="3.34651">
        <ele>189.5</ele>
        <time>2026-05-17T13:06:29.000Z</time>
      </trkpt>
      <trkpt lat="43.65751" lon="3.34652">
        <ele>190.1</ele>
        <time>2026-05-17T13:06:30.000Z</time>
      </trkpt>
      <trkpt lat="43.6575" lon="3.34653">
        <ele>190.2</ele>
        <time>2026-05-17T13:06:31.000Z</time>
      </trkpt>
      <trkpt lat="43.65749" lon="3.34653">
        <ele>190.1</ele>
        <time>2026-05-17T13:06:32.000Z</time>
      </trkpt>
      <trkpt lat="43.65749" lon="3.34654">
        <ele>190.6</ele>
        <time>2026-05-17T13:06:33.000Z</time>
      </trkpt>
      <trkpt lat="43.65747" lon="3.34655">
        <ele>191</ele>
        <time>2026-05-17T13:06:34.000Z</time>
      </trkpt>
      <trkpt lat="43.65745" lon="3.34656">
        <ele>191.1</ele>
        <time>2026-05-17T13:06:35.000Z</time>
      </trkpt>
      <trkpt lat="43.65744" lon="3.34658">
        <ele>191.3</ele>
        <time>2026-05-17T13:06:36.000Z</time>
      </trkpt>
      <trkpt lat="43.65742" lon="3.34658">
        <ele>191.6</ele>
        <time>2026-05-17T13:06:37.000Z</time>
      </trkpt>
      <trkpt lat="43.65742" lon="3.34659">
        <ele>191.4</ele>
        <time>2026-05-17T13:06:38.000Z</time>
      </trkpt>
      <trkpt lat="43.65741" lon="3.3466">
        <ele>191.4</ele>
        <time>2026-05-17T13:06:39.000Z</time>
      </trkpt>
      <trkpt lat="43.6574" lon="3.3466">
        <ele>191.3</ele>
        <time>2026-05-17T13:06:40.000Z</time>
      </trkpt>
      <trkpt lat="43.65739" lon="3.34661">
        <ele>191.2</ele>
        <time>2026-05-17T13:06:41.000Z</time>
      </trkpt>
      <trkpt lat="43.65738" lon="3.34663">
        <ele>191.5</ele>
        <time>2026-05-17T13:06:42.000Z</time>
      </trkpt>
      <trkpt lat="43.65738" lon="3.34663">
        <ele>191.7</ele>
        <time>2026-05-17T13:06:43.000Z</time>
      </trkpt>
      <trkpt lat="43.65738" lon="3.34663">
        <ele>191.6</ele>
        <time>2026-05-17T13:06:44.000Z</time>
      </trkpt>
      <trkpt lat="43.65738" lon="3.34664">
        <ele>191.7</ele>
        <time>2026-05-17T13:06:45.000Z</time>
      </trkpt>
      <trkpt lat="43.65738" lon="3.34665">
        <ele>191.5</ele>
        <time>2026-05-17T13:06:46.000Z</time>
      </trkpt>
      <trkpt lat="43.65738" lon="3.34666">
        <ele>191.4</ele>
        <time>2026-05-17T13:06:47.000Z</time>
      </trkpt>
      <trkpt lat="43.65737" lon="3.34668">
        <ele>191.4</ele>
        <time>2026-05-17T13:06:48.000Z</time>
      </trkpt>
      <trkpt lat="43.65737" lon="3.34669">
        <ele>191.2</ele>
        <time>2026-05-17T13:06:49.000Z</time>
      </trkpt>
      <trkpt lat="43.65736" lon="3.3467">
        <ele>191.1</ele>
        <time>2026-05-17T13:06:50.000Z</time>
      </trkpt>
      <trkpt lat="43.65735" lon="3.34672">
        <ele>190.8</ele>
        <time>2026-05-17T13:06:51.000Z</time>
      </trkpt>
      <trkpt lat="43.65734" lon="3.34673">
        <ele>191</ele>
        <time>2026-05-17T13:06:52.000Z</time>
      </trkpt>
      <trkpt lat="43.65734" lon="3.34675">
        <ele>190.9</ele>
        <time>2026-05-17T13:06:53.000Z</time>
      </trkpt>
      <trkpt lat="43.65733" lon="3.34676">
        <ele>190.7</ele>
        <time>2026-05-17T13:06:54.000Z</time>
      </trkpt>
      <trkpt lat="43.65733" lon="3.34676">
        <ele>191</ele>
        <time>2026-05-17T13:06:55.000Z</time>
      </trkpt>
      <trkpt lat="43.65732" lon="3.34677">
        <ele>191.3</ele>
        <time>2026-05-17T13:06:56.000Z</time>
      </trkpt>
      <trkpt lat="43.65732" lon="3.34678">
        <ele>191.5</ele>
        <time>2026-05-17T13:06:57.000Z</time>
      </trkpt>
      <trkpt lat="43.65732" lon="3.34679">
        <ele>191.3</ele>
        <time>2026-05-17T13:06:58.000Z</time>
      </trkpt>
      <trkpt lat="43.65732" lon="3.3468">
        <ele>191.2</ele>
        <time>2026-05-17T13:06:59.000Z</time>
      </trkpt>
      <trkpt lat="43.65732" lon="3.34682">
        <ele>190.9</ele>
        <time>2026-05-17T13:07:00.000Z</time>
      </trkpt>
      <trkpt lat="43.65732" lon="3.34683">
        <ele>190.6</ele>
        <time>2026-05-17T13:07:01.000Z</time>
      </trkpt>
      <trkpt lat="43.65732" lon="3.34685">
        <ele>190.5</ele>
        <time>2026-05-17T13:07:02.000Z</time>
      </trkpt>
      <trkpt lat="43.65732" lon="3.34685">
        <ele>190.6</ele>
        <time>2026-05-17T13:07:03.000Z</time>
      </trkpt>
      <trkpt lat="43.65732" lon="3.34686">
        <ele>190.4</ele>
        <time>2026-05-17T13:07:04.000Z</time>
      </trkpt>
      <trkpt lat="43.65731" lon="3.34686">
        <ele>190.5</ele>
        <time>2026-05-17T13:07:05.000Z</time>
      </trkpt>
      <trkpt lat="43.65731" lon="3.34687">
        <ele>190.8</ele>
        <time>2026-05-17T13:07:06.000Z</time>
      </trkpt>
      <trkpt lat="43.65731" lon="3.34688">
        <ele>190.9</ele>
        <time>2026-05-17T13:07:07.000Z</time>
      </trkpt>
      <trkpt lat="43.65731" lon="3.34688">
        <ele>191</ele>
        <time>2026-05-17T13:07:08.000Z</time>
      </trkpt>
      <trkpt lat="43.65731" lon="3.34689">
        <ele>191.2</ele>
        <time>2026-05-17T13:07:09.000Z</time>
      </trkpt>
      <trkpt lat="43.65731" lon="3.3469">
        <ele>191.4</ele>
        <time>2026-05-17T13:07:10.000Z</time>
      </trkpt>
      <trkpt lat="43.65731" lon="3.3469">
        <ele>191.6</ele>
        <time>2026-05-17T13:07:11.000Z</time>
      </trkpt>
      <trkpt lat="43.65731" lon="3.3469">
        <ele>191.6</ele>
        <time>2026-05-17T13:07:12.000Z</time>
      </trkpt>
      <trkpt lat="43.65731" lon="3.3469">
        <ele>191.4</ele>
        <time>2026-05-17T13:07:13.000Z</time>
      </trkpt>
      <trkpt lat="43.65731" lon="3.3469">
        <ele>191.2</ele>
        <time>2026-05-17T13:07:14.000Z</time>
      </trkpt>
      <trkpt lat="43.65731" lon="3.3469">
        <ele>191.2</ele>
        <time>2026-05-17T13:07:15.000Z</time>
      </trkpt>
      <trkpt lat="43.65731" lon="3.3469">
        <ele>191.4</ele>
        <time>2026-05-17T13:07:16.000Z</time>
      </trkpt>
      <trkpt lat="43.65731" lon="3.3469">
        <ele>191.6</ele>
        <time>2026-05-17T13:07:17.000Z</time>
      </trkpt>
      <trkpt lat="43.65731" lon="3.3469">
        <ele>191.7</ele>
        <time>2026-05-17T13:07:18.000Z</time>
      </trkpt>
      <trkpt lat="43.65731" lon="3.3469">
        <ele>192.1</ele>
        <time>2026-05-17T13:07:19.000Z</time>
      </trkpt>
      <trkpt lat="43.65731" lon="3.3469">
        <ele>192.6</ele>
        <time>2026-05-17T13:07:20.000Z</time>
      </trkpt>
      <trkpt lat="43.65731" lon="3.34691">
        <ele>192.8</ele>
        <time>2026-05-17T13:07:21.000Z</time>
      </trkpt>
      <trkpt lat="43.65731" lon="3.34692">
        <ele>192.4</ele>
        <time>2026-05-17T13:07:22.000Z</time>
      </trkpt>
      <trkpt lat="43.65731" lon="3.34694">
        <ele>192.6</ele>
        <time>2026-05-17T13:07:23.000Z</time>
      </trkpt>
      <trkpt lat="43.65731" lon="3.34698">
        <ele>193.1</ele>
        <time>2026-05-17T13:07:25.000Z</time>
      </trkpt>
      <trkpt lat="43.65731" lon="3.347">
        <ele>192.8</ele>
        <time>2026-05-17T13:07:26.000Z</time>
      </trkpt>
      <trkpt lat="43.65731" lon="3.34702">
        <ele>192.7</ele>
        <time>2026-05-17T13:07:27.000Z</time>
      </trkpt>
      <trkpt lat="43.65731" lon="3.34704">
        <ele>192.2</ele>
        <time>2026-05-17T13:07:28.000Z</time>
      </trkpt>
      <trkpt lat="43.65731" lon="3.34707">
        <ele>191.9</ele>
        <time>2026-05-17T13:07:29.000Z</time>
      </trkpt>
      <trkpt lat="43.65732" lon="3.34709">
        <ele>192.1</ele>
        <time>2026-05-17T13:07:30.000Z</time>
      </trkpt>
      <trkpt lat="43.65733" lon="3.34711">
        <ele>191.5</ele>
        <time>2026-05-17T13:07:31.000Z</time>
      </trkpt>
      <trkpt lat="43.65734" lon="3.34712">
        <ele>191</ele>
        <time>2026-05-17T13:07:32.000Z</time>
      </trkpt>
      <trkpt lat="43.65735" lon="3.34713">
        <ele>190.1</ele>
        <time>2026-05-17T13:07:33.000Z</time>
      </trkpt>
      <trkpt lat="43.65736" lon="3.34714">
        <ele>189.5</ele>
        <time>2026-05-17T13:07:34.000Z</time>
      </trkpt>
      <trkpt lat="43.65737" lon="3.34715">
        <ele>189.4</ele>
        <time>2026-05-17T13:07:35.000Z</time>
      </trkpt>
      <trkpt lat="43.65737" lon="3.34715">
        <ele>188.7</ele>
        <time>2026-05-17T13:07:36.000Z</time>
      </trkpt>
      <trkpt lat="43.65738" lon="3.34715">
        <ele>188.8</ele>
        <time>2026-05-17T13:07:37.000Z</time>
      </trkpt>
      <trkpt lat="43.65738" lon="3.34716">
        <ele>189</ele>
        <time>2026-05-17T13:07:38.000Z</time>
      </trkpt>
      <trkpt lat="43.65739" lon="3.34717">
        <ele>189</ele>
        <time>2026-05-17T13:07:39.000Z</time>
      </trkpt>
      <trkpt lat="43.65741" lon="3.34717">
        <ele>189</ele>
        <time>2026-05-17T13:07:40.000Z</time>
      </trkpt>
      <trkpt lat="43.65742" lon="3.34718">
        <ele>189.1</ele>
        <time>2026-05-17T13:07:41.000Z</time>
      </trkpt>
      <trkpt lat="43.65743" lon="3.34718">
        <ele>189.2</ele>
        <time>2026-05-17T13:07:42.000Z</time>
      </trkpt>
      <trkpt lat="43.65744" lon="3.34719">
        <ele>189.2</ele>
        <time>2026-05-17T13:07:43.000Z</time>
      </trkpt>
      <trkpt lat="43.65745" lon="3.34719">
        <ele>189.1</ele>
        <time>2026-05-17T13:07:44.000Z</time>
      </trkpt>
      <trkpt lat="43.65745" lon="3.34719">
        <ele>188.8</ele>
        <time>2026-05-17T13:07:45.000Z</time>
      </trkpt>
      <trkpt lat="43.65746" lon="3.3472">
        <ele>188.2</ele>
        <time>2026-05-17T13:07:46.000Z</time>
      </trkpt>
      <trkpt lat="43.65747" lon="3.3472">
        <ele>188.1</ele>
        <time>2026-05-17T13:07:47.000Z</time>
      </trkpt>
      <trkpt lat="43.65748" lon="3.34721">
        <ele>187.7</ele>
        <time>2026-05-17T13:07:48.000Z</time>
      </trkpt>
      <trkpt lat="43.65749" lon="3.34722">
        <ele>187.5</ele>
        <time>2026-05-17T13:07:49.000Z</time>
      </trkpt>
      <trkpt lat="43.65751" lon="3.34723">
        <ele>187.5</ele>
        <time>2026-05-17T13:07:50.000Z</time>
      </trkpt>
      <trkpt lat="43.65751" lon="3.34724">
        <ele>187.5</ele>
        <time>2026-05-17T13:07:51.000Z</time>
      </trkpt>
      <trkpt lat="43.65752" lon="3.34724">
        <ele>187.5</ele>
        <time>2026-05-17T13:07:52.000Z</time>
      </trkpt>
      <trkpt lat="43.65753" lon="3.34724">
        <ele>187.4</ele>
        <time>2026-05-17T13:07:53.000Z</time>
      </trkpt>
      <trkpt lat="43.65754" lon="3.34725">
        <ele>187.5</ele>
        <time>2026-05-17T13:07:54.000Z</time>
      </trkpt>
      <trkpt lat="43.65755" lon="3.34725">
        <ele>187.3</ele>
        <time>2026-05-17T13:07:55.000Z</time>
      </trkpt>
      <trkpt lat="43.65756" lon="3.34726">
        <ele>186.8</ele>
        <time>2026-05-17T13:07:56.000Z</time>
      </trkpt>
      <trkpt lat="43.65757" lon="3.34727">
        <ele>186.4</ele>
        <time>2026-05-17T13:07:57.000Z</time>
      </trkpt>
      <trkpt lat="43.65758" lon="3.34728">
        <ele>186.2</ele>
        <time>2026-05-17T13:07:58.000Z</time>
      </trkpt>
      <trkpt lat="43.65759" lon="3.34729">
        <ele>186.1</ele>
        <time>2026-05-17T13:07:59.000Z</time>
      </trkpt>
      <trkpt lat="43.6576" lon="3.34729">
        <ele>185.6</ele>
        <time>2026-05-17T13:08:00.000Z</time>
      </trkpt>
      <trkpt lat="43.65761" lon="3.3473">
        <ele>185.6</ele>
        <time>2026-05-17T13:08:01.000Z</time>
      </trkpt>
      <trkpt lat="43.65762" lon="3.34731">
        <ele>185.4</ele>
        <time>2026-05-17T13:08:02.000Z</time>
      </trkpt>
      <trkpt lat="43.65763" lon="3.34731">
        <ele>185</ele>
        <time>2026-05-17T13:08:03.000Z</time>
      </trkpt>
      <trkpt lat="43.65764" lon="3.34731">
        <ele>184.8</ele>
        <time>2026-05-17T13:08:04.000Z</time>
      </trkpt>
      <trkpt lat="43.65764" lon="3.34732">
        <ele>184.6</ele>
        <time>2026-05-17T13:08:05.000Z</time>
      </trkpt>
      <trkpt lat="43.65765" lon="3.34733">
        <ele>184.5</ele>
        <time>2026-05-17T13:08:06.000Z</time>
      </trkpt>
      <trkpt lat="43.65766" lon="3.34734">
        <ele>183.9</ele>
        <time>2026-05-17T13:08:07.000Z</time>
      </trkpt>
      <trkpt lat="43.65767" lon="3.34735">
        <ele>183.8</ele>
        <time>2026-05-17T13:08:08.000Z</time>
      </trkpt>
      <trkpt lat="43.65768" lon="3.34736">
        <ele>183.5</ele>
        <time>2026-05-17T13:08:09.000Z</time>
      </trkpt>
      <trkpt lat="43.65769" lon="3.34736">
        <ele>183</ele>
        <time>2026-05-17T13:08:10.000Z</time>
      </trkpt>
      <trkpt lat="43.65769" lon="3.34737">
        <ele>182.5</ele>
        <time>2026-05-17T13:08:11.000Z</time>
      </trkpt>
      <trkpt lat="43.6577" lon="3.34737">
        <ele>181.9</ele>
        <time>2026-05-17T13:08:12.000Z</time>
      </trkpt>
      <trkpt lat="43.6577" lon="3.34738">
        <ele>181.7</ele>
        <time>2026-05-17T13:08:13.000Z</time>
      </trkpt>
      <trkpt lat="43.6577" lon="3.34739">
        <ele>181.2</ele>
        <time>2026-05-17T13:08:14.000Z</time>
      </trkpt>
      <trkpt lat="43.6577" lon="3.3474">
        <ele>180.4</ele>
        <time>2026-05-17T13:08:15.000Z</time>
      </trkpt>
      <trkpt lat="43.6577" lon="3.34742">
        <ele>179.8</ele>
        <time>2026-05-17T13:08:16.000Z</time>
      </trkpt>
      <trkpt lat="43.6577" lon="3.34742">
        <ele>179.3</ele>
        <time>2026-05-17T13:08:17.000Z</time>
      </trkpt>
      <trkpt lat="43.6577" lon="3.34743">
        <ele>179.1</ele>
        <time>2026-05-17T13:08:18.000Z</time>
      </trkpt>
      <trkpt lat="43.6577" lon="3.34744">
        <ele>179</ele>
        <time>2026-05-17T13:08:19.000Z</time>
      </trkpt>
      <trkpt lat="43.65769" lon="3.34746">
        <ele>178.9</ele>
        <time>2026-05-17T13:08:20.000Z</time>
      </trkpt>
      <trkpt lat="43.65769" lon="3.34748">
        <ele>179</ele>
        <time>2026-05-17T13:08:21.000Z</time>
      </trkpt>
      <trkpt lat="43.65769" lon="3.34751">
        <ele>178.9</ele>
        <time>2026-05-17T13:08:22.000Z</time>
      </trkpt>
      <trkpt lat="43.65769" lon="3.34753">
        <ele>178.5</ele>
        <time>2026-05-17T13:08:23.000Z</time>
      </trkpt>
      <trkpt lat="43.65768" lon="3.34754">
        <ele>178.3</ele>
        <time>2026-05-17T13:08:24.000Z</time>
      </trkpt>
      <trkpt lat="43.65768" lon="3.34754">
        <ele>178.2</ele>
        <time>2026-05-17T13:08:25.000Z</time>
      </trkpt>
      <trkpt lat="43.65768" lon="3.34755">
        <ele>178.2</ele>
        <time>2026-05-17T13:08:26.000Z</time>
      </trkpt>
      <trkpt lat="43.65767" lon="3.34756">
        <ele>178</ele>
        <time>2026-05-17T13:08:27.000Z</time>
      </trkpt>
      <trkpt lat="43.65767" lon="3.34758">
        <ele>177.9</ele>
        <time>2026-05-17T13:08:28.000Z</time>
      </trkpt>
      <trkpt lat="43.65766" lon="3.3476">
        <ele>177.8</ele>
        <time>2026-05-17T13:08:29.000Z</time>
      </trkpt>
      <trkpt lat="43.65765" lon="3.34762">
        <ele>177.8</ele>
        <time>2026-05-17T13:08:30.000Z</time>
      </trkpt>
      <trkpt lat="43.65764" lon="3.34763">
        <ele>177.7</ele>
        <time>2026-05-17T13:08:31.000Z</time>
      </trkpt>
      <trkpt lat="43.65763" lon="3.34764">
        <ele>177.6</ele>
        <time>2026-05-17T13:08:32.000Z</time>
      </trkpt>
      <trkpt lat="43.65762" lon="3.34764">
        <ele>177.6</ele>
        <time>2026-05-17T13:08:33.000Z</time>
      </trkpt>
      <trkpt lat="43.65761" lon="3.34765">
        <ele>177.6</ele>
        <time>2026-05-17T13:08:34.000Z</time>
      </trkpt>
      <trkpt lat="43.6576" lon="3.34765">
        <ele>177.5</ele>
        <time>2026-05-17T13:08:35.000Z</time>
      </trkpt>
      <trkpt lat="43.65759" lon="3.34764">
        <ele>177.4</ele>
        <time>2026-05-17T13:08:36.000Z</time>
      </trkpt>
      <trkpt lat="43.65759" lon="3.34763">
        <ele>177.3</ele>
        <time>2026-05-17T13:08:37.000Z</time>
      </trkpt>
      <trkpt lat="43.65758" lon="3.34763">
        <ele>177.5</ele>
        <time>2026-05-17T13:08:38.000Z</time>
      </trkpt>
      <trkpt lat="43.65757" lon="3.34762">
        <ele>177.3</ele>
        <time>2026-05-17T13:08:39.000Z</time>
      </trkpt>
      <trkpt lat="43.65756" lon="3.34761">
        <ele>177.2</ele>
        <time>2026-05-17T13:08:40.000Z</time>
      </trkpt>
      <trkpt lat="43.65755" lon="3.3476">
        <ele>177.5</ele>
        <time>2026-05-17T13:08:41.000Z</time>
      </trkpt>
      <trkpt lat="43.65754" lon="3.34759">
        <ele>177.5</ele>
        <time>2026-05-17T13:08:42.000Z</time>
      </trkpt>
      <trkpt lat="43.65753" lon="3.34758">
        <ele>177.3</ele>
        <time>2026-05-17T13:08:43.000Z</time>
      </trkpt>
      <trkpt lat="43.65752" lon="3.34757">
        <ele>177</ele>
        <time>2026-05-17T13:08:44.000Z</time>
      </trkpt>
      <trkpt lat="43.65751" lon="3.34756">
        <ele>176.9</ele>
        <time>2026-05-17T13:08:45.000Z</time>
      </trkpt>
      <trkpt lat="43.6575" lon="3.34755">
        <ele>177</ele>
        <time>2026-05-17T13:08:46.000Z</time>
      </trkpt>
      <trkpt lat="43.65748" lon="3.34754">
        <ele>177.3</ele>
        <time>2026-05-17T13:08:47.000Z</time>
      </trkpt>
      <trkpt lat="43.65747" lon="3.34755">
        <ele>177.6</ele>
        <time>2026-05-17T13:08:48.000Z</time>
      </trkpt>
      <trkpt lat="43.65746" lon="3.34755">
        <ele>177.6</ele>
        <time>2026-05-17T13:08:49.000Z</time>
      </trkpt>
      <trkpt lat="43.65745" lon="3.34756">
        <ele>177.3</ele>
        <time>2026-05-17T13:08:50.000Z</time>
      </trkpt>
      <trkpt lat="43.65744" lon="3.34755">
        <ele>177.4</ele>
        <time>2026-05-17T13:08:51.000Z</time>
      </trkpt>
      <trkpt lat="43.65743" lon="3.34754">
        <ele>177.5</ele>
        <time>2026-05-17T13:08:52.000Z</time>
      </trkpt>
      <trkpt lat="43.65742" lon="3.34753">
        <ele>177.7</ele>
        <time>2026-05-17T13:08:53.000Z</time>
      </trkpt>
      <trkpt lat="43.65741" lon="3.34752">
        <ele>178</ele>
        <time>2026-05-17T13:08:54.000Z</time>
      </trkpt>
      <trkpt lat="43.6574" lon="3.34751">
        <ele>178</ele>
        <time>2026-05-17T13:08:55.000Z</time>
      </trkpt>
      <trkpt lat="43.65739" lon="3.3475">
        <ele>178.1</ele>
        <time>2026-05-17T13:08:56.000Z</time>
      </trkpt>
      <trkpt lat="43.65738" lon="3.3475">
        <ele>178.3</ele>
        <time>2026-05-17T13:08:57.000Z</time>
      </trkpt>
      <trkpt lat="43.65737" lon="3.34749">
        <ele>178.2</ele>
        <time>2026-05-17T13:08:58.000Z</time>
      </trkpt>
      <trkpt lat="43.65736" lon="3.34749">
        <ele>178.1</ele>
        <time>2026-05-17T13:08:59.000Z</time>
      </trkpt>
      <trkpt lat="43.65736" lon="3.34749">
        <ele>178</ele>
        <time>2026-05-17T13:09:00.000Z</time>
      </trkpt>
      <trkpt lat="43.65735" lon="3.34749">
        <ele>177.8</ele>
        <time>2026-05-17T13:09:01.000Z</time>
      </trkpt>
      <trkpt lat="43.65733" lon="3.34748">
        <ele>178.3</ele>
        <time>2026-05-17T13:09:02.000Z</time>
      </trkpt>
      <trkpt lat="43.65733" lon="3.34748">
        <ele>178.8</ele>
        <time>2026-05-17T13:09:03.000Z</time>
      </trkpt>
      <trkpt lat="43.65732" lon="3.34747">
        <ele>178.9</ele>
        <time>2026-05-17T13:09:04.000Z</time>
      </trkpt>
      <trkpt lat="43.65732" lon="3.34746">
        <ele>178.8</ele>
        <time>2026-05-17T13:09:05.000Z</time>
      </trkpt>
      <trkpt lat="43.65732" lon="3.34745">
        <ele>179.3</ele>
        <time>2026-05-17T13:09:06.000Z</time>
      </trkpt>
      <trkpt lat="43.65732" lon="3.34745">
        <ele>179.4</ele>
        <time>2026-05-17T13:09:07.000Z</time>
      </trkpt>
      <trkpt lat="43.65732" lon="3.34744">
        <ele>179.7</ele>
        <time>2026-05-17T13:09:08.000Z</time>
      </trkpt>
      <trkpt lat="43.65732" lon="3.34744">
        <ele>180.3</ele>
        <time>2026-05-17T13:09:09.000Z</time>
      </trkpt>
      <trkpt lat="43.65732" lon="3.34744">
        <ele>180.2</ele>
        <time>2026-05-17T13:09:10.000Z</time>
      </trkpt>
      <trkpt lat="43.65732" lon="3.34744">
        <ele>179.9</ele>
        <time>2026-05-17T13:09:11.000Z</time>
      </trkpt>
      <trkpt lat="43.65731" lon="3.34743">
        <ele>179.9</ele>
        <time>2026-05-17T13:09:12.000Z</time>
      </trkpt>
      <trkpt lat="43.65731" lon="3.34743">
        <ele>180</ele>
        <time>2026-05-17T13:09:13.000Z</time>
      </trkpt>
      <trkpt lat="43.65731" lon="3.34742">
        <ele>180.1</ele>
        <time>2026-05-17T13:09:14.000Z</time>
      </trkpt>
      <trkpt lat="43.65729" lon="3.34741">
        <ele>180.3</ele>
        <time>2026-05-17T13:09:15.000Z</time>
      </trkpt>
      <trkpt lat="43.65728" lon="3.3474">
        <ele>180.3</ele>
        <time>2026-05-17T13:09:16.000Z</time>
      </trkpt>
      <trkpt lat="43.65727" lon="3.34739">
        <ele>180.5</ele>
        <time>2026-05-17T13:09:17.000Z</time>
      </trkpt>
      <trkpt lat="43.65726" lon="3.34739">
        <ele>180.5</ele>
        <time>2026-05-17T13:09:18.000Z</time>
      </trkpt>
      <trkpt lat="43.65725" lon="3.34738">
        <ele>180.4</ele>
        <time>2026-05-17T13:09:19.000Z</time>
      </trkpt>
      <trkpt lat="43.65724" lon="3.34738">
        <ele>180.4</ele>
        <time>2026-05-17T13:09:20.000Z</time>
      </trkpt>
      <trkpt lat="43.65723" lon="3.34737">
        <ele>180.6</ele>
        <time>2026-05-17T13:09:21.000Z</time>
      </trkpt>
      <trkpt lat="43.65722" lon="3.34736">
        <ele>180.6</ele>
        <time>2026-05-17T13:09:22.000Z</time>
      </trkpt>
      <trkpt lat="43.65721" lon="3.34736">
        <ele>181.1</ele>
        <time>2026-05-17T13:09:23.000Z</time>
      </trkpt>
      <trkpt lat="43.65721" lon="3.34735">
        <ele>181.3</ele>
        <time>2026-05-17T13:09:24.000Z</time>
      </trkpt>
      <trkpt lat="43.6572" lon="3.34735">
        <ele>181.6</ele>
        <time>2026-05-17T13:09:25.000Z</time>
      </trkpt>
      <trkpt lat="43.65719" lon="3.34735">
        <ele>181.7</ele>
        <time>2026-05-17T13:09:26.000Z</time>
      </trkpt>
      <trkpt lat="43.65718" lon="3.34734">
        <ele>181.8</ele>
        <time>2026-05-17T13:09:27.000Z</time>
      </trkpt>
      <trkpt lat="43.65717" lon="3.34734">
        <ele>182</ele>
        <time>2026-05-17T13:09:28.000Z</time>
      </trkpt>
      <trkpt lat="43.65716" lon="3.34733">
        <ele>182.1</ele>
        <time>2026-05-17T13:09:29.000Z</time>
      </trkpt>
      <trkpt lat="43.65715" lon="3.34733">
        <ele>182.1</ele>
        <time>2026-05-17T13:09:30.000Z</time>
      </trkpt>
      <trkpt lat="43.65714" lon="3.34732">
        <ele>181.8</ele>
        <time>2026-05-17T13:09:31.000Z</time>
      </trkpt>
      <trkpt lat="43.65713" lon="3.34733">
        <ele>181.8</ele>
        <time>2026-05-17T13:09:32.000Z</time>
      </trkpt>
      <trkpt lat="43.65712" lon="3.34732">
        <ele>181.8</ele>
        <time>2026-05-17T13:09:33.000Z</time>
      </trkpt>
      <trkpt lat="43.65711" lon="3.34733">
        <ele>182.1</ele>
        <time>2026-05-17T13:09:34.000Z</time>
      </trkpt>
      <trkpt lat="43.6571" lon="3.34733">
        <ele>182.3</ele>
        <time>2026-05-17T13:09:35.000Z</time>
      </trkpt>
      <trkpt lat="43.65709" lon="3.34734">
        <ele>182.7</ele>
        <time>2026-05-17T13:09:36.000Z</time>
      </trkpt>
      <trkpt lat="43.65708" lon="3.34734">
        <ele>183</ele>
        <time>2026-05-17T13:09:37.000Z</time>
      </trkpt>
      <trkpt lat="43.65707" lon="3.34734">
        <ele>183.1</ele>
        <time>2026-05-17T13:09:38.000Z</time>
      </trkpt>
      <trkpt lat="43.65706" lon="3.34734">
        <ele>183.1</ele>
        <time>2026-05-17T13:09:39.000Z</time>
      </trkpt>
      <trkpt lat="43.65704" lon="3.34735">
        <ele>183.1</ele>
        <time>2026-05-17T13:09:40.000Z</time>
      </trkpt>
      <trkpt lat="43.65703" lon="3.34735">
        <ele>182.9</ele>
        <time>2026-05-17T13:09:41.000Z</time>
      </trkpt>
      <trkpt lat="43.65702" lon="3.34734">
        <ele>182.5</ele>
        <time>2026-05-17T13:09:42.000Z</time>
      </trkpt>
      <trkpt lat="43.65702" lon="3.34734">
        <ele>181.9</ele>
        <time>2026-05-17T13:09:43.000Z</time>
      </trkpt>
      <trkpt lat="43.65701" lon="3.34733">
        <ele>181.7</ele>
        <time>2026-05-17T13:09:44.000Z</time>
      </trkpt>
      <trkpt lat="43.65701" lon="3.34732">
        <ele>181.5</ele>
        <time>2026-05-17T13:09:45.000Z</time>
      </trkpt>
      <trkpt lat="43.657" lon="3.34733">
        <ele>181.8</ele>
        <time>2026-05-17T13:09:46.000Z</time>
      </trkpt>
      <trkpt lat="43.65699" lon="3.34733">
        <ele>182</ele>
        <time>2026-05-17T13:09:47.000Z</time>
      </trkpt>
      <trkpt lat="43.65699" lon="3.34733">
        <ele>182</ele>
        <time>2026-05-17T13:09:48.000Z</time>
      </trkpt>
      <trkpt lat="43.65698" lon="3.34733">
        <ele>181.8</ele>
        <time>2026-05-17T13:09:49.000Z</time>
      </trkpt>
      <trkpt lat="43.65698" lon="3.34733">
        <ele>181.8</ele>
        <time>2026-05-17T13:09:50.000Z</time>
      </trkpt>
      <trkpt lat="43.65695" lon="3.34733">
        <ele>184.7</ele>
        <time>2026-05-17T13:09:51.000Z</time>
      </trkpt>
      <trkpt lat="43.65693" lon="3.34734">
        <ele>186.6</ele>
        <time>2026-05-17T13:09:52.000Z</time>
      </trkpt>
      <trkpt lat="43.65692" lon="3.34735">
        <ele>189.1</ele>
        <time>2026-05-17T13:09:53.000Z</time>
      </trkpt>
      <trkpt lat="43.65692" lon="3.34736">
        <ele>190.1</ele>
        <time>2026-05-17T13:09:54.000Z</time>
      </trkpt>
      <trkpt lat="43.65692" lon="3.34738">
        <ele>190.4</ele>
        <time>2026-05-17T13:09:55.000Z</time>
      </trkpt>
      <trkpt lat="43.65692" lon="3.34739">
        <ele>191.1</ele>
        <time>2026-05-17T13:09:56.000Z</time>
      </trkpt>
      <trkpt lat="43.65692" lon="3.3474">
        <ele>191.7</ele>
        <time>2026-05-17T13:09:57.000Z</time>
      </trkpt>
      <trkpt lat="43.65691" lon="3.34742">
        <ele>192</ele>
        <time>2026-05-17T13:09:58.000Z</time>
      </trkpt>
      <trkpt lat="43.65691" lon="3.34744">
        <ele>192.2</ele>
        <time>2026-05-17T13:09:59.000Z</time>
      </trkpt>
      <trkpt lat="43.65691" lon="3.34745">
        <ele>192.2</ele>
        <time>2026-05-17T13:10:00.000Z</time>
      </trkpt>
      <trkpt lat="43.65692" lon="3.34746">
        <ele>192.3</ele>
        <time>2026-05-17T13:10:01.000Z</time>
      </trkpt>
      <trkpt lat="43.65692" lon="3.34747">
        <ele>192.3</ele>
        <time>2026-05-17T13:10:02.000Z</time>
      </trkpt>
      <trkpt lat="43.65693" lon="3.34748">
        <ele>192</ele>
        <time>2026-05-17T13:10:03.000Z</time>
      </trkpt>
      <trkpt lat="43.65693" lon="3.34749">
        <ele>191.5</ele>
        <time>2026-05-17T13:10:04.000Z</time>
      </trkpt>
      <trkpt lat="43.65693" lon="3.3475">
        <ele>191.3</ele>
        <time>2026-05-17T13:10:05.000Z</time>
      </trkpt>
      <trkpt lat="43.65692" lon="3.34751">
        <ele>191.3</ele>
        <time>2026-05-17T13:10:06.000Z</time>
      </trkpt>
      <trkpt lat="43.65692" lon="3.34752">
        <ele>191.3</ele>
        <time>2026-05-17T13:10:07.000Z</time>
      </trkpt>
      <trkpt lat="43.65692" lon="3.34753">
        <ele>191.3</ele>
        <time>2026-05-17T13:10:08.000Z</time>
      </trkpt>
      <trkpt lat="43.65691" lon="3.34754">
        <ele>191.1</ele>
        <time>2026-05-17T13:10:09.000Z</time>
      </trkpt>
      <trkpt lat="43.65691" lon="3.34756">
        <ele>190.9</ele>
        <time>2026-05-17T13:10:10.000Z</time>
      </trkpt>
      <trkpt lat="43.65691" lon="3.34757">
        <ele>190.8</ele>
        <time>2026-05-17T13:10:11.000Z</time>
      </trkpt>
      <trkpt lat="43.65691" lon="3.34759">
        <ele>190.8</ele>
        <time>2026-05-17T13:10:12.000Z</time>
      </trkpt>
      <trkpt lat="43.65691" lon="3.34761">
        <ele>190.6</ele>
        <time>2026-05-17T13:10:13.000Z</time>
      </trkpt>
      <trkpt lat="43.65692" lon="3.34762">
        <ele>190.5</ele>
        <time>2026-05-17T13:10:14.000Z</time>
      </trkpt>
      <trkpt lat="43.65692" lon="3.34763">
        <ele>190.1</ele>
        <time>2026-05-17T13:10:15.000Z</time>
      </trkpt>
      <trkpt lat="43.65693" lon="3.34765">
        <ele>189.8</ele>
        <time>2026-05-17T13:10:16.000Z</time>
      </trkpt>
      <trkpt lat="43.65694" lon="3.34766">
        <ele>189.5</ele>
        <time>2026-05-17T13:10:17.000Z</time>
      </trkpt>
      <trkpt lat="43.65694" lon="3.34768">
        <ele>189.1</ele>
        <time>2026-05-17T13:10:18.000Z</time>
      </trkpt>
      <trkpt lat="43.65695" lon="3.3477">
        <ele>188.9</ele>
        <time>2026-05-17T13:10:19.000Z</time>
      </trkpt>
      <trkpt lat="43.65695" lon="3.34771">
        <ele>188.6</ele>
        <time>2026-05-17T13:10:20.000Z</time>
      </trkpt>
      <trkpt lat="43.65696" lon="3.34772">
        <ele>188.4</ele>
        <time>2026-05-17T13:10:21.000Z</time>
      </trkpt>
      <trkpt lat="43.65696" lon="3.34773">
        <ele>188.2</ele>
        <time>2026-05-17T13:10:22.000Z</time>
      </trkpt>
      <trkpt lat="43.65696" lon="3.34775">
        <ele>187.8</ele>
        <time>2026-05-17T13:10:23.000Z</time>
      </trkpt>
      <trkpt lat="43.65696" lon="3.34776">
        <ele>187.7</ele>
        <time>2026-05-17T13:10:24.000Z</time>
      </trkpt>
      <trkpt lat="43.65696" lon="3.34777">
        <ele>187.3</ele>
        <time>2026-05-17T13:10:25.000Z</time>
      </trkpt>
      <trkpt lat="43.65696" lon="3.34779">
        <ele>187.1</ele>
        <time>2026-05-17T13:10:26.000Z</time>
      </trkpt>
      <trkpt lat="43.65696" lon="3.34781">
        <ele>187.1</ele>
        <time>2026-05-17T13:10:27.000Z</time>
      </trkpt>
      <trkpt lat="43.65697" lon="3.34783">
        <ele>187</ele>
        <time>2026-05-17T13:10:28.000Z</time>
      </trkpt>
      <trkpt lat="43.65697" lon="3.34785">
        <ele>187.2</ele>
        <time>2026-05-17T13:10:29.000Z</time>
      </trkpt>
      <trkpt lat="43.65697" lon="3.34787">
        <ele>187.1</ele>
        <time>2026-05-17T13:10:30.000Z</time>
      </trkpt>
      <trkpt lat="43.65697" lon="3.34789">
        <ele>187</ele>
        <time>2026-05-17T13:10:31.000Z</time>
      </trkpt>
      <trkpt lat="43.65697" lon="3.34791">
        <ele>187.2</ele>
        <time>2026-05-17T13:10:32.000Z</time>
      </trkpt>
      <trkpt lat="43.65697" lon="3.34793">
        <ele>187.1</ele>
        <time>2026-05-17T13:10:33.000Z</time>
      </trkpt>
      <trkpt lat="43.65697" lon="3.34795">
        <ele>186.9</ele>
        <time>2026-05-17T13:10:34.000Z</time>
      </trkpt>
      <trkpt lat="43.65697" lon="3.34797">
        <ele>187.1</ele>
        <time>2026-05-17T13:10:35.000Z</time>
      </trkpt>
      <trkpt lat="43.65697" lon="3.34798">
        <ele>187</ele>
        <time>2026-05-17T13:10:36.000Z</time>
      </trkpt>
      <trkpt lat="43.65697" lon="3.34799">
        <ele>186.9</ele>
        <time>2026-05-17T13:10:37.000Z</time>
      </trkpt>
      <trkpt lat="43.65697" lon="3.348">
        <ele>187.8</ele>
        <time>2026-05-17T13:10:38.000Z</time>
      </trkpt>
      <trkpt lat="43.65697" lon="3.34801">
        <ele>188.1</ele>
        <time>2026-05-17T13:10:39.000Z</time>
      </trkpt>
      <trkpt lat="43.65697" lon="3.34802">
        <ele>188.1</ele>
        <time>2026-05-17T13:10:40.000Z</time>
      </trkpt>
      <trkpt lat="43.65697" lon="3.34804">
        <ele>188</ele>
        <time>2026-05-17T13:10:41.000Z</time>
      </trkpt>
      <trkpt lat="43.65697" lon="3.34805">
        <ele>187.8</ele>
        <time>2026-05-17T13:10:42.000Z</time>
      </trkpt>
      <trkpt lat="43.65697" lon="3.34807">
        <ele>187.9</ele>
        <time>2026-05-17T13:10:43.000Z</time>
      </trkpt>
      <trkpt lat="43.65697" lon="3.34808">
        <ele>188.3</ele>
        <time>2026-05-17T13:10:44.000Z</time>
      </trkpt>
      <trkpt lat="43.65696" lon="3.3481">
        <ele>188.5</ele>
        <time>2026-05-17T13:10:45.000Z</time>
      </trkpt>
      <trkpt lat="43.65696" lon="3.34811">
        <ele>188.6</ele>
        <time>2026-05-17T13:10:46.000Z</time>
      </trkpt>
      <trkpt lat="43.65696" lon="3.34812">
        <ele>188.6</ele>
        <time>2026-05-17T13:10:47.000Z</time>
      </trkpt>
      <trkpt lat="43.65695" lon="3.34812">
        <ele>188.3</ele>
        <time>2026-05-17T13:10:48.000Z</time>
      </trkpt>
      <trkpt lat="43.65694" lon="3.34813">
        <ele>188.3</ele>
        <time>2026-05-17T13:10:49.000Z</time>
      </trkpt>
      <trkpt lat="43.65693" lon="3.34816">
        <ele>188.7</ele>
        <time>2026-05-17T13:10:50.000Z</time>
      </trkpt>
      <trkpt lat="43.65693" lon="3.34818">
        <ele>188.7</ele>
        <time>2026-05-17T13:10:51.000Z</time>
      </trkpt>
      <trkpt lat="43.65693" lon="3.3482">
        <ele>188.9</ele>
        <time>2026-05-17T13:10:52.000Z</time>
      </trkpt>
      <trkpt lat="43.65692" lon="3.34821">
        <ele>189.2</ele>
        <time>2026-05-17T13:10:53.000Z</time>
      </trkpt>
      <trkpt lat="43.65692" lon="3.34822">
        <ele>189.6</ele>
        <time>2026-05-17T13:10:54.000Z</time>
      </trkpt>
      <trkpt lat="43.65692" lon="3.34824">
        <ele>190</ele>
        <time>2026-05-17T13:10:55.000Z</time>
      </trkpt>
      <trkpt lat="43.65691" lon="3.34826">
        <ele>190</ele>
        <time>2026-05-17T13:10:56.000Z</time>
      </trkpt>
      <trkpt lat="43.6569" lon="3.34827">
        <ele>190.1</ele>
        <time>2026-05-17T13:10:57.000Z</time>
      </trkpt>
      <trkpt lat="43.6569" lon="3.3483">
        <ele>190.4</ele>
        <time>2026-05-17T13:10:58.000Z</time>
      </trkpt>
      <trkpt lat="43.6569" lon="3.34831">
        <ele>190.4</ele>
        <time>2026-05-17T13:10:59.000Z</time>
      </trkpt>
      <trkpt lat="43.65689" lon="3.34832">
        <ele>190.5</ele>
        <time>2026-05-17T13:11:00.000Z</time>
      </trkpt>
      <trkpt lat="43.65689" lon="3.34833">
        <ele>190.4</ele>
        <time>2026-05-17T13:11:01.000Z</time>
      </trkpt>
      <trkpt lat="43.65688" lon="3.34834">
        <ele>190.6</ele>
        <time>2026-05-17T13:11:02.000Z</time>
      </trkpt>
      <trkpt lat="43.65687" lon="3.34836">
        <ele>190.9</ele>
        <time>2026-05-17T13:11:03.000Z</time>
      </trkpt>
      <trkpt lat="43.65686" lon="3.34837">
        <ele>191.2</ele>
        <time>2026-05-17T13:11:04.000Z</time>
      </trkpt>
      <trkpt lat="43.65686" lon="3.34838">
        <ele>191.3</ele>
        <time>2026-05-17T13:11:05.000Z</time>
      </trkpt>
      <trkpt lat="43.65686" lon="3.34839">
        <ele>190.7</ele>
        <time>2026-05-17T13:11:06.000Z</time>
      </trkpt>
      <trkpt lat="43.65685" lon="3.34841">
        <ele>190.8</ele>
        <time>2026-05-17T13:11:07.000Z</time>
      </trkpt>
      <trkpt lat="43.65684" lon="3.34843">
        <ele>190.8</ele>
        <time>2026-05-17T13:11:08.000Z</time>
      </trkpt>
      <trkpt lat="43.65684" lon="3.34845">
        <ele>191</ele>
        <time>2026-05-17T13:11:09.000Z</time>
      </trkpt>
      <trkpt lat="43.65683" lon="3.34846">
        <ele>191.2</ele>
        <time>2026-05-17T13:11:10.000Z</time>
      </trkpt>
      <trkpt lat="43.65682" lon="3.34847">
        <ele>191.5</ele>
        <time>2026-05-17T13:11:11.000Z</time>
      </trkpt>
      <trkpt lat="43.65682" lon="3.34848">
        <ele>191.6</ele>
        <time>2026-05-17T13:11:12.000Z</time>
      </trkpt>
      <trkpt lat="43.65681" lon="3.34849">
        <ele>191.7</ele>
        <time>2026-05-17T13:11:13.000Z</time>
      </trkpt>
      <trkpt lat="43.6568" lon="3.3485">
        <ele>191.7</ele>
        <time>2026-05-17T13:11:14.000Z</time>
      </trkpt>
      <trkpt lat="43.65679" lon="3.34852">
        <ele>191.8</ele>
        <time>2026-05-17T13:11:15.000Z</time>
      </trkpt>
      <trkpt lat="43.65678" lon="3.34853">
        <ele>191.7</ele>
        <time>2026-05-17T13:11:16.000Z</time>
      </trkpt>
      <trkpt lat="43.65678" lon="3.34854">
        <ele>191.8</ele>
        <time>2026-05-17T13:11:17.000Z</time>
      </trkpt>
      <trkpt lat="43.65676" lon="3.34856">
        <ele>191.7</ele>
        <time>2026-05-17T13:11:18.999Z</time>
      </trkpt>
      <trkpt lat="43.65676" lon="3.34857">
        <ele>191.5</ele>
        <time>2026-05-17T13:11:19.999Z</time>
      </trkpt>
      <trkpt lat="43.65675" lon="3.34858">
        <ele>191.2</ele>
        <time>2026-05-17T13:11:20.999Z</time>
      </trkpt>
      <trkpt lat="43.65674" lon="3.34859">
        <ele>191.3</ele>
        <time>2026-05-17T13:11:21.999Z</time>
      </trkpt>
      <trkpt lat="43.65674" lon="3.3486">
        <ele>191.2</ele>
        <time>2026-05-17T13:11:22.999Z</time>
      </trkpt>
      <trkpt lat="43.65673" lon="3.34861">
        <ele>191.3</ele>
        <time>2026-05-17T13:11:23.999Z</time>
      </trkpt>
      <trkpt lat="43.65672" lon="3.34862">
        <ele>191.5</ele>
        <time>2026-05-17T13:11:24.999Z</time>
      </trkpt>
      <trkpt lat="43.65672" lon="3.34863">
        <ele>191.5</ele>
        <time>2026-05-17T13:11:25.999Z</time>
      </trkpt>
      <trkpt lat="43.65671" lon="3.34864">
        <ele>191.4</ele>
        <time>2026-05-17T13:11:26.999Z</time>
      </trkpt>
      <trkpt lat="43.6567" lon="3.34866">
        <ele>191.5</ele>
        <time>2026-05-17T13:11:27.999Z</time>
      </trkpt>
      <trkpt lat="43.65669" lon="3.34867">
        <ele>191.6</ele>
        <time>2026-05-17T13:11:28.999Z</time>
      </trkpt>
      <trkpt lat="43.65668" lon="3.34867">
        <ele>191.8</ele>
        <time>2026-05-17T13:11:29.999Z</time>
      </trkpt>
      <trkpt lat="43.65667" lon="3.34867">
        <ele>191.8</ele>
        <time>2026-05-17T13:11:30.999Z</time>
      </trkpt>
      <trkpt lat="43.65666" lon="3.34867">
        <ele>191.8</ele>
        <time>2026-05-17T13:11:31.999Z</time>
      </trkpt>
      <trkpt lat="43.65665" lon="3.34867">
        <ele>191.7</ele>
        <time>2026-05-17T13:11:32.999Z</time>
      </trkpt>
      <trkpt lat="43.65665" lon="3.34867">
        <ele>191.6</ele>
        <time>2026-05-17T13:11:33.999Z</time>
      </trkpt>
      <trkpt lat="43.65665" lon="3.34867">
        <ele>191.4</ele>
        <time>2026-05-17T13:11:34.999Z</time>
      </trkpt>
      <trkpt lat="43.65664" lon="3.34868">
        <ele>190.9</ele>
        <time>2026-05-17T13:11:35.999Z</time>
      </trkpt>
      <trkpt lat="43.65664" lon="3.3487">
        <ele>190.9</ele>
        <time>2026-05-17T13:11:36.999Z</time>
      </trkpt>
      <trkpt lat="43.65664" lon="3.34872">
        <ele>190.8</ele>
        <time>2026-05-17T13:11:37.999Z</time>
      </trkpt>
      <trkpt lat="43.65665" lon="3.34874">
        <ele>190.4</ele>
        <time>2026-05-17T13:11:38.999Z</time>
      </trkpt>
      <trkpt lat="43.65667" lon="3.34876">
        <ele>189.7</ele>
        <time>2026-05-17T13:11:39.999Z</time>
      </trkpt>
      <trkpt lat="43.65667" lon="3.34878">
        <ele>189.5</ele>
        <time>2026-05-17T13:11:40.999Z</time>
      </trkpt>
      <trkpt lat="43.65668" lon="3.34879">
        <ele>189.2</ele>
        <time>2026-05-17T13:11:41.999Z</time>
      </trkpt>
      <trkpt lat="43.65668" lon="3.3488">
        <ele>188.9</ele>
        <time>2026-05-17T13:11:42.999Z</time>
      </trkpt>
      <trkpt lat="43.65667" lon="3.34882">
        <ele>188.8</ele>
        <time>2026-05-17T13:11:43.999Z</time>
      </trkpt>
      <trkpt lat="43.65667" lon="3.34883">
        <ele>189.1</ele>
        <time>2026-05-17T13:11:44.999Z</time>
      </trkpt>
      <trkpt lat="43.65667" lon="3.34883">
        <ele>189.3</ele>
        <time>2026-05-17T13:11:45.999Z</time>
      </trkpt>
      <trkpt lat="43.65667" lon="3.34884">
        <ele>189.2</ele>
        <time>2026-05-17T13:11:46.999Z</time>
      </trkpt>
      <trkpt lat="43.65666" lon="3.34885">
        <ele>189.4</ele>
        <time>2026-05-17T13:11:47.999Z</time>
      </trkpt>
      <trkpt lat="43.65666" lon="3.34888">
        <ele>189.7</ele>
        <time>2026-05-17T13:11:48.999Z</time>
      </trkpt>
      <trkpt lat="43.65665" lon="3.3489">
        <ele>189.9</ele>
        <time>2026-05-17T13:11:49.999Z</time>
      </trkpt>
      <trkpt lat="43.65665" lon="3.34891">
        <ele>190.4</ele>
        <time>2026-05-17T13:11:50.999Z</time>
      </trkpt>
      <trkpt lat="43.65665" lon="3.34893">
        <ele>190.9</ele>
        <time>2026-05-17T13:11:51.999Z</time>
      </trkpt>
      <trkpt lat="43.65665" lon="3.34894">
        <ele>191.2</ele>
        <time>2026-05-17T13:11:52.999Z</time>
      </trkpt>
      <trkpt lat="43.65665" lon="3.34896">
        <ele>191.5</ele>
        <time>2026-05-17T13:11:53.999Z</time>
      </trkpt>
      <trkpt lat="43.65664" lon="3.34897">
        <ele>191.7</ele>
        <time>2026-05-17T13:11:54.999Z</time>
      </trkpt>
      <trkpt lat="43.65664" lon="3.34898">
        <ele>191.6</ele>
        <time>2026-05-17T13:11:55.999Z</time>
      </trkpt>
      <trkpt lat="43.65664" lon="3.34899">
        <ele>191.8</ele>
        <time>2026-05-17T13:11:56.999Z</time>
      </trkpt>
      <trkpt lat="43.65664" lon="3.349">
        <ele>191.7</ele>
        <time>2026-05-17T13:11:57.999Z</time>
      </trkpt>
      <trkpt lat="43.65663" lon="3.34901">
        <ele>191.8</ele>
        <time>2026-05-17T13:11:58.999Z</time>
      </trkpt>
      <trkpt lat="43.65663" lon="3.34902">
        <ele>192</ele>
        <time>2026-05-17T13:11:59.999Z</time>
      </trkpt>
      <trkpt lat="43.65662" lon="3.34903">
        <ele>191.8</ele>
        <time>2026-05-17T13:12:00.999Z</time>
      </trkpt>
      <trkpt lat="43.65662" lon="3.34903">
        <ele>191.6</ele>
        <time>2026-05-17T13:12:01.999Z</time>
      </trkpt>
      <trkpt lat="43.65661" lon="3.34905">
        <ele>191.7</ele>
        <time>2026-05-17T13:12:02.999Z</time>
      </trkpt>
      <trkpt lat="43.65661" lon="3.34907">
        <ele>191.4</ele>
        <time>2026-05-17T13:12:03.999Z</time>
      </trkpt>
      <trkpt lat="43.6566" lon="3.34909">
        <ele>191.5</ele>
        <time>2026-05-17T13:12:04.999Z</time>
      </trkpt>
      <trkpt lat="43.65659" lon="3.34912">
        <ele>191.3</ele>
        <time>2026-05-17T13:12:05.999Z</time>
      </trkpt>
      <trkpt lat="43.65658" lon="3.34914">
        <ele>191.3</ele>
        <time>2026-05-17T13:12:06.999Z</time>
      </trkpt>
      <trkpt lat="43.65657" lon="3.34916">
        <ele>191.2</ele>
        <time>2026-05-17T13:12:07.999Z</time>
      </trkpt>
      <trkpt lat="43.65656" lon="3.34917">
        <ele>190.6</ele>
        <time>2026-05-17T13:12:08.999Z</time>
      </trkpt>
      <trkpt lat="43.65655" lon="3.34919">
        <ele>190.5</ele>
        <time>2026-05-17T13:12:09.999Z</time>
      </trkpt>
      <trkpt lat="43.65655" lon="3.3492">
        <ele>190.3</ele>
        <time>2026-05-17T13:12:10.999Z</time>
      </trkpt>
      <trkpt lat="43.65654" lon="3.34922">
        <ele>190.1</ele>
        <time>2026-05-17T13:12:11.999Z</time>
      </trkpt>
      <trkpt lat="43.65653" lon="3.34924">
        <ele>190</ele>
        <time>2026-05-17T13:12:12.999Z</time>
      </trkpt>
      <trkpt lat="43.65652" lon="3.34925">
        <ele>189.8</ele>
        <time>2026-05-17T13:12:13.999Z</time>
      </trkpt>
      <trkpt lat="43.65651" lon="3.34926">
        <ele>189.8</ele>
        <time>2026-05-17T13:12:14.999Z</time>
      </trkpt>
      <trkpt lat="43.6565" lon="3.34927">
        <ele>189.6</ele>
        <time>2026-05-17T13:12:15.999Z</time>
      </trkpt>
      <trkpt lat="43.65649" lon="3.34928">
        <ele>189.2</ele>
        <time>2026-05-17T13:12:16.999Z</time>
      </trkpt>
      <trkpt lat="43.65648" lon="3.34929">
        <ele>189</ele>
        <time>2026-05-17T13:12:17.999Z</time>
      </trkpt>
      <trkpt lat="43.65647" lon="3.3493">
        <ele>188.9</ele>
        <time>2026-05-17T13:12:18.999Z</time>
      </trkpt>
      <trkpt lat="43.65646" lon="3.3493">
        <ele>188.9</ele>
        <time>2026-05-17T13:12:19.999Z</time>
      </trkpt>
      <trkpt lat="43.65645" lon="3.34931">
        <ele>189.2</ele>
        <time>2026-05-17T13:12:20.999Z</time>
      </trkpt>
      <trkpt lat="43.65644" lon="3.34932">
        <ele>189.5</ele>
        <time>2026-05-17T13:12:21.999Z</time>
      </trkpt>
      <trkpt lat="43.65643" lon="3.34933">
        <ele>189.6</ele>
        <time>2026-05-17T13:12:22.999Z</time>
      </trkpt>
      <trkpt lat="43.65642" lon="3.34934">
        <ele>189.4</ele>
        <time>2026-05-17T13:12:23.999Z</time>
      </trkpt>
      <trkpt lat="43.6564" lon="3.34934">
        <ele>189</ele>
        <time>2026-05-17T13:12:24.999Z</time>
      </trkpt>
      <trkpt lat="43.6564" lon="3.34935">
        <ele>188.8</ele>
        <time>2026-05-17T13:12:25.999Z</time>
      </trkpt>
      <trkpt lat="43.65639" lon="3.34935">
        <ele>188.6</ele>
        <time>2026-05-17T13:12:26.999Z</time>
      </trkpt>
      <trkpt lat="43.65638" lon="3.34935">
        <ele>188.6</ele>
        <time>2026-05-17T13:12:27.999Z</time>
      </trkpt>
      <trkpt lat="43.65636" lon="3.34935">
        <ele>188.7</ele>
        <time>2026-05-17T13:12:28.999Z</time>
      </trkpt>
      <trkpt lat="43.65635" lon="3.34935">
        <ele>188.8</ele>
        <time>2026-05-17T13:12:29.999Z</time>
      </trkpt>
      <trkpt lat="43.65634" lon="3.34936">
        <ele>188.9</ele>
        <time>2026-05-17T13:12:30.999Z</time>
      </trkpt>
      <trkpt lat="43.65633" lon="3.34936">
        <ele>188.7</ele>
        <time>2026-05-17T13:12:31.999Z</time>
      </trkpt>
      <trkpt lat="43.65632" lon="3.34937">
        <ele>188.3</ele>
        <time>2026-05-17T13:12:32.999Z</time>
      </trkpt>
      <trkpt lat="43.65632" lon="3.34937">
        <ele>188.2</ele>
        <time>2026-05-17T13:12:33.999Z</time>
      </trkpt>
      <trkpt lat="43.6563" lon="3.34937">
        <ele>188.1</ele>
        <time>2026-05-17T13:12:34.999Z</time>
      </trkpt>
      <trkpt lat="43.65629" lon="3.34937">
        <ele>188</ele>
        <time>2026-05-17T13:12:35.999Z</time>
      </trkpt>
      <trkpt lat="43.65628" lon="3.34937">
        <ele>187.8</ele>
        <time>2026-05-17T13:12:36.999Z</time>
      </trkpt>
      <trkpt lat="43.65627" lon="3.34937">
        <ele>187.8</ele>
        <time>2026-05-17T13:12:37.999Z</time>
      </trkpt>
      <trkpt lat="43.65626" lon="3.34938">
        <ele>187.6</ele>
        <time>2026-05-17T13:12:38.999Z</time>
      </trkpt>
      <trkpt lat="43.65626" lon="3.34939">
        <ele>187.2</ele>
        <time>2026-05-17T13:12:39.999Z</time>
      </trkpt>
      <trkpt lat="43.65626" lon="3.34939">
        <ele>186.4</ele>
        <time>2026-05-17T13:12:40.999Z</time>
      </trkpt>
      <trkpt lat="43.65626" lon="3.3494">
        <ele>186.1</ele>
        <time>2026-05-17T13:12:41.999Z</time>
      </trkpt>
      <trkpt lat="43.65626" lon="3.3494">
        <ele>185.6</ele>
        <time>2026-05-17T13:12:42.999Z</time>
      </trkpt>
      <trkpt lat="43.65626" lon="3.3494">
        <ele>185.3</ele>
        <time>2026-05-17T13:12:43.999Z</time>
      </trkpt>
      <trkpt lat="43.65626" lon="3.3494">
        <ele>185.2</ele>
        <time>2026-05-17T13:12:44.999Z</time>
      </trkpt>
      <trkpt lat="43.65626" lon="3.3494">
        <ele>185.1</ele>
        <time>2026-05-17T13:12:45.999Z</time>
      </trkpt>
      <trkpt lat="43.65626" lon="3.3494">
        <ele>185</ele>
        <time>2026-05-17T13:12:46.999Z</time>
      </trkpt>
      <trkpt lat="43.65626" lon="3.3494">
        <ele>184.7</ele>
        <time>2026-05-17T13:12:47.999Z</time>
      </trkpt>
      <trkpt lat="43.65626" lon="3.3494">
        <ele>184.8</ele>
        <time>2026-05-17T13:12:48.999Z</time>
      </trkpt>
      <trkpt lat="43.65626" lon="3.3494">
        <ele>184.9</ele>
        <time>2026-05-17T13:12:49.999Z</time>
      </trkpt>
      <trkpt lat="43.65626" lon="3.3494">
        <ele>185.1</ele>
        <time>2026-05-17T13:12:50.999Z</time>
      </trkpt>
      <trkpt lat="43.65626" lon="3.3494">
        <ele>185.2</ele>
        <time>2026-05-17T13:12:51.999Z</time>
      </trkpt>
      <trkpt lat="43.65625" lon="3.3494">
        <ele>185.3</ele>
        <time>2026-05-17T13:12:52.999Z</time>
      </trkpt>
      <trkpt lat="43.65624" lon="3.34939">
        <ele>185.4</ele>
        <time>2026-05-17T13:12:53.999Z</time>
      </trkpt>
      <trkpt lat="43.65623" lon="3.34938">
        <ele>185.5</ele>
        <time>2026-05-17T13:12:54.999Z</time>
      </trkpt>
      <trkpt lat="43.65622" lon="3.34938">
        <ele>185.6</ele>
        <time>2026-05-17T13:12:55.999Z</time>
      </trkpt>
      <trkpt lat="43.65621" lon="3.34937">
        <ele>185.7</ele>
        <time>2026-05-17T13:12:56.999Z</time>
      </trkpt>
      <trkpt lat="43.6562" lon="3.34936">
        <ele>185.7</ele>
        <time>2026-05-17T13:12:57.999Z</time>
      </trkpt>
      <trkpt lat="43.65619" lon="3.34935">
        <ele>185.5</ele>
        <time>2026-05-17T13:12:58.999Z</time>
      </trkpt>
      <trkpt lat="43.65618" lon="3.34934">
        <ele>185.4</ele>
        <time>2026-05-17T13:12:59.999Z</time>
      </trkpt>
      <trkpt lat="43.65617" lon="3.34932">
        <ele>185.4</ele>
        <time>2026-05-17T13:13:00.999Z</time>
      </trkpt>
      <trkpt lat="43.65616" lon="3.34931">
        <ele>185.6</ele>
        <time>2026-05-17T13:13:01.999Z</time>
      </trkpt>
      <trkpt lat="43.65615" lon="3.34929">
        <ele>185.6</ele>
        <time>2026-05-17T13:13:02.999Z</time>
      </trkpt>
      <trkpt lat="43.65614" lon="3.34928">
        <ele>185.5</ele>
        <time>2026-05-17T13:13:03.999Z</time>
      </trkpt>
      <trkpt lat="43.65614" lon="3.34927">
        <ele>185.5</ele>
        <time>2026-05-17T13:13:04.999Z</time>
      </trkpt>
      <trkpt lat="43.65614" lon="3.34926">
        <ele>185.7</ele>
        <time>2026-05-17T13:13:05.999Z</time>
      </trkpt>
      <trkpt lat="43.65613" lon="3.34924">
        <ele>185.7</ele>
        <time>2026-05-17T13:13:06.999Z</time>
      </trkpt>
      <trkpt lat="43.65613" lon="3.34922">
        <ele>185.6</ele>
        <time>2026-05-17T13:13:07.999Z</time>
      </trkpt>
      <trkpt lat="43.65612" lon="3.34919">
        <ele>185.6</ele>
        <time>2026-05-17T13:13:08.999Z</time>
      </trkpt>
      <trkpt lat="43.65612" lon="3.34917">
        <ele>185.7</ele>
        <time>2026-05-17T13:13:09.999Z</time>
      </trkpt>
      <trkpt lat="43.65611" lon="3.34915">
        <ele>185.7</ele>
        <time>2026-05-17T13:13:10.999Z</time>
      </trkpt>
      <trkpt lat="43.6561" lon="3.34914">
        <ele>185.7</ele>
        <time>2026-05-17T13:13:11.999Z</time>
      </trkpt>
      <trkpt lat="43.6561" lon="3.34913">
        <ele>185.7</ele>
        <time>2026-05-17T13:13:12.999Z</time>
      </trkpt>
      <trkpt lat="43.65609" lon="3.34913">
        <ele>185.6</ele>
        <time>2026-05-17T13:13:13.999Z</time>
      </trkpt>
      <trkpt lat="43.65608" lon="3.34912">
        <ele>185.7</ele>
        <time>2026-05-17T13:13:14.999Z</time>
      </trkpt>
      <trkpt lat="43.65607" lon="3.34912">
        <ele>185.8</ele>
        <time>2026-05-17T13:13:15.999Z</time>
      </trkpt>
      <trkpt lat="43.65607" lon="3.34911">
        <ele>186</ele>
        <time>2026-05-17T13:13:16.999Z</time>
      </trkpt>
      <trkpt lat="43.65606" lon="3.34912">
        <ele>185.7</ele>
        <time>2026-05-17T13:13:17.999Z</time>
      </trkpt>
      <trkpt lat="43.65605" lon="3.34911">
        <ele>185.4</ele>
        <time>2026-05-17T13:13:18.999Z</time>
      </trkpt>
      <trkpt lat="43.65603" lon="3.34911">
        <ele>185.3</ele>
        <time>2026-05-17T13:13:19.999Z</time>
      </trkpt>
      <trkpt lat="43.65602" lon="3.3491">
        <ele>185.4</ele>
        <time>2026-05-17T13:13:20.999Z</time>
      </trkpt>
      <trkpt lat="43.65601" lon="3.34909">
        <ele>185.5</ele>
        <time>2026-05-17T13:13:21.999Z</time>
      </trkpt>
      <trkpt lat="43.65599" lon="3.34909">
        <ele>185.7</ele>
        <time>2026-05-17T13:13:22.999Z</time>
      </trkpt>
      <trkpt lat="43.65598" lon="3.34909">
        <ele>185.5</ele>
        <time>2026-05-17T13:13:23.999Z</time>
      </trkpt>
      <trkpt lat="43.65597" lon="3.34909">
        <ele>185.5</ele>
        <time>2026-05-17T13:13:24.999Z</time>
      </trkpt>
      <trkpt lat="43.65596" lon="3.34909">
        <ele>185.6</ele>
        <time>2026-05-17T13:13:25.999Z</time>
      </trkpt>
      <trkpt lat="43.65594" lon="3.34909">
        <ele>185.8</ele>
        <time>2026-05-17T13:13:26.999Z</time>
      </trkpt>
      <trkpt lat="43.65593" lon="3.34909">
        <ele>186</ele>
        <time>2026-05-17T13:13:27.999Z</time>
      </trkpt>
      <trkpt lat="43.65592" lon="3.34908">
        <ele>186</ele>
        <time>2026-05-17T13:13:28.999Z</time>
      </trkpt>
      <trkpt lat="43.65591" lon="3.34908">
        <ele>186</ele>
        <time>2026-05-17T13:13:29.999Z</time>
      </trkpt>
      <trkpt lat="43.65589" lon="3.34907">
        <ele>186.1</ele>
        <time>2026-05-17T13:13:30.999Z</time>
      </trkpt>
      <trkpt lat="43.65588" lon="3.34907">
        <ele>186</ele>
        <time>2026-05-17T13:13:31.999Z</time>
      </trkpt>
      <trkpt lat="43.65587" lon="3.34906">
        <ele>186.1</ele>
        <time>2026-05-17T13:13:32.999Z</time>
      </trkpt>
      <trkpt lat="43.65586" lon="3.34906">
        <ele>186</ele>
        <time>2026-05-17T13:13:33.999Z</time>
      </trkpt>
      <trkpt lat="43.65585" lon="3.34905">
        <ele>185.7</ele>
        <time>2026-05-17T13:13:34.999Z</time>
      </trkpt>
      <trkpt lat="43.65584" lon="3.34905">
        <ele>185.8</ele>
        <time>2026-05-17T13:13:35.999Z</time>
      </trkpt>
      <trkpt lat="43.65582" lon="3.34904">
        <ele>185.8</ele>
        <time>2026-05-17T13:13:36.999Z</time>
      </trkpt>
      <trkpt lat="43.65582" lon="3.34905">
        <ele>185.8</ele>
        <time>2026-05-17T13:13:37.999Z</time>
      </trkpt>
      <trkpt lat="43.65581" lon="3.34905">
        <ele>185.9</ele>
        <time>2026-05-17T13:13:38.999Z</time>
      </trkpt>
      <trkpt lat="43.6558" lon="3.34905">
        <ele>186</ele>
        <time>2026-05-17T13:13:39.999Z</time>
      </trkpt>
      <trkpt lat="43.65579" lon="3.34905">
        <ele>186</ele>
        <time>2026-05-17T13:13:40.999Z</time>
      </trkpt>
      <trkpt lat="43.65578" lon="3.34905">
        <ele>186.1</ele>
        <time>2026-05-17T13:13:41.999Z</time>
      </trkpt>
      <trkpt lat="43.65578" lon="3.34905">
        <ele>186.1</ele>
        <time>2026-05-17T13:13:42.999Z</time>
      </trkpt>
      <trkpt lat="43.65577" lon="3.34905">
        <ele>186.1</ele>
        <time>2026-05-17T13:13:43.999Z</time>
      </trkpt>
      <trkpt lat="43.65575" lon="3.34905">
        <ele>188.9</ele>
        <time>2026-05-17T13:13:44.999Z</time>
      </trkpt>
      <trkpt lat="43.65574" lon="3.34906">
        <ele>190.3</ele>
        <time>2026-05-17T13:13:45.999Z</time>
      </trkpt>
      <trkpt lat="43.65573" lon="3.34906">
        <ele>190.8</ele>
        <time>2026-05-17T13:13:46.999Z</time>
      </trkpt>
      <trkpt lat="43.65571" lon="3.34906">
        <ele>191.6</ele>
        <time>2026-05-17T13:13:47.999Z</time>
      </trkpt>
      <trkpt lat="43.6557" lon="3.34907">
        <ele>192.3</ele>
        <time>2026-05-17T13:13:48.999Z</time>
      </trkpt>
      <trkpt lat="43.6557" lon="3.34908">
        <ele>192.1</ele>
        <time>2026-05-17T13:13:49.999Z</time>
      </trkpt>
      <trkpt lat="43.65568" lon="3.34909">
        <ele>192.6</ele>
        <time>2026-05-17T13:13:50.999Z</time>
      </trkpt>
      <trkpt lat="43.65567" lon="3.3491">
        <ele>193.1</ele>
        <time>2026-05-17T13:13:51.999Z</time>
      </trkpt>
      <trkpt lat="43.65566" lon="3.3491">
        <ele>193.4</ele>
        <time>2026-05-17T13:13:52.999Z</time>
      </trkpt>
      <trkpt lat="43.65565" lon="3.3491">
        <ele>193.8</ele>
        <time>2026-05-17T13:13:53.999Z</time>
      </trkpt>
      <trkpt lat="43.65564" lon="3.3491">
        <ele>194.3</ele>
        <time>2026-05-17T13:13:54.999Z</time>
      </trkpt>
      <trkpt lat="43.65563" lon="3.3491">
        <ele>194.4</ele>
        <time>2026-05-17T13:13:55.999Z</time>
      </trkpt>
      <trkpt lat="43.65562" lon="3.34911">
        <ele>194.3</ele>
        <time>2026-05-17T13:13:56.999Z</time>
      </trkpt>
      <trkpt lat="43.65561" lon="3.34911">
        <ele>194.4</ele>
        <time>2026-05-17T13:13:57.999Z</time>
      </trkpt>
      <trkpt lat="43.6556" lon="3.34912">
        <ele>195</ele>
        <time>2026-05-17T13:13:58.999Z</time>
      </trkpt>
      <trkpt lat="43.65559" lon="3.34912">
        <ele>195</ele>
        <time>2026-05-17T13:13:59.999Z</time>
      </trkpt>
      <trkpt lat="43.65558" lon="3.34913">
        <ele>195.3</ele>
        <time>2026-05-17T13:14:00.999Z</time>
      </trkpt>
      <trkpt lat="43.65557" lon="3.34913">
        <ele>195.5</ele>
        <time>2026-05-17T13:14:01.999Z</time>
      </trkpt>
      <trkpt lat="43.65557" lon="3.34913">
        <ele>195.7</ele>
        <time>2026-05-17T13:14:02.999Z</time>
      </trkpt>
      <trkpt lat="43.65556" lon="3.34913">
        <ele>196.1</ele>
        <time>2026-05-17T13:14:03.999Z</time>
      </trkpt>
      <trkpt lat="43.65555" lon="3.34913">
        <ele>196.1</ele>
        <time>2026-05-17T13:14:04.999Z</time>
      </trkpt>
      <trkpt lat="43.65554" lon="3.34912">
        <ele>196</ele>
        <time>2026-05-17T13:14:05.999Z</time>
      </trkpt>
      <trkpt lat="43.65554" lon="3.34912">
        <ele>196</ele>
        <time>2026-05-17T13:14:06.999Z</time>
      </trkpt>
      <trkpt lat="43.65553" lon="3.34911">
        <ele>196.1</ele>
        <time>2026-05-17T13:14:07.999Z</time>
      </trkpt>
      <trkpt lat="43.65551" lon="3.3491">
        <ele>196</ele>
        <time>2026-05-17T13:14:08.999Z</time>
      </trkpt>
      <trkpt lat="43.6555" lon="3.3491">
        <ele>196.1</ele>
        <time>2026-05-17T13:14:09.999Z</time>
      </trkpt>
      <trkpt lat="43.6555" lon="3.34909">
        <ele>196.3</ele>
        <time>2026-05-17T13:14:10.999Z</time>
      </trkpt>
      <trkpt lat="43.65549" lon="3.34909">
        <ele>196.5</ele>
        <time>2026-05-17T13:14:11.999Z</time>
      </trkpt>
      <trkpt lat="43.65548" lon="3.34908">
        <ele>196.5</ele>
        <time>2026-05-17T13:14:12.999Z</time>
      </trkpt>
      <trkpt lat="43.65547" lon="3.34908">
        <ele>196.6</ele>
        <time>2026-05-17T13:14:13.999Z</time>
      </trkpt>
      <trkpt lat="43.65547" lon="3.34906">
        <ele>196.6</ele>
        <time>2026-05-17T13:14:14.999Z</time>
      </trkpt>
      <trkpt lat="43.65547" lon="3.34906">
        <ele>196.5</ele>
        <time>2026-05-17T13:14:15.999Z</time>
      </trkpt>
      <trkpt lat="43.65546" lon="3.34906">
        <ele>196.4</ele>
        <time>2026-05-17T13:14:16.999Z</time>
      </trkpt>
      <trkpt lat="43.65546" lon="3.34906">
        <ele>196.3</ele>
        <time>2026-05-17T13:14:17.999Z</time>
      </trkpt>
      <trkpt lat="43.65545" lon="3.34906">
        <ele>196.4</ele>
        <time>2026-05-17T13:14:18.999Z</time>
      </trkpt>
      <trkpt lat="43.65544" lon="3.34905">
        <ele>196.4</ele>
        <time>2026-05-17T13:14:19.999Z</time>
      </trkpt>
      <trkpt lat="43.65543" lon="3.34905">
        <ele>196.2</ele>
        <time>2026-05-17T13:14:20.999Z</time>
      </trkpt>
      <trkpt lat="43.65542" lon="3.34904">
        <ele>196.1</ele>
        <time>2026-05-17T13:14:21.999Z</time>
      </trkpt>
      <trkpt lat="43.65541" lon="3.34904">
        <ele>195.9</ele>
        <time>2026-05-17T13:14:22.999Z</time>
      </trkpt>
      <trkpt lat="43.6554" lon="3.34903">
        <ele>195.4</ele>
        <time>2026-05-17T13:14:23.999Z</time>
      </trkpt>
      <trkpt lat="43.65539" lon="3.34903">
        <ele>195</ele>
        <time>2026-05-17T13:14:24.999Z</time>
      </trkpt>
      <trkpt lat="43.65538" lon="3.34903">
        <ele>194.9</ele>
        <time>2026-05-17T13:14:25.999Z</time>
      </trkpt>
      <trkpt lat="43.65537" lon="3.34902">
        <ele>194.8</ele>
        <time>2026-05-17T13:14:26.999Z</time>
      </trkpt>
      <trkpt lat="43.65537" lon="3.349">
        <ele>194.6</ele>
        <time>2026-05-17T13:14:27.999Z</time>
      </trkpt>
      <trkpt lat="43.65537" lon="3.349">
        <ele>194.6</ele>
        <time>2026-05-17T13:14:28.999Z</time>
      </trkpt>
      <trkpt lat="43.65536" lon="3.34899">
        <ele>194.5</ele>
        <time>2026-05-17T13:14:29.999Z</time>
      </trkpt>
      <trkpt lat="43.65535" lon="3.34899">
        <ele>194.6</ele>
        <time>2026-05-17T13:14:30.999Z</time>
      </trkpt>
      <trkpt lat="43.65534" lon="3.34899">
        <ele>194.3</ele>
        <time>2026-05-17T13:14:31.999Z</time>
      </trkpt>
      <trkpt lat="43.65533" lon="3.34899">
        <ele>194</ele>
        <time>2026-05-17T13:14:32.999Z</time>
      </trkpt>
      <trkpt lat="43.65532" lon="3.34899">
        <ele>193.7</ele>
        <time>2026-05-17T13:14:33.999Z</time>
      </trkpt>
      <trkpt lat="43.65532" lon="3.34899">
        <ele>193.7</ele>
        <time>2026-05-17T13:14:34.999Z</time>
      </trkpt>
      <trkpt lat="43.65531" lon="3.34899">
        <ele>193.8</ele>
        <time>2026-05-17T13:14:35.999Z</time>
      </trkpt>
      <trkpt lat="43.6553" lon="3.34899">
        <ele>193.8</ele>
        <time>2026-05-17T13:14:36.999Z</time>
      </trkpt>
      <trkpt lat="43.65529" lon="3.34898">
        <ele>193.7</ele>
        <time>2026-05-17T13:14:37.999Z</time>
      </trkpt>
      <trkpt lat="43.65528" lon="3.34897">
        <ele>193.5</ele>
        <time>2026-05-17T13:14:38.999Z</time>
      </trkpt>
      <trkpt lat="43.65528" lon="3.34896">
        <ele>193.6</ele>
        <time>2026-05-17T13:14:39.999Z</time>
      </trkpt>
      <trkpt lat="43.65528" lon="3.34896">
        <ele>193.6</ele>
        <time>2026-05-17T13:14:40.999Z</time>
      </trkpt>
      <trkpt lat="43.65527" lon="3.34896">
        <ele>193.3</ele>
        <time>2026-05-17T13:14:41.999Z</time>
      </trkpt>
      <trkpt lat="43.65526" lon="3.34896">
        <ele>193.1</ele>
        <time>2026-05-17T13:14:42.999Z</time>
      </trkpt>
      <trkpt lat="43.65526" lon="3.34897">
        <ele>192.7</ele>
        <time>2026-05-17T13:14:43.999Z</time>
      </trkpt>
      <trkpt lat="43.65524" lon="3.34898">
        <ele>192.4</ele>
        <time>2026-05-17T13:14:44.999Z</time>
      </trkpt>
      <trkpt lat="43.65523" lon="3.34899">
        <ele>192.3</ele>
        <time>2026-05-17T13:14:45.999Z</time>
      </trkpt>
      <trkpt lat="43.65521" lon="3.34899">
        <ele>192</ele>
        <time>2026-05-17T13:14:46.999Z</time>
      </trkpt>
      <trkpt lat="43.6552" lon="3.34899">
        <ele>191.8</ele>
        <time>2026-05-17T13:14:47.999Z</time>
      </trkpt>
      <trkpt lat="43.6552" lon="3.34899">
        <ele>191.7</ele>
        <time>2026-05-17T13:14:48.999Z</time>
      </trkpt>
      <trkpt lat="43.65519" lon="3.34899">
        <ele>191.7</ele>
        <time>2026-05-17T13:14:49.999Z</time>
      </trkpt>
      <trkpt lat="43.65519" lon="3.34898">
        <ele>191.1</ele>
        <time>2026-05-17T13:14:50.999Z</time>
      </trkpt>
      <trkpt lat="43.65517" lon="3.34897">
        <ele>190.7</ele>
        <time>2026-05-17T13:14:51.999Z</time>
      </trkpt>
      <trkpt lat="43.65516" lon="3.34897">
        <ele>190.4</ele>
        <time>2026-05-17T13:14:52.999Z</time>
      </trkpt>
      <trkpt lat="43.65515" lon="3.34897">
        <ele>190.4</ele>
        <time>2026-05-17T13:14:53.999Z</time>
      </trkpt>
      <trkpt lat="43.65514" lon="3.34896">
        <ele>190.2</ele>
        <time>2026-05-17T13:14:54.999Z</time>
      </trkpt>
      <trkpt lat="43.65513" lon="3.34896">
        <ele>190.4</ele>
        <time>2026-05-17T13:14:55.999Z</time>
      </trkpt>
      <trkpt lat="43.65513" lon="3.34896">
        <ele>191.1</ele>
        <time>2026-05-17T13:14:56.999Z</time>
      </trkpt>
      <trkpt lat="43.65512" lon="3.34896">
        <ele>191.3</ele>
        <time>2026-05-17T13:14:57.999Z</time>
      </trkpt>
      <trkpt lat="43.65512" lon="3.34896">
        <ele>191.2</ele>
        <time>2026-05-17T13:14:58.999Z</time>
      </trkpt>
      <trkpt lat="43.65512" lon="3.34896">
        <ele>191</ele>
        <time>2026-05-17T13:14:59.999Z</time>
      </trkpt>
      <trkpt lat="43.65512" lon="3.34897">
        <ele>190.9</ele>
        <time>2026-05-17T13:15:00.999Z</time>
      </trkpt>
      <trkpt lat="43.65511" lon="3.34897">
        <ele>190.8</ele>
        <time>2026-05-17T13:15:01.999Z</time>
      </trkpt>
      <trkpt lat="43.65511" lon="3.34899">
        <ele>190.9</ele>
        <time>2026-05-17T13:15:02.999Z</time>
      </trkpt>
      <trkpt lat="43.65511" lon="3.34901">
        <ele>191.1</ele>
        <time>2026-05-17T13:15:03.999Z</time>
      </trkpt>
      <trkpt lat="43.6551" lon="3.34903">
        <ele>191.3</ele>
        <time>2026-05-17T13:15:04.999Z</time>
      </trkpt>
      <trkpt lat="43.65509" lon="3.34904">
        <ele>191.4</ele>
        <time>2026-05-17T13:15:05.999Z</time>
      </trkpt>
      <trkpt lat="43.65507" lon="3.34905">
        <ele>191</ele>
        <time>2026-05-17T13:15:06.999Z</time>
      </trkpt>
      <trkpt lat="43.65506" lon="3.34905">
        <ele>190.7</ele>
        <time>2026-05-17T13:15:07.999Z</time>
      </trkpt>
      <trkpt lat="43.65505" lon="3.34906">
        <ele>190.5</ele>
        <time>2026-05-17T13:15:08.999Z</time>
      </trkpt>
      <trkpt lat="43.65503" lon="3.34906">
        <ele>190.5</ele>
        <time>2026-05-17T13:15:09.999Z</time>
      </trkpt>
      <trkpt lat="43.65503" lon="3.34906">
        <ele>190.2</ele>
        <time>2026-05-17T13:15:10.999Z</time>
      </trkpt>
      <trkpt lat="43.65502" lon="3.34905">
        <ele>189.9</ele>
        <time>2026-05-17T13:15:11.999Z</time>
      </trkpt>
      <trkpt lat="43.65501" lon="3.34906">
        <ele>189.6</ele>
        <time>2026-05-17T13:15:12.999Z</time>
      </trkpt>
      <trkpt lat="43.65501" lon="3.34905">
        <ele>189.8</ele>
        <time>2026-05-17T13:15:13.999Z</time>
      </trkpt>
      <trkpt lat="43.65501" lon="3.34905">
        <ele>189.6</ele>
        <time>2026-05-17T13:15:14.999Z</time>
      </trkpt>
      <trkpt lat="43.65501" lon="3.34905">
        <ele>189.8</ele>
        <time>2026-05-17T13:15:15.999Z</time>
      </trkpt>
      <trkpt lat="43.65499" lon="3.34905">
        <ele>190.1</ele>
        <time>2026-05-17T13:15:16.999Z</time>
      </trkpt>
      <trkpt lat="43.65499" lon="3.34906">
        <ele>190.3</ele>
        <time>2026-05-17T13:15:17.999Z</time>
      </trkpt>
      <trkpt lat="43.65499" lon="3.34907">
        <ele>190.4</ele>
        <time>2026-05-17T13:15:18.999Z</time>
      </trkpt>
      <trkpt lat="43.65499" lon="3.34907">
        <ele>190.5</ele>
        <time>2026-05-17T13:15:19.999Z</time>
      </trkpt>
      <trkpt lat="43.65499" lon="3.34907">
        <ele>190.7</ele>
        <time>2026-05-17T13:15:20.999Z</time>
      </trkpt>
      <trkpt lat="43.65499" lon="3.34907">
        <ele>190.8</ele>
        <time>2026-05-17T13:15:21.999Z</time>
      </trkpt>
      <trkpt lat="43.65497" lon="3.34908">
        <ele>190.7</ele>
        <time>2026-05-17T13:15:22.999Z</time>
      </trkpt>
      <trkpt lat="43.65496" lon="3.3491">
        <ele>190.6</ele>
        <time>2026-05-17T13:15:23.999Z</time>
      </trkpt>
      <trkpt lat="43.65495" lon="3.3491">
        <ele>190.5</ele>
        <time>2026-05-17T13:15:24.999Z</time>
      </trkpt>
      <trkpt lat="43.65494" lon="3.34911">
        <ele>190.6</ele>
        <time>2026-05-17T13:15:25.999Z</time>
      </trkpt>
      <trkpt lat="43.65494" lon="3.34911">
        <ele>190.7</ele>
        <time>2026-05-17T13:15:26.999Z</time>
      </trkpt>
      <trkpt lat="43.65493" lon="3.34912">
        <ele>190.6</ele>
        <time>2026-05-17T13:15:27.999Z</time>
      </trkpt>
      <trkpt lat="43.65493" lon="3.34912">
        <ele>190.7</ele>
        <time>2026-05-17T13:15:28.999Z</time>
      </trkpt>
      <trkpt lat="43.65492" lon="3.34912">
        <ele>190.9</ele>
        <time>2026-05-17T13:15:29.999Z</time>
      </trkpt>
      <trkpt lat="43.65491" lon="3.34912">
        <ele>191.2</ele>
        <time>2026-05-17T13:15:30.999Z</time>
      </trkpt>
      <trkpt lat="43.6549" lon="3.34912">
        <ele>191.4</ele>
        <time>2026-05-17T13:15:31.999Z</time>
      </trkpt>
      <trkpt lat="43.65489" lon="3.34912">
        <ele>191.4</ele>
        <time>2026-05-17T13:15:32.999Z</time>
      </trkpt>
      <trkpt lat="43.65488" lon="3.34913">
        <ele>191.6</ele>
        <time>2026-05-17T13:15:33.999Z</time>
      </trkpt>
      <trkpt lat="43.65487" lon="3.34913">
        <ele>191.9</ele>
        <time>2026-05-17T13:15:34.999Z</time>
      </trkpt>
      <trkpt lat="43.65487" lon="3.34914">
        <ele>192</ele>
        <time>2026-05-17T13:15:35.999Z</time>
      </trkpt>
      <trkpt lat="43.65486" lon="3.34914">
        <ele>192</ele>
        <time>2026-05-17T13:15:36.999Z</time>
      </trkpt>
      <trkpt lat="43.65486" lon="3.34915">
        <ele>192.2</ele>
        <time>2026-05-17T13:15:37.999Z</time>
      </trkpt>
      <trkpt lat="43.65485" lon="3.34916">
        <ele>192.5</ele>
        <time>2026-05-17T13:15:38.999Z</time>
      </trkpt>
      <trkpt lat="43.65483" lon="3.34917">
        <ele>192.7</ele>
        <time>2026-05-17T13:15:39.999Z</time>
      </trkpt>
      <trkpt lat="43.65483" lon="3.34917">
        <ele>192.9</ele>
        <time>2026-05-17T13:15:40.999Z</time>
      </trkpt>
      <trkpt lat="43.65482" lon="3.34918">
        <ele>193</ele>
        <time>2026-05-17T13:15:41.999Z</time>
      </trkpt>
      <trkpt lat="43.65481" lon="3.34919">
        <ele>193.2</ele>
        <time>2026-05-17T13:15:42.999Z</time>
      </trkpt>
      <trkpt lat="43.65481" lon="3.34919">
        <ele>193.5</ele>
        <time>2026-05-17T13:15:43.999Z</time>
      </trkpt>
      <trkpt lat="43.65481" lon="3.3492">
        <ele>193.7</ele>
        <time>2026-05-17T13:15:44.999Z</time>
      </trkpt>
      <trkpt lat="43.65481" lon="3.34921">
        <ele>193.8</ele>
        <time>2026-05-17T13:15:45.999Z</time>
      </trkpt>
      <trkpt lat="43.65481" lon="3.34922">
        <ele>193.6</ele>
        <time>2026-05-17T13:15:46.999Z</time>
      </trkpt>
      <trkpt lat="43.6548" lon="3.34922">
        <ele>193.7</ele>
        <time>2026-05-17T13:15:47.999Z</time>
      </trkpt>
      <trkpt lat="43.6548" lon="3.34923">
        <ele>193.7</ele>
        <time>2026-05-17T13:15:48.999Z</time>
      </trkpt>
      <trkpt lat="43.65479" lon="3.34924">
        <ele>193.9</ele>
        <time>2026-05-17T13:15:49.999Z</time>
      </trkpt>
      <trkpt lat="43.65479" lon="3.34925">
        <ele>194.3</ele>
        <time>2026-05-17T13:15:50.999Z</time>
      </trkpt>
      <trkpt lat="43.65479" lon="3.34926">
        <ele>194.3</ele>
        <time>2026-05-17T13:15:51.999Z</time>
      </trkpt>
      <trkpt lat="43.65478" lon="3.34926">
        <ele>194.6</ele>
        <time>2026-05-17T13:15:52.999Z</time>
      </trkpt>
      <trkpt lat="43.65478" lon="3.34927">
        <ele>194.5</ele>
        <time>2026-05-17T13:15:53.999Z</time>
      </trkpt>
      <trkpt lat="43.65477" lon="3.34928">
        <ele>194.6</ele>
        <time>2026-05-17T13:15:54.999Z</time>
      </trkpt>
      <trkpt lat="43.65476" lon="3.3493">
        <ele>194.7</ele>
        <time>2026-05-17T13:15:55.999Z</time>
      </trkpt>
      <trkpt lat="43.65476" lon="3.34932">
        <ele>194.9</ele>
        <time>2026-05-17T13:15:56.999Z</time>
      </trkpt>
      <trkpt lat="43.65475" lon="3.34933">
        <ele>194.8</ele>
        <time>2026-05-17T13:15:57.999Z</time>
      </trkpt>
      <trkpt lat="43.65475" lon="3.34934">
        <ele>194.7</ele>
        <time>2026-05-17T13:15:58.999Z</time>
      </trkpt>
      <trkpt lat="43.65474" lon="3.34935">
        <ele>194.6</ele>
        <time>2026-05-17T13:15:59.999Z</time>
      </trkpt>
      <trkpt lat="43.65474" lon="3.34936">
        <ele>194.3</ele>
        <time>2026-05-17T13:16:00.999Z</time>
      </trkpt>
      <trkpt lat="43.65473" lon="3.34937">
        <ele>194.1</ele>
        <time>2026-05-17T13:16:01.999Z</time>
      </trkpt>
      <trkpt lat="43.65473" lon="3.34938">
        <ele>194.1</ele>
        <time>2026-05-17T13:16:02.999Z</time>
      </trkpt>
      <trkpt lat="43.65472" lon="3.34938">
        <ele>194</ele>
        <time>2026-05-17T13:16:03.999Z</time>
      </trkpt>
      <trkpt lat="43.65471" lon="3.34939">
        <ele>194.4</ele>
        <time>2026-05-17T13:16:04.999Z</time>
      </trkpt>
      <trkpt lat="43.6547" lon="3.34939">
        <ele>194.4</ele>
        <time>2026-05-17T13:16:05.999Z</time>
      </trkpt>
      <trkpt lat="43.65469" lon="3.3494">
        <ele>194.2</ele>
        <time>2026-05-17T13:16:06.999Z</time>
      </trkpt>
      <trkpt lat="43.65468" lon="3.34941">
        <ele>193.9</ele>
        <time>2026-05-17T13:16:07.999Z</time>
      </trkpt>
      <trkpt lat="43.65468" lon="3.34942">
        <ele>193.3</ele>
        <time>2026-05-17T13:16:08.999Z</time>
      </trkpt>
      <trkpt lat="43.65467" lon="3.34944">
        <ele>193</ele>
        <time>2026-05-17T13:16:09.999Z</time>
      </trkpt>
      <trkpt lat="43.65467" lon="3.34945">
        <ele>192.7</ele>
        <time>2026-05-17T13:16:10.999Z</time>
      </trkpt>
      <trkpt lat="43.65466" lon="3.34947">
        <ele>192.7</ele>
        <time>2026-05-17T13:16:11.999Z</time>
      </trkpt>
      <trkpt lat="43.65465" lon="3.34948">
        <ele>192.9</ele>
        <time>2026-05-17T13:16:12.999Z</time>
      </trkpt>
      <trkpt lat="43.65464" lon="3.3495">
        <ele>192.9</ele>
        <time>2026-05-17T13:16:13.999Z</time>
      </trkpt>
      <trkpt lat="43.65463" lon="3.34952">
        <ele>193.1</ele>
        <time>2026-05-17T13:16:14.999Z</time>
      </trkpt>
      <trkpt lat="43.65463" lon="3.34953">
        <ele>193.1</ele>
        <time>2026-05-17T13:16:15.999Z</time>
      </trkpt>
      <trkpt lat="43.65462" lon="3.34954">
        <ele>193</ele>
        <time>2026-05-17T13:16:16.999Z</time>
      </trkpt>
      <trkpt lat="43.65462" lon="3.34955">
        <ele>192.7</ele>
        <time>2026-05-17T13:16:17.999Z</time>
      </trkpt>
      <trkpt lat="43.65462" lon="3.34955">
        <ele>192.8</ele>
        <time>2026-05-17T13:16:18.999Z</time>
      </trkpt>
      <trkpt lat="43.65462" lon="3.34956">
        <ele>192.9</ele>
        <time>2026-05-17T13:16:19.999Z</time>
      </trkpt>
      <trkpt lat="43.65461" lon="3.34957">
        <ele>192.7</ele>
        <time>2026-05-17T13:16:20.999Z</time>
      </trkpt>
      <trkpt lat="43.6546" lon="3.34958">
        <ele>192.6</ele>
        <time>2026-05-17T13:16:21.999Z</time>
      </trkpt>
      <trkpt lat="43.65459" lon="3.34959">
        <ele>192.5</ele>
        <time>2026-05-17T13:16:22.999Z</time>
      </trkpt>
      <trkpt lat="43.65458" lon="3.34959">
        <ele>192.4</ele>
        <time>2026-05-17T13:16:23.999Z</time>
      </trkpt>
      <trkpt lat="43.65457" lon="3.34959">
        <ele>192.1</ele>
        <time>2026-05-17T13:16:24.999Z</time>
      </trkpt>
      <trkpt lat="43.65456" lon="3.3496">
        <ele>192.2</ele>
        <time>2026-05-17T13:16:25.999Z</time>
      </trkpt>
      <trkpt lat="43.65454" lon="3.3496">
        <ele>192.4</ele>
        <time>2026-05-17T13:16:26.999Z</time>
      </trkpt>
      <trkpt lat="43.65453" lon="3.3496">
        <ele>192.3</ele>
        <time>2026-05-17T13:16:27.999Z</time>
      </trkpt>
      <trkpt lat="43.65451" lon="3.34959">
        <ele>192.1</ele>
        <time>2026-05-17T13:16:28.999Z</time>
      </trkpt>
      <trkpt lat="43.6545" lon="3.34959">
        <ele>192.3</ele>
        <time>2026-05-17T13:16:29.999Z</time>
      </trkpt>
      <trkpt lat="43.6545" lon="3.34959">
        <ele>192.5</ele>
        <time>2026-05-17T13:16:30.999Z</time>
      </trkpt>
      <trkpt lat="43.65449" lon="3.34958">
        <ele>193</ele>
        <time>2026-05-17T13:16:31.999Z</time>
      </trkpt>
      <trkpt lat="43.65448" lon="3.34957">
        <ele>193.6</ele>
        <time>2026-05-17T13:16:32.999Z</time>
      </trkpt>
      <trkpt lat="43.65447" lon="3.34956">
        <ele>194</ele>
        <time>2026-05-17T13:16:33.999Z</time>
      </trkpt>
      <trkpt lat="43.65447" lon="3.34956">
        <ele>194.4</ele>
        <time>2026-05-17T13:16:34.999Z</time>
      </trkpt>
      <trkpt lat="43.65445" lon="3.34954">
        <ele>194.5</ele>
        <time>2026-05-17T13:16:35.999Z</time>
      </trkpt>
      <trkpt lat="43.65445" lon="3.34952">
        <ele>194.5</ele>
        <time>2026-05-17T13:16:36.999Z</time>
      </trkpt>
      <trkpt lat="43.65445" lon="3.34951">
        <ele>194.8</ele>
        <time>2026-05-17T13:16:37.999Z</time>
      </trkpt>
      <trkpt lat="43.65444" lon="3.3495">
        <ele>195.2</ele>
        <time>2026-05-17T13:16:38.999Z</time>
      </trkpt>
      <trkpt lat="43.65444" lon="3.34949">
        <ele>194.6</ele>
        <time>2026-05-17T13:16:39.999Z</time>
      </trkpt>
      <trkpt lat="43.65444" lon="3.34949">
        <ele>194.4</ele>
        <time>2026-05-17T13:16:40.999Z</time>
      </trkpt>
      <trkpt lat="43.65445" lon="3.34948">
        <ele>194.2</ele>
        <time>2026-05-17T13:16:41.999Z</time>
      </trkpt>
      <trkpt lat="43.65446" lon="3.34948">
        <ele>193.9</ele>
        <time>2026-05-17T13:16:42.999Z</time>
      </trkpt>
      <trkpt lat="43.65446" lon="3.34946">
        <ele>194.2</ele>
        <time>2026-05-17T13:16:43.999Z</time>
      </trkpt>
      <trkpt lat="43.65445" lon="3.34945">
        <ele>194</ele>
        <time>2026-05-17T13:16:44.999Z</time>
      </trkpt>
      <trkpt lat="43.65444" lon="3.34944">
        <ele>193.7</ele>
        <time>2026-05-17T13:16:45.999Z</time>
      </trkpt>
      <trkpt lat="43.65444" lon="3.34944">
        <ele>193.8</ele>
        <time>2026-05-17T13:16:46.999Z</time>
      </trkpt>
      <trkpt lat="43.65444" lon="3.34943">
        <ele>193.6</ele>
        <time>2026-05-17T13:16:47.999Z</time>
      </trkpt>
      <trkpt lat="43.65444" lon="3.34943">
        <ele>194.1</ele>
        <time>2026-05-17T13:16:48.999Z</time>
      </trkpt>
      <trkpt lat="43.65444" lon="3.34943">
        <ele>194.4</ele>
        <time>2026-05-17T13:16:49.999Z</time>
      </trkpt>
      <trkpt lat="43.65444" lon="3.34943">
        <ele>194.5</ele>
        <time>2026-05-17T13:16:50.999Z</time>
      </trkpt>
      <trkpt lat="43.65444" lon="3.34944">
        <ele>194.5</ele>
        <time>2026-05-17T13:16:51.999Z</time>
      </trkpt>
      <trkpt lat="43.65444" lon="3.34944">
        <ele>194.7</ele>
        <time>2026-05-17T13:16:52.999Z</time>
      </trkpt>
      <trkpt lat="43.65444" lon="3.34944">
        <ele>194.8</ele>
        <time>2026-05-17T13:16:53.999Z</time>
      </trkpt>
      <trkpt lat="43.65444" lon="3.34944">
        <ele>195</ele>
        <time>2026-05-17T13:16:54.999Z</time>
      </trkpt>
      <trkpt lat="43.65444" lon="3.34944">
        <ele>195.5</ele>
        <time>2026-05-17T13:16:55.999Z</time>
      </trkpt>
      <trkpt lat="43.65444" lon="3.34944">
        <ele>195.6</ele>
        <time>2026-05-17T13:16:56.999Z</time>
      </trkpt>
      <trkpt lat="43.65444" lon="3.34944">
        <ele>195.8</ele>
        <time>2026-05-17T13:16:57.999Z</time>
      </trkpt>
      <trkpt lat="43.65444" lon="3.34943">
        <ele>196</ele>
        <time>2026-05-17T13:16:58.999Z</time>
      </trkpt>
      <trkpt lat="43.65445" lon="3.34942">
        <ele>196.2</ele>
        <time>2026-05-17T13:16:59.999Z</time>
      </trkpt>
      <trkpt lat="43.65445" lon="3.3494">
        <ele>196.3</ele>
        <time>2026-05-17T13:17:00.999Z</time>
      </trkpt>
      <trkpt lat="43.65447" lon="3.34937">
        <ele>196.5</ele>
        <time>2026-05-17T13:17:02.999Z</time>
      </trkpt>
      <trkpt lat="43.65447" lon="3.34936">
        <ele>196.7</ele>
        <time>2026-05-17T13:17:03.999Z</time>
      </trkpt>
      <trkpt lat="43.65447" lon="3.34934">
        <ele>196.6</ele>
        <time>2026-05-17T13:17:04.999Z</time>
      </trkpt>
      <trkpt lat="43.65448" lon="3.34933">
        <ele>196.3</ele>
        <time>2026-05-17T13:17:05.999Z</time>
      </trkpt>
      <trkpt lat="43.65448" lon="3.34932">
        <ele>196.3</ele>
        <time>2026-05-17T13:17:06.999Z</time>
      </trkpt>
      <trkpt lat="43.65448" lon="3.3493">
        <ele>196.7</ele>
        <time>2026-05-17T13:17:07.999Z</time>
      </trkpt>
      <trkpt lat="43.65447" lon="3.34928">
        <ele>196.7</ele>
        <time>2026-05-17T13:17:08.999Z</time>
      </trkpt>
      <trkpt lat="43.65447" lon="3.34927">
        <ele>196.7</ele>
        <time>2026-05-17T13:17:09.999Z</time>
      </trkpt>
      <trkpt lat="43.65446" lon="3.34925">
        <ele>196.9</ele>
        <time>2026-05-17T13:17:10.999Z</time>
      </trkpt>
      <trkpt lat="43.65446" lon="3.34924">
        <ele>197</ele>
        <time>2026-05-17T13:17:11.999Z</time>
      </trkpt>
      <trkpt lat="43.65445" lon="3.34922">
        <ele>197.3</ele>
        <time>2026-05-17T13:17:12.999Z</time>
      </trkpt>
      <trkpt lat="43.65445" lon="3.34922">
        <ele>197.5</ele>
        <time>2026-05-17T13:17:13.999Z</time>
      </trkpt>
      <trkpt lat="43.65445" lon="3.34922">
        <ele>197.7</ele>
        <time>2026-05-17T13:17:14.999Z</time>
      </trkpt>
      <trkpt lat="43.65445" lon="3.34921">
        <ele>197.7</ele>
        <time>2026-05-17T13:17:15.999Z</time>
      </trkpt>
      <trkpt lat="43.65445" lon="3.3492">
        <ele>198</ele>
        <time>2026-05-17T13:17:16.999Z</time>
      </trkpt>
      <trkpt lat="43.65445" lon="3.34919">
        <ele>197.9</ele>
        <time>2026-05-17T13:17:17.999Z</time>
      </trkpt>
      <trkpt lat="43.65444" lon="3.34918">
        <ele>197.9</ele>
        <time>2026-05-17T13:17:18.999Z</time>
      </trkpt>
      <trkpt lat="43.65444" lon="3.34916">
        <ele>197.7</ele>
        <time>2026-05-17T13:17:19.999Z</time>
      </trkpt>
      <trkpt lat="43.65443" lon="3.34914">
        <ele>197.7</ele>
        <time>2026-05-17T13:17:20.999Z</time>
      </trkpt>
      <trkpt lat="43.65443" lon="3.34912">
        <ele>197.7</ele>
        <time>2026-05-17T13:17:21.999Z</time>
      </trkpt>
      <trkpt lat="43.65443" lon="3.3491">
        <ele>197.6</ele>
        <time>2026-05-17T13:17:22.999Z</time>
      </trkpt>
      <trkpt lat="43.65443" lon="3.34908">
        <ele>197.7</ele>
        <time>2026-05-17T13:17:23.999Z</time>
      </trkpt>
      <trkpt lat="43.65443" lon="3.34906">
        <ele>197.7</ele>
        <time>2026-05-17T13:17:24.999Z</time>
      </trkpt>
      <trkpt lat="43.65443" lon="3.34905">
        <ele>197.7</ele>
        <time>2026-05-17T13:17:25.999Z</time>
      </trkpt>
      <trkpt lat="43.65443" lon="3.34904">
        <ele>197.6</ele>
        <time>2026-05-17T13:17:26.999Z</time>
      </trkpt>
      <trkpt lat="43.65444" lon="3.34902">
        <ele>197.4</ele>
        <time>2026-05-17T13:17:27.999Z</time>
      </trkpt>
      <trkpt lat="43.65444" lon="3.349">
        <ele>197.5</ele>
        <time>2026-05-17T13:17:28.999Z</time>
      </trkpt>
      <trkpt lat="43.65443" lon="3.349">
        <ele>197.5</ele>
        <time>2026-05-17T13:17:29.999Z</time>
      </trkpt>
      <trkpt lat="43.65443" lon="3.349">
        <ele>197.8</ele>
        <time>2026-05-17T13:17:30.999Z</time>
      </trkpt>
      <trkpt lat="43.65443" lon="3.34898">
        <ele>197.7</ele>
        <time>2026-05-17T13:17:31.999Z</time>
      </trkpt>
      <trkpt lat="43.65443" lon="3.34898">
        <ele>197.6</ele>
        <time>2026-05-17T13:17:32.999Z</time>
      </trkpt>
      <trkpt lat="43.65444" lon="3.34898">
        <ele>197.3</ele>
        <time>2026-05-17T13:17:33.999Z</time>
      </trkpt>
      <trkpt lat="43.65444" lon="3.34897">
        <ele>197.3</ele>
        <time>2026-05-17T13:17:34.999Z</time>
      </trkpt>
      <trkpt lat="43.65445" lon="3.34897">
        <ele>197.6</ele>
        <time>2026-05-17T13:17:35.999Z</time>
      </trkpt>
      <trkpt lat="43.65445" lon="3.34896">
        <ele>197.8</ele>
        <time>2026-05-17T13:17:36.999Z</time>
      </trkpt>
      <trkpt lat="43.65445" lon="3.34895">
        <ele>197.8</ele>
        <time>2026-05-17T13:17:37.999Z</time>
      </trkpt>
      <trkpt lat="43.65446" lon="3.34895">
        <ele>197.7</ele>
        <time>2026-05-17T13:17:38.999Z</time>
      </trkpt>
      <trkpt lat="43.65446" lon="3.34893">
        <ele>197.6</ele>
        <time>2026-05-17T13:17:39.999Z</time>
      </trkpt>
      <trkpt lat="43.65446" lon="3.34892">
        <ele>197.7</ele>
        <time>2026-05-17T13:17:40.999Z</time>
      </trkpt>
      <trkpt lat="43.65447" lon="3.3489">
        <ele>197.9</ele>
        <time>2026-05-17T13:17:41.999Z</time>
      </trkpt>
      <trkpt lat="43.65447" lon="3.34889">
        <ele>198</ele>
        <time>2026-05-17T13:17:42.999Z</time>
      </trkpt>
      <trkpt lat="43.65447" lon="3.34888">
        <ele>198.3</ele>
        <time>2026-05-17T13:17:43.999Z</time>
      </trkpt>
      <trkpt lat="43.65447" lon="3.34887">
        <ele>198.3</ele>
        <time>2026-05-17T13:17:44.999Z</time>
      </trkpt>
      <trkpt lat="43.65446" lon="3.34886">
        <ele>198.4</ele>
        <time>2026-05-17T13:17:45.999Z</time>
      </trkpt>
      <trkpt lat="43.65446" lon="3.34885">
        <ele>198.5</ele>
        <time>2026-05-17T13:17:46.999Z</time>
      </trkpt>
      <trkpt lat="43.65445" lon="3.34884">
        <ele>198.6</ele>
        <time>2026-05-17T13:17:47.999Z</time>
      </trkpt>
      <trkpt lat="43.65445" lon="3.34882">
        <ele>198.4</ele>
        <time>2026-05-17T13:17:48.999Z</time>
      </trkpt>
      <trkpt lat="43.65444" lon="3.3488">
        <ele>198.7</ele>
        <time>2026-05-17T13:17:49.999Z</time>
      </trkpt>
      <trkpt lat="43.65443" lon="3.34878">
        <ele>198.5</ele>
        <time>2026-05-17T13:17:50.999Z</time>
      </trkpt>
      <trkpt lat="43.65443" lon="3.34877">
        <ele>198.5</ele>
        <time>2026-05-17T13:17:51.999Z</time>
      </trkpt>
      <trkpt lat="43.65444" lon="3.34876">
        <ele>198.9</ele>
        <time>2026-05-17T13:17:52.999Z</time>
      </trkpt>
      <trkpt lat="43.65444" lon="3.34874">
        <ele>199.1</ele>
        <time>2026-05-17T13:17:53.999Z</time>
      </trkpt>
      <trkpt lat="43.65444" lon="3.34874">
        <ele>199.1</ele>
        <time>2026-05-17T13:17:54.999Z</time>
      </trkpt>
      <trkpt lat="43.65445" lon="3.34873">
        <ele>199</ele>
        <time>2026-05-17T13:17:55.999Z</time>
      </trkpt>
      <trkpt lat="43.65445" lon="3.34873">
        <ele>199.3</ele>
        <time>2026-05-17T13:17:56.999Z</time>
      </trkpt>
      <trkpt lat="43.65446" lon="3.34872">
        <ele>199.3</ele>
        <time>2026-05-17T13:17:57.999Z</time>
      </trkpt>
      <trkpt lat="43.65446" lon="3.34872">
        <ele>199.3</ele>
        <time>2026-05-17T13:17:58.999Z</time>
      </trkpt>
      <trkpt lat="43.65446" lon="3.34873">
        <ele>199.6</ele>
        <time>2026-05-17T13:17:59.999Z</time>
      </trkpt>
      <trkpt lat="43.65446" lon="3.34872">
        <ele>199.7</ele>
        <time>2026-05-17T13:18:00.999Z</time>
      </trkpt>
      <trkpt lat="43.65445" lon="3.34871">
        <ele>200.3</ele>
        <time>2026-05-17T13:18:01.999Z</time>
      </trkpt>
      <trkpt lat="43.65445" lon="3.34869">
        <ele>201.4</ele>
        <time>2026-05-17T13:18:02.999Z</time>
      </trkpt>
      <trkpt lat="43.65446" lon="3.34868">
        <ele>201.9</ele>
        <time>2026-05-17T13:18:03.999Z</time>
      </trkpt>
      <trkpt lat="43.65446" lon="3.34867">
        <ele>202.1</ele>
        <time>2026-05-17T13:18:04.999Z</time>
      </trkpt>
      <trkpt lat="43.65447" lon="3.34866">
        <ele>202.2</ele>
        <time>2026-05-17T13:18:05.999Z</time>
      </trkpt>
      <trkpt lat="43.65447" lon="3.34864">
        <ele>202.6</ele>
        <time>2026-05-17T13:18:06.999Z</time>
      </trkpt>
      <trkpt lat="43.65447" lon="3.34863">
        <ele>202.6</ele>
        <time>2026-05-17T13:18:07.999Z</time>
      </trkpt>
      <trkpt lat="43.65447" lon="3.34862">
        <ele>203.3</ele>
        <time>2026-05-17T13:18:08.999Z</time>
      </trkpt>
      <trkpt lat="43.65447" lon="3.3486">
        <ele>204.2</ele>
        <time>2026-05-17T13:18:09.999Z</time>
      </trkpt>
      <trkpt lat="43.65447" lon="3.34859">
        <ele>204.8</ele>
        <time>2026-05-17T13:18:10.999Z</time>
      </trkpt>
      <trkpt lat="43.65448" lon="3.34858">
        <ele>204.8</ele>
        <time>2026-05-17T13:18:11.999Z</time>
      </trkpt>
      <trkpt lat="43.65448" lon="3.34856">
        <ele>204.9</ele>
        <time>2026-05-17T13:18:12.999Z</time>
      </trkpt>
      <trkpt lat="43.65449" lon="3.34855">
        <ele>204.9</ele>
        <time>2026-05-17T13:18:13.999Z</time>
      </trkpt>
      <trkpt lat="43.65449" lon="3.34855">
        <ele>204.8</ele>
        <time>2026-05-17T13:18:14.999Z</time>
      </trkpt>
      <trkpt lat="43.6545" lon="3.34855">
        <ele>204.8</ele>
        <time>2026-05-17T13:18:15.999Z</time>
      </trkpt>
      <trkpt lat="43.65449" lon="3.34854">
        <ele>205.1</ele>
        <time>2026-05-17T13:18:16.999Z</time>
      </trkpt>
      <trkpt lat="43.6545" lon="3.34853">
        <ele>205.3</ele>
        <time>2026-05-17T13:18:17.999Z</time>
      </trkpt>
      <trkpt lat="43.65449" lon="3.34853">
        <ele>205.2</ele>
        <time>2026-05-17T13:18:18.999Z</time>
      </trkpt>
      <trkpt lat="43.6545" lon="3.34852">
        <ele>204.9</ele>
        <time>2026-05-17T13:18:19.999Z</time>
      </trkpt>
      <trkpt lat="43.6545" lon="3.34851">
        <ele>204.9</ele>
        <time>2026-05-17T13:18:20.999Z</time>
      </trkpt>
      <trkpt lat="43.65451" lon="3.3485">
        <ele>204.6</ele>
        <time>2026-05-17T13:18:21.999Z</time>
      </trkpt>
      <trkpt lat="43.65452" lon="3.34848">
        <ele>204.2</ele>
        <time>2026-05-17T13:18:22.999Z</time>
      </trkpt>
      <trkpt lat="43.65452" lon="3.34845">
        <ele>204.4</ele>
        <time>2026-05-17T13:18:23.999Z</time>
      </trkpt>
      <trkpt lat="43.65451" lon="3.34843">
        <ele>204</ele>
        <time>2026-05-17T13:18:24.999Z</time>
      </trkpt>
      <trkpt lat="43.65451" lon="3.3484">
        <ele>204.7</ele>
        <time>2026-05-17T13:18:25.999Z</time>
      </trkpt>
      <trkpt lat="43.6545" lon="3.34839">
        <ele>205.3</ele>
        <time>2026-05-17T13:18:26.999Z</time>
      </trkpt>
      <trkpt lat="43.6545" lon="3.34838">
        <ele>205.6</ele>
        <time>2026-05-17T13:18:27.999Z</time>
      </trkpt>
      <trkpt lat="43.6545" lon="3.34837">
        <ele>205.7</ele>
        <time>2026-05-17T13:18:28.999Z</time>
      </trkpt>
      <trkpt lat="43.6545" lon="3.34835">
        <ele>206</ele>
        <time>2026-05-17T13:18:29.999Z</time>
      </trkpt>
      <trkpt lat="43.65449" lon="3.34834">
        <ele>205.8</ele>
        <time>2026-05-17T13:18:30.999Z</time>
      </trkpt>
      <trkpt lat="43.65449" lon="3.34834">
        <ele>205.6</ele>
        <time>2026-05-17T13:18:31.999Z</time>
      </trkpt>
      <trkpt lat="43.65449" lon="3.34833">
        <ele>205.9</ele>
        <time>2026-05-17T13:18:32.999Z</time>
      </trkpt>
      <trkpt lat="43.65448" lon="3.34833">
        <ele>206.3</ele>
        <time>2026-05-17T13:18:33.999Z</time>
      </trkpt>
      <trkpt lat="43.65448" lon="3.34832">
        <ele>206.5</ele>
        <time>2026-05-17T13:18:34.999Z</time>
      </trkpt>
      <trkpt lat="43.65448" lon="3.3483">
        <ele>206.9</ele>
        <time>2026-05-17T13:18:35.999Z</time>
      </trkpt>
      <trkpt lat="43.65447" lon="3.34829">
        <ele>207.4</ele>
        <time>2026-05-17T13:18:36.999Z</time>
      </trkpt>
      <trkpt lat="43.65445" lon="3.34827">
        <ele>207.7</ele>
        <time>2026-05-17T13:18:37.999Z</time>
      </trkpt>
      <trkpt lat="43.65445" lon="3.34825">
        <ele>207.8</ele>
        <time>2026-05-17T13:18:38.999Z</time>
      </trkpt>
      <trkpt lat="43.65445" lon="3.34824">
        <ele>207.8</ele>
        <time>2026-05-17T13:18:39.999Z</time>
      </trkpt>
      <trkpt lat="43.65445" lon="3.34824">
        <ele>207.7</ele>
        <time>2026-05-17T13:18:40.999Z</time>
      </trkpt>
      <trkpt lat="43.65445" lon="3.34824">
        <ele>207.8</ele>
        <time>2026-05-17T13:18:41.999Z</time>
      </trkpt>
      <trkpt lat="43.65444" lon="3.34823">
        <ele>208.1</ele>
        <time>2026-05-17T13:18:42.999Z</time>
      </trkpt>
      <trkpt lat="43.65444" lon="3.34823">
        <ele>208.2</ele>
        <time>2026-05-17T13:18:43.999Z</time>
      </trkpt>
      <trkpt lat="43.65443" lon="3.34823">
        <ele>208.1</ele>
        <time>2026-05-17T13:18:44.999Z</time>
      </trkpt>
      <trkpt lat="43.65443" lon="3.34822">
        <ele>207.9</ele>
        <time>2026-05-17T13:18:45.999Z</time>
      </trkpt>
      <trkpt lat="43.65442" lon="3.34821">
        <ele>207.9</ele>
        <time>2026-05-17T13:18:46.999Z</time>
      </trkpt>
      <trkpt lat="43.65441" lon="3.3482">
        <ele>208.3</ele>
        <time>2026-05-17T13:18:47.999Z</time>
      </trkpt>
      <trkpt lat="43.6544" lon="3.34819">
        <ele>208.2</ele>
        <time>2026-05-17T13:18:48.999Z</time>
      </trkpt>
      <trkpt lat="43.65439" lon="3.34819">
        <ele>207.8</ele>
        <time>2026-05-17T13:18:49.999Z</time>
      </trkpt>
      <trkpt lat="43.65439" lon="3.34818">
        <ele>207.7</ele>
        <time>2026-05-17T13:18:50.999Z</time>
      </trkpt>
      <trkpt lat="43.65439" lon="3.34818">
        <ele>207.9</ele>
        <time>2026-05-17T13:18:51.999Z</time>
      </trkpt>
      <trkpt lat="43.65439" lon="3.34818">
        <ele>208.2</ele>
        <time>2026-05-17T13:18:52.999Z</time>
      </trkpt>
      <trkpt lat="43.65439" lon="3.34818">
        <ele>208.5</ele>
        <time>2026-05-17T13:18:53.999Z</time>
      </trkpt>
      <trkpt lat="43.65439" lon="3.34817">
        <ele>208.2</ele>
        <time>2026-05-17T13:18:54.999Z</time>
      </trkpt>
      <trkpt lat="43.65439" lon="3.34817">
        <ele>208.1</ele>
        <time>2026-05-17T13:18:55.999Z</time>
      </trkpt>
      <trkpt lat="43.65439" lon="3.34817">
        <ele>207.8</ele>
        <time>2026-05-17T13:18:56.999Z</time>
      </trkpt>
      <trkpt lat="43.65438" lon="3.34817">
        <ele>207.3</ele>
        <time>2026-05-17T13:18:57.999Z</time>
      </trkpt>
      <trkpt lat="43.65438" lon="3.34817">
        <ele>207.2</ele>
        <time>2026-05-17T13:18:58.999Z</time>
      </trkpt>
      <trkpt lat="43.65438" lon="3.34817">
        <ele>207.1</ele>
        <time>2026-05-17T13:18:59.999Z</time>
      </trkpt>
      <trkpt lat="43.65438" lon="3.34817">
        <ele>207</ele>
        <time>2026-05-17T13:19:00.999Z</time>
      </trkpt>
      <trkpt lat="43.65438" lon="3.34816">
        <ele>206.7</ele>
        <time>2026-05-17T13:19:01.999Z</time>
      </trkpt>
      <trkpt lat="43.65438" lon="3.34816">
        <ele>206.6</ele>
        <time>2026-05-17T13:19:02.999Z</time>
      </trkpt>
      <trkpt lat="43.65437" lon="3.34816">
        <ele>206.4</ele>
        <time>2026-05-17T13:19:03.999Z</time>
      </trkpt>
      <trkpt lat="43.65437" lon="3.34816">
        <ele>205.9</ele>
        <time>2026-05-17T13:19:04.999Z</time>
      </trkpt>
      <trkpt lat="43.65436" lon="3.34817">
        <ele>205.2</ele>
        <time>2026-05-17T13:19:05.999Z</time>
      </trkpt>
      <trkpt lat="43.65435" lon="3.34818">
        <ele>204.7</ele>
        <time>2026-05-17T13:19:06.999Z</time>
      </trkpt>
      <trkpt lat="43.65435" lon="3.34819">
        <ele>204.4</ele>
        <time>2026-05-17T13:19:07.999Z</time>
      </trkpt>
      <trkpt lat="43.65435" lon="3.34819">
        <ele>204.1</ele>
        <time>2026-05-17T13:19:08.999Z</time>
      </trkpt>
      <trkpt lat="43.65435" lon="3.34819">
        <ele>203.8</ele>
        <time>2026-05-17T13:19:09.999Z</time>
      </trkpt>
      <trkpt lat="43.65434" lon="3.34819">
        <ele>203.7</ele>
        <time>2026-05-17T13:19:10.999Z</time>
      </trkpt>
      <trkpt lat="43.65434" lon="3.3482">
        <ele>203.6</ele>
        <time>2026-05-17T13:19:11.999Z</time>
      </trkpt>
      <trkpt lat="43.65432" lon="3.3482">
        <ele>203.7</ele>
        <time>2026-05-17T13:19:12.999Z</time>
      </trkpt>
      <trkpt lat="43.65431" lon="3.34822">
        <ele>203.8</ele>
        <time>2026-05-17T13:19:13.999Z</time>
      </trkpt>
      <trkpt lat="43.6543" lon="3.34822">
        <ele>203.9</ele>
        <time>2026-05-17T13:19:14.999Z</time>
      </trkpt>
      <trkpt lat="43.65429" lon="3.34823">
        <ele>203.9</ele>
        <time>2026-05-17T13:19:15.999Z</time>
      </trkpt>
      <trkpt lat="43.6543" lon="3.34824">
        <ele>203.7</ele>
        <time>2026-05-17T13:19:16.999Z</time>
      </trkpt>
      <trkpt lat="43.65429" lon="3.34825">
        <ele>203.8</ele>
        <time>2026-05-17T13:19:17.999Z</time>
      </trkpt>
      <trkpt lat="43.65429" lon="3.34825">
        <ele>203.8</ele>
        <time>2026-05-17T13:19:18.999Z</time>
      </trkpt>
      <trkpt lat="43.65429" lon="3.34826">
        <ele>203.9</ele>
        <time>2026-05-17T13:19:19.999Z</time>
      </trkpt>
      <trkpt lat="43.65428" lon="3.34827">
        <ele>203.8</ele>
        <time>2026-05-17T13:19:20.999Z</time>
      </trkpt>
      <trkpt lat="43.65428" lon="3.34828">
        <ele>203.7</ele>
        <time>2026-05-17T13:19:21.999Z</time>
      </trkpt>
      <trkpt lat="43.65428" lon="3.34829">
        <ele>203.3</ele>
        <time>2026-05-17T13:19:22.999Z</time>
      </trkpt>
      <trkpt lat="43.65429" lon="3.3483">
        <ele>203</ele>
        <time>2026-05-17T13:19:23.999Z</time>
      </trkpt>
      <trkpt lat="43.65429" lon="3.34833">
        <ele>202.3</ele>
        <time>2026-05-17T13:19:24.999Z</time>
      </trkpt>
      <trkpt lat="43.6543" lon="3.34834">
        <ele>201.1</ele>
        <time>2026-05-17T13:19:25.999Z</time>
      </trkpt>
      <trkpt lat="43.65431" lon="3.34836">
        <ele>200.8</ele>
        <time>2026-05-17T13:19:26.999Z</time>
      </trkpt>
      <trkpt lat="43.65431" lon="3.34837">
        <ele>200.9</ele>
        <time>2026-05-17T13:19:27.999Z</time>
      </trkpt>
      <trkpt lat="43.65431" lon="3.34838">
        <ele>201</ele>
        <time>2026-05-17T13:19:28.999Z</time>
      </trkpt>
      <trkpt lat="43.6543" lon="3.34839">
        <ele>200.8</ele>
        <time>2026-05-17T13:19:29.999Z</time>
      </trkpt>
      <trkpt lat="43.65429" lon="3.3484">
        <ele>200.6</ele>
        <time>2026-05-17T13:19:30.999Z</time>
      </trkpt>
      <trkpt lat="43.65428" lon="3.3484">
        <ele>200.5</ele>
        <time>2026-05-17T13:19:31.999Z</time>
      </trkpt>
      <trkpt lat="43.65427" lon="3.34841">
        <ele>200.4</ele>
        <time>2026-05-17T13:19:32.999Z</time>
      </trkpt>
      <trkpt lat="43.65426" lon="3.34842">
        <ele>200.8</ele>
        <time>2026-05-17T13:19:33.999Z</time>
      </trkpt>
      <trkpt lat="43.65426" lon="3.34843">
        <ele>201.4</ele>
        <time>2026-05-17T13:19:34.999Z</time>
      </trkpt>
      <trkpt lat="43.65425" lon="3.34844">
        <ele>201.5</ele>
        <time>2026-05-17T13:19:35.999Z</time>
      </trkpt>
      <trkpt lat="43.65424" lon="3.34845">
        <ele>201.5</ele>
        <time>2026-05-17T13:19:36.999Z</time>
      </trkpt>
      <trkpt lat="43.65424" lon="3.34846">
        <ele>201.5</ele>
        <time>2026-05-17T13:19:37.999Z</time>
      </trkpt>
      <trkpt lat="43.65424" lon="3.34847">
        <ele>201.7</ele>
        <time>2026-05-17T13:19:38.999Z</time>
      </trkpt>
      <trkpt lat="43.65424" lon="3.34848">
        <ele>201.7</ele>
        <time>2026-05-17T13:19:39.999Z</time>
      </trkpt>
      <trkpt lat="43.65424" lon="3.34849">
        <ele>201.7</ele>
        <time>2026-05-17T13:19:40.999Z</time>
      </trkpt>
      <trkpt lat="43.65423" lon="3.3485">
        <ele>201.5</ele>
        <time>2026-05-17T13:19:41.999Z</time>
      </trkpt>
      <trkpt lat="43.65423" lon="3.34852">
        <ele>201.6</ele>
        <time>2026-05-17T13:19:42.999Z</time>
      </trkpt>
      <trkpt lat="43.65422" lon="3.34853">
        <ele>201.7</ele>
        <time>2026-05-17T13:19:43.999Z</time>
      </trkpt>
      <trkpt lat="43.65422" lon="3.34853">
        <ele>201.9</ele>
        <time>2026-05-17T13:19:44.999Z</time>
      </trkpt>
      <trkpt lat="43.65421" lon="3.34853">
        <ele>201.7</ele>
        <time>2026-05-17T13:19:45.999Z</time>
      </trkpt>
      <trkpt lat="43.65422" lon="3.34854">
        <ele>201.5</ele>
        <time>2026-05-17T13:19:46.999Z</time>
      </trkpt>
      <trkpt lat="43.65422" lon="3.34854">
        <ele>201.4</ele>
        <time>2026-05-17T13:19:47.999Z</time>
      </trkpt>
      <trkpt lat="43.65422" lon="3.34856">
        <ele>200.9</ele>
        <time>2026-05-17T13:19:48.999Z</time>
      </trkpt>
      <trkpt lat="43.65423" lon="3.34857">
        <ele>200.9</ele>
        <time>2026-05-17T13:19:49.999Z</time>
      </trkpt>
      <trkpt lat="43.65423" lon="3.3486">
        <ele>200.7</ele>
        <time>2026-05-17T13:19:50.999Z</time>
      </trkpt>
      <trkpt lat="43.65423" lon="3.34861">
        <ele>200.6</ele>
        <time>2026-05-17T13:19:51.999Z</time>
      </trkpt>
      <trkpt lat="43.65423" lon="3.34863">
        <ele>200.6</ele>
        <time>2026-05-17T13:19:52.999Z</time>
      </trkpt>
      <trkpt lat="43.65422" lon="3.34864">
        <ele>200.7</ele>
        <time>2026-05-17T13:19:53.999Z</time>
      </trkpt>
      <trkpt lat="43.65422" lon="3.34865">
        <ele>200.8</ele>
        <time>2026-05-17T13:19:54.999Z</time>
      </trkpt>
      <trkpt lat="43.65422" lon="3.34866">
        <ele>201</ele>
        <time>2026-05-17T13:19:55.999Z</time>
      </trkpt>
      <trkpt lat="43.65422" lon="3.34867">
        <ele>201.2</ele>
        <time>2026-05-17T13:19:56.999Z</time>
      </trkpt>
      <trkpt lat="43.65422" lon="3.34867">
        <ele>201.6</ele>
        <time>2026-05-17T13:19:57.999Z</time>
      </trkpt>
      <trkpt lat="43.65422" lon="3.34868">
        <ele>201.3</ele>
        <time>2026-05-17T13:19:58.999Z</time>
      </trkpt>
      <trkpt lat="43.65423" lon="3.34869">
        <ele>201.6</ele>
        <time>2026-05-17T13:19:59.999Z</time>
      </trkpt>
      <trkpt lat="43.65422" lon="3.34871">
        <ele>201.5</ele>
        <time>2026-05-17T13:20:00.999Z</time>
      </trkpt>
      <trkpt lat="43.65422" lon="3.3487">
        <ele>200.9</ele>
        <time>2026-05-17T13:20:01.999Z</time>
      </trkpt>
      <trkpt lat="43.65422" lon="3.34871">
        <ele>200.5</ele>
        <time>2026-05-17T13:20:02.999Z</time>
      </trkpt>
      <trkpt lat="43.65421" lon="3.34872">
        <ele>200.4</ele>
        <time>2026-05-17T13:20:03.999Z</time>
      </trkpt>
      <trkpt lat="43.65421" lon="3.34874">
        <ele>200.1</ele>
        <time>2026-05-17T13:20:04.999Z</time>
      </trkpt>
      <trkpt lat="43.65421" lon="3.34875">
        <ele>199.6</ele>
        <time>2026-05-17T13:20:05.999Z</time>
      </trkpt>
      <trkpt lat="43.65422" lon="3.34877">
        <ele>199.1</ele>
        <time>2026-05-17T13:20:06.999Z</time>
      </trkpt>
      <trkpt lat="43.65423" lon="3.34878">
        <ele>198.5</ele>
        <time>2026-05-17T13:20:07.999Z</time>
      </trkpt>
      <trkpt lat="43.65424" lon="3.3488">
        <ele>198</ele>
        <time>2026-05-17T13:20:08.999Z</time>
      </trkpt>
      <trkpt lat="43.65425" lon="3.34881">
        <ele>197.4</ele>
        <time>2026-05-17T13:20:09.999Z</time>
      </trkpt>
      <trkpt lat="43.65425" lon="3.34883">
        <ele>196.7</ele>
        <time>2026-05-17T13:20:10.999Z</time>
      </trkpt>
      <trkpt lat="43.65424" lon="3.34884">
        <ele>196.7</ele>
        <time>2026-05-17T13:20:11.999Z</time>
      </trkpt>
      <trkpt lat="43.65424" lon="3.34885">
        <ele>196.4</ele>
        <time>2026-05-17T13:20:12.999Z</time>
      </trkpt>
      <trkpt lat="43.65424" lon="3.34886">
        <ele>196</ele>
        <time>2026-05-17T13:20:13.999Z</time>
      </trkpt>
      <trkpt lat="43.65423" lon="3.34887">
        <ele>195.2</ele>
        <time>2026-05-17T13:20:14.999Z</time>
      </trkpt>
      <trkpt lat="43.65422" lon="3.34889">
        <ele>194.4</ele>
        <time>2026-05-17T13:20:15.999Z</time>
      </trkpt>
      <trkpt lat="43.65422" lon="3.3489">
        <ele>194.1</ele>
        <time>2026-05-17T13:20:16.999Z</time>
      </trkpt>
      <trkpt lat="43.65421" lon="3.34892">
        <ele>194.1</ele>
        <time>2026-05-17T13:20:17.999Z</time>
      </trkpt>
      <trkpt lat="43.6542" lon="3.34893">
        <ele>194.3</ele>
        <time>2026-05-17T13:20:18.999Z</time>
      </trkpt>
      <trkpt lat="43.65419" lon="3.34894">
        <ele>194.6</ele>
        <time>2026-05-17T13:20:19.999Z</time>
      </trkpt>
      <trkpt lat="43.65419" lon="3.34897">
        <ele>195.1</ele>
        <time>2026-05-17T13:20:20.999Z</time>
      </trkpt>
      <trkpt lat="43.65418" lon="3.34898">
        <ele>195.8</ele>
        <time>2026-05-17T13:20:21.999Z</time>
      </trkpt>
      <trkpt lat="43.65417" lon="3.34898">
        <ele>196</ele>
        <time>2026-05-17T13:20:22.999Z</time>
      </trkpt>
      <trkpt lat="43.65417" lon="3.34897">
        <ele>196.2</ele>
        <time>2026-05-17T13:20:23.999Z</time>
      </trkpt>
      <trkpt lat="43.65416" lon="3.34897">
        <ele>196</ele>
        <time>2026-05-17T13:20:24.999Z</time>
      </trkpt>
      <trkpt lat="43.65416" lon="3.34897">
        <ele>196</ele>
        <time>2026-05-17T13:20:25.999Z</time>
      </trkpt>
      <trkpt lat="43.65415" lon="3.34898">
        <ele>196.2</ele>
        <time>2026-05-17T13:20:26.999Z</time>
      </trkpt>
      <trkpt lat="43.65414" lon="3.349">
        <ele>195.6</ele>
        <time>2026-05-17T13:20:27.999Z</time>
      </trkpt>
      <trkpt lat="43.65413" lon="3.34902">
        <ele>195</ele>
        <time>2026-05-17T13:20:28.999Z</time>
      </trkpt>
      <trkpt lat="43.65411" lon="3.34903">
        <ele>195</ele>
        <time>2026-05-17T13:20:29.999Z</time>
      </trkpt>
      <trkpt lat="43.6541" lon="3.34905">
        <ele>195.1</ele>
        <time>2026-05-17T13:20:30.999Z</time>
      </trkpt>
      <trkpt lat="43.65409" lon="3.34906">
        <ele>195.4</ele>
        <time>2026-05-17T13:20:31.999Z</time>
      </trkpt>
      <trkpt lat="43.65408" lon="3.34907">
        <ele>195.7</ele>
        <time>2026-05-17T13:20:32.999Z</time>
      </trkpt>
      <trkpt lat="43.65408" lon="3.34908">
        <ele>195.9</ele>
        <time>2026-05-17T13:20:33.999Z</time>
      </trkpt>
      <trkpt lat="43.65409" lon="3.34908">
        <ele>195.6</ele>
        <time>2026-05-17T13:20:34.999Z</time>
      </trkpt>
      <trkpt lat="43.65409" lon="3.34909">
        <ele>195.2</ele>
        <time>2026-05-17T13:20:35.999Z</time>
      </trkpt>
      <trkpt lat="43.65408" lon="3.34911">
        <ele>195.1</ele>
        <time>2026-05-17T13:20:36.999Z</time>
      </trkpt>
      <trkpt lat="43.65408" lon="3.34913">
        <ele>194.9</ele>
        <time>2026-05-17T13:20:37.999Z</time>
      </trkpt>
      <trkpt lat="43.65407" lon="3.34916">
        <ele>194.7</ele>
        <time>2026-05-17T13:20:38.999Z</time>
      </trkpt>
      <trkpt lat="43.65407" lon="3.34918">
        <ele>194.5</ele>
        <time>2026-05-17T13:20:39.999Z</time>
      </trkpt>
      <trkpt lat="43.65406" lon="3.34919">
        <ele>194.5</ele>
        <time>2026-05-17T13:20:40.999Z</time>
      </trkpt>
      <trkpt lat="43.65406" lon="3.3492">
        <ele>194.5</ele>
        <time>2026-05-17T13:20:41.999Z</time>
      </trkpt>
      <trkpt lat="43.65406" lon="3.34921">
        <ele>194.2</ele>
        <time>2026-05-17T13:20:42.999Z</time>
      </trkpt>
      <trkpt lat="43.65406" lon="3.34923">
        <ele>194</ele>
        <time>2026-05-17T13:20:43.999Z</time>
      </trkpt>
      <trkpt lat="43.65406" lon="3.34925">
        <ele>194</ele>
        <time>2026-05-17T13:20:44.999Z</time>
      </trkpt>
      <trkpt lat="43.65405" lon="3.34926">
        <ele>194</ele>
        <time>2026-05-17T13:20:45.999Z</time>
      </trkpt>
      <trkpt lat="43.65405" lon="3.34928">
        <ele>194.1</ele>
        <time>2026-05-17T13:20:46.999Z</time>
      </trkpt>
      <trkpt lat="43.65406" lon="3.34929">
        <ele>194.1</ele>
        <time>2026-05-17T13:20:47.999Z</time>
      </trkpt>
      <trkpt lat="43.65406" lon="3.3493">
        <ele>193.7</ele>
        <time>2026-05-17T13:20:48.999Z</time>
      </trkpt>
      <trkpt lat="43.65407" lon="3.34931">
        <ele>193.7</ele>
        <time>2026-05-17T13:20:49.999Z</time>
      </trkpt>
      <trkpt lat="43.65406" lon="3.34932">
        <ele>193.9</ele>
        <time>2026-05-17T13:20:50.999Z</time>
      </trkpt>
      <trkpt lat="43.65406" lon="3.34933">
        <ele>193.9</ele>
        <time>2026-05-17T13:20:51.999Z</time>
      </trkpt>
      <trkpt lat="43.65405" lon="3.34934">
        <ele>194</ele>
        <time>2026-05-17T13:20:52.999Z</time>
      </trkpt>
      <trkpt lat="43.65404" lon="3.34935">
        <ele>193.9</ele>
        <time>2026-05-17T13:20:53.999Z</time>
      </trkpt>
      <trkpt lat="43.65404" lon="3.34935">
        <ele>194</ele>
        <time>2026-05-17T13:20:54.999Z</time>
      </trkpt>
      <trkpt lat="43.65404" lon="3.34936">
        <ele>193.9</ele>
        <time>2026-05-17T13:20:55.999Z</time>
      </trkpt>
      <trkpt lat="43.65403" lon="3.34937">
        <ele>193.6</ele>
        <time>2026-05-17T13:20:56.999Z</time>
      </trkpt>
      <trkpt lat="43.65403" lon="3.34938">
        <ele>193.4</ele>
        <time>2026-05-17T13:20:57.999Z</time>
      </trkpt>
      <trkpt lat="43.65403" lon="3.3494">
        <ele>193.2</ele>
        <time>2026-05-17T13:20:58.999Z</time>
      </trkpt>
      <trkpt lat="43.65404" lon="3.34941">
        <ele>192.9</ele>
        <time>2026-05-17T13:20:59.999Z</time>
      </trkpt>
      <trkpt lat="43.65404" lon="3.34942">
        <ele>192.5</ele>
        <time>2026-05-17T13:21:00.999Z</time>
      </trkpt>
      <trkpt lat="43.65405" lon="3.34943">
        <ele>192.3</ele>
        <time>2026-05-17T13:21:01.999Z</time>
      </trkpt>
      <trkpt lat="43.65404" lon="3.34945">
        <ele>192.2</ele>
        <time>2026-05-17T13:21:02.999Z</time>
      </trkpt>
      <trkpt lat="43.65404" lon="3.34947">
        <ele>192.7</ele>
        <time>2026-05-17T13:21:03.999Z</time>
      </trkpt>
      <trkpt lat="43.65403" lon="3.34949">
        <ele>192.6</ele>
        <time>2026-05-17T13:21:04.999Z</time>
      </trkpt>
      <trkpt lat="43.65402" lon="3.34949">
        <ele>192.5</ele>
        <time>2026-05-17T13:21:05.999Z</time>
      </trkpt>
      <trkpt lat="43.65401" lon="3.34949">
        <ele>192.8</ele>
        <time>2026-05-17T13:21:06.999Z</time>
      </trkpt>
      <trkpt lat="43.654" lon="3.34948">
        <ele>193.2</ele>
        <time>2026-05-17T13:21:07.999Z</time>
      </trkpt>
      <trkpt lat="43.654" lon="3.34948">
        <ele>193.6</ele>
        <time>2026-05-17T13:21:08.999Z</time>
      </trkpt>
      <trkpt lat="43.654" lon="3.34947">
        <ele>193.5</ele>
        <time>2026-05-17T13:21:09.999Z</time>
      </trkpt>
      <trkpt lat="43.654" lon="3.34947">
        <ele>193.4</ele>
        <time>2026-05-17T13:21:10.999Z</time>
      </trkpt>
      <trkpt lat="43.654" lon="3.34947">
        <ele>193.2</ele>
        <time>2026-05-17T13:21:11.999Z</time>
      </trkpt>
      <trkpt lat="43.654" lon="3.34946">
        <ele>192.9</ele>
        <time>2026-05-17T13:21:12.999Z</time>
      </trkpt>
      <trkpt lat="43.65399" lon="3.34946">
        <ele>192.8</ele>
        <time>2026-05-17T13:21:13.999Z</time>
      </trkpt>
      <trkpt lat="43.65399" lon="3.34946">
        <ele>192.6</ele>
        <time>2026-05-17T13:21:14.999Z</time>
      </trkpt>
      <trkpt lat="43.65399" lon="3.34946">
        <ele>192.5</ele>
        <time>2026-05-17T13:21:15.999Z</time>
      </trkpt>
      <trkpt lat="43.65397" lon="3.34946">
        <ele>192.5</ele>
        <time>2026-05-17T13:21:17.999Z</time>
      </trkpt>
      <trkpt lat="43.65396" lon="3.34946">
        <ele>192.5</ele>
        <time>2026-05-17T13:21:18.999Z</time>
      </trkpt>
      <trkpt lat="43.65395" lon="3.34945">
        <ele>192.4</ele>
        <time>2026-05-17T13:21:19.999Z</time>
      </trkpt>
      <trkpt lat="43.65393" lon="3.34946">
        <ele>192.2</ele>
        <time>2026-05-17T13:21:20.999Z</time>
      </trkpt>
      <trkpt lat="43.65391" lon="3.34947">
        <ele>192</ele>
        <time>2026-05-17T13:21:21.999Z</time>
      </trkpt>
      <trkpt lat="43.6539" lon="3.34948">
        <ele>191.8</ele>
        <time>2026-05-17T13:21:22.999Z</time>
      </trkpt>
      <trkpt lat="43.6539" lon="3.34948">
        <ele>191.7</ele>
        <time>2026-05-17T13:21:23.999Z</time>
      </trkpt>
      <trkpt lat="43.65389" lon="3.34949">
        <ele>191.6</ele>
        <time>2026-05-17T13:21:24.999Z</time>
      </trkpt>
      <trkpt lat="43.65388" lon="3.34951">
        <ele>191.5</ele>
        <time>2026-05-17T13:21:25.999Z</time>
      </trkpt>
      <trkpt lat="43.65387" lon="3.34952">
        <ele>191.2</ele>
        <time>2026-05-17T13:21:26.999Z</time>
      </trkpt>
      <trkpt lat="43.65387" lon="3.34954">
        <ele>191</ele>
        <time>2026-05-17T13:21:27.999Z</time>
      </trkpt>
      <trkpt lat="43.65386" lon="3.34954">
        <ele>190.6</ele>
        <time>2026-05-17T13:21:28.999Z</time>
      </trkpt>
      <trkpt lat="43.65386" lon="3.34955">
        <ele>190.4</ele>
        <time>2026-05-17T13:21:29.999Z</time>
      </trkpt>
      <trkpt lat="43.65386" lon="3.34956">
        <ele>190.2</ele>
        <time>2026-05-17T13:21:30.999Z</time>
      </trkpt>
      <trkpt lat="43.65385" lon="3.34957">
        <ele>190.2</ele>
        <time>2026-05-17T13:21:31.999Z</time>
      </trkpt>
      <trkpt lat="43.65384" lon="3.34957">
        <ele>190</ele>
        <time>2026-05-17T13:21:32.999Z</time>
      </trkpt>
      <trkpt lat="43.65384" lon="3.34958">
        <ele>189.9</ele>
        <time>2026-05-17T13:21:33.999Z</time>
      </trkpt>
      <trkpt lat="43.65383" lon="3.34959">
        <ele>189.5</ele>
        <time>2026-05-17T13:21:34.999Z</time>
      </trkpt>
      <trkpt lat="43.65383" lon="3.3496">
        <ele>189.4</ele>
        <time>2026-05-17T13:21:35.999Z</time>
      </trkpt>
      <trkpt lat="43.65382" lon="3.34961">
        <ele>188.4</ele>
        <time>2026-05-17T13:21:36.999Z</time>
      </trkpt>
      <trkpt lat="43.65381" lon="3.34963">
        <ele>187.8</ele>
        <time>2026-05-17T13:21:37.999Z</time>
      </trkpt>
      <trkpt lat="43.6538" lon="3.34964">
        <ele>187.3</ele>
        <time>2026-05-17T13:21:38.999Z</time>
      </trkpt>
      <trkpt lat="43.6538" lon="3.34966">
        <ele>187.4</ele>
        <time>2026-05-17T13:21:39.999Z</time>
      </trkpt>
      <trkpt lat="43.6538" lon="3.34967">
        <ele>187.3</ele>
        <time>2026-05-17T13:21:40.999Z</time>
      </trkpt>
      <trkpt lat="43.65379" lon="3.34968">
        <ele>187.5</ele>
        <time>2026-05-17T13:21:41.999Z</time>
      </trkpt>
      <trkpt lat="43.65378" lon="3.3497">
        <ele>188</ele>
        <time>2026-05-17T13:21:42.999Z</time>
      </trkpt>
      <trkpt lat="43.65378" lon="3.34971">
        <ele>188.1</ele>
        <time>2026-05-17T13:21:43.999Z</time>
      </trkpt>
      <trkpt lat="43.65377" lon="3.34972">
        <ele>187.9</ele>
        <time>2026-05-17T13:21:44.999Z</time>
      </trkpt>
      <trkpt lat="43.65378" lon="3.34973">
        <ele>188</ele>
        <time>2026-05-17T13:21:45.999Z</time>
      </trkpt>
      <trkpt lat="43.65378" lon="3.34975">
        <ele>187.5</ele>
        <time>2026-05-17T13:21:46.999Z</time>
      </trkpt>
      <trkpt lat="43.65378" lon="3.34977">
        <ele>187.6</ele>
        <time>2026-05-17T13:21:47.999Z</time>
      </trkpt>
      <trkpt lat="43.65377" lon="3.34978">
        <ele>187.1</ele>
        <time>2026-05-17T13:21:48.999Z</time>
      </trkpt>
      <trkpt lat="43.65377" lon="3.34979">
        <ele>187.5</ele>
        <time>2026-05-17T13:21:49.999Z</time>
      </trkpt>
      <trkpt lat="43.65376" lon="3.3498">
        <ele>187.7</ele>
        <time>2026-05-17T13:21:50.999Z</time>
      </trkpt>
      <trkpt lat="43.65375" lon="3.34981">
        <ele>187.6</ele>
        <time>2026-05-17T13:21:51.999Z</time>
      </trkpt>
      <trkpt lat="43.65374" lon="3.34983">
        <ele>187.6</ele>
        <time>2026-05-17T13:21:52.999Z</time>
      </trkpt>
      <trkpt lat="43.65373" lon="3.34985">
        <ele>187.4</ele>
        <time>2026-05-17T13:21:53.999Z</time>
      </trkpt>
      <trkpt lat="43.65371" lon="3.34987">
        <ele>187.1</ele>
        <time>2026-05-17T13:21:54.999Z</time>
      </trkpt>
      <trkpt lat="43.65371" lon="3.34988">
        <ele>186.9</ele>
        <time>2026-05-17T13:21:55.999Z</time>
      </trkpt>
      <trkpt lat="43.65371" lon="3.34989">
        <ele>186.8</ele>
        <time>2026-05-17T13:21:56.999Z</time>
      </trkpt>
      <trkpt lat="43.6537" lon="3.3499">
        <ele>187</ele>
        <time>2026-05-17T13:21:57.999Z</time>
      </trkpt>
      <trkpt lat="43.6537" lon="3.34991">
        <ele>187.1</ele>
        <time>2026-05-17T13:21:58.999Z</time>
      </trkpt>
      <trkpt lat="43.65369" lon="3.34992">
        <ele>187.1</ele>
        <time>2026-05-17T13:21:59.999Z</time>
      </trkpt>
      <trkpt lat="43.65368" lon="3.34994">
        <ele>187.7</ele>
        <time>2026-05-17T13:22:00.999Z</time>
      </trkpt>
      <trkpt lat="43.65367" lon="3.34996">
        <ele>188</ele>
        <time>2026-05-17T13:22:01.999Z</time>
      </trkpt>
      <trkpt lat="43.65367" lon="3.34997">
        <ele>188.2</ele>
        <time>2026-05-17T13:22:02.999Z</time>
      </trkpt>
      <trkpt lat="43.65367" lon="3.34999">
        <ele>188.3</ele>
        <time>2026-05-17T13:22:03.999Z</time>
      </trkpt>
      <trkpt lat="43.65366" lon="3.35">
        <ele>188.1</ele>
        <time>2026-05-17T13:22:04.999Z</time>
      </trkpt>
      <trkpt lat="43.65366" lon="3.35001">
        <ele>188.1</ele>
        <time>2026-05-17T13:22:05.999Z</time>
      </trkpt>
      <trkpt lat="43.65365" lon="3.35003">
        <ele>188</ele>
        <time>2026-05-17T13:22:06.999Z</time>
      </trkpt>
      <trkpt lat="43.65365" lon="3.35005">
        <ele>188.1</ele>
        <time>2026-05-17T13:22:07.999Z</time>
      </trkpt>
      <trkpt lat="43.65364" lon="3.35006">
        <ele>188.3</ele>
        <time>2026-05-17T13:22:08.999Z</time>
      </trkpt>
      <trkpt lat="43.65363" lon="3.35007">
        <ele>188.4</ele>
        <time>2026-05-17T13:22:09.999Z</time>
      </trkpt>
      <trkpt lat="43.65363" lon="3.35008">
        <ele>188.4</ele>
        <time>2026-05-17T13:22:10.999Z</time>
      </trkpt>
      <trkpt lat="43.65362" lon="3.35009">
        <ele>188.4</ele>
        <time>2026-05-17T13:22:11.999Z</time>
      </trkpt>
      <trkpt lat="43.65361" lon="3.3501">
        <ele>188.8</ele>
        <time>2026-05-17T13:22:12.999Z</time>
      </trkpt>
      <trkpt lat="43.6536" lon="3.35012">
        <ele>188.9</ele>
        <time>2026-05-17T13:22:13.999Z</time>
      </trkpt>
      <trkpt lat="43.65359" lon="3.35012">
        <ele>188.6</ele>
        <time>2026-05-17T13:22:14.999Z</time>
      </trkpt>
      <trkpt lat="43.65358" lon="3.35014">
        <ele>188.3</ele>
        <time>2026-05-17T13:22:15.999Z</time>
      </trkpt>
      <trkpt lat="43.65358" lon="3.35015">
        <ele>188.4</ele>
        <time>2026-05-17T13:22:16.999Z</time>
      </trkpt>
      <trkpt lat="43.65358" lon="3.35016">
        <ele>188.4</ele>
        <time>2026-05-17T13:22:17.999Z</time>
      </trkpt>
      <trkpt lat="43.65357" lon="3.35018">
        <ele>188.6</ele>
        <time>2026-05-17T13:22:18.999Z</time>
      </trkpt>
      <trkpt lat="43.65357" lon="3.3502">
        <ele>188.9</ele>
        <time>2026-05-17T13:22:19.999Z</time>
      </trkpt>
      <trkpt lat="43.65357" lon="3.35023">
        <ele>188.9</ele>
        <time>2026-05-17T13:22:20.999Z</time>
      </trkpt>
      <trkpt lat="43.65356" lon="3.35025">
        <ele>189.1</ele>
        <time>2026-05-17T13:22:21.999Z</time>
      </trkpt>
      <trkpt lat="43.65356" lon="3.35026">
        <ele>189.2</ele>
        <time>2026-05-17T13:22:22.999Z</time>
      </trkpt>
      <trkpt lat="43.65355" lon="3.35027">
        <ele>189.4</ele>
        <time>2026-05-17T13:22:23.999Z</time>
      </trkpt>
      <trkpt lat="43.65355" lon="3.35027">
        <ele>189.5</ele>
        <time>2026-05-17T13:22:24.999Z</time>
      </trkpt>
      <trkpt lat="43.65355" lon="3.35028">
        <ele>189.3</ele>
        <time>2026-05-17T13:22:25.999Z</time>
      </trkpt>
      <trkpt lat="43.65355" lon="3.3503">
        <ele>189.4</ele>
        <time>2026-05-17T13:22:26.999Z</time>
      </trkpt>
      <trkpt lat="43.65354" lon="3.35032">
        <ele>189.3</ele>
        <time>2026-05-17T13:22:27.999Z</time>
      </trkpt>
      <trkpt lat="43.65354" lon="3.35033">
        <ele>189.4</ele>
        <time>2026-05-17T13:22:28.999Z</time>
      </trkpt>
      <trkpt lat="43.65354" lon="3.35035">
        <ele>189.5</ele>
        <time>2026-05-17T13:22:29.999Z</time>
      </trkpt>
      <trkpt lat="43.65354" lon="3.35036">
        <ele>189.3</ele>
        <time>2026-05-17T13:22:30.999Z</time>
      </trkpt>
      <trkpt lat="43.65353" lon="3.35037">
        <ele>189.5</ele>
        <time>2026-05-17T13:22:31.999Z</time>
      </trkpt>
      <trkpt lat="43.65352" lon="3.35038">
        <ele>189.6</ele>
        <time>2026-05-17T13:22:32.999Z</time>
      </trkpt>
      <trkpt lat="43.65351" lon="3.35038">
        <ele>189.5</ele>
        <time>2026-05-17T13:22:33.999Z</time>
      </trkpt>
      <trkpt lat="43.65349" lon="3.35037">
        <ele>189.4</ele>
        <time>2026-05-17T13:22:34.999Z</time>
      </trkpt>
      <trkpt lat="43.65348" lon="3.35036">
        <ele>189.3</ele>
        <time>2026-05-17T13:22:35.999Z</time>
      </trkpt>
      <trkpt lat="43.65347" lon="3.35035">
        <ele>189.5</ele>
        <time>2026-05-17T13:22:36.999Z</time>
      </trkpt>
      <trkpt lat="43.65346" lon="3.35034">
        <ele>189.6</ele>
        <time>2026-05-17T13:22:37.999Z</time>
      </trkpt>
      <trkpt lat="43.65344" lon="3.35033">
        <ele>189.4</ele>
        <time>2026-05-17T13:22:38.999Z</time>
      </trkpt>
      <trkpt lat="43.65343" lon="3.35033">
        <ele>189.3</ele>
        <time>2026-05-17T13:22:39.999Z</time>
      </trkpt>
      <trkpt lat="43.65341" lon="3.35032">
        <ele>189.2</ele>
        <time>2026-05-17T13:22:40.999Z</time>
      </trkpt>
      <trkpt lat="43.6534" lon="3.35032">
        <ele>189.1</ele>
        <time>2026-05-17T13:22:41.999Z</time>
      </trkpt>
      <trkpt lat="43.6534" lon="3.35031">
        <ele>189.1</ele>
        <time>2026-05-17T13:22:42.999Z</time>
      </trkpt>
      <trkpt lat="43.6534" lon="3.35031">
        <ele>189</ele>
        <time>2026-05-17T13:22:43.999Z</time>
      </trkpt>
      <trkpt lat="43.65339" lon="3.3503">
        <ele>188.9</ele>
        <time>2026-05-17T13:22:44.999Z</time>
      </trkpt>
      <trkpt lat="43.65337" lon="3.3503">
        <ele>188.6</ele>
        <time>2026-05-17T13:22:45.999Z</time>
      </trkpt>
      <trkpt lat="43.65336" lon="3.35029">
        <ele>188.5</ele>
        <time>2026-05-17T13:22:46.999Z</time>
      </trkpt>
      <trkpt lat="43.65335" lon="3.35029">
        <ele>188.5</ele>
        <time>2026-05-17T13:22:47.999Z</time>
      </trkpt>
      <trkpt lat="43.65334" lon="3.35028">
        <ele>188.4</ele>
        <time>2026-05-17T13:22:48.999Z</time>
      </trkpt>
      <trkpt lat="43.65333" lon="3.35028">
        <ele>188.3</ele>
        <time>2026-05-17T13:22:49.999Z</time>
      </trkpt>
      <trkpt lat="43.65332" lon="3.35026">
        <ele>188.4</ele>
        <time>2026-05-17T13:22:50.999Z</time>
      </trkpt>
      <trkpt lat="43.65331" lon="3.35025">
        <ele>188.7</ele>
        <time>2026-05-17T13:22:51.999Z</time>
      </trkpt>
      <trkpt lat="43.6533" lon="3.35023">
        <ele>189</ele>
        <time>2026-05-17T13:22:52.999Z</time>
      </trkpt>
      <trkpt lat="43.65329" lon="3.35022">
        <ele>189.7</ele>
        <time>2026-05-17T13:22:53.999Z</time>
      </trkpt>
      <trkpt lat="43.65328" lon="3.3502">
        <ele>189.8</ele>
        <time>2026-05-17T13:22:54.999Z</time>
      </trkpt>
      <trkpt lat="43.65327" lon="3.35019">
        <ele>189.5</ele>
        <time>2026-05-17T13:22:55.999Z</time>
      </trkpt>
      <trkpt lat="43.65326" lon="3.35018">
        <ele>189.1</ele>
        <time>2026-05-17T13:22:56.999Z</time>
      </trkpt>
      <trkpt lat="43.65325" lon="3.35017">
        <ele>188.5</ele>
        <time>2026-05-17T13:22:57.999Z</time>
      </trkpt>
      <trkpt lat="43.65324" lon="3.35017">
        <ele>188.3</ele>
        <time>2026-05-17T13:22:58.999Z</time>
      </trkpt>
      <trkpt lat="43.65323" lon="3.35017">
        <ele>188.4</ele>
        <time>2026-05-17T13:22:59.999Z</time>
      </trkpt>
      <trkpt lat="43.65321" lon="3.35018">
        <ele>188.5</ele>
        <time>2026-05-17T13:23:00.999Z</time>
      </trkpt>
      <trkpt lat="43.6532" lon="3.35018">
        <ele>188.4</ele>
        <time>2026-05-17T13:23:01.999Z</time>
      </trkpt>
      <trkpt lat="43.65319" lon="3.35018">
        <ele>188.2</ele>
        <time>2026-05-17T13:23:02.999Z</time>
      </trkpt>
      <trkpt lat="43.65318" lon="3.35018">
        <ele>188</ele>
        <time>2026-05-17T13:23:03.999Z</time>
      </trkpt>
      <trkpt lat="43.65318" lon="3.35017">
        <ele>188.1</ele>
        <time>2026-05-17T13:23:04.999Z</time>
      </trkpt>
      <trkpt lat="43.65318" lon="3.35017">
        <ele>187.9</ele>
        <time>2026-05-17T13:23:05.999Z</time>
      </trkpt>
      <trkpt lat="43.65316" lon="3.35017">
        <ele>187.7</ele>
        <time>2026-05-17T13:23:06.999Z</time>
      </trkpt>
      <trkpt lat="43.65315" lon="3.35016">
        <ele>187.2</ele>
        <time>2026-05-17T13:23:07.999Z</time>
      </trkpt>
      <trkpt lat="43.65314" lon="3.35016">
        <ele>187</ele>
        <time>2026-05-17T13:23:08.999Z</time>
      </trkpt>
      <trkpt lat="43.65312" lon="3.35015">
        <ele>186.6</ele>
        <time>2026-05-17T13:23:09.999Z</time>
      </trkpt>
      <trkpt lat="43.65311" lon="3.35015">
        <ele>186.3</ele>
        <time>2026-05-17T13:23:10.999Z</time>
      </trkpt>
      <trkpt lat="43.65311" lon="3.35015">
        <ele>185.8</ele>
        <time>2026-05-17T13:23:11.999Z</time>
      </trkpt>
      <trkpt lat="43.6531" lon="3.35014">
        <ele>185.5</ele>
        <time>2026-05-17T13:23:12.999Z</time>
      </trkpt>
      <trkpt lat="43.65309" lon="3.35014">
        <ele>185.3</ele>
        <time>2026-05-17T13:23:13.999Z</time>
      </trkpt>
      <trkpt lat="43.65307" lon="3.35012">
        <ele>185.6</ele>
        <time>2026-05-17T13:23:14.999Z</time>
      </trkpt>
      <trkpt lat="43.65306" lon="3.35012">
        <ele>186.1</ele>
        <time>2026-05-17T13:23:15.999Z</time>
      </trkpt>
      <trkpt lat="43.65304" lon="3.35011">
        <ele>186.1</ele>
        <time>2026-05-17T13:23:16.999Z</time>
      </trkpt>
      <trkpt lat="43.65302" lon="3.35011">
        <ele>186</ele>
        <time>2026-05-17T13:23:17.999Z</time>
      </trkpt>
      <trkpt lat="43.653" lon="3.35011">
        <ele>186.2</ele>
        <time>2026-05-17T13:23:18.999Z</time>
      </trkpt>
      <trkpt lat="43.65298" lon="3.35011">
        <ele>185.9</ele>
        <time>2026-05-17T13:23:19.999Z</time>
      </trkpt>
      <trkpt lat="43.65297" lon="3.3501">
        <ele>186</ele>
        <time>2026-05-17T13:23:20.999Z</time>
      </trkpt>
      <trkpt lat="43.65296" lon="3.35009">
        <ele>186</ele>
        <time>2026-05-17T13:23:21.999Z</time>
      </trkpt>
      <trkpt lat="43.65295" lon="3.35008">
        <ele>186.2</ele>
        <time>2026-05-17T13:23:22.999Z</time>
      </trkpt>
      <trkpt lat="43.65294" lon="3.35008">
        <ele>186</ele>
        <time>2026-05-17T13:23:23.999Z</time>
      </trkpt>
      <trkpt lat="43.65294" lon="3.35007">
        <ele>185.8</ele>
        <time>2026-05-17T13:23:24.999Z</time>
      </trkpt>
      <trkpt lat="43.65293" lon="3.35005">
        <ele>185.9</ele>
        <time>2026-05-17T13:23:25.999Z</time>
      </trkpt>
      <trkpt lat="43.65293" lon="3.35004">
        <ele>186.4</ele>
        <time>2026-05-17T13:23:26.999Z</time>
      </trkpt>
      <trkpt lat="43.65292" lon="3.35003">
        <ele>186.3</ele>
        <time>2026-05-17T13:23:27.999Z</time>
      </trkpt>
      <trkpt lat="43.6529" lon="3.35001">
        <ele>186.5</ele>
        <time>2026-05-17T13:23:28.999Z</time>
      </trkpt>
      <trkpt lat="43.65289" lon="3.35">
        <ele>186.3</ele>
        <time>2026-05-17T13:23:29.999Z</time>
      </trkpt>
      <trkpt lat="43.65288" lon="3.35">
        <ele>186.2</ele>
        <time>2026-05-17T13:23:30.999Z</time>
      </trkpt>
      <trkpt lat="43.65288" lon="3.34999">
        <ele>186</ele>
        <time>2026-05-17T13:23:31.999Z</time>
      </trkpt>
      <trkpt lat="43.65287" lon="3.34999">
        <ele>186</ele>
        <time>2026-05-17T13:23:32.999Z</time>
      </trkpt>
      <trkpt lat="43.65286" lon="3.34997">
        <ele>185.9</ele>
        <time>2026-05-17T13:23:33.999Z</time>
      </trkpt>
      <trkpt lat="43.65285" lon="3.34996">
        <ele>185.8</ele>
        <time>2026-05-17T13:23:34.999Z</time>
      </trkpt>
      <trkpt lat="43.65285" lon="3.34995">
        <ele>185.4</ele>
        <time>2026-05-17T13:23:35.999Z</time>
      </trkpt>
      <trkpt lat="43.65283" lon="3.34994">
        <ele>185.4</ele>
        <time>2026-05-17T13:23:36.999Z</time>
      </trkpt>
      <trkpt lat="43.65282" lon="3.34993">
        <ele>185.3</ele>
        <time>2026-05-17T13:23:37.999Z</time>
      </trkpt>
      <trkpt lat="43.65282" lon="3.34992">
        <ele>185.2</ele>
        <time>2026-05-17T13:23:38.999Z</time>
      </trkpt>
      <trkpt lat="43.65281" lon="3.34992">
        <ele>185.2</ele>
        <time>2026-05-17T13:23:39.999Z</time>
      </trkpt>
      <trkpt lat="43.65281" lon="3.3499">
        <ele>185.2</ele>
        <time>2026-05-17T13:23:40.999Z</time>
      </trkpt>
      <trkpt lat="43.65281" lon="3.34989">
        <ele>185.3</ele>
        <time>2026-05-17T13:23:41.999Z</time>
      </trkpt>
      <trkpt lat="43.6528" lon="3.34987">
        <ele>185.7</ele>
        <time>2026-05-17T13:23:42.999Z</time>
      </trkpt>
      <trkpt lat="43.6528" lon="3.34985">
        <ele>185.7</ele>
        <time>2026-05-17T13:23:43.999Z</time>
      </trkpt>
      <trkpt lat="43.65279" lon="3.34984">
        <ele>186.1</ele>
        <time>2026-05-17T13:23:44.999Z</time>
      </trkpt>
      <trkpt lat="43.65278" lon="3.34983">
        <ele>185.9</ele>
        <time>2026-05-17T13:23:45.999Z</time>
      </trkpt>
      <trkpt lat="43.65278" lon="3.34983">
        <ele>185.8</ele>
        <time>2026-05-17T13:23:46.999Z</time>
      </trkpt>
      <trkpt lat="43.65277" lon="3.34982">
        <ele>185.7</ele>
        <time>2026-05-17T13:23:47.999Z</time>
      </trkpt>
      <trkpt lat="43.65277" lon="3.34982">
        <ele>185.7</ele>
        <time>2026-05-17T13:23:48.999Z</time>
      </trkpt>
      <trkpt lat="43.65276" lon="3.34982">
        <ele>185.6</ele>
        <time>2026-05-17T13:23:49.999Z</time>
      </trkpt>
      <trkpt lat="43.65274" lon="3.34981">
        <ele>185.5</ele>
        <time>2026-05-17T13:23:50.999Z</time>
      </trkpt>
      <trkpt lat="43.65274" lon="3.34981">
        <ele>185.4</ele>
        <time>2026-05-17T13:23:51.999Z</time>
      </trkpt>
      <trkpt lat="43.65272" lon="3.3498">
        <ele>185.3</ele>
        <time>2026-05-17T13:23:52.999Z</time>
      </trkpt>
      <trkpt lat="43.65271" lon="3.34979">
        <ele>185.2</ele>
        <time>2026-05-17T13:23:53.999Z</time>
      </trkpt>
      <trkpt lat="43.6527" lon="3.34979">
        <ele>185.1</ele>
        <time>2026-05-17T13:23:54.999Z</time>
      </trkpt>
      <trkpt lat="43.65269" lon="3.3498">
        <ele>185</ele>
        <time>2026-05-17T13:23:55.999Z</time>
      </trkpt>
      <trkpt lat="43.65268" lon="3.34981">
        <ele>184.6</ele>
        <time>2026-05-17T13:23:56.999Z</time>
      </trkpt>
      <trkpt lat="43.65267" lon="3.34981">
        <ele>184.4</ele>
        <time>2026-05-17T13:23:57.999Z</time>
      </trkpt>
      <trkpt lat="43.65266" lon="3.34981">
        <ele>184.4</ele>
        <time>2026-05-17T13:23:58.999Z</time>
      </trkpt>
      <trkpt lat="43.65264" lon="3.34981">
        <ele>184.2</ele>
        <time>2026-05-17T13:23:59.999Z</time>
      </trkpt>
      <trkpt lat="43.65263" lon="3.34981">
        <ele>183.9</ele>
        <time>2026-05-17T13:24:00.999Z</time>
      </trkpt>
      <trkpt lat="43.65262" lon="3.34981">
        <ele>184.1</ele>
        <time>2026-05-17T13:24:01.999Z</time>
      </trkpt>
      <trkpt lat="43.65261" lon="3.34981">
        <ele>184.3</ele>
        <time>2026-05-17T13:24:02.999Z</time>
      </trkpt>
      <trkpt lat="43.6526" lon="3.34981">
        <ele>184.6</ele>
        <time>2026-05-17T13:24:03.999Z</time>
      </trkpt>
      <trkpt lat="43.65259" lon="3.34982">
        <ele>185</ele>
        <time>2026-05-17T13:24:04.999Z</time>
      </trkpt>
      <trkpt lat="43.65257" lon="3.34982">
        <ele>184.7</ele>
        <time>2026-05-17T13:24:05.999Z</time>
      </trkpt>
      <trkpt lat="43.65256" lon="3.34981">
        <ele>184.4</ele>
        <time>2026-05-17T13:24:06.999Z</time>
      </trkpt>
      <trkpt lat="43.65255" lon="3.34981">
        <ele>184.1</ele>
        <time>2026-05-17T13:24:07.999Z</time>
      </trkpt>
      <trkpt lat="43.65254" lon="3.3498">
        <ele>184.1</ele>
        <time>2026-05-17T13:24:08.999Z</time>
      </trkpt>
      <trkpt lat="43.65254" lon="3.34979">
        <ele>184.2</ele>
        <time>2026-05-17T13:24:09.999Z</time>
      </trkpt>
      <trkpt lat="43.65253" lon="3.34979">
        <ele>184</ele>
        <time>2026-05-17T13:24:10.999Z</time>
      </trkpt>
      <trkpt lat="43.65253" lon="3.34978">
        <ele>183.8</ele>
        <time>2026-05-17T13:24:11.999Z</time>
      </trkpt>
      <trkpt lat="43.65251" lon="3.34977">
        <ele>183.8</ele>
        <time>2026-05-17T13:24:12.999Z</time>
      </trkpt>
      <trkpt lat="43.6525" lon="3.34976">
        <ele>183.8</ele>
        <time>2026-05-17T13:24:13.999Z</time>
      </trkpt>
      <trkpt lat="43.65249" lon="3.34975">
        <ele>184</ele>
        <time>2026-05-17T13:24:14.999Z</time>
      </trkpt>
      <trkpt lat="43.65248" lon="3.34975">
        <ele>184.6</ele>
        <time>2026-05-17T13:24:15.999Z</time>
      </trkpt>
      <trkpt lat="43.65247" lon="3.34976">
        <ele>184.6</ele>
        <time>2026-05-17T13:24:16.999Z</time>
      </trkpt>
      <trkpt lat="43.65247" lon="3.34977">
        <ele>184.8</ele>
        <time>2026-05-17T13:24:17.999Z</time>
      </trkpt>
      <trkpt lat="43.65246" lon="3.34978">
        <ele>185.1</ele>
        <time>2026-05-17T13:24:18.999Z</time>
      </trkpt>
      <trkpt lat="43.65246" lon="3.3498">
        <ele>185.4</ele>
        <time>2026-05-17T13:24:19.999Z</time>
      </trkpt>
      <trkpt lat="43.65246" lon="3.34981">
        <ele>185.6</ele>
        <time>2026-05-17T13:24:20.999Z</time>
      </trkpt>
      <trkpt lat="43.65246" lon="3.34983">
        <ele>185.6</ele>
        <time>2026-05-17T13:24:21.999Z</time>
      </trkpt>
      <trkpt lat="43.65247" lon="3.34984">
        <ele>186.1</ele>
        <time>2026-05-17T13:24:22.999Z</time>
      </trkpt>
      <trkpt lat="43.65248" lon="3.34985">
        <ele>186.3</ele>
        <time>2026-05-17T13:24:23.999Z</time>
      </trkpt>
      <trkpt lat="43.65248" lon="3.34986">
        <ele>186.7</ele>
        <time>2026-05-17T13:24:24.999Z</time>
      </trkpt>
      <trkpt lat="43.65248" lon="3.34987">
        <ele>186.7</ele>
        <time>2026-05-17T13:24:25.999Z</time>
      </trkpt>
      <trkpt lat="43.65248" lon="3.34988">
        <ele>186.8</ele>
        <time>2026-05-17T13:24:26.999Z</time>
      </trkpt>
      <trkpt lat="43.65247" lon="3.34989">
        <ele>186.9</ele>
        <time>2026-05-17T13:24:27.999Z</time>
      </trkpt>
      <trkpt lat="43.65246" lon="3.34991">
        <ele>187.2</ele>
        <time>2026-05-17T13:24:28.999Z</time>
      </trkpt>
      <trkpt lat="43.65247" lon="3.34993">
        <ele>187.6</ele>
        <time>2026-05-17T13:24:29.999Z</time>
      </trkpt>
      <trkpt lat="43.65247" lon="3.34994">
        <ele>188</ele>
        <time>2026-05-17T13:24:30.999Z</time>
      </trkpt>
      <trkpt lat="43.65247" lon="3.34996">
        <ele>188.2</ele>
        <time>2026-05-17T13:24:31.999Z</time>
      </trkpt>
      <trkpt lat="43.65247" lon="3.34997">
        <ele>188.8</ele>
        <time>2026-05-17T13:24:32.999Z</time>
      </trkpt>
      <trkpt lat="43.65247" lon="3.34998">
        <ele>188.9</ele>
        <time>2026-05-17T13:24:33.999Z</time>
      </trkpt>
      <trkpt lat="43.65247" lon="3.34999">
        <ele>189.4</ele>
        <time>2026-05-17T13:24:34.999Z</time>
      </trkpt>
      <trkpt lat="43.65246" lon="3.35001">
        <ele>189.7</ele>
        <time>2026-05-17T13:24:35.999Z</time>
      </trkpt>
      <trkpt lat="43.65246" lon="3.35003">
        <ele>189.4</ele>
        <time>2026-05-17T13:24:36.999Z</time>
      </trkpt>
      <trkpt lat="43.65246" lon="3.35003">
        <ele>189.3</ele>
        <time>2026-05-17T13:24:37.999Z</time>
      </trkpt>
      <trkpt lat="43.65246" lon="3.35004">
        <ele>189.4</ele>
        <time>2026-05-17T13:24:38.999Z</time>
      </trkpt>
      <trkpt lat="43.65246" lon="3.35005">
        <ele>189.2</ele>
        <time>2026-05-17T13:24:39.999Z</time>
      </trkpt>
      <trkpt lat="43.65246" lon="3.35005">
        <ele>189.2</ele>
        <time>2026-05-17T13:24:40.999Z</time>
      </trkpt>
      <trkpt lat="43.65246" lon="3.35006">
        <ele>189.1</ele>
        <time>2026-05-17T13:24:41.999Z</time>
      </trkpt>
      <trkpt lat="43.65245" lon="3.35006">
        <ele>188.7</ele>
        <time>2026-05-17T13:24:42.999Z</time>
      </trkpt>
      <trkpt lat="43.65245" lon="3.35007">
        <ele>188.5</ele>
        <time>2026-05-17T13:24:43.999Z</time>
      </trkpt>
      <trkpt lat="43.65244" lon="3.35008">
        <ele>188.5</ele>
        <time>2026-05-17T13:24:44.999Z</time>
      </trkpt>
      <trkpt lat="43.65244" lon="3.35009">
        <ele>188.6</ele>
        <time>2026-05-17T13:24:45.999Z</time>
      </trkpt>
      <trkpt lat="43.65244" lon="3.3501">
        <ele>188.7</ele>
        <time>2026-05-17T13:24:46.999Z</time>
      </trkpt>
      <trkpt lat="43.65244" lon="3.35012">
        <ele>189</ele>
        <time>2026-05-17T13:24:47.999Z</time>
      </trkpt>
      <trkpt lat="43.65244" lon="3.35013">
        <ele>189.3</ele>
        <time>2026-05-17T13:24:48.999Z</time>
      </trkpt>
      <trkpt lat="43.65243" lon="3.35014">
        <ele>189.6</ele>
        <time>2026-05-17T13:24:49.999Z</time>
      </trkpt>
      <trkpt lat="43.65243" lon="3.35015">
        <ele>189.7</ele>
        <time>2026-05-17T13:24:50.999Z</time>
      </trkpt>
      <trkpt lat="43.65243" lon="3.35016">
        <ele>190.2</ele>
        <time>2026-05-17T13:24:51.999Z</time>
      </trkpt>
      <trkpt lat="43.65244" lon="3.35018">
        <ele>190.9</ele>
        <time>2026-05-17T13:24:52.999Z</time>
      </trkpt>
      <trkpt lat="43.65244" lon="3.3502">
        <ele>190.9</ele>
        <time>2026-05-17T13:24:53.999Z</time>
      </trkpt>
      <trkpt lat="43.65245" lon="3.35021">
        <ele>190.8</ele>
        <time>2026-05-17T13:24:54.999Z</time>
      </trkpt>
      <trkpt lat="43.65246" lon="3.35022">
        <ele>190.4</ele>
        <time>2026-05-17T13:24:55.999Z</time>
      </trkpt>
      <trkpt lat="43.65246" lon="3.35023">
        <ele>190</ele>
        <time>2026-05-17T13:24:56.999Z</time>
      </trkpt>
      <trkpt lat="43.65247" lon="3.35024">
        <ele>189.7</ele>
        <time>2026-05-17T13:24:57.999Z</time>
      </trkpt>
      <trkpt lat="43.65247" lon="3.35024">
        <ele>189.4</ele>
        <time>2026-05-17T13:24:58.999Z</time>
      </trkpt>
      <trkpt lat="43.65247" lon="3.35024">
        <ele>188.8</ele>
        <time>2026-05-17T13:24:59.999Z</time>
      </trkpt>
      <trkpt lat="43.65247" lon="3.35024">
        <ele>188.7</ele>
        <time>2026-05-17T13:25:00.999Z</time>
      </trkpt>
      <trkpt lat="43.65247" lon="3.35026">
        <ele>188.7</ele>
        <time>2026-05-17T13:25:02.000Z</time>
      </trkpt>
      <trkpt lat="43.65248" lon="3.35028">
        <ele>189</ele>
        <time>2026-05-17T13:25:03.000Z</time>
      </trkpt>
      <trkpt lat="43.65249" lon="3.3503">
        <ele>189</ele>
        <time>2026-05-17T13:25:04.000Z</time>
      </trkpt>
      <trkpt lat="43.6525" lon="3.35031">
        <ele>189.2</ele>
        <time>2026-05-17T13:25:05.000Z</time>
      </trkpt>
      <trkpt lat="43.6525" lon="3.35031">
        <ele>189.3</ele>
        <time>2026-05-17T13:25:06.000Z</time>
      </trkpt>
      <trkpt lat="43.65251" lon="3.35032">
        <ele>189.6</ele>
        <time>2026-05-17T13:25:07.000Z</time>
      </trkpt>
      <trkpt lat="43.65251" lon="3.35032">
        <ele>189.7</ele>
        <time>2026-05-17T13:25:08.000Z</time>
      </trkpt>
      <trkpt lat="43.65252" lon="3.35034">
        <ele>189.7</ele>
        <time>2026-05-17T13:25:09.000Z</time>
      </trkpt>
      <trkpt lat="43.65252" lon="3.35035">
        <ele>189.7</ele>
        <time>2026-05-17T13:25:10.000Z</time>
      </trkpt>
      <trkpt lat="43.65253" lon="3.35036">
        <ele>189.8</ele>
        <time>2026-05-17T13:25:11.000Z</time>
      </trkpt>
      <trkpt lat="43.65254" lon="3.35037">
        <ele>189.8</ele>
        <time>2026-05-17T13:25:12.000Z</time>
      </trkpt>
      <trkpt lat="43.65254" lon="3.35037">
        <ele>189.6</ele>
        <time>2026-05-17T13:25:13.000Z</time>
      </trkpt>
      <trkpt lat="43.65254" lon="3.35038">
        <ele>189.6</ele>
        <time>2026-05-17T13:25:14.000Z</time>
      </trkpt>
      <trkpt lat="43.65253" lon="3.35039">
        <ele>190</ele>
        <time>2026-05-17T13:25:15.000Z</time>
      </trkpt>
      <trkpt lat="43.65253" lon="3.35041">
        <ele>190.2</ele>
        <time>2026-05-17T13:25:16.000Z</time>
      </trkpt>
      <trkpt lat="43.65252" lon="3.35042">
        <ele>190.3</ele>
        <time>2026-05-17T13:25:17.000Z</time>
      </trkpt>
      <trkpt lat="43.65252" lon="3.35043">
        <ele>190.3</ele>
        <time>2026-05-17T13:25:18.000Z</time>
      </trkpt>
      <trkpt lat="43.65251" lon="3.35043">
        <ele>190.7</ele>
        <time>2026-05-17T13:25:19.000Z</time>
      </trkpt>
      <trkpt lat="43.65251" lon="3.35043">
        <ele>191.1</ele>
        <time>2026-05-17T13:25:20.000Z</time>
      </trkpt>
      <trkpt lat="43.6525" lon="3.35044">
        <ele>191</ele>
        <time>2026-05-17T13:25:21.000Z</time>
      </trkpt>
      <trkpt lat="43.6525" lon="3.35045">
        <ele>191</ele>
        <time>2026-05-17T13:25:22.000Z</time>
      </trkpt>
      <trkpt lat="43.6525" lon="3.35046">
        <ele>190.9</ele>
        <time>2026-05-17T13:25:23.000Z</time>
      </trkpt>
      <trkpt lat="43.6525" lon="3.35046">
        <ele>190.7</ele>
        <time>2026-05-17T13:25:24.000Z</time>
      </trkpt>
      <trkpt lat="43.6525" lon="3.35046">
        <ele>190.5</ele>
        <time>2026-05-17T13:25:25.000Z</time>
      </trkpt>
      <trkpt lat="43.6525" lon="3.35048">
        <ele>190.4</ele>
        <time>2026-05-17T13:25:26.000Z</time>
      </trkpt>
      <trkpt lat="43.65249" lon="3.3505">
        <ele>190.2</ele>
        <time>2026-05-17T13:25:27.000Z</time>
      </trkpt>
      <trkpt lat="43.65249" lon="3.35051">
        <ele>190.3</ele>
        <time>2026-05-17T13:25:28.000Z</time>
      </trkpt>
      <trkpt lat="43.65248" lon="3.35051">
        <ele>190.3</ele>
        <time>2026-05-17T13:25:29.000Z</time>
      </trkpt>
      <trkpt lat="43.65248" lon="3.35051">
        <ele>190.2</ele>
        <time>2026-05-17T13:25:30.000Z</time>
      </trkpt>
      <trkpt lat="43.65248" lon="3.35051">
        <ele>190.4</ele>
        <time>2026-05-17T13:25:31.000Z</time>
      </trkpt>
      <trkpt lat="43.65248" lon="3.35051">
        <ele>190.3</ele>
        <time>2026-05-17T13:25:32.000Z</time>
      </trkpt>
      <trkpt lat="43.65247" lon="3.35052">
        <ele>190.5</ele>
        <time>2026-05-17T13:25:33.000Z</time>
      </trkpt>
      <trkpt lat="43.65247" lon="3.35052">
        <ele>190.5</ele>
        <time>2026-05-17T13:25:34.000Z</time>
      </trkpt>
      <trkpt lat="43.65246" lon="3.35053">
        <ele>190.4</ele>
        <time>2026-05-17T13:25:35.000Z</time>
      </trkpt>
      <trkpt lat="43.65245" lon="3.35054">
        <ele>190.4</ele>
        <time>2026-05-17T13:25:36.000Z</time>
      </trkpt>
      <trkpt lat="43.65244" lon="3.35055">
        <ele>190.4</ele>
        <time>2026-05-17T13:25:37.000Z</time>
      </trkpt>
      <trkpt lat="43.65243" lon="3.35056">
        <ele>190.6</ele>
        <time>2026-05-17T13:25:38.000Z</time>
      </trkpt>
      <trkpt lat="43.65242" lon="3.35056">
        <ele>190.4</ele>
        <time>2026-05-17T13:25:39.000Z</time>
      </trkpt>
      <trkpt lat="43.65242" lon="3.35057">
        <ele>190.3</ele>
        <time>2026-05-17T13:25:40.000Z</time>
      </trkpt>
      <trkpt lat="43.65241" lon="3.35057">
        <ele>190.2</ele>
        <time>2026-05-17T13:25:41.000Z</time>
      </trkpt>
      <trkpt lat="43.65241" lon="3.35057">
        <ele>190</ele>
        <time>2026-05-17T13:25:42.000Z</time>
      </trkpt>
      <trkpt lat="43.6524" lon="3.35058">
        <ele>189.8</ele>
        <time>2026-05-17T13:25:43.000Z</time>
      </trkpt>
      <trkpt lat="43.65239" lon="3.3506">
        <ele>189.8</ele>
        <time>2026-05-17T13:25:44.000Z</time>
      </trkpt>
      <trkpt lat="43.65238" lon="3.35061">
        <ele>189.6</ele>
        <time>2026-05-17T13:25:45.000Z</time>
      </trkpt>
      <trkpt lat="43.65237" lon="3.35062">
        <ele>189.4</ele>
        <time>2026-05-17T13:25:46.000Z</time>
      </trkpt>
      <trkpt lat="43.65236" lon="3.35062">
        <ele>189.2</ele>
        <time>2026-05-17T13:25:47.000Z</time>
      </trkpt>
      <trkpt lat="43.65235" lon="3.35063">
        <ele>189.1</ele>
        <time>2026-05-17T13:25:48.000Z</time>
      </trkpt>
      <trkpt lat="43.65234" lon="3.35063">
        <ele>188.7</ele>
        <time>2026-05-17T13:25:49.000Z</time>
      </trkpt>
      <trkpt lat="43.65233" lon="3.35063">
        <ele>188.8</ele>
        <time>2026-05-17T13:25:50.000Z</time>
      </trkpt>
      <trkpt lat="43.65233" lon="3.35063">
        <ele>188.9</ele>
        <time>2026-05-17T13:25:51.000Z</time>
      </trkpt>
      <trkpt lat="43.65234" lon="3.35064">
        <ele>188.6</ele>
        <time>2026-05-17T13:25:52.000Z</time>
      </trkpt>
      <trkpt lat="43.65235" lon="3.35065">
        <ele>188.5</ele>
        <time>2026-05-17T13:25:53.000Z</time>
      </trkpt>
      <trkpt lat="43.65236" lon="3.35065">
        <ele>188.8</ele>
        <time>2026-05-17T13:25:54.000Z</time>
      </trkpt>
      <trkpt lat="43.65236" lon="3.35065">
        <ele>189.1</ele>
        <time>2026-05-17T13:25:55.000Z</time>
      </trkpt>
      <trkpt lat="43.65236" lon="3.35065">
        <ele>189.6</ele>
        <time>2026-05-17T13:25:56.000Z</time>
      </trkpt>
      <trkpt lat="43.65236" lon="3.35065">
        <ele>189.7</ele>
        <time>2026-05-17T13:25:57.000Z</time>
      </trkpt>
      <trkpt lat="43.65236" lon="3.35065">
        <ele>189.6</ele>
        <time>2026-05-17T13:25:58.000Z</time>
      </trkpt>
      <trkpt lat="43.65236" lon="3.35065">
        <ele>189.9</ele>
        <time>2026-05-17T13:25:59.000Z</time>
      </trkpt>
      <trkpt lat="43.65236" lon="3.35065">
        <ele>190.3</ele>
        <time>2026-05-17T13:26:00.000Z</time>
      </trkpt>
      <trkpt lat="43.65236" lon="3.35065">
        <ele>190.5</ele>
        <time>2026-05-17T13:26:01.000Z</time>
      </trkpt>
      <trkpt lat="43.65236" lon="3.35065">
        <ele>190.7</ele>
        <time>2026-05-17T13:26:02.000Z</time>
      </trkpt>
      <trkpt lat="43.65236" lon="3.35066">
        <ele>190.9</ele>
        <time>2026-05-17T13:26:03.000Z</time>
      </trkpt>
      <trkpt lat="43.65236" lon="3.35066">
        <ele>191.1</ele>
        <time>2026-05-17T13:26:04.000Z</time>
      </trkpt>
      <trkpt lat="43.65236" lon="3.35066">
        <ele>191.3</ele>
        <time>2026-05-17T13:26:05.000Z</time>
      </trkpt>
      <trkpt lat="43.65236" lon="3.35066">
        <ele>191.3</ele>
        <time>2026-05-17T13:26:06.000Z</time>
      </trkpt>
      <trkpt lat="43.65236" lon="3.35066">
        <ele>191.7</ele>
        <time>2026-05-17T13:26:07.000Z</time>
      </trkpt>
      <trkpt lat="43.65236" lon="3.35066">
        <ele>191.7</ele>
        <time>2026-05-17T13:26:08.000Z</time>
      </trkpt>
      <trkpt lat="43.65236" lon="3.35066">
        <ele>191.6</ele>
        <time>2026-05-17T13:26:09.000Z</time>
      </trkpt>
      <trkpt lat="43.65236" lon="3.35066">
        <ele>191.5</ele>
        <time>2026-05-17T13:26:10.000Z</time>
      </trkpt>
      <trkpt lat="43.65235" lon="3.35065">
        <ele>191.3</ele>
        <time>2026-05-17T13:26:11.000Z</time>
      </trkpt>
      <trkpt lat="43.65234" lon="3.35064">
        <ele>191.5</ele>
        <time>2026-05-17T13:26:12.000Z</time>
      </trkpt>
      <trkpt lat="43.65233" lon="3.35063">
        <ele>191.3</ele>
        <time>2026-05-17T13:26:13.000Z</time>
      </trkpt>
      <trkpt lat="43.65233" lon="3.35063">
        <ele>191</ele>
        <time>2026-05-17T13:26:14.000Z</time>
      </trkpt>
      <trkpt lat="43.65233" lon="3.35063">
        <ele>190.8</ele>
        <time>2026-05-17T13:26:15.000Z</time>
      </trkpt>
      <trkpt lat="43.65233" lon="3.35063">
        <ele>190.5</ele>
        <time>2026-05-17T13:26:16.000Z</time>
      </trkpt>
      <trkpt lat="43.65233" lon="3.35063">
        <ele>190.5</ele>
        <time>2026-05-17T13:26:17.000Z</time>
      </trkpt>
      <trkpt lat="43.65233" lon="3.35063">
        <ele>190.4</ele>
        <time>2026-05-17T13:26:18.000Z</time>
      </trkpt>
      <trkpt lat="43.65233" lon="3.35063">
        <ele>190.4</ele>
        <time>2026-05-17T13:26:19.000Z</time>
      </trkpt>
      <trkpt lat="43.65232" lon="3.35063">
        <ele>190.4</ele>
        <time>2026-05-17T13:26:20.000Z</time>
      </trkpt>
      <trkpt lat="43.65232" lon="3.35062">
        <ele>190.2</ele>
        <time>2026-05-17T13:26:21.000Z</time>
      </trkpt>
      <trkpt lat="43.65232" lon="3.35062">
        <ele>190.2</ele>
        <time>2026-05-17T13:26:22.000Z</time>
      </trkpt>
      <trkpt lat="43.65232" lon="3.35062">
        <ele>190</ele>
        <time>2026-05-17T13:26:23.000Z</time>
      </trkpt>
      <trkpt lat="43.65232" lon="3.35062">
        <ele>190</ele>
        <time>2026-05-17T13:26:24.000Z</time>
      </trkpt>
      <trkpt lat="43.65232" lon="3.35062">
        <ele>190.1</ele>
        <time>2026-05-17T13:26:25.000Z</time>
      </trkpt>
      <trkpt lat="43.65232" lon="3.35062">
        <ele>190.2</ele>
        <time>2026-05-17T13:26:26.000Z</time>
      </trkpt>
      <trkpt lat="43.65231" lon="3.35062">
        <ele>190.4</ele>
        <time>2026-05-17T13:26:27.000Z</time>
      </trkpt>
      <trkpt lat="43.65231" lon="3.35061">
        <ele>190.4</ele>
        <time>2026-05-17T13:26:28.000Z</time>
      </trkpt>
      <trkpt lat="43.65231" lon="3.35061">
        <ele>190.6</ele>
        <time>2026-05-17T13:26:29.000Z</time>
      </trkpt>
      <trkpt lat="43.65231" lon="3.35061">
        <ele>190.4</ele>
        <time>2026-05-17T13:26:30.000Z</time>
      </trkpt>
      <trkpt lat="43.65231" lon="3.35061">
        <ele>190.2</ele>
        <time>2026-05-17T13:26:31.000Z</time>
      </trkpt>
      <trkpt lat="43.6523" lon="3.35061">
        <ele>190</ele>
        <time>2026-05-17T13:26:32.000Z</time>
      </trkpt>
      <trkpt lat="43.6523" lon="3.35061">
        <ele>190</ele>
        <time>2026-05-17T13:26:33.000Z</time>
      </trkpt>
      <trkpt lat="43.6523" lon="3.35061">
        <ele>190.2</ele>
        <time>2026-05-17T13:26:34.000Z</time>
      </trkpt>
      <trkpt lat="43.6523" lon="3.3506">
        <ele>190.3</ele>
        <time>2026-05-17T13:26:35.000Z</time>
      </trkpt>
      <trkpt lat="43.65228" lon="3.35059">
        <ele>190.5</ele>
        <time>2026-05-17T13:26:36.000Z</time>
      </trkpt>
      <trkpt lat="43.65227" lon="3.35059">
        <ele>190.6</ele>
        <time>2026-05-17T13:26:37.000Z</time>
      </trkpt>
      <trkpt lat="43.65227" lon="3.35058">
        <ele>190.9</ele>
        <time>2026-05-17T13:26:38.000Z</time>
      </trkpt>
      <trkpt lat="43.65225" lon="3.35056">
        <ele>190.9</ele>
        <time>2026-05-17T13:26:39.000Z</time>
      </trkpt>
      <trkpt lat="43.65224" lon="3.35055">
        <ele>191</ele>
        <time>2026-05-17T13:26:40.000Z</time>
      </trkpt>
      <trkpt lat="43.65223" lon="3.35053">
        <ele>191.1</ele>
        <time>2026-05-17T13:26:41.000Z</time>
      </trkpt>
      <trkpt lat="43.65223" lon="3.35052">
        <ele>191.2</ele>
        <time>2026-05-17T13:26:42.000Z</time>
      </trkpt>
      <trkpt lat="43.65223" lon="3.35051">
        <ele>191.1</ele>
        <time>2026-05-17T13:26:43.000Z</time>
      </trkpt>
      <trkpt lat="43.65223" lon="3.35051">
        <ele>191.2</ele>
        <time>2026-05-17T13:26:44.000Z</time>
      </trkpt>
      <trkpt lat="43.65223" lon="3.35051">
        <ele>191.1</ele>
        <time>2026-05-17T13:26:45.000Z</time>
      </trkpt>
      <trkpt lat="43.65223" lon="3.35051">
        <ele>191.2</ele>
        <time>2026-05-17T13:26:46.000Z</time>
      </trkpt>
      <trkpt lat="43.65222" lon="3.3505">
        <ele>191.2</ele>
        <time>2026-05-17T13:26:47.000Z</time>
      </trkpt>
      <trkpt lat="43.65222" lon="3.35049">
        <ele>191.3</ele>
        <time>2026-05-17T13:26:48.000Z</time>
      </trkpt>
      <trkpt lat="43.65221" lon="3.35048">
        <ele>191.4</ele>
        <time>2026-05-17T13:26:49.000Z</time>
      </trkpt>
      <trkpt lat="43.65221" lon="3.35047">
        <ele>191.5</ele>
        <time>2026-05-17T13:26:50.000Z</time>
      </trkpt>
      <trkpt lat="43.6522" lon="3.35045">
        <ele>191.8</ele>
        <time>2026-05-17T13:26:51.000Z</time>
      </trkpt>
      <trkpt lat="43.6522" lon="3.35044">
        <ele>192.1</ele>
        <time>2026-05-17T13:26:52.000Z</time>
      </trkpt>
      <trkpt lat="43.65219" lon="3.35043">
        <ele>192.2</ele>
        <time>2026-05-17T13:26:53.000Z</time>
      </trkpt>
      <trkpt lat="43.6522" lon="3.35042">
        <ele>192</ele>
        <time>2026-05-17T13:26:54.000Z</time>
      </trkpt>
      <trkpt lat="43.6522" lon="3.35041">
        <ele>192</ele>
        <time>2026-05-17T13:26:55.000Z</time>
      </trkpt>
      <trkpt lat="43.6522" lon="3.3504">
        <ele>192</ele>
        <time>2026-05-17T13:26:56.000Z</time>
      </trkpt>
      <trkpt lat="43.6522" lon="3.3504">
        <ele>192.3</ele>
        <time>2026-05-17T13:26:57.000Z</time>
      </trkpt>
      <trkpt lat="43.6522" lon="3.35038">
        <ele>192.6</ele>
        <time>2026-05-17T13:26:58.000Z</time>
      </trkpt>
      <trkpt lat="43.6522" lon="3.35038">
        <ele>192.3</ele>
        <time>2026-05-17T13:26:59.000Z</time>
      </trkpt>
      <trkpt lat="43.6522" lon="3.35036">
        <ele>192.4</ele>
        <time>2026-05-17T13:27:00.000Z</time>
      </trkpt>
      <trkpt lat="43.6522" lon="3.35036">
        <ele>192.4</ele>
        <time>2026-05-17T13:27:01.000Z</time>
      </trkpt>
      <trkpt lat="43.6522" lon="3.35035">
        <ele>192.3</ele>
        <time>2026-05-17T13:27:02.000Z</time>
      </trkpt>
      <trkpt lat="43.65219" lon="3.35034">
        <ele>192.1</ele>
        <time>2026-05-17T13:27:03.000Z</time>
      </trkpt>
      <trkpt lat="43.65219" lon="3.35032">
        <ele>192.4</ele>
        <time>2026-05-17T13:27:04.000Z</time>
      </trkpt>
      <trkpt lat="43.65219" lon="3.35031">
        <ele>192.4</ele>
        <time>2026-05-17T13:27:05.000Z</time>
      </trkpt>
      <trkpt lat="43.65219" lon="3.35031">
        <ele>192.2</ele>
        <time>2026-05-17T13:27:06.000Z</time>
      </trkpt>
      <trkpt lat="43.65218" lon="3.3503">
        <ele>192.2</ele>
        <time>2026-05-17T13:27:07.000Z</time>
      </trkpt>
      <trkpt lat="43.65218" lon="3.3503">
        <ele>191.8</ele>
        <time>2026-05-17T13:27:08.000Z</time>
      </trkpt>
      <trkpt lat="43.65217" lon="3.3503">
        <ele>191.7</ele>
        <time>2026-05-17T13:27:09.000Z</time>
      </trkpt>
      <trkpt lat="43.65217" lon="3.3503">
        <ele>191.6</ele>
        <time>2026-05-17T13:27:10.000Z</time>
      </trkpt>
      <trkpt lat="43.65216" lon="3.3503">
        <ele>191.5</ele>
        <time>2026-05-17T13:27:11.000Z</time>
      </trkpt>
      <trkpt lat="43.65215" lon="3.3503">
        <ele>191.6</ele>
        <time>2026-05-17T13:27:12.000Z</time>
      </trkpt>
      <trkpt lat="43.65214" lon="3.35029">
        <ele>191.5</ele>
        <time>2026-05-17T13:27:13.000Z</time>
      </trkpt>
      <trkpt lat="43.65214" lon="3.35029">
        <ele>191.2</ele>
        <time>2026-05-17T13:27:14.000Z</time>
      </trkpt>
      <trkpt lat="43.65213" lon="3.35029">
        <ele>191.2</ele>
        <time>2026-05-17T13:27:15.000Z</time>
      </trkpt>
      <trkpt lat="43.65212" lon="3.35029">
        <ele>191.5</ele>
        <time>2026-05-17T13:27:16.000Z</time>
      </trkpt>
      <trkpt lat="43.6521" lon="3.35029">
        <ele>191.6</ele>
        <time>2026-05-17T13:27:17.000Z</time>
      </trkpt>
      <trkpt lat="43.6521" lon="3.35029">
        <ele>191.7</ele>
        <time>2026-05-17T13:27:18.000Z</time>
      </trkpt>
      <trkpt lat="43.65209" lon="3.35029">
        <ele>191.8</ele>
        <time>2026-05-17T13:27:19.000Z</time>
      </trkpt>
      <trkpt lat="43.65208" lon="3.35029">
        <ele>191.9</ele>
        <time>2026-05-17T13:27:20.000Z</time>
      </trkpt>
      <trkpt lat="43.65206" lon="3.35029">
        <ele>192.1</ele>
        <time>2026-05-17T13:27:21.000Z</time>
      </trkpt>
      <trkpt lat="43.65205" lon="3.35029">
        <ele>192.2</ele>
        <time>2026-05-17T13:27:22.000Z</time>
      </trkpt>
      <trkpt lat="43.65205" lon="3.3503">
        <ele>192</ele>
        <time>2026-05-17T13:27:23.000Z</time>
      </trkpt>
      <trkpt lat="43.65204" lon="3.3503">
        <ele>192</ele>
        <time>2026-05-17T13:27:24.000Z</time>
      </trkpt>
      <trkpt lat="43.65204" lon="3.3503">
        <ele>192.1</ele>
        <time>2026-05-17T13:27:25.000Z</time>
      </trkpt>
      <trkpt lat="43.65203" lon="3.3503">
        <ele>192.3</ele>
        <time>2026-05-17T13:27:26.000Z</time>
      </trkpt>
      <trkpt lat="43.65202" lon="3.3503">
        <ele>192.4</ele>
        <time>2026-05-17T13:27:27.000Z</time>
      </trkpt>
      <trkpt lat="43.65201" lon="3.35031">
        <ele>192.4</ele>
        <time>2026-05-17T13:27:28.000Z</time>
      </trkpt>
      <trkpt lat="43.652" lon="3.35031">
        <ele>192.2</ele>
        <time>2026-05-17T13:27:29.000Z</time>
      </trkpt>
      <trkpt lat="43.652" lon="3.35032">
        <ele>191.9</ele>
        <time>2026-05-17T13:27:30.000Z</time>
      </trkpt>
      <trkpt lat="43.65199" lon="3.35032">
        <ele>191.9</ele>
        <time>2026-05-17T13:27:31.000Z</time>
      </trkpt>
      <trkpt lat="43.65198" lon="3.35032">
        <ele>191.7</ele>
        <time>2026-05-17T13:27:32.000Z</time>
      </trkpt>
      <trkpt lat="43.65197" lon="3.35032">
        <ele>191.6</ele>
        <time>2026-05-17T13:27:33.000Z</time>
      </trkpt>
      <trkpt lat="43.65196" lon="3.35032">
        <ele>191.3</ele>
        <time>2026-05-17T13:27:34.000Z</time>
      </trkpt>
      <trkpt lat="43.65194" lon="3.35032">
        <ele>191</ele>
        <time>2026-05-17T13:27:35.000Z</time>
      </trkpt>
      <trkpt lat="43.65193" lon="3.35032">
        <ele>190.8</ele>
        <time>2026-05-17T13:27:36.000Z</time>
      </trkpt>
      <trkpt lat="43.65193" lon="3.35032">
        <ele>190.7</ele>
        <time>2026-05-17T13:27:37.000Z</time>
      </trkpt>
      <trkpt lat="43.65192" lon="3.35033">
        <ele>190.6</ele>
        <time>2026-05-17T13:27:38.000Z</time>
      </trkpt>
      <trkpt lat="43.65191" lon="3.35033">
        <ele>190.8</ele>
        <time>2026-05-17T13:27:39.000Z</time>
      </trkpt>
      <trkpt lat="43.6519" lon="3.35032">
        <ele>190.7</ele>
        <time>2026-05-17T13:27:40.000Z</time>
      </trkpt>
      <trkpt lat="43.6519" lon="3.35032">
        <ele>191</ele>
        <time>2026-05-17T13:27:41.000Z</time>
      </trkpt>
      <trkpt lat="43.65188" lon="3.35031">
        <ele>190.9</ele>
        <time>2026-05-17T13:27:42.000Z</time>
      </trkpt>
      <trkpt lat="43.65187" lon="3.35031">
        <ele>190.7</ele>
        <time>2026-05-17T13:27:43.000Z</time>
      </trkpt>
      <trkpt lat="43.65186" lon="3.35031">
        <ele>190.5</ele>
        <time>2026-05-17T13:27:44.000Z</time>
      </trkpt>
      <trkpt lat="43.65185" lon="3.35031">
        <ele>190.4</ele>
        <time>2026-05-17T13:27:45.000Z</time>
      </trkpt>
      <trkpt lat="43.65184" lon="3.35031">
        <ele>190.6</ele>
        <time>2026-05-17T13:27:46.000Z</time>
      </trkpt>
      <trkpt lat="43.65183" lon="3.3503">
        <ele>190.5</ele>
        <time>2026-05-17T13:27:47.000Z</time>
      </trkpt>
      <trkpt lat="43.65182" lon="3.35029">
        <ele>190.6</ele>
        <time>2026-05-17T13:27:48.000Z</time>
      </trkpt>
      <trkpt lat="43.65182" lon="3.35028">
        <ele>190.6</ele>
        <time>2026-05-17T13:27:49.000Z</time>
      </trkpt>
      <trkpt lat="43.65182" lon="3.35028">
        <ele>190.7</ele>
        <time>2026-05-17T13:27:50.000Z</time>
      </trkpt>
      <trkpt lat="43.6518" lon="3.35026">
        <ele>191.2</ele>
        <time>2026-05-17T13:27:52.000Z</time>
      </trkpt>
      <trkpt lat="43.6518" lon="3.35025">
        <ele>191.2</ele>
        <time>2026-05-17T13:27:53.000Z</time>
      </trkpt>
      <trkpt lat="43.65179" lon="3.35023">
        <ele>191.3</ele>
        <time>2026-05-17T13:27:54.000Z</time>
      </trkpt>
      <trkpt lat="43.65179" lon="3.35021">
        <ele>191.2</ele>
        <time>2026-05-17T13:27:55.000Z</time>
      </trkpt>
      <trkpt lat="43.65179" lon="3.3502">
        <ele>191</ele>
        <time>2026-05-17T13:27:56.000Z</time>
      </trkpt>
      <trkpt lat="43.65179" lon="3.35019">
        <ele>191.1</ele>
        <time>2026-05-17T13:27:57.000Z</time>
      </trkpt>
      <trkpt lat="43.65179" lon="3.35017">
        <ele>190.7</ele>
        <time>2026-05-17T13:27:58.000Z</time>
      </trkpt>
      <trkpt lat="43.65179" lon="3.35017">
        <ele>190.5</ele>
        <time>2026-05-17T13:27:59.000Z</time>
      </trkpt>
      <trkpt lat="43.65179" lon="3.35017">
        <ele>190.4</ele>
        <time>2026-05-17T13:28:00.000Z</time>
      </trkpt>
      <trkpt lat="43.65179" lon="3.35017">
        <ele>190.4</ele>
        <time>2026-05-17T13:28:01.000Z</time>
      </trkpt>
      <trkpt lat="43.65179" lon="3.35017">
        <ele>190.3</ele>
        <time>2026-05-17T13:28:02.000Z</time>
      </trkpt>
      <trkpt lat="43.65179" lon="3.35017">
        <ele>190.2</ele>
        <time>2026-05-17T13:28:03.000Z</time>
      </trkpt>
      <trkpt lat="43.65179" lon="3.35016">
        <ele>190.2</ele>
        <time>2026-05-17T13:28:04.000Z</time>
      </trkpt>
      <trkpt lat="43.65179" lon="3.35015">
        <ele>189.9</ele>
        <time>2026-05-17T13:28:05.000Z</time>
      </trkpt>
      <trkpt lat="43.65178" lon="3.35014">
        <ele>189.7</ele>
        <time>2026-05-17T13:28:06.000Z</time>
      </trkpt>
      <trkpt lat="43.65178" lon="3.35012">
        <ele>189.4</ele>
        <time>2026-05-17T13:28:07.000Z</time>
      </trkpt>
      <trkpt lat="43.65178" lon="3.35011">
        <ele>189.3</ele>
        <time>2026-05-17T13:28:08.000Z</time>
      </trkpt>
      <trkpt lat="43.65177" lon="3.35008">
        <ele>189</ele>
        <time>2026-05-17T13:28:09.000Z</time>
      </trkpt>
      <trkpt lat="43.65176" lon="3.35005">
        <ele>188.7</ele>
        <time>2026-05-17T13:28:10.000Z</time>
      </trkpt>
      <trkpt lat="43.65175" lon="3.35003">
        <ele>188.3</ele>
        <time>2026-05-17T13:28:11.000Z</time>
      </trkpt>
      <trkpt lat="43.65174" lon="3.35001">
        <ele>188.2</ele>
        <time>2026-05-17T13:28:12.000Z</time>
      </trkpt>
      <trkpt lat="43.65174" lon="3.35">
        <ele>188</ele>
        <time>2026-05-17T13:28:13.000Z</time>
      </trkpt>
      <trkpt lat="43.65172" lon="3.35">
        <ele>187.8</ele>
        <time>2026-05-17T13:28:14.000Z</time>
      </trkpt>
      <trkpt lat="43.65171" lon="3.34999">
        <ele>187.8</ele>
        <time>2026-05-17T13:28:15.000Z</time>
      </trkpt>
      <trkpt lat="43.65171" lon="3.34999">
        <ele>187</ele>
        <time>2026-05-17T13:28:16.000Z</time>
      </trkpt>
      <trkpt lat="43.65171" lon="3.34999">
        <ele>186.6</ele>
        <time>2026-05-17T13:28:17.000Z</time>
      </trkpt>
      <trkpt lat="43.6517" lon="3.34999">
        <ele>188.4</ele>
        <time>2026-05-17T13:28:18.000Z</time>
      </trkpt>
      <trkpt lat="43.6517" lon="3.34998">
        <ele>188.4</ele>
        <time>2026-05-17T13:28:19.000Z</time>
      </trkpt>
      <trkpt lat="43.65169" lon="3.34997">
        <ele>188.5</ele>
        <time>2026-05-17T13:28:20.000Z</time>
      </trkpt>
      <trkpt lat="43.65167" lon="3.34996">
        <ele>188.7</ele>
        <time>2026-05-17T13:28:21.000Z</time>
      </trkpt>
      <trkpt lat="43.65166" lon="3.34996">
        <ele>188.3</ele>
        <time>2026-05-17T13:28:22.000Z</time>
      </trkpt>
      <trkpt lat="43.65165" lon="3.34996">
        <ele>187.8</ele>
        <time>2026-05-17T13:28:23.000Z</time>
      </trkpt>
      <trkpt lat="43.65164" lon="3.34996">
        <ele>187.3</ele>
        <time>2026-05-17T13:28:24.000Z</time>
      </trkpt>
      <trkpt lat="43.65163" lon="3.34996">
        <ele>186.7</ele>
        <time>2026-05-17T13:28:25.000Z</time>
      </trkpt>
      <trkpt lat="43.65163" lon="3.34995">
        <ele>186.3</ele>
        <time>2026-05-17T13:28:26.000Z</time>
      </trkpt>
      <trkpt lat="43.65162" lon="3.34994">
        <ele>186</ele>
        <time>2026-05-17T13:28:27.000Z</time>
      </trkpt>
      <trkpt lat="43.65162" lon="3.34993">
        <ele>185.7</ele>
        <time>2026-05-17T13:28:28.000Z</time>
      </trkpt>
      <trkpt lat="43.65161" lon="3.34991">
        <ele>185.6</ele>
        <time>2026-05-17T13:28:29.000Z</time>
      </trkpt>
      <trkpt lat="43.6516" lon="3.3499">
        <ele>185</ele>
        <time>2026-05-17T13:28:30.000Z</time>
      </trkpt>
      <trkpt lat="43.6516" lon="3.34989">
        <ele>184.6</ele>
        <time>2026-05-17T13:28:31.000Z</time>
      </trkpt>
      <trkpt lat="43.65159" lon="3.3499">
        <ele>184</ele>
        <time>2026-05-17T13:28:32.000Z</time>
      </trkpt>
      <trkpt lat="43.65159" lon="3.3499">
        <ele>184.2</ele>
        <time>2026-05-17T13:28:33.000Z</time>
      </trkpt>
      <trkpt lat="43.65159" lon="3.3499">
        <ele>186.8</ele>
        <time>2026-05-17T13:28:34.000Z</time>
      </trkpt>
      <trkpt lat="43.65159" lon="3.3499">
        <ele>187</ele>
        <time>2026-05-17T13:28:35.000Z</time>
      </trkpt>
      <trkpt lat="43.65159" lon="3.3499">
        <ele>186.8</ele>
        <time>2026-05-17T13:28:36.000Z</time>
      </trkpt>
      <trkpt lat="43.65159" lon="3.3499">
        <ele>187</ele>
        <time>2026-05-17T13:28:37.000Z</time>
      </trkpt>
      <trkpt lat="43.65158" lon="3.34991">
        <ele>186.4</ele>
        <time>2026-05-17T13:28:38.000Z</time>
      </trkpt>
      <trkpt lat="43.65158" lon="3.34993">
        <ele>185.8</ele>
        <time>2026-05-17T13:28:39.000Z</time>
      </trkpt>
      <trkpt lat="43.65157" lon="3.34993">
        <ele>185.6</ele>
        <time>2026-05-17T13:28:40.000Z</time>
      </trkpt>
      <trkpt lat="43.65156" lon="3.34995">
        <ele>185.4</ele>
        <time>2026-05-17T13:28:41.000Z</time>
      </trkpt>
      <trkpt lat="43.65156" lon="3.34996">
        <ele>185.1</ele>
        <time>2026-05-17T13:28:42.000Z</time>
      </trkpt>
      <trkpt lat="43.65156" lon="3.34998">
        <ele>184.8</ele>
        <time>2026-05-17T13:28:43.000Z</time>
      </trkpt>
      <trkpt lat="43.65156" lon="3.34999">
        <ele>184.6</ele>
        <time>2026-05-17T13:28:44.000Z</time>
      </trkpt>
      <trkpt lat="43.65156" lon="3.35">
        <ele>184.4</ele>
        <time>2026-05-17T13:28:45.000Z</time>
      </trkpt>
      <trkpt lat="43.65156" lon="3.35001">
        <ele>184.5</ele>
        <time>2026-05-17T13:28:46.000Z</time>
      </trkpt>
      <trkpt lat="43.65156" lon="3.35001">
        <ele>184</ele>
        <time>2026-05-17T13:28:47.000Z</time>
      </trkpt>
      <trkpt lat="43.65157" lon="3.35001">
        <ele>183.7</ele>
        <time>2026-05-17T13:28:48.000Z</time>
      </trkpt>
      <trkpt lat="43.65156" lon="3.35003">
        <ele>184.1</ele>
        <time>2026-05-17T13:28:49.000Z</time>
      </trkpt>
      <trkpt lat="43.65157" lon="3.35004">
        <ele>184.1</ele>
        <time>2026-05-17T13:28:50.000Z</time>
      </trkpt>
      <trkpt lat="43.65157" lon="3.35005">
        <ele>183.8</ele>
        <time>2026-05-17T13:28:51.000Z</time>
      </trkpt>
      <trkpt lat="43.65157" lon="3.35006">
        <ele>183.5</ele>
        <time>2026-05-17T13:28:52.000Z</time>
      </trkpt>
      <trkpt lat="43.65156" lon="3.35007">
        <ele>183.3</ele>
        <time>2026-05-17T13:28:53.000Z</time>
      </trkpt>
      <trkpt lat="43.65156" lon="3.35008">
        <ele>183.3</ele>
        <time>2026-05-17T13:28:54.000Z</time>
      </trkpt>
      <trkpt lat="43.65156" lon="3.35009">
        <ele>183.4</ele>
        <time>2026-05-17T13:28:55.000Z</time>
      </trkpt>
      <trkpt lat="43.65155" lon="3.3501">
        <ele>183.9</ele>
        <time>2026-05-17T13:28:56.000Z</time>
      </trkpt>
      <trkpt lat="43.65155" lon="3.3501">
        <ele>183.4</ele>
        <time>2026-05-17T13:28:57.000Z</time>
      </trkpt>
      <trkpt lat="43.65155" lon="3.35008">
        <ele>182.7</ele>
        <time>2026-05-17T13:28:58.000Z</time>
      </trkpt>
      <trkpt lat="43.65155" lon="3.35008">
        <ele>183.3</ele>
        <time>2026-05-17T13:28:59.000Z</time>
      </trkpt>
      <trkpt lat="43.65155" lon="3.35008">
        <ele>183.3</ele>
        <time>2026-05-17T13:29:00.000Z</time>
      </trkpt>
      <trkpt lat="43.65155" lon="3.35008">
        <ele>183.5</ele>
        <time>2026-05-17T13:29:01.000Z</time>
      </trkpt>
      <trkpt lat="43.65155" lon="3.35008">
        <ele>183.4</ele>
        <time>2026-05-17T13:29:02.000Z</time>
      </trkpt>
      <trkpt lat="43.65155" lon="3.35008">
        <ele>183.5</ele>
        <time>2026-05-17T13:29:03.000Z</time>
      </trkpt>
      <trkpt lat="43.65155" lon="3.35008">
        <ele>183.7</ele>
        <time>2026-05-17T13:29:04.000Z</time>
      </trkpt>
      <trkpt lat="43.65155" lon="3.35008">
        <ele>183.9</ele>
        <time>2026-05-17T13:29:05.000Z</time>
      </trkpt>
      <trkpt lat="43.65155" lon="3.35008">
        <ele>184</ele>
        <time>2026-05-17T13:29:06.000Z</time>
      </trkpt>
      <trkpt lat="43.65155" lon="3.35008">
        <ele>184</ele>
        <time>2026-05-17T13:29:07.000Z</time>
      </trkpt>
      <trkpt lat="43.65155" lon="3.35008">
        <ele>184.2</ele>
        <time>2026-05-17T13:29:08.000Z</time>
      </trkpt>
      <trkpt lat="43.65155" lon="3.35008">
        <ele>184.3</ele>
        <time>2026-05-17T13:29:09.000Z</time>
      </trkpt>
      <trkpt lat="43.65155" lon="3.35008">
        <ele>184.4</ele>
        <time>2026-05-17T13:29:10.000Z</time>
      </trkpt>
      <trkpt lat="43.65155" lon="3.35008">
        <ele>184.5</ele>
        <time>2026-05-17T13:29:11.000Z</time>
      </trkpt>
      <trkpt lat="43.65155" lon="3.35007">
        <ele>184.6</ele>
        <time>2026-05-17T13:29:12.000Z</time>
      </trkpt>
      <trkpt lat="43.65155" lon="3.35007">
        <ele>184.9</ele>
        <time>2026-05-17T13:29:13.000Z</time>
      </trkpt>
      <trkpt lat="43.65155" lon="3.35007">
        <ele>185.1</ele>
        <time>2026-05-17T13:29:14.000Z</time>
      </trkpt>
      <trkpt lat="43.65155" lon="3.35007">
        <ele>185.4</ele>
        <time>2026-05-17T13:29:15.000Z</time>
      </trkpt>
      <trkpt lat="43.65155" lon="3.35007">
        <ele>185.7</ele>
        <time>2026-05-17T13:29:16.000Z</time>
      </trkpt>
      <trkpt lat="43.65155" lon="3.35007">
        <ele>186</ele>
        <time>2026-05-17T13:29:17.000Z</time>
      </trkpt>
      <trkpt lat="43.65155" lon="3.35007">
        <ele>186.1</ele>
        <time>2026-05-17T13:29:18.000Z</time>
      </trkpt>
      <trkpt lat="43.65155" lon="3.35007">
        <ele>186</ele>
        <time>2026-05-17T13:29:19.000Z</time>
      </trkpt>
      <trkpt lat="43.65155" lon="3.35006">
        <ele>186</ele>
        <time>2026-05-17T13:29:20.000Z</time>
      </trkpt>
      <trkpt lat="43.65155" lon="3.35007">
        <ele>185.8</ele>
        <time>2026-05-17T13:29:21.000Z</time>
      </trkpt>
      <trkpt lat="43.65155" lon="3.35007">
        <ele>185.6</ele>
        <time>2026-05-17T13:29:22.000Z</time>
      </trkpt>
      <trkpt lat="43.65154" lon="3.35007">
        <ele>185.4</ele>
        <time>2026-05-17T13:29:23.000Z</time>
      </trkpt>
      <trkpt lat="43.65154" lon="3.35007">
        <ele>185.4</ele>
        <time>2026-05-17T13:29:24.000Z</time>
      </trkpt>
      <trkpt lat="43.65154" lon="3.35006">
        <ele>185.3</ele>
        <time>2026-05-17T13:29:25.000Z</time>
      </trkpt>
      <trkpt lat="43.65154" lon="3.35006">
        <ele>185.1</ele>
        <time>2026-05-17T13:29:26.000Z</time>
      </trkpt>
      <trkpt lat="43.65155" lon="3.35006">
        <ele>185</ele>
        <time>2026-05-17T13:29:27.000Z</time>
      </trkpt>
      <trkpt lat="43.65155" lon="3.35006">
        <ele>185.1</ele>
        <time>2026-05-17T13:29:28.000Z</time>
      </trkpt>
      <trkpt lat="43.65155" lon="3.35006">
        <ele>185.1</ele>
        <time>2026-05-17T13:29:29.000Z</time>
      </trkpt>
      <trkpt lat="43.65155" lon="3.35006">
        <ele>185.2</ele>
        <time>2026-05-17T13:29:30.000Z</time>
      </trkpt>
      <trkpt lat="43.65155" lon="3.35006">
        <ele>185.5</ele>
        <time>2026-05-17T13:29:31.000Z</time>
      </trkpt>
      <trkpt lat="43.65155" lon="3.35006">
        <ele>185.9</ele>
        <time>2026-05-17T13:29:32.000Z</time>
      </trkpt>
      <trkpt lat="43.65155" lon="3.35006">
        <ele>186.1</ele>
        <time>2026-05-17T13:29:33.000Z</time>
      </trkpt>
      <trkpt lat="43.65154" lon="3.35006">
        <ele>186.1</ele>
        <time>2026-05-17T13:29:34.000Z</time>
      </trkpt>
      <trkpt lat="43.65154" lon="3.35006">
        <ele>186.4</ele>
        <time>2026-05-17T13:29:35.000Z</time>
      </trkpt>
      <trkpt lat="43.65154" lon="3.35006">
        <ele>186.5</ele>
        <time>2026-05-17T13:29:36.000Z</time>
      </trkpt>
      <trkpt lat="43.65154" lon="3.35006">
        <ele>186.7</ele>
        <time>2026-05-17T13:29:37.000Z</time>
      </trkpt>
      <trkpt lat="43.65154" lon="3.35006">
        <ele>186.8</ele>
        <time>2026-05-17T13:29:38.000Z</time>
      </trkpt>
      <trkpt lat="43.65154" lon="3.35006">
        <ele>187</ele>
        <time>2026-05-17T13:29:39.000Z</time>
      </trkpt>
      <trkpt lat="43.65154" lon="3.35006">
        <ele>187.2</ele>
        <time>2026-05-17T13:29:40.000Z</time>
      </trkpt>
      <trkpt lat="43.65154" lon="3.35006">
        <ele>187.4</ele>
        <time>2026-05-17T13:29:41.000Z</time>
      </trkpt>
      <trkpt lat="43.65154" lon="3.35007">
        <ele>187.6</ele>
        <time>2026-05-17T13:29:42.000Z</time>
      </trkpt>
      <trkpt lat="43.65154" lon="3.35007">
        <ele>187.9</ele>
        <time>2026-05-17T13:29:43.000Z</time>
      </trkpt>
      <trkpt lat="43.65154" lon="3.35007">
        <ele>188.1</ele>
        <time>2026-05-17T13:29:44.000Z</time>
      </trkpt>
      <trkpt lat="43.65154" lon="3.35007">
        <ele>188.2</ele>
        <time>2026-05-17T13:29:45.000Z</time>
      </trkpt>
      <trkpt lat="43.65154" lon="3.35007">
        <ele>188.3</ele>
        <time>2026-05-17T13:29:46.000Z</time>
      </trkpt>
      <trkpt lat="43.65154" lon="3.35007">
        <ele>188.4</ele>
        <time>2026-05-17T13:29:47.000Z</time>
      </trkpt>
      <trkpt lat="43.65154" lon="3.35007">
        <ele>188.4</ele>
        <time>2026-05-17T13:29:48.000Z</time>
      </trkpt>
      <trkpt lat="43.65154" lon="3.35007">
        <ele>188.4</ele>
        <time>2026-05-17T13:29:49.000Z</time>
      </trkpt>
      <trkpt lat="43.65154" lon="3.35007">
        <ele>188.6</ele>
        <time>2026-05-17T13:29:50.000Z</time>
      </trkpt>
      <trkpt lat="43.65154" lon="3.35007">
        <ele>188.6</ele>
        <time>2026-05-17T13:29:51.000Z</time>
      </trkpt>
      <trkpt lat="43.65154" lon="3.35008">
        <ele>188.6</ele>
        <time>2026-05-17T13:29:52.000Z</time>
      </trkpt>
      <trkpt lat="43.65154" lon="3.35008">
        <ele>188.7</ele>
        <time>2026-05-17T13:29:53.000Z</time>
      </trkpt>
      <trkpt lat="43.65154" lon="3.35008">
        <ele>188.6</ele>
        <time>2026-05-17T13:29:54.000Z</time>
      </trkpt>
      <trkpt lat="43.65154" lon="3.35008">
        <ele>188.6</ele>
        <time>2026-05-17T13:29:55.000Z</time>
      </trkpt>
      <trkpt lat="43.65154" lon="3.35008">
        <ele>188.6</ele>
        <time>2026-05-17T13:29:56.000Z</time>
      </trkpt>
      <trkpt lat="43.65153" lon="3.35008">
        <ele>188.6</ele>
        <time>2026-05-17T13:29:57.000Z</time>
      </trkpt>
      <trkpt lat="43.65153" lon="3.35008">
        <ele>188.5</ele>
        <time>2026-05-17T13:29:58.000Z</time>
      </trkpt>
      <trkpt lat="43.65153" lon="3.35008">
        <ele>188.6</ele>
        <time>2026-05-17T13:29:59.000Z</time>
      </trkpt>
      <trkpt lat="43.65153" lon="3.35008">
        <ele>188.8</ele>
        <time>2026-05-17T13:30:00.000Z</time>
      </trkpt>
      <trkpt lat="43.65153" lon="3.35008">
        <ele>188.9</ele>
        <time>2026-05-17T13:30:01.000Z</time>
      </trkpt>
      <trkpt lat="43.65154" lon="3.3501">
        <ele>189.1</ele>
        <time>2026-05-17T13:30:02.000Z</time>
      </trkpt>
      <trkpt lat="43.65154" lon="3.3501">
        <ele>189.1</ele>
        <time>2026-05-17T13:30:03.000Z</time>
      </trkpt>
      <trkpt lat="43.65154" lon="3.35011">
        <ele>189</ele>
        <time>2026-05-17T13:30:04.000Z</time>
      </trkpt>
      <trkpt lat="43.65154" lon="3.35012">
        <ele>188.7</ele>
        <time>2026-05-17T13:30:05.000Z</time>
      </trkpt>
      <trkpt lat="43.65153" lon="3.35012">
        <ele>188.5</ele>
        <time>2026-05-17T13:30:06.000Z</time>
      </trkpt>
      <trkpt lat="43.65153" lon="3.35013">
        <ele>188.3</ele>
        <time>2026-05-17T13:30:07.000Z</time>
      </trkpt>
      <trkpt lat="43.65153" lon="3.35013">
        <ele>188.3</ele>
        <time>2026-05-17T13:30:08.000Z</time>
      </trkpt>
      <trkpt lat="43.65153" lon="3.35014">
        <ele>188.2</ele>
        <time>2026-05-17T13:30:09.000Z</time>
      </trkpt>
      <trkpt lat="43.65153" lon="3.35016">
        <ele>188.2</ele>
        <time>2026-05-17T13:30:10.000Z</time>
      </trkpt>
      <trkpt lat="43.65153" lon="3.35017">
        <ele>188.2</ele>
        <time>2026-05-17T13:30:11.000Z</time>
      </trkpt>
      <trkpt lat="43.65154" lon="3.35017">
        <ele>188.1</ele>
        <time>2026-05-17T13:30:12.000Z</time>
      </trkpt>
      <trkpt lat="43.65154" lon="3.35017">
        <ele>187.9</ele>
        <time>2026-05-17T13:30:13.000Z</time>
      </trkpt>
      <trkpt lat="43.65154" lon="3.35017">
        <ele>187.7</ele>
        <time>2026-05-17T13:30:14.000Z</time>
      </trkpt>
      <trkpt lat="43.65154" lon="3.35017">
        <ele>187.4</ele>
        <time>2026-05-17T13:30:15.000Z</time>
      </trkpt>
      <trkpt lat="43.65154" lon="3.35017">
        <ele>187.1</ele>
        <time>2026-05-17T13:30:16.000Z</time>
      </trkpt>
      <trkpt lat="43.65154" lon="3.35017">
        <ele>187</ele>
        <time>2026-05-17T13:30:17.000Z</time>
      </trkpt>
      <trkpt lat="43.65153" lon="3.35018">
        <ele>186.9</ele>
        <time>2026-05-17T13:30:18.000Z</time>
      </trkpt>
      <trkpt lat="43.65153" lon="3.3502">
        <ele>186.9</ele>
        <time>2026-05-17T13:30:19.000Z</time>
      </trkpt>
      <trkpt lat="43.65153" lon="3.35022">
        <ele>186.9</ele>
        <time>2026-05-17T13:30:20.000Z</time>
      </trkpt>
      <trkpt lat="43.65152" lon="3.35023">
        <ele>187</ele>
        <time>2026-05-17T13:30:21.000Z</time>
      </trkpt>
      <trkpt lat="43.65151" lon="3.35025">
        <ele>187.1</ele>
        <time>2026-05-17T13:30:22.000Z</time>
      </trkpt>
      <trkpt lat="43.65151" lon="3.35026">
        <ele>187.1</ele>
        <time>2026-05-17T13:30:23.000Z</time>
      </trkpt>
      <trkpt lat="43.65151" lon="3.35028">
        <ele>187.1</ele>
        <time>2026-05-17T13:30:24.000Z</time>
      </trkpt>
      <trkpt lat="43.6515" lon="3.35031">
        <ele>187.3</ele>
        <time>2026-05-17T13:30:25.000Z</time>
      </trkpt>
      <trkpt lat="43.6515" lon="3.35032">
        <ele>187.3</ele>
        <time>2026-05-17T13:30:26.000Z</time>
      </trkpt>
      <trkpt lat="43.6515" lon="3.35034">
        <ele>187.5</ele>
        <time>2026-05-17T13:30:27.000Z</time>
      </trkpt>
      <trkpt lat="43.6515" lon="3.35036">
        <ele>187.6</ele>
        <time>2026-05-17T13:30:28.000Z</time>
      </trkpt>
      <trkpt lat="43.6515" lon="3.35039">
        <ele>187.8</ele>
        <time>2026-05-17T13:30:29.000Z</time>
      </trkpt>
      <trkpt lat="43.6515" lon="3.35042">
        <ele>187.6</ele>
        <time>2026-05-17T13:30:30.000Z</time>
      </trkpt>
      <trkpt lat="43.6515" lon="3.35043">
        <ele>187.6</ele>
        <time>2026-05-17T13:30:31.000Z</time>
      </trkpt>
      <trkpt lat="43.65149" lon="3.35045">
        <ele>187.5</ele>
        <time>2026-05-17T13:30:32.000Z</time>
      </trkpt>
      <trkpt lat="43.65149" lon="3.35047">
        <ele>187.6</ele>
        <time>2026-05-17T13:30:33.000Z</time>
      </trkpt>
      <trkpt lat="43.65149" lon="3.35049">
        <ele>187.6</ele>
        <time>2026-05-17T13:30:34.000Z</time>
      </trkpt>
      <trkpt lat="43.65148" lon="3.3505">
        <ele>187.5</ele>
        <time>2026-05-17T13:30:35.000Z</time>
      </trkpt>
      <trkpt lat="43.65148" lon="3.35051">
        <ele>187.4</ele>
        <time>2026-05-17T13:30:36.000Z</time>
      </trkpt>
      <trkpt lat="43.65147" lon="3.35052">
        <ele>187.7</ele>
        <time>2026-05-17T13:30:37.000Z</time>
      </trkpt>
      <trkpt lat="43.65147" lon="3.35053">
        <ele>187.9</ele>
        <time>2026-05-17T13:30:38.000Z</time>
      </trkpt>
      <trkpt lat="43.65147" lon="3.35054">
        <ele>188</ele>
        <time>2026-05-17T13:30:39.000Z</time>
      </trkpt>
      <trkpt lat="43.65147" lon="3.35055">
        <ele>188.1</ele>
        <time>2026-05-17T13:30:40.000Z</time>
      </trkpt>
      <trkpt lat="43.65147" lon="3.35056">
        <ele>188.2</ele>
        <time>2026-05-17T13:30:41.000Z</time>
      </trkpt>
      <trkpt lat="43.65146" lon="3.35057">
        <ele>188.3</ele>
        <time>2026-05-17T13:30:42.000Z</time>
      </trkpt>
      <trkpt lat="43.65146" lon="3.35059">
        <ele>188.2</ele>
        <time>2026-05-17T13:30:43.000Z</time>
      </trkpt>
      <trkpt lat="43.65145" lon="3.3506">
        <ele>188.3</ele>
        <time>2026-05-17T13:30:44.000Z</time>
      </trkpt>
      <trkpt lat="43.65145" lon="3.35062">
        <ele>188.6</ele>
        <time>2026-05-17T13:30:45.000Z</time>
      </trkpt>
      <trkpt lat="43.65144" lon="3.35064">
        <ele>188.7</ele>
        <time>2026-05-17T13:30:46.000Z</time>
      </trkpt>
      <trkpt lat="43.65143" lon="3.35065">
        <ele>188.7</ele>
        <time>2026-05-17T13:30:47.000Z</time>
      </trkpt>
      <trkpt lat="43.65143" lon="3.35067">
        <ele>188.8</ele>
        <time>2026-05-17T13:30:48.000Z</time>
      </trkpt>
      <trkpt lat="43.65142" lon="3.35067">
        <ele>188.8</ele>
        <time>2026-05-17T13:30:49.000Z</time>
      </trkpt>
      <trkpt lat="43.65142" lon="3.35068">
        <ele>188.9</ele>
        <time>2026-05-17T13:30:50.000Z</time>
      </trkpt>
      <trkpt lat="43.65141" lon="3.35069">
        <ele>189.1</ele>
        <time>2026-05-17T13:30:51.000Z</time>
      </trkpt>
      <trkpt lat="43.6514" lon="3.35071">
        <ele>189.4</ele>
        <time>2026-05-17T13:30:52.000Z</time>
      </trkpt>
      <trkpt lat="43.65139" lon="3.35072">
        <ele>189.5</ele>
        <time>2026-05-17T13:30:53.000Z</time>
      </trkpt>
      <trkpt lat="43.65137" lon="3.35074">
        <ele>189.5</ele>
        <time>2026-05-17T13:30:54.000Z</time>
      </trkpt>
      <trkpt lat="43.65135" lon="3.35075">
        <ele>189.8</ele>
        <time>2026-05-17T13:30:55.000Z</time>
      </trkpt>
      <trkpt lat="43.65134" lon="3.35075">
        <ele>189.8</ele>
        <time>2026-05-17T13:30:56.000Z</time>
      </trkpt>
      <trkpt lat="43.65133" lon="3.35075">
        <ele>189.8</ele>
        <time>2026-05-17T13:30:57.000Z</time>
      </trkpt>
      <trkpt lat="43.65133" lon="3.35075">
        <ele>190</ele>
        <time>2026-05-17T13:30:58.000Z</time>
      </trkpt>
      <trkpt lat="43.65132" lon="3.35075">
        <ele>190.1</ele>
        <time>2026-05-17T13:30:59.000Z</time>
      </trkpt>
      <trkpt lat="43.65131" lon="3.35074">
        <ele>190</ele>
        <time>2026-05-17T13:31:00.000Z</time>
      </trkpt>
      <trkpt lat="43.65129" lon="3.35074">
        <ele>190</ele>
        <time>2026-05-17T13:31:01.000Z</time>
      </trkpt>
      <trkpt lat="43.65127" lon="3.35073">
        <ele>190.3</ele>
        <time>2026-05-17T13:31:02.000Z</time>
      </trkpt>
      <trkpt lat="43.65126" lon="3.35073">
        <ele>190.4</ele>
        <time>2026-05-17T13:31:03.000Z</time>
      </trkpt>
      <trkpt lat="43.65125" lon="3.35073">
        <ele>190.2</ele>
        <time>2026-05-17T13:31:04.000Z</time>
      </trkpt>
      <trkpt lat="43.65124" lon="3.35072">
        <ele>190</ele>
        <time>2026-05-17T13:31:05.000Z</time>
      </trkpt>
      <trkpt lat="43.65122" lon="3.35071">
        <ele>189.9</ele>
        <time>2026-05-17T13:31:06.000Z</time>
      </trkpt>
      <trkpt lat="43.65122" lon="3.3507">
        <ele>189.9</ele>
        <time>2026-05-17T13:31:07.000Z</time>
      </trkpt>
      <trkpt lat="43.65121" lon="3.35069">
        <ele>189.9</ele>
        <time>2026-05-17T13:31:08.000Z</time>
      </trkpt>
      <trkpt lat="43.65119" lon="3.35068">
        <ele>190</ele>
        <time>2026-05-17T13:31:09.000Z</time>
      </trkpt>
      <trkpt lat="43.65118" lon="3.35067">
        <ele>189.8</ele>
        <time>2026-05-17T13:31:10.000Z</time>
      </trkpt>
      <trkpt lat="43.65117" lon="3.35066">
        <ele>189.6</ele>
        <time>2026-05-17T13:31:11.000Z</time>
      </trkpt>
      <trkpt lat="43.65116" lon="3.35065">
        <ele>189.5</ele>
        <time>2026-05-17T13:31:12.000Z</time>
      </trkpt>
      <trkpt lat="43.65115" lon="3.35065">
        <ele>189.1</ele>
        <time>2026-05-17T13:31:13.000Z</time>
      </trkpt>
      <trkpt lat="43.65114" lon="3.35064">
        <ele>189.1</ele>
        <time>2026-05-17T13:31:14.000Z</time>
      </trkpt>
      <trkpt lat="43.65113" lon="3.35064">
        <ele>189.3</ele>
        <time>2026-05-17T13:31:15.000Z</time>
      </trkpt>
      <trkpt lat="43.65112" lon="3.35063">
        <ele>189.5</ele>
        <time>2026-05-17T13:31:16.000Z</time>
      </trkpt>
      <trkpt lat="43.6511" lon="3.35063">
        <ele>189.5</ele>
        <time>2026-05-17T13:31:17.000Z</time>
      </trkpt>
      <trkpt lat="43.65109" lon="3.35063">
        <ele>189.1</ele>
        <time>2026-05-17T13:31:18.000Z</time>
      </trkpt>
      <trkpt lat="43.65107" lon="3.35063">
        <ele>189</ele>
        <time>2026-05-17T13:31:19.000Z</time>
      </trkpt>
      <trkpt lat="43.65106" lon="3.35062">
        <ele>188.8</ele>
        <time>2026-05-17T13:31:20.000Z</time>
      </trkpt>
      <trkpt lat="43.65105" lon="3.35062">
        <ele>188.9</ele>
        <time>2026-05-17T13:31:21.000Z</time>
      </trkpt>
      <trkpt lat="43.65104" lon="3.35062">
        <ele>189</ele>
        <time>2026-05-17T13:31:22.000Z</time>
      </trkpt>
      <trkpt lat="43.65104" lon="3.35061">
        <ele>189.2</ele>
        <time>2026-05-17T13:31:23.000Z</time>
      </trkpt>
      <trkpt lat="43.65103" lon="3.3506">
        <ele>189.3</ele>
        <time>2026-05-17T13:31:24.000Z</time>
      </trkpt>
      <trkpt lat="43.65102" lon="3.35059">
        <ele>189.4</ele>
        <time>2026-05-17T13:31:25.000Z</time>
      </trkpt>
      <trkpt lat="43.651" lon="3.35057">
        <ele>189.4</ele>
        <time>2026-05-17T13:31:26.000Z</time>
      </trkpt>
      <trkpt lat="43.65099" lon="3.35056">
        <ele>189.6</ele>
        <time>2026-05-17T13:31:27.000Z</time>
      </trkpt>
      <trkpt lat="43.65099" lon="3.35055">
        <ele>189.8</ele>
        <time>2026-05-17T13:31:28.000Z</time>
      </trkpt>
      <trkpt lat="43.65098" lon="3.35054">
        <ele>189.7</ele>
        <time>2026-05-17T13:31:29.000Z</time>
      </trkpt>
      <trkpt lat="43.65097" lon="3.35052">
        <ele>189.9</ele>
        <time>2026-05-17T13:31:30.000Z</time>
      </trkpt>
      <trkpt lat="43.65097" lon="3.3505">
        <ele>190</ele>
        <time>2026-05-17T13:31:31.000Z</time>
      </trkpt>
      <trkpt lat="43.65096" lon="3.35048">
        <ele>190.1</ele>
        <time>2026-05-17T13:31:32.000Z</time>
      </trkpt>
      <trkpt lat="43.65096" lon="3.35047">
        <ele>190.2</ele>
        <time>2026-05-17T13:31:33.000Z</time>
      </trkpt>
      <trkpt lat="43.65096" lon="3.35046">
        <ele>190.1</ele>
        <time>2026-05-17T13:31:34.000Z</time>
      </trkpt>
      <trkpt lat="43.65096" lon="3.35045">
        <ele>190.1</ele>
        <time>2026-05-17T13:31:35.000Z</time>
      </trkpt>
      <trkpt lat="43.65096" lon="3.35043">
        <ele>190</ele>
        <time>2026-05-17T13:31:36.000Z</time>
      </trkpt>
      <trkpt lat="43.65096" lon="3.35043">
        <ele>189.9</ele>
        <time>2026-05-17T13:31:37.000Z</time>
      </trkpt>
      <trkpt lat="43.65095" lon="3.35042">
        <ele>189.7</ele>
        <time>2026-05-17T13:31:38.000Z</time>
      </trkpt>
      <trkpt lat="43.65095" lon="3.35041">
        <ele>189.7</ele>
        <time>2026-05-17T13:31:39.000Z</time>
      </trkpt>
      <trkpt lat="43.65095" lon="3.3504">
        <ele>189.8</ele>
        <time>2026-05-17T13:31:40.000Z</time>
      </trkpt>
      <trkpt lat="43.65095" lon="3.3504">
        <ele>189.8</ele>
        <time>2026-05-17T13:31:41.000Z</time>
      </trkpt>
      <trkpt lat="43.65095" lon="3.35039">
        <ele>190.2</ele>
        <time>2026-05-17T13:31:42.000Z</time>
      </trkpt>
      <trkpt lat="43.65094" lon="3.35039">
        <ele>189.9</ele>
        <time>2026-05-17T13:31:43.000Z</time>
      </trkpt>
      <trkpt lat="43.65094" lon="3.35038">
        <ele>189.7</ele>
        <time>2026-05-17T13:31:44.000Z</time>
      </trkpt>
      <trkpt lat="43.65093" lon="3.35038">
        <ele>188.9</ele>
        <time>2026-05-17T13:31:45.000Z</time>
      </trkpt>
      <trkpt lat="43.65092" lon="3.35038">
        <ele>188.5</ele>
        <time>2026-05-17T13:31:46.000Z</time>
      </trkpt>
      <trkpt lat="43.65091" lon="3.35038">
        <ele>188.8</ele>
        <time>2026-05-17T13:31:47.000Z</time>
      </trkpt>
      <trkpt lat="43.65091" lon="3.35037">
        <ele>188.9</ele>
        <time>2026-05-17T13:31:48.000Z</time>
      </trkpt>
      <trkpt lat="43.6509" lon="3.35038">
        <ele>188.9</ele>
        <time>2026-05-17T13:31:49.000Z</time>
      </trkpt>
      <trkpt lat="43.6509" lon="3.35038">
        <ele>188.6</ele>
        <time>2026-05-17T13:31:50.000Z</time>
      </trkpt>
      <trkpt lat="43.6509" lon="3.35039">
        <ele>187.9</ele>
        <time>2026-05-17T13:31:51.000Z</time>
      </trkpt>
      <trkpt lat="43.65089" lon="3.3504">
        <ele>187.3</ele>
        <time>2026-05-17T13:31:52.000Z</time>
      </trkpt>
      <trkpt lat="43.65089" lon="3.35041">
        <ele>186.9</ele>
        <time>2026-05-17T13:31:53.000Z</time>
      </trkpt>
      <trkpt lat="43.65088" lon="3.35042">
        <ele>186.5</ele>
        <time>2026-05-17T13:31:54.000Z</time>
      </trkpt>
      <trkpt lat="43.65087" lon="3.35044">
        <ele>186.5</ele>
        <time>2026-05-17T13:31:55.000Z</time>
      </trkpt>
      <trkpt lat="43.65085" lon="3.35045">
        <ele>186.5</ele>
        <time>2026-05-17T13:31:56.000Z</time>
      </trkpt>
      <trkpt lat="43.65084" lon="3.35045">
        <ele>186.5</ele>
        <time>2026-05-17T13:31:57.000Z</time>
      </trkpt>
      <trkpt lat="43.65082" lon="3.35046">
        <ele>186.7</ele>
        <time>2026-05-17T13:31:58.000Z</time>
      </trkpt>
      <trkpt lat="43.6508" lon="3.35046">
        <ele>186.4</ele>
        <time>2026-05-17T13:31:59.000Z</time>
      </trkpt>
      <trkpt lat="43.65079" lon="3.35046">
        <ele>186.2</ele>
        <time>2026-05-17T13:32:00.000Z</time>
      </trkpt>
      <trkpt lat="43.65079" lon="3.35046">
        <ele>186.4</ele>
        <time>2026-05-17T13:32:01.000Z</time>
      </trkpt>
      <trkpt lat="43.65078" lon="3.35046">
        <ele>186.7</ele>
        <time>2026-05-17T13:32:02.000Z</time>
      </trkpt>
      <trkpt lat="43.65077" lon="3.35046">
        <ele>186.8</ele>
        <time>2026-05-17T13:32:03.000Z</time>
      </trkpt>
      <trkpt lat="43.65076" lon="3.35046">
        <ele>186.9</ele>
        <time>2026-05-17T13:32:04.000Z</time>
      </trkpt>
      <trkpt lat="43.65075" lon="3.35046">
        <ele>186.8</ele>
        <time>2026-05-17T13:32:05.000Z</time>
      </trkpt>
      <trkpt lat="43.65074" lon="3.35047">
        <ele>186.8</ele>
        <time>2026-05-17T13:32:06.000Z</time>
      </trkpt>
      <trkpt lat="43.65073" lon="3.35047">
        <ele>186.8</ele>
        <time>2026-05-17T13:32:07.000Z</time>
      </trkpt>
      <trkpt lat="43.65072" lon="3.35048">
        <ele>186.8</ele>
        <time>2026-05-17T13:32:08.000Z</time>
      </trkpt>
      <trkpt lat="43.6507" lon="3.35048">
        <ele>187.1</ele>
        <time>2026-05-17T13:32:09.000Z</time>
      </trkpt>
      <trkpt lat="43.65069" lon="3.35049">
        <ele>187.2</ele>
        <time>2026-05-17T13:32:10.000Z</time>
      </trkpt>
      <trkpt lat="43.65067" lon="3.35049">
        <ele>187</ele>
        <time>2026-05-17T13:32:11.000Z</time>
      </trkpt>
      <trkpt lat="43.65066" lon="3.3505">
        <ele>186.7</ele>
        <time>2026-05-17T13:32:12.000Z</time>
      </trkpt>
      <trkpt lat="43.65065" lon="3.3505">
        <ele>186.3</ele>
        <time>2026-05-17T13:32:13.000Z</time>
      </trkpt>
      <trkpt lat="43.65064" lon="3.35049">
        <ele>186</ele>
        <time>2026-05-17T13:32:14.000Z</time>
      </trkpt>
      <trkpt lat="43.65063" lon="3.35049">
        <ele>185.9</ele>
        <time>2026-05-17T13:32:15.000Z</time>
      </trkpt>
      <trkpt lat="43.65063" lon="3.35049">
        <ele>185.9</ele>
        <time>2026-05-17T13:32:16.000Z</time>
      </trkpt>
      <trkpt lat="43.65062" lon="3.35049">
        <ele>185.9</ele>
        <time>2026-05-17T13:32:17.000Z</time>
      </trkpt>
      <trkpt lat="43.65062" lon="3.35049">
        <ele>186</ele>
        <time>2026-05-17T13:32:18.000Z</time>
      </trkpt>
      <trkpt lat="43.6506" lon="3.35049">
        <ele>186.3</ele>
        <time>2026-05-17T13:32:19.000Z</time>
      </trkpt>
      <trkpt lat="43.6506" lon="3.35049">
        <ele>186.3</ele>
        <time>2026-05-17T13:32:20.000Z</time>
      </trkpt>
      <trkpt lat="43.65059" lon="3.35048">
        <ele>186.3</ele>
        <time>2026-05-17T13:32:21.000Z</time>
      </trkpt>
      <trkpt lat="43.65058" lon="3.35048">
        <ele>186.5</ele>
        <time>2026-05-17T13:32:22.000Z</time>
      </trkpt>
      <trkpt lat="43.65057" lon="3.35048">
        <ele>186.6</ele>
        <time>2026-05-17T13:32:23.000Z</time>
      </trkpt>
      <trkpt lat="43.65056" lon="3.35047">
        <ele>187</ele>
        <time>2026-05-17T13:32:24.000Z</time>
      </trkpt>
      <trkpt lat="43.65055" lon="3.35045">
        <ele>187.6</ele>
        <time>2026-05-17T13:32:25.000Z</time>
      </trkpt>
      <trkpt lat="43.65053" lon="3.35043">
        <ele>188.1</ele>
        <time>2026-05-17T13:32:26.000Z</time>
      </trkpt>
      <trkpt lat="43.65052" lon="3.35041">
        <ele>188.5</ele>
        <time>2026-05-17T13:32:27.000Z</time>
      </trkpt>
      <trkpt lat="43.6505" lon="3.3504">
        <ele>188.7</ele>
        <time>2026-05-17T13:32:28.000Z</time>
      </trkpt>
      <trkpt lat="43.65049" lon="3.35039">
        <ele>188.6</ele>
        <time>2026-05-17T13:32:29.000Z</time>
      </trkpt>
      <trkpt lat="43.65047" lon="3.35039">
        <ele>188.6</ele>
        <time>2026-05-17T13:32:30.000Z</time>
      </trkpt>
      <trkpt lat="43.65046" lon="3.35038">
        <ele>188.7</ele>
        <time>2026-05-17T13:32:31.000Z</time>
      </trkpt>
      <trkpt lat="43.65045" lon="3.35036">
        <ele>188.7</ele>
        <time>2026-05-17T13:32:32.000Z</time>
      </trkpt>
      <trkpt lat="43.65044" lon="3.35035">
        <ele>188.8</ele>
        <time>2026-05-17T13:32:33.000Z</time>
      </trkpt>
      <trkpt lat="43.65044" lon="3.35035">
        <ele>188.7</ele>
        <time>2026-05-17T13:32:34.000Z</time>
      </trkpt>
      <trkpt lat="43.65043" lon="3.35034">
        <ele>188.7</ele>
        <time>2026-05-17T13:32:35.000Z</time>
      </trkpt>
      <trkpt lat="43.65043" lon="3.35033">
        <ele>188.5</ele>
        <time>2026-05-17T13:32:36.000Z</time>
      </trkpt>
      <trkpt lat="43.65043" lon="3.35033">
        <ele>188.7</ele>
        <time>2026-05-17T13:32:37.000Z</time>
      </trkpt>
      <trkpt lat="43.65042" lon="3.35032">
        <ele>189</ele>
        <time>2026-05-17T13:32:38.000Z</time>
      </trkpt>
      <trkpt lat="43.65041" lon="3.35031">
        <ele>189.2</ele>
        <time>2026-05-17T13:32:39.000Z</time>
      </trkpt>
      <trkpt lat="43.65041" lon="3.3503">
        <ele>189.2</ele>
        <time>2026-05-17T13:32:40.000Z</time>
      </trkpt>
      <trkpt lat="43.6504" lon="3.35029">
        <ele>189</ele>
        <time>2026-05-17T13:32:41.000Z</time>
      </trkpt>
      <trkpt lat="43.65039" lon="3.35027">
        <ele>189.3</ele>
        <time>2026-05-17T13:32:42.000Z</time>
      </trkpt>
      <trkpt lat="43.65038" lon="3.35025">
        <ele>189.6</ele>
        <time>2026-05-17T13:32:43.000Z</time>
      </trkpt>
      <trkpt lat="43.65037" lon="3.35022">
        <ele>190</ele>
        <time>2026-05-17T13:32:44.000Z</time>
      </trkpt>
      <trkpt lat="43.65035" lon="3.35021">
        <ele>190.2</ele>
        <time>2026-05-17T13:32:45.000Z</time>
      </trkpt>
      <trkpt lat="43.65034" lon="3.35019">
        <ele>190.3</ele>
        <time>2026-05-17T13:32:46.000Z</time>
      </trkpt>
      <trkpt lat="43.65033" lon="3.35018">
        <ele>190.2</ele>
        <time>2026-05-17T13:32:47.000Z</time>
      </trkpt>
      <trkpt lat="43.65032" lon="3.35017">
        <ele>190.2</ele>
        <time>2026-05-17T13:32:48.000Z</time>
      </trkpt>
      <trkpt lat="43.65032" lon="3.35017">
        <ele>190.1</ele>
        <time>2026-05-17T13:32:49.000Z</time>
      </trkpt>
      <trkpt lat="43.65032" lon="3.35016">
        <ele>190.2</ele>
        <time>2026-05-17T13:32:50.000Z</time>
      </trkpt>
      <trkpt lat="43.65031" lon="3.35014">
        <ele>190.1</ele>
        <time>2026-05-17T13:32:51.000Z</time>
      </trkpt>
      <trkpt lat="43.65029" lon="3.35013">
        <ele>190</ele>
        <time>2026-05-17T13:32:52.000Z</time>
      </trkpt>
      <trkpt lat="43.65027" lon="3.35012">
        <ele>189.8</ele>
        <time>2026-05-17T13:32:53.000Z</time>
      </trkpt>
      <trkpt lat="43.65026" lon="3.35011">
        <ele>189.9</ele>
        <time>2026-05-17T13:32:54.000Z</time>
      </trkpt>
      <trkpt lat="43.65025" lon="3.3501">
        <ele>189.5</ele>
        <time>2026-05-17T13:32:55.000Z</time>
      </trkpt>
      <trkpt lat="43.65024" lon="3.35009">
        <ele>189.7</ele>
        <time>2026-05-17T13:32:56.000Z</time>
      </trkpt>
      <trkpt lat="43.65024" lon="3.35007">
        <ele>189.7</ele>
        <time>2026-05-17T13:32:57.000Z</time>
      </trkpt>
      <trkpt lat="43.65023" lon="3.35005">
        <ele>189.6</ele>
        <time>2026-05-17T13:32:58.000Z</time>
      </trkpt>
      <trkpt lat="43.65023" lon="3.35004">
        <ele>189.7</ele>
        <time>2026-05-17T13:32:59.000Z</time>
      </trkpt>
      <trkpt lat="43.65022" lon="3.35002">
        <ele>189.7</ele>
        <time>2026-05-17T13:33:00.000Z</time>
      </trkpt>
      <trkpt lat="43.65021" lon="3.35">
        <ele>189.6</ele>
        <time>2026-05-17T13:33:01.000Z</time>
      </trkpt>
      <trkpt lat="43.6502" lon="3.34998">
        <ele>189.3</ele>
        <time>2026-05-17T13:33:02.000Z</time>
      </trkpt>
      <trkpt lat="43.65019" lon="3.34997">
        <ele>188.9</ele>
        <time>2026-05-17T13:33:03.000Z</time>
      </trkpt>
      <trkpt lat="43.65019" lon="3.34996">
        <ele>188.7</ele>
        <time>2026-05-17T13:33:04.000Z</time>
      </trkpt>
      <trkpt lat="43.65019" lon="3.34995">
        <ele>188.4</ele>
        <time>2026-05-17T13:33:05.000Z</time>
      </trkpt>
      <trkpt lat="43.65019" lon="3.34993">
        <ele>188.2</ele>
        <time>2026-05-17T13:33:06.000Z</time>
      </trkpt>
      <trkpt lat="43.65018" lon="3.34991">
        <ele>187.9</ele>
        <time>2026-05-17T13:33:07.000Z</time>
      </trkpt>
      <trkpt lat="43.65017" lon="3.3499">
        <ele>187.9</ele>
        <time>2026-05-17T13:33:08.000Z</time>
      </trkpt>
      <trkpt lat="43.65016" lon="3.34989">
        <ele>187.5</ele>
        <time>2026-05-17T13:33:09.000Z</time>
      </trkpt>
      <trkpt lat="43.65016" lon="3.34989">
        <ele>187.4</ele>
        <time>2026-05-17T13:33:10.000Z</time>
      </trkpt>
      <trkpt lat="43.65015" lon="3.3499">
        <ele>187</ele>
        <time>2026-05-17T13:33:11.000Z</time>
      </trkpt>
      <trkpt lat="43.65014" lon="3.34989">
        <ele>186.8</ele>
        <time>2026-05-17T13:33:12.000Z</time>
      </trkpt>
      <trkpt lat="43.65013" lon="3.34989">
        <ele>186.9</ele>
        <time>2026-05-17T13:33:13.000Z</time>
      </trkpt>
      <trkpt lat="43.65012" lon="3.34989">
        <ele>186.9</ele>
        <time>2026-05-17T13:33:14.000Z</time>
      </trkpt>
      <trkpt lat="43.65011" lon="3.34988">
        <ele>186.5</ele>
        <time>2026-05-17T13:33:15.000Z</time>
      </trkpt>
      <trkpt lat="43.65011" lon="3.34987">
        <ele>185.8</ele>
        <time>2026-05-17T13:33:16.000Z</time>
      </trkpt>
      <trkpt lat="43.65012" lon="3.34986">
        <ele>185.7</ele>
        <time>2026-05-17T13:33:17.000Z</time>
      </trkpt>
      <trkpt lat="43.65012" lon="3.34984">
        <ele>185.5</ele>
        <time>2026-05-17T13:33:18.000Z</time>
      </trkpt>
      <trkpt lat="43.65011" lon="3.34983">
        <ele>185.4</ele>
        <time>2026-05-17T13:33:19.000Z</time>
      </trkpt>
      <trkpt lat="43.6501" lon="3.34983">
        <ele>185.5</ele>
        <time>2026-05-17T13:33:20.000Z</time>
      </trkpt>
      <trkpt lat="43.6501" lon="3.34982">
        <ele>185.4</ele>
        <time>2026-05-17T13:33:21.000Z</time>
      </trkpt>
      <trkpt lat="43.65009" lon="3.34981">
        <ele>185.2</ele>
        <time>2026-05-17T13:33:22.000Z</time>
      </trkpt>
      <trkpt lat="43.65009" lon="3.3498">
        <ele>185.1</ele>
        <time>2026-05-17T13:33:23.000Z</time>
      </trkpt>
      <trkpt lat="43.65009" lon="3.34979">
        <ele>184.8</ele>
        <time>2026-05-17T13:33:24.000Z</time>
      </trkpt>
      <trkpt lat="43.65009" lon="3.34979">
        <ele>184.5</ele>
        <time>2026-05-17T13:33:25.000Z</time>
      </trkpt>
      <trkpt lat="43.65009" lon="3.34979">
        <ele>184.6</ele>
        <time>2026-05-17T13:33:26.000Z</time>
      </trkpt>
      <trkpt lat="43.65008" lon="3.34978">
        <ele>184.5</ele>
        <time>2026-05-17T13:33:27.000Z</time>
      </trkpt>
      <trkpt lat="43.65008" lon="3.34978">
        <ele>183.7</ele>
        <time>2026-05-17T13:33:28.000Z</time>
      </trkpt>
      <trkpt lat="43.65008" lon="3.34979">
        <ele>182.9</ele>
        <time>2026-05-17T13:33:29.000Z</time>
      </trkpt>
      <trkpt lat="43.65008" lon="3.3498">
        <ele>182.6</ele>
        <time>2026-05-17T13:33:30.000Z</time>
      </trkpt>
      <trkpt lat="43.65008" lon="3.34982">
        <ele>181.8</ele>
        <time>2026-05-17T13:33:31.000Z</time>
      </trkpt>
      <trkpt lat="43.65008" lon="3.34983">
        <ele>181.6</ele>
        <time>2026-05-17T13:33:32.000Z</time>
      </trkpt>
      <trkpt lat="43.65008" lon="3.34985">
        <ele>181.6</ele>
        <time>2026-05-17T13:33:33.000Z</time>
      </trkpt>
      <trkpt lat="43.65008" lon="3.34986">
        <ele>181.5</ele>
        <time>2026-05-17T13:33:34.000Z</time>
      </trkpt>
      <trkpt lat="43.65008" lon="3.34986">
        <ele>181.4</ele>
        <time>2026-05-17T13:33:35.000Z</time>
      </trkpt>
      <trkpt lat="43.65007" lon="3.34987">
        <ele>181.4</ele>
        <time>2026-05-17T13:33:36.000Z</time>
      </trkpt>
      <trkpt lat="43.65006" lon="3.34988">
        <ele>181.5</ele>
        <time>2026-05-17T13:33:37.000Z</time>
      </trkpt>
      <trkpt lat="43.65005" lon="3.3499">
        <ele>181.3</ele>
        <time>2026-05-17T13:33:38.000Z</time>
      </trkpt>
      <trkpt lat="43.65004" lon="3.34992">
        <ele>180.9</ele>
        <time>2026-05-17T13:33:39.000Z</time>
      </trkpt>
      <trkpt lat="43.65003" lon="3.34993">
        <ele>180.6</ele>
        <time>2026-05-17T13:33:40.000Z</time>
      </trkpt>
      <trkpt lat="43.65003" lon="3.34994">
        <ele>180.5</ele>
        <time>2026-05-17T13:33:41.000Z</time>
      </trkpt>
      <trkpt lat="43.65002" lon="3.34995">
        <ele>180.5</ele>
        <time>2026-05-17T13:33:42.000Z</time>
      </trkpt>
      <trkpt lat="43.65002" lon="3.34995">
        <ele>180.2</ele>
        <time>2026-05-17T13:33:43.000Z</time>
      </trkpt>
      <trkpt lat="43.65002" lon="3.34996">
        <ele>180.5</ele>
        <time>2026-05-17T13:33:44.000Z</time>
      </trkpt>
      <trkpt lat="43.65001" lon="3.34996">
        <ele>180.3</ele>
        <time>2026-05-17T13:33:45.000Z</time>
      </trkpt>
      <trkpt lat="43.65" lon="3.34996">
        <ele>180.1</ele>
        <time>2026-05-17T13:33:46.000Z</time>
      </trkpt>
      <trkpt lat="43.65" lon="3.34996">
        <ele>179.9</ele>
        <time>2026-05-17T13:33:47.000Z</time>
      </trkpt>
      <trkpt lat="43.64999" lon="3.34995">
        <ele>179.9</ele>
        <time>2026-05-17T13:33:48.000Z</time>
      </trkpt>
      <trkpt lat="43.64999" lon="3.34994">
        <ele>180</ele>
        <time>2026-05-17T13:33:49.000Z</time>
      </trkpt>
      <trkpt lat="43.64999" lon="3.34993">
        <ele>180.1</ele>
        <time>2026-05-17T13:33:50.000Z</time>
      </trkpt>
      <trkpt lat="43.64998" lon="3.34991">
        <ele>180.2</ele>
        <time>2026-05-17T13:33:51.000Z</time>
      </trkpt>
      <trkpt lat="43.64998" lon="3.3499">
        <ele>180.3</ele>
        <time>2026-05-17T13:33:52.000Z</time>
      </trkpt>
      <trkpt lat="43.64997" lon="3.34989">
        <ele>180.3</ele>
        <time>2026-05-17T13:33:53.000Z</time>
      </trkpt>
      <trkpt lat="43.64996" lon="3.34987">
        <ele>180.3</ele>
        <time>2026-05-17T13:33:54.000Z</time>
      </trkpt>
      <trkpt lat="43.64995" lon="3.34986">
        <ele>180.6</ele>
        <time>2026-05-17T13:33:55.000Z</time>
      </trkpt>
      <trkpt lat="43.64994" lon="3.34985">
        <ele>181.3</ele>
        <time>2026-05-17T13:33:56.000Z</time>
      </trkpt>
      <trkpt lat="43.64992" lon="3.34984">
        <ele>181.3</ele>
        <time>2026-05-17T13:33:57.000Z</time>
      </trkpt>
      <trkpt lat="43.64992" lon="3.34984">
        <ele>181.4</ele>
        <time>2026-05-17T13:33:58.000Z</time>
      </trkpt>
      <trkpt lat="43.64991" lon="3.34983">
        <ele>181.7</ele>
        <time>2026-05-17T13:33:59.000Z</time>
      </trkpt>
      <trkpt lat="43.6499" lon="3.34982">
        <ele>182.2</ele>
        <time>2026-05-17T13:34:00.000Z</time>
      </trkpt>
      <trkpt lat="43.64989" lon="3.34981">
        <ele>182.8</ele>
        <time>2026-05-17T13:34:01.000Z</time>
      </trkpt>
      <trkpt lat="43.64989" lon="3.3498">
        <ele>182.9</ele>
        <time>2026-05-17T13:34:02.000Z</time>
      </trkpt>
      <trkpt lat="43.64989" lon="3.3498">
        <ele>182.9</ele>
        <time>2026-05-17T13:34:03.000Z</time>
      </trkpt>
      <trkpt lat="43.64988" lon="3.3498">
        <ele>183.3</ele>
        <time>2026-05-17T13:34:04.000Z</time>
      </trkpt>
      <trkpt lat="43.64987" lon="3.3498">
        <ele>183.7</ele>
        <time>2026-05-17T13:34:05.000Z</time>
      </trkpt>
      <trkpt lat="43.64987" lon="3.3498">
        <ele>184.4</ele>
        <time>2026-05-17T13:34:06.000Z</time>
      </trkpt>
      <trkpt lat="43.64986" lon="3.3498">
        <ele>184.9</ele>
        <time>2026-05-17T13:34:07.000Z</time>
      </trkpt>
      <trkpt lat="43.64986" lon="3.3498">
        <ele>185.2</ele>
        <time>2026-05-17T13:34:08.000Z</time>
      </trkpt>
      <trkpt lat="43.64985" lon="3.3498">
        <ele>185.5</ele>
        <time>2026-05-17T13:34:09.000Z</time>
      </trkpt>
      <trkpt lat="43.64985" lon="3.34979">
        <ele>185.3</ele>
        <time>2026-05-17T13:34:10.000Z</time>
      </trkpt>
      <trkpt lat="43.64984" lon="3.34979">
        <ele>185.9</ele>
        <time>2026-05-17T13:34:11.000Z</time>
      </trkpt>
      <trkpt lat="43.64983" lon="3.34978">
        <ele>186.1</ele>
        <time>2026-05-17T13:34:12.000Z</time>
      </trkpt>
      <trkpt lat="43.64983" lon="3.34977">
        <ele>186.1</ele>
        <time>2026-05-17T13:34:13.000Z</time>
      </trkpt>
      <trkpt lat="43.64982" lon="3.34976">
        <ele>186.1</ele>
        <time>2026-05-17T13:34:14.000Z</time>
      </trkpt>
      <trkpt lat="43.64982" lon="3.34974">
        <ele>186.3</ele>
        <time>2026-05-17T13:34:15.000Z</time>
      </trkpt>
      <trkpt lat="43.64982" lon="3.34973">
        <ele>186.3</ele>
        <time>2026-05-17T13:34:16.000Z</time>
      </trkpt>
      <trkpt lat="43.64981" lon="3.34972">
        <ele>186.4</ele>
        <time>2026-05-17T13:34:17.000Z</time>
      </trkpt>
      <trkpt lat="43.64981" lon="3.34971">
        <ele>186.6</ele>
        <time>2026-05-17T13:34:18.000Z</time>
      </trkpt>
      <trkpt lat="43.6498" lon="3.34972">
        <ele>186.4</ele>
        <time>2026-05-17T13:34:19.000Z</time>
      </trkpt>
      <trkpt lat="43.6498" lon="3.34973">
        <ele>186.6</ele>
        <time>2026-05-17T13:34:20.000Z</time>
      </trkpt>
      <trkpt lat="43.64978" lon="3.34975">
        <ele>187.1</ele>
        <time>2026-05-17T13:34:21.000Z</time>
      </trkpt>
      <trkpt lat="43.64977" lon="3.34976">
        <ele>187.6</ele>
        <time>2026-05-17T13:34:22.000Z</time>
      </trkpt>
      <trkpt lat="43.64976" lon="3.34976">
        <ele>187.9</ele>
        <time>2026-05-17T13:34:23.000Z</time>
      </trkpt>
      <trkpt lat="43.64975" lon="3.34977">
        <ele>188.5</ele>
        <time>2026-05-17T13:34:24.000Z</time>
      </trkpt>
      <trkpt lat="43.64974" lon="3.34978">
        <ele>188.8</ele>
        <time>2026-05-17T13:34:25.000Z</time>
      </trkpt>
      <trkpt lat="43.64973" lon="3.34979">
        <ele>189.2</ele>
        <time>2026-05-17T13:34:26.000Z</time>
      </trkpt>
      <trkpt lat="43.64973" lon="3.3498">
        <ele>189.8</ele>
        <time>2026-05-17T13:34:27.000Z</time>
      </trkpt>
      <trkpt lat="43.64972" lon="3.3498">
        <ele>190.2</ele>
        <time>2026-05-17T13:34:28.000Z</time>
      </trkpt>
      <trkpt lat="43.64971" lon="3.3498">
        <ele>190.3</ele>
        <time>2026-05-17T13:34:29.000Z</time>
      </trkpt>
      <trkpt lat="43.6497" lon="3.3498">
        <ele>190.3</ele>
        <time>2026-05-17T13:34:30.000Z</time>
      </trkpt>
      <trkpt lat="43.64969" lon="3.3498">
        <ele>190.2</ele>
        <time>2026-05-17T13:34:31.000Z</time>
      </trkpt>
      <trkpt lat="43.64968" lon="3.3498">
        <ele>190.1</ele>
        <time>2026-05-17T13:34:32.000Z</time>
      </trkpt>
      <trkpt lat="43.64967" lon="3.34979">
        <ele>190.2</ele>
        <time>2026-05-17T13:34:33.000Z</time>
      </trkpt>
      <trkpt lat="43.64966" lon="3.34978">
        <ele>190.1</ele>
        <time>2026-05-17T13:34:34.000Z</time>
      </trkpt>
      <trkpt lat="43.64964" lon="3.34977">
        <ele>190.1</ele>
        <time>2026-05-17T13:34:35.000Z</time>
      </trkpt>
      <trkpt lat="43.64964" lon="3.34976">
        <ele>190.1</ele>
        <time>2026-05-17T13:34:36.000Z</time>
      </trkpt>
      <trkpt lat="43.64963" lon="3.34975">
        <ele>190</ele>
        <time>2026-05-17T13:34:37.000Z</time>
      </trkpt>
      <trkpt lat="43.64962" lon="3.34974">
        <ele>190</ele>
        <time>2026-05-17T13:34:38.000Z</time>
      </trkpt>
      <trkpt lat="43.64961" lon="3.34973">
        <ele>190</ele>
        <time>2026-05-17T13:34:39.000Z</time>
      </trkpt>
      <trkpt lat="43.6496" lon="3.34972">
        <ele>189.9</ele>
        <time>2026-05-17T13:34:40.000Z</time>
      </trkpt>
      <trkpt lat="43.64959" lon="3.34971">
        <ele>189.9</ele>
        <time>2026-05-17T13:34:41.000Z</time>
      </trkpt>
      <trkpt lat="43.64958" lon="3.3497">
        <ele>189.8</ele>
        <time>2026-05-17T13:34:42.000Z</time>
      </trkpt>
      <trkpt lat="43.64957" lon="3.3497">
        <ele>189.8</ele>
        <time>2026-05-17T13:34:43.000Z</time>
      </trkpt>
      <trkpt lat="43.64956" lon="3.34969">
        <ele>189.9</ele>
        <time>2026-05-17T13:34:44.000Z</time>
      </trkpt>
      <trkpt lat="43.64955" lon="3.34969">
        <ele>190</ele>
        <time>2026-05-17T13:34:45.000Z</time>
      </trkpt>
      <trkpt lat="43.64954" lon="3.34969">
        <ele>190</ele>
        <time>2026-05-17T13:34:46.000Z</time>
      </trkpt>
      <trkpt lat="43.64954" lon="3.34968">
        <ele>190.1</ele>
        <time>2026-05-17T13:34:47.000Z</time>
      </trkpt>
      <trkpt lat="43.64953" lon="3.34967">
        <ele>190.2</ele>
        <time>2026-05-17T13:34:48.000Z</time>
      </trkpt>
      <trkpt lat="43.64952" lon="3.34966">
        <ele>190.5</ele>
        <time>2026-05-17T13:34:49.000Z</time>
      </trkpt>
      <trkpt lat="43.64952" lon="3.34965">
        <ele>191.1</ele>
        <time>2026-05-17T13:34:50.000Z</time>
      </trkpt>
      <trkpt lat="43.64951" lon="3.34965">
        <ele>191.4</ele>
        <time>2026-05-17T13:34:51.000Z</time>
      </trkpt>
      <trkpt lat="43.6495" lon="3.34964">
        <ele>191.5</ele>
        <time>2026-05-17T13:34:52.000Z</time>
      </trkpt>
      <trkpt lat="43.64949" lon="3.34964">
        <ele>191.1</ele>
        <time>2026-05-17T13:34:53.000Z</time>
      </trkpt>
      <trkpt lat="43.64948" lon="3.34963">
        <ele>191.1</ele>
        <time>2026-05-17T13:34:54.000Z</time>
      </trkpt>
      <trkpt lat="43.64947" lon="3.34962">
        <ele>191.3</ele>
        <time>2026-05-17T13:34:55.000Z</time>
      </trkpt>
      <trkpt lat="43.64946" lon="3.34961">
        <ele>191.3</ele>
        <time>2026-05-17T13:34:56.000Z</time>
      </trkpt>
      <trkpt lat="43.64946" lon="3.3496">
        <ele>191.2</ele>
        <time>2026-05-17T13:34:57.000Z</time>
      </trkpt>
      <trkpt lat="43.64945" lon="3.34958">
        <ele>191.1</ele>
        <time>2026-05-17T13:34:58.000Z</time>
      </trkpt>
      <trkpt lat="43.64945" lon="3.34957">
        <ele>191.1</ele>
        <time>2026-05-17T13:34:59.000Z</time>
      </trkpt>
      <trkpt lat="43.64945" lon="3.34956">
        <ele>191</ele>
        <time>2026-05-17T13:35:00.000Z</time>
      </trkpt>
      <trkpt lat="43.64944" lon="3.34954">
        <ele>191</ele>
        <time>2026-05-17T13:35:01.000Z</time>
      </trkpt>
      <trkpt lat="43.64944" lon="3.34953">
        <ele>190.6</ele>
        <time>2026-05-17T13:35:02.000Z</time>
      </trkpt>
      <trkpt lat="43.64943" lon="3.34952">
        <ele>190.5</ele>
        <time>2026-05-17T13:35:03.000Z</time>
      </trkpt>
      <trkpt lat="43.64943" lon="3.3495">
        <ele>190.5</ele>
        <time>2026-05-17T13:35:04.000Z</time>
      </trkpt>
      <trkpt lat="43.64942" lon="3.34949">
        <ele>190.3</ele>
        <time>2026-05-17T13:35:05.000Z</time>
      </trkpt>
      <trkpt lat="43.64942" lon="3.34947">
        <ele>190.2</ele>
        <time>2026-05-17T13:35:06.000Z</time>
      </trkpt>
      <trkpt lat="43.64941" lon="3.34946">
        <ele>190.2</ele>
        <time>2026-05-17T13:35:07.000Z</time>
      </trkpt>
      <trkpt lat="43.6494" lon="3.34946">
        <ele>190.5</ele>
        <time>2026-05-17T13:35:08.000Z</time>
      </trkpt>
      <trkpt lat="43.64939" lon="3.34945">
        <ele>190.8</ele>
        <time>2026-05-17T13:35:09.000Z</time>
      </trkpt>
      <trkpt lat="43.64939" lon="3.34944">
        <ele>190.9</ele>
        <time>2026-05-17T13:35:10.000Z</time>
      </trkpt>
      <trkpt lat="43.64937" lon="3.34942">
        <ele>191.1</ele>
        <time>2026-05-17T13:35:11.000Z</time>
      </trkpt>
      <trkpt lat="43.64936" lon="3.34941">
        <ele>191</ele>
        <time>2026-05-17T13:35:12.000Z</time>
      </trkpt>
      <trkpt lat="43.64935" lon="3.3494">
        <ele>191.1</ele>
        <time>2026-05-17T13:35:13.000Z</time>
      </trkpt>
      <trkpt lat="43.64934" lon="3.34939">
        <ele>191</ele>
        <time>2026-05-17T13:35:14.000Z</time>
      </trkpt>
      <trkpt lat="43.64933" lon="3.34939">
        <ele>190.7</ele>
        <time>2026-05-17T13:35:15.000Z</time>
      </trkpt>
      <trkpt lat="43.64932" lon="3.34939">
        <ele>190.8</ele>
        <time>2026-05-17T13:35:16.000Z</time>
      </trkpt>
      <trkpt lat="43.64932" lon="3.34939">
        <ele>190.4</ele>
        <time>2026-05-17T13:35:17.000Z</time>
      </trkpt>
      <trkpt lat="43.64931" lon="3.34939">
        <ele>190.2</ele>
        <time>2026-05-17T13:35:18.000Z</time>
      </trkpt>
      <trkpt lat="43.6493" lon="3.3494">
        <ele>190.2</ele>
        <time>2026-05-17T13:35:19.000Z</time>
      </trkpt>
      <trkpt lat="43.64929" lon="3.34941">
        <ele>190.2</ele>
        <time>2026-05-17T13:35:20.000Z</time>
      </trkpt>
      <trkpt lat="43.64928" lon="3.34942">
        <ele>190.3</ele>
        <time>2026-05-17T13:35:21.000Z</time>
      </trkpt>
      <trkpt lat="43.64927" lon="3.34942">
        <ele>190.2</ele>
        <time>2026-05-17T13:35:22.000Z</time>
      </trkpt>
      <trkpt lat="43.64926" lon="3.34943">
        <ele>189.7</ele>
        <time>2026-05-17T13:35:23.000Z</time>
      </trkpt>
      <trkpt lat="43.64924" lon="3.34943">
        <ele>189.8</ele>
        <time>2026-05-17T13:35:24.000Z</time>
      </trkpt>
      <trkpt lat="43.64923" lon="3.34943">
        <ele>189.7</ele>
        <time>2026-05-17T13:35:25.000Z</time>
      </trkpt>
      <trkpt lat="43.64922" lon="3.34943">
        <ele>189.7</ele>
        <time>2026-05-17T13:35:26.000Z</time>
      </trkpt>
      <trkpt lat="43.64921" lon="3.34943">
        <ele>189.6</ele>
        <time>2026-05-17T13:35:27.000Z</time>
      </trkpt>
      <trkpt lat="43.6492" lon="3.34943">
        <ele>189.4</ele>
        <time>2026-05-17T13:35:28.000Z</time>
      </trkpt>
      <trkpt lat="43.64919" lon="3.34943">
        <ele>189.3</ele>
        <time>2026-05-17T13:35:29.000Z</time>
      </trkpt>
      <trkpt lat="43.64917" lon="3.34943">
        <ele>189.3</ele>
        <time>2026-05-17T13:35:30.000Z</time>
      </trkpt>
      <trkpt lat="43.64912" lon="3.34943">
        <ele>189.4</ele>
        <time>2026-05-17T13:35:32.000Z</time>
      </trkpt>
      <trkpt lat="43.64911" lon="3.34944">
        <ele>189.2</ele>
        <time>2026-05-17T13:35:33.000Z</time>
      </trkpt>
      <trkpt lat="43.64909" lon="3.34945">
        <ele>189.1</ele>
        <time>2026-05-17T13:35:34.000Z</time>
      </trkpt>
      <trkpt lat="43.64908" lon="3.34945">
        <ele>189.2</ele>
        <time>2026-05-17T13:35:35.000Z</time>
      </trkpt>
      <trkpt lat="43.64906" lon="3.34946">
        <ele>188.9</ele>
        <time>2026-05-17T13:35:36.000Z</time>
      </trkpt>
      <trkpt lat="43.64905" lon="3.34945">
        <ele>188.5</ele>
        <time>2026-05-17T13:35:37.000Z</time>
      </trkpt>
      <trkpt lat="43.64904" lon="3.34946">
        <ele>188.6</ele>
        <time>2026-05-17T13:35:38.000Z</time>
      </trkpt>
      <trkpt lat="43.64903" lon="3.34946">
        <ele>188.5</ele>
        <time>2026-05-17T13:35:39.000Z</time>
      </trkpt>
      <trkpt lat="43.64902" lon="3.34946">
        <ele>188.6</ele>
        <time>2026-05-17T13:35:40.000Z</time>
      </trkpt>
      <trkpt lat="43.64902" lon="3.34946">
        <ele>188.6</ele>
        <time>2026-05-17T13:35:41.000Z</time>
      </trkpt>
      <trkpt lat="43.64901" lon="3.34947">
        <ele>188.2</ele>
        <time>2026-05-17T13:35:42.000Z</time>
      </trkpt>
      <trkpt lat="43.64901" lon="3.34948">
        <ele>188.2</ele>
        <time>2026-05-17T13:35:43.000Z</time>
      </trkpt>
      <trkpt lat="43.649" lon="3.34948">
        <ele>188.1</ele>
        <time>2026-05-17T13:35:44.000Z</time>
      </trkpt>
      <trkpt lat="43.649" lon="3.34949">
        <ele>187.9</ele>
        <time>2026-05-17T13:35:45.000Z</time>
      </trkpt>
      <trkpt lat="43.649" lon="3.34948">
        <ele>187.7</ele>
        <time>2026-05-17T13:35:46.000Z</time>
      </trkpt>
      <trkpt lat="43.64899" lon="3.34948">
        <ele>187.8</ele>
        <time>2026-05-17T13:35:47.000Z</time>
      </trkpt>
      <trkpt lat="43.64899" lon="3.34948">
        <ele>187.5</ele>
        <time>2026-05-17T13:35:48.000Z</time>
      </trkpt>
      <trkpt lat="43.64899" lon="3.34948">
        <ele>186.9</ele>
        <time>2026-05-17T13:35:49.000Z</time>
      </trkpt>
      <trkpt lat="43.64899" lon="3.34949">
        <ele>186.7</ele>
        <time>2026-05-17T13:35:50.000Z</time>
      </trkpt>
      <trkpt lat="43.64898" lon="3.34949">
        <ele>186.2</ele>
        <time>2026-05-17T13:35:51.000Z</time>
      </trkpt>
      <trkpt lat="43.64896" lon="3.3495">
        <ele>185.6</ele>
        <time>2026-05-17T13:35:52.000Z</time>
      </trkpt>
      <trkpt lat="43.64895" lon="3.3495">
        <ele>184.9</ele>
        <time>2026-05-17T13:35:53.000Z</time>
      </trkpt>
      <trkpt lat="43.64893" lon="3.34952">
        <ele>184.2</ele>
        <time>2026-05-17T13:35:54.000Z</time>
      </trkpt>
      <trkpt lat="43.64892" lon="3.34952">
        <ele>183.9</ele>
        <time>2026-05-17T13:35:55.000Z</time>
      </trkpt>
      <trkpt lat="43.64891" lon="3.34953">
        <ele>183.5</ele>
        <time>2026-05-17T13:35:56.000Z</time>
      </trkpt>
      <trkpt lat="43.6489" lon="3.34955">
        <ele>183.2</ele>
        <time>2026-05-17T13:35:57.000Z</time>
      </trkpt>
      <trkpt lat="43.6489" lon="3.34956">
        <ele>183</ele>
        <time>2026-05-17T13:35:58.000Z</time>
      </trkpt>
      <trkpt lat="43.64889" lon="3.34957">
        <ele>183</ele>
        <time>2026-05-17T13:35:59.000Z</time>
      </trkpt>
      <trkpt lat="43.64888" lon="3.34957">
        <ele>182.8</ele>
        <time>2026-05-17T13:36:00.000Z</time>
      </trkpt>
      <trkpt lat="43.64888" lon="3.34958">
        <ele>182.8</ele>
        <time>2026-05-17T13:36:01.000Z</time>
      </trkpt>
      <trkpt lat="43.64887" lon="3.34958">
        <ele>182.4</ele>
        <time>2026-05-17T13:36:02.000Z</time>
      </trkpt>
      <trkpt lat="43.64887" lon="3.34959">
        <ele>182.6</ele>
        <time>2026-05-17T13:36:03.000Z</time>
      </trkpt>
      <trkpt lat="43.64886" lon="3.3496">
        <ele>182.9</ele>
        <time>2026-05-17T13:36:04.000Z</time>
      </trkpt>
      <trkpt lat="43.64885" lon="3.34961">
        <ele>182.8</ele>
        <time>2026-05-17T13:36:05.000Z</time>
      </trkpt>
      <trkpt lat="43.64885" lon="3.34962">
        <ele>182.6</ele>
        <time>2026-05-17T13:36:06.000Z</time>
      </trkpt>
      <trkpt lat="43.64884" lon="3.34964">
        <ele>182.5</ele>
        <time>2026-05-17T13:36:07.000Z</time>
      </trkpt>
      <trkpt lat="43.64884" lon="3.34965">
        <ele>182.7</ele>
        <time>2026-05-17T13:36:08.000Z</time>
      </trkpt>
      <trkpt lat="43.64883" lon="3.34966">
        <ele>182.5</ele>
        <time>2026-05-17T13:36:09.000Z</time>
      </trkpt>
      <trkpt lat="43.64883" lon="3.34967">
        <ele>182.3</ele>
        <time>2026-05-17T13:36:10.000Z</time>
      </trkpt>
      <trkpt lat="43.64883" lon="3.34968">
        <ele>182.1</ele>
        <time>2026-05-17T13:36:11.000Z</time>
      </trkpt>
      <trkpt lat="43.64883" lon="3.3497">
        <ele>182.1</ele>
        <time>2026-05-17T13:36:12.000Z</time>
      </trkpt>
      <trkpt lat="43.64883" lon="3.34972">
        <ele>182</ele>
        <time>2026-05-17T13:36:13.000Z</time>
      </trkpt>
      <trkpt lat="43.64883" lon="3.34974">
        <ele>182</ele>
        <time>2026-05-17T13:36:14.000Z</time>
      </trkpt>
      <trkpt lat="43.64883" lon="3.34975">
        <ele>181.8</ele>
        <time>2026-05-17T13:36:15.000Z</time>
      </trkpt>
      <trkpt lat="43.64883" lon="3.34977">
        <ele>181.8</ele>
        <time>2026-05-17T13:36:16.000Z</time>
      </trkpt>
      <trkpt lat="43.64882" lon="3.34984">
        <ele>182.6</ele>
        <time>2026-05-17T13:36:18.000Z</time>
      </trkpt>
      <trkpt lat="43.64882" lon="3.34986">
        <ele>182.5</ele>
        <time>2026-05-17T13:36:19.000Z</time>
      </trkpt>
      <trkpt lat="43.6488" lon="3.3499">
        <ele>183.1</ele>
        <time>2026-05-17T13:36:20.000Z</time>
      </trkpt>
      <trkpt lat="43.6488" lon="3.34993">
        <ele>183.8</ele>
        <time>2026-05-17T13:36:21.000Z</time>
      </trkpt>
      <trkpt lat="43.64879" lon="3.34995">
        <ele>184</ele>
        <time>2026-05-17T13:36:22.000Z</time>
      </trkpt>
      <trkpt lat="43.64879" lon="3.34997">
        <ele>184</ele>
        <time>2026-05-17T13:36:23.000Z</time>
      </trkpt>
      <trkpt lat="43.64879" lon="3.34999">
        <ele>183.8</ele>
        <time>2026-05-17T13:36:24.000Z</time>
      </trkpt>
      <trkpt lat="43.64879" lon="3.35002">
        <ele>184</ele>
        <time>2026-05-17T13:36:25.000Z</time>
      </trkpt>
      <trkpt lat="43.64879" lon="3.35005">
        <ele>184.2</ele>
        <time>2026-05-17T13:36:26.000Z</time>
      </trkpt>
      <trkpt lat="43.64879" lon="3.35007">
        <ele>184.4</ele>
        <time>2026-05-17T13:36:27.000Z</time>
      </trkpt>
      <trkpt lat="43.6488" lon="3.3501">
        <ele>184.3</ele>
        <time>2026-05-17T13:36:28.000Z</time>
      </trkpt>
      <trkpt lat="43.6488" lon="3.35014">
        <ele>184.5</ele>
        <time>2026-05-17T13:36:29.000Z</time>
      </trkpt>
      <trkpt lat="43.64879" lon="3.35015">
        <ele>184.6</ele>
        <time>2026-05-17T13:36:30.000Z</time>
      </trkpt>
      <trkpt lat="43.64879" lon="3.35018">
        <ele>184.3</ele>
        <time>2026-05-17T13:36:31.000Z</time>
      </trkpt>
      <trkpt lat="43.64878" lon="3.3502">
        <ele>184.3</ele>
        <time>2026-05-17T13:36:32.000Z</time>
      </trkpt>
      <trkpt lat="43.64878" lon="3.35021">
        <ele>184.6</ele>
        <time>2026-05-17T13:36:33.000Z</time>
      </trkpt>
      <trkpt lat="43.64878" lon="3.35022">
        <ele>184.1</ele>
        <time>2026-05-17T13:36:34.000Z</time>
      </trkpt>
      <trkpt lat="43.64879" lon="3.35023">
        <ele>184.2</ele>
        <time>2026-05-17T13:36:35.000Z</time>
      </trkpt>
      <trkpt lat="43.64878" lon="3.35024">
        <ele>184.7</ele>
        <time>2026-05-17T13:36:36.000Z</time>
      </trkpt>
      <trkpt lat="43.64878" lon="3.35026">
        <ele>184.9</ele>
        <time>2026-05-17T13:36:37.000Z</time>
      </trkpt>
      <trkpt lat="43.64878" lon="3.35027">
        <ele>185.2</ele>
        <time>2026-05-17T13:36:38.000Z</time>
      </trkpt>
      <trkpt lat="43.64877" lon="3.35029">
        <ele>185.1</ele>
        <time>2026-05-17T13:36:39.000Z</time>
      </trkpt>
      <trkpt lat="43.64877" lon="3.3503">
        <ele>184.6</ele>
        <time>2026-05-17T13:36:40.000Z</time>
      </trkpt>
      <trkpt lat="43.64877" lon="3.35032">
        <ele>184.3</ele>
        <time>2026-05-17T13:36:41.000Z</time>
      </trkpt>
      <trkpt lat="43.64876" lon="3.35034">
        <ele>183.7</ele>
        <time>2026-05-17T13:36:42.000Z</time>
      </trkpt>
      <trkpt lat="43.64876" lon="3.35034">
        <ele>183.5</ele>
        <time>2026-05-17T13:36:43.000Z</time>
      </trkpt>
      <trkpt lat="43.64876" lon="3.35035">
        <ele>183.8</ele>
        <time>2026-05-17T13:36:44.000Z</time>
      </trkpt>
      <trkpt lat="43.64875" lon="3.35035">
        <ele>183.9</ele>
        <time>2026-05-17T13:36:45.000Z</time>
      </trkpt>
      <trkpt lat="43.64875" lon="3.35036">
        <ele>184.2</ele>
        <time>2026-05-17T13:36:46.000Z</time>
      </trkpt>
      <trkpt lat="43.64875" lon="3.35038">
        <ele>184.4</ele>
        <time>2026-05-17T13:36:47.000Z</time>
      </trkpt>
      <trkpt lat="43.64874" lon="3.35039">
        <ele>184.8</ele>
        <time>2026-05-17T13:36:48.000Z</time>
      </trkpt>
      <trkpt lat="43.64873" lon="3.35039">
        <ele>184.8</ele>
        <time>2026-05-17T13:36:49.000Z</time>
      </trkpt>
      <trkpt lat="43.64871" lon="3.35039">
        <ele>185.1</ele>
        <time>2026-05-17T13:36:50.000Z</time>
      </trkpt>
      <trkpt lat="43.6487" lon="3.35039">
        <ele>184.8</ele>
        <time>2026-05-17T13:36:51.000Z</time>
      </trkpt>
      <trkpt lat="43.64869" lon="3.35039">
        <ele>184.8</ele>
        <time>2026-05-17T13:36:52.000Z</time>
      </trkpt>
      <trkpt lat="43.64868" lon="3.35038">
        <ele>184.7</ele>
        <time>2026-05-17T13:36:53.000Z</time>
      </trkpt>
      <trkpt lat="43.64867" lon="3.35038">
        <ele>184.9</ele>
        <time>2026-05-17T13:36:54.000Z</time>
      </trkpt>
      <trkpt lat="43.64865" lon="3.35038">
        <ele>185</ele>
        <time>2026-05-17T13:36:55.000Z</time>
      </trkpt>
      <trkpt lat="43.64863" lon="3.35038">
        <ele>185.5</ele>
        <time>2026-05-17T13:36:56.000Z</time>
      </trkpt>
      <trkpt lat="43.64862" lon="3.35037">
        <ele>185.6</ele>
        <time>2026-05-17T13:36:57.000Z</time>
      </trkpt>
      <trkpt lat="43.64861" lon="3.35037">
        <ele>185.7</ele>
        <time>2026-05-17T13:36:58.000Z</time>
      </trkpt>
      <trkpt lat="43.6486" lon="3.35037">
        <ele>185.7</ele>
        <time>2026-05-17T13:36:59.000Z</time>
      </trkpt>
      <trkpt lat="43.6486" lon="3.35037">
        <ele>185.9</ele>
        <time>2026-05-17T13:37:00.000Z</time>
      </trkpt>
      <trkpt lat="43.64858" lon="3.35037">
        <ele>185.9</ele>
        <time>2026-05-17T13:37:01.000Z</time>
      </trkpt>
      <trkpt lat="43.64857" lon="3.35037">
        <ele>185.8</ele>
        <time>2026-05-17T13:37:02.000Z</time>
      </trkpt>
      <trkpt lat="43.64856" lon="3.35036">
        <ele>185.7</ele>
        <time>2026-05-17T13:37:03.000Z</time>
      </trkpt>
      <trkpt lat="43.64855" lon="3.35037">
        <ele>185.6</ele>
        <time>2026-05-17T13:37:04.000Z</time>
      </trkpt>
      <trkpt lat="43.64854" lon="3.35037">
        <ele>185.4</ele>
        <time>2026-05-17T13:37:05.000Z</time>
      </trkpt>
      <trkpt lat="43.64853" lon="3.35038">
        <ele>185.7</ele>
        <time>2026-05-17T13:37:06.000Z</time>
      </trkpt>
      <trkpt lat="43.64852" lon="3.35038">
        <ele>185.5</ele>
        <time>2026-05-17T13:37:07.000Z</time>
      </trkpt>
      <trkpt lat="43.64851" lon="3.35038">
        <ele>185.7</ele>
        <time>2026-05-17T13:37:08.000Z</time>
      </trkpt>
      <trkpt lat="43.6485" lon="3.35037">
        <ele>185.8</ele>
        <time>2026-05-17T13:37:09.000Z</time>
      </trkpt>
      <trkpt lat="43.6485" lon="3.35038">
        <ele>185.6</ele>
        <time>2026-05-17T13:37:10.000Z</time>
      </trkpt>
      <trkpt lat="43.6485" lon="3.35038">
        <ele>185.2</ele>
        <time>2026-05-17T13:37:11.000Z</time>
      </trkpt>
      <trkpt lat="43.64851" lon="3.35038">
        <ele>184.9</ele>
        <time>2026-05-17T13:37:12.000Z</time>
      </trkpt>
      <trkpt lat="43.64851" lon="3.35039">
        <ele>184.6</ele>
        <time>2026-05-17T13:37:13.000Z</time>
      </trkpt>
      <trkpt lat="43.64851" lon="3.35039">
        <ele>185</ele>
        <time>2026-05-17T13:37:14.000Z</time>
      </trkpt>
      <trkpt lat="43.64851" lon="3.35039">
        <ele>185</ele>
        <time>2026-05-17T13:37:15.000Z</time>
      </trkpt>
      <trkpt lat="43.64851" lon="3.35039">
        <ele>185.1</ele>
        <time>2026-05-17T13:37:16.000Z</time>
      </trkpt>
      <trkpt lat="43.64851" lon="3.35039">
        <ele>185</ele>
        <time>2026-05-17T13:37:17.000Z</time>
      </trkpt>
      <trkpt lat="43.64851" lon="3.35039">
        <ele>184.9</ele>
        <time>2026-05-17T13:37:18.000Z</time>
      </trkpt>
      <trkpt lat="43.64851" lon="3.35039">
        <ele>185</ele>
        <time>2026-05-17T13:37:19.000Z</time>
      </trkpt>
      <trkpt lat="43.64851" lon="3.35039">
        <ele>185</ele>
        <time>2026-05-17T13:37:20.000Z</time>
      </trkpt>
      <trkpt lat="43.64851" lon="3.35039">
        <ele>184.9</ele>
        <time>2026-05-17T13:37:21.000Z</time>
      </trkpt>
      <trkpt lat="43.64851" lon="3.35039">
        <ele>184.9</ele>
        <time>2026-05-17T13:37:22.000Z</time>
      </trkpt>
      <trkpt lat="43.64851" lon="3.35039">
        <ele>184.9</ele>
        <time>2026-05-17T13:37:23.000Z</time>
      </trkpt>
      <trkpt lat="43.64851" lon="3.35039">
        <ele>184.8</ele>
        <time>2026-05-17T13:37:24.000Z</time>
      </trkpt>
      <trkpt lat="43.64851" lon="3.35039">
        <ele>184.7</ele>
        <time>2026-05-17T13:37:25.000Z</time>
      </trkpt>
      <trkpt lat="43.64851" lon="3.35039">
        <ele>184.7</ele>
        <time>2026-05-17T13:37:26.000Z</time>
      </trkpt>
      <trkpt lat="43.64851" lon="3.35039">
        <ele>184.8</ele>
        <time>2026-05-17T13:37:27.000Z</time>
      </trkpt>
      <trkpt lat="43.64851" lon="3.35039">
        <ele>184.9</ele>
        <time>2026-05-17T13:37:28.000Z</time>
      </trkpt>
      <trkpt lat="43.64851" lon="3.35039">
        <ele>185</ele>
        <time>2026-05-17T13:37:29.000Z</time>
      </trkpt>
      <trkpt lat="43.64851" lon="3.35038">
        <ele>185.2</ele>
        <time>2026-05-17T13:37:31.000Z</time>
      </trkpt>
      <trkpt lat="43.64851" lon="3.35039">
        <ele>185.1</ele>
        <time>2026-05-17T13:37:32.000Z</time>
      </trkpt>
      <trkpt lat="43.64852" lon="3.35038">
        <ele>184.9</ele>
        <time>2026-05-17T13:37:33.000Z</time>
      </trkpt>
      <trkpt lat="43.64852" lon="3.35038">
        <ele>184.6</ele>
        <time>2026-05-17T13:37:34.000Z</time>
      </trkpt>
      <trkpt lat="43.64852" lon="3.35038">
        <ele>184.9</ele>
        <time>2026-05-17T13:37:35.000Z</time>
      </trkpt>
      <trkpt lat="43.64852" lon="3.35039">
        <ele>185.1</ele>
        <time>2026-05-17T13:37:36.000Z</time>
      </trkpt>
      <trkpt lat="43.64852" lon="3.35039">
        <ele>185.2</ele>
        <time>2026-05-17T13:37:37.000Z</time>
      </trkpt>
      <trkpt lat="43.64852" lon="3.35039">
        <ele>185</ele>
        <time>2026-05-17T13:37:38.000Z</time>
      </trkpt>
      <trkpt lat="43.64852" lon="3.35039">
        <ele>185.1</ele>
        <time>2026-05-17T13:37:39.000Z</time>
      </trkpt>
      <trkpt lat="43.64852" lon="3.35039">
        <ele>185.2</ele>
        <time>2026-05-17T13:37:40.000Z</time>
      </trkpt>
      <trkpt lat="43.64852" lon="3.35039">
        <ele>185.3</ele>
        <time>2026-05-17T13:37:41.000Z</time>
      </trkpt>
      <trkpt lat="43.64852" lon="3.35039">
        <ele>185</ele>
        <time>2026-05-17T13:37:42.000Z</time>
      </trkpt>
      <trkpt lat="43.64852" lon="3.35039">
        <ele>184.8</ele>
        <time>2026-05-17T13:37:43.000Z</time>
      </trkpt>
      <trkpt lat="43.64852" lon="3.35039">
        <ele>185.1</ele>
        <time>2026-05-17T13:37:44.000Z</time>
      </trkpt>
      <trkpt lat="43.64852" lon="3.35039">
        <ele>185.5</ele>
        <time>2026-05-17T13:37:45.000Z</time>
      </trkpt>
      <trkpt lat="43.64852" lon="3.35039">
        <ele>185.7</ele>
        <time>2026-05-17T13:37:46.000Z</time>
      </trkpt>
      <trkpt lat="43.64852" lon="3.35039">
        <ele>185.7</ele>
        <time>2026-05-17T13:37:47.000Z</time>
      </trkpt>
      <trkpt lat="43.64852" lon="3.35039">
        <ele>186</ele>
        <time>2026-05-17T13:37:48.000Z</time>
      </trkpt>
      <trkpt lat="43.64852" lon="3.35039">
        <ele>186.4</ele>
        <time>2026-05-17T13:37:49.000Z</time>
      </trkpt>
      <trkpt lat="43.64852" lon="3.35039">
        <ele>186.7</ele>
        <time>2026-05-17T13:37:50.000Z</time>
      </trkpt>
      <trkpt lat="43.64852" lon="3.35039">
        <ele>186.8</ele>
        <time>2026-05-17T13:37:51.000Z</time>
      </trkpt>
      <trkpt lat="43.64852" lon="3.35039">
        <ele>186.8</ele>
        <time>2026-05-17T13:37:52.000Z</time>
      </trkpt>
      <trkpt lat="43.64852" lon="3.35039">
        <ele>186.8</ele>
        <time>2026-05-17T13:37:53.000Z</time>
      </trkpt>
      <trkpt lat="43.64852" lon="3.35039">
        <ele>186.9</ele>
        <time>2026-05-17T13:37:54.000Z</time>
      </trkpt>
      <trkpt lat="43.64852" lon="3.35038">
        <ele>187.2</ele>
        <time>2026-05-17T13:37:55.000Z</time>
      </trkpt>
      <trkpt lat="43.64851" lon="3.3504">
        <ele>187.3</ele>
        <time>2026-05-17T13:37:56.999Z</time>
      </trkpt>
      <trkpt lat="43.64851" lon="3.3504">
        <ele>187.3</ele>
        <time>2026-05-17T13:37:57.999Z</time>
      </trkpt>
      <trkpt lat="43.64851" lon="3.3504">
        <ele>187</ele>
        <time>2026-05-17T13:37:58.999Z</time>
      </trkpt>
      <trkpt lat="43.64851" lon="3.3504">
        <ele>187.1</ele>
        <time>2026-05-17T13:37:59.999Z</time>
      </trkpt>
      <trkpt lat="43.64852" lon="3.3504">
        <ele>186.8</ele>
        <time>2026-05-17T13:38:00.999Z</time>
      </trkpt>
      <trkpt lat="43.64852" lon="3.35041">
        <ele>186.6</ele>
        <time>2026-05-17T13:38:01.999Z</time>
      </trkpt>
      <trkpt lat="43.64852" lon="3.35041">
        <ele>186.4</ele>
        <time>2026-05-17T13:38:02.999Z</time>
      </trkpt>
      <trkpt lat="43.64852" lon="3.35041">
        <ele>186.2</ele>
        <time>2026-05-17T13:38:03.999Z</time>
      </trkpt>
      <trkpt lat="43.64852" lon="3.35041">
        <ele>186.2</ele>
        <time>2026-05-17T13:38:04.999Z</time>
      </trkpt>
      <trkpt lat="43.64852" lon="3.35041">
        <ele>186.1</ele>
        <time>2026-05-17T13:38:05.999Z</time>
      </trkpt>
      <trkpt lat="43.64852" lon="3.35041">
        <ele>186</ele>
        <time>2026-05-17T13:38:06.999Z</time>
      </trkpt>
      <trkpt lat="43.64852" lon="3.35041">
        <ele>186</ele>
        <time>2026-05-17T13:38:07.999Z</time>
      </trkpt>
      <trkpt lat="43.64852" lon="3.35041">
        <ele>185.9</ele>
        <time>2026-05-17T13:38:08.999Z</time>
      </trkpt>
      <trkpt lat="43.64852" lon="3.35041">
        <ele>186.2</ele>
        <time>2026-05-17T13:38:09.999Z</time>
      </trkpt>
      <trkpt lat="43.64852" lon="3.35041">
        <ele>186.2</ele>
        <time>2026-05-17T13:38:10.999Z</time>
      </trkpt>
      <trkpt lat="43.64852" lon="3.35041">
        <ele>186.3</ele>
        <time>2026-05-17T13:38:11.999Z</time>
      </trkpt>
      <trkpt lat="43.64852" lon="3.35041">
        <ele>186.3</ele>
        <time>2026-05-17T13:38:12.999Z</time>
      </trkpt>
      <trkpt lat="43.64852" lon="3.35041">
        <ele>186.4</ele>
        <time>2026-05-17T13:38:13.999Z</time>
      </trkpt>
      <trkpt lat="43.64852" lon="3.35041">
        <ele>186.7</ele>
        <time>2026-05-17T13:38:14.999Z</time>
      </trkpt>
      <trkpt lat="43.64852" lon="3.35041">
        <ele>186.9</ele>
        <time>2026-05-17T13:38:15.999Z</time>
      </trkpt>
      <trkpt lat="43.64852" lon="3.35041">
        <ele>187</ele>
        <time>2026-05-17T13:38:16.999Z</time>
      </trkpt>
      <trkpt lat="43.64852" lon="3.35041">
        <ele>187.1</ele>
        <time>2026-05-17T13:38:17.999Z</time>
      </trkpt>
      <trkpt lat="43.64852" lon="3.35041">
        <ele>187.3</ele>
        <time>2026-05-17T13:38:18.999Z</time>
      </trkpt>
      <trkpt lat="43.64852" lon="3.35041">
        <ele>187.3</ele>
        <time>2026-05-17T13:38:19.999Z</time>
      </trkpt>
      <trkpt lat="43.64852" lon="3.35041">
        <ele>187.5</ele>
        <time>2026-05-17T13:38:20.999Z</time>
      </trkpt>
      <trkpt lat="43.64852" lon="3.35041">
        <ele>187.7</ele>
        <time>2026-05-17T13:38:21.999Z</time>
      </trkpt>
      <trkpt lat="43.64852" lon="3.35041">
        <ele>187.7</ele>
        <time>2026-05-17T13:38:22.999Z</time>
      </trkpt>
      <trkpt lat="43.64852" lon="3.35041">
        <ele>187.7</ele>
        <time>2026-05-17T13:38:23.999Z</time>
      </trkpt>
      <trkpt lat="43.64852" lon="3.35041">
        <ele>187.8</ele>
        <time>2026-05-17T13:38:24.999Z</time>
      </trkpt>
      <trkpt lat="43.64852" lon="3.35041">
        <ele>188</ele>
        <time>2026-05-17T13:38:25.999Z</time>
      </trkpt>
      <trkpt lat="43.64853" lon="3.35041">
        <ele>188.2</ele>
        <time>2026-05-17T13:38:26.999Z</time>
      </trkpt>
      <trkpt lat="43.64853" lon="3.3504">
        <ele>188.6</ele>
        <time>2026-05-17T13:38:27.999Z</time>
      </trkpt>
      <trkpt lat="43.64852" lon="3.3504">
        <ele>188.8</ele>
        <time>2026-05-17T13:38:28.999Z</time>
      </trkpt>
      <trkpt lat="43.64852" lon="3.3504">
        <ele>188.9</ele>
        <time>2026-05-17T13:38:29.999Z</time>
      </trkpt>
      <trkpt lat="43.64852" lon="3.3504">
        <ele>189</ele>
        <time>2026-05-17T13:38:30.999Z</time>
      </trkpt>
      <trkpt lat="43.64852" lon="3.3504">
        <ele>189.1</ele>
        <time>2026-05-17T13:38:31.999Z</time>
      </trkpt>
    </trkseg>
  </trk>
</gpx>